<?xml version='1.0' encoding='UTF-8'?><gpx version="1.1" creator="JPX - https://github.com/jenetics/jpx" xmlns="http://www.topografix.com/GPX/1/1"><trk><trkseg><trkpt lat="39.2453659" lon="9.1170529"><ele>25.0</ele><time>2026-04-06T09:19:02.022Z</time></trkpt><trkpt lat="39.2454304" lon="9.1170006"><ele>25.0</ele><time>2026-04-06T09:19:06.022Z</time></trkpt><trkpt lat="39.2454304" lon="9.1170006"><ele>25.0</ele><time>2026-04-06T09:19:06.022Z</time></trkpt><trkpt lat="39.2454304" lon="9.1170006"><ele>25.0</ele><time>2026-04-06T09:19:06.022Z</time></trkpt><trkpt lat="39.2454304" lon="9.1170006"><ele>25.0</ele><time>2026-04-06T09:19:06.022Z</time></trkpt><trkpt lat="39.2454304" lon="9.1170006"><ele>25.0</ele><time>2026-04-06T09:19:06.022Z</time></trkpt><trkpt lat="39.2454304" lon="9.1170006"><ele>25.0</ele><time>2026-04-06T09:19:06.022Z</time></trkpt><trkpt lat="39.2454304" lon="9.1170006"><ele>25.0</ele><time>2026-04-06T09:19:06.022Z</time></trkpt><trkpt lat="39.2454304" lon="9.1170006"><ele>25.0</ele><time>2026-04-06T09:19:06.022Z</time></trkpt><trkpt lat="39.2454304" lon="9.1170006"><ele>25.0</ele><time>2026-04-06T09:19:06.022Z</time></trkpt><trkpt lat="39.2454304" lon="9.1170006"><ele>25.0</ele><time>2026-04-06T09:19:06.022Z</time></trkpt><trkpt lat="39.2454304" lon="9.1170006"><ele>25.0</ele><time>2026-04-06T09:19:06.022Z</time></trkpt><trkpt lat="39.2454304" lon="9.1170006"><ele>25.0</ele><time>2026-04-06T09:19:06.022Z</time></trkpt><trkpt lat="39.2454304" lon="9.1170006"><ele>25.0</ele><time>2026-04-06T09:19:06.022Z</time></trkpt><trkpt lat="39.2454304" lon="9.1170006"><ele>25.0</ele><time>2026-04-06T09:19:06.022Z</time></trkpt><trkpt lat="39.2454304" lon="9.1170006"><ele>25.0</ele><time>2026-04-06T09:19:06.022Z</time></trkpt><trkpt lat="39.2454304" lon="9.1170006"><ele>25.0</ele><time>2026-04-06T09:19:06.022Z</time></trkpt><trkpt lat="39.2454304" lon="9.1170006"><ele>25.0</ele><time>2026-04-06T09:19:06.022Z</time></trkpt><trkpt lat="39.2454304" lon="9.1170006"><ele>25.0</ele><time>2026-04-06T09:19:06.022Z</time></trkpt><trkpt lat="39.2454304" lon="9.1170006"><ele>25.0</ele><time>2026-04-06T09:19:06.022Z</time></trkpt><trkpt lat="39.2454304" lon="9.1170006"><ele>25.0</ele><time>2026-04-06T09:19:06.022Z</time></trkpt><trkpt lat="39.2454304" lon="9.1170006"><ele>25.0</ele><time>2026-04-06T09:19:06.022Z</time></trkpt><trkpt lat="39.2454304" lon="9.1170006"><ele>25.0</ele><time>2026-04-06T09:19:06.022Z</time></trkpt><trkpt lat="39.2454304" lon="9.1170006"><ele>25.0</ele><time>2026-04-06T09:19:06.022Z</time></trkpt><trkpt lat="39.2454304" lon="9.1170006"><ele>25.0</ele><time>2026-04-06T09:19:06.022Z</time></trkpt></trkseg><trkseg><trkpt lat="39.8139315" lon="9.2722647"><ele>766.0</ele><time>2026-04-06T11:13:00.003Z</time></trkpt><trkpt lat="39.8138548" lon="9.2720959"><ele>766.0</ele><time>2026-04-06T11:13:02.004Z</time></trkpt><trkpt lat="39.8138158" lon="9.2719985"><ele>766.0</ele><time>2026-04-06T11:13:03.004Z</time></trkpt><trkpt lat="39.8137738" lon="9.2719143"><ele>766.0</ele><time>2026-04-06T11:13:04.004Z</time></trkpt><trkpt lat="39.8137399" lon="9.2718386"><ele>766.0</ele><time>2026-04-06T11:13:05.003Z</time></trkpt><trkpt lat="39.8137004" lon="9.2717134"><ele>766.0</ele><time>2026-04-06T11:13:07.004Z</time></trkpt><trkpt lat="39.8137338" lon="9.271627"><ele>766.0</ele><time>2026-04-06T11:13:09.004Z</time></trkpt><trkpt lat="39.8138396" lon="9.2715521"><ele>766.0</ele><time>2026-04-06T11:13:11.003Z</time></trkpt><trkpt lat="39.813909" lon="9.2715214"><ele>766.0</ele><time>2026-04-06T11:13:12.004Z</time></trkpt><trkpt lat="39.8139719" lon="9.2714874"><ele>766.0</ele><time>2026-04-06T11:13:13.004Z</time></trkpt><trkpt lat="39.8140906" lon="9.271431"><ele>766.1666666666667</ele><time>2026-04-06T11:13:15.004Z</time></trkpt><trkpt lat="39.8141537" lon="9.2713959"><ele>766.3333333333334</ele><time>2026-04-06T11:13:16.004Z</time></trkpt><trkpt lat="39.8142122" lon="9.271354"><ele>766.5</ele><time>2026-04-06T11:13:17.004Z</time></trkpt><trkpt lat="39.8142701" lon="9.2713181"><ele>766.6666666666666</ele><time>2026-04-06T11:13:18.004Z</time></trkpt><trkpt lat="39.8143804" lon="9.271257"><ele>766.8333333333333</ele><time>2026-04-06T11:13:20.004Z</time></trkpt><trkpt lat="39.8144754" lon="9.2712104"><ele>767.0</ele><time>2026-04-06T11:13:22.004Z</time></trkpt><trkpt lat="39.8145741" lon="9.2711476"><ele>767.0</ele><time>2026-04-06T11:13:24.004Z</time></trkpt><trkpt lat="39.8146884" lon="9.2710874"><ele>767.0</ele><time>2026-04-06T11:13:26.004Z</time></trkpt><trkpt lat="39.8147826" lon="9.2710298"><ele>767.0</ele><time>2026-04-06T11:13:28.004Z</time></trkpt><trkpt lat="39.8148537" lon="9.2709954"><ele>767.0</ele><time>2026-04-06T11:13:31.004Z</time></trkpt><trkpt lat="39.8149282" lon="9.2710912"><ele>767.0</ele><time>2026-04-06T11:13:34.004Z</time></trkpt><trkpt lat="39.8149515" lon="9.2711736"><ele>767.0</ele><time>2026-04-06T11:13:35.004Z</time></trkpt><trkpt lat="39.814981" lon="9.2712669"><ele>767.0</ele><time>2026-04-06T11:13:36.004Z</time></trkpt><trkpt lat="39.8150175" lon="9.2713738"><ele>767.0</ele><time>2026-04-06T11:13:37.003Z</time></trkpt><trkpt lat="39.8150523" lon="9.2714691"><ele>767.0</ele><time>2026-04-06T11:13:38.003Z</time></trkpt><trkpt lat="39.8150825" lon="9.2715563"><ele>767.0</ele><time>2026-04-06T11:13:39.003Z</time></trkpt><trkpt lat="39.8151089" lon="9.271639"><ele>767.0</ele><time>2026-04-06T11:13:40.004Z</time></trkpt><trkpt lat="39.8151351" lon="9.2717204"><ele>767.2</ele><time>2026-04-06T11:13:41.004Z</time></trkpt><trkpt lat="39.8151784" lon="9.2718541"><ele>767.4000000000001</ele><time>2026-04-06T11:13:43.004Z</time></trkpt><trkpt lat="39.815211" lon="9.2719336"><ele>767.5999999999999</ele><time>2026-04-06T11:13:45.004Z</time></trkpt><trkpt lat="39.8153123" lon="9.2719511"><ele>767.8</ele><time>2026-04-06T11:13:49.003Z</time></trkpt><trkpt lat="39.8154152" lon="9.2718281"><ele>768.0</ele><time>2026-04-06T11:13:51.004Z</time></trkpt><trkpt lat="39.8154697" lon="9.2717548"><ele>768.0</ele><time>2026-04-06T11:13:52.004Z</time></trkpt><trkpt lat="39.815541" lon="9.2716784"><ele>768.0</ele><time>2026-04-06T11:13:53.003Z</time></trkpt><trkpt lat="39.8155939" lon="9.2716154"><ele>768.0</ele><time>2026-04-06T11:13:54.003Z</time></trkpt><trkpt lat="39.8156358" lon="9.2715471"><ele>768.0</ele><time>2026-04-06T11:13:55.004Z</time></trkpt><trkpt lat="39.815717" lon="9.2714363"><ele>768.0</ele><time>2026-04-06T11:13:57.003Z</time></trkpt><trkpt lat="39.8158045" lon="9.271313"><ele>768.0</ele><time>2026-04-06T11:13:59.004Z</time></trkpt><trkpt lat="39.8158511" lon="9.2712511"><ele>768.0</ele><time>2026-04-06T11:14:00.003Z</time></trkpt><trkpt lat="39.8159256" lon="9.2711722"><ele>768.0</ele><time>2026-04-06T11:14:02.003Z</time></trkpt><trkpt lat="39.8159903" lon="9.2710949"><ele>768.0</ele><time>2026-04-06T11:14:04.004Z</time></trkpt><trkpt lat="39.8160618" lon="9.2710097"><ele>768.0</ele><time>2026-04-06T11:14:06.004Z</time></trkpt><trkpt lat="39.8161072" lon="9.2709493"><ele>768.0</ele><time>2026-04-06T11:14:07.003Z</time></trkpt><trkpt lat="39.816152" lon="9.2708876"><ele>767.9999999999999</ele><time>2026-04-06T11:14:08.004Z</time></trkpt><trkpt lat="39.8162013" lon="9.270826"><ele>768.0</ele><time>2026-04-06T11:14:09.004Z</time></trkpt><trkpt lat="39.8162465" lon="9.2707656"><ele>768.0</ele><time>2026-04-06T11:14:10.004Z</time></trkpt><trkpt lat="39.8162958" lon="9.2707026"><ele>768.0</ele><time>2026-04-06T11:14:11.004Z</time></trkpt><trkpt lat="39.8163535" lon="9.2706432"><ele>768.0</ele><time>2026-04-06T11:14:12.003Z</time></trkpt><trkpt lat="39.8164105" lon="9.2705768"><ele>767.9999999999999</ele><time>2026-04-06T11:14:13.004Z</time></trkpt><trkpt lat="39.8164586" lon="9.2705139"><ele>768.0</ele><time>2026-04-06T11:14:14.004Z</time></trkpt><trkpt lat="39.8165062" lon="9.2704508"><ele>767.8</ele><time>2026-04-06T11:14:15.004Z</time></trkpt><trkpt lat="39.8165548" lon="9.2703902"><ele>767.5999999999999</ele><time>2026-04-06T11:14:16.004Z</time></trkpt><trkpt lat="39.8166052" lon="9.2703402"><ele>767.4000000000001</ele><time>2026-04-06T11:14:17.004Z</time></trkpt><trkpt lat="39.8167246" lon="9.2702648"><ele>767.2</ele><time>2026-04-06T11:14:19.003Z</time></trkpt><trkpt lat="39.8168314" lon="9.2702472"><ele>767.0</ele><time>2026-04-06T11:14:21.004Z</time></trkpt><trkpt lat="39.8169357" lon="9.2702852"><ele>767.4000000000001</ele><time>2026-04-06T11:14:23.003Z</time></trkpt><trkpt lat="39.8169979" lon="9.2703315"><ele>767.8000000000001</ele><time>2026-04-06T11:14:24.004Z</time></trkpt><trkpt lat="39.8170707" lon="9.2703981"><ele>768.2</ele><time>2026-04-06T11:14:25.004Z</time></trkpt><trkpt lat="39.817149" lon="9.2704801"><ele>768.6</ele><time>2026-04-06T11:14:26.004Z</time></trkpt><trkpt lat="39.8172248" lon="9.2705597"><ele>769.0</ele><time>2026-04-06T11:14:27.003Z</time></trkpt><trkpt lat="39.8173034" lon="9.2706408"><ele>769.0</ele><time>2026-04-06T11:14:28.004Z</time></trkpt><trkpt lat="39.8173769" lon="9.2707206"><ele>769.0</ele><time>2026-04-06T11:14:29.004Z</time></trkpt><trkpt lat="39.8174513" lon="9.2707944"><ele>769.0</ele><time>2026-04-06T11:14:30.003Z</time></trkpt><trkpt lat="39.8175149" lon="9.2708572"><ele>769.0</ele><time>2026-04-06T11:14:31.004Z</time></trkpt><trkpt lat="39.8175699" lon="9.2709188"><ele>769.0</ele><time>2026-04-06T11:14:32.003Z</time></trkpt><trkpt lat="39.8176431" lon="9.271026"><ele>769.0</ele><time>2026-04-06T11:14:34.004Z</time></trkpt><trkpt lat="39.8176745" lon="9.2711116"><ele>769.0</ele><time>2026-04-06T11:14:36.004Z</time></trkpt><trkpt lat="39.8176899" lon="9.2712132"><ele>769.0</ele><time>2026-04-06T11:14:40.004Z</time></trkpt><trkpt lat="39.8177226" lon="9.271284"><ele>769.0</ele><time>2026-04-06T11:14:44.004Z</time></trkpt><trkpt lat="39.8177836" lon="9.2713447"><ele>769.0</ele><time>2026-04-06T11:14:50.004Z</time></trkpt><trkpt lat="39.8178557" lon="9.2713703"><ele>769.0</ele><time>2026-04-06T11:17:35.004Z</time></trkpt><trkpt lat="39.8179128" lon="9.2714372"><ele>769.0</ele><time>2026-04-06T11:22:01.004Z</time></trkpt><trkpt lat="39.8179949" lon="9.2714409"><ele>769.1666666666666</ele><time>2026-04-06T11:22:04.004Z</time></trkpt><trkpt lat="39.8180723" lon="9.2714698"><ele>769.3333333333333</ele><time>2026-04-06T11:22:07.004Z</time></trkpt><trkpt lat="39.8181246" lon="9.2715268"><ele>769.5</ele><time>2026-04-06T11:22:09.003Z</time></trkpt><trkpt lat="39.818178" lon="9.2715727"><ele>769.6666666666667</ele><time>2026-04-06T11:22:11.004Z</time></trkpt><trkpt lat="39.8182482" lon="9.271646"><ele>769.8333333333334</ele><time>2026-04-06T11:22:13.003Z</time></trkpt><trkpt lat="39.8183288" lon="9.2717316"><ele>770.0</ele><time>2026-04-06T11:22:15.004Z</time></trkpt><trkpt lat="39.8184013" lon="9.2718034"><ele>770.0000000000001</ele><time>2026-04-06T11:22:17.003Z</time></trkpt><trkpt lat="39.8184587" lon="9.2718613"><ele>770.0</ele><time>2026-04-06T11:22:19.003Z</time></trkpt><trkpt lat="39.8185304" lon="9.2719296"><ele>770.0</ele><time>2026-04-06T11:22:22.004Z</time></trkpt><trkpt lat="39.8185923" lon="9.2719911"><ele>770.0</ele><time>2026-04-06T11:22:24.004Z</time></trkpt><trkpt lat="39.8186872" lon="9.2720861"><ele>770.0000000000001</ele><time>2026-04-06T11:22:26.003Z</time></trkpt><trkpt lat="39.8187422" lon="9.2721434"><ele>770.0</ele><time>2026-04-06T11:22:27.004Z</time></trkpt><trkpt lat="39.8187995" lon="9.2722004"><ele>770.1666666666667</ele><time>2026-04-06T11:22:28.004Z</time></trkpt><trkpt lat="39.8188609" lon="9.2722639"><ele>770.3333333333334</ele><time>2026-04-06T11:22:29.004Z</time></trkpt><trkpt lat="39.8189252" lon="9.272329"><ele>770.5</ele><time>2026-04-06T11:22:30.003Z</time></trkpt><trkpt lat="39.8189835" lon="9.2723908"><ele>770.6666666666667</ele><time>2026-04-06T11:22:31.004Z</time></trkpt><trkpt lat="39.8190494" lon="9.2724524"><ele>770.8333333333334</ele><time>2026-04-06T11:22:32.004Z</time></trkpt><trkpt lat="39.8191146" lon="9.2725173"><ele>771.0</ele><time>2026-04-06T11:22:33.004Z</time></trkpt><trkpt lat="39.8191806" lon="9.2725868"><ele>771.3333333333334</ele><time>2026-04-06T11:22:34.003Z</time></trkpt><trkpt lat="39.8192468" lon="9.2726582"><ele>771.6666666666667</ele><time>2026-04-06T11:22:35.004Z</time></trkpt><trkpt lat="39.8193168" lon="9.2727323"><ele>772.0</ele><time>2026-04-06T11:22:36.004Z</time></trkpt><trkpt lat="39.8193899" lon="9.2728033"><ele>772.3333333333334</ele><time>2026-04-06T11:22:37.003Z</time></trkpt><trkpt lat="39.819462" lon="9.2728763"><ele>772.6666666666667</ele><time>2026-04-06T11:22:38.004Z</time></trkpt><trkpt lat="39.8195304" lon="9.2729416"><ele>773.0</ele><time>2026-04-06T11:22:39.003Z</time></trkpt><trkpt lat="39.8195913" lon="9.2730039"><ele>773.0</ele><time>2026-04-06T11:22:40.004Z</time></trkpt><trkpt lat="39.819679" lon="9.2730926"><ele>773.0</ele><time>2026-04-06T11:22:42.004Z</time></trkpt><trkpt lat="39.8197722" lon="9.273196"><ele>773.0</ele><time>2026-04-06T11:22:44.003Z</time></trkpt><trkpt lat="39.8198287" lon="9.2732579"><ele>773.0</ele><time>2026-04-06T11:22:45.004Z</time></trkpt><trkpt lat="39.8198868" lon="9.2733222"><ele>773.0</ele><time>2026-04-06T11:22:46.004Z</time></trkpt><trkpt lat="39.8199471" lon="9.2733877"><ele>773.6666666666667</ele><time>2026-04-06T11:22:47.003Z</time></trkpt><trkpt lat="39.8200096" lon="9.2734518"><ele>774.3333333333334</ele><time>2026-04-06T11:22:48.004Z</time></trkpt><trkpt lat="39.8200737" lon="9.2735189"><ele>775.0</ele><time>2026-04-06T11:22:49.004Z</time></trkpt><trkpt lat="39.82014" lon="9.2735888"><ele>775.6666666666667</ele><time>2026-04-06T11:22:50.004Z</time></trkpt><trkpt lat="39.8202134" lon="9.2736611"><ele>776.3333333333334</ele><time>2026-04-06T11:22:51.004Z</time></trkpt><trkpt lat="39.8202915" lon="9.2737464"><ele>777.0</ele><time>2026-04-06T11:22:52.004Z</time></trkpt><trkpt lat="39.8203763" lon="9.2738352"><ele>777.0</ele><time>2026-04-06T11:22:53.004Z</time></trkpt><trkpt lat="39.8204677" lon="9.2739307"><ele>777.0</ele><time>2026-04-06T11:22:54.004Z</time></trkpt><trkpt lat="39.820568" lon="9.2740321"><ele>777.0</ele><time>2026-04-06T11:22:55.003Z</time></trkpt><trkpt lat="39.8206763" lon="9.2741398"><ele>777.0</ele><time>2026-04-06T11:22:56.004Z</time></trkpt><trkpt lat="39.8207935" lon="9.2742512"><ele>777.0</ele><time>2026-04-06T11:22:57.004Z</time></trkpt><trkpt lat="39.8209127" lon="9.2743542"><ele>777.0</ele><time>2026-04-06T11:22:58.004Z</time></trkpt><trkpt lat="39.8210367" lon="9.2744438"><ele>777.0</ele><time>2026-04-06T11:22:59.004Z</time></trkpt><trkpt lat="39.821166" lon="9.2745314"><ele>777.0</ele><time>2026-04-06T11:23:00.004Z</time></trkpt><trkpt lat="39.8213003" lon="9.2746152"><ele>777.75</ele><time>2026-04-06T11:23:01.003Z</time></trkpt><trkpt lat="39.8214388" lon="9.2746855"><ele>778.5</ele><time>2026-04-06T11:23:02.004Z</time></trkpt><trkpt lat="39.8215692" lon="9.2747443"><ele>779.25</ele><time>2026-04-06T11:23:03.004Z</time></trkpt><trkpt lat="39.8216942" lon="9.2747925"><ele>780.0</ele><time>2026-04-06T11:23:04.003Z</time></trkpt><trkpt lat="39.8218094" lon="9.2748234"><ele>780.75</ele><time>2026-04-06T11:23:05.004Z</time></trkpt><trkpt lat="39.8219263" lon="9.2748457"><ele>781.5</ele><time>2026-04-06T11:23:06.004Z</time></trkpt><trkpt lat="39.8220505" lon="9.2748642"><ele>782.25</ele><time>2026-04-06T11:23:07.004Z</time></trkpt><trkpt lat="39.8221784" lon="9.2748759"><ele>783.0</ele><time>2026-04-06T11:23:08.004Z</time></trkpt><trkpt lat="39.8223098" lon="9.2748844"><ele>783.0</ele><time>2026-04-06T11:23:09.004Z</time></trkpt><trkpt lat="39.8224453" lon="9.2748906"><ele>783.0</ele><time>2026-04-06T11:23:10.004Z</time></trkpt><trkpt lat="39.8225814" lon="9.2749026"><ele>783.0</ele><time>2026-04-06T11:23:11.004Z</time></trkpt><trkpt lat="39.8227124" lon="9.2749086"><ele>783.0</ele><time>2026-04-06T11:23:12.003Z</time></trkpt><trkpt lat="39.8228416" lon="9.2749158"><ele>783.5</ele><time>2026-04-06T11:23:13.004Z</time></trkpt><trkpt lat="39.8229667" lon="9.2749319"><ele>784.0</ele><time>2026-04-06T11:23:14.004Z</time></trkpt><trkpt lat="39.8230917" lon="9.2749631"><ele>784.5</ele><time>2026-04-06T11:23:15.004Z</time></trkpt><trkpt lat="39.8232181" lon="9.2750033"><ele>785.0</ele><time>2026-04-06T11:23:16.003Z</time></trkpt><trkpt lat="39.8233473" lon="9.2750648"><ele>785.0</ele><time>2026-04-06T11:23:17.004Z</time></trkpt><trkpt lat="39.8234796" lon="9.2751313"><ele>785.0</ele><time>2026-04-06T11:23:18.003Z</time></trkpt><trkpt lat="39.8236025" lon="9.2752057"><ele>785.0</ele><time>2026-04-06T11:23:19.004Z</time></trkpt><trkpt lat="39.82374" lon="9.2752893"><ele>785.0</ele><time>2026-04-06T11:23:20.004Z</time></trkpt><trkpt lat="39.8238834" lon="9.2753842"><ele>785.0</ele><time>2026-04-06T11:23:21.004Z</time></trkpt><trkpt lat="39.8240341" lon="9.2754811"><ele>785.0</ele><time>2026-04-06T11:23:22.004Z</time></trkpt><trkpt lat="39.8241767" lon="9.2755765"><ele>785.0</ele><time>2026-04-06T11:23:23.004Z</time></trkpt><trkpt lat="39.8243064" lon="9.2756739"><ele>786.6666666666667</ele><time>2026-04-06T11:23:24.004Z</time></trkpt><trkpt lat="39.8244342" lon="9.2757607"><ele>788.3333333333333</ele><time>2026-04-06T11:23:25.004Z</time></trkpt><trkpt lat="39.8245794" lon="9.2758567"><ele>790.0</ele><time>2026-04-06T11:23:26.004Z</time></trkpt><trkpt lat="39.8247427" lon="9.2759645"><ele>790.0</ele><time>2026-04-06T11:23:27.003Z</time></trkpt><trkpt lat="39.8249059" lon="9.2760897"><ele>790.0</ele><time>2026-04-06T11:23:28.004Z</time></trkpt><trkpt lat="39.8250552" lon="9.2762279"><ele>790.0</ele><time>2026-04-06T11:23:29.004Z</time></trkpt><trkpt lat="39.8251931" lon="9.27637"><ele>789.0</ele><time>2026-04-06T11:23:30.004Z</time></trkpt><trkpt lat="39.8253212" lon="9.2765314"><ele>788.0</ele><time>2026-04-06T11:23:31.003Z</time></trkpt><trkpt lat="39.8254225" lon="9.2767073"><ele>787.0</ele><time>2026-04-06T11:23:32.003Z</time></trkpt><trkpt lat="39.8255003" lon="9.2768927"><ele>787.0</ele><time>2026-04-06T11:23:33.003Z</time></trkpt><trkpt lat="39.8255767" lon="9.2770657"><ele>787.0</ele><time>2026-04-06T11:23:34.004Z</time></trkpt><trkpt lat="39.8256607" lon="9.2772285"><ele>787.0</ele><time>2026-04-06T11:23:35.004Z</time></trkpt><trkpt lat="39.8257657" lon="9.2773687"><ele>786.75</ele><time>2026-04-06T11:23:36.003Z</time></trkpt><trkpt lat="39.8258929" lon="9.2774769"><ele>786.5</ele><time>2026-04-06T11:23:37.003Z</time></trkpt><trkpt lat="39.8260308" lon="9.277555"><ele>786.25</ele><time>2026-04-06T11:23:38.004Z</time></trkpt><trkpt lat="39.8261592" lon="9.2776275"><ele>786.0</ele><time>2026-04-06T11:23:39.004Z</time></trkpt><trkpt lat="39.8262682" lon="9.2777013"><ele>786.0</ele><time>2026-04-06T11:23:40.004Z</time></trkpt><trkpt lat="39.826345" lon="9.2777923"><ele>786.0</ele><time>2026-04-06T11:23:41.004Z</time></trkpt><trkpt lat="39.8263778" lon="9.2778945"><ele>786.0</ele><time>2026-04-06T11:23:42.004Z</time></trkpt><trkpt lat="39.8263656" lon="9.2779828"><ele>786.0</ele><time>2026-04-06T11:23:43.004Z</time></trkpt><trkpt lat="39.8263095" lon="9.2780458"><ele>786.0</ele><time>2026-04-06T11:23:44.003Z</time></trkpt><trkpt lat="39.8262159" lon="9.2780818"><ele>786.0</ele><time>2026-04-06T11:23:45.004Z</time></trkpt><trkpt lat="39.8261099" lon="9.2781292"><ele>785.5</ele><time>2026-04-06T11:23:46.004Z</time></trkpt><trkpt lat="39.8259963" lon="9.2781804"><ele>785.0</ele><time>2026-04-06T11:23:47.004Z</time></trkpt><trkpt lat="39.8258668" lon="9.2782561"><ele>784.5</ele><time>2026-04-06T11:23:48.004Z</time></trkpt><trkpt lat="39.8257481" lon="9.2783506"><ele>784.0</ele><time>2026-04-06T11:23:49.004Z</time></trkpt><trkpt lat="39.825651" lon="9.2784665"><ele>782.6</ele><time>2026-04-06T11:23:50.004Z</time></trkpt><trkpt lat="39.8255853" lon="9.2785924"><ele>781.2</ele><time>2026-04-06T11:23:51.003Z</time></trkpt><trkpt lat="39.8255642" lon="9.2787328"><ele>779.8000000000001</ele><time>2026-04-06T11:23:52.004Z</time></trkpt><trkpt lat="39.8255783" lon="9.2788594"><ele>778.4000000000001</ele><time>2026-04-06T11:23:53.004Z</time></trkpt><trkpt lat="39.8256333" lon="9.2789438"><ele>777.0</ele><time>2026-04-06T11:23:54.004Z</time></trkpt><trkpt lat="39.8257177" lon="9.2789828"><ele>775.5</ele><time>2026-04-06T11:23:55.004Z</time></trkpt><trkpt lat="39.8258214" lon="9.2789768"><ele>774.0</ele><time>2026-04-06T11:23:56.004Z</time></trkpt><trkpt lat="39.8259388" lon="9.2789512"><ele>772.5</ele><time>2026-04-06T11:23:57.003Z</time></trkpt><trkpt lat="39.826069" lon="9.2789321"><ele>771.0</ele><time>2026-04-06T11:23:58.004Z</time></trkpt><trkpt lat="39.8262173" lon="9.2789396"><ele>771.0</ele><time>2026-04-06T11:23:59.004Z</time></trkpt><trkpt lat="39.8263686" lon="9.278988"><ele>771.0</ele><time>2026-04-06T11:24:00.004Z</time></trkpt><trkpt lat="39.8265239" lon="9.2790534"><ele>771.0</ele><time>2026-04-06T11:24:01.004Z</time></trkpt><trkpt lat="39.8266812" lon="9.2791178"><ele>773.3333333333333</ele><time>2026-04-06T11:24:02.004Z</time></trkpt><trkpt lat="39.8268353" lon="9.2791939"><ele>775.6666666666666</ele><time>2026-04-06T11:24:03.003Z</time></trkpt><trkpt lat="39.8269763" lon="9.279287"><ele>778.0</ele><time>2026-04-06T11:24:04.004Z</time></trkpt><trkpt lat="39.8271082" lon="9.2793861"><ele>778.0</ele><time>2026-04-06T11:24:05.004Z</time></trkpt><trkpt lat="39.8272352" lon="9.2794733"><ele>778.0</ele><time>2026-04-06T11:24:06.004Z</time></trkpt><trkpt lat="39.8273672" lon="9.2795392"><ele>778.0</ele><time>2026-04-06T11:24:07.004Z</time></trkpt><trkpt lat="39.8274968" lon="9.2795675"><ele>778.0</ele><time>2026-04-06T11:24:08.003Z</time></trkpt><trkpt lat="39.8276224" lon="9.2795635"><ele>779.25</ele><time>2026-04-06T11:24:09.003Z</time></trkpt><trkpt lat="39.8277501" lon="9.279554"><ele>780.5</ele><time>2026-04-06T11:24:10.004Z</time></trkpt><trkpt lat="39.827876" lon="9.2795594"><ele>781.75</ele><time>2026-04-06T11:24:11.004Z</time></trkpt><trkpt lat="39.8279989" lon="9.2796036"><ele>783.0</ele><time>2026-04-06T11:24:12.003Z</time></trkpt><trkpt lat="39.8281176" lon="9.2796913"><ele>782.25</ele><time>2026-04-06T11:24:13.004Z</time></trkpt><trkpt lat="39.8282317" lon="9.2797939"><ele>781.5</ele><time>2026-04-06T11:24:14.004Z</time></trkpt><trkpt lat="39.8283465" lon="9.2799003"><ele>780.75</ele><time>2026-04-06T11:24:15.004Z</time></trkpt><trkpt lat="39.8284512" lon="9.2800094"><ele>780.0</ele><time>2026-04-06T11:24:16.004Z</time></trkpt><trkpt lat="39.8285216" lon="9.280145"><ele>780.0</ele><time>2026-04-06T11:24:17.004Z</time></trkpt><trkpt lat="39.8285593" lon="9.2802931"><ele>780.0</ele><time>2026-04-06T11:24:18.003Z</time></trkpt><trkpt lat="39.8285632" lon="9.2804393"><ele>780.0</ele><time>2026-04-06T11:24:19.004Z</time></trkpt><trkpt lat="39.8285417" lon="9.2805578"><ele>780.0</ele><time>2026-04-06T11:24:20.004Z</time></trkpt><trkpt lat="39.8284945" lon="9.2806479"><ele>780.0</ele><time>2026-04-06T11:24:21.004Z</time></trkpt><trkpt lat="39.8284217" lon="9.2806994"><ele>777.0</ele><time>2026-04-06T11:24:22.003Z</time></trkpt><trkpt lat="39.8283579" lon="9.2806904"><ele>774.0</ele><time>2026-04-06T11:24:23.004Z</time></trkpt><trkpt lat="39.8282788" lon="9.2806095"><ele>771.0</ele><time>2026-04-06T11:24:24.004Z</time></trkpt><trkpt lat="39.8281937" lon="9.2805414"><ele>768.0</ele><time>2026-04-06T11:24:25.004Z</time></trkpt><trkpt lat="39.828087" lon="9.2804868"><ele>765.0</ele><time>2026-04-06T11:24:26.004Z</time></trkpt><trkpt lat="39.8279595" lon="9.28047"><ele>765.5</ele><time>2026-04-06T11:24:27.004Z</time></trkpt><trkpt lat="39.8278227" lon="9.2804836"><ele>766.0</ele><time>2026-04-06T11:24:28.004Z</time></trkpt><trkpt lat="39.8276751" lon="9.2805224"><ele>766.5</ele><time>2026-04-06T11:24:29.004Z</time></trkpt><trkpt lat="39.8275227" lon="9.2805874"><ele>767.0</ele><time>2026-04-06T11:24:30.003Z</time></trkpt><trkpt lat="39.8273639" lon="9.2806812"><ele>767.0</ele><time>2026-04-06T11:24:31.004Z</time></trkpt><trkpt lat="39.8271914" lon="9.2807537"><ele>767.0</ele><time>2026-04-06T11:24:32.004Z</time></trkpt><trkpt lat="39.8270111" lon="9.2807669"><ele>767.0</ele><time>2026-04-06T11:24:33.004Z</time></trkpt><trkpt lat="39.8268467" lon="9.2807586"><ele>765.6666666666666</ele><time>2026-04-06T11:24:34.004Z</time></trkpt><trkpt lat="39.8266955" lon="9.2807857"><ele>764.3333333333334</ele><time>2026-04-06T11:24:35.003Z</time></trkpt><trkpt lat="39.8265555" lon="9.2808512"><ele>763.0</ele><time>2026-04-06T11:24:36.004Z</time></trkpt><trkpt lat="39.8264343" lon="9.2809661"><ele>763.0</ele><time>2026-04-06T11:24:37.003Z</time></trkpt><trkpt lat="39.8263402" lon="9.2811272"><ele>763.0</ele><time>2026-04-06T11:24:38.004Z</time></trkpt><trkpt lat="39.8262611" lon="9.2813251"><ele>763.0</ele><time>2026-04-06T11:24:39.004Z</time></trkpt><trkpt lat="39.8261556" lon="9.2815268"><ele>763.0</ele><time>2026-04-06T11:24:40.004Z</time></trkpt><trkpt lat="39.8260199" lon="9.281711"><ele>763.0</ele><time>2026-04-06T11:24:41.003Z</time></trkpt><trkpt lat="39.8258923" lon="9.281897"><ele>763.0</ele><time>2026-04-06T11:24:42.003Z</time></trkpt><trkpt lat="39.8257845" lon="9.2820752"><ele>763.0</ele><time>2026-04-06T11:24:43.003Z</time></trkpt><trkpt lat="39.8257008" lon="9.2822221"><ele>763.0</ele><time>2026-04-06T11:24:44.004Z</time></trkpt><trkpt lat="39.8256459" lon="9.2823661"><ele>763.0</ele><time>2026-04-06T11:24:45.004Z</time></trkpt><trkpt lat="39.8256325" lon="9.2825191"><ele>763.0</ele><time>2026-04-06T11:24:46.004Z</time></trkpt><trkpt lat="39.8256574" lon="9.2826766"><ele>766.5</ele><time>2026-04-06T11:24:47.004Z</time></trkpt><trkpt lat="39.8257257" lon="9.2828229"><ele>770.0</ele><time>2026-04-06T11:24:48.004Z</time></trkpt><trkpt lat="39.8258224" lon="9.2829444"><ele>773.5</ele><time>2026-04-06T11:24:49.004Z</time></trkpt><trkpt lat="39.825965" lon="9.2830428"><ele>777.0</ele><time>2026-04-06T11:24:50.004Z</time></trkpt><trkpt lat="39.8261257" lon="9.2831385"><ele>781.6666666666667</ele><time>2026-04-06T11:24:51.004Z</time></trkpt><trkpt lat="39.8262831" lon="9.2832777"><ele>786.3333333333334</ele><time>2026-04-06T11:24:52.004Z</time></trkpt><trkpt lat="39.8264348" lon="9.2834399"><ele>791.0</ele><time>2026-04-06T11:24:53.003Z</time></trkpt><trkpt lat="39.8265825" lon="9.2836086"><ele>791.0</ele><time>2026-04-06T11:24:54.004Z</time></trkpt><trkpt lat="39.8267244" lon="9.2837403"><ele>791.0</ele><time>2026-04-06T11:24:55.004Z</time></trkpt><trkpt lat="39.8268551" lon="9.2838205"><ele>791.0</ele><time>2026-04-06T11:24:56.004Z</time></trkpt><trkpt lat="39.8269701" lon="9.2838946"><ele>791.0</ele><time>2026-04-06T11:24:57.003Z</time></trkpt><trkpt lat="39.8270654" lon="9.2840001"><ele>793.5</ele><time>2026-04-06T11:24:58.004Z</time></trkpt><trkpt lat="39.8271244" lon="9.2841478"><ele>796.0</ele><time>2026-04-06T11:24:59.004Z</time></trkpt><trkpt lat="39.8271654" lon="9.2843467"><ele>798.5</ele><time>2026-04-06T11:25:00.003Z</time></trkpt><trkpt lat="39.8271953" lon="9.2845516"><ele>801.0</ele><time>2026-04-06T11:25:01.003Z</time></trkpt><trkpt lat="39.8271859" lon="9.2847737"><ele>801.0</ele><time>2026-04-06T11:25:02.004Z</time></trkpt><trkpt lat="39.827145" lon="9.2849875"><ele>801.0</ele><time>2026-04-06T11:25:03.004Z</time></trkpt><trkpt lat="39.8271284" lon="9.285191"><ele>801.0</ele><time>2026-04-06T11:25:04.004Z</time></trkpt><trkpt lat="39.8271362" lon="9.285374"><ele>801.0</ele><time>2026-04-06T11:25:05.004Z</time></trkpt><trkpt lat="39.8271814" lon="9.2855373"><ele>801.0</ele><time>2026-04-06T11:25:06.004Z</time></trkpt><trkpt lat="39.8272659" lon="9.2856612"><ele>801.0</ele><time>2026-04-06T11:25:07.004Z</time></trkpt><trkpt lat="39.8273837" lon="9.2857602"><ele>801.0</ele><time>2026-04-06T11:25:08.004Z</time></trkpt><trkpt lat="39.8274899" lon="9.28588"><ele>799.6666666666667</ele><time>2026-04-06T11:25:09.004Z</time></trkpt><trkpt lat="39.8275616" lon="9.2860544"><ele>798.3333333333334</ele><time>2026-04-06T11:25:10.003Z</time></trkpt><trkpt lat="39.8276114" lon="9.2862426"><ele>797.0</ele><time>2026-04-06T11:25:11.004Z</time></trkpt><trkpt lat="39.8276885" lon="9.2864153"><ele>800.75</ele><time>2026-04-06T11:25:12.003Z</time></trkpt><trkpt lat="39.8277828" lon="9.2865391"><ele>804.5</ele><time>2026-04-06T11:25:13.003Z</time></trkpt><trkpt lat="39.8278977" lon="9.2866109"><ele>808.25</ele><time>2026-04-06T11:25:14.004Z</time></trkpt><trkpt lat="39.8280033" lon="9.2866639"><ele>812.0</ele><time>2026-04-06T11:25:15.004Z</time></trkpt><trkpt lat="39.8280736" lon="9.2867496"><ele>812.0</ele><time>2026-04-06T11:25:16.003Z</time></trkpt><trkpt lat="39.8281048" lon="9.2868894"><ele>812.0</ele><time>2026-04-06T11:25:17.004Z</time></trkpt><trkpt lat="39.8280925" lon="9.2870579"><ele>812.0</ele><time>2026-04-06T11:25:18.004Z</time></trkpt><trkpt lat="39.828084" lon="9.2872495"><ele>812.0</ele><time>2026-04-06T11:25:19.004Z</time></trkpt><trkpt lat="39.8280695" lon="9.287451"><ele>812.6666666666667</ele><time>2026-04-06T11:25:20.003Z</time></trkpt><trkpt lat="39.8280607" lon="9.2876475"><ele>813.3333333333333</ele><time>2026-04-06T11:25:21.004Z</time></trkpt><trkpt lat="39.8280696" lon="9.2878477"><ele>814.0</ele><time>2026-04-06T11:25:22.004Z</time></trkpt><trkpt lat="39.8281098" lon="9.2880496"><ele>814.0</ele><time>2026-04-06T11:25:23.004Z</time></trkpt><trkpt lat="39.8281638" lon="9.2882354"><ele>814.0</ele><time>2026-04-06T11:25:24.004Z</time></trkpt><trkpt lat="39.8282094" lon="9.2884193"><ele>814.0</ele><time>2026-04-06T11:25:25.004Z</time></trkpt><trkpt lat="39.8282507" lon="9.2885949"><ele>814.0</ele><time>2026-04-06T11:25:26.004Z</time></trkpt><trkpt lat="39.8283222" lon="9.2887545"><ele>814.0</ele><time>2026-04-06T11:25:27.003Z</time></trkpt><trkpt lat="39.8284232" lon="9.288906"><ele>814.0</ele><time>2026-04-06T11:25:28.004Z</time></trkpt><trkpt lat="39.8285391" lon="9.2890572"><ele>814.0</ele><time>2026-04-06T11:25:29.003Z</time></trkpt><trkpt lat="39.8286547" lon="9.2892175"><ele>819.6666666666666</ele><time>2026-04-06T11:25:30.004Z</time></trkpt><trkpt lat="39.8287658" lon="9.2894034"><ele>825.3333333333333</ele><time>2026-04-06T11:25:31.004Z</time></trkpt><trkpt lat="39.8288822" lon="9.2895854"><ele>831.0</ele><time>2026-04-06T11:25:32.004Z</time></trkpt><trkpt lat="39.8290017" lon="9.2897321"><ele>832.0</ele><time>2026-04-06T11:25:33.004Z</time></trkpt><trkpt lat="39.8291148" lon="9.2898684"><ele>833.0</ele><time>2026-04-06T11:25:34.004Z</time></trkpt><trkpt lat="39.8292153" lon="9.2899866"><ele>834.0</ele><time>2026-04-06T11:25:35.003Z</time></trkpt><trkpt lat="39.8293175" lon="9.2900704"><ele>835.0</ele><time>2026-04-06T11:25:36.004Z</time></trkpt><trkpt lat="39.8294113" lon="9.290123"><ele>834.9999999999999</ele><time>2026-04-06T11:25:37.004Z</time></trkpt><trkpt lat="39.8294876" lon="9.2901816"><ele>835.0</ele><time>2026-04-06T11:25:38.004Z</time></trkpt><trkpt lat="39.8295342" lon="9.2902706"><ele>835.0</ele><time>2026-04-06T11:25:39.004Z</time></trkpt><trkpt lat="39.8295387" lon="9.2903779"><ele>835.0</ele><time>2026-04-06T11:25:40.003Z</time></trkpt><trkpt lat="39.8294834" lon="9.2904597"><ele>834.9999999999999</ele><time>2026-04-06T11:25:41.004Z</time></trkpt><trkpt lat="39.8293915" lon="9.2905022"><ele>835.0</ele><time>2026-04-06T11:25:42.004Z</time></trkpt><trkpt lat="39.8292733" lon="9.2905259"><ele>829.3333333333333</ele><time>2026-04-06T11:25:43.004Z</time></trkpt><trkpt lat="39.8291365" lon="9.2905288"><ele>823.6666666666667</ele><time>2026-04-06T11:25:44.004Z</time></trkpt><trkpt lat="39.8289822" lon="9.2905112"><ele>818.0</ele><time>2026-04-06T11:25:45.004Z</time></trkpt><trkpt lat="39.8288135" lon="9.2904967"><ele>818.0</ele><time>2026-04-06T11:25:46.003Z</time></trkpt><trkpt lat="39.82864" lon="9.2904791"><ele>818.0</ele><time>2026-04-06T11:25:47.004Z</time></trkpt><trkpt lat="39.8284615" lon="9.2904384"><ele>818.0</ele><time>2026-04-06T11:25:48.004Z</time></trkpt><trkpt lat="39.8282764" lon="9.2903842"><ele>816.6666666666667</ele><time>2026-04-06T11:25:49.003Z</time></trkpt><trkpt lat="39.8280924" lon="9.2902977"><ele>815.3333333333333</ele><time>2026-04-06T11:25:50.004Z</time></trkpt><trkpt lat="39.8279119" lon="9.2901831"><ele>814.0</ele><time>2026-04-06T11:25:51.004Z</time></trkpt><trkpt lat="39.8277308" lon="9.2900574"><ele>812.6666666666666</ele><time>2026-04-06T11:25:52.004Z</time></trkpt><trkpt lat="39.8275489" lon="9.2899259"><ele>811.3333333333333</ele><time>2026-04-06T11:25:53.003Z</time></trkpt><trkpt lat="39.8273636" lon="9.2897944"><ele>810.0</ele><time>2026-04-06T11:25:54.004Z</time></trkpt><trkpt lat="39.8271752" lon="9.2896721"><ele>810.0</ele><time>2026-04-06T11:25:55.004Z</time></trkpt><trkpt lat="39.8269903" lon="9.28955"><ele>810.0</ele><time>2026-04-06T11:25:56.003Z</time></trkpt><trkpt lat="39.8268188" lon="9.2893988"><ele>810.0</ele><time>2026-04-06T11:25:57.003Z</time></trkpt><trkpt lat="39.826681" lon="9.2892117"><ele>812.3333333333333</ele><time>2026-04-06T11:25:58.004Z</time></trkpt><trkpt lat="39.8265561" lon="9.2890467"><ele>814.6666666666666</ele><time>2026-04-06T11:25:59.004Z</time></trkpt><trkpt lat="39.8264344" lon="9.2889044"><ele>817.0</ele><time>2026-04-06T11:26:00.003Z</time></trkpt><trkpt lat="39.8263122" lon="9.2887936"><ele>817.0</ele><time>2026-04-06T11:26:01.004Z</time></trkpt><trkpt lat="39.8261847" lon="9.288705"><ele>817.0</ele><time>2026-04-06T11:26:02.004Z</time></trkpt><trkpt lat="39.8260566" lon="9.2886354"><ele>817.0</ele><time>2026-04-06T11:26:03.004Z</time></trkpt><trkpt lat="39.8259205" lon="9.2885962"><ele>817.0</ele><time>2026-04-06T11:26:04.003Z</time></trkpt><trkpt lat="39.8257873" lon="9.2885965"><ele>820.5</ele><time>2026-04-06T11:26:05.003Z</time></trkpt><trkpt lat="39.8256531" lon="9.2886091"><ele>824.0</ele><time>2026-04-06T11:26:06.003Z</time></trkpt><trkpt lat="39.8255266" lon="9.2886348"><ele>827.5</ele><time>2026-04-06T11:26:07.004Z</time></trkpt><trkpt lat="39.8254129" lon="9.2886602"><ele>831.0</ele><time>2026-04-06T11:26:08.003Z</time></trkpt><trkpt lat="39.8253077" lon="9.2886786"><ele>831.0</ele><time>2026-04-06T11:26:09.004Z</time></trkpt><trkpt lat="39.8252111" lon="9.2887125"><ele>831.0</ele><time>2026-04-06T11:26:10.003Z</time></trkpt><trkpt lat="39.8251305" lon="9.2887629"><ele>831.0</ele><time>2026-04-06T11:26:11.004Z</time></trkpt><trkpt lat="39.8250648" lon="9.2888553"><ele>831.0</ele><time>2026-04-06T11:26:12.004Z</time></trkpt><trkpt lat="39.8250206" lon="9.2889893"><ele>831.0</ele><time>2026-04-06T11:26:13.004Z</time></trkpt><trkpt lat="39.8250029" lon="9.2891549"><ele>836.0</ele><time>2026-04-06T11:26:14.003Z</time></trkpt><trkpt lat="39.825019" lon="9.28934"><ele>841.0</ele><time>2026-04-06T11:26:15.003Z</time></trkpt><trkpt lat="39.8250643" lon="9.2895338"><ele>846.0</ele><time>2026-04-06T11:26:16.003Z</time></trkpt><trkpt lat="39.8251267" lon="9.2897338"><ele>850.3333333333333</ele><time>2026-04-06T11:26:17.004Z</time></trkpt><trkpt lat="39.8251888" lon="9.2899499"><ele>854.6666666666666</ele><time>2026-04-06T11:26:18.004Z</time></trkpt><trkpt lat="39.825231" lon="9.2902012"><ele>859.0</ele><time>2026-04-06T11:26:19.004Z</time></trkpt><trkpt lat="39.8252846" lon="9.290455"><ele>860.6666666666666</ele><time>2026-04-06T11:26:20.004Z</time></trkpt><trkpt lat="39.8253681" lon="9.2907031"><ele>862.3333333333333</ele><time>2026-04-06T11:26:21.004Z</time></trkpt><trkpt lat="39.825483" lon="9.2909515"><ele>864.0</ele><time>2026-04-06T11:26:22.004Z</time></trkpt><trkpt lat="39.8256138" lon="9.291204"><ele>860.0</ele><time>2026-04-06T11:26:23.003Z</time></trkpt><trkpt lat="39.8257449" lon="9.2914621"><ele>856.0</ele><time>2026-04-06T11:26:24.004Z</time></trkpt><trkpt lat="39.8258762" lon="9.2917312"><ele>862.5</ele><time>2026-04-06T11:26:25.004Z</time></trkpt><trkpt lat="39.8260109" lon="9.2919924"><ele>869.0</ele><time>2026-04-06T11:26:26.003Z</time></trkpt><trkpt lat="39.8261369" lon="9.2922192"><ele>866.0</ele><time>2026-04-06T11:26:27.003Z</time></trkpt><trkpt lat="39.8262798" lon="9.2924075"><ele>863.0</ele><time>2026-04-06T11:26:28.004Z</time></trkpt><trkpt lat="39.8264432" lon="9.2925475"><ele>860.0</ele><time>2026-04-06T11:26:29.004Z</time></trkpt><trkpt lat="39.8266284" lon="9.2926516"><ele>863.3333333333334</ele><time>2026-04-06T11:26:30.004Z</time></trkpt><trkpt lat="39.8268343" lon="9.2927007"><ele>866.6666666666667</ele><time>2026-04-06T11:26:31.003Z</time></trkpt><trkpt lat="39.8270553" lon="9.2927108"><ele>870.0</ele><time>2026-04-06T11:26:32.004Z</time></trkpt><trkpt lat="39.8272819" lon="9.292706"><ele>870.0</ele><time>2026-04-06T11:26:33.004Z</time></trkpt><trkpt lat="39.8275072" lon="9.2927064"><ele>870.0</ele><time>2026-04-06T11:26:34.003Z</time></trkpt><trkpt lat="39.8277248" lon="9.2927036"><ele>870.0</ele><time>2026-04-06T11:26:35.004Z</time></trkpt><trkpt lat="39.8279258" lon="9.2927245"><ele>872.0</ele><time>2026-04-06T11:26:36.003Z</time></trkpt><trkpt lat="39.8281271" lon="9.2927869"><ele>874.0</ele><time>2026-04-06T11:26:37.004Z</time></trkpt><trkpt lat="39.8283084" lon="9.2928838"><ele>876.0</ele><time>2026-04-06T11:26:38.004Z</time></trkpt><trkpt lat="39.828483" lon="9.2929631"><ele>878.0</ele><time>2026-04-06T11:26:39.004Z</time></trkpt><trkpt lat="39.8286182" lon="9.2930787"><ele>880.0</ele><time>2026-04-06T11:26:40.004Z</time></trkpt><trkpt lat="39.828587" lon="9.2933782"><ele>882.0</ele><time>2026-04-06T11:26:41.004Z</time></trkpt><trkpt lat="39.8286034" lon="9.2935847"><ele>880.3333333333333</ele><time>2026-04-06T11:26:42.004Z</time></trkpt><trkpt lat="39.8285506" lon="9.2937869"><ele>878.6666666666666</ele><time>2026-04-06T11:26:43.004Z</time></trkpt><trkpt lat="39.8284655" lon="9.2939749"><ele>877.0</ele><time>2026-04-06T11:26:44.004Z</time></trkpt><trkpt lat="39.8283462" lon="9.2941036"><ele>877.0</ele><time>2026-04-06T11:26:45.004Z</time></trkpt><trkpt lat="39.8282378" lon="9.2942253"><ele>877.0</ele><time>2026-04-06T11:26:46.004Z</time></trkpt><trkpt lat="39.828159" lon="9.2943723"><ele>877.0</ele><time>2026-04-06T11:26:47.003Z</time></trkpt><trkpt lat="39.8281214" lon="9.2945485"><ele>877.0</ele><time>2026-04-06T11:26:48.004Z</time></trkpt><trkpt lat="39.8281292" lon="9.2947385"><ele>878.6666666666666</ele><time>2026-04-06T11:26:49.004Z</time></trkpt><trkpt lat="39.8281535" lon="9.294919"><ele>880.3333333333333</ele><time>2026-04-06T11:26:50.003Z</time></trkpt><trkpt lat="39.8282269" lon="9.295093"><ele>882.0</ele><time>2026-04-06T11:26:51.004Z</time></trkpt><trkpt lat="39.8283452" lon="9.2952527"><ele>887.6666666666667</ele><time>2026-04-06T11:26:52.004Z</time></trkpt><trkpt lat="39.8284881" lon="9.2953962"><ele>893.3333333333334</ele><time>2026-04-06T11:26:53.004Z</time></trkpt><trkpt lat="39.8286308" lon="9.2955546"><ele>899.0</ele><time>2026-04-06T11:26:54.004Z</time></trkpt><trkpt lat="39.8287504" lon="9.2957456"><ele>899.0</ele><time>2026-04-06T11:26:55.003Z</time></trkpt><trkpt lat="39.8288443" lon="9.2959523"><ele>899.0</ele><time>2026-04-06T11:26:56.004Z</time></trkpt><trkpt lat="39.828937" lon="9.2961422"><ele>899.0</ele><time>2026-04-06T11:26:57.004Z</time></trkpt><trkpt lat="39.8290659" lon="9.2963082"><ele>895.3333333333334</ele><time>2026-04-06T11:26:58.003Z</time></trkpt><trkpt lat="39.8292187" lon="9.2964409"><ele>891.6666666666667</ele><time>2026-04-06T11:26:59.004Z</time></trkpt><trkpt lat="39.8293752" lon="9.2965892"><ele>888.0</ele><time>2026-04-06T11:27:00.004Z</time></trkpt><trkpt lat="39.8294937" lon="9.2967573"><ele>896.3333333333333</ele><time>2026-04-06T11:27:01.004Z</time></trkpt><trkpt lat="39.8296183" lon="9.2968981"><ele>904.6666666666666</ele><time>2026-04-06T11:27:02.003Z</time></trkpt><trkpt lat="39.8297407" lon="9.2970195"><ele>913.0</ele><time>2026-04-06T11:27:03.003Z</time></trkpt><trkpt lat="39.8298246" lon="9.2971543"><ele>911.25</ele><time>2026-04-06T11:27:04.004Z</time></trkpt><trkpt lat="39.8298533" lon="9.2973156"><ele>909.5</ele><time>2026-04-06T11:27:05.004Z</time></trkpt><trkpt lat="39.8298491" lon="9.2975088"><ele>907.75</ele><time>2026-04-06T11:27:06.004Z</time></trkpt><trkpt lat="39.8298132" lon="9.2977092"><ele>906.0</ele><time>2026-04-06T11:27:07.004Z</time></trkpt><trkpt lat="39.8297636" lon="9.2978827"><ele>906.0</ele><time>2026-04-06T11:27:08.004Z</time></trkpt><trkpt lat="39.829727" lon="9.2980398"><ele>906.0</ele><time>2026-04-06T11:27:09.003Z</time></trkpt><trkpt lat="39.8297252" lon="9.298205"><ele>906.0</ele><time>2026-04-06T11:27:10.004Z</time></trkpt><trkpt lat="39.8297786" lon="9.2983558"><ele>906.0</ele><time>2026-04-06T11:27:11.003Z</time></trkpt><trkpt lat="39.829876" lon="9.2985031"><ele>905.6666666666667</ele><time>2026-04-06T11:27:12.003Z</time></trkpt><trkpt lat="39.8299998" lon="9.2986273"><ele>905.3333333333334</ele><time>2026-04-06T11:27:13.004Z</time></trkpt><trkpt lat="39.8301495" lon="9.2987187"><ele>905.0</ele><time>2026-04-06T11:27:14.004Z</time></trkpt><trkpt lat="39.8302947" lon="9.2987775"><ele>907.3333333333334</ele><time>2026-04-06T11:27:15.004Z</time></trkpt><trkpt lat="39.8304693" lon="9.298762"><ele>909.6666666666667</ele><time>2026-04-06T11:27:16.004Z</time></trkpt><trkpt lat="39.8306414" lon="9.2987192"><ele>912.0</ele><time>2026-04-06T11:27:17.003Z</time></trkpt><trkpt lat="39.8308243" lon="9.2986766"><ele>914.6666666666667</ele><time>2026-04-06T11:27:18.004Z</time></trkpt><trkpt lat="39.8310125" lon="9.2986861"><ele>917.3333333333334</ele><time>2026-04-06T11:27:19.004Z</time></trkpt><trkpt lat="39.8312104" lon="9.2987048"><ele>920.0</ele><time>2026-04-06T11:27:20.003Z</time></trkpt><trkpt lat="39.8313599" lon="9.2988954"><ele>914.3333333333334</ele><time>2026-04-06T11:27:21.004Z</time></trkpt><trkpt lat="39.8315286" lon="9.2989938"><ele>908.6666666666667</ele><time>2026-04-06T11:27:22.004Z</time></trkpt><trkpt lat="39.8317008" lon="9.2990873"><ele>903.0</ele><time>2026-04-06T11:27:23.004Z</time></trkpt><trkpt lat="39.8318618" lon="9.2991494"><ele>903.0</ele><time>2026-04-06T11:27:24.004Z</time></trkpt><trkpt lat="39.8320222" lon="9.2992065"><ele>903.0</ele><time>2026-04-06T11:27:25.003Z</time></trkpt><trkpt lat="39.8321962" lon="9.2992509"><ele>903.0</ele><time>2026-04-06T11:27:26.004Z</time></trkpt><trkpt lat="39.8323779" lon="9.2992754"><ele>903.0</ele><time>2026-04-06T11:27:27.004Z</time></trkpt><trkpt lat="39.8325711" lon="9.2992671"><ele>903.0</ele><time>2026-04-06T11:27:28.003Z</time></trkpt><trkpt lat="39.8327685" lon="9.2992853"><ele>903.0</ele><time>2026-04-06T11:27:29.004Z</time></trkpt><trkpt lat="39.8329595" lon="9.2993207"><ele>902.3333333333333</ele><time>2026-04-06T11:27:30.003Z</time></trkpt><trkpt lat="39.8331314" lon="9.2993624"><ele>901.6666666666666</ele><time>2026-04-06T11:27:31.004Z</time></trkpt><trkpt lat="39.8332955" lon="9.2993809"><ele>901.0</ele><time>2026-04-06T11:27:32.003Z</time></trkpt><trkpt lat="39.8334359" lon="9.2993671"><ele>897.25</ele><time>2026-04-06T11:27:33.004Z</time></trkpt><trkpt lat="39.8335637" lon="9.2993135"><ele>893.5</ele><time>2026-04-06T11:27:34.004Z</time></trkpt><trkpt lat="39.8336807" lon="9.299208"><ele>889.75</ele><time>2026-04-06T11:27:35.004Z</time></trkpt><trkpt lat="39.8337624" lon="9.2990775"><ele>886.0</ele><time>2026-04-06T11:27:36.004Z</time></trkpt><trkpt lat="39.8338242" lon="9.2989552"><ele>892.5</ele><time>2026-04-06T11:27:37.004Z</time></trkpt><trkpt lat="39.8339194" lon="9.2988613"><ele>899.0</ele><time>2026-04-06T11:27:38.003Z</time></trkpt><trkpt lat="39.8340503" lon="9.2988299"><ele>905.5</ele><time>2026-04-06T11:27:39.003Z</time></trkpt><trkpt lat="39.8342015" lon="9.2988579"><ele>912.0</ele><time>2026-04-06T11:27:40.004Z</time></trkpt><trkpt lat="39.8343611" lon="9.2988799"><ele>912.0</ele><time>2026-04-06T11:27:41.004Z</time></trkpt><trkpt lat="39.8345315" lon="9.2989012"><ele>912.0</ele><time>2026-04-06T11:27:42.004Z</time></trkpt><trkpt lat="39.8346952" lon="9.2989308"><ele>912.0</ele><time>2026-04-06T11:27:43.004Z</time></trkpt><trkpt lat="39.8348571" lon="9.2989672"><ele>907.6666666666667</ele><time>2026-04-06T11:27:44.004Z</time></trkpt><trkpt lat="39.8350176" lon="9.2989926"><ele>903.3333333333334</ele><time>2026-04-06T11:27:45.004Z</time></trkpt><trkpt lat="39.8351761" lon="9.2989699"><ele>899.0</ele><time>2026-04-06T11:27:46.004Z</time></trkpt><trkpt lat="39.8353397" lon="9.2989128"><ele>899.0</ele><time>2026-04-06T11:27:47.004Z</time></trkpt><trkpt lat="39.8354876" lon="9.2988289"><ele>899.0</ele><time>2026-04-06T11:27:48.003Z</time></trkpt><trkpt lat="39.8356192" lon="9.2987523"><ele>899.0</ele><time>2026-04-06T11:27:49.004Z</time></trkpt><trkpt lat="39.8357407" lon="9.2986822"><ele>899.0</ele><time>2026-04-06T11:27:50.003Z</time></trkpt><trkpt lat="39.8358592" lon="9.2986513"><ele>899.75</ele><time>2026-04-06T11:27:51.004Z</time></trkpt><trkpt lat="39.8359967" lon="9.2986795"><ele>900.5</ele><time>2026-04-06T11:27:52.004Z</time></trkpt><trkpt lat="39.8361332" lon="9.2987328"><ele>901.25</ele><time>2026-04-06T11:27:53.004Z</time></trkpt><trkpt lat="39.8362819" lon="9.2987764"><ele>902.0</ele><time>2026-04-06T11:27:54.004Z</time></trkpt><trkpt lat="39.8364391" lon="9.2987958"><ele>902.0</ele><time>2026-04-06T11:27:55.003Z</time></trkpt><trkpt lat="39.8365855" lon="9.2988372"><ele>902.0</ele><time>2026-04-06T11:27:56.004Z</time></trkpt><trkpt lat="39.8367045" lon="9.2988961"><ele>902.0</ele><time>2026-04-06T11:27:57.004Z</time></trkpt><trkpt lat="39.8367933" lon="9.2989817"><ele>902.0</ele><time>2026-04-06T11:27:58.004Z</time></trkpt><trkpt lat="39.8368499" lon="9.2991271"><ele>903.0</ele><time>2026-04-06T11:27:59.004Z</time></trkpt><trkpt lat="39.8368789" lon="9.2992784"><ele>904.0</ele><time>2026-04-06T11:28:00.004Z</time></trkpt><trkpt lat="39.836935" lon="9.2994317"><ele>905.0</ele><time>2026-04-06T11:28:01.004Z</time></trkpt><trkpt lat="39.8370204" lon="9.2995717"><ele>906.0</ele><time>2026-04-06T11:28:02.004Z</time></trkpt><trkpt lat="39.8371234" lon="9.2996795"><ele>903.25</ele><time>2026-04-06T11:28:03.003Z</time></trkpt><trkpt lat="39.8372121" lon="9.2997994"><ele>900.5</ele><time>2026-04-06T11:28:04.003Z</time></trkpt><trkpt lat="39.8372983" lon="9.2999143"><ele>897.75</ele><time>2026-04-06T11:28:05.003Z</time></trkpt><trkpt lat="39.8372882" lon="9.3000721"><ele>895.0</ele><time>2026-04-06T11:28:06.004Z</time></trkpt><trkpt lat="39.8372653" lon="9.300207"><ele>895.0</ele><time>2026-04-06T11:28:07.004Z</time></trkpt><trkpt lat="39.8372084" lon="9.3003184"><ele>895.0</ele><time>2026-04-06T11:28:08.004Z</time></trkpt><trkpt lat="39.8371808" lon="9.3004518"><ele>895.0</ele><time>2026-04-06T11:28:09.004Z</time></trkpt><trkpt lat="39.8371875" lon="9.3005934"><ele>895.0</ele><time>2026-04-06T11:28:10.004Z</time></trkpt><trkpt lat="39.8372209" lon="9.3007497"><ele>895.0</ele><time>2026-04-06T11:28:11.004Z</time></trkpt><trkpt lat="39.837248" lon="9.3009229"><ele>893.25</ele><time>2026-04-06T11:28:12.004Z</time></trkpt><trkpt lat="39.8372688" lon="9.3011005"><ele>891.5</ele><time>2026-04-06T11:28:13.004Z</time></trkpt><trkpt lat="39.8372907" lon="9.3012696"><ele>889.75</ele><time>2026-04-06T11:28:14.003Z</time></trkpt><trkpt lat="39.8373341" lon="9.3014432"><ele>888.0</ele><time>2026-04-06T11:28:15.004Z</time></trkpt><trkpt lat="39.837415" lon="9.3015939"><ele>889.0</ele><time>2026-04-06T11:28:16.004Z</time></trkpt><trkpt lat="39.8375085" lon="9.3017385"><ele>890.0</ele><time>2026-04-06T11:28:17.003Z</time></trkpt><trkpt lat="39.8376105" lon="9.3018816"><ele>891.0</ele><time>2026-04-06T11:28:18.004Z</time></trkpt><trkpt lat="39.8377155" lon="9.3020162"><ele>892.0</ele><time>2026-04-06T11:28:19.003Z</time></trkpt><trkpt lat="39.8378406" lon="9.3021168"><ele>892.0</ele><time>2026-04-06T11:28:20.004Z</time></trkpt><trkpt lat="39.8379723" lon="9.3021838"><ele>892.0</ele><time>2026-04-06T11:28:21.003Z</time></trkpt><trkpt lat="39.8381073" lon="9.3022256"><ele>892.0</ele><time>2026-04-06T11:28:22.004Z</time></trkpt><trkpt lat="39.8382388" lon="9.30224"><ele>892.0</ele><time>2026-04-06T11:28:23.004Z</time></trkpt><trkpt lat="39.8383642" lon="9.3022173"><ele>894.2</ele><time>2026-04-06T11:28:24.004Z</time></trkpt><trkpt lat="39.838476" lon="9.3021758"><ele>896.4000000000001</ele><time>2026-04-06T11:28:25.004Z</time></trkpt><trkpt lat="39.8385847" lon="9.3021533"><ele>898.5999999999999</ele><time>2026-04-06T11:28:26.004Z</time></trkpt><trkpt lat="39.8386925" lon="9.3021968"><ele>900.8</ele><time>2026-04-06T11:28:27.004Z</time></trkpt><trkpt lat="39.8387797" lon="9.3022772"><ele>903.0</ele><time>2026-04-06T11:28:28.004Z</time></trkpt><trkpt lat="39.8388928" lon="9.3023131"><ele>902.8</ele><time>2026-04-06T11:28:29.003Z</time></trkpt><trkpt lat="39.8390002" lon="9.3023217"><ele>902.5999999999999</ele><time>2026-04-06T11:28:30.004Z</time></trkpt><trkpt lat="39.8391011" lon="9.3023142"><ele>902.4000000000001</ele><time>2026-04-06T11:28:31.004Z</time></trkpt><trkpt lat="39.8391937" lon="9.3023322"><ele>902.2</ele><time>2026-04-06T11:28:32.004Z</time></trkpt><trkpt lat="39.8392841" lon="9.3023482"><ele>902.0</ele><time>2026-04-06T11:28:33.004Z</time></trkpt><trkpt lat="39.8393052" lon="9.3025043"><ele>895.5</ele><time>2026-04-06T11:28:34.004Z</time></trkpt><trkpt lat="39.8392911" lon="9.3026376"><ele>889.0</ele><time>2026-04-06T11:28:35.004Z</time></trkpt><trkpt lat="39.839242" lon="9.3027857"><ele>882.5</ele><time>2026-04-06T11:28:36.004Z</time></trkpt><trkpt lat="39.8392178" lon="9.3029495"><ele>876.0</ele><time>2026-04-06T11:28:37.004Z</time></trkpt><trkpt lat="39.8392199" lon="9.3031268"><ele>874.3333333333333</ele><time>2026-04-06T11:28:38.004Z</time></trkpt><trkpt lat="39.8392311" lon="9.3033155"><ele>872.6666666666666</ele><time>2026-04-06T11:28:39.004Z</time></trkpt><trkpt lat="39.8392116" lon="9.3035258"><ele>871.0</ele><time>2026-04-06T11:28:40.003Z</time></trkpt><trkpt lat="39.8391582" lon="9.3037304"><ele>872.6666666666666</ele><time>2026-04-06T11:28:41.004Z</time></trkpt><trkpt lat="39.839084" lon="9.3039356"><ele>874.3333333333333</ele><time>2026-04-06T11:28:42.003Z</time></trkpt><trkpt lat="39.8390016" lon="9.3041579"><ele>876.0</ele><time>2026-04-06T11:28:43.004Z</time></trkpt><trkpt lat="39.8389327" lon="9.3043886"><ele>876.0</ele><time>2026-04-06T11:28:44.004Z</time></trkpt><trkpt lat="39.8388865" lon="9.3046298"><ele>876.0</ele><time>2026-04-06T11:28:45.004Z</time></trkpt><trkpt lat="39.8388495" lon="9.3048716"><ele>876.0</ele><time>2026-04-06T11:28:46.004Z</time></trkpt><trkpt lat="39.8388157" lon="9.3051225"><ele>876.6666666666667</ele><time>2026-04-06T11:28:47.004Z</time></trkpt><trkpt lat="39.8387805" lon="9.3053789"><ele>877.3333333333334</ele><time>2026-04-06T11:28:48.004Z</time></trkpt><trkpt lat="39.8387444" lon="9.3056198"><ele>878.0</ele><time>2026-04-06T11:28:49.003Z</time></trkpt><trkpt lat="39.8387154" lon="9.3058363"><ele>879.5</ele><time>2026-04-06T11:28:50.004Z</time></trkpt><trkpt lat="39.8386848" lon="9.3060271"><ele>881.0</ele><time>2026-04-06T11:28:51.004Z</time></trkpt><trkpt lat="39.8386604" lon="9.3061903"><ele>882.5</ele><time>2026-04-06T11:28:52.003Z</time></trkpt><trkpt lat="39.8386368" lon="9.3063462"><ele>884.0</ele><time>2026-04-06T11:28:53.004Z</time></trkpt><trkpt lat="39.8386013" lon="9.3064219"><ele>885.1666666666667</ele><time>2026-04-06T11:28:54.004Z</time></trkpt><trkpt lat="39.838558" lon="9.3064969"><ele>886.3333333333334</ele><time>2026-04-06T11:28:55.003Z</time></trkpt><trkpt lat="39.8385044" lon="9.3065636"><ele>887.5</ele><time>2026-04-06T11:28:56.003Z</time></trkpt><trkpt lat="39.8384267" lon="9.3065766"><ele>888.6666666666667</ele><time>2026-04-06T11:28:57.004Z</time></trkpt><trkpt lat="39.8383691" lon="9.3066204"><ele>889.8333333333334</ele><time>2026-04-06T11:28:58.004Z</time></trkpt><trkpt lat="39.8383073" lon="9.3066926"><ele>891.0</ele><time>2026-04-06T11:28:59.003Z</time></trkpt><trkpt lat="39.838238" lon="9.3068012"><ele>885.5</ele><time>2026-04-06T11:29:00.004Z</time></trkpt><trkpt lat="39.8381743" lon="9.3069366"><ele>880.0</ele><time>2026-04-06T11:29:01.003Z</time></trkpt><trkpt lat="39.8381088" lon="9.3070915"><ele>874.5</ele><time>2026-04-06T11:29:02.003Z</time></trkpt><trkpt lat="39.8380303" lon="9.3072609"><ele>869.0</ele><time>2026-04-06T11:29:03.003Z</time></trkpt><trkpt lat="39.8379563" lon="9.3074451"><ele>869.0</ele><time>2026-04-06T11:29:04.004Z</time></trkpt><trkpt lat="39.837883" lon="9.3076196"><ele>869.0</ele><time>2026-04-06T11:29:05.004Z</time></trkpt><trkpt lat="39.8378304" lon="9.3077652"><ele>869.0</ele><time>2026-04-06T11:29:06.004Z</time></trkpt><trkpt lat="39.8378101" lon="9.3079036"><ele>869.0</ele><time>2026-04-06T11:29:07.004Z</time></trkpt><trkpt lat="39.8378196" lon="9.3080618"><ele>867.0</ele><time>2026-04-06T11:29:08.003Z</time></trkpt><trkpt lat="39.8378659" lon="9.3082183"><ele>865.0</ele><time>2026-04-06T11:29:09.004Z</time></trkpt><trkpt lat="39.8379415" lon="9.3083735"><ele>863.0</ele><time>2026-04-06T11:29:10.004Z</time></trkpt><trkpt lat="39.8380454" lon="9.308517"><ele>861.0</ele><time>2026-04-06T11:29:11.004Z</time></trkpt><trkpt lat="39.838163" lon="9.3086326"><ele>861.0</ele><time>2026-04-06T11:29:12.003Z</time></trkpt><trkpt lat="39.8382917" lon="9.3086906"><ele>861.0</ele><time>2026-04-06T11:29:13.003Z</time></trkpt><trkpt lat="39.838419" lon="9.3086958"><ele>861.0</ele><time>2026-04-06T11:29:14.004Z</time></trkpt><trkpt lat="39.8385553" lon="9.3086608"><ele>861.0</ele><time>2026-04-06T11:29:15.004Z</time></trkpt><trkpt lat="39.8386926" lon="9.3086308"><ele>863.6666666666667</ele><time>2026-04-06T11:29:16.004Z</time></trkpt><trkpt lat="39.8388427" lon="9.3086459"><ele>866.3333333333334</ele><time>2026-04-06T11:29:17.004Z</time></trkpt><trkpt lat="39.8389895" lon="9.3087008"><ele>869.0</ele><time>2026-04-06T11:29:18.004Z</time></trkpt><trkpt lat="39.8391308" lon="9.3087687"><ele>869.0</ele><time>2026-04-06T11:29:19.003Z</time></trkpt><trkpt lat="39.8392666" lon="9.3088736"><ele>869.0</ele><time>2026-04-06T11:29:20.004Z</time></trkpt><trkpt lat="39.8393892" lon="9.309001"><ele>869.0</ele><time>2026-04-06T11:29:21.004Z</time></trkpt><trkpt lat="39.8394958" lon="9.3091461"><ele>867.0</ele><time>2026-04-06T11:29:22.003Z</time></trkpt><trkpt lat="39.8395991" lon="9.3092744"><ele>865.0</ele><time>2026-04-06T11:29:23.004Z</time></trkpt><trkpt lat="39.839697" lon="9.3094021"><ele>863.0</ele><time>2026-04-06T11:29:24.004Z</time></trkpt><trkpt lat="39.8397852" lon="9.3095361"><ele>861.0</ele><time>2026-04-06T11:29:25.004Z</time></trkpt><trkpt lat="39.8398639" lon="9.3096701"><ele>857.25</ele><time>2026-04-06T11:29:26.004Z</time></trkpt><trkpt lat="39.839925" lon="9.3098099"><ele>853.5</ele><time>2026-04-06T11:29:27.004Z</time></trkpt><trkpt lat="39.8399346" lon="9.3099529"><ele>849.75</ele><time>2026-04-06T11:29:28.004Z</time></trkpt><trkpt lat="39.8399088" lon="9.3100937"><ele>846.0</ele><time>2026-04-06T11:29:29.004Z</time></trkpt><trkpt lat="39.8398572" lon="9.3102435"><ele>846.0</ele><time>2026-04-06T11:29:30.004Z</time></trkpt><trkpt lat="39.8398157" lon="9.3104096"><ele>846.0</ele><time>2026-04-06T11:29:31.003Z</time></trkpt><trkpt lat="39.8397597" lon="9.3106068"><ele>846.0</ele><time>2026-04-06T11:29:32.004Z</time></trkpt><trkpt lat="39.8396977" lon="9.3108183"><ele>845.0</ele><time>2026-04-06T11:29:33.004Z</time></trkpt><trkpt lat="39.8396341" lon="9.3110398"><ele>844.0</ele><time>2026-04-06T11:29:34.004Z</time></trkpt><trkpt lat="39.8395549" lon="9.3112651"><ele>843.0</ele><time>2026-04-06T11:29:35.004Z</time></trkpt><trkpt lat="39.8394585" lon="9.3114913"><ele>840.3333333333333</ele><time>2026-04-06T11:29:36.004Z</time></trkpt><trkpt lat="39.8393454" lon="9.3117101"><ele>837.6666666666666</ele><time>2026-04-06T11:29:37.004Z</time></trkpt><trkpt lat="39.8392278" lon="9.3119181"><ele>835.0</ele><time>2026-04-06T11:29:38.004Z</time></trkpt><trkpt lat="39.8391036" lon="9.312133"><ele>833.0</ele><time>2026-04-06T11:29:39.004Z</time></trkpt><trkpt lat="39.8389873" lon="9.3123398"><ele>831.0</ele><time>2026-04-06T11:29:40.003Z</time></trkpt><trkpt lat="39.8388788" lon="9.3125376"><ele>829.0</ele><time>2026-04-06T11:29:41.004Z</time></trkpt><trkpt lat="39.838769" lon="9.3127279"><ele>829.0</ele><time>2026-04-06T11:29:42.003Z</time></trkpt><trkpt lat="39.8386437" lon="9.3129096"><ele>829.0</ele><time>2026-04-06T11:29:43.003Z</time></trkpt><trkpt lat="39.838508" lon="9.3130853"><ele>829.0</ele><time>2026-04-06T11:29:44.003Z</time></trkpt><trkpt lat="39.8383635" lon="9.3132533"><ele>825.3333333333333</ele><time>2026-04-06T11:29:45.003Z</time></trkpt><trkpt lat="39.8382157" lon="9.3134169"><ele>821.6666666666667</ele><time>2026-04-06T11:29:46.004Z</time></trkpt><trkpt lat="39.8380703" lon="9.3135902"><ele>818.0</ele><time>2026-04-06T11:29:47.004Z</time></trkpt><trkpt lat="39.8379339" lon="9.3137782"><ele>819.0</ele><time>2026-04-06T11:29:48.003Z</time></trkpt><trkpt lat="39.8377965" lon="9.3139678"><ele>820.0</ele><time>2026-04-06T11:29:49.004Z</time></trkpt><trkpt lat="39.8376744" lon="9.3141414"><ele>821.0</ele><time>2026-04-06T11:29:50.004Z</time></trkpt><trkpt lat="39.8375649" lon="9.3142944"><ele>818.75</ele><time>2026-04-06T11:29:51.003Z</time></trkpt><trkpt lat="39.8374614" lon="9.3144376"><ele>816.5</ele><time>2026-04-06T11:29:52.003Z</time></trkpt><trkpt lat="39.837373" lon="9.3145658"><ele>814.25</ele><time>2026-04-06T11:29:53.003Z</time></trkpt><trkpt lat="39.8372924" lon="9.3146715"><ele>812.0</ele><time>2026-04-06T11:29:54.004Z</time></trkpt><trkpt lat="39.8372231" lon="9.3147846"><ele>812.0</ele><time>2026-04-06T11:29:55.004Z</time></trkpt><trkpt lat="39.8371816" lon="9.3148933"><ele>812.0</ele><time>2026-04-06T11:29:56.003Z</time></trkpt><trkpt lat="39.8371675" lon="9.3150155"><ele>812.0</ele><time>2026-04-06T11:29:57.004Z</time></trkpt><trkpt lat="39.8371925" lon="9.3151264"><ele>812.0</ele><time>2026-04-06T11:29:58.004Z</time></trkpt><trkpt lat="39.8372472" lon="9.3152244"><ele>812.0</ele><time>2026-04-06T11:29:59.003Z</time></trkpt><trkpt lat="39.8373138" lon="9.315331"><ele>812.0</ele><time>2026-04-06T11:30:00.004Z</time></trkpt><trkpt lat="39.8374596" lon="9.3153428"><ele>812.0</ele><time>2026-04-06T11:30:01.003Z</time></trkpt><trkpt lat="39.8375855" lon="9.3153339"><ele>812.0</ele><time>2026-04-06T11:30:02.004Z</time></trkpt><trkpt lat="39.8377096" lon="9.3152677"><ele>812.0</ele><time>2026-04-06T11:30:03.004Z</time></trkpt><trkpt lat="39.837812" lon="9.3151558"><ele>810.5</ele><time>2026-04-06T11:30:04.003Z</time></trkpt><trkpt lat="39.8379174" lon="9.3150402"><ele>809.0</ele><time>2026-04-06T11:30:05.003Z</time></trkpt><trkpt lat="39.8380445" lon="9.3149558"><ele>807.5</ele><time>2026-04-06T11:30:06.003Z</time></trkpt><trkpt lat="39.8381937" lon="9.314917"><ele>806.0</ele><time>2026-04-06T11:30:07.004Z</time></trkpt><trkpt lat="39.8383404" lon="9.314935"><ele>800.6666666666667</ele><time>2026-04-06T11:30:08.004Z</time></trkpt><trkpt lat="39.8384928" lon="9.314969"><ele>795.3333333333333</ele><time>2026-04-06T11:30:09.004Z</time></trkpt><trkpt lat="39.8386482" lon="9.3149811"><ele>790.0</ele><time>2026-04-06T11:30:10.004Z</time></trkpt><trkpt lat="39.8388108" lon="9.3149428"><ele>790.0</ele><time>2026-04-06T11:30:11.004Z</time></trkpt><trkpt lat="39.8389758" lon="9.3148826"><ele>790.0</ele><time>2026-04-06T11:30:12.003Z</time></trkpt><trkpt lat="39.8391479" lon="9.3148058"><ele>790.0</ele><time>2026-04-06T11:30:13.004Z</time></trkpt><trkpt lat="39.8393207" lon="9.314713"><ele>788.6666666666666</ele><time>2026-04-06T11:30:14.003Z</time></trkpt><trkpt lat="39.8394823" lon="9.3145848"><ele>787.3333333333333</ele><time>2026-04-06T11:30:15.004Z</time></trkpt><trkpt lat="39.839632" lon="9.3144434"><ele>786.0</ele><time>2026-04-06T11:30:16.004Z</time></trkpt><trkpt lat="39.8397668" lon="9.3142772"><ele>786.0</ele><time>2026-04-06T11:30:17.003Z</time></trkpt><trkpt lat="39.8398832" lon="9.3140916"><ele>786.0</ele><time>2026-04-06T11:30:18.004Z</time></trkpt><trkpt lat="39.8399902" lon="9.313913"><ele>786.0</ele><time>2026-04-06T11:30:19.004Z</time></trkpt><trkpt lat="39.8400901" lon="9.3137341"><ele>783.5</ele><time>2026-04-06T11:30:20.004Z</time></trkpt><trkpt lat="39.8401745" lon="9.3135721"><ele>781.0</ele><time>2026-04-06T11:30:21.003Z</time></trkpt><trkpt lat="39.8402481" lon="9.3134171"><ele>778.5</ele><time>2026-04-06T11:30:22.004Z</time></trkpt><trkpt lat="39.8403148" lon="9.3132907"><ele>776.0</ele><time>2026-04-06T11:30:23.004Z</time></trkpt><trkpt lat="39.8403826" lon="9.313203"><ele>776.0</ele><time>2026-04-06T11:30:24.003Z</time></trkpt><trkpt lat="39.8404649" lon="9.313158"><ele>776.0</ele><time>2026-04-06T11:30:25.004Z</time></trkpt><trkpt lat="39.8405725" lon="9.3131312"><ele>776.0</ele><time>2026-04-06T11:30:26.004Z</time></trkpt><trkpt lat="39.8406872" lon="9.313133"><ele>776.0</ele><time>2026-04-06T11:30:27.004Z</time></trkpt><trkpt lat="39.8408201" lon="9.3131336"><ele>776.0</ele><time>2026-04-06T11:30:28.003Z</time></trkpt><trkpt lat="39.8409536" lon="9.3131289"><ele>776.0</ele><time>2026-04-06T11:30:29.003Z</time></trkpt><trkpt lat="39.8410892" lon="9.3131138"><ele>776.0</ele><time>2026-04-06T11:30:30.004Z</time></trkpt><trkpt lat="39.8412133" lon="9.3130747"><ele>776.0</ele><time>2026-04-06T11:30:31.004Z</time></trkpt><trkpt lat="39.8413365" lon="9.3130322"><ele>776.0</ele><time>2026-04-06T11:30:32.003Z</time></trkpt><trkpt lat="39.8414289" lon="9.3128811"><ele>776.0</ele><time>2026-04-06T11:30:33.004Z</time></trkpt><trkpt lat="39.8415238" lon="9.3127541"><ele>776.0</ele><time>2026-04-06T11:30:34.004Z</time></trkpt><trkpt lat="39.8416124" lon="9.312619"><ele>776.0</ele><time>2026-04-06T11:30:35.004Z</time></trkpt><trkpt lat="39.8417022" lon="9.3125024"><ele>776.0</ele><time>2026-04-06T11:30:36.004Z</time></trkpt><trkpt lat="39.8418162" lon="9.312411"><ele>771.5</ele><time>2026-04-06T11:30:37.004Z</time></trkpt><trkpt lat="39.8419412" lon="9.3123798"><ele>767.0</ele><time>2026-04-06T11:30:38.003Z</time></trkpt><trkpt lat="39.84206" lon="9.3123634"><ele>762.5</ele><time>2026-04-06T11:30:39.003Z</time></trkpt><trkpt lat="39.8421788" lon="9.3123862"><ele>758.0</ele><time>2026-04-06T11:30:40.004Z</time></trkpt><trkpt lat="39.8422959" lon="9.3123509"><ele>758.0</ele><time>2026-04-06T11:30:41.003Z</time></trkpt><trkpt lat="39.8424188" lon="9.3123039"><ele>758.0</ele><time>2026-04-06T11:30:42.004Z</time></trkpt><trkpt lat="39.8425082" lon="9.312161"><ele>758.0</ele><time>2026-04-06T11:30:43.004Z</time></trkpt><trkpt lat="39.842567" lon="9.3120186"><ele>758.0</ele><time>2026-04-06T11:30:44.004Z</time></trkpt><trkpt lat="39.8425971" lon="9.3118545"><ele>760.8</ele><time>2026-04-06T11:30:45.004Z</time></trkpt><trkpt lat="39.8426041" lon="9.3116849"><ele>763.5999999999999</ele><time>2026-04-06T11:30:46.004Z</time></trkpt><trkpt lat="39.8426153" lon="9.3115341"><ele>766.4000000000001</ele><time>2026-04-06T11:30:47.004Z</time></trkpt><trkpt lat="39.8426332" lon="9.3114117"><ele>769.2</ele><time>2026-04-06T11:30:48.003Z</time></trkpt><trkpt lat="39.8426547" lon="9.3112953"><ele>772.0</ele><time>2026-04-06T11:30:49.004Z</time></trkpt><trkpt lat="39.8427471" lon="9.3112831"><ele>774.0</ele><time>2026-04-06T11:30:50.003Z</time></trkpt><trkpt lat="39.842822" lon="9.3112916"><ele>776.0</ele><time>2026-04-06T11:30:51.004Z</time></trkpt><trkpt lat="39.8429068" lon="9.3113205"><ele>778.0</ele><time>2026-04-06T11:30:52.004Z</time></trkpt><trkpt lat="39.8429442" lon="9.3114644"><ele>780.0</ele><time>2026-04-06T11:30:53.004Z</time></trkpt><trkpt lat="39.8429795" lon="9.3116202"><ele>782.0</ele><time>2026-04-06T11:30:54.004Z</time></trkpt><trkpt lat="39.8430005" lon="9.311801"><ele>782.0</ele><time>2026-04-06T11:30:55.004Z</time></trkpt><trkpt lat="39.8430172" lon="9.3119833"><ele>782.0</ele><time>2026-04-06T11:30:56.004Z</time></trkpt><trkpt lat="39.8430181" lon="9.3121724"><ele>782.0</ele><time>2026-04-06T11:30:57.004Z</time></trkpt><trkpt lat="39.8429969" lon="9.3123636"><ele>782.0</ele><time>2026-04-06T11:30:58.004Z</time></trkpt><trkpt lat="39.8429513" lon="9.3125661"><ele>780.3333333333334</ele><time>2026-04-06T11:30:59.004Z</time></trkpt><trkpt lat="39.8428918" lon="9.3127664"><ele>778.6666666666667</ele><time>2026-04-06T11:31:00.004Z</time></trkpt><trkpt lat="39.8428295" lon="9.312976"><ele>777.0</ele><time>2026-04-06T11:31:01.004Z</time></trkpt><trkpt lat="39.8427625" lon="9.3131766"><ele>776.0</ele><time>2026-04-06T11:31:02.004Z</time></trkpt><trkpt lat="39.8426637" lon="9.3133357"><ele>775.0</ele><time>2026-04-06T11:31:03.003Z</time></trkpt><trkpt lat="39.8425746" lon="9.3134918"><ele>774.0</ele><time>2026-04-06T11:31:04.003Z</time></trkpt><trkpt lat="39.84252" lon="9.3136935"><ele>769.0</ele><time>2026-04-06T11:31:05.004Z</time></trkpt><trkpt lat="39.8424588" lon="9.3138712"><ele>764.0</ele><time>2026-04-06T11:31:06.003Z</time></trkpt><trkpt lat="39.8424863" lon="9.3141206"><ele>759.0</ele><time>2026-04-06T11:31:07.004Z</time></trkpt><trkpt lat="39.842461" lon="9.3143248"><ele>759.0</ele><time>2026-04-06T11:31:08.004Z</time></trkpt><trkpt lat="39.8424356" lon="9.31453"><ele>759.0</ele><time>2026-04-06T11:31:09.003Z</time></trkpt><trkpt lat="39.842382" lon="9.3147256"><ele>759.0</ele><time>2026-04-06T11:31:10.004Z</time></trkpt><trkpt lat="39.8423118" lon="9.3148941"><ele>762.25</ele><time>2026-04-06T11:31:11.003Z</time></trkpt><trkpt lat="39.8422314" lon="9.3150444"><ele>765.5</ele><time>2026-04-06T11:31:12.003Z</time></trkpt><trkpt lat="39.8421642" lon="9.3151863"><ele>768.75</ele><time>2026-04-06T11:31:13.003Z</time></trkpt><trkpt lat="39.8421091" lon="9.3153449"><ele>772.0</ele><time>2026-04-06T11:31:14.003Z</time></trkpt><trkpt lat="39.8420805" lon="9.3155021"><ele>775.25</ele><time>2026-04-06T11:31:15.004Z</time></trkpt><trkpt lat="39.8420781" lon="9.3156548"><ele>778.5</ele><time>2026-04-06T11:31:16.004Z</time></trkpt><trkpt lat="39.8420898" lon="9.3158105"><ele>781.75</ele><time>2026-04-06T11:31:17.004Z</time></trkpt><trkpt lat="39.842101" lon="9.3159665"><ele>785.0</ele><time>2026-04-06T11:31:18.004Z</time></trkpt><trkpt lat="39.8420964" lon="9.3161121"><ele>785.0</ele><time>2026-04-06T11:31:19.003Z</time></trkpt><trkpt lat="39.8420471" lon="9.3162588"><ele>785.0</ele><time>2026-04-06T11:31:20.004Z</time></trkpt><trkpt lat="39.842019" lon="9.3164216"><ele>785.0</ele><time>2026-04-06T11:31:21.003Z</time></trkpt><trkpt lat="39.8420136" lon="9.3166024"><ele>785.0</ele><time>2026-04-06T11:31:22.004Z</time></trkpt><trkpt lat="39.8420254" lon="9.3167723"><ele>786.8</ele><time>2026-04-06T11:31:23.004Z</time></trkpt><trkpt lat="39.8420446" lon="9.3169324"><ele>788.6</ele><time>2026-04-06T11:31:24.004Z</time></trkpt><trkpt lat="39.8420698" lon="9.3170776"><ele>790.4000000000001</ele><time>2026-04-06T11:31:25.004Z</time></trkpt><trkpt lat="39.8420907" lon="9.3172061"><ele>792.2</ele><time>2026-04-06T11:31:26.003Z</time></trkpt><trkpt lat="39.8420721" lon="9.3173223"><ele>794.0</ele><time>2026-04-06T11:31:27.003Z</time></trkpt><trkpt lat="39.8420188" lon="9.3174175"><ele>795.4000000000001</ele><time>2026-04-06T11:31:28.004Z</time></trkpt><trkpt lat="39.841942" lon="9.3174979"><ele>796.8</ele><time>2026-04-06T11:31:29.004Z</time></trkpt><trkpt lat="39.8418553" lon="9.3175643"><ele>798.2</ele><time>2026-04-06T11:31:30.004Z</time></trkpt><trkpt lat="39.8417677" lon="9.3176436"><ele>799.5999999999999</ele><time>2026-04-06T11:31:31.004Z</time></trkpt><trkpt lat="39.8416906" lon="9.3177326"><ele>801.0</ele><time>2026-04-06T11:31:32.004Z</time></trkpt><trkpt lat="39.8416167" lon="9.3178207"><ele>800.1999999999999</ele><time>2026-04-06T11:31:33.003Z</time></trkpt><trkpt lat="39.8415499" lon="9.3179081"><ele>799.4</ele><time>2026-04-06T11:31:34.003Z</time></trkpt><trkpt lat="39.8414804" lon="9.3179985"><ele>798.6</ele><time>2026-04-06T11:31:35.003Z</time></trkpt><trkpt lat="39.8414121" lon="9.3180998"><ele>797.8</ele><time>2026-04-06T11:31:36.003Z</time></trkpt><trkpt lat="39.8413421" lon="9.3181914"><ele>797.0</ele><time>2026-04-06T11:31:37.004Z</time></trkpt><trkpt lat="39.8412829" lon="9.3182921"><ele>797.0</ele><time>2026-04-06T11:31:38.003Z</time></trkpt><trkpt lat="39.84124" lon="9.3184065"><ele>797.0</ele><time>2026-04-06T11:31:39.004Z</time></trkpt><trkpt lat="39.8412114" lon="9.3185217"><ele>797.0</ele><time>2026-04-06T11:31:40.003Z</time></trkpt><trkpt lat="39.84119" lon="9.3186358"><ele>797.0</ele><time>2026-04-06T11:31:41.004Z</time></trkpt><trkpt lat="39.8411679" lon="9.3187497"><ele>797.0</ele><time>2026-04-06T11:31:42.004Z</time></trkpt><trkpt lat="39.8411614" lon="9.3188676"><ele>799.3333333333334</ele><time>2026-04-06T11:31:43.003Z</time></trkpt><trkpt lat="39.8411631" lon="9.318993"><ele>801.6666666666667</ele><time>2026-04-06T11:31:44.004Z</time></trkpt><trkpt lat="39.8411689" lon="9.3191203"><ele>804.0</ele><time>2026-04-06T11:31:45.003Z</time></trkpt><trkpt lat="39.8411834" lon="9.3192352"><ele>806.3333333333333</ele><time>2026-04-06T11:31:46.004Z</time></trkpt><trkpt lat="39.8411874" lon="9.3193431"><ele>808.6666666666666</ele><time>2026-04-06T11:31:47.004Z</time></trkpt><trkpt lat="39.8411751" lon="9.3194422"><ele>811.0</ele><time>2026-04-06T11:31:48.004Z</time></trkpt><trkpt lat="39.8411113" lon="9.3195736"><ele>811.0</ele><time>2026-04-06T11:31:50.004Z</time></trkpt><trkpt lat="39.8410354" lon="9.3196605"><ele>811.0</ele><time>2026-04-06T11:31:52.004Z</time></trkpt><trkpt lat="39.8409668" lon="9.3197934"><ele>811.0</ele><time>2026-04-06T11:31:54.004Z</time></trkpt><trkpt lat="39.8409273" lon="9.3198829"><ele>811.0</ele><time>2026-04-06T11:31:55.004Z</time></trkpt><trkpt lat="39.8408937" lon="9.3199823"><ele>811.0</ele><time>2026-04-06T11:31:56.004Z</time></trkpt><trkpt lat="39.8408568" lon="9.3200882"><ele>809.5999999999999</ele><time>2026-04-06T11:31:57.004Z</time></trkpt><trkpt lat="39.8408148" lon="9.3201945"><ele>808.2</ele><time>2026-04-06T11:31:58.004Z</time></trkpt><trkpt lat="39.8407632" lon="9.320304"><ele>806.8</ele><time>2026-04-06T11:31:59.004Z</time></trkpt><trkpt lat="39.8407108" lon="9.3204155"><ele>805.4000000000001</ele><time>2026-04-06T11:32:00.004Z</time></trkpt><trkpt lat="39.8406322" lon="9.3204984"><ele>804.0</ele><time>2026-04-06T11:32:01.004Z</time></trkpt><trkpt lat="39.840568" lon="9.3205937"><ele>804.0</ele><time>2026-04-06T11:32:02.004Z</time></trkpt><trkpt lat="39.8405237" lon="9.3206883"><ele>804.0</ele><time>2026-04-06T11:32:03.004Z</time></trkpt><trkpt lat="39.8404804" lon="9.3207873"><ele>804.0</ele><time>2026-04-06T11:32:04.004Z</time></trkpt><trkpt lat="39.8404407" lon="9.3208811"><ele>804.0</ele><time>2026-04-06T11:32:05.003Z</time></trkpt><trkpt lat="39.8403953" lon="9.3209623"><ele>804.0</ele><time>2026-04-06T11:32:06.003Z</time></trkpt><trkpt lat="39.840359" lon="9.321053"><ele>804.0</ele><time>2026-04-06T11:32:07.004Z</time></trkpt><trkpt lat="39.8403355" lon="9.3211399"><ele>804.0</ele><time>2026-04-06T11:32:08.003Z</time></trkpt><trkpt lat="39.8402958" lon="9.3212164"><ele>804.0</ele><time>2026-04-06T11:32:09.004Z</time></trkpt><trkpt lat="39.8402522" lon="9.3212986"><ele>804.0</ele><time>2026-04-06T11:32:10.003Z</time></trkpt><trkpt lat="39.8402054" lon="9.3213725"><ele>804.0</ele><time>2026-04-06T11:32:11.004Z</time></trkpt><trkpt lat="39.8401562" lon="9.321451"><ele>804.0</ele><time>2026-04-06T11:32:12.003Z</time></trkpt><trkpt lat="39.8400907" lon="9.321509"><ele>804.0</ele><time>2026-04-06T11:32:13.004Z</time></trkpt><trkpt lat="39.8400407" lon="9.3215836"><ele>802.8333333333334</ele><time>2026-04-06T11:32:14.003Z</time></trkpt><trkpt lat="39.8399974" lon="9.3216671"><ele>801.6666666666667</ele><time>2026-04-06T11:32:15.004Z</time></trkpt><trkpt lat="39.8399671" lon="9.3217753"><ele>800.5</ele><time>2026-04-06T11:32:16.003Z</time></trkpt><trkpt lat="39.8399303" lon="9.3218676"><ele>799.3333333333334</ele><time>2026-04-06T11:32:17.003Z</time></trkpt><trkpt lat="39.839902" lon="9.3219725"><ele>798.1666666666667</ele><time>2026-04-06T11:32:18.004Z</time></trkpt><trkpt lat="39.8398725" lon="9.3220755"><ele>797.0</ele><time>2026-04-06T11:32:19.004Z</time></trkpt><trkpt lat="39.8398422" lon="9.3221598"><ele>798.75</ele><time>2026-04-06T11:32:20.004Z</time></trkpt><trkpt lat="39.8398098" lon="9.3223059"><ele>800.5</ele><time>2026-04-06T11:32:22.004Z</time></trkpt><trkpt lat="39.8397956" lon="9.3224676"><ele>802.25</ele><time>2026-04-06T11:32:24.003Z</time></trkpt><trkpt lat="39.8397816" lon="9.3225581"><ele>804.0</ele><time>2026-04-06T11:32:25.004Z</time></trkpt><trkpt lat="39.8397622" lon="9.3227704"><ele>804.0</ele><time>2026-04-06T11:32:27.004Z</time></trkpt><trkpt lat="39.8397556" lon="9.3228803"><ele>804.0</ele><time>2026-04-06T11:32:28.004Z</time></trkpt><trkpt lat="39.8397608" lon="9.3229907"><ele>804.0</ele><time>2026-04-06T11:32:29.004Z</time></trkpt><trkpt lat="39.8397664" lon="9.3231111"><ele>804.0</ele><time>2026-04-06T11:32:30.004Z</time></trkpt><trkpt lat="39.8397751" lon="9.3232313"><ele>804.0</ele><time>2026-04-06T11:32:31.004Z</time></trkpt><trkpt lat="39.8397921" lon="9.3233446"><ele>804.0</ele><time>2026-04-06T11:32:32.004Z</time></trkpt><trkpt lat="39.8398157" lon="9.3234633"><ele>804.5</ele><time>2026-04-06T11:32:33.004Z</time></trkpt><trkpt lat="39.8398371" lon="9.3235643"><ele>805.0</ele><time>2026-04-06T11:32:34.004Z</time></trkpt><trkpt lat="39.8398451" lon="9.3236589"><ele>805.5</ele><time>2026-04-06T11:32:35.003Z</time></trkpt><trkpt lat="39.8398624" lon="9.3237458"><ele>806.0</ele><time>2026-04-06T11:32:36.004Z</time></trkpt><trkpt lat="39.8398745" lon="9.3238297"><ele>806.5</ele><time>2026-04-06T11:32:37.004Z</time></trkpt><trkpt lat="39.8398033" lon="9.3239709"><ele>807.0</ele><time>2026-04-06T11:32:39.004Z</time></trkpt><trkpt lat="39.8397424" lon="9.3240025"><ele>806.3333333333334</ele><time>2026-04-06T11:32:40.004Z</time></trkpt><trkpt lat="39.8396748" lon="9.3240335"><ele>805.6666666666667</ele><time>2026-04-06T11:32:41.004Z</time></trkpt><trkpt lat="39.8396055" lon="9.3240629"><ele>805.0</ele><time>2026-04-06T11:32:42.004Z</time></trkpt><trkpt lat="39.8395378" lon="9.324083"><ele>804.3333333333334</ele><time>2026-04-06T11:32:43.004Z</time></trkpt><trkpt lat="39.8394721" lon="9.3240598"><ele>803.6666666666667</ele><time>2026-04-06T11:32:44.003Z</time></trkpt><trkpt lat="39.8393444" lon="9.3240277"><ele>803.0</ele><time>2026-04-06T11:32:46.004Z</time></trkpt><trkpt lat="39.8392313" lon="9.324002"><ele>803.0</ele><time>2026-04-06T11:32:48.004Z</time></trkpt><trkpt lat="39.8391265" lon="9.3239973"><ele>803.0</ele><time>2026-04-06T11:32:50.004Z</time></trkpt><trkpt lat="39.8390284" lon="9.3240487"><ele>803.0</ele><time>2026-04-06T11:32:52.004Z</time></trkpt><trkpt lat="39.8389397" lon="9.32417"><ele>803.0</ele><time>2026-04-06T11:32:54.004Z</time></trkpt><trkpt lat="39.8388903" lon="9.3242528"><ele>803.0</ele><time>2026-04-06T11:32:55.004Z</time></trkpt><trkpt lat="39.8388379" lon="9.3243367"><ele>803.0</ele><time>2026-04-06T11:32:56.004Z</time></trkpt><trkpt lat="39.8387824" lon="9.3244263"><ele>803.0</ele><time>2026-04-06T11:32:57.003Z</time></trkpt><trkpt lat="39.838703" lon="9.3244964"><ele>803.0</ele><time>2026-04-06T11:32:58.004Z</time></trkpt><trkpt lat="39.8386201" lon="9.3245137"><ele>803.0</ele><time>2026-04-06T11:32:59.004Z</time></trkpt><trkpt lat="39.8385292" lon="9.3245281"><ele>803.0</ele><time>2026-04-06T11:33:00.003Z</time></trkpt><trkpt lat="39.8384319" lon="9.3245449"><ele>800.0000000000001</ele><time>2026-04-06T11:33:01.004Z</time></trkpt><trkpt lat="39.8383417" lon="9.3245566"><ele>797.0</ele><time>2026-04-06T11:33:02.004Z</time></trkpt><trkpt lat="39.8382625" lon="9.3245722"><ele>794.0</ele><time>2026-04-06T11:33:03.003Z</time></trkpt><trkpt lat="39.8381877" lon="9.3245916"><ele>791.0</ele><time>2026-04-06T11:33:04.003Z</time></trkpt><trkpt lat="39.8381102" lon="9.324606"><ele>788.0000000000001</ele><time>2026-04-06T11:33:05.004Z</time></trkpt><trkpt lat="39.8380271" lon="9.324634"><ele>785.0</ele><time>2026-04-06T11:33:06.003Z</time></trkpt><trkpt lat="39.8379413" lon="9.3246702"><ele>785.0</ele><time>2026-04-06T11:33:07.003Z</time></trkpt><trkpt lat="39.8378527" lon="9.3247136"><ele>785.0</ele><time>2026-04-06T11:33:08.004Z</time></trkpt><trkpt lat="39.8377711" lon="9.3247539"><ele>785.0</ele><time>2026-04-06T11:33:09.003Z</time></trkpt><trkpt lat="39.8376854" lon="9.3247995"><ele>785.0</ele><time>2026-04-06T11:33:10.004Z</time></trkpt><trkpt lat="39.8376044" lon="9.3248557"><ele>785.0</ele><time>2026-04-06T11:33:11.003Z</time></trkpt><trkpt lat="39.837524" lon="9.3249121"><ele>787.0000000000001</ele><time>2026-04-06T11:33:12.004Z</time></trkpt><trkpt lat="39.8374575" lon="9.3249723"><ele>789.0</ele><time>2026-04-06T11:33:13.004Z</time></trkpt><trkpt lat="39.8374008" lon="9.3250314"><ele>791.0</ele><time>2026-04-06T11:33:14.004Z</time></trkpt><trkpt lat="39.8373428" lon="9.3250825"><ele>793.0</ele><time>2026-04-06T11:33:15.004Z</time></trkpt><trkpt lat="39.8372826" lon="9.3251414"><ele>795.0000000000001</ele><time>2026-04-06T11:33:16.004Z</time></trkpt><trkpt lat="39.8372219" lon="9.3252032"><ele>797.0</ele><time>2026-04-06T11:33:17.003Z</time></trkpt><trkpt lat="39.8371564" lon="9.3252692"><ele>797.0</ele><time>2026-04-06T11:33:18.004Z</time></trkpt><trkpt lat="39.8370898" lon="9.3253437"><ele>797.0</ele><time>2026-04-06T11:33:19.004Z</time></trkpt><trkpt lat="39.8370168" lon="9.3254198"><ele>797.0</ele><time>2026-04-06T11:33:20.004Z</time></trkpt><trkpt lat="39.8369409" lon="9.3254992"><ele>797.0</ele><time>2026-04-06T11:33:21.004Z</time></trkpt><trkpt lat="39.836862" lon="9.325582"><ele>797.0</ele><time>2026-04-06T11:33:22.004Z</time></trkpt><trkpt lat="39.8367805" lon="9.3256644"><ele>797.4000000000001</ele><time>2026-04-06T11:33:23.004Z</time></trkpt><trkpt lat="39.8366931" lon="9.32574"><ele>797.8000000000001</ele><time>2026-04-06T11:33:24.003Z</time></trkpt><trkpt lat="39.8366084" lon="9.3258139"><ele>798.2</ele><time>2026-04-06T11:33:25.004Z</time></trkpt><trkpt lat="39.8365222" lon="9.3258934"><ele>798.6</ele><time>2026-04-06T11:33:26.003Z</time></trkpt><trkpt lat="39.836434" lon="9.3259741"><ele>799.0</ele><time>2026-04-06T11:33:27.004Z</time></trkpt><trkpt lat="39.8363477" lon="9.3260422"><ele>799.0</ele><time>2026-04-06T11:33:28.004Z</time></trkpt><trkpt lat="39.8362727" lon="9.3261095"><ele>799.0</ele><time>2026-04-06T11:33:29.004Z</time></trkpt><trkpt lat="39.8362091" lon="9.3261875"><ele>799.0</ele><time>2026-04-06T11:33:30.003Z</time></trkpt><trkpt lat="39.8361487" lon="9.3262761"><ele>799.0</ele><time>2026-04-06T11:33:31.004Z</time></trkpt><trkpt lat="39.8360828" lon="9.326375"><ele>799.0</ele><time>2026-04-06T11:33:32.004Z</time></trkpt><trkpt lat="39.8360173" lon="9.3264754"><ele>797.8000000000001</ele><time>2026-04-06T11:33:33.004Z</time></trkpt><trkpt lat="39.8359539" lon="9.3265629"><ele>796.6</ele><time>2026-04-06T11:33:34.004Z</time></trkpt><trkpt lat="39.8358877" lon="9.326633"><ele>795.4</ele><time>2026-04-06T11:33:35.004Z</time></trkpt><trkpt lat="39.8358175" lon="9.326712"><ele>794.2</ele><time>2026-04-06T11:33:36.003Z</time></trkpt><trkpt lat="39.8357386" lon="9.3267798"><ele>793.0</ele><time>2026-04-06T11:33:37.004Z</time></trkpt><trkpt lat="39.8356615" lon="9.3268423"><ele>793.0</ele><time>2026-04-06T11:33:38.004Z</time></trkpt><trkpt lat="39.8355808" lon="9.3268992"><ele>793.0</ele><time>2026-04-06T11:33:39.004Z</time></trkpt><trkpt lat="39.8354937" lon="9.3269668"><ele>793.0</ele><time>2026-04-06T11:33:40.003Z</time></trkpt><trkpt lat="39.8354108" lon="9.3270191"><ele>793.0</ele><time>2026-04-06T11:33:41.004Z</time></trkpt><trkpt lat="39.8353245" lon="9.327072"><ele>793.0</ele><time>2026-04-06T11:33:42.004Z</time></trkpt><trkpt lat="39.8352392" lon="9.3271195"><ele>792.9999999999999</ele><time>2026-04-06T11:33:43.004Z</time></trkpt><trkpt lat="39.8351627" lon="9.3271729"><ele>793.0</ele><time>2026-04-06T11:33:44.004Z</time></trkpt><trkpt lat="39.8350808" lon="9.3272057"><ele>793.0</ele><time>2026-04-06T11:33:45.004Z</time></trkpt><trkpt lat="39.8349953" lon="9.3272469"><ele>793.0</ele><time>2026-04-06T11:33:46.004Z</time></trkpt><trkpt lat="39.8349138" lon="9.3272854"><ele>792.9999999999999</ele><time>2026-04-06T11:33:47.004Z</time></trkpt><trkpt lat="39.8348351" lon="9.3273243"><ele>793.0</ele><time>2026-04-06T11:33:48.004Z</time></trkpt><trkpt lat="39.8347545" lon="9.3273624"><ele>792.8333333333333</ele><time>2026-04-06T11:33:49.004Z</time></trkpt><trkpt lat="39.834676" lon="9.3274032"><ele>792.6666666666666</ele><time>2026-04-06T11:33:50.003Z</time></trkpt><trkpt lat="39.8345972" lon="9.3274449"><ele>792.5</ele><time>2026-04-06T11:33:51.004Z</time></trkpt><trkpt lat="39.8345221" lon="9.3274802"><ele>792.3333333333333</ele><time>2026-04-06T11:33:52.003Z</time></trkpt><trkpt lat="39.8344642" lon="9.3275242"><ele>792.1666666666666</ele><time>2026-04-06T11:33:53.004Z</time></trkpt><trkpt lat="39.834399" lon="9.3275599"><ele>792.0</ele><time>2026-04-06T11:33:54.004Z</time></trkpt><trkpt lat="39.8343305" lon="9.3275981"><ele>790.6666666666666</ele><time>2026-04-06T11:33:55.004Z</time></trkpt><trkpt lat="39.8342646" lon="9.3276297"><ele>789.3333333333333</ele><time>2026-04-06T11:33:56.003Z</time></trkpt><trkpt lat="39.8341924" lon="9.3276638"><ele>788.0</ele><time>2026-04-06T11:33:57.003Z</time></trkpt><trkpt lat="39.8341234" lon="9.3276963"><ele>786.6666666666666</ele><time>2026-04-06T11:33:58.004Z</time></trkpt><trkpt lat="39.8340551" lon="9.3277307"><ele>785.3333333333333</ele><time>2026-04-06T11:33:59.004Z</time></trkpt><trkpt lat="39.8339933" lon="9.3277736"><ele>784.0</ele><time>2026-04-06T11:34:00.003Z</time></trkpt><trkpt lat="39.8339302" lon="9.3278956"><ele>783.9999999999999</ele><time>2026-04-06T11:34:02.004Z</time></trkpt><trkpt lat="39.8339061" lon="9.3280218"><ele>784.0</ele><time>2026-04-06T11:34:04.003Z</time></trkpt><trkpt lat="39.8339079" lon="9.3281144"><ele>784.0</ele><time>2026-04-06T11:34:06.004Z</time></trkpt><trkpt lat="39.8339601" lon="9.3281608"><ele>784.0</ele><time>2026-04-06T11:34:32.004Z</time></trkpt><trkpt lat="39.833977" lon="9.3280145"><ele>783.9999999999999</ele><time>2026-04-06T11:34:35.004Z</time></trkpt><trkpt lat="39.8339857" lon="9.3279191"><ele>784.0</ele><time>2026-04-06T11:34:36.003Z</time></trkpt><trkpt lat="39.8340205" lon="9.3278405"><ele>783.9999999999999</ele><time>2026-04-06T11:34:37.004Z</time></trkpt><trkpt lat="39.8340623" lon="9.3277579"><ele>784.0</ele><time>2026-04-06T11:34:38.003Z</time></trkpt><trkpt lat="39.8341565" lon="9.3277276"><ele>784.0</ele><time>2026-04-06T11:34:39.004Z</time></trkpt><trkpt lat="39.8342241" lon="9.3276817"><ele>784.0</ele><time>2026-04-06T11:34:40.004Z</time></trkpt><trkpt lat="39.8342839" lon="9.327651"><ele>783.9999999999999</ele><time>2026-04-06T11:34:41.004Z</time></trkpt><trkpt lat="39.8343946" lon="9.3276654"><ele>784.0</ele><time>2026-04-06T11:34:43.003Z</time></trkpt><trkpt lat="39.8345352" lon="9.3277745"><ele>785.3333333333333</ele><time>2026-04-06T11:34:46.003Z</time></trkpt><trkpt lat="39.8346078" lon="9.3277704"><ele>786.6666666666666</ele><time>2026-04-06T11:34:47.003Z</time></trkpt><trkpt lat="39.8346821" lon="9.3277731"><ele>788.0</ele><time>2026-04-06T11:34:48.004Z</time></trkpt><trkpt lat="39.8347688" lon="9.3277663"><ele>789.3333333333333</ele><time>2026-04-06T11:34:49.004Z</time></trkpt><trkpt lat="39.8348584" lon="9.327767"><ele>790.6666666666666</ele><time>2026-04-06T11:34:50.004Z</time></trkpt><trkpt lat="39.8349312" lon="9.3277732"><ele>792.0</ele><time>2026-04-06T11:34:51.004Z</time></trkpt><trkpt lat="39.8350479" lon="9.3277992"><ele>792.0</ele><time>2026-04-06T11:34:53.004Z</time></trkpt><trkpt lat="39.8351273" lon="9.327824"><ele>792.0</ele><time>2026-04-06T11:34:55.004Z</time></trkpt><trkpt lat="39.8350312" lon="9.3277943"><ele>792.0</ele><time>2026-04-06T11:35:18.004Z</time></trkpt><trkpt lat="39.8349653" lon="9.3277824"><ele>792.0</ele><time>2026-04-06T11:35:19.004Z</time></trkpt><trkpt lat="39.8348868" lon="9.3277765"><ele>792.0</ele><time>2026-04-06T11:35:20.004Z</time></trkpt><trkpt lat="39.834819" lon="9.3277753"><ele>792.0</ele><time>2026-04-06T11:35:21.004Z</time></trkpt><trkpt lat="39.834754" lon="9.3277768"><ele>792.0</ele><time>2026-04-06T11:35:22.004Z</time></trkpt><trkpt lat="39.8346361" lon="9.3277783"><ele>792.0</ele><time>2026-04-06T11:35:24.004Z</time></trkpt><trkpt lat="39.8345419" lon="9.3277633"><ele>792.0</ele><time>2026-04-06T11:35:26.004Z</time></trkpt><trkpt lat="39.8344746" lon="9.3276929"><ele>792.0</ele><time>2026-04-06T11:35:28.003Z</time></trkpt><trkpt lat="39.8344196" lon="9.3276022"><ele>792.0</ele><time>2026-04-06T11:35:30.004Z</time></trkpt><trkpt lat="39.8343155" lon="9.3276109"><ele>790.6666666666666</ele><time>2026-04-06T11:35:32.004Z</time></trkpt><trkpt lat="39.8342391" lon="9.3276452"><ele>789.3333333333333</ele><time>2026-04-06T11:35:33.004Z</time></trkpt><trkpt lat="39.8341529" lon="9.3276817"><ele>788.0</ele><time>2026-04-06T11:35:34.003Z</time></trkpt><trkpt lat="39.8340632" lon="9.3277267"><ele>786.6666666666666</ele><time>2026-04-06T11:35:35.003Z</time></trkpt><trkpt lat="39.8339937" lon="9.3277834"><ele>785.3333333333333</ele><time>2026-04-06T11:35:36.004Z</time></trkpt><trkpt lat="39.8339407" lon="9.3278505"><ele>784.0</ele><time>2026-04-06T11:35:37.004Z</time></trkpt><trkpt lat="39.833912" lon="9.3279554"><ele>784.6</ele><time>2026-04-06T11:35:38.004Z</time></trkpt><trkpt lat="39.8338948" lon="9.3280603"><ele>785.2</ele><time>2026-04-06T11:35:39.004Z</time></trkpt><trkpt lat="39.8339393" lon="9.3281961"><ele>785.8000000000001</ele><time>2026-04-06T11:35:40.004Z</time></trkpt><trkpt lat="39.8339992" lon="9.3283141"><ele>786.4000000000001</ele><time>2026-04-06T11:35:41.004Z</time></trkpt><trkpt lat="39.8340739" lon="9.3284257"><ele>787.0</ele><time>2026-04-06T11:35:42.004Z</time></trkpt><trkpt lat="39.8341637" lon="9.3285193"><ele>787.0</ele><time>2026-04-06T11:35:43.003Z</time></trkpt><trkpt lat="39.8342784" lon="9.3285773"><ele>787.0</ele><time>2026-04-06T11:35:44.003Z</time></trkpt><trkpt lat="39.8343965" lon="9.3286053"><ele>787.0</ele><time>2026-04-06T11:35:45.004Z</time></trkpt><trkpt lat="39.8345128" lon="9.3286223"><ele>787.0</ele><time>2026-04-06T11:35:46.004Z</time></trkpt><trkpt lat="39.8346157" lon="9.328643"><ele>786.8333333333333</ele><time>2026-04-06T11:35:47.004Z</time></trkpt><trkpt lat="39.8347068" lon="9.3286909"><ele>786.6666666666666</ele><time>2026-04-06T11:35:48.004Z</time></trkpt><trkpt lat="39.8347625" lon="9.3287626"><ele>786.5</ele><time>2026-04-06T11:35:49.004Z</time></trkpt><trkpt lat="39.8347965" lon="9.3288636"><ele>786.3333333333333</ele><time>2026-04-06T11:35:50.004Z</time></trkpt><trkpt lat="39.8347928" lon="9.328982"><ele>786.1666666666666</ele><time>2026-04-06T11:35:51.004Z</time></trkpt><trkpt lat="39.8347836" lon="9.3290984"><ele>786.0</ele><time>2026-04-06T11:35:52.004Z</time></trkpt><trkpt lat="39.8347767" lon="9.3292201"><ele>786.0</ele><time>2026-04-06T11:35:53.004Z</time></trkpt><trkpt lat="39.8347747" lon="9.3293455"><ele>786.0</ele><time>2026-04-06T11:35:54.004Z</time></trkpt><trkpt lat="39.8347955" lon="9.3294678"><ele>786.0</ele><time>2026-04-06T11:35:55.004Z</time></trkpt><trkpt lat="39.8348489" lon="9.3295921"><ele>786.0</ele><time>2026-04-06T11:35:56.004Z</time></trkpt><trkpt lat="39.8349322" lon="9.3297049"><ele>786.0</ele><time>2026-04-06T11:35:57.004Z</time></trkpt><trkpt lat="39.8350135" lon="9.3298014"><ele>783.0</ele><time>2026-04-06T11:35:58.004Z</time></trkpt><trkpt lat="39.8350868" lon="9.329914"><ele>780.0</ele><time>2026-04-06T11:35:59.004Z</time></trkpt><trkpt lat="39.835144" lon="9.3300329"><ele>777.0</ele><time>2026-04-06T11:36:00.003Z</time></trkpt><trkpt lat="39.8352011" lon="9.3301385"><ele>774.0</ele><time>2026-04-06T11:36:01.004Z</time></trkpt><trkpt lat="39.8352269" lon="9.3302506"><ele>771.0</ele><time>2026-04-06T11:36:02.004Z</time></trkpt><trkpt lat="39.8352123" lon="9.3303589"><ele>771.0</ele><time>2026-04-06T11:36:03.004Z</time></trkpt><trkpt lat="39.8351493" lon="9.3304492"><ele>771.0</ele><time>2026-04-06T11:36:04.004Z</time></trkpt><trkpt lat="39.8350644" lon="9.3305183"><ele>771.0</ele><time>2026-04-06T11:36:05.003Z</time></trkpt><trkpt lat="39.8349728" lon="9.330587"><ele>771.0</ele><time>2026-04-06T11:36:06.004Z</time></trkpt><trkpt lat="39.8348739" lon="9.3306635"><ele>771.0</ele><time>2026-04-06T11:36:07.004Z</time></trkpt><trkpt lat="39.8347655" lon="9.3307425"><ele>771.75</ele><time>2026-04-06T11:36:08.004Z</time></trkpt><trkpt lat="39.8346509" lon="9.3308262"><ele>772.5</ele><time>2026-04-06T11:36:09.004Z</time></trkpt><trkpt lat="39.8345317" lon="9.3309139"><ele>773.25</ele><time>2026-04-06T11:36:10.004Z</time></trkpt><trkpt lat="39.8344082" lon="9.3310049"><ele>774.0</ele><time>2026-04-06T11:36:11.004Z</time></trkpt><trkpt lat="39.8342687" lon="9.3310951"><ele>766.3333333333334</ele><time>2026-04-06T11:36:12.004Z</time></trkpt><trkpt lat="39.8341221" lon="9.3311724"><ele>758.6666666666667</ele><time>2026-04-06T11:36:13.003Z</time></trkpt><trkpt lat="39.8339839" lon="9.3312566"><ele>751.0</ele><time>2026-04-06T11:36:14.003Z</time></trkpt><trkpt lat="39.8338483" lon="9.3313611"><ele>760.0</ele><time>2026-04-06T11:36:15.004Z</time></trkpt><trkpt lat="39.8337187" lon="9.3314855"><ele>769.0</ele><time>2026-04-06T11:36:16.004Z</time></trkpt><trkpt lat="39.8336126" lon="9.3316365"><ele>778.0</ele><time>2026-04-06T11:36:17.004Z</time></trkpt><trkpt lat="39.833506" lon="9.33179"><ele>768.0</ele><time>2026-04-06T11:36:18.004Z</time></trkpt><trkpt lat="39.833379" lon="9.3319258"><ele>758.0</ele><time>2026-04-06T11:36:19.004Z</time></trkpt><trkpt lat="39.833233" lon="9.3320466"><ele>748.0</ele><time>2026-04-06T11:36:20.003Z</time></trkpt><trkpt lat="39.8330915" lon="9.3321504"><ele>755.6666666666667</ele><time>2026-04-06T11:36:21.004Z</time></trkpt><trkpt lat="39.832953" lon="9.3322607"><ele>763.3333333333334</ele><time>2026-04-06T11:36:22.003Z</time></trkpt><trkpt lat="39.8328246" lon="9.332371"><ele>771.0</ele><time>2026-04-06T11:36:23.004Z</time></trkpt><trkpt lat="39.8327013" lon="9.3324812"><ele>763.75</ele><time>2026-04-06T11:36:24.003Z</time></trkpt><trkpt lat="39.8325857" lon="9.332589"><ele>756.5</ele><time>2026-04-06T11:36:25.004Z</time></trkpt><trkpt lat="39.83248" lon="9.3327063"><ele>749.25</ele><time>2026-04-06T11:36:26.003Z</time></trkpt><trkpt lat="39.8323955" lon="9.3328301"><ele>742.0</ele><time>2026-04-06T11:36:27.003Z</time></trkpt><trkpt lat="39.8323242" lon="9.3329624"><ele>744.5</ele><time>2026-04-06T11:36:28.004Z</time></trkpt><trkpt lat="39.832272" lon="9.3331055"><ele>747.0</ele><time>2026-04-06T11:36:29.004Z</time></trkpt><trkpt lat="39.8322536" lon="9.333262"><ele>749.5</ele><time>2026-04-06T11:36:30.004Z</time></trkpt><trkpt lat="39.8322712" lon="9.3334332"><ele>752.0</ele><time>2026-04-06T11:36:31.004Z</time></trkpt><trkpt lat="39.8323126" lon="9.3336031"><ele>752.0</ele><time>2026-04-06T11:36:32.004Z</time></trkpt><trkpt lat="39.8323497" lon="9.3337808"><ele>752.0</ele><time>2026-04-06T11:36:33.003Z</time></trkpt><trkpt lat="39.8323825" lon="9.3339505"><ele>752.0</ele><time>2026-04-06T11:36:34.004Z</time></trkpt><trkpt lat="39.8323969" lon="9.3341129"><ele>752.0</ele><time>2026-04-06T11:36:35.003Z</time></trkpt><trkpt lat="39.8323743" lon="9.3342662"><ele>751.5</ele><time>2026-04-06T11:36:36.004Z</time></trkpt><trkpt lat="39.8323203" lon="9.3343927"><ele>751.0</ele><time>2026-04-06T11:36:37.003Z</time></trkpt><trkpt lat="39.8322353" lon="9.3344742"><ele>750.5</ele><time>2026-04-06T11:36:38.004Z</time></trkpt><trkpt lat="39.8321315" lon="9.3345428"><ele>750.0</ele><time>2026-04-06T11:36:39.003Z</time></trkpt><trkpt lat="39.8320191" lon="9.3346126"><ele>750.0</ele><time>2026-04-06T11:36:40.003Z</time></trkpt><trkpt lat="39.8319036" lon="9.3346841"><ele>750.0</ele><time>2026-04-06T11:36:41.004Z</time></trkpt><trkpt lat="39.831788" lon="9.3347672"><ele>750.0</ele><time>2026-04-06T11:36:42.003Z</time></trkpt><trkpt lat="39.831688" lon="9.3348696"><ele>750.0</ele><time>2026-04-06T11:36:43.003Z</time></trkpt><trkpt lat="39.8316005" lon="9.3349971"><ele>746.0</ele><time>2026-04-06T11:36:44.004Z</time></trkpt><trkpt lat="39.8315196" lon="9.3351386"><ele>742.0</ele><time>2026-04-06T11:36:45.004Z</time></trkpt><trkpt lat="39.8314434" lon="9.3352794"><ele>738.0</ele><time>2026-04-06T11:36:46.003Z</time></trkpt><trkpt lat="39.8313714" lon="9.3354116"><ele>734.0</ele><time>2026-04-06T11:36:47.003Z</time></trkpt><trkpt lat="39.8313009" lon="9.3355411"><ele>737.5</ele><time>2026-04-06T11:36:48.004Z</time></trkpt><trkpt lat="39.8312473" lon="9.3356904"><ele>741.0</ele><time>2026-04-06T11:36:49.003Z</time></trkpt><trkpt lat="39.8312172" lon="9.3358487"><ele>744.5</ele><time>2026-04-06T11:36:50.003Z</time></trkpt><trkpt lat="39.8312226" lon="9.3360248"><ele>748.0</ele><time>2026-04-06T11:36:51.004Z</time></trkpt><trkpt lat="39.8312468" lon="9.3361959"><ele>748.0</ele><time>2026-04-06T11:36:52.004Z</time></trkpt><trkpt lat="39.8312672" lon="9.3363778"><ele>748.0</ele><time>2026-04-06T11:36:53.004Z</time></trkpt><trkpt lat="39.8312655" lon="9.3365608"><ele>748.0</ele><time>2026-04-06T11:36:54.004Z</time></trkpt><trkpt lat="39.831243" lon="9.3367429"><ele>748.0</ele><time>2026-04-06T11:36:55.004Z</time></trkpt><trkpt lat="39.8312137" lon="9.3369236"><ele>747.25</ele><time>2026-04-06T11:36:56.004Z</time></trkpt><trkpt lat="39.8311919" lon="9.3370864"><ele>746.5</ele><time>2026-04-06T11:36:57.004Z</time></trkpt><trkpt lat="39.831185" lon="9.3372483"><ele>745.75</ele><time>2026-04-06T11:36:58.004Z</time></trkpt><trkpt lat="39.8311943" lon="9.3374009"><ele>745.0</ele><time>2026-04-06T11:36:59.003Z</time></trkpt><trkpt lat="39.8312227" lon="9.3375536"><ele>741.25</ele><time>2026-04-06T11:37:00.004Z</time></trkpt><trkpt lat="39.8312713" lon="9.3377081"><ele>737.5</ele><time>2026-04-06T11:37:01.004Z</time></trkpt><trkpt lat="39.8313427" lon="9.3378558"><ele>733.75</ele><time>2026-04-06T11:37:02.004Z</time></trkpt><trkpt lat="39.8314389" lon="9.3379836"><ele>730.0</ele><time>2026-04-06T11:37:03.004Z</time></trkpt><trkpt lat="39.8315411" lon="9.3380894"><ele>724.75</ele><time>2026-04-06T11:37:04.004Z</time></trkpt><trkpt lat="39.8316581" lon="9.3381548"><ele>719.5</ele><time>2026-04-06T11:37:05.003Z</time></trkpt><trkpt lat="39.8317821" lon="9.3381733"><ele>714.25</ele><time>2026-04-06T11:37:06.004Z</time></trkpt><trkpt lat="39.8319069" lon="9.3381499"><ele>709.0</ele><time>2026-04-06T11:37:07.004Z</time></trkpt><trkpt lat="39.8320317" lon="9.3381109"><ele>707.75</ele><time>2026-04-06T11:37:08.004Z</time></trkpt><trkpt lat="39.8321566" lon="9.338062"><ele>706.5</ele><time>2026-04-06T11:37:09.004Z</time></trkpt><trkpt lat="39.832275" lon="9.3379992"><ele>705.25</ele><time>2026-04-06T11:37:10.003Z</time></trkpt><trkpt lat="39.8323887" lon="9.3379259"><ele>704.0</ele><time>2026-04-06T11:37:11.004Z</time></trkpt><trkpt lat="39.8325167" lon="9.337886"><ele>712.75</ele><time>2026-04-06T11:37:12.003Z</time></trkpt><trkpt lat="39.8326522" lon="9.3378885"><ele>721.5</ele><time>2026-04-06T11:37:13.004Z</time></trkpt><trkpt lat="39.8327832" lon="9.3379327"><ele>730.25</ele><time>2026-04-06T11:37:14.003Z</time></trkpt><trkpt lat="39.8329019" lon="9.3379807"><ele>739.0</ele><time>2026-04-06T11:37:15.004Z</time></trkpt><trkpt lat="39.8330094" lon="9.3380158"><ele>735.5</ele><time>2026-04-06T11:37:16.004Z</time></trkpt><trkpt lat="39.8331056" lon="9.3380576"><ele>732.0</ele><time>2026-04-06T11:37:17.004Z</time></trkpt><trkpt lat="39.8331821" lon="9.3381217"><ele>728.5</ele><time>2026-04-06T11:37:18.004Z</time></trkpt><trkpt lat="39.8332325" lon="9.3382131"><ele>725.0</ele><time>2026-04-06T11:37:19.003Z</time></trkpt><trkpt lat="39.8332318" lon="9.3382982"><ele>721.5</ele><time>2026-04-06T11:37:20.004Z</time></trkpt><trkpt lat="39.8331878" lon="9.3383571"><ele>718.0</ele><time>2026-04-06T11:37:21.004Z</time></trkpt><trkpt lat="39.8331165" lon="9.3383955"><ele>718.0</ele><time>2026-04-06T11:37:22.003Z</time></trkpt><trkpt lat="39.8330324" lon="9.3384328"><ele>718.0</ele><time>2026-04-06T11:37:23.003Z</time></trkpt><trkpt lat="39.8329387" lon="9.3384964"><ele>718.0</ele><time>2026-04-06T11:37:24.004Z</time></trkpt><trkpt lat="39.8328392" lon="9.3385951"><ele>718.0</ele><time>2026-04-06T11:37:25.004Z</time></trkpt><trkpt lat="39.8327409" lon="9.3387235"><ele>713.3333333333334</ele><time>2026-04-06T11:37:26.004Z</time></trkpt><trkpt lat="39.832635" lon="9.3388722"><ele>708.6666666666666</ele><time>2026-04-06T11:37:27.004Z</time></trkpt><trkpt lat="39.8325386" lon="9.3390409"><ele>704.0</ele><time>2026-04-06T11:37:28.004Z</time></trkpt><trkpt lat="39.8324614" lon="9.3392214"><ele>703.75</ele><time>2026-04-06T11:37:29.004Z</time></trkpt><trkpt lat="39.8323882" lon="9.339399"><ele>703.5</ele><time>2026-04-06T11:37:30.004Z</time></trkpt><trkpt lat="39.832305" lon="9.3395624"><ele>703.25</ele><time>2026-04-06T11:37:31.004Z</time></trkpt><trkpt lat="39.8322204" lon="9.3397096"><ele>703.0</ele><time>2026-04-06T11:37:32.004Z</time></trkpt><trkpt lat="39.8321467" lon="9.3398473"><ele>705.25</ele><time>2026-04-06T11:37:33.004Z</time></trkpt><trkpt lat="39.8320965" lon="9.3399922"><ele>707.5</ele><time>2026-04-06T11:37:34.004Z</time></trkpt><trkpt lat="39.832092" lon="9.3401392"><ele>709.75</ele><time>2026-04-06T11:37:35.004Z</time></trkpt><trkpt lat="39.832116" lon="9.3402883"><ele>712.0</ele><time>2026-04-06T11:37:36.004Z</time></trkpt><trkpt lat="39.8321583" lon="9.3404474"><ele>711.0</ele><time>2026-04-06T11:37:37.004Z</time></trkpt><trkpt lat="39.8322004" lon="9.340623"><ele>710.0</ele><time>2026-04-06T11:37:38.004Z</time></trkpt><trkpt lat="39.8322311" lon="9.3408093"><ele>709.0</ele><time>2026-04-06T11:37:39.004Z</time></trkpt><trkpt lat="39.8322521" lon="9.3409911"><ele>708.0</ele><time>2026-04-06T11:37:40.004Z</time></trkpt><trkpt lat="39.8322667" lon="9.3411553"><ele>708.0</ele><time>2026-04-06T11:37:41.004Z</time></trkpt><trkpt lat="39.8322953" lon="9.3412977"><ele>708.0</ele><time>2026-04-06T11:37:42.004Z</time></trkpt><trkpt lat="39.8323559" lon="9.3414115"><ele>708.0</ele><time>2026-04-06T11:37:43.004Z</time></trkpt><trkpt lat="39.8324462" lon="9.341498"><ele>708.0</ele><time>2026-04-06T11:37:44.004Z</time></trkpt><trkpt lat="39.8325643" lon="9.3415555"><ele>710.6666666666666</ele><time>2026-04-06T11:37:45.004Z</time></trkpt><trkpt lat="39.8326877" lon="9.3416402"><ele>713.3333333333333</ele><time>2026-04-06T11:37:46.004Z</time></trkpt><trkpt lat="39.8328147" lon="9.3417441"><ele>716.0</ele><time>2026-04-06T11:37:47.004Z</time></trkpt><trkpt lat="39.8329193" lon="9.3419044"><ele>716.0</ele><time>2026-04-06T11:37:48.004Z</time></trkpt><trkpt lat="39.8330319" lon="9.3420419"><ele>716.0</ele><time>2026-04-06T11:37:49.004Z</time></trkpt><trkpt lat="39.8331421" lon="9.3421927"><ele>716.0</ele><time>2026-04-06T11:37:50.004Z</time></trkpt><trkpt lat="39.8332439" lon="9.3423485"><ele>722.3333333333333</ele><time>2026-04-06T11:37:51.004Z</time></trkpt><trkpt lat="39.8333321" lon="9.3425191"><ele>728.6666666666666</ele><time>2026-04-06T11:37:52.004Z</time></trkpt><trkpt lat="39.8334088" lon="9.3427011"><ele>735.0</ele><time>2026-04-06T11:37:53.004Z</time></trkpt><trkpt lat="39.8335001" lon="9.3428667"><ele>735.0</ele><time>2026-04-06T11:37:54.004Z</time></trkpt><trkpt lat="39.8335954" lon="9.3430209"><ele>735.0</ele><time>2026-04-06T11:37:55.003Z</time></trkpt><trkpt lat="39.8336979" lon="9.3431199"><ele>735.0</ele><time>2026-04-06T11:37:56.004Z</time></trkpt><trkpt lat="39.8337751" lon="9.343243"><ele>735.0</ele><time>2026-04-06T11:37:57.004Z</time></trkpt><trkpt lat="39.8338506" lon="9.3433447"><ele>729.5</ele><time>2026-04-06T11:37:58.004Z</time></trkpt><trkpt lat="39.8339123" lon="9.3434485"><ele>724.0</ele><time>2026-04-06T11:37:59.003Z</time></trkpt><trkpt lat="39.8339587" lon="9.3435442"><ele>718.5</ele><time>2026-04-06T11:38:00.004Z</time></trkpt><trkpt lat="39.8339767" lon="9.3436459"><ele>713.0</ele><time>2026-04-06T11:38:01.004Z</time></trkpt><trkpt lat="39.8339538" lon="9.3437396"><ele>707.5</ele><time>2026-04-06T11:38:02.004Z</time></trkpt><trkpt lat="39.8339135" lon="9.3438263"><ele>702.0</ele><time>2026-04-06T11:38:03.004Z</time></trkpt><trkpt lat="39.8338668" lon="9.3439002"><ele>702.0</ele><time>2026-04-06T11:38:04.004Z</time></trkpt><trkpt lat="39.8338102" lon="9.3439407"><ele>702.0</ele><time>2026-04-06T11:38:05.004Z</time></trkpt><trkpt lat="39.8337378" lon="9.343924"><ele>702.0</ele><time>2026-04-06T11:38:06.004Z</time></trkpt><trkpt lat="39.8336677" lon="9.3438515"><ele>702.0</ele><time>2026-04-06T11:38:07.003Z</time></trkpt><trkpt lat="39.8335872" lon="9.3437727"><ele>702.0</ele><time>2026-04-06T11:38:08.004Z</time></trkpt><trkpt lat="39.8335024" lon="9.3436788"><ele>702.0</ele><time>2026-04-06T11:38:09.004Z</time></trkpt><trkpt lat="39.8333922" lon="9.3435894"><ele>697.0</ele><time>2026-04-06T11:38:10.004Z</time></trkpt><trkpt lat="39.8332668" lon="9.3435304"><ele>692.0</ele><time>2026-04-06T11:38:11.004Z</time></trkpt><trkpt lat="39.8331321" lon="9.3434492"><ele>687.0</ele><time>2026-04-06T11:38:12.003Z</time></trkpt><trkpt lat="39.8330247" lon="9.3433258"><ele>682.0</ele><time>2026-04-06T11:38:13.003Z</time></trkpt><trkpt lat="39.8329077" lon="9.3432142"><ele>682.0</ele><time>2026-04-06T11:38:14.003Z</time></trkpt><trkpt lat="39.832785" lon="9.3431112"><ele>682.0</ele><time>2026-04-06T11:38:15.004Z</time></trkpt><trkpt lat="39.8326577" lon="9.3430139"><ele>682.0</ele><time>2026-04-06T11:38:16.004Z</time></trkpt><trkpt lat="39.8325181" lon="9.3429045"><ele>681.0</ele><time>2026-04-06T11:38:17.004Z</time></trkpt><trkpt lat="39.8323686" lon="9.3428059"><ele>680.0</ele><time>2026-04-06T11:38:18.004Z</time></trkpt><trkpt lat="39.8322115" lon="9.3427327"><ele>679.0</ele><time>2026-04-06T11:38:19.004Z</time></trkpt><trkpt lat="39.8320528" lon="9.3426663"><ele>679.0</ele><time>2026-04-06T11:38:20.004Z</time></trkpt><trkpt lat="39.8318884" lon="9.3425979"><ele>679.0</ele><time>2026-04-06T11:38:21.004Z</time></trkpt><trkpt lat="39.8317343" lon="9.3425016"><ele>679.0</ele><time>2026-04-06T11:38:22.004Z</time></trkpt><trkpt lat="39.831611" lon="9.3423625"><ele>679.3333333333334</ele><time>2026-04-06T11:38:23.004Z</time></trkpt><trkpt lat="39.831484" lon="9.3422474"><ele>679.6666666666666</ele><time>2026-04-06T11:38:24.003Z</time></trkpt><trkpt lat="39.8313777" lon="9.3420948"><ele>680.0</ele><time>2026-04-06T11:38:25.004Z</time></trkpt><trkpt lat="39.8312725" lon="9.341945"><ele>680.0</ele><time>2026-04-06T11:38:26.004Z</time></trkpt><trkpt lat="39.8311514" lon="9.3417885"><ele>680.0</ele><time>2026-04-06T11:38:27.004Z</time></trkpt><trkpt lat="39.8310241" lon="9.3416428"><ele>680.0</ele><time>2026-04-06T11:38:28.004Z</time></trkpt><trkpt lat="39.8308785" lon="9.3415104"><ele>680.6666666666666</ele><time>2026-04-06T11:38:29.003Z</time></trkpt><trkpt lat="39.8307307" lon="9.3413862"><ele>681.3333333333334</ele><time>2026-04-06T11:38:30.003Z</time></trkpt><trkpt lat="39.8305501" lon="9.3413092"><ele>682.0</ele><time>2026-04-06T11:38:31.004Z</time></trkpt><trkpt lat="39.8303968" lon="9.3412018"><ele>682.0</ele><time>2026-04-06T11:38:32.004Z</time></trkpt><trkpt lat="39.8302548" lon="9.341106"><ele>682.0</ele><time>2026-04-06T11:38:33.003Z</time></trkpt><trkpt lat="39.8301447" lon="9.3409685"><ele>682.0</ele><time>2026-04-06T11:38:34.004Z</time></trkpt><trkpt lat="39.8300814" lon="9.3408094"><ele>681.6</ele><time>2026-04-06T11:38:35.003Z</time></trkpt><trkpt lat="39.8300252" lon="9.3406709"><ele>681.2</ele><time>2026-04-06T11:38:36.003Z</time></trkpt><trkpt lat="39.8299439" lon="9.3405661"><ele>680.8</ele><time>2026-04-06T11:38:37.003Z</time></trkpt><trkpt lat="39.8298463" lon="9.340491"><ele>680.4</ele><time>2026-04-06T11:38:38.004Z</time></trkpt><trkpt lat="39.8297588" lon="9.3404356"><ele>680.0</ele><time>2026-04-06T11:38:39.004Z</time></trkpt><trkpt lat="39.8295747" lon="9.3405251"><ele>680.0</ele><time>2026-04-06T11:38:40.004Z</time></trkpt><trkpt lat="39.8294257" lon="9.3405386"><ele>680.0</ele><time>2026-04-06T11:38:41.003Z</time></trkpt><trkpt lat="39.8292729" lon="9.3405666"><ele>680.0</ele><time>2026-04-06T11:38:42.004Z</time></trkpt><trkpt lat="39.829117" lon="9.3406304"><ele>692.3333333333333</ele><time>2026-04-06T11:38:43.003Z</time></trkpt><trkpt lat="39.8289582" lon="9.3406587"><ele>704.6666666666666</ele><time>2026-04-06T11:38:44.004Z</time></trkpt><trkpt lat="39.8288045" lon="9.3406898"><ele>717.0</ele><time>2026-04-06T11:38:45.003Z</time></trkpt><trkpt lat="39.8286532" lon="9.3405635"><ele>719.0</ele><time>2026-04-06T11:38:46.004Z</time></trkpt><trkpt lat="39.8285212" lon="9.3405224"><ele>721.0</ele><time>2026-04-06T11:38:47.004Z</time></trkpt><trkpt lat="39.8284174" lon="9.3405303"><ele>723.0</ele><time>2026-04-06T11:38:48.004Z</time></trkpt><trkpt lat="39.8282938" lon="9.3405596"><ele>725.0</ele><time>2026-04-06T11:38:49.004Z</time></trkpt><trkpt lat="39.8281718" lon="9.3406016"><ele>725.0</ele><time>2026-04-06T11:38:50.004Z</time></trkpt><trkpt lat="39.8280523" lon="9.3406118"><ele>725.0</ele><time>2026-04-06T11:38:51.003Z</time></trkpt><trkpt lat="39.8279309" lon="9.3405967"><ele>725.0</ele><time>2026-04-06T11:38:52.004Z</time></trkpt><trkpt lat="39.8278545" lon="9.34045"><ele>725.0</ele><time>2026-04-06T11:38:53.004Z</time></trkpt><trkpt lat="39.8277759" lon="9.3403158"><ele>725.5</ele><time>2026-04-06T11:38:54.004Z</time></trkpt><trkpt lat="39.8277078" lon="9.3401595"><ele>726.0</ele><time>2026-04-06T11:38:55.003Z</time></trkpt><trkpt lat="39.8276142" lon="9.3400118"><ele>726.5</ele><time>2026-04-06T11:38:56.004Z</time></trkpt><trkpt lat="39.8274971" lon="9.3398701"><ele>727.0</ele><time>2026-04-06T11:38:57.003Z</time></trkpt><trkpt lat="39.8273821" lon="9.3397454"><ele>723.6666666666667</ele><time>2026-04-06T11:38:58.004Z</time></trkpt><trkpt lat="39.8272837" lon="9.3395951"><ele>720.3333333333334</ele><time>2026-04-06T11:38:59.003Z</time></trkpt><trkpt lat="39.8271997" lon="9.3394316"><ele>717.0</ele><time>2026-04-06T11:39:00.003Z</time></trkpt><trkpt lat="39.8271604" lon="9.339209"><ele>717.0</ele><time>2026-04-06T11:39:01.004Z</time></trkpt><trkpt lat="39.8271699" lon="9.3389811"><ele>717.0</ele><time>2026-04-06T11:39:02.004Z</time></trkpt><trkpt lat="39.8271695" lon="9.3387498"><ele>717.0</ele><time>2026-04-06T11:39:03.004Z</time></trkpt><trkpt lat="39.8271725" lon="9.3385325"><ele>716.25</ele><time>2026-04-06T11:39:04.003Z</time></trkpt><trkpt lat="39.8271728" lon="9.3383473"><ele>715.5</ele><time>2026-04-06T11:39:05.003Z</time></trkpt><trkpt lat="39.8271592" lon="9.3381721"><ele>714.75</ele><time>2026-04-06T11:39:06.004Z</time></trkpt><trkpt lat="39.8271098" lon="9.3380213"><ele>714.0</ele><time>2026-04-06T11:39:07.004Z</time></trkpt><trkpt lat="39.8270357" lon="9.3379022"><ele>712.5</ele><time>2026-04-06T11:39:08.004Z</time></trkpt><trkpt lat="39.8269306" lon="9.337802"><ele>711.0</ele><time>2026-04-06T11:39:09.004Z</time></trkpt><trkpt lat="39.8268229" lon="9.3376859"><ele>709.5</ele><time>2026-04-06T11:39:10.003Z</time></trkpt><trkpt lat="39.8267181" lon="9.3375501"><ele>708.0</ele><time>2026-04-06T11:39:11.004Z</time></trkpt><trkpt lat="39.8265963" lon="9.3374205"><ele>711.0</ele><time>2026-04-06T11:39:12.004Z</time></trkpt><trkpt lat="39.8264562" lon="9.3373076"><ele>714.0</ele><time>2026-04-06T11:39:13.003Z</time></trkpt><trkpt lat="39.8263047" lon="9.3372061"><ele>717.0</ele><time>2026-04-06T11:39:14.004Z</time></trkpt><trkpt lat="39.8261402" lon="9.3371158"><ele>724.0</ele><time>2026-04-06T11:39:15.004Z</time></trkpt><trkpt lat="39.8259751" lon="9.3370337"><ele>731.0</ele><time>2026-04-06T11:39:16.004Z</time></trkpt><trkpt lat="39.8258286" lon="9.3369619"><ele>738.0</ele><time>2026-04-06T11:39:17.004Z</time></trkpt><trkpt lat="39.8256942" lon="9.3368952"><ele>738.0</ele><time>2026-04-06T11:39:18.004Z</time></trkpt><trkpt lat="39.8255763" lon="9.33685"><ele>738.0</ele><time>2026-04-06T11:39:19.003Z</time></trkpt><trkpt lat="39.8254739" lon="9.3368492"><ele>738.0</ele><time>2026-04-06T11:39:20.004Z</time></trkpt><trkpt lat="39.8253852" lon="9.3368944"><ele>738.0</ele><time>2026-04-06T11:39:21.004Z</time></trkpt><trkpt lat="39.8253367" lon="9.3369822"><ele>738.0</ele><time>2026-04-06T11:39:22.003Z</time></trkpt><trkpt lat="39.825342" lon="9.3371031"><ele>740.5</ele><time>2026-04-06T11:39:23.004Z</time></trkpt><trkpt lat="39.8253868" lon="9.3372387"><ele>743.0</ele><time>2026-04-06T11:39:24.003Z</time></trkpt><trkpt lat="39.8254577" lon="9.3373865"><ele>745.5</ele><time>2026-04-06T11:39:25.003Z</time></trkpt><trkpt lat="39.8255377" lon="9.3375617"><ele>748.0</ele><time>2026-04-06T11:39:26.004Z</time></trkpt><trkpt lat="39.8256049" lon="9.3377461"><ele>748.0</ele><time>2026-04-06T11:39:27.004Z</time></trkpt><trkpt lat="39.8256491" lon="9.3379605"><ele>748.0</ele><time>2026-04-06T11:39:28.004Z</time></trkpt><trkpt lat="39.8256857" lon="9.3381886"><ele>748.0</ele><time>2026-04-06T11:39:29.004Z</time></trkpt><trkpt lat="39.8257248" lon="9.3384272"><ele>750.3333333333334</ele><time>2026-04-06T11:39:30.004Z</time></trkpt><trkpt lat="39.8257634" lon="9.3386762"><ele>752.6666666666666</ele><time>2026-04-06T11:39:31.004Z</time></trkpt><trkpt lat="39.8257894" lon="9.3389322"><ele>755.0</ele><time>2026-04-06T11:39:32.003Z</time></trkpt><trkpt lat="39.8258006" lon="9.3391864"><ele>755.0</ele><time>2026-04-06T11:39:33.003Z</time></trkpt><trkpt lat="39.8258077" lon="9.3394221"><ele>755.0</ele><time>2026-04-06T11:39:34.004Z</time></trkpt><trkpt lat="39.8258241" lon="9.3396383"><ele>755.0</ele><time>2026-04-06T11:39:35.004Z</time></trkpt><trkpt lat="39.8258454" lon="9.3398355"><ele>755.3333333333333</ele><time>2026-04-06T11:39:36.004Z</time></trkpt><trkpt lat="39.8258572" lon="9.3400368"><ele>755.6666666666666</ele><time>2026-04-06T11:39:37.003Z</time></trkpt><trkpt lat="39.8258583" lon="9.3402383"><ele>756.0</ele><time>2026-04-06T11:39:38.004Z</time></trkpt><trkpt lat="39.8258642" lon="9.3404474"><ele>757.3333333333334</ele><time>2026-04-06T11:39:39.003Z</time></trkpt><trkpt lat="39.8258841" lon="9.3406588"><ele>758.6666666666667</ele><time>2026-04-06T11:39:40.003Z</time></trkpt><trkpt lat="39.8259083" lon="9.3408686"><ele>760.0</ele><time>2026-04-06T11:39:41.003Z</time></trkpt><trkpt lat="39.8259319" lon="9.3410885"><ele>760.0</ele><time>2026-04-06T11:39:42.004Z</time></trkpt><trkpt lat="39.8259541" lon="9.3413171"><ele>760.0</ele><time>2026-04-06T11:39:43.004Z</time></trkpt><trkpt lat="39.8259683" lon="9.341552"><ele>760.0</ele><time>2026-04-06T11:39:44.003Z</time></trkpt><trkpt lat="39.8259721" lon="9.3417893"><ele>760.0</ele><time>2026-04-06T11:39:45.003Z</time></trkpt><trkpt lat="39.8259619" lon="9.3420332"><ele>760.0</ele><time>2026-04-06T11:39:46.004Z</time></trkpt><trkpt lat="39.8259453" lon="9.3422824"><ele>760.0</ele><time>2026-04-06T11:39:47.003Z</time></trkpt><trkpt lat="39.8259231" lon="9.3425354"><ele>762.3333333333334</ele><time>2026-04-06T11:39:48.003Z</time></trkpt><trkpt lat="39.8258948" lon="9.3427886"><ele>764.6666666666666</ele><time>2026-04-06T11:39:49.004Z</time></trkpt><trkpt lat="39.8258434" lon="9.3430408"><ele>767.0</ele><time>2026-04-06T11:39:50.004Z</time></trkpt><trkpt lat="39.8257819" lon="9.3432936"><ele>770.6666666666666</ele><time>2026-04-06T11:39:51.003Z</time></trkpt><trkpt lat="39.825719" lon="9.3435476"><ele>774.3333333333333</ele><time>2026-04-06T11:39:52.003Z</time></trkpt><trkpt lat="39.8256573" lon="9.3438021"><ele>778.0</ele><time>2026-04-06T11:39:53.004Z</time></trkpt><trkpt lat="39.8256107" lon="9.3440501"><ele>782.3333333333333</ele><time>2026-04-06T11:39:54.004Z</time></trkpt><trkpt lat="39.8255664" lon="9.3442837"><ele>786.6666666666667</ele><time>2026-04-06T11:39:55.004Z</time></trkpt><trkpt lat="39.8255068" lon="9.3444881"><ele>791.0</ele><time>2026-04-06T11:39:56.003Z</time></trkpt><trkpt lat="39.8254253" lon="9.3446627"><ele>789.3333333333334</ele><time>2026-04-06T11:39:57.004Z</time></trkpt><trkpt lat="39.8252911" lon="9.3447906"><ele>787.6666666666667</ele><time>2026-04-06T11:39:58.003Z</time></trkpt><trkpt lat="39.8251366" lon="9.3448787"><ele>786.0</ele><time>2026-04-06T11:39:59.003Z</time></trkpt><trkpt lat="39.8249789" lon="9.3449754"><ele>786.0</ele><time>2026-04-06T11:40:00.003Z</time></trkpt><trkpt lat="39.8248322" lon="9.3451088"><ele>786.0</ele><time>2026-04-06T11:40:01.004Z</time></trkpt><trkpt lat="39.8247035" lon="9.34526"><ele>786.0</ele><time>2026-04-06T11:40:02.004Z</time></trkpt><trkpt lat="39.8245985" lon="9.345452"><ele>793.0</ele><time>2026-04-06T11:40:03.003Z</time></trkpt><trkpt lat="39.824509" lon="9.3456691"><ele>800.0</ele><time>2026-04-06T11:40:04.004Z</time></trkpt><trkpt lat="39.8244423" lon="9.3459101"><ele>807.0</ele><time>2026-04-06T11:40:05.004Z</time></trkpt><trkpt lat="39.8243904" lon="9.3461649"><ele>812.6666666666667</ele><time>2026-04-06T11:40:06.004Z</time></trkpt><trkpt lat="39.8243449" lon="9.3464207"><ele>818.3333333333334</ele><time>2026-04-06T11:40:07.004Z</time></trkpt><trkpt lat="39.8242807" lon="9.3466744"><ele>824.0</ele><time>2026-04-06T11:40:08.003Z</time></trkpt><trkpt lat="39.824188" lon="9.3469173"><ele>817.6666666666667</ele><time>2026-04-06T11:40:09.003Z</time></trkpt><trkpt lat="39.8240779" lon="9.3471538"><ele>811.3333333333333</ele><time>2026-04-06T11:40:10.004Z</time></trkpt><trkpt lat="39.8239662" lon="9.3473779"><ele>805.0</ele><time>2026-04-06T11:40:11.003Z</time></trkpt><trkpt lat="39.8238721" lon="9.3475927"><ele>805.0</ele><time>2026-04-06T11:40:12.003Z</time></trkpt><trkpt lat="39.8237937" lon="9.3477909"><ele>805.0</ele><time>2026-04-06T11:40:13.004Z</time></trkpt><trkpt lat="39.8237442" lon="9.3479499"><ele>805.0</ele><time>2026-04-06T11:40:14.003Z</time></trkpt><trkpt lat="39.8237205" lon="9.3480832"><ele>805.0</ele><time>2026-04-06T11:40:15.004Z</time></trkpt><trkpt lat="39.8237261" lon="9.3482052"><ele>805.0</ele><time>2026-04-06T11:40:16.003Z</time></trkpt><trkpt lat="39.8237574" lon="9.3482971"><ele>805.0</ele><time>2026-04-06T11:40:17.004Z</time></trkpt><trkpt lat="39.8238151" lon="9.3483641"><ele>805.0</ele><time>2026-04-06T11:40:18.003Z</time></trkpt><trkpt lat="39.8238829" lon="9.3484175"><ele>805.0</ele><time>2026-04-06T11:40:19.004Z</time></trkpt><trkpt lat="39.8240195" lon="9.3484114"><ele>805.0</ele><time>2026-04-06T11:40:20.004Z</time></trkpt><trkpt lat="39.8241483" lon="9.3484359"><ele>805.0</ele><time>2026-04-06T11:40:21.003Z</time></trkpt><trkpt lat="39.82429" lon="9.3484735"><ele>805.0</ele><time>2026-04-06T11:40:22.003Z</time></trkpt><trkpt lat="39.8244473" lon="9.3484959"><ele>805.0</ele><time>2026-04-06T11:40:23.003Z</time></trkpt><trkpt lat="39.8245983" lon="9.3485061"><ele>811.3333333333333</ele><time>2026-04-06T11:40:24.004Z</time></trkpt><trkpt lat="39.8247542" lon="9.3485544"><ele>817.6666666666667</ele><time>2026-04-06T11:40:25.004Z</time></trkpt><trkpt lat="39.8249062" lon="9.3486541"><ele>824.0</ele><time>2026-04-06T11:40:26.004Z</time></trkpt><trkpt lat="39.8250543" lon="9.3487812"><ele>825.6666666666667</ele><time>2026-04-06T11:40:27.003Z</time></trkpt><trkpt lat="39.82521" lon="9.348902"><ele>827.3333333333333</ele><time>2026-04-06T11:40:28.003Z</time></trkpt><trkpt lat="39.8253621" lon="9.3490236"><ele>829.0</ele><time>2026-04-06T11:40:29.004Z</time></trkpt><trkpt lat="39.8255067" lon="9.3491565"><ele>829.0</ele><time>2026-04-06T11:40:30.004Z</time></trkpt><trkpt lat="39.8256338" lon="9.3493223"><ele>829.0</ele><time>2026-04-06T11:40:31.004Z</time></trkpt><trkpt lat="39.8257418" lon="9.3495097"><ele>829.0</ele><time>2026-04-06T11:40:32.004Z</time></trkpt><trkpt lat="39.8258406" lon="9.3497125"><ele>824.6666666666666</ele><time>2026-04-06T11:40:33.003Z</time></trkpt><trkpt lat="39.8259171" lon="9.3499298"><ele>820.3333333333333</ele><time>2026-04-06T11:40:34.004Z</time></trkpt><trkpt lat="39.8259623" lon="9.3501375"><ele>816.0</ele><time>2026-04-06T11:40:35.003Z</time></trkpt><trkpt lat="39.8260098" lon="9.3503279"><ele>822.1999999999999</ele><time>2026-04-06T11:40:36.004Z</time></trkpt><trkpt lat="39.8260688" lon="9.3504838"><ele>828.4</ele><time>2026-04-06T11:40:37.004Z</time></trkpt><trkpt lat="39.8261148" lon="9.350623"><ele>834.6</ele><time>2026-04-06T11:40:38.004Z</time></trkpt><trkpt lat="39.8261304" lon="9.3507512"><ele>840.8</ele><time>2026-04-06T11:40:39.004Z</time></trkpt><trkpt lat="39.8261071" lon="9.3508586"><ele>847.0</ele><time>2026-04-06T11:40:40.004Z</time></trkpt><trkpt lat="39.8260415" lon="9.3509275"><ele>837.3333333333333</ele><time>2026-04-06T11:40:41.004Z</time></trkpt><trkpt lat="39.8259616" lon="9.3510126"><ele>827.6666666666667</ele><time>2026-04-06T11:40:42.004Z</time></trkpt><trkpt lat="39.8258368" lon="9.3511836"><ele>818.0</ele><time>2026-04-06T11:40:43.004Z</time></trkpt><trkpt lat="39.8257236" lon="9.3513567"><ele>823.3333333333334</ele><time>2026-04-06T11:40:44.003Z</time></trkpt><trkpt lat="39.8255944" lon="9.3515279"><ele>828.6666666666667</ele><time>2026-04-06T11:40:45.004Z</time></trkpt><trkpt lat="39.8254524" lon="9.3516807"><ele>834.0</ele><time>2026-04-06T11:40:46.003Z</time></trkpt><trkpt lat="39.8252859" lon="9.3518056"><ele>828.3333333333333</ele><time>2026-04-06T11:40:47.004Z</time></trkpt><trkpt lat="39.8251081" lon="9.3519201"><ele>822.6666666666666</ele><time>2026-04-06T11:40:48.004Z</time></trkpt><trkpt lat="39.8249341" lon="9.352042"><ele>817.0</ele><time>2026-04-06T11:40:49.003Z</time></trkpt><trkpt lat="39.8247644" lon="9.3521924"><ele>820.0</ele><time>2026-04-06T11:40:50.003Z</time></trkpt><trkpt lat="39.8246147" lon="9.3523687"><ele>823.0</ele><time>2026-04-06T11:40:51.004Z</time></trkpt><trkpt lat="39.8244511" lon="9.352515"><ele>826.0</ele><time>2026-04-06T11:40:52.004Z</time></trkpt><trkpt lat="39.8242893" lon="9.3526637"><ele>826.0</ele><time>2026-04-06T11:40:53.003Z</time></trkpt><trkpt lat="39.8241597" lon="9.3528121"><ele>826.0</ele><time>2026-04-06T11:40:54.004Z</time></trkpt><trkpt lat="39.8240349" lon="9.3529703"><ele>826.0</ele><time>2026-04-06T11:40:55.003Z</time></trkpt><trkpt lat="39.8239416" lon="9.3531608"><ele>833.3333333333333</ele><time>2026-04-06T11:40:56.004Z</time></trkpt><trkpt lat="39.8238645" lon="9.3533714"><ele>840.6666666666667</ele><time>2026-04-06T11:40:57.004Z</time></trkpt><trkpt lat="39.8237893" lon="9.3535874"><ele>848.0</ele><time>2026-04-06T11:40:58.004Z</time></trkpt><trkpt lat="39.8237202" lon="9.3538136"><ele>854.0</ele><time>2026-04-06T11:40:59.004Z</time></trkpt><trkpt lat="39.823656" lon="9.3540524"><ele>860.0</ele><time>2026-04-06T11:41:00.004Z</time></trkpt><trkpt lat="39.8235875" lon="9.3542878"><ele>866.0</ele><time>2026-04-06T11:41:01.004Z</time></trkpt><trkpt lat="39.823527" lon="9.3545128"><ele>859.6666666666667</ele><time>2026-04-06T11:41:02.004Z</time></trkpt><trkpt lat="39.8234555" lon="9.354742"><ele>853.3333333333333</ele><time>2026-04-06T11:41:03.004Z</time></trkpt><trkpt lat="39.8233626" lon="9.3549601"><ele>847.0</ele><time>2026-04-06T11:41:04.004Z</time></trkpt><trkpt lat="39.8232553" lon="9.3551657"><ele>847.0</ele><time>2026-04-06T11:41:05.004Z</time></trkpt><trkpt lat="39.8231388" lon="9.3553564"><ele>847.0</ele><time>2026-04-06T11:41:06.003Z</time></trkpt><trkpt lat="39.8230017" lon="9.3555041"><ele>847.0</ele><time>2026-04-06T11:41:07.004Z</time></trkpt><trkpt lat="39.8228433" lon="9.3556042"><ele>848.3333333333333</ele><time>2026-04-06T11:41:08.004Z</time></trkpt><trkpt lat="39.8226794" lon="9.3556577"><ele>849.6666666666667</ele><time>2026-04-06T11:41:09.004Z</time></trkpt><trkpt lat="39.8225229" lon="9.3557114"><ele>851.0</ele><time>2026-04-06T11:41:10.004Z</time></trkpt><trkpt lat="39.8223734" lon="9.3557885"><ele>851.0</ele><time>2026-04-06T11:41:11.004Z</time></trkpt><trkpt lat="39.8222341" lon="9.3559148"><ele>851.0</ele><time>2026-04-06T11:41:12.003Z</time></trkpt><trkpt lat="39.8221058" lon="9.3560618"><ele>851.0</ele><time>2026-04-06T11:41:13.004Z</time></trkpt><trkpt lat="39.8219884" lon="9.3562046"><ele>851.0</ele><time>2026-04-06T11:41:14.004Z</time></trkpt><trkpt lat="39.8218755" lon="9.3563322"><ele>851.0</ele><time>2026-04-06T11:41:15.004Z</time></trkpt><trkpt lat="39.8217475" lon="9.3564347"><ele>851.0</ele><time>2026-04-06T11:41:16.004Z</time></trkpt><trkpt lat="39.8216019" lon="9.356513"><ele>855.6666666666667</ele><time>2026-04-06T11:41:17.004Z</time></trkpt><trkpt lat="39.8214592" lon="9.3565995"><ele>860.3333333333333</ele><time>2026-04-06T11:41:18.003Z</time></trkpt><trkpt lat="39.8213131" lon="9.3566785"><ele>865.0</ele><time>2026-04-06T11:41:19.003Z</time></trkpt><trkpt lat="39.8211725" lon="9.3567277"><ele>865.0</ele><time>2026-04-06T11:41:20.004Z</time></trkpt><trkpt lat="39.8210354" lon="9.3567525"><ele>865.0</ele><time>2026-04-06T11:41:21.003Z</time></trkpt><trkpt lat="39.8209021" lon="9.3567606"><ele>865.0</ele><time>2026-04-06T11:41:22.004Z</time></trkpt><trkpt lat="39.8207774" lon="9.3567671"><ele>865.0</ele><time>2026-04-06T11:41:23.003Z</time></trkpt><trkpt lat="39.8206597" lon="9.3567837"><ele>866.5</ele><time>2026-04-06T11:41:24.004Z</time></trkpt><trkpt lat="39.820572" lon="9.356844"><ele>868.0</ele><time>2026-04-06T11:41:25.004Z</time></trkpt><trkpt lat="39.8205062" lon="9.3569547"><ele>869.5</ele><time>2026-04-06T11:41:26.003Z</time></trkpt><trkpt lat="39.8204755" lon="9.3571212"><ele>871.0</ele><time>2026-04-06T11:41:27.004Z</time></trkpt><trkpt lat="39.820455" lon="9.357301"><ele>871.0</ele><time>2026-04-06T11:41:28.003Z</time></trkpt><trkpt lat="39.8204439" lon="9.3574691"><ele>870.9999999999999</ele><time>2026-04-06T11:41:29.004Z</time></trkpt><trkpt lat="39.8204406" lon="9.3576187"><ele>870.9999999999999</ele><time>2026-04-06T11:41:30.004Z</time></trkpt><trkpt lat="39.8204669" lon="9.3577345"><ele>871.0</ele><time>2026-04-06T11:41:31.004Z</time></trkpt><trkpt lat="39.8205296" lon="9.3578148"><ele>871.0</ele><time>2026-04-06T11:41:32.004Z</time></trkpt><trkpt lat="39.8206375" lon="9.3578435"><ele>871.0</ele><time>2026-04-06T11:41:33.003Z</time></trkpt><trkpt lat="39.8207818" lon="9.3578366"><ele>871.0</ele><time>2026-04-06T11:41:34.004Z</time></trkpt><trkpt lat="39.8209443" lon="9.3578404"><ele>871.0</ele><time>2026-04-06T11:41:35.004Z</time></trkpt><trkpt lat="39.8211285" lon="9.3578608"><ele>874.0</ele><time>2026-04-06T11:41:36.003Z</time></trkpt><trkpt lat="39.8213021" lon="9.357915"><ele>877.0</ele><time>2026-04-06T11:41:37.004Z</time></trkpt><trkpt lat="39.8214588" lon="9.3579665"><ele>880.0</ele><time>2026-04-06T11:41:38.004Z</time></trkpt><trkpt lat="39.8216409" lon="9.3579802"><ele>880.6666666666666</ele><time>2026-04-06T11:41:39.004Z</time></trkpt><trkpt lat="39.8218355" lon="9.3579562"><ele>881.3333333333333</ele><time>2026-04-06T11:41:40.003Z</time></trkpt><trkpt lat="39.8220289" lon="9.3579026"><ele>882.0</ele><time>2026-04-06T11:41:41.004Z</time></trkpt><trkpt lat="39.8222154" lon="9.3578369"><ele>882.0</ele><time>2026-04-06T11:41:42.004Z</time></trkpt><trkpt lat="39.8223788" lon="9.3577763"><ele>882.0</ele><time>2026-04-06T11:41:43.003Z</time></trkpt><trkpt lat="39.8225461" lon="9.3577422"><ele>882.0</ele><time>2026-04-06T11:41:44.004Z</time></trkpt><trkpt lat="39.8227171" lon="9.3577443"><ele>883.6</ele><time>2026-04-06T11:41:45.003Z</time></trkpt><trkpt lat="39.8228581" lon="9.3577626"><ele>885.2</ele><time>2026-04-06T11:41:46.004Z</time></trkpt><trkpt lat="39.8229647" lon="9.3577794"><ele>886.8</ele><time>2026-04-06T11:41:47.004Z</time></trkpt><trkpt lat="39.8230365" lon="9.3578167"><ele>888.4</ele><time>2026-04-06T11:41:48.004Z</time></trkpt><trkpt lat="39.8230664" lon="9.3578972"><ele>890.0</ele><time>2026-04-06T11:41:49.003Z</time></trkpt><trkpt lat="39.8230486" lon="9.3580018"><ele>889.75</ele><time>2026-04-06T11:41:50.004Z</time></trkpt><trkpt lat="39.8229727" lon="9.3581"><ele>889.5</ele><time>2026-04-06T11:41:51.004Z</time></trkpt><trkpt lat="39.8228713" lon="9.3582191"><ele>889.25</ele><time>2026-04-06T11:41:52.004Z</time></trkpt><trkpt lat="39.8227618" lon="9.3583775"><ele>889.0</ele><time>2026-04-06T11:41:53.003Z</time></trkpt><trkpt lat="39.822647" lon="9.3585616"><ele>889.0</ele><time>2026-04-06T11:41:54.004Z</time></trkpt><trkpt lat="39.8225291" lon="9.3587794"><ele>889.0</ele><time>2026-04-06T11:41:55.004Z</time></trkpt><trkpt lat="39.8224054" lon="9.3590145"><ele>889.0</ele><time>2026-04-06T11:41:56.004Z</time></trkpt><trkpt lat="39.8222834" lon="9.3592675"><ele>889.0</ele><time>2026-04-06T11:41:57.003Z</time></trkpt><trkpt lat="39.8221535" lon="9.3595304"><ele>889.0</ele><time>2026-04-06T11:41:58.004Z</time></trkpt><trkpt lat="39.8220113" lon="9.3597915"><ele>884.3333333333333</ele><time>2026-04-06T11:41:59.003Z</time></trkpt><trkpt lat="39.8218675" lon="9.3600392"><ele>879.6666666666667</ele><time>2026-04-06T11:42:00.004Z</time></trkpt><trkpt lat="39.8217429" lon="9.36025"><ele>875.0</ele><time>2026-04-06T11:42:01.003Z</time></trkpt><trkpt lat="39.8216144" lon="9.3604305"><ele>883.0</ele><time>2026-04-06T11:42:02.003Z</time></trkpt><trkpt lat="39.8214801" lon="9.3605675"><ele>891.0</ele><time>2026-04-06T11:42:03.004Z</time></trkpt><trkpt lat="39.8213573" lon="9.360716"><ele>899.0</ele><time>2026-04-06T11:42:04.004Z</time></trkpt><trkpt lat="39.8212376" lon="9.3608705"><ele>899.0</ele><time>2026-04-06T11:42:05.004Z</time></trkpt><trkpt lat="39.8211627" lon="9.3610567"><ele>899.0</ele><time>2026-04-06T11:42:06.004Z</time></trkpt><trkpt lat="39.8210908" lon="9.3612394"><ele>899.0</ele><time>2026-04-06T11:42:07.004Z</time></trkpt><trkpt lat="39.8210315" lon="9.3614256"><ele>902.75</ele><time>2026-04-06T11:42:08.004Z</time></trkpt><trkpt lat="39.8209989" lon="9.3616246"><ele>906.5</ele><time>2026-04-06T11:42:09.004Z</time></trkpt><trkpt lat="39.8209809" lon="9.3618175"><ele>910.25</ele><time>2026-04-06T11:42:10.004Z</time></trkpt><trkpt lat="39.8209804" lon="9.3619957"><ele>914.0</ele><time>2026-04-06T11:42:11.003Z</time></trkpt><trkpt lat="39.8210011" lon="9.3621534"><ele>912.25</ele><time>2026-04-06T11:42:12.004Z</time></trkpt><trkpt lat="39.821062" lon="9.3623087"><ele>910.5</ele><time>2026-04-06T11:42:13.004Z</time></trkpt><trkpt lat="39.8211434" lon="9.3624678"><ele>908.75</ele><time>2026-04-06T11:42:14.004Z</time></trkpt><trkpt lat="39.8212306" lon="9.3626279"><ele>907.0</ele><time>2026-04-06T11:42:15.004Z</time></trkpt><trkpt lat="39.8213037" lon="9.3627834"><ele>907.0</ele><time>2026-04-06T11:42:16.004Z</time></trkpt><trkpt lat="39.821374" lon="9.3629364"><ele>907.0</ele><time>2026-04-06T11:42:17.004Z</time></trkpt><trkpt lat="39.8214708" lon="9.363044"><ele>907.0</ele><time>2026-04-06T11:42:18.004Z</time></trkpt><trkpt lat="39.8216062" lon="9.3631242"><ele>907.0</ele><time>2026-04-06T11:42:19.003Z</time></trkpt><trkpt lat="39.8217674" lon="9.3631954"><ele>903.6666666666666</ele><time>2026-04-06T11:42:20.004Z</time></trkpt><trkpt lat="39.821926" lon="9.3633043"><ele>900.3333333333333</ele><time>2026-04-06T11:42:21.003Z</time></trkpt><trkpt lat="39.8220781" lon="9.3633856"><ele>897.0</ele><time>2026-04-06T11:42:22.004Z</time></trkpt><trkpt lat="39.8222443" lon="9.3634123"><ele>897.0</ele><time>2026-04-06T11:42:23.004Z</time></trkpt><trkpt lat="39.8224057" lon="9.3634314"><ele>897.0</ele><time>2026-04-06T11:42:24.004Z</time></trkpt><trkpt lat="39.8225557" lon="9.3634567"><ele>897.0</ele><time>2026-04-06T11:42:25.004Z</time></trkpt><trkpt lat="39.8226962" lon="9.3634815"><ele>898.4000000000001</ele><time>2026-04-06T11:42:26.003Z</time></trkpt><trkpt lat="39.8228199" lon="9.3635093"><ele>899.8000000000001</ele><time>2026-04-06T11:42:27.004Z</time></trkpt><trkpt lat="39.8229297" lon="9.3635627"><ele>901.2</ele><time>2026-04-06T11:42:28.004Z</time></trkpt><trkpt lat="39.8230034" lon="9.3636565"><ele>902.6</ele><time>2026-04-06T11:42:29.004Z</time></trkpt><trkpt lat="39.823029" lon="9.3637623"><ele>904.0</ele><time>2026-04-06T11:42:30.004Z</time></trkpt><trkpt lat="39.8230061" lon="9.3638533"><ele>905.0</ele><time>2026-04-06T11:42:31.004Z</time></trkpt><trkpt lat="39.8229439" lon="9.3639236"><ele>906.0000000000001</ele><time>2026-04-06T11:42:32.003Z</time></trkpt><trkpt lat="39.8228593" lon="9.3639817"><ele>907.0000000000001</ele><time>2026-04-06T11:42:33.003Z</time></trkpt><trkpt lat="39.8227647" lon="9.3640632"><ele>908.0</ele><time>2026-04-06T11:42:34.004Z</time></trkpt><trkpt lat="39.8226586" lon="9.3641472"><ele>909.0</ele><time>2026-04-06T11:42:35.003Z</time></trkpt><trkpt lat="39.8225485" lon="9.3642421"><ele>904.75</ele><time>2026-04-06T11:42:36.003Z</time></trkpt><trkpt lat="39.8224314" lon="9.3643501"><ele>900.5</ele><time>2026-04-06T11:42:37.003Z</time></trkpt><trkpt lat="39.8223105" lon="9.3644652"><ele>896.25</ele><time>2026-04-06T11:42:38.004Z</time></trkpt><trkpt lat="39.82219" lon="9.3645661"><ele>892.0</ele><time>2026-04-06T11:42:39.004Z</time></trkpt><trkpt lat="39.8220857" lon="9.3646599"><ele>896.75</ele><time>2026-04-06T11:42:40.004Z</time></trkpt><trkpt lat="39.8219911" lon="9.3647545"><ele>901.5</ele><time>2026-04-06T11:42:41.004Z</time></trkpt><trkpt lat="39.8219239" lon="9.364885"><ele>906.25</ele><time>2026-04-06T11:42:42.004Z</time></trkpt><trkpt lat="39.8218991" lon="9.3650377"><ele>911.0</ele><time>2026-04-06T11:42:43.004Z</time></trkpt><trkpt lat="39.8219031" lon="9.3652268"><ele>911.0</ele><time>2026-04-06T11:42:44.004Z</time></trkpt><trkpt lat="39.8219286" lon="9.3654367"><ele>911.0</ele><time>2026-04-06T11:42:45.004Z</time></trkpt><trkpt lat="39.8219476" lon="9.3656621"><ele>911.0</ele><time>2026-04-06T11:42:46.004Z</time></trkpt><trkpt lat="39.8219698" lon="9.3659085"><ele>915.0</ele><time>2026-04-06T11:42:47.003Z</time></trkpt><trkpt lat="39.8219886" lon="9.3661657"><ele>919.0</ele><time>2026-04-06T11:42:48.004Z</time></trkpt><trkpt lat="39.8219839" lon="9.3664348"><ele>923.0</ele><time>2026-04-06T11:42:49.003Z</time></trkpt><trkpt lat="39.8219507" lon="9.3667126"><ele>924.0</ele><time>2026-04-06T11:42:50.004Z</time></trkpt><trkpt lat="39.8219023" lon="9.366984"><ele>925.0</ele><time>2026-04-06T11:42:51.004Z</time></trkpt><trkpt lat="39.8218582" lon="9.3672396"><ele>926.0</ele><time>2026-04-06T11:42:52.004Z</time></trkpt><trkpt lat="39.8218126" lon="9.3674756"><ele>922.0</ele><time>2026-04-06T11:42:53.004Z</time></trkpt><trkpt lat="39.8217601" lon="9.3676969"><ele>918.0</ele><time>2026-04-06T11:42:54.004Z</time></trkpt><trkpt lat="39.8216799" lon="9.3679107"><ele>914.0</ele><time>2026-04-06T11:42:55.004Z</time></trkpt><trkpt lat="39.8215899" lon="9.3680865"><ele>914.0</ele><time>2026-04-06T11:42:56.004Z</time></trkpt><trkpt lat="39.8215074" lon="9.3682493"><ele>914.0000000000001</ele><time>2026-04-06T11:42:57.003Z</time></trkpt><trkpt lat="39.8214441" lon="9.3683764"><ele>914.0000000000001</ele><time>2026-04-06T11:42:58.003Z</time></trkpt><trkpt lat="39.8213589" lon="9.3684403"><ele>914.0</ele><time>2026-04-06T11:42:59.004Z</time></trkpt><trkpt lat="39.8212758" lon="9.3684281"><ele>914.0</ele><time>2026-04-06T11:43:00.004Z</time></trkpt><trkpt lat="39.8212007" lon="9.3683592"><ele>914.0</ele><time>2026-04-06T11:43:01.003Z</time></trkpt><trkpt lat="39.8211707" lon="9.3682227"><ele>914.0</ele><time>2026-04-06T11:43:02.004Z</time></trkpt><trkpt lat="39.8211658" lon="9.3680837"><ele>914.0</ele><time>2026-04-06T11:43:03.004Z</time></trkpt><trkpt lat="39.8211707" lon="9.3679213"><ele>914.0</ele><time>2026-04-06T11:43:04.004Z</time></trkpt><trkpt lat="39.821164" lon="9.3677368"><ele>912.0</ele><time>2026-04-06T11:43:05.004Z</time></trkpt><trkpt lat="39.8211633" lon="9.3675547"><ele>910.0</ele><time>2026-04-06T11:43:06.004Z</time></trkpt><trkpt lat="39.8211478" lon="9.3673608"><ele>908.0</ele><time>2026-04-06T11:43:07.003Z</time></trkpt><trkpt lat="39.8211142" lon="9.3671778"><ele>906.0</ele><time>2026-04-06T11:43:08.004Z</time></trkpt><trkpt lat="39.8210682" lon="9.3670109"><ele>907.5</ele><time>2026-04-06T11:43:09.004Z</time></trkpt><trkpt lat="39.8209882" lon="9.366856"><ele>909.0</ele><time>2026-04-06T11:43:10.003Z</time></trkpt><trkpt lat="39.8208742" lon="9.3667385"><ele>910.5</ele><time>2026-04-06T11:43:11.004Z</time></trkpt><trkpt lat="39.8207319" lon="9.366662"><ele>912.0</ele><time>2026-04-06T11:43:12.003Z</time></trkpt><trkpt lat="39.8205686" lon="9.3666419"><ele>912.0</ele><time>2026-04-06T11:43:13.003Z</time></trkpt><trkpt lat="39.8203923" lon="9.3666676"><ele>912.0</ele><time>2026-04-06T11:43:14.004Z</time></trkpt><trkpt lat="39.8202198" lon="9.3667084"><ele>912.0</ele><time>2026-04-06T11:43:15.004Z</time></trkpt><trkpt lat="39.8200565" lon="9.366737"><ele>915.0</ele><time>2026-04-06T11:43:16.004Z</time></trkpt><trkpt lat="39.8198904" lon="9.3667504"><ele>918.0</ele><time>2026-04-06T11:43:17.003Z</time></trkpt><trkpt lat="39.8197157" lon="9.3667223"><ele>921.0</ele><time>2026-04-06T11:43:18.003Z</time></trkpt><trkpt lat="39.8195356" lon="9.3667089"><ele>921.0</ele><time>2026-04-06T11:43:19.004Z</time></trkpt><trkpt lat="39.8193457" lon="9.3667311"><ele>921.0</ele><time>2026-04-06T11:43:20.003Z</time></trkpt><trkpt lat="39.8191485" lon="9.3667774"><ele>921.0</ele><time>2026-04-06T11:43:21.004Z</time></trkpt><trkpt lat="39.8189614" lon="9.3668404"><ele>921.6666666666667</ele><time>2026-04-06T11:43:22.004Z</time></trkpt><trkpt lat="39.8187945" lon="9.3669421"><ele>922.3333333333334</ele><time>2026-04-06T11:43:23.004Z</time></trkpt><trkpt lat="39.8186522" lon="9.3669922"><ele>923.0</ele><time>2026-04-06T11:43:24.004Z</time></trkpt><trkpt lat="39.8185184" lon="9.3670076"><ele>925.0</ele><time>2026-04-06T11:43:25.003Z</time></trkpt><trkpt lat="39.8183805" lon="9.3669943"><ele>927.0</ele><time>2026-04-06T11:43:26.004Z</time></trkpt><trkpt lat="39.8182402" lon="9.3669499"><ele>929.0</ele><time>2026-04-06T11:43:27.004Z</time></trkpt><trkpt lat="39.818107" lon="9.366873"><ele>931.0</ele><time>2026-04-06T11:43:28.004Z</time></trkpt><trkpt lat="39.8179793" lon="9.3667764"><ele>931.0</ele><time>2026-04-06T11:43:29.004Z</time></trkpt><trkpt lat="39.8178484" lon="9.3666729"><ele>931.0</ele><time>2026-04-06T11:43:30.004Z</time></trkpt><trkpt lat="39.8177259" lon="9.366523"><ele>931.0</ele><time>2026-04-06T11:43:31.003Z</time></trkpt><trkpt lat="39.8176113" lon="9.366337"><ele>935.0</ele><time>2026-04-06T11:43:32.004Z</time></trkpt><trkpt lat="39.8174944" lon="9.3661341"><ele>939.0</ele><time>2026-04-06T11:43:33.004Z</time></trkpt><trkpt lat="39.8173659" lon="9.3659289"><ele>943.0</ele><time>2026-04-06T11:43:34.003Z</time></trkpt><trkpt lat="39.8172345" lon="9.3657131"><ele>938.0</ele><time>2026-04-06T11:43:35.003Z</time></trkpt><trkpt lat="39.8171013" lon="9.3654983"><ele>933.0</ele><time>2026-04-06T11:43:36.004Z</time></trkpt><trkpt lat="39.8169758" lon="9.3653082"><ele>928.0</ele><time>2026-04-06T11:43:37.003Z</time></trkpt><trkpt lat="39.816846" lon="9.3651288"><ele>934.0</ele><time>2026-04-06T11:43:38.003Z</time></trkpt><trkpt lat="39.8167207" lon="9.3649509"><ele>940.0</ele><time>2026-04-06T11:43:39.003Z</time></trkpt><trkpt lat="39.8165971" lon="9.3647783"><ele>946.0</ele><time>2026-04-06T11:43:40.003Z</time></trkpt><trkpt lat="39.8164913" lon="9.364606"><ele>946.0</ele><time>2026-04-06T11:43:41.004Z</time></trkpt><trkpt lat="39.8164032" lon="9.3644516"><ele>946.0</ele><time>2026-04-06T11:43:42.004Z</time></trkpt><trkpt lat="39.8162973" lon="9.3642958"><ele>946.0</ele><time>2026-04-06T11:43:43.003Z</time></trkpt><trkpt lat="39.8161711" lon="9.3641658"><ele>946.0</ele><time>2026-04-06T11:43:44.004Z</time></trkpt><trkpt lat="39.8160033" lon="9.3640783"><ele>946.0</ele><time>2026-04-06T11:43:45.004Z</time></trkpt><trkpt lat="39.8158351" lon="9.3639889"><ele>946.0</ele><time>2026-04-06T11:43:46.004Z</time></trkpt><trkpt lat="39.8156601" lon="9.3639004"><ele>946.3333333333333</ele><time>2026-04-06T11:43:47.004Z</time></trkpt><trkpt lat="39.8154937" lon="9.3638145"><ele>946.6666666666667</ele><time>2026-04-06T11:43:48.004Z</time></trkpt><trkpt lat="39.8153434" lon="9.3637167"><ele>947.0</ele><time>2026-04-06T11:43:49.004Z</time></trkpt><trkpt lat="39.8152044" lon="9.3636019"><ele>954.3333333333334</ele><time>2026-04-06T11:43:50.004Z</time></trkpt><trkpt lat="39.815094" lon="9.3634619"><ele>961.6666666666667</ele><time>2026-04-06T11:43:51.004Z</time></trkpt><trkpt lat="39.8149977" lon="9.3633079"><ele>969.0</ele><time>2026-04-06T11:43:52.004Z</time></trkpt><trkpt lat="39.8149" lon="9.3631712"><ele>969.0</ele><time>2026-04-06T11:43:53.003Z</time></trkpt><trkpt lat="39.8148059" lon="9.3630538"><ele>969.0</ele><time>2026-04-06T11:43:54.003Z</time></trkpt><trkpt lat="39.8147079" lon="9.3629465"><ele>969.0</ele><time>2026-04-06T11:43:55.003Z</time></trkpt><trkpt lat="39.8146007" lon="9.362849"><ele>969.0</ele><time>2026-04-06T11:43:56.004Z</time></trkpt><trkpt lat="39.8144886" lon="9.3627612"><ele>970.5</ele><time>2026-04-06T11:43:57.004Z</time></trkpt><trkpt lat="39.8143789" lon="9.3626824"><ele>972.0</ele><time>2026-04-06T11:43:58.004Z</time></trkpt><trkpt lat="39.8142769" lon="9.3626062"><ele>973.5</ele><time>2026-04-06T11:43:59.004Z</time></trkpt><trkpt lat="39.81418" lon="9.3625263"><ele>975.0</ele><time>2026-04-06T11:44:00.004Z</time></trkpt><trkpt lat="39.8140863" lon="9.3624489"><ele>975.0</ele><time>2026-04-06T11:44:01.004Z</time></trkpt><trkpt lat="39.8139947" lon="9.3623771"><ele>975.0</ele><time>2026-04-06T11:44:02.004Z</time></trkpt><trkpt lat="39.8138966" lon="9.3623216"><ele>975.0</ele><time>2026-04-06T11:44:03.004Z</time></trkpt><trkpt lat="39.813794" lon="9.3622899"><ele>975.0</ele><time>2026-04-06T11:44:04.004Z</time></trkpt><trkpt lat="39.8136848" lon="9.3622691"><ele>975.0</ele><time>2026-04-06T11:44:05.004Z</time></trkpt><trkpt lat="39.8135725" lon="9.3622662"><ele>976.25</ele><time>2026-04-06T11:44:06.004Z</time></trkpt><trkpt lat="39.8134553" lon="9.3622543"><ele>977.5</ele><time>2026-04-06T11:44:07.004Z</time></trkpt><trkpt lat="39.8133301" lon="9.3622471"><ele>978.75</ele><time>2026-04-06T11:44:08.004Z</time></trkpt><trkpt lat="39.813215" lon="9.3622613"><ele>980.0</ele><time>2026-04-06T11:44:09.004Z</time></trkpt><trkpt lat="39.8131091" lon="9.3623111"><ele>980.0</ele><time>2026-04-06T11:44:10.004Z</time></trkpt><trkpt lat="39.8130224" lon="9.3623921"><ele>980.0</ele><time>2026-04-06T11:44:11.004Z</time></trkpt><trkpt lat="39.8129435" lon="9.3625096"><ele>980.0</ele><time>2026-04-06T11:44:12.004Z</time></trkpt><trkpt lat="39.8128772" lon="9.3626505"><ele>980.0</ele><time>2026-04-06T11:44:13.003Z</time></trkpt><trkpt lat="39.8128078" lon="9.3627935"><ele>980.0</ele><time>2026-04-06T11:44:14.004Z</time></trkpt><trkpt lat="39.8127462" lon="9.3629344"><ele>980.0</ele><time>2026-04-06T11:44:15.004Z</time></trkpt><trkpt lat="39.8126883" lon="9.3630691"><ele>980.0</ele><time>2026-04-06T11:44:16.003Z</time></trkpt><trkpt lat="39.8126319" lon="9.3632161"><ele>980.0</ele><time>2026-04-06T11:44:17.004Z</time></trkpt><trkpt lat="39.8125795" lon="9.3633743"><ele>977.25</ele><time>2026-04-06T11:44:18.004Z</time></trkpt><trkpt lat="39.8125248" lon="9.3635436"><ele>974.5</ele><time>2026-04-06T11:44:19.003Z</time></trkpt><trkpt lat="39.8124811" lon="9.3637139"><ele>971.75</ele><time>2026-04-06T11:44:20.004Z</time></trkpt><trkpt lat="39.81244" lon="9.363901"><ele>969.0</ele><time>2026-04-06T11:44:21.004Z</time></trkpt><trkpt lat="39.8123943" lon="9.364084"><ele>968.3333333333333</ele><time>2026-04-06T11:44:22.004Z</time></trkpt><trkpt lat="39.8123267" lon="9.3642764"><ele>967.6666666666666</ele><time>2026-04-06T11:44:23.004Z</time></trkpt><trkpt lat="39.8122414" lon="9.3644518"><ele>967.0</ele><time>2026-04-06T11:44:24.004Z</time></trkpt><trkpt lat="39.8121312" lon="9.3646193"><ele>967.0</ele><time>2026-04-06T11:44:25.004Z</time></trkpt><trkpt lat="39.8120149" lon="9.3647814"><ele>967.0</ele><time>2026-04-06T11:44:26.003Z</time></trkpt><trkpt lat="39.8118921" lon="9.364944"><ele>967.0</ele><time>2026-04-06T11:44:27.003Z</time></trkpt><trkpt lat="39.8117745" lon="9.3650998"><ele>967.3333333333333</ele><time>2026-04-06T11:44:28.004Z</time></trkpt><trkpt lat="39.8116554" lon="9.36525"><ele>967.6666666666667</ele><time>2026-04-06T11:44:29.004Z</time></trkpt><trkpt lat="39.8115353" lon="9.3654079"><ele>968.0</ele><time>2026-04-06T11:44:30.003Z</time></trkpt><trkpt lat="39.811419" lon="9.3655681"><ele>968.0</ele><time>2026-04-06T11:44:31.004Z</time></trkpt><trkpt lat="39.8112953" lon="9.3657294"><ele>968.0</ele><time>2026-04-06T11:44:32.004Z</time></trkpt><trkpt lat="39.8111666" lon="9.3658941"><ele>968.0</ele><time>2026-04-06T11:44:33.003Z</time></trkpt><trkpt lat="39.8110403" lon="9.3660648"><ele>967.3333333333334</ele><time>2026-04-06T11:44:34.004Z</time></trkpt><trkpt lat="39.8109134" lon="9.3662309"><ele>966.6666666666667</ele><time>2026-04-06T11:44:35.004Z</time></trkpt><trkpt lat="39.810786" lon="9.3663966"><ele>966.0</ele><time>2026-04-06T11:44:36.004Z</time></trkpt><trkpt lat="39.8106729" lon="9.3665719"><ele>967.3333333333333</ele><time>2026-04-06T11:44:37.004Z</time></trkpt><trkpt lat="39.8105753" lon="9.3667564"><ele>968.6666666666666</ele><time>2026-04-06T11:44:38.004Z</time></trkpt><trkpt lat="39.8105101" lon="9.3669453"><ele>970.0</ele><time>2026-04-06T11:44:39.004Z</time></trkpt><trkpt lat="39.8104693" lon="9.3671305"><ele>970.0</ele><time>2026-04-06T11:44:40.004Z</time></trkpt><trkpt lat="39.8104699" lon="9.3673087"><ele>970.0</ele><time>2026-04-06T11:44:41.004Z</time></trkpt><trkpt lat="39.8105089" lon="9.3674646"><ele>970.0</ele><time>2026-04-06T11:44:42.004Z</time></trkpt><trkpt lat="39.8107149" lon="9.3677319"><ele>970.0</ele><time>2026-04-06T11:44:44.004Z</time></trkpt><trkpt lat="39.8108423" lon="9.3678687"><ele>970.0</ele><time>2026-04-06T11:44:45.004Z</time></trkpt><trkpt lat="39.8109714" lon="9.3680064"><ele>970.0</ele><time>2026-04-06T11:44:46.003Z</time></trkpt><trkpt lat="39.811094" lon="9.3681309"><ele>973.25</ele><time>2026-04-06T11:44:47.004Z</time></trkpt><trkpt lat="39.8111975" lon="9.368257"><ele>976.5</ele><time>2026-04-06T11:44:48.004Z</time></trkpt><trkpt lat="39.8112615" lon="9.3683986"><ele>979.75</ele><time>2026-04-06T11:44:49.004Z</time></trkpt><trkpt lat="39.8112723" lon="9.368553"><ele>983.0</ele><time>2026-04-06T11:44:50.003Z</time></trkpt><trkpt lat="39.8112338" lon="9.3687045"><ele>983.0</ele><time>2026-04-06T11:44:51.004Z</time></trkpt><trkpt lat="39.8111582" lon="9.3688395"><ele>983.0</ele><time>2026-04-06T11:44:52.004Z</time></trkpt><trkpt lat="39.8110389" lon="9.3689343"><ele>983.0</ele><time>2026-04-06T11:44:53.004Z</time></trkpt><trkpt lat="39.8108925" lon="9.3689871"><ele>983.0</ele><time>2026-04-06T11:44:54.004Z</time></trkpt><trkpt lat="39.8107266" lon="9.3690114"><ele>977.3333333333334</ele><time>2026-04-06T11:44:55.004Z</time></trkpt><trkpt lat="39.8105504" lon="9.3690407"><ele>971.6666666666667</ele><time>2026-04-06T11:44:56.004Z</time></trkpt><trkpt lat="39.8103686" lon="9.369082"><ele>966.0</ele><time>2026-04-06T11:44:57.004Z</time></trkpt><trkpt lat="39.810169" lon="9.3691166"><ele>965.0</ele><time>2026-04-06T11:44:58.004Z</time></trkpt><trkpt lat="39.8099632" lon="9.3691509"><ele>964.0</ele><time>2026-04-06T11:44:59.004Z</time></trkpt><trkpt lat="39.809747" lon="9.3691841"><ele>963.0</ele><time>2026-04-06T11:45:00.004Z</time></trkpt><trkpt lat="39.8095343" lon="9.3692194"><ele>963.0</ele><time>2026-04-06T11:45:01.004Z</time></trkpt><trkpt lat="39.8093261" lon="9.3692585"><ele>963.0</ele><time>2026-04-06T11:45:02.003Z</time></trkpt><trkpt lat="39.809126" lon="9.3693182"><ele>963.0</ele><time>2026-04-06T11:45:03.004Z</time></trkpt><trkpt lat="39.8089299" lon="9.3694156"><ele>962.6666666666667</ele><time>2026-04-06T11:45:04.004Z</time></trkpt><trkpt lat="39.8087354" lon="9.3695315"><ele>962.3333333333334</ele><time>2026-04-06T11:45:05.004Z</time></trkpt><trkpt lat="39.808549" lon="9.3696349"><ele>962.0</ele><time>2026-04-06T11:45:06.003Z</time></trkpt><trkpt lat="39.808373" lon="9.3697354"><ele>962.0</ele><time>2026-04-06T11:45:07.004Z</time></trkpt><trkpt lat="39.8082018" lon="9.3698536"><ele>962.0</ele><time>2026-04-06T11:45:08.003Z</time></trkpt><trkpt lat="39.8080573" lon="9.3700015"><ele>962.0</ele><time>2026-04-06T11:45:09.004Z</time></trkpt><trkpt lat="39.8079167" lon="9.3701657"><ele>962.0</ele><time>2026-04-06T11:45:10.004Z</time></trkpt><trkpt lat="39.8077739" lon="9.3703397"><ele>962.0</ele><time>2026-04-06T11:45:11.004Z</time></trkpt><trkpt lat="39.8076428" lon="9.3705054"><ele>962.0</ele><time>2026-04-06T11:45:12.004Z</time></trkpt><trkpt lat="39.8075117" lon="9.3706709"><ele>960.3333333333334</ele><time>2026-04-06T11:45:13.004Z</time></trkpt><trkpt lat="39.8073958" lon="9.3708629"><ele>958.6666666666667</ele><time>2026-04-06T11:45:14.004Z</time></trkpt><trkpt lat="39.8072967" lon="9.3710843"><ele>957.0</ele><time>2026-04-06T11:45:15.004Z</time></trkpt><trkpt lat="39.8072144" lon="9.3713315"><ele>957.0</ele><time>2026-04-06T11:45:16.003Z</time></trkpt><trkpt lat="39.8071336" lon="9.3715925"><ele>957.0</ele><time>2026-04-06T11:45:17.004Z</time></trkpt><trkpt lat="39.8070532" lon="9.3718636"><ele>957.0</ele><time>2026-04-06T11:45:18.004Z</time></trkpt><trkpt lat="39.8069736" lon="9.3721325"><ele>955.6666666666667</ele><time>2026-04-06T11:45:19.003Z</time></trkpt><trkpt lat="39.8068962" lon="9.3724003"><ele>954.3333333333334</ele><time>2026-04-06T11:45:20.004Z</time></trkpt><trkpt lat="39.8068184" lon="9.3726679"><ele>953.0</ele><time>2026-04-06T11:45:21.004Z</time></trkpt><trkpt lat="39.8067303" lon="9.3729271"><ele>950.6666666666667</ele><time>2026-04-06T11:45:22.003Z</time></trkpt><trkpt lat="39.8066184" lon="9.3731709"><ele>948.3333333333333</ele><time>2026-04-06T11:45:23.003Z</time></trkpt><trkpt lat="39.8064834" lon="9.3733946"><ele>946.0</ele><time>2026-04-06T11:45:24.003Z</time></trkpt><trkpt lat="39.8063389" lon="9.373614"><ele>946.0</ele><time>2026-04-06T11:45:25.003Z</time></trkpt><trkpt lat="39.8061897" lon="9.3738363"><ele>946.0</ele><time>2026-04-06T11:45:26.004Z</time></trkpt><trkpt lat="39.8060186" lon="9.3740506"><ele>942.0</ele><time>2026-04-06T11:45:27.003Z</time></trkpt><trkpt lat="39.8058237" lon="9.3742553"><ele>938.0</ele><time>2026-04-06T11:45:28.004Z</time></trkpt><trkpt lat="39.8056263" lon="9.3744593"><ele>938.0</ele><time>2026-04-06T11:45:29.004Z</time></trkpt><trkpt lat="39.8054231" lon="9.374676"><ele>938.0</ele><time>2026-04-06T11:45:30.004Z</time></trkpt><trkpt lat="39.8052129" lon="9.3748875"><ele>934.5</ele><time>2026-04-06T11:45:31.003Z</time></trkpt><trkpt lat="39.8049999" lon="9.375104"><ele>931.0</ele><time>2026-04-06T11:45:32.003Z</time></trkpt><trkpt lat="39.8047917" lon="9.3753133"><ele>931.0</ele><time>2026-04-06T11:45:33.004Z</time></trkpt><trkpt lat="39.8045979" lon="9.3755151"><ele>931.0</ele><time>2026-04-06T11:45:34.004Z</time></trkpt><trkpt lat="39.8044154" lon="9.3757137"><ele>930.6666666666666</ele><time>2026-04-06T11:45:35.004Z</time></trkpt><trkpt lat="39.8042392" lon="9.3759037"><ele>930.3333333333333</ele><time>2026-04-06T11:45:36.004Z</time></trkpt><trkpt lat="39.8040843" lon="9.3760939"><ele>930.0</ele><time>2026-04-06T11:45:37.003Z</time></trkpt><trkpt lat="39.8039337" lon="9.3762985"><ele>933.0</ele><time>2026-04-06T11:45:38.004Z</time></trkpt><trkpt lat="39.8037969" lon="9.3765143"><ele>936.0</ele><time>2026-04-06T11:45:39.003Z</time></trkpt><trkpt lat="39.8036796" lon="9.3767338"><ele>939.0</ele><time>2026-04-06T11:45:40.004Z</time></trkpt><trkpt lat="39.8035776" lon="9.376966"><ele>936.3333333333333</ele><time>2026-04-06T11:45:41.003Z</time></trkpt><trkpt lat="39.8034869" lon="9.3771909"><ele>933.6666666666666</ele><time>2026-04-06T11:45:42.003Z</time></trkpt><trkpt lat="39.8034139" lon="9.3773954"><ele>931.0</ele><time>2026-04-06T11:45:43.003Z</time></trkpt><trkpt lat="39.8033561" lon="9.3775912"><ele>931.0</ele><time>2026-04-06T11:45:44.004Z</time></trkpt><trkpt lat="39.8033198" lon="9.3777824"><ele>931.0</ele><time>2026-04-06T11:45:45.003Z</time></trkpt><trkpt lat="39.8032988" lon="9.3779705"><ele>931.0</ele><time>2026-04-06T11:45:46.004Z</time></trkpt><trkpt lat="39.8033" lon="9.3781612"><ele>931.0</ele><time>2026-04-06T11:45:47.004Z</time></trkpt><trkpt lat="39.8033159" lon="9.3783529"><ele>930.3333333333333</ele><time>2026-04-06T11:45:48.003Z</time></trkpt><trkpt lat="39.8033465" lon="9.3785478"><ele>929.6666666666667</ele><time>2026-04-06T11:45:49.004Z</time></trkpt><trkpt lat="39.8033882" lon="9.3787395"><ele>929.0</ele><time>2026-04-06T11:45:50.003Z</time></trkpt><trkpt lat="39.8034344" lon="9.3789357"><ele>927.0</ele><time>2026-04-06T11:45:51.004Z</time></trkpt><trkpt lat="39.8034867" lon="9.3791121"><ele>925.0</ele><time>2026-04-06T11:45:52.003Z</time></trkpt><trkpt lat="39.8035417" lon="9.3792769"><ele>923.0</ele><time>2026-04-06T11:45:53.004Z</time></trkpt><trkpt lat="39.8036077" lon="9.3794164"><ele>921.0</ele><time>2026-04-06T11:45:54.004Z</time></trkpt><trkpt lat="39.8036853" lon="9.379527"><ele>920.25</ele><time>2026-04-06T11:45:55.004Z</time></trkpt><trkpt lat="39.8037796" lon="9.3796256"><ele>919.5</ele><time>2026-04-06T11:45:56.004Z</time></trkpt><trkpt lat="39.8038763" lon="9.3797031"><ele>918.75</ele><time>2026-04-06T11:45:57.003Z</time></trkpt><trkpt lat="39.8039961" lon="9.379756"><ele>918.0</ele><time>2026-04-06T11:45:58.004Z</time></trkpt><trkpt lat="39.8041063" lon="9.3797867"><ele>918.0</ele><time>2026-04-06T11:45:59.003Z</time></trkpt><trkpt lat="39.8042349" lon="9.3797912"><ele>918.0</ele><time>2026-04-06T11:46:00.004Z</time></trkpt><trkpt lat="39.8043777" lon="9.3797788"><ele>918.0</ele><time>2026-04-06T11:46:01.003Z</time></trkpt><trkpt lat="39.8045253" lon="9.379769"><ele>918.0</ele><time>2026-04-06T11:46:02.004Z</time></trkpt><trkpt lat="39.8046802" lon="9.3797557"><ele>917.5</ele><time>2026-04-06T11:46:03.003Z</time></trkpt><trkpt lat="39.8048247" lon="9.3797485"><ele>917.0</ele><time>2026-04-06T11:46:04.004Z</time></trkpt><trkpt lat="39.8049646" lon="9.3797474"><ele>916.5</ele><time>2026-04-06T11:46:05.003Z</time></trkpt><trkpt lat="39.8050957" lon="9.3797613"><ele>916.0</ele><time>2026-04-06T11:46:06.003Z</time></trkpt><trkpt lat="39.8052286" lon="9.3797962"><ele>920.5</ele><time>2026-04-06T11:46:07.004Z</time></trkpt><trkpt lat="39.805352" lon="9.3798705"><ele>925.0</ele><time>2026-04-06T11:46:08.004Z</time></trkpt><trkpt lat="39.8054634" lon="9.3799707"><ele>929.5</ele><time>2026-04-06T11:46:09.004Z</time></trkpt><trkpt lat="39.8055624" lon="9.3800919"><ele>934.0</ele><time>2026-04-06T11:46:10.004Z</time></trkpt><trkpt lat="39.8056466" lon="9.3802333"><ele>934.0</ele><time>2026-04-06T11:46:11.004Z</time></trkpt><trkpt lat="39.8057228" lon="9.3803799"><ele>934.0</ele><time>2026-04-06T11:46:12.004Z</time></trkpt><trkpt lat="39.8057711" lon="9.3805446"><ele>934.0</ele><time>2026-04-06T11:46:13.004Z</time></trkpt><trkpt lat="39.8058108" lon="9.3807116"><ele>934.0</ele><time>2026-04-06T11:46:14.004Z</time></trkpt><trkpt lat="39.8058514" lon="9.3808583"><ele>935.25</ele><time>2026-04-06T11:46:15.003Z</time></trkpt><trkpt lat="39.8058934" lon="9.3810115"><ele>936.5</ele><time>2026-04-06T11:46:16.004Z</time></trkpt><trkpt lat="39.8059361" lon="9.381167"><ele>937.75</ele><time>2026-04-06T11:46:17.004Z</time></trkpt><trkpt lat="39.805974" lon="9.3813087"><ele>939.0</ele><time>2026-04-06T11:46:18.004Z</time></trkpt><trkpt lat="39.8060081" lon="9.3814577"><ele>939.0</ele><time>2026-04-06T11:46:19.003Z</time></trkpt><trkpt lat="39.8060349" lon="9.3816072"><ele>939.0</ele><time>2026-04-06T11:46:20.004Z</time></trkpt><trkpt lat="39.8060382" lon="9.3817631"><ele>939.0</ele><time>2026-04-06T11:46:21.004Z</time></trkpt><trkpt lat="39.8060093" lon="9.3819132"><ele>939.0</ele><time>2026-04-06T11:46:22.004Z</time></trkpt><trkpt lat="39.8059564" lon="9.3820567"><ele>934.25</ele><time>2026-04-06T11:46:23.004Z</time></trkpt><trkpt lat="39.8058859" lon="9.3821971"><ele>929.5</ele><time>2026-04-06T11:46:24.004Z</time></trkpt><trkpt lat="39.8058042" lon="9.3823265"><ele>924.75</ele><time>2026-04-06T11:46:25.003Z</time></trkpt><trkpt lat="39.8057074" lon="9.3824451"><ele>920.0</ele><time>2026-04-06T11:46:26.003Z</time></trkpt><trkpt lat="39.8056014" lon="9.3825523"><ele>920.0</ele><time>2026-04-06T11:46:27.003Z</time></trkpt><trkpt lat="39.8054816" lon="9.3826551"><ele>920.0</ele><time>2026-04-06T11:46:28.004Z</time></trkpt><trkpt lat="39.8053547" lon="9.3827652"><ele>920.0</ele><time>2026-04-06T11:46:29.004Z</time></trkpt><trkpt lat="39.8052325" lon="9.3828892"><ele>918.3333333333334</ele><time>2026-04-06T11:46:30.004Z</time></trkpt><trkpt lat="39.8051247" lon="9.3830248"><ele>916.6666666666667</ele><time>2026-04-06T11:46:31.004Z</time></trkpt><trkpt lat="39.8050235" lon="9.3831755"><ele>915.0</ele><time>2026-04-06T11:46:32.004Z</time></trkpt><trkpt lat="39.8049234" lon="9.3833235"><ele>915.0</ele><time>2026-04-06T11:46:33.003Z</time></trkpt><trkpt lat="39.8048187" lon="9.3834555"><ele>915.0</ele><time>2026-04-06T11:46:34.004Z</time></trkpt><trkpt lat="39.8047167" lon="9.3835829"><ele>915.0</ele><time>2026-04-06T11:46:35.004Z</time></trkpt><trkpt lat="39.804615" lon="9.3837059"><ele>915.0</ele><time>2026-04-06T11:46:36.003Z</time></trkpt><trkpt lat="39.8045183" lon="9.3838224"><ele>915.75</ele><time>2026-04-06T11:46:37.004Z</time></trkpt><trkpt lat="39.8044347" lon="9.3839345"><ele>916.5</ele><time>2026-04-06T11:46:38.004Z</time></trkpt><trkpt lat="39.8043664" lon="9.3840535"><ele>917.25</ele><time>2026-04-06T11:46:39.003Z</time></trkpt><trkpt lat="39.8043185" lon="9.3841878"><ele>918.0</ele><time>2026-04-06T11:46:40.004Z</time></trkpt><trkpt lat="39.8042931" lon="9.3843385"><ele>916.2</ele><time>2026-04-06T11:46:41.003Z</time></trkpt><trkpt lat="39.8042871" lon="9.3844891"><ele>914.4</ele><time>2026-04-06T11:46:42.004Z</time></trkpt><trkpt lat="39.8043019" lon="9.3846303"><ele>912.6000000000001</ele><time>2026-04-06T11:46:43.004Z</time></trkpt><trkpt lat="39.8043357" lon="9.3847658"><ele>910.8000000000001</ele><time>2026-04-06T11:46:44.004Z</time></trkpt><trkpt lat="39.804382" lon="9.3848899"><ele>909.0</ele><time>2026-04-06T11:46:45.004Z</time></trkpt><trkpt lat="39.804434" lon="9.3850048"><ele>909.0</ele><time>2026-04-06T11:46:46.004Z</time></trkpt><trkpt lat="39.8044813" lon="9.3851191"><ele>909.0000000000001</ele><time>2026-04-06T11:46:47.004Z</time></trkpt><trkpt lat="39.8045252" lon="9.385226"><ele>909.0000000000001</ele><time>2026-04-06T11:46:48.003Z</time></trkpt><trkpt lat="39.8045693" lon="9.3853352"><ele>909.0</ele><time>2026-04-06T11:46:49.004Z</time></trkpt><trkpt lat="39.8046162" lon="9.3854412"><ele>909.0</ele><time>2026-04-06T11:46:50.004Z</time></trkpt><trkpt lat="39.8046637" lon="9.3855463"><ele>906.0</ele><time>2026-04-06T11:46:51.004Z</time></trkpt><trkpt lat="39.804713" lon="9.385657"><ele>903.0</ele><time>2026-04-06T11:46:52.004Z</time></trkpt><trkpt lat="39.8047673" lon="9.3857676"><ele>900.0</ele><time>2026-04-06T11:46:53.004Z</time></trkpt><trkpt lat="39.8048387" lon="9.3859043"><ele>897.0</ele><time>2026-04-06T11:46:54.004Z</time></trkpt><trkpt lat="39.8049137" lon="9.3860622"><ele>897.0</ele><time>2026-04-06T11:46:55.004Z</time></trkpt><trkpt lat="39.8049944" lon="9.3862417"><ele>897.0</ele><time>2026-04-06T11:46:56.004Z</time></trkpt><trkpt lat="39.8050774" lon="9.3864287"><ele>897.0</ele><time>2026-04-06T11:46:57.004Z</time></trkpt><trkpt lat="39.8051684" lon="9.3866354"><ele>895.0</ele><time>2026-04-06T11:46:58.003Z</time></trkpt><trkpt lat="39.805254" lon="9.3868526"><ele>893.0</ele><time>2026-04-06T11:46:59.004Z</time></trkpt><trkpt lat="39.805325" lon="9.3870721"><ele>891.0</ele><time>2026-04-06T11:47:00.004Z</time></trkpt><trkpt lat="39.8053883" lon="9.3872788"><ele>887.3333333333333</ele><time>2026-04-06T11:47:01.003Z</time></trkpt><trkpt lat="39.8054143" lon="9.3874834"><ele>883.6666666666666</ele><time>2026-04-06T11:47:02.004Z</time></trkpt><trkpt lat="39.8054003" lon="9.3876883"><ele>880.0</ele><time>2026-04-06T11:47:03.004Z</time></trkpt><trkpt lat="39.8053425" lon="9.3878955"><ele>878.6666666666666</ele><time>2026-04-06T11:47:04.004Z</time></trkpt><trkpt lat="39.8052566" lon="9.3880938"><ele>877.3333333333333</ele><time>2026-04-06T11:47:05.003Z</time></trkpt><trkpt lat="39.80515" lon="9.3882857"><ele>876.0</ele><time>2026-04-06T11:47:06.003Z</time></trkpt><trkpt lat="39.8050267" lon="9.3884734"><ele>876.0</ele><time>2026-04-06T11:47:07.003Z</time></trkpt><trkpt lat="39.804883" lon="9.3886479"><ele>876.0</ele><time>2026-04-06T11:47:08.004Z</time></trkpt><trkpt lat="39.8047261" lon="9.3888168"><ele>876.0</ele><time>2026-04-06T11:47:09.003Z</time></trkpt><trkpt lat="39.804562" lon="9.3889782"><ele>876.0</ele><time>2026-04-06T11:47:10.004Z</time></trkpt><trkpt lat="39.8043994" lon="9.3891472"><ele>876.0</ele><time>2026-04-06T11:47:11.004Z</time></trkpt><trkpt lat="39.8042495" lon="9.3893094"><ele>876.0</ele><time>2026-04-06T11:47:12.004Z</time></trkpt><trkpt lat="39.8041045" lon="9.3894694"><ele>873.6666666666667</ele><time>2026-04-06T11:47:13.004Z</time></trkpt><trkpt lat="39.8039666" lon="9.3896242"><ele>871.3333333333334</ele><time>2026-04-06T11:47:14.003Z</time></trkpt><trkpt lat="39.8038373" lon="9.3897574"><ele>869.0</ele><time>2026-04-06T11:47:15.004Z</time></trkpt><trkpt lat="39.803734" lon="9.3898678"><ele>869.0</ele><time>2026-04-06T11:47:16.004Z</time></trkpt><trkpt lat="39.8036666" lon="9.3899726"><ele>869.0000000000001</ele><time>2026-04-06T11:47:17.004Z</time></trkpt><trkpt lat="39.8036448" lon="9.390107"><ele>869.0000000000001</ele><time>2026-04-06T11:47:18.003Z</time></trkpt><trkpt lat="39.8036671" lon="9.3902482"><ele>869.0</ele><time>2026-04-06T11:47:19.004Z</time></trkpt><trkpt lat="39.803717" lon="9.3904007"><ele>869.0</ele><time>2026-04-06T11:47:20.004Z</time></trkpt><trkpt lat="39.8037688" lon="9.3905516"><ele>867.5</ele><time>2026-04-06T11:47:21.003Z</time></trkpt><trkpt lat="39.8038082" lon="9.3907099"><ele>866.0</ele><time>2026-04-06T11:47:22.003Z</time></trkpt><trkpt lat="39.8038208" lon="9.3908734"><ele>864.5</ele><time>2026-04-06T11:47:23.004Z</time></trkpt><trkpt lat="39.8038169" lon="9.3910234"><ele>863.0</ele><time>2026-04-06T11:47:24.004Z</time></trkpt><trkpt lat="39.8038016" lon="9.3911649"><ele>863.0</ele><time>2026-04-06T11:47:25.004Z</time></trkpt><trkpt lat="39.8037835" lon="9.3913001"><ele>863.0</ele><time>2026-04-06T11:47:26.004Z</time></trkpt><trkpt lat="39.8037689" lon="9.3914294"><ele>863.0</ele><time>2026-04-06T11:47:27.003Z</time></trkpt><trkpt lat="39.8037719" lon="9.3915485"><ele>863.0</ele><time>2026-04-06T11:47:28.003Z</time></trkpt><trkpt lat="39.8038056" lon="9.3916393"><ele>863.0</ele><time>2026-04-06T11:47:29.004Z</time></trkpt><trkpt lat="39.8038674" lon="9.3917016"><ele>860.2</ele><time>2026-04-06T11:47:30.004Z</time></trkpt><trkpt lat="39.8039497" lon="9.3917218"><ele>857.4</ele><time>2026-04-06T11:47:31.003Z</time></trkpt><trkpt lat="39.8040424" lon="9.3917193"><ele>854.6</ele><time>2026-04-06T11:47:32.004Z</time></trkpt><trkpt lat="39.8041509" lon="9.3917127"><ele>851.8000000000001</ele><time>2026-04-06T11:47:33.004Z</time></trkpt><trkpt lat="39.8042769" lon="9.3917047"><ele>849.0</ele><time>2026-04-06T11:47:34.004Z</time></trkpt><trkpt lat="39.8044158" lon="9.3916888"><ele>845.6666666666667</ele><time>2026-04-06T11:47:35.003Z</time></trkpt><trkpt lat="39.8045552" lon="9.3916616"><ele>842.3333333333334</ele><time>2026-04-06T11:47:36.004Z</time></trkpt><trkpt lat="39.804708" lon="9.391576"><ele>839.0</ele><time>2026-04-06T11:47:37.004Z</time></trkpt><trkpt lat="39.8048532" lon="9.3915098"><ele>839.0</ele><time>2026-04-06T11:47:38.004Z</time></trkpt><trkpt lat="39.8049899" lon="9.3914338"><ele>839.0</ele><time>2026-04-06T11:47:39.003Z</time></trkpt><trkpt lat="39.8050845" lon="9.3913006"><ele>839.0</ele><time>2026-04-06T11:47:40.003Z</time></trkpt><trkpt lat="39.8051753" lon="9.391195"><ele>839.0</ele><time>2026-04-06T11:47:41.004Z</time></trkpt><trkpt lat="39.8052792" lon="9.3911493"><ele>840.75</ele><time>2026-04-06T11:47:42.003Z</time></trkpt><trkpt lat="39.8054078" lon="9.3911694"><ele>842.5</ele><time>2026-04-06T11:47:43.004Z</time></trkpt><trkpt lat="39.8055556" lon="9.3912087"><ele>844.25</ele><time>2026-04-06T11:47:44.004Z</time></trkpt><trkpt lat="39.8056887" lon="9.3912275"><ele>846.0</ele><time>2026-04-06T11:47:45.004Z</time></trkpt><trkpt lat="39.8058261" lon="9.3912127"><ele>846.0</ele><time>2026-04-06T11:47:46.004Z</time></trkpt><trkpt lat="39.8059462" lon="9.3911761"><ele>846.0</ele><time>2026-04-06T11:47:47.004Z</time></trkpt><trkpt lat="39.8060427" lon="9.3911238"><ele>846.0</ele><time>2026-04-06T11:47:48.004Z</time></trkpt><trkpt lat="39.8061205" lon="9.3910451"><ele>846.0</ele><time>2026-04-06T11:47:49.004Z</time></trkpt><trkpt lat="39.8061696" lon="9.3909704"><ele>846.0</ele><time>2026-04-06T11:47:50.004Z</time></trkpt><trkpt lat="39.8062111" lon="9.3908877"><ele>844.4</ele><time>2026-04-06T11:47:51.004Z</time></trkpt><trkpt lat="39.8062466" lon="9.3907894"><ele>842.8</ele><time>2026-04-06T11:47:52.003Z</time></trkpt><trkpt lat="39.8062922" lon="9.3906782"><ele>841.1999999999999</ele><time>2026-04-06T11:47:53.004Z</time></trkpt><trkpt lat="39.8063509" lon="9.3905571"><ele>839.5999999999999</ele><time>2026-04-06T11:47:54.004Z</time></trkpt><trkpt lat="39.8064217" lon="9.3904264"><ele>838.0</ele><time>2026-04-06T11:47:55.004Z</time></trkpt><trkpt lat="39.8064999" lon="9.3902913"><ele>838.0</ele><time>2026-04-06T11:47:56.003Z</time></trkpt><trkpt lat="39.8065897" lon="9.3901517"><ele>838.0</ele><time>2026-04-06T11:47:57.004Z</time></trkpt><trkpt lat="39.8066827" lon="9.3900007"><ele>838.0</ele><time>2026-04-06T11:47:58.003Z</time></trkpt><trkpt lat="39.8067693" lon="9.3898515"><ele>838.0</ele><time>2026-04-06T11:47:59.004Z</time></trkpt><trkpt lat="39.8068486" lon="9.3897068"><ele>838.4</ele><time>2026-04-06T11:48:00.003Z</time></trkpt><trkpt lat="39.8069357" lon="9.3895764"><ele>838.8</ele><time>2026-04-06T11:48:01.003Z</time></trkpt><trkpt lat="39.8070262" lon="9.3894795"><ele>839.2</ele><time>2026-04-06T11:48:02.003Z</time></trkpt><trkpt lat="39.8071217" lon="9.3894345"><ele>839.6</ele><time>2026-04-06T11:48:03.004Z</time></trkpt><trkpt lat="39.8072059" lon="9.3894453"><ele>840.0</ele><time>2026-04-06T11:48:04.004Z</time></trkpt><trkpt lat="39.8072511" lon="9.3895113"><ele>840.0</ele><time>2026-04-06T11:48:05.003Z</time></trkpt><trkpt lat="39.8072833" lon="9.3896311"><ele>840.0</ele><time>2026-04-06T11:48:06.003Z</time></trkpt><trkpt lat="39.8072999" lon="9.3897689"><ele>840.0</ele><time>2026-04-06T11:48:07.004Z</time></trkpt><trkpt lat="39.8073" lon="9.3899384"><ele>840.0</ele><time>2026-04-06T11:48:08.004Z</time></trkpt><trkpt lat="39.807272" lon="9.390119"><ele>838.25</ele><time>2026-04-06T11:48:09.003Z</time></trkpt><trkpt lat="39.8072224" lon="9.3903038"><ele>836.5</ele><time>2026-04-06T11:48:10.003Z</time></trkpt><trkpt lat="39.8071642" lon="9.3904705"><ele>834.75</ele><time>2026-04-06T11:48:11.003Z</time></trkpt><trkpt lat="39.8071156" lon="9.3906342"><ele>833.0</ele><time>2026-04-06T11:48:12.004Z</time></trkpt><trkpt lat="39.807083" lon="9.3907915"><ele>832.0</ele><time>2026-04-06T11:48:13.004Z</time></trkpt><trkpt lat="39.8070774" lon="9.3909374"><ele>831.0</ele><time>2026-04-06T11:48:14.003Z</time></trkpt><trkpt lat="39.8070897" lon="9.3910675"><ele>830.0</ele><time>2026-04-06T11:48:15.004Z</time></trkpt><trkpt lat="39.8071222" lon="9.3911808"><ele>829.0</ele><time>2026-04-06T11:48:16.004Z</time></trkpt><trkpt lat="39.807177" lon="9.3912655"><ele>828.0</ele><time>2026-04-06T11:48:17.004Z</time></trkpt><trkpt lat="39.8072476" lon="9.3913178"><ele>828.0</ele><time>2026-04-06T11:48:18.004Z</time></trkpt><trkpt lat="39.8073407" lon="9.3913278"><ele>828.0</ele><time>2026-04-06T11:48:19.004Z</time></trkpt><trkpt lat="39.8074414" lon="9.391296"><ele>828.0</ele><time>2026-04-06T11:48:20.003Z</time></trkpt><trkpt lat="39.8075519" lon="9.3912565"><ele>828.0</ele><time>2026-04-06T11:48:21.004Z</time></trkpt><trkpt lat="39.8076712" lon="9.3911959"><ele>828.0</ele><time>2026-04-06T11:48:22.004Z</time></trkpt><trkpt lat="39.807796" lon="9.3911173"><ele>819.6666666666667</ele><time>2026-04-06T11:48:23.004Z</time></trkpt><trkpt lat="39.8079135" lon="9.3909981"><ele>811.3333333333334</ele><time>2026-04-06T11:48:24.004Z</time></trkpt><trkpt lat="39.8080196" lon="9.3908495"><ele>803.0</ele><time>2026-04-06T11:48:25.004Z</time></trkpt><trkpt lat="39.808126" lon="9.3906935"><ele>807.0</ele><time>2026-04-06T11:48:26.004Z</time></trkpt><trkpt lat="39.8082024" lon="9.3904927"><ele>811.0</ele><time>2026-04-06T11:48:27.004Z</time></trkpt><trkpt lat="39.8082697" lon="9.3903044"><ele>815.0</ele><time>2026-04-06T11:48:28.003Z</time></trkpt><trkpt lat="39.8083185" lon="9.3901122"><ele>815.0</ele><time>2026-04-06T11:48:29.004Z</time></trkpt><trkpt lat="39.8083632" lon="9.3899158"><ele>815.0</ele><time>2026-04-06T11:48:30.003Z</time></trkpt><trkpt lat="39.8084229" lon="9.389725"><ele>815.0</ele><time>2026-04-06T11:48:31.004Z</time></trkpt><trkpt lat="39.8084909" lon="9.3895597"><ele>811.0</ele><time>2026-04-06T11:48:32.004Z</time></trkpt><trkpt lat="39.8085971" lon="9.3894453"><ele>807.0</ele><time>2026-04-06T11:48:33.003Z</time></trkpt><trkpt lat="39.8086842" lon="9.3893019"><ele>803.0</ele><time>2026-04-06T11:48:34.004Z</time></trkpt><trkpt lat="39.8087653" lon="9.3891379"><ele>799.0</ele><time>2026-04-06T11:48:35.004Z</time></trkpt><trkpt lat="39.8088526" lon="9.3889893"><ele>799.0</ele><time>2026-04-06T11:48:36.004Z</time></trkpt><trkpt lat="39.8089694" lon="9.3888752"><ele>799.0</ele><time>2026-04-06T11:48:37.004Z</time></trkpt><trkpt lat="39.8090754" lon="9.3887495"><ele>799.0</ele><time>2026-04-06T11:48:38.004Z</time></trkpt><trkpt lat="39.8092204" lon="9.3886983"><ele>799.0</ele><time>2026-04-06T11:48:39.004Z</time></trkpt><trkpt lat="39.8093567" lon="9.3886276"><ele>798.75</ele><time>2026-04-06T11:48:40.004Z</time></trkpt><trkpt lat="39.8094978" lon="9.388557"><ele>798.5</ele><time>2026-04-06T11:48:41.004Z</time></trkpt><trkpt lat="39.8096344" lon="9.388488"><ele>798.25</ele><time>2026-04-06T11:48:42.004Z</time></trkpt><trkpt lat="39.8097587" lon="9.3884207"><ele>798.0</ele><time>2026-04-06T11:48:43.004Z</time></trkpt><trkpt lat="39.8098889" lon="9.3883465"><ele>798.0</ele><time>2026-04-06T11:48:44.004Z</time></trkpt><trkpt lat="39.8100218" lon="9.3882614"><ele>798.0</ele><time>2026-04-06T11:48:45.004Z</time></trkpt><trkpt lat="39.8101465" lon="9.3881632"><ele>798.0</ele><time>2026-04-06T11:48:46.004Z</time></trkpt><trkpt lat="39.8102715" lon="9.3880729"><ele>798.0</ele><time>2026-04-06T11:48:47.004Z</time></trkpt><trkpt lat="39.810413" lon="9.3880043"><ele>798.0</ele><time>2026-04-06T11:48:48.004Z</time></trkpt><trkpt lat="39.8105539" lon="9.3879235"><ele>798.0</ele><time>2026-04-06T11:48:49.003Z</time></trkpt><trkpt lat="39.8106833" lon="9.3878325"><ele>798.0</ele><time>2026-04-06T11:48:50.004Z</time></trkpt><trkpt lat="39.810798" lon="9.3877311"><ele>798.0</ele><time>2026-04-06T11:48:51.004Z</time></trkpt><trkpt lat="39.8109313" lon="9.3876605"><ele>792.5</ele><time>2026-04-06T11:48:52.004Z</time></trkpt><trkpt lat="39.8110392" lon="9.3875607"><ele>787.0</ele><time>2026-04-06T11:48:53.004Z</time></trkpt><trkpt lat="39.8111541" lon="9.3874782"><ele>781.5</ele><time>2026-04-06T11:48:54.004Z</time></trkpt><trkpt lat="39.8112744" lon="9.3873976"><ele>776.0</ele><time>2026-04-06T11:48:55.004Z</time></trkpt><trkpt lat="39.8113866" lon="9.387311"><ele>780.25</ele><time>2026-04-06T11:48:56.004Z</time></trkpt><trkpt lat="39.8114698" lon="9.3871769"><ele>784.5</ele><time>2026-04-06T11:48:57.003Z</time></trkpt><trkpt lat="39.8115674" lon="9.3870787"><ele>788.75</ele><time>2026-04-06T11:48:58.004Z</time></trkpt><trkpt lat="39.8116395" lon="9.3869613"><ele>793.0</ele><time>2026-04-06T11:48:59.003Z</time></trkpt><trkpt lat="39.8116962" lon="9.386866"><ele>793.0</ele><time>2026-04-06T11:49:00.004Z</time></trkpt><trkpt lat="39.8117406" lon="9.3867834"><ele>793.0</ele><time>2026-04-06T11:49:01.003Z</time></trkpt><trkpt lat="39.8118512" lon="9.3867186"><ele>793.0</ele><time>2026-04-06T11:49:03.004Z</time></trkpt><trkpt lat="39.8118681" lon="9.3868304"><ele>793.0</ele><time>2026-04-06T11:49:04.004Z</time></trkpt><trkpt lat="39.8118528" lon="9.3869176"><ele>793.0</ele><time>2026-04-06T11:49:05.003Z</time></trkpt><trkpt lat="39.8117953" lon="9.3870216"><ele>793.0</ele><time>2026-04-06T11:49:06.003Z</time></trkpt><trkpt lat="39.8117229" lon="9.3871393"><ele>793.0</ele><time>2026-04-06T11:49:07.004Z</time></trkpt><trkpt lat="39.8116405" lon="9.3872727"><ele>793.0</ele><time>2026-04-06T11:49:08.004Z</time></trkpt><trkpt lat="39.8115674" lon="9.3873963"><ele>793.0</ele><time>2026-04-06T11:49:09.004Z</time></trkpt><trkpt lat="39.8114896" lon="9.3875167"><ele>788.75</ele><time>2026-04-06T11:49:10.003Z</time></trkpt><trkpt lat="39.8114062" lon="9.3876318"><ele>784.5</ele><time>2026-04-06T11:49:11.004Z</time></trkpt><trkpt lat="39.8113085" lon="9.3877289"><ele>780.25</ele><time>2026-04-06T11:49:12.004Z</time></trkpt><trkpt lat="39.811214" lon="9.3877947"><ele>776.0</ele><time>2026-04-06T11:49:13.004Z</time></trkpt><trkpt lat="39.8111025" lon="9.3878747"><ele>776.0</ele><time>2026-04-06T11:49:14.004Z</time></trkpt><trkpt lat="39.8109943" lon="9.3879718"><ele>776.0</ele><time>2026-04-06T11:49:15.003Z</time></trkpt><trkpt lat="39.810895" lon="9.3880825"><ele>776.0</ele><time>2026-04-06T11:49:16.004Z</time></trkpt><trkpt lat="39.8108191" lon="9.3882087"><ele>776.0</ele><time>2026-04-06T11:49:17.004Z</time></trkpt><trkpt lat="39.810752" lon="9.3883279"><ele>775.3333333333334</ele><time>2026-04-06T11:49:18.003Z</time></trkpt><trkpt lat="39.8106916" lon="9.3884508"><ele>774.6666666666667</ele><time>2026-04-06T11:49:19.003Z</time></trkpt><trkpt lat="39.8105197" lon="9.3886373"><ele>774.0</ele><time>2026-04-06T11:49:21.003Z</time></trkpt><trkpt lat="39.8104263" lon="9.3887258"><ele>774.0</ele><time>2026-04-06T11:49:22.004Z</time></trkpt><trkpt lat="39.810331" lon="9.3888378"><ele>774.0</ele><time>2026-04-06T11:49:23.004Z</time></trkpt><trkpt lat="39.8102628" lon="9.3889973"><ele>774.0</ele><time>2026-04-06T11:49:24.004Z</time></trkpt><trkpt lat="39.8102151" lon="9.3891733"><ele>774.0</ele><time>2026-04-06T11:49:25.004Z</time></trkpt><trkpt lat="39.8101673" lon="9.3893567"><ele>774.25</ele><time>2026-04-06T11:49:26.004Z</time></trkpt><trkpt lat="39.8101249" lon="9.389542"><ele>774.5</ele><time>2026-04-06T11:49:27.004Z</time></trkpt><trkpt lat="39.8100808" lon="9.3897143"><ele>774.75</ele><time>2026-04-06T11:49:28.004Z</time></trkpt><trkpt lat="39.8100382" lon="9.3898829"><ele>775.0</ele><time>2026-04-06T11:49:29.003Z</time></trkpt><trkpt lat="39.8099904" lon="9.3900293"><ele>772.25</ele><time>2026-04-06T11:49:30.004Z</time></trkpt><trkpt lat="39.8099568" lon="9.390163"><ele>769.5</ele><time>2026-04-06T11:49:31.004Z</time></trkpt><trkpt lat="39.8098923" lon="9.3902963"><ele>766.75</ele><time>2026-04-06T11:49:32.004Z</time></trkpt><trkpt lat="39.8098136" lon="9.3904248"><ele>764.0</ele><time>2026-04-06T11:49:33.004Z</time></trkpt><trkpt lat="39.8097025" lon="9.3905275"><ele>758.0</ele><time>2026-04-06T11:49:34.004Z</time></trkpt><trkpt lat="39.8095783" lon="9.3906404"><ele>752.0</ele><time>2026-04-06T11:49:35.004Z</time></trkpt><trkpt lat="39.8094644" lon="9.3907843"><ele>746.0</ele><time>2026-04-06T11:49:36.004Z</time></trkpt><trkpt lat="39.8093509" lon="9.3909349"><ele>747.6666666666666</ele><time>2026-04-06T11:49:37.004Z</time></trkpt><trkpt lat="39.809243" lon="9.3910867"><ele>749.3333333333334</ele><time>2026-04-06T11:49:38.003Z</time></trkpt><trkpt lat="39.8091471" lon="9.3912442"><ele>751.0</ele><time>2026-04-06T11:49:39.004Z</time></trkpt><trkpt lat="39.8090654" lon="9.391407"><ele>751.0</ele><time>2026-04-06T11:49:40.003Z</time></trkpt><trkpt lat="39.8089933" lon="9.3915767"><ele>751.0</ele><time>2026-04-06T11:49:41.003Z</time></trkpt><trkpt lat="39.8089524" lon="9.3917585"><ele>751.0</ele><time>2026-04-06T11:49:42.004Z</time></trkpt><trkpt lat="39.8089307" lon="9.3919383"><ele>751.0</ele><time>2026-04-06T11:49:43.004Z</time></trkpt><trkpt lat="39.8089174" lon="9.3921119"><ele>749.0</ele><time>2026-04-06T11:49:44.004Z</time></trkpt><trkpt lat="39.8089073" lon="9.3922846"><ele>747.0</ele><time>2026-04-06T11:49:45.003Z</time></trkpt><trkpt lat="39.8088861" lon="9.3924472"><ele>745.0</ele><time>2026-04-06T11:49:46.003Z</time></trkpt><trkpt lat="39.8088547" lon="9.3926094"><ele>743.0</ele><time>2026-04-06T11:49:47.004Z</time></trkpt><trkpt lat="39.808808" lon="9.3927666"><ele>743.0</ele><time>2026-04-06T11:49:48.004Z</time></trkpt><trkpt lat="39.8087493" lon="9.3929098"><ele>743.0</ele><time>2026-04-06T11:49:49.003Z</time></trkpt><trkpt lat="39.8086932" lon="9.3930544"><ele>743.0</ele><time>2026-04-06T11:49:50.004Z</time></trkpt><trkpt lat="39.8086521" lon="9.3932005"><ele>743.0</ele><time>2026-04-06T11:49:51.004Z</time></trkpt><trkpt lat="39.8086222" lon="9.3933448"><ele>741.0</ele><time>2026-04-06T11:49:52.004Z</time></trkpt><trkpt lat="39.8085951" lon="9.3934888"><ele>739.0</ele><time>2026-04-06T11:49:53.004Z</time></trkpt><trkpt lat="39.8085745" lon="9.3936404"><ele>737.0</ele><time>2026-04-06T11:49:54.003Z</time></trkpt><trkpt lat="39.8085562" lon="9.3937999"><ele>735.0</ele><time>2026-04-06T11:49:55.003Z</time></trkpt><trkpt lat="39.8085508" lon="9.3939599"><ele>732.75</ele><time>2026-04-06T11:49:56.004Z</time></trkpt><trkpt lat="39.8085528" lon="9.3941137"><ele>730.5</ele><time>2026-04-06T11:49:57.004Z</time></trkpt><trkpt lat="39.8085548" lon="9.3942826"><ele>728.25</ele><time>2026-04-06T11:49:58.004Z</time></trkpt><trkpt lat="39.8085547" lon="9.3944548"><ele>726.0</ele><time>2026-04-06T11:49:59.004Z</time></trkpt><trkpt lat="39.8085523" lon="9.3946271"><ele>724.75</ele><time>2026-04-06T11:50:00.004Z</time></trkpt><trkpt lat="39.8085498" lon="9.3948034"><ele>723.5</ele><time>2026-04-06T11:50:01.004Z</time></trkpt><trkpt lat="39.8085423" lon="9.3949794"><ele>722.25</ele><time>2026-04-06T11:50:02.003Z</time></trkpt><trkpt lat="39.8085268" lon="9.3951565"><ele>721.0</ele><time>2026-04-06T11:50:03.004Z</time></trkpt><trkpt lat="39.8085046" lon="9.3953313"><ele>725.0</ele><time>2026-04-06T11:50:04.004Z</time></trkpt><trkpt lat="39.808483" lon="9.395497"><ele>729.0</ele><time>2026-04-06T11:50:05.004Z</time></trkpt><trkpt lat="39.8084593" lon="9.3956568"><ele>733.0</ele><time>2026-04-06T11:50:06.003Z</time></trkpt><trkpt lat="39.8084311" lon="9.3958061"><ele>737.0</ele><time>2026-04-06T11:50:07.003Z</time></trkpt><trkpt lat="39.8083974" lon="9.3959452"><ele>737.0</ele><time>2026-04-06T11:50:08.003Z</time></trkpt><trkpt lat="39.8083695" lon="9.3960794"><ele>737.0</ele><time>2026-04-06T11:50:09.004Z</time></trkpt><trkpt lat="39.8083461" lon="9.3962064"><ele>737.0</ele><time>2026-04-06T11:50:10.004Z</time></trkpt><trkpt lat="39.8083298" lon="9.3963396"><ele>737.0</ele><time>2026-04-06T11:50:11.004Z</time></trkpt><trkpt lat="39.808332" lon="9.3964773"><ele>737.0</ele><time>2026-04-06T11:50:12.004Z</time></trkpt><trkpt lat="39.8083526" lon="9.3966129"><ele>735.8</ele><time>2026-04-06T11:50:13.004Z</time></trkpt><trkpt lat="39.8083772" lon="9.3967445"><ele>734.6</ele><time>2026-04-06T11:50:14.004Z</time></trkpt><trkpt lat="39.8083953" lon="9.3968868"><ele>733.4</ele><time>2026-04-06T11:50:15.003Z</time></trkpt><trkpt lat="39.8084123" lon="9.3970351"><ele>732.1999999999999</ele><time>2026-04-06T11:50:16.003Z</time></trkpt><trkpt lat="39.8084261" lon="9.3971789"><ele>731.0</ele><time>2026-04-06T11:50:17.004Z</time></trkpt><trkpt lat="39.8084478" lon="9.3973259"><ele>730.5</ele><time>2026-04-06T11:50:18.004Z</time></trkpt><trkpt lat="39.8084783" lon="9.3974739"><ele>730.0</ele><time>2026-04-06T11:50:19.004Z</time></trkpt><trkpt lat="39.8085106" lon="9.3976344"><ele>729.5</ele><time>2026-04-06T11:50:20.004Z</time></trkpt><trkpt lat="39.8085435" lon="9.3977899"><ele>729.0</ele><time>2026-04-06T11:50:21.003Z</time></trkpt><trkpt lat="39.8085763" lon="9.3979463"><ele>722.25</ele><time>2026-04-06T11:50:22.004Z</time></trkpt><trkpt lat="39.8086026" lon="9.3981016"><ele>715.5</ele><time>2026-04-06T11:50:23.004Z</time></trkpt><trkpt lat="39.8086153" lon="9.3982532"><ele>708.75</ele><time>2026-04-06T11:50:24.003Z</time></trkpt><trkpt lat="39.8086117" lon="9.3984013"><ele>702.0</ele><time>2026-04-06T11:50:25.004Z</time></trkpt><trkpt lat="39.8085909" lon="9.3985434"><ele>702.0</ele><time>2026-04-06T11:50:26.004Z</time></trkpt><trkpt lat="39.8085595" lon="9.3986881"><ele>702.0</ele><time>2026-04-06T11:50:27.003Z</time></trkpt><trkpt lat="39.808511" lon="9.3988123"><ele>702.0</ele><time>2026-04-06T11:50:28.004Z</time></trkpt><trkpt lat="39.8084772" lon="9.3989165"><ele>702.0</ele><time>2026-04-06T11:50:29.003Z</time></trkpt><trkpt lat="39.8084648" lon="9.3990074"><ele>702.0</ele><time>2026-04-06T11:50:30.004Z</time></trkpt><trkpt lat="39.8085242" lon="9.3991249"><ele>702.0</ele><time>2026-04-06T11:50:32.003Z</time></trkpt><trkpt lat="39.8086489" lon="9.3990719"><ele>702.0</ele><time>2026-04-06T11:50:34.003Z</time></trkpt><trkpt lat="39.8087113" lon="9.398988"><ele>702.0</ele><time>2026-04-06T11:50:35.004Z</time></trkpt><trkpt lat="39.8087542" lon="9.3988769"><ele>702.0</ele><time>2026-04-06T11:50:36.004Z</time></trkpt><trkpt lat="39.8087807" lon="9.3987413"><ele>702.0</ele><time>2026-04-06T11:50:37.004Z</time></trkpt><trkpt lat="39.8088012" lon="9.3986005"><ele>702.0</ele><time>2026-04-06T11:50:38.004Z</time></trkpt><trkpt lat="39.8088045" lon="9.3984367"><ele>702.0</ele><time>2026-04-06T11:50:39.004Z</time></trkpt><trkpt lat="39.8088048" lon="9.3982812"><ele>702.0</ele><time>2026-04-06T11:50:40.004Z</time></trkpt><trkpt lat="39.808813" lon="9.398127"><ele>702.0</ele><time>2026-04-06T11:50:41.004Z</time></trkpt><trkpt lat="39.8088187" lon="9.3979648"><ele>701.6</ele><time>2026-04-06T11:50:42.004Z</time></trkpt><trkpt lat="39.8088288" lon="9.3978169"><ele>701.2</ele><time>2026-04-06T11:50:43.004Z</time></trkpt><trkpt lat="39.808833" lon="9.397676"><ele>700.8</ele><time>2026-04-06T11:50:44.003Z</time></trkpt><trkpt lat="39.8088408" lon="9.3975316"><ele>700.4</ele><time>2026-04-06T11:50:45.004Z</time></trkpt><trkpt lat="39.8088519" lon="9.3973873"><ele>700.0</ele><time>2026-04-06T11:50:46.004Z</time></trkpt><trkpt lat="39.8088631" lon="9.3972498"><ele>701.2</ele><time>2026-04-06T11:50:47.004Z</time></trkpt><trkpt lat="39.8088785" lon="9.3971121"><ele>702.4</ele><time>2026-04-06T11:50:48.004Z</time></trkpt><trkpt lat="39.8089062" lon="9.3969749"><ele>703.5999999999999</ele><time>2026-04-06T11:50:49.003Z</time></trkpt><trkpt lat="39.8089555" lon="9.3968421"><ele>704.8</ele><time>2026-04-06T11:50:50.003Z</time></trkpt><trkpt lat="39.8090243" lon="9.3967315"><ele>706.0</ele><time>2026-04-06T11:50:51.004Z</time></trkpt><trkpt lat="39.8091029" lon="9.3966079"><ele>706.0</ele><time>2026-04-06T11:50:52.004Z</time></trkpt><trkpt lat="39.8091872" lon="9.396479"><ele>706.0</ele><time>2026-04-06T11:50:53.004Z</time></trkpt><trkpt lat="39.809267" lon="9.3963488"><ele>706.0</ele><time>2026-04-06T11:50:54.004Z</time></trkpt><trkpt lat="39.8093399" lon="9.3962092"><ele>706.0</ele><time>2026-04-06T11:50:55.003Z</time></trkpt><trkpt lat="39.8094164" lon="9.3960762"><ele>702.75</ele><time>2026-04-06T11:50:56.004Z</time></trkpt><trkpt lat="39.8094906" lon="9.3959336"><ele>699.5</ele><time>2026-04-06T11:50:57.003Z</time></trkpt><trkpt lat="39.8095576" lon="9.3958006"><ele>696.25</ele><time>2026-04-06T11:50:58.003Z</time></trkpt><trkpt lat="39.8096241" lon="9.3956818"><ele>693.0</ele><time>2026-04-06T11:50:59.004Z</time></trkpt><trkpt lat="39.8096836" lon="9.3955699"><ele>694.2</ele><time>2026-04-06T11:51:00.004Z</time></trkpt><trkpt lat="39.8097271" lon="9.3954581"><ele>695.4</ele><time>2026-04-06T11:51:01.003Z</time></trkpt><trkpt lat="39.8097635" lon="9.3953399"><ele>696.6</ele><time>2026-04-06T11:51:02.004Z</time></trkpt><trkpt lat="39.8097995" lon="9.3952122"><ele>697.8000000000001</ele><time>2026-04-06T11:51:03.004Z</time></trkpt><trkpt lat="39.8098271" lon="9.3950537"><ele>699.0</ele><time>2026-04-06T11:51:04.004Z</time></trkpt><trkpt lat="39.809848" lon="9.3949066"><ele>699.0</ele><time>2026-04-06T11:51:05.004Z</time></trkpt><trkpt lat="39.8098745" lon="9.3947645"><ele>699.0</ele><time>2026-04-06T11:51:06.004Z</time></trkpt><trkpt lat="39.809902" lon="9.3946283"><ele>699.0</ele><time>2026-04-06T11:51:07.003Z</time></trkpt><trkpt lat="39.8099351" lon="9.3944849"><ele>699.0</ele><time>2026-04-06T11:51:08.004Z</time></trkpt><trkpt lat="39.8099775" lon="9.3943375"><ele>698.5</ele><time>2026-04-06T11:51:09.004Z</time></trkpt><trkpt lat="39.8100301" lon="9.3942"><ele>698.0</ele><time>2026-04-06T11:51:10.003Z</time></trkpt><trkpt lat="39.810095" lon="9.394076"><ele>697.5</ele><time>2026-04-06T11:51:11.004Z</time></trkpt><trkpt lat="39.8101599" lon="9.3939585"><ele>697.0</ele><time>2026-04-06T11:51:12.004Z</time></trkpt><trkpt lat="39.8102291" lon="9.3938365"><ele>697.0</ele><time>2026-04-06T11:51:13.004Z</time></trkpt><trkpt lat="39.8103092" lon="9.3937423"><ele>697.0</ele><time>2026-04-06T11:51:14.004Z</time></trkpt><trkpt lat="39.8103897" lon="9.393639"><ele>697.0</ele><time>2026-04-06T11:51:15.004Z</time></trkpt><trkpt lat="39.8104739" lon="9.3935492"><ele>697.0</ele><time>2026-04-06T11:51:16.004Z</time></trkpt><trkpt lat="39.8105609" lon="9.393455"><ele>697.0</ele><time>2026-04-06T11:51:17.003Z</time></trkpt><trkpt lat="39.8106485" lon="9.3933651"><ele>697.0</ele><time>2026-04-06T11:51:18.003Z</time></trkpt><trkpt lat="39.810735" lon="9.3932681"><ele>697.0</ele><time>2026-04-06T11:51:19.003Z</time></trkpt><trkpt lat="39.8108143" lon="9.393165"><ele>697.0</ele><time>2026-04-06T11:51:20.003Z</time></trkpt><trkpt lat="39.8108701" lon="9.3930276"><ele>697.0</ele><time>2026-04-06T11:51:21.004Z</time></trkpt><trkpt lat="39.8109335" lon="9.3928958"><ele>694.4000000000001</ele><time>2026-04-06T11:51:22.003Z</time></trkpt><trkpt lat="39.8109952" lon="9.3927817"><ele>691.8000000000001</ele><time>2026-04-06T11:51:23.003Z</time></trkpt><trkpt lat="39.8110416" lon="9.3926474"><ele>689.2</ele><time>2026-04-06T11:51:24.003Z</time></trkpt><trkpt lat="39.8110862" lon="9.3925222"><ele>686.6</ele><time>2026-04-06T11:51:25.003Z</time></trkpt><trkpt lat="39.8111488" lon="9.3924299"><ele>684.0</ele><time>2026-04-06T11:51:26.004Z</time></trkpt><trkpt lat="39.8112066" lon="9.3923319"><ele>684.0</ele><time>2026-04-06T11:51:27.003Z</time></trkpt><trkpt lat="39.8112885" lon="9.3922633"><ele>684.0</ele><time>2026-04-06T11:51:28.003Z</time></trkpt><trkpt lat="39.8113649" lon="9.3921989"><ele>684.0</ele><time>2026-04-06T11:51:29.004Z</time></trkpt><trkpt lat="39.8114286" lon="9.3921292"><ele>684.0</ele><time>2026-04-06T11:51:30.004Z</time></trkpt><trkpt lat="39.8114943" lon="9.3920643"><ele>684.0</ele><time>2026-04-06T11:51:31.003Z</time></trkpt><trkpt lat="39.8115602" lon="9.3920049"><ele>684.0</ele><time>2026-04-06T11:51:32.004Z</time></trkpt><trkpt lat="39.8116132" lon="9.3919162"><ele>683.0</ele><time>2026-04-06T11:51:33.004Z</time></trkpt><trkpt lat="39.8116794" lon="9.3918323"><ele>682.0</ele><time>2026-04-06T11:51:34.004Z</time></trkpt><trkpt lat="39.8117593" lon="9.3917567"><ele>681.0</ele><time>2026-04-06T11:51:35.004Z</time></trkpt><trkpt lat="39.8118593" lon="9.3917065"><ele>680.0</ele><time>2026-04-06T11:51:36.004Z</time></trkpt><trkpt lat="39.811956" lon="9.3916914"><ele>679.0</ele><time>2026-04-06T11:51:37.004Z</time></trkpt><trkpt lat="39.8120407" lon="9.3917143"><ele>679.0</ele><time>2026-04-06T11:51:38.004Z</time></trkpt><trkpt lat="39.8121364" lon="9.3916953"><ele>679.0</ele><time>2026-04-06T11:51:39.004Z</time></trkpt><trkpt lat="39.8122174" lon="9.391635"><ele>679.0</ele><time>2026-04-06T11:51:40.004Z</time></trkpt><trkpt lat="39.8123115" lon="9.3915595"><ele>679.0</ele><time>2026-04-06T11:51:41.004Z</time></trkpt><trkpt lat="39.8123988" lon="9.3914601"><ele>679.0</ele><time>2026-04-06T11:51:42.004Z</time></trkpt><trkpt lat="39.8124976" lon="9.3913719"><ele>676.5</ele><time>2026-04-06T11:51:43.004Z</time></trkpt><trkpt lat="39.812631" lon="9.3913118"><ele>674.0</ele><time>2026-04-06T11:51:44.004Z</time></trkpt><trkpt lat="39.8127591" lon="9.391271"><ele>671.5</ele><time>2026-04-06T11:51:45.004Z</time></trkpt><trkpt lat="39.8128762" lon="9.3912169"><ele>669.0</ele><time>2026-04-06T11:51:46.003Z</time></trkpt><trkpt lat="39.8129796" lon="9.3911534"><ele>669.0</ele><time>2026-04-06T11:51:47.004Z</time></trkpt><trkpt lat="39.8130788" lon="9.3910859"><ele>669.0</ele><time>2026-04-06T11:51:48.004Z</time></trkpt><trkpt lat="39.8131317" lon="9.3909981"><ele>669.0</ele><time>2026-04-06T11:51:49.003Z</time></trkpt><trkpt lat="39.8131043" lon="9.3907941"><ele>669.0</ele><time>2026-04-06T11:51:50.004Z</time></trkpt><trkpt lat="39.8131028" lon="9.3906239"><ele>672.0</ele><time>2026-04-06T11:51:51.004Z</time></trkpt><trkpt lat="39.8131327" lon="9.3904239"><ele>675.0</ele><time>2026-04-06T11:51:52.004Z</time></trkpt><trkpt lat="39.8131905" lon="9.3902321"><ele>678.0</ele><time>2026-04-06T11:51:53.004Z</time></trkpt><trkpt lat="39.8132669" lon="9.3900696"><ele>678.0</ele><time>2026-04-06T11:51:54.004Z</time></trkpt><trkpt lat="39.8133403" lon="9.3899363"><ele>678.0</ele><time>2026-04-06T11:51:55.003Z</time></trkpt><trkpt lat="39.8134266" lon="9.3898442"><ele>678.0</ele><time>2026-04-06T11:51:56.004Z</time></trkpt><trkpt lat="39.8135273" lon="9.3898091"><ele>678.0</ele><time>2026-04-06T11:51:57.004Z</time></trkpt><trkpt lat="39.8136203" lon="9.3897964"><ele>678.0</ele><time>2026-04-06T11:51:58.003Z</time></trkpt><trkpt lat="39.8137212" lon="9.389799"><ele>677.5999999999999</ele><time>2026-04-06T11:51:59.004Z</time></trkpt><trkpt lat="39.8138184" lon="9.389807"><ele>677.1999999999999</ele><time>2026-04-06T11:52:00.004Z</time></trkpt><trkpt lat="39.8139186" lon="9.3898515"><ele>676.8</ele><time>2026-04-06T11:52:01.004Z</time></trkpt><trkpt lat="39.8140209" lon="9.3898916"><ele>676.4</ele><time>2026-04-06T11:52:02.004Z</time></trkpt><trkpt lat="39.814109" lon="9.3899951"><ele>676.0</ele><time>2026-04-06T11:52:03.004Z</time></trkpt><trkpt lat="39.8142144" lon="9.3900648"><ele>676.25</ele><time>2026-04-06T11:52:04.003Z</time></trkpt><trkpt lat="39.8143316" lon="9.3901434"><ele>676.5</ele><time>2026-04-06T11:52:05.003Z</time></trkpt><trkpt lat="39.8144545" lon="9.3902"><ele>676.75</ele><time>2026-04-06T11:52:06.004Z</time></trkpt><trkpt lat="39.8145893" lon="9.3902417"><ele>677.0</ele><time>2026-04-06T11:52:07.004Z</time></trkpt><trkpt lat="39.814727" lon="9.3902824"><ele>677.0</ele><time>2026-04-06T11:52:08.004Z</time></trkpt><trkpt lat="39.8148727" lon="9.3902341"><ele>677.0</ele><time>2026-04-06T11:52:09.003Z</time></trkpt><trkpt lat="39.8150193" lon="9.3902064"><ele>677.0</ele><time>2026-04-06T11:52:10.003Z</time></trkpt><trkpt lat="39.8152928" lon="9.3901842"><ele>675.6</ele><time>2026-04-06T11:52:12.004Z</time></trkpt><trkpt lat="39.8154187" lon="9.3901744"><ele>674.2</ele><time>2026-04-06T11:52:13.004Z</time></trkpt><trkpt lat="39.8155311" lon="9.3901611"><ele>672.8</ele><time>2026-04-06T11:52:14.004Z</time></trkpt><trkpt lat="39.8156351" lon="9.3901258"><ele>671.4</ele><time>2026-04-06T11:52:15.004Z</time></trkpt><trkpt lat="39.8157281" lon="9.3900732"><ele>670.0</ele><time>2026-04-06T11:52:16.004Z</time></trkpt><trkpt lat="39.8158035" lon="9.3899849"><ele>670.0</ele><time>2026-04-06T11:52:17.004Z</time></trkpt><trkpt lat="39.8158659" lon="9.3899194"><ele>670.0</ele><time>2026-04-06T11:52:18.004Z</time></trkpt><trkpt lat="39.8159346" lon="9.3898705"><ele>670.0</ele><time>2026-04-06T11:52:19.004Z</time></trkpt><trkpt lat="39.8159986" lon="9.3898754"><ele>670.0</ele><time>2026-04-06T11:52:20.004Z</time></trkpt><trkpt lat="39.8161332" lon="9.3899646"><ele>670.0</ele><time>2026-04-06T11:52:22.004Z</time></trkpt><trkpt lat="39.8161889" lon="9.3900487"><ele>673.2</ele><time>2026-04-06T11:52:23.004Z</time></trkpt><trkpt lat="39.8162218" lon="9.3901524"><ele>676.4</ele><time>2026-04-06T11:52:24.004Z</time></trkpt><trkpt lat="39.8162439" lon="9.3902823"><ele>679.5999999999999</ele><time>2026-04-06T11:52:25.004Z</time></trkpt><trkpt lat="39.8162513" lon="9.3904346"><ele>682.8</ele><time>2026-04-06T11:52:26.004Z</time></trkpt><trkpt lat="39.8162313" lon="9.390594"><ele>686.0</ele><time>2026-04-06T11:52:27.004Z</time></trkpt><trkpt lat="39.8162382" lon="9.3907575"><ele>686.0</ele><time>2026-04-06T11:52:28.003Z</time></trkpt><trkpt lat="39.8162621" lon="9.3909116"><ele>686.0</ele><time>2026-04-06T11:52:29.004Z</time></trkpt><trkpt lat="39.8162584" lon="9.3910552"><ele>686.0</ele><time>2026-04-06T11:52:30.004Z</time></trkpt><trkpt lat="39.8162037" lon="9.391173"><ele>686.0</ele><time>2026-04-06T11:52:31.003Z</time></trkpt><trkpt lat="39.8161361" lon="9.3912676"><ele>686.0</ele><time>2026-04-06T11:52:32.004Z</time></trkpt><trkpt lat="39.8160776" lon="9.3913586"><ele>688.1999999999999</ele><time>2026-04-06T11:52:33.004Z</time></trkpt><trkpt lat="39.8160218" lon="9.3914686"><ele>690.4</ele><time>2026-04-06T11:52:34.004Z</time></trkpt><trkpt lat="39.8159806" lon="9.3915882"><ele>692.6</ele><time>2026-04-06T11:52:35.004Z</time></trkpt><trkpt lat="39.8159505" lon="9.3917191"><ele>694.8</ele><time>2026-04-06T11:52:36.004Z</time></trkpt><trkpt lat="39.8159201" lon="9.3918517"><ele>697.0</ele><time>2026-04-06T11:52:37.004Z</time></trkpt><trkpt lat="39.8158864" lon="9.391993"><ele>685.75</ele><time>2026-04-06T11:52:38.004Z</time></trkpt><trkpt lat="39.8158497" lon="9.3921394"><ele>674.5</ele><time>2026-04-06T11:52:39.004Z</time></trkpt><trkpt lat="39.8158166" lon="9.3922982"><ele>663.25</ele><time>2026-04-06T11:52:40.004Z</time></trkpt><trkpt lat="39.8157741" lon="9.3924597"><ele>652.0</ele><time>2026-04-06T11:52:41.004Z</time></trkpt><trkpt lat="39.8157317" lon="9.3926152"><ele>652.0</ele><time>2026-04-06T11:52:42.003Z</time></trkpt><trkpt lat="39.8156882" lon="9.3927644"><ele>652.0</ele><time>2026-04-06T11:52:43.003Z</time></trkpt><trkpt lat="39.8156731" lon="9.3929391"><ele>652.0</ele><time>2026-04-06T11:52:44.004Z</time></trkpt><trkpt lat="39.8156828" lon="9.3931134"><ele>652.0</ele><time>2026-04-06T11:52:45.004Z</time></trkpt><trkpt lat="39.8156992" lon="9.3932899"><ele>652.5</ele><time>2026-04-06T11:52:46.004Z</time></trkpt><trkpt lat="39.8157089" lon="9.3934644"><ele>653.0</ele><time>2026-04-06T11:52:47.004Z</time></trkpt><trkpt lat="39.815728" lon="9.3936228"><ele>653.5</ele><time>2026-04-06T11:52:48.004Z</time></trkpt><trkpt lat="39.815756" lon="9.3937638"><ele>654.0</ele><time>2026-04-06T11:52:49.004Z</time></trkpt><trkpt lat="39.8157812" lon="9.3939078"><ele>651.2</ele><time>2026-04-06T11:52:50.003Z</time></trkpt><trkpt lat="39.8158182" lon="9.3940449"><ele>648.4000000000001</ele><time>2026-04-06T11:52:51.004Z</time></trkpt><trkpt lat="39.8158644" lon="9.3941672"><ele>645.6</ele><time>2026-04-06T11:52:52.003Z</time></trkpt><trkpt lat="39.8159158" lon="9.3942895"><ele>642.8</ele><time>2026-04-06T11:52:53.003Z</time></trkpt><trkpt lat="39.815955" lon="9.3944043"><ele>640.0</ele><time>2026-04-06T11:52:54.004Z</time></trkpt><trkpt lat="39.8159802" lon="9.3945282"><ele>640.0</ele><time>2026-04-06T11:52:55.004Z</time></trkpt><trkpt lat="39.8159739" lon="9.3946532"><ele>640.0</ele><time>2026-04-06T11:52:56.004Z</time></trkpt><trkpt lat="39.8159444" lon="9.3947696"><ele>640.0</ele><time>2026-04-06T11:52:57.004Z</time></trkpt><trkpt lat="39.8159088" lon="9.3948938"><ele>640.0</ele><time>2026-04-06T11:52:58.004Z</time></trkpt><trkpt lat="39.8158651" lon="9.3950287"><ele>640.0</ele><time>2026-04-06T11:52:59.004Z</time></trkpt><trkpt lat="39.8158167" lon="9.3951783"><ele>640.5</ele><time>2026-04-06T11:53:00.003Z</time></trkpt><trkpt lat="39.8157658" lon="9.3953372"><ele>641.0</ele><time>2026-04-06T11:53:01.004Z</time></trkpt><trkpt lat="39.8157129" lon="9.3955042"><ele>641.5</ele><time>2026-04-06T11:53:02.003Z</time></trkpt><trkpt lat="39.8156508" lon="9.3956815"><ele>642.0</ele><time>2026-04-06T11:53:03.004Z</time></trkpt><trkpt lat="39.8155847" lon="9.395861"><ele>646.0</ele><time>2026-04-06T11:53:04.003Z</time></trkpt><trkpt lat="39.8155013" lon="9.3960412"><ele>650.0</ele><time>2026-04-06T11:53:05.004Z</time></trkpt><trkpt lat="39.8154145" lon="9.3962076"><ele>654.0</ele><time>2026-04-06T11:53:06.003Z</time></trkpt><trkpt lat="39.8153331" lon="9.3963749"><ele>660.0</ele><time>2026-04-06T11:53:07.004Z</time></trkpt><trkpt lat="39.8152788" lon="9.3965482"><ele>666.0</ele><time>2026-04-06T11:53:08.004Z</time></trkpt><trkpt lat="39.8152554" lon="9.3967468"><ele>672.0</ele><time>2026-04-06T11:53:09.004Z</time></trkpt><trkpt lat="39.8152459" lon="9.3969614"><ele>677.0</ele><time>2026-04-06T11:53:10.004Z</time></trkpt><trkpt lat="39.8152223" lon="9.3971775"><ele>682.0</ele><time>2026-04-06T11:53:11.004Z</time></trkpt><trkpt lat="39.8152017" lon="9.3974079"><ele>687.0</ele><time>2026-04-06T11:53:12.004Z</time></trkpt><trkpt lat="39.8152045" lon="9.3976489"><ele>687.0</ele><time>2026-04-06T11:53:13.004Z</time></trkpt><trkpt lat="39.8151934" lon="9.3978841"><ele>687.0</ele><time>2026-04-06T11:53:14.003Z</time></trkpt><trkpt lat="39.8151726" lon="9.3981338"><ele>687.0</ele><time>2026-04-06T11:53:15.004Z</time></trkpt><trkpt lat="39.8151584" lon="9.3983746"><ele>667.0</ele><time>2026-04-06T11:53:16.003Z</time></trkpt><trkpt lat="39.8151407" lon="9.3986072"><ele>647.0</ele><time>2026-04-06T11:53:17.003Z</time></trkpt><trkpt lat="39.8151215" lon="9.3988336"><ele>627.0</ele><time>2026-04-06T11:53:18.004Z</time></trkpt><trkpt lat="39.8151101" lon="9.3990416"><ele>626.0</ele><time>2026-04-06T11:53:19.004Z</time></trkpt><trkpt lat="39.8151151" lon="9.3992331"><ele>625.0</ele><time>2026-04-06T11:53:20.004Z</time></trkpt><trkpt lat="39.8151526" lon="9.3994097"><ele>624.0</ele><time>2026-04-06T11:53:21.003Z</time></trkpt><trkpt lat="39.8152066" lon="9.3995704"><ele>623.0</ele><time>2026-04-06T11:53:22.004Z</time></trkpt><trkpt lat="39.8152712" lon="9.3997249"><ele>627.75</ele><time>2026-04-06T11:53:23.004Z</time></trkpt><trkpt lat="39.815348" lon="9.3998683"><ele>632.5</ele><time>2026-04-06T11:53:24.004Z</time></trkpt><trkpt lat="39.8154387" lon="9.4000108"><ele>637.25</ele><time>2026-04-06T11:53:25.003Z</time></trkpt><trkpt lat="39.815533" lon="9.4001497"><ele>642.0</ele><time>2026-04-06T11:53:26.004Z</time></trkpt><trkpt lat="39.8156329" lon="9.4002831"><ele>642.0</ele><time>2026-04-06T11:53:27.004Z</time></trkpt><trkpt lat="39.8157434" lon="9.4004024"><ele>642.0</ele><time>2026-04-06T11:53:28.004Z</time></trkpt><trkpt lat="39.8158651" lon="9.4004925"><ele>642.0</ele><time>2026-04-06T11:53:29.003Z</time></trkpt><trkpt lat="39.8159903" lon="9.400572"><ele>642.0</ele><time>2026-04-06T11:53:30.003Z</time></trkpt><trkpt lat="39.8161105" lon="9.4006791"><ele>643.5</ele><time>2026-04-06T11:53:31.004Z</time></trkpt><trkpt lat="39.8162012" lon="9.4008221"><ele>645.0</ele><time>2026-04-06T11:53:32.003Z</time></trkpt><trkpt lat="39.8162665" lon="9.4009927"><ele>646.5</ele><time>2026-04-06T11:53:33.003Z</time></trkpt><trkpt lat="39.8163378" lon="9.4011666"><ele>648.0</ele><time>2026-04-06T11:53:34.004Z</time></trkpt><trkpt lat="39.816442" lon="9.4013223"><ele>641.0</ele><time>2026-04-06T11:53:35.003Z</time></trkpt><trkpt lat="39.8165511" lon="9.4014632"><ele>634.0</ele><time>2026-04-06T11:53:36.004Z</time></trkpt><trkpt lat="39.8166472" lon="9.4016058"><ele>627.0</ele><time>2026-04-06T11:53:37.004Z</time></trkpt><trkpt lat="39.8167286" lon="9.4017693"><ele>620.0</ele><time>2026-04-06T11:53:38.003Z</time></trkpt><trkpt lat="39.8167928" lon="9.4019433"><ele>624.0</ele><time>2026-04-06T11:53:39.003Z</time></trkpt><trkpt lat="39.8168275" lon="9.4021277"><ele>628.0</ele><time>2026-04-06T11:53:40.003Z</time></trkpt><trkpt lat="39.8168289" lon="9.4023133"><ele>632.0</ele><time>2026-04-06T11:53:41.003Z</time></trkpt><trkpt lat="39.8168091" lon="9.4024821"><ele>636.0</ele><time>2026-04-06T11:53:42.003Z</time></trkpt><trkpt lat="39.8168153" lon="9.4026449"><ele>636.0</ele><time>2026-04-06T11:53:43.004Z</time></trkpt><trkpt lat="39.8168638" lon="9.4027991"><ele>636.0</ele><time>2026-04-06T11:53:44.004Z</time></trkpt><trkpt lat="39.816933" lon="9.4029477"><ele>636.0</ele><time>2026-04-06T11:53:45.003Z</time></trkpt><trkpt lat="39.8169731" lon="9.4031309"><ele>636.0</ele><time>2026-04-06T11:53:46.004Z</time></trkpt><trkpt lat="39.8169858" lon="9.4033263"><ele>632.25</ele><time>2026-04-06T11:53:47.004Z</time></trkpt><trkpt lat="39.8169859" lon="9.4035308"><ele>628.5</ele><time>2026-04-06T11:53:48.004Z</time></trkpt><trkpt lat="39.8169822" lon="9.4037286"><ele>624.75</ele><time>2026-04-06T11:53:49.004Z</time></trkpt><trkpt lat="39.8169846" lon="9.4039001"><ele>621.0</ele><time>2026-04-06T11:53:50.004Z</time></trkpt><trkpt lat="39.8169936" lon="9.4040523"><ele>618.8</ele><time>2026-04-06T11:53:51.003Z</time></trkpt><trkpt lat="39.8170137" lon="9.4041712"><ele>616.6</ele><time>2026-04-06T11:53:52.003Z</time></trkpt><trkpt lat="39.8170651" lon="9.4042683"><ele>614.4</ele><time>2026-04-06T11:53:53.003Z</time></trkpt><trkpt lat="39.8171384" lon="9.4043336"><ele>612.2</ele><time>2026-04-06T11:53:54.004Z</time></trkpt><trkpt lat="39.8172251" lon="9.4043814"><ele>610.0</ele><time>2026-04-06T11:53:55.004Z</time></trkpt><trkpt lat="39.8173176" lon="9.4044123"><ele>610.0</ele><time>2026-04-06T11:53:56.004Z</time></trkpt><trkpt lat="39.8174287" lon="9.4044429"><ele>610.0</ele><time>2026-04-06T11:53:57.004Z</time></trkpt><trkpt lat="39.8175392" lon="9.4044963"><ele>610.0</ele><time>2026-04-06T11:53:58.004Z</time></trkpt><trkpt lat="39.8176584" lon="9.4045284"><ele>610.0</ele><time>2026-04-06T11:53:59.004Z</time></trkpt><trkpt lat="39.817786" lon="9.4045354"><ele>607.5</ele><time>2026-04-06T11:54:00.004Z</time></trkpt><trkpt lat="39.8179215" lon="9.4045256"><ele>605.0</ele><time>2026-04-06T11:54:01.003Z</time></trkpt><trkpt lat="39.818057" lon="9.404484"><ele>602.5</ele><time>2026-04-06T11:54:02.004Z</time></trkpt><trkpt lat="39.8181771" lon="9.4043965"><ele>600.0</ele><time>2026-04-06T11:54:03.004Z</time></trkpt><trkpt lat="39.8183034" lon="9.4043101"><ele>600.0</ele><time>2026-04-06T11:54:04.004Z</time></trkpt><trkpt lat="39.8184394" lon="9.4042647"><ele>600.0</ele><time>2026-04-06T11:54:05.003Z</time></trkpt><trkpt lat="39.8185683" lon="9.4042318"><ele>600.0</ele><time>2026-04-06T11:54:06.004Z</time></trkpt><trkpt lat="39.8186828" lon="9.404157"><ele>600.0</ele><time>2026-04-06T11:54:07.004Z</time></trkpt><trkpt lat="39.8187951" lon="9.4040899"><ele>595.5</ele><time>2026-04-06T11:54:08.004Z</time></trkpt><trkpt lat="39.8188856" lon="9.4039956"><ele>591.0</ele><time>2026-04-06T11:54:09.004Z</time></trkpt><trkpt lat="39.8190004" lon="9.4039568"><ele>586.5</ele><time>2026-04-06T11:54:10.003Z</time></trkpt><trkpt lat="39.8191132" lon="9.4039412"><ele>582.0</ele><time>2026-04-06T11:54:11.004Z</time></trkpt><trkpt lat="39.8192321" lon="9.4039259"><ele>584.75</ele><time>2026-04-06T11:54:12.004Z</time></trkpt><trkpt lat="39.8193511" lon="9.4038922"><ele>587.5</ele><time>2026-04-06T11:54:13.004Z</time></trkpt><trkpt lat="39.8194806" lon="9.403851"><ele>590.25</ele><time>2026-04-06T11:54:14.003Z</time></trkpt><trkpt lat="39.8195982" lon="9.4037579"><ele>593.0</ele><time>2026-04-06T11:54:15.004Z</time></trkpt><trkpt lat="39.8197353" lon="9.4037294"><ele>593.0</ele><time>2026-04-06T11:54:16.004Z</time></trkpt><trkpt lat="39.8198721" lon="9.4036914"><ele>593.0</ele><time>2026-04-06T11:54:17.004Z</time></trkpt><trkpt lat="39.8200207" lon="9.403686"><ele>593.0</ele><time>2026-04-06T11:54:18.004Z</time></trkpt><trkpt lat="39.8201694" lon="9.4036366"><ele>593.0</ele><time>2026-04-06T11:54:19.004Z</time></trkpt><trkpt lat="39.8203224" lon="9.4035888"><ele>593.0</ele><time>2026-04-06T11:54:20.004Z</time></trkpt><trkpt lat="39.8204851" lon="9.4035622"><ele>593.0</ele><time>2026-04-06T11:54:21.004Z</time></trkpt><trkpt lat="39.8206495" lon="9.4035697"><ele>593.0</ele><time>2026-04-06T11:54:22.004Z</time></trkpt><trkpt lat="39.8208096" lon="9.4036255"><ele>593.0</ele><time>2026-04-06T11:54:23.004Z</time></trkpt><trkpt lat="39.8209633" lon="9.4037182"><ele>593.0</ele><time>2026-04-06T11:54:24.004Z</time></trkpt><trkpt lat="39.8211057" lon="9.4038185"><ele>593.0</ele><time>2026-04-06T11:54:25.004Z</time></trkpt><trkpt lat="39.8212383" lon="9.4039122"><ele>589.0</ele><time>2026-04-06T11:54:26.004Z</time></trkpt><trkpt lat="39.821357" lon="9.4039872"><ele>585.0</ele><time>2026-04-06T11:54:27.004Z</time></trkpt><trkpt lat="39.8214587" lon="9.4040834"><ele>581.0</ele><time>2026-04-06T11:54:28.004Z</time></trkpt><trkpt lat="39.8215344" lon="9.4042124"><ele>577.0</ele><time>2026-04-06T11:54:29.003Z</time></trkpt><trkpt lat="39.8215935" lon="9.4043434"><ele>577.0</ele><time>2026-04-06T11:54:30.004Z</time></trkpt><trkpt lat="39.8216837" lon="9.4044482"><ele>577.0</ele><time>2026-04-06T11:54:31.004Z</time></trkpt><trkpt lat="39.8217766" lon="9.4045462"><ele>577.0</ele><time>2026-04-06T11:54:32.004Z</time></trkpt><trkpt lat="39.8218848" lon="9.4046291"><ele>577.0</ele><time>2026-04-06T11:54:33.004Z</time></trkpt><trkpt lat="39.8220119" lon="9.4047217"><ele>572.0</ele><time>2026-04-06T11:54:34.004Z</time></trkpt><trkpt lat="39.822145" lon="9.4048124"><ele>567.0</ele><time>2026-04-06T11:54:35.004Z</time></trkpt><trkpt lat="39.8222871" lon="9.4048879"><ele>562.0</ele><time>2026-04-06T11:54:36.004Z</time></trkpt><trkpt lat="39.8224423" lon="9.4049373"><ele>562.0</ele><time>2026-04-06T11:54:37.004Z</time></trkpt><trkpt lat="39.8226017" lon="9.4049515"><ele>562.0</ele><time>2026-04-06T11:54:38.003Z</time></trkpt><trkpt lat="39.8227689" lon="9.4049475"><ele>562.0</ele><time>2026-04-06T11:54:39.004Z</time></trkpt><trkpt lat="39.8229424" lon="9.4049393"><ele>558.6666666666667</ele><time>2026-04-06T11:54:40.004Z</time></trkpt><trkpt lat="39.8231214" lon="9.4049225"><ele>555.3333333333334</ele><time>2026-04-06T11:54:41.004Z</time></trkpt><trkpt lat="39.8232937" lon="9.4048997"><ele>552.0</ele><time>2026-04-06T11:54:42.004Z</time></trkpt><trkpt lat="39.82346" lon="9.4048721"><ele>547.0</ele><time>2026-04-06T11:54:43.004Z</time></trkpt><trkpt lat="39.8236187" lon="9.404822"><ele>542.0</ele><time>2026-04-06T11:54:44.004Z</time></trkpt><trkpt lat="39.8237748" lon="9.4047758"><ele>537.0</ele><time>2026-04-06T11:54:45.003Z</time></trkpt><trkpt lat="39.8239258" lon="9.4047315"><ele>537.0</ele><time>2026-04-06T11:54:46.003Z</time></trkpt><trkpt lat="39.8240768" lon="9.4047161"><ele>537.0</ele><time>2026-04-06T11:54:47.004Z</time></trkpt><trkpt lat="39.8242226" lon="9.4046982"><ele>537.0</ele><time>2026-04-06T11:54:48.004Z</time></trkpt><trkpt lat="39.8243436" lon="9.4046719"><ele>537.0</ele><time>2026-04-06T11:54:49.004Z</time></trkpt><trkpt lat="39.8244718" lon="9.4046257"><ele>539.3333333333334</ele><time>2026-04-06T11:54:50.004Z</time></trkpt><trkpt lat="39.8246217" lon="9.4045548"><ele>541.6666666666667</ele><time>2026-04-06T11:54:51.004Z</time></trkpt><trkpt lat="39.8247341" lon="9.4044133"><ele>544.0</ele><time>2026-04-06T11:54:52.003Z</time></trkpt><trkpt lat="39.8248301" lon="9.4042741"><ele>544.0</ele><time>2026-04-06T11:54:53.004Z</time></trkpt><trkpt lat="39.8249298" lon="9.4041613"><ele>544.0</ele><time>2026-04-06T11:54:54.004Z</time></trkpt><trkpt lat="39.8250142" lon="9.4040424"><ele>544.0</ele><time>2026-04-06T11:54:55.004Z</time></trkpt><trkpt lat="39.825076" lon="9.4039199"><ele>544.0</ele><time>2026-04-06T11:54:56.004Z</time></trkpt><trkpt lat="39.8251507" lon="9.4038483"><ele>546.2</ele><time>2026-04-06T11:54:57.004Z</time></trkpt><trkpt lat="39.8252301" lon="9.4038313"><ele>548.4</ele><time>2026-04-06T11:54:58.003Z</time></trkpt><trkpt lat="39.8253159" lon="9.4038442"><ele>550.6</ele><time>2026-04-06T11:54:59.004Z</time></trkpt><trkpt lat="39.825368" lon="9.4039799"><ele>552.8</ele><time>2026-04-06T11:55:00.004Z</time></trkpt><trkpt lat="39.8253945" lon="9.4041034"><ele>555.0</ele><time>2026-04-06T11:55:01.004Z</time></trkpt><trkpt lat="39.8254459" lon="9.4042279"><ele>555.0</ele><time>2026-04-06T11:55:02.003Z</time></trkpt><trkpt lat="39.8255262" lon="9.4043503"><ele>555.0</ele><time>2026-04-06T11:55:03.004Z</time></trkpt><trkpt lat="39.8256239" lon="9.4044513"><ele>555.0</ele><time>2026-04-06T11:55:04.004Z</time></trkpt><trkpt lat="39.8257171" lon="9.4045743"><ele>555.0</ele><time>2026-04-06T11:55:05.004Z</time></trkpt><trkpt lat="39.8257887" lon="9.4047091"><ele>552.5</ele><time>2026-04-06T11:55:06.004Z</time></trkpt><trkpt lat="39.8258635" lon="9.4048538"><ele>550.0</ele><time>2026-04-06T11:55:07.004Z</time></trkpt><trkpt lat="39.8259317" lon="9.4050077"><ele>547.5</ele><time>2026-04-06T11:55:08.003Z</time></trkpt><trkpt lat="39.8259764" lon="9.4051649"><ele>545.0</ele><time>2026-04-06T11:55:09.004Z</time></trkpt><trkpt lat="39.8260198" lon="9.4053177"><ele>545.0</ele><time>2026-04-06T11:55:10.004Z</time></trkpt><trkpt lat="39.8260861" lon="9.4054503"><ele>545.0</ele><time>2026-04-06T11:55:11.003Z</time></trkpt><trkpt lat="39.8261682" lon="9.4055678"><ele>545.0</ele><time>2026-04-06T11:55:12.004Z</time></trkpt><trkpt lat="39.8262563" lon="9.4056384"><ele>545.0</ele><time>2026-04-06T11:55:13.004Z</time></trkpt><trkpt lat="39.8263519" lon="9.4056645"><ele>545.0</ele><time>2026-04-06T11:55:14.004Z</time></trkpt><trkpt lat="39.8264569" lon="9.405629"><ele>545.0</ele><time>2026-04-06T11:55:15.003Z</time></trkpt><trkpt lat="39.8265604" lon="9.4055512"><ele>545.0</ele><time>2026-04-06T11:55:16.004Z</time></trkpt><trkpt lat="39.8266692" lon="9.4054309"><ele>545.0</ele><time>2026-04-06T11:55:17.003Z</time></trkpt><trkpt lat="39.826785" lon="9.4053218"><ele>545.0</ele><time>2026-04-06T11:55:18.004Z</time></trkpt><trkpt lat="39.8269009" lon="9.40524"><ele>541.5</ele><time>2026-04-06T11:55:19.004Z</time></trkpt><trkpt lat="39.8270339" lon="9.4051967"><ele>538.0</ele><time>2026-04-06T11:55:20.004Z</time></trkpt><trkpt lat="39.8271796" lon="9.4051824"><ele>534.5</ele><time>2026-04-06T11:55:21.004Z</time></trkpt><trkpt lat="39.8273258" lon="9.405182"><ele>531.0</ele><time>2026-04-06T11:55:22.003Z</time></trkpt><trkpt lat="39.8274717" lon="9.4051888"><ele>531.0</ele><time>2026-04-06T11:55:23.003Z</time></trkpt><trkpt lat="39.8276101" lon="9.4051944"><ele>531.0</ele><time>2026-04-06T11:55:24.004Z</time></trkpt><trkpt lat="39.8277495" lon="9.4052016"><ele>531.0</ele><time>2026-04-06T11:55:25.004Z</time></trkpt><trkpt lat="39.8278806" lon="9.405176"><ele>531.0</ele><time>2026-04-06T11:55:26.004Z</time></trkpt><trkpt lat="39.8279982" lon="9.4051372"><ele>530.5</ele><time>2026-04-06T11:55:27.004Z</time></trkpt><trkpt lat="39.8281172" lon="9.4051396"><ele>530.0</ele><time>2026-04-06T11:55:28.004Z</time></trkpt><trkpt lat="39.8282193" lon="9.4052044"><ele>529.5</ele><time>2026-04-06T11:55:29.004Z</time></trkpt><trkpt lat="39.8283118" lon="9.4052995"><ele>529.0</ele><time>2026-04-06T11:55:30.004Z</time></trkpt><trkpt lat="39.828429" lon="9.4053596"><ele>528.5</ele><time>2026-04-06T11:55:31.003Z</time></trkpt><trkpt lat="39.8285566" lon="9.4054097"><ele>528.0</ele><time>2026-04-06T11:55:32.004Z</time></trkpt><trkpt lat="39.8286919" lon="9.4054466"><ele>527.5</ele><time>2026-04-06T11:55:33.003Z</time></trkpt><trkpt lat="39.8288285" lon="9.4054722"><ele>527.0</ele><time>2026-04-06T11:55:34.003Z</time></trkpt><trkpt lat="39.828962" lon="9.4054856"><ele>527.0</ele><time>2026-04-06T11:55:35.004Z</time></trkpt><trkpt lat="39.8290915" lon="9.4054836"><ele>527.0</ele><time>2026-04-06T11:55:36.004Z</time></trkpt><trkpt lat="39.8292159" lon="9.4054962"><ele>527.0</ele><time>2026-04-06T11:55:37.004Z</time></trkpt><trkpt lat="39.8293354" lon="9.4055431"><ele>527.0</ele><time>2026-04-06T11:55:38.004Z</time></trkpt><trkpt lat="39.8294407" lon="9.4056287"><ele>522.8000000000001</ele><time>2026-04-06T11:55:39.004Z</time></trkpt><trkpt lat="39.8295429" lon="9.4057277"><ele>518.6</ele><time>2026-04-06T11:55:40.004Z</time></trkpt><trkpt lat="39.8296478" lon="9.4057896"><ele>514.4000000000001</ele><time>2026-04-06T11:55:41.003Z</time></trkpt><trkpt lat="39.8297549" lon="9.4057899"><ele>510.20000000000005</ele><time>2026-04-06T11:55:42.004Z</time></trkpt><trkpt lat="39.829841" lon="9.4057573"><ele>506.0</ele><time>2026-04-06T11:55:43.004Z</time></trkpt><trkpt lat="39.8299399" lon="9.4057552"><ele>506.0</ele><time>2026-04-06T11:55:44.004Z</time></trkpt><trkpt lat="39.8300318" lon="9.4057983"><ele>506.0</ele><time>2026-04-06T11:55:45.004Z</time></trkpt><trkpt lat="39.8300831" lon="9.4058935"><ele>506.0</ele><time>2026-04-06T11:55:46.004Z</time></trkpt><trkpt lat="39.8300995" lon="9.4060113"><ele>506.0</ele><time>2026-04-06T11:55:47.004Z</time></trkpt><trkpt lat="39.8300898" lon="9.4061234"><ele>506.0</ele><time>2026-04-06T11:55:48.004Z</time></trkpt><trkpt lat="39.8301041" lon="9.4062487"><ele>503.8</ele><time>2026-04-06T11:55:49.003Z</time></trkpt><trkpt lat="39.8301465" lon="9.4063628"><ele>501.6</ele><time>2026-04-06T11:55:50.004Z</time></trkpt><trkpt lat="39.8302173" lon="9.4064427"><ele>499.4</ele><time>2026-04-06T11:55:51.004Z</time></trkpt><trkpt lat="39.8303216" lon="9.4064674"><ele>497.2</ele><time>2026-04-06T11:55:52.004Z</time></trkpt><trkpt lat="39.8304445" lon="9.406459"><ele>495.0</ele><time>2026-04-06T11:55:53.004Z</time></trkpt><trkpt lat="39.8305627" lon="9.4064489"><ele>495.0</ele><time>2026-04-06T11:55:54.004Z</time></trkpt><trkpt lat="39.8306788" lon="9.4064416"><ele>495.0</ele><time>2026-04-06T11:55:55.004Z</time></trkpt><trkpt lat="39.8307899" lon="9.406452"><ele>495.0</ele><time>2026-04-06T11:55:56.004Z</time></trkpt><trkpt lat="39.8308976" lon="9.4065142"><ele>495.0</ele><time>2026-04-06T11:55:57.004Z</time></trkpt><trkpt lat="39.8309965" lon="9.4066115"><ele>494.75</ele><time>2026-04-06T11:55:58.004Z</time></trkpt><trkpt lat="39.8310923" lon="9.406723"><ele>494.5</ele><time>2026-04-06T11:55:59.004Z</time></trkpt><trkpt lat="39.831187" lon="9.4068349"><ele>494.25</ele><time>2026-04-06T11:56:00.004Z</time></trkpt><trkpt lat="39.8312767" lon="9.4069398"><ele>494.0</ele><time>2026-04-06T11:56:01.003Z</time></trkpt><trkpt lat="39.8313574" lon="9.407046"><ele>494.0</ele><time>2026-04-06T11:56:02.003Z</time></trkpt><trkpt lat="39.8314505" lon="9.4071202"><ele>494.0</ele><time>2026-04-06T11:56:03.003Z</time></trkpt><trkpt lat="39.8315499" lon="9.4071707"><ele>494.0</ele><time>2026-04-06T11:56:04.003Z</time></trkpt><trkpt lat="39.8316412" lon="9.4072114"><ele>494.0</ele><time>2026-04-06T11:56:05.003Z</time></trkpt><trkpt lat="39.8317286" lon="9.4072228"><ele>494.0</ele><time>2026-04-06T11:56:06.004Z</time></trkpt><trkpt lat="39.8318213" lon="9.4072632"><ele>495.5</ele><time>2026-04-06T11:56:07.003Z</time></trkpt><trkpt lat="39.8318977" lon="9.4073572"><ele>497.0</ele><time>2026-04-06T11:56:08.004Z</time></trkpt><trkpt lat="39.8319412" lon="9.4074939"><ele>498.5</ele><time>2026-04-06T11:56:09.004Z</time></trkpt><trkpt lat="39.8319766" lon="9.4076466"><ele>500.0</ele><time>2026-04-06T11:56:10.003Z</time></trkpt><trkpt lat="39.8319998" lon="9.4078215"><ele>501.0</ele><time>2026-04-06T11:56:11.003Z</time></trkpt><trkpt lat="39.8320117" lon="9.408006"><ele>502.0</ele><time>2026-04-06T11:56:12.004Z</time></trkpt><trkpt lat="39.832015" lon="9.4081962"><ele>503.0</ele><time>2026-04-06T11:56:13.003Z</time></trkpt><trkpt lat="39.8319958" lon="9.4083868"><ele>504.0</ele><time>2026-04-06T11:56:14.004Z</time></trkpt><trkpt lat="39.8319202" lon="9.408588"><ele>504.0</ele><time>2026-04-06T11:56:15.003Z</time></trkpt><trkpt lat="39.8318311" lon="9.4087752"><ele>504.0</ele><time>2026-04-06T11:56:16.004Z</time></trkpt><trkpt lat="39.8317308" lon="9.4089434"><ele>504.0</ele><time>2026-04-06T11:56:17.004Z</time></trkpt><trkpt lat="39.8316151" lon="9.4090956"><ele>507.33333333333337</ele><time>2026-04-06T11:56:18.004Z</time></trkpt><trkpt lat="39.8315414" lon="9.4092778"><ele>510.6666666666667</ele><time>2026-04-06T11:56:19.003Z</time></trkpt><trkpt lat="39.8314975" lon="9.4094741"><ele>514.0</ele><time>2026-04-06T11:56:20.004Z</time></trkpt><trkpt lat="39.8314783" lon="9.4096707"><ele>514.6666666666667</ele><time>2026-04-06T11:56:21.004Z</time></trkpt><trkpt lat="39.8314868" lon="9.4098755"><ele>515.3333333333334</ele><time>2026-04-06T11:56:22.003Z</time></trkpt><trkpt lat="39.8315189" lon="9.4100779"><ele>516.0</ele><time>2026-04-06T11:56:23.003Z</time></trkpt><trkpt lat="39.8315329" lon="9.4102847"><ele>516.0</ele><time>2026-04-06T11:56:24.004Z</time></trkpt><trkpt lat="39.831517" lon="9.4104869"><ele>516.0</ele><time>2026-04-06T11:56:25.004Z</time></trkpt><trkpt lat="39.831462" lon="9.410683"><ele>516.0</ele><time>2026-04-06T11:56:26.004Z</time></trkpt><trkpt lat="39.8313807" lon="9.4108554"><ele>517.0</ele><time>2026-04-06T11:56:27.004Z</time></trkpt><trkpt lat="39.8313174" lon="9.4110128"><ele>518.0</ele><time>2026-04-06T11:56:28.003Z</time></trkpt><trkpt lat="39.8312848" lon="9.4111436"><ele>519.0</ele><time>2026-04-06T11:56:29.004Z</time></trkpt><trkpt lat="39.8312887" lon="9.4112579"><ele>520.0</ele><time>2026-04-06T11:56:30.004Z</time></trkpt><trkpt lat="39.8313357" lon="9.4113605"><ele>521.0</ele><time>2026-04-06T11:56:31.004Z</time></trkpt><trkpt lat="39.8313818" lon="9.411475"><ele>522.5</ele><time>2026-04-06T11:56:32.004Z</time></trkpt><trkpt lat="39.8314904" lon="9.411549"><ele>524.0</ele><time>2026-04-06T11:56:33.004Z</time></trkpt><trkpt lat="39.8315474" lon="9.4116822"><ele>525.5</ele><time>2026-04-06T11:56:34.004Z</time></trkpt><trkpt lat="39.8315647" lon="9.4118388"><ele>527.0</ele><time>2026-04-06T11:56:35.004Z</time></trkpt><trkpt lat="39.8315573" lon="9.4120056"><ele>529.0</ele><time>2026-04-06T11:56:36.003Z</time></trkpt><trkpt lat="39.8315425" lon="9.4122139"><ele>531.0</ele><time>2026-04-06T11:56:37.003Z</time></trkpt><trkpt lat="39.8315305" lon="9.4124309"><ele>533.0</ele><time>2026-04-06T11:56:38.004Z</time></trkpt><trkpt lat="39.831538" lon="9.4126635"><ele>533.0</ele><time>2026-04-06T11:56:39.003Z</time></trkpt><trkpt lat="39.8315662" lon="9.412882"><ele>533.0</ele><time>2026-04-06T11:56:40.003Z</time></trkpt><trkpt lat="39.8316043" lon="9.4130935"><ele>533.0</ele><time>2026-04-06T11:56:41.004Z</time></trkpt><trkpt lat="39.8316941" lon="9.413283"><ele>530.0</ele><time>2026-04-06T11:56:42.003Z</time></trkpt><trkpt lat="39.8317478" lon="9.4134565"><ele>527.0</ele><time>2026-04-06T11:56:43.003Z</time></trkpt><trkpt lat="39.8317968" lon="9.4136251"><ele>524.0</ele><time>2026-04-06T11:56:44.004Z</time></trkpt><trkpt lat="39.83183" lon="9.4137446"><ele>521.0</ele><time>2026-04-06T11:56:45.004Z</time></trkpt><trkpt lat="39.8318402" lon="9.4138458"><ele>526.4</ele><time>2026-04-06T11:56:46.004Z</time></trkpt><trkpt lat="39.8318133" lon="9.4139233"><ele>531.8</ele><time>2026-04-06T11:56:47.004Z</time></trkpt><trkpt lat="39.8316968" lon="9.4138967"><ele>537.1999999999999</ele><time>2026-04-06T11:56:49.004Z</time></trkpt><trkpt lat="39.8316722" lon="9.4137943"><ele>542.6</ele><time>2026-04-06T11:56:50.004Z</time></trkpt><trkpt lat="39.8316401" lon="9.4136538"><ele>548.0</ele><time>2026-04-06T11:56:51.004Z</time></trkpt><trkpt lat="39.8315853" lon="9.4134925"><ele>548.6666666666666</ele><time>2026-04-06T11:56:52.004Z</time></trkpt><trkpt lat="39.8315314" lon="9.4133197"><ele>549.3333333333334</ele><time>2026-04-06T11:56:53.004Z</time></trkpt><trkpt lat="39.8314705" lon="9.4131186"><ele>550.0</ele><time>2026-04-06T11:56:54.004Z</time></trkpt><trkpt lat="39.8314" lon="9.412905"><ele>544.3333333333334</ele><time>2026-04-06T11:56:55.004Z</time></trkpt><trkpt lat="39.8313366" lon="9.4126895"><ele>538.6666666666666</ele><time>2026-04-06T11:56:56.003Z</time></trkpt><trkpt lat="39.8312744" lon="9.4124972"><ele>533.0</ele><time>2026-04-06T11:56:57.003Z</time></trkpt><trkpt lat="39.831207" lon="9.4123359"><ele>533.0</ele><time>2026-04-06T11:56:58.004Z</time></trkpt><trkpt lat="39.8311115" lon="9.4122195"><ele>533.0</ele><time>2026-04-06T11:56:59.003Z</time></trkpt><trkpt lat="39.8309819" lon="9.4121446"><ele>533.0</ele><time>2026-04-06T11:57:00.004Z</time></trkpt><trkpt lat="39.8308492" lon="9.4120813"><ele>533.0</ele><time>2026-04-06T11:57:01.004Z</time></trkpt><trkpt lat="39.8307285" lon="9.4120383"><ele>537.1999999999999</ele><time>2026-04-06T11:57:02.004Z</time></trkpt><trkpt lat="39.830628" lon="9.4119702"><ele>541.4</ele><time>2026-04-06T11:57:03.004Z</time></trkpt><trkpt lat="39.8305489" lon="9.41187"><ele>545.5999999999999</ele><time>2026-04-06T11:57:04.004Z</time></trkpt><trkpt lat="39.8304877" lon="9.4117517"><ele>549.8</ele><time>2026-04-06T11:57:05.003Z</time></trkpt><trkpt lat="39.8304538" lon="9.4116189"><ele>554.0</ele><time>2026-04-06T11:57:06.004Z</time></trkpt><trkpt lat="39.8305874" lon="9.4114336"><ele>553.5</ele><time>2026-04-06T11:57:07.003Z</time></trkpt><trkpt lat="39.8306102" lon="9.4112613"><ele>553.0</ele><time>2026-04-06T11:57:08.004Z</time></trkpt><trkpt lat="39.8306155" lon="9.4110697"><ele>552.5</ele><time>2026-04-06T11:57:09.004Z</time></trkpt><trkpt lat="39.8306097" lon="9.4108542"><ele>552.0</ele><time>2026-04-06T11:57:10.003Z</time></trkpt><trkpt lat="39.8305944" lon="9.4106337"><ele>552.3333333333334</ele><time>2026-04-06T11:57:11.004Z</time></trkpt><trkpt lat="39.8305692" lon="9.4104208"><ele>552.6666666666667</ele><time>2026-04-06T11:57:12.004Z</time></trkpt><trkpt lat="39.8305416" lon="9.4102022"><ele>553.0</ele><time>2026-04-06T11:57:13.004Z</time></trkpt><trkpt lat="39.8304914" lon="9.4100107"><ele>553.0</ele><time>2026-04-06T11:57:14.004Z</time></trkpt><trkpt lat="39.8304288" lon="9.4098447"><ele>553.0</ele><time>2026-04-06T11:57:15.003Z</time></trkpt><trkpt lat="39.830328" lon="9.4097062"><ele>553.0</ele><time>2026-04-06T11:57:16.004Z</time></trkpt><trkpt lat="39.8301822" lon="9.4095854"><ele>554.6666666666667</ele><time>2026-04-06T11:57:17.004Z</time></trkpt><trkpt lat="39.8300363" lon="9.4094821"><ele>556.3333333333334</ele><time>2026-04-06T11:57:18.004Z</time></trkpt><trkpt lat="39.8298743" lon="9.4094198"><ele>558.0</ele><time>2026-04-06T11:57:19.004Z</time></trkpt><trkpt lat="39.829749" lon="9.4093634"><ele>558.0</ele><time>2026-04-06T11:57:20.004Z</time></trkpt><trkpt lat="39.8296572" lon="9.4093412"><ele>558.0</ele><time>2026-04-06T11:57:21.004Z</time></trkpt><trkpt lat="39.8295805" lon="9.4093683"><ele>558.0</ele><time>2026-04-06T11:57:22.004Z</time></trkpt><trkpt lat="39.82954" lon="9.4094404"><ele>558.0</ele><time>2026-04-06T11:57:23.004Z</time></trkpt><trkpt lat="39.829573" lon="9.4095879"><ele>558.0</ele><time>2026-04-06T11:57:25.004Z</time></trkpt><trkpt lat="39.829658" lon="9.4096182"><ele>558.0</ele><time>2026-04-06T11:57:26.004Z</time></trkpt><trkpt lat="39.829746" lon="9.4096402"><ele>556.75</ele><time>2026-04-06T11:57:27.003Z</time></trkpt><trkpt lat="39.829888" lon="9.409677"><ele>555.5</ele><time>2026-04-06T11:57:28.003Z</time></trkpt><trkpt lat="39.8300037" lon="9.4097636"><ele>554.25</ele><time>2026-04-06T11:57:29.003Z</time></trkpt><trkpt lat="39.8301258" lon="9.4098406"><ele>553.0</ele><time>2026-04-06T11:57:30.004Z</time></trkpt><trkpt lat="39.8301495" lon="9.4100783"><ele>553.0</ele><time>2026-04-06T11:57:31.004Z</time></trkpt><trkpt lat="39.8301737" lon="9.4102736"><ele>553.0</ele><time>2026-04-06T11:57:32.003Z</time></trkpt><trkpt lat="39.8301642" lon="9.410491"><ele>553.0</ele><time>2026-04-06T11:57:33.003Z</time></trkpt><trkpt lat="39.8301643" lon="9.4107081"><ele>552.6666666666667</ele><time>2026-04-06T11:57:34.004Z</time></trkpt><trkpt lat="39.8301476" lon="9.4109368"><ele>552.3333333333334</ele><time>2026-04-06T11:57:35.003Z</time></trkpt><trkpt lat="39.8301053" lon="9.4111649"><ele>552.0</ele><time>2026-04-06T11:57:36.004Z</time></trkpt><trkpt lat="39.8300451" lon="9.4113985"><ele>565.6666666666666</ele><time>2026-04-06T11:57:37.004Z</time></trkpt><trkpt lat="39.8299815" lon="9.4116086"><ele>579.3333333333333</ele><time>2026-04-06T11:57:38.003Z</time></trkpt><trkpt lat="39.8299146" lon="9.4117986"><ele>593.0</ele><time>2026-04-06T11:57:39.003Z</time></trkpt><trkpt lat="39.8298507" lon="9.4119764"><ele>593.0</ele><time>2026-04-06T11:57:40.004Z</time></trkpt><trkpt lat="39.8298042" lon="9.4121472"><ele>593.0</ele><time>2026-04-06T11:57:41.003Z</time></trkpt><trkpt lat="39.8297989" lon="9.412312"><ele>593.0</ele><time>2026-04-06T11:57:42.004Z</time></trkpt><trkpt lat="39.8297755" lon="9.4124642"><ele>593.0</ele><time>2026-04-06T11:57:43.003Z</time></trkpt><trkpt lat="39.8297879" lon="9.4126134"><ele>593.5</ele><time>2026-04-06T11:57:44.003Z</time></trkpt><trkpt lat="39.8299452" lon="9.4126674"><ele>594.0</ele><time>2026-04-06T11:57:45.004Z</time></trkpt><trkpt lat="39.8300371" lon="9.4127514"><ele>594.5</ele><time>2026-04-06T11:57:46.004Z</time></trkpt><trkpt lat="39.8301612" lon="9.4128133"><ele>595.0</ele><time>2026-04-06T11:57:47.004Z</time></trkpt><trkpt lat="39.8303199" lon="9.4128835"><ele>593.6666666666667</ele><time>2026-04-06T11:57:48.003Z</time></trkpt><trkpt lat="39.8304437" lon="9.412985"><ele>592.3333333333334</ele><time>2026-04-06T11:57:49.004Z</time></trkpt><trkpt lat="39.8305574" lon="9.4130914"><ele>591.0</ele><time>2026-04-06T11:57:50.003Z</time></trkpt><trkpt lat="39.8306458" lon="9.4132996"><ele>591.0</ele><time>2026-04-06T11:57:51.003Z</time></trkpt><trkpt lat="39.8307115" lon="9.4135135"><ele>591.0</ele><time>2026-04-06T11:57:52.004Z</time></trkpt><trkpt lat="39.8307777" lon="9.4137344"><ele>591.0</ele><time>2026-04-06T11:57:53.004Z</time></trkpt><trkpt lat="39.8308352" lon="9.4139689"><ele>595.6666666666666</ele><time>2026-04-06T11:57:54.004Z</time></trkpt><trkpt lat="39.8308652" lon="9.4142063"><ele>600.3333333333333</ele><time>2026-04-06T11:57:55.004Z</time></trkpt><trkpt lat="39.8308535" lon="9.4144297"><ele>605.0</ele><time>2026-04-06T11:57:56.003Z</time></trkpt><trkpt lat="39.8308551" lon="9.4146571"><ele>609.0</ele><time>2026-04-06T11:57:57.004Z</time></trkpt><trkpt lat="39.8308897" lon="9.4148743"><ele>613.0</ele><time>2026-04-06T11:57:58.004Z</time></trkpt><trkpt lat="39.8309396" lon="9.4150897"><ele>617.0</ele><time>2026-04-06T11:57:59.004Z</time></trkpt><trkpt lat="39.8309919" lon="9.4152917"><ele>615.25</ele><time>2026-04-06T11:58:00.004Z</time></trkpt><trkpt lat="39.8310534" lon="9.415474"><ele>613.5</ele><time>2026-04-06T11:58:01.004Z</time></trkpt><trkpt lat="39.8311282" lon="9.4156235"><ele>611.75</ele><time>2026-04-06T11:58:02.004Z</time></trkpt><trkpt lat="39.8312247" lon="9.4157462"><ele>610.0</ele><time>2026-04-06T11:58:03.004Z</time></trkpt><trkpt lat="39.8313387" lon="9.4158342"><ele>610.0</ele><time>2026-04-06T11:58:04.004Z</time></trkpt><trkpt lat="39.8314528" lon="9.4159292"><ele>610.0</ele><time>2026-04-06T11:58:05.004Z</time></trkpt><trkpt lat="39.8316129" lon="9.4159623"><ele>610.0</ele><time>2026-04-06T11:58:06.004Z</time></trkpt><trkpt lat="39.8317523" lon="9.4160327"><ele>610.0</ele><time>2026-04-06T11:58:07.003Z</time></trkpt><trkpt lat="39.8318729" lon="9.4161044"><ele>609.0</ele><time>2026-04-06T11:58:08.004Z</time></trkpt><trkpt lat="39.8320059" lon="9.416184"><ele>608.0</ele><time>2026-04-06T11:58:09.003Z</time></trkpt><trkpt lat="39.8321116" lon="9.4162674"><ele>607.0</ele><time>2026-04-06T11:58:10.003Z</time></trkpt><trkpt lat="39.8321944" lon="9.4164066"><ele>606.0</ele><time>2026-04-06T11:58:11.004Z</time></trkpt><trkpt lat="39.8320266" lon="9.4166323"><ele>606.0</ele><time>2026-04-06T11:58:12.004Z</time></trkpt><trkpt lat="39.8319943" lon="9.4168062"><ele>606.0</ele><time>2026-04-06T11:58:13.004Z</time></trkpt><trkpt lat="39.8319628" lon="9.4169848"><ele>606.0</ele><time>2026-04-06T11:58:14.004Z</time></trkpt><trkpt lat="39.8319448" lon="9.4171455"><ele>606.0</ele><time>2026-04-06T11:58:15.003Z</time></trkpt><trkpt lat="39.8319649" lon="9.4173001"><ele>608.75</ele><time>2026-04-06T11:58:16.004Z</time></trkpt><trkpt lat="39.8320053" lon="9.41746"><ele>611.5</ele><time>2026-04-06T11:58:17.004Z</time></trkpt><trkpt lat="39.8320991" lon="9.4176101"><ele>614.25</ele><time>2026-04-06T11:58:18.004Z</time></trkpt><trkpt lat="39.8322198" lon="9.4177324"><ele>617.0</ele><time>2026-04-06T11:58:19.004Z</time></trkpt><trkpt lat="39.8323431" lon="9.4178581"><ele>621.0</ele><time>2026-04-06T11:58:20.003Z</time></trkpt><trkpt lat="39.832455" lon="9.4180325"><ele>625.0</ele><time>2026-04-06T11:58:21.003Z</time></trkpt><trkpt lat="39.832537" lon="9.4182474"><ele>629.0</ele><time>2026-04-06T11:58:22.004Z</time></trkpt><trkpt lat="39.8326217" lon="9.4184774"><ele>624.6666666666666</ele><time>2026-04-06T11:58:23.004Z</time></trkpt><trkpt lat="39.8327101" lon="9.4187106"><ele>620.3333333333334</ele><time>2026-04-06T11:58:24.003Z</time></trkpt><trkpt lat="39.8327978" lon="9.4189491"><ele>616.0</ele><time>2026-04-06T11:58:25.004Z</time></trkpt><trkpt lat="39.8328872" lon="9.4191859"><ele>616.0</ele><time>2026-04-06T11:58:26.004Z</time></trkpt><trkpt lat="39.832966" lon="9.4194088"><ele>616.0</ele><time>2026-04-06T11:58:27.004Z</time></trkpt><trkpt lat="39.8330376" lon="9.4195889"><ele>616.0</ele><time>2026-04-06T11:58:28.004Z</time></trkpt><trkpt lat="39.8331203" lon="9.4197469"><ele>618.6666666666667</ele><time>2026-04-06T11:58:29.003Z</time></trkpt><trkpt lat="39.8332419" lon="9.4198757"><ele>621.3333333333334</ele><time>2026-04-06T11:58:30.004Z</time></trkpt><trkpt lat="39.8333969" lon="9.4199835"><ele>624.0</ele><time>2026-04-06T11:58:31.003Z</time></trkpt><trkpt lat="39.833543" lon="9.4200809"><ele>624.0</ele><time>2026-04-06T11:58:32.003Z</time></trkpt><trkpt lat="39.8336929" lon="9.4201638"><ele>624.0</ele><time>2026-04-06T11:58:33.003Z</time></trkpt><trkpt lat="39.8338366" lon="9.4202365"><ele>624.0</ele><time>2026-04-06T11:58:34.004Z</time></trkpt><trkpt lat="39.8339157" lon="9.4203362"><ele>624.0</ele><time>2026-04-06T11:58:35.004Z</time></trkpt><trkpt lat="39.8339758" lon="9.4204712"><ele>627.6666666666666</ele><time>2026-04-06T11:58:36.003Z</time></trkpt><trkpt lat="39.8339892" lon="9.4206552"><ele>631.3333333333333</ele><time>2026-04-06T11:58:37.004Z</time></trkpt><trkpt lat="39.8339985" lon="9.4208719"><ele>635.0</ele><time>2026-04-06T11:58:38.004Z</time></trkpt><trkpt lat="39.8340397" lon="9.4210987"><ele>638.3333333333333</ele><time>2026-04-06T11:58:39.004Z</time></trkpt><trkpt lat="39.8341004" lon="9.421325"><ele>641.6666666666666</ele><time>2026-04-06T11:58:40.004Z</time></trkpt><trkpt lat="39.8341633" lon="9.4215437"><ele>645.0</ele><time>2026-04-06T11:58:41.004Z</time></trkpt><trkpt lat="39.834217" lon="9.4217498"><ele>645.0</ele><time>2026-04-06T11:58:42.004Z</time></trkpt><trkpt lat="39.8342405" lon="9.4219484"><ele>645.0</ele><time>2026-04-06T11:58:43.004Z</time></trkpt><trkpt lat="39.8342174" lon="9.4221747"><ele>645.0</ele><time>2026-04-06T11:58:44.004Z</time></trkpt><trkpt lat="39.834169" lon="9.4224104"><ele>646.0</ele><time>2026-04-06T11:58:45.004Z</time></trkpt><trkpt lat="39.8341206" lon="9.422652"><ele>647.0</ele><time>2026-04-06T11:58:46.004Z</time></trkpt><trkpt lat="39.834076" lon="9.4228698"><ele>648.0</ele><time>2026-04-06T11:58:47.004Z</time></trkpt><trkpt lat="39.8340363" lon="9.423073"><ele>648.75</ele><time>2026-04-06T11:58:48.004Z</time></trkpt><trkpt lat="39.8340261" lon="9.4232572"><ele>649.5</ele><time>2026-04-06T11:58:49.004Z</time></trkpt><trkpt lat="39.8340409" lon="9.4234363"><ele>650.25</ele><time>2026-04-06T11:58:50.004Z</time></trkpt><trkpt lat="39.8340961" lon="9.423614"><ele>651.0</ele><time>2026-04-06T11:58:51.004Z</time></trkpt><trkpt lat="39.8341394" lon="9.4237909"><ele>651.5</ele><time>2026-04-06T11:58:52.003Z</time></trkpt><trkpt lat="39.8341521" lon="9.4239503"><ele>652.0</ele><time>2026-04-06T11:58:53.004Z</time></trkpt><trkpt lat="39.8341425" lon="9.4241121"><ele>652.5</ele><time>2026-04-06T11:58:54.003Z</time></trkpt><trkpt lat="39.8340392" lon="9.4242349"><ele>653.0</ele><time>2026-04-06T11:58:55.004Z</time></trkpt><trkpt lat="39.8339669" lon="9.4243633"><ele>653.0</ele><time>2026-04-06T11:58:56.004Z</time></trkpt><trkpt lat="39.8339179" lon="9.4245122"><ele>653.0</ele><time>2026-04-06T11:58:57.004Z</time></trkpt><trkpt lat="39.8338624" lon="9.4246733"><ele>653.0</ele><time>2026-04-06T11:58:58.004Z</time></trkpt><trkpt lat="39.8338994" lon="9.4248845"><ele>653.0</ele><time>2026-04-06T11:58:59.004Z</time></trkpt><trkpt lat="39.8338933" lon="9.4250652"><ele>655.6666666666666</ele><time>2026-04-06T11:59:00.004Z</time></trkpt><trkpt lat="39.8339803" lon="9.4252671"><ele>658.3333333333334</ele><time>2026-04-06T11:59:01.004Z</time></trkpt><trkpt lat="39.834061" lon="9.4254632"><ele>661.0</ele><time>2026-04-06T11:59:02.004Z</time></trkpt><trkpt lat="39.834148" lon="9.4256614"><ele>664.6666666666667</ele><time>2026-04-06T11:59:03.004Z</time></trkpt><trkpt lat="39.8342181" lon="9.4258766"><ele>668.3333333333334</ele><time>2026-04-06T11:59:04.004Z</time></trkpt><trkpt lat="39.8342577" lon="9.4261052"><ele>672.0</ele><time>2026-04-06T11:59:05.004Z</time></trkpt><trkpt lat="39.8342761" lon="9.4262923"><ele>673.75</ele><time>2026-04-06T11:59:06.004Z</time></trkpt><trkpt lat="39.8342962" lon="9.4264711"><ele>675.5</ele><time>2026-04-06T11:59:07.004Z</time></trkpt><trkpt lat="39.8343131" lon="9.4266397"><ele>677.25</ele><time>2026-04-06T11:59:08.003Z</time></trkpt><trkpt lat="39.8343112" lon="9.4268107"><ele>679.0</ele><time>2026-04-06T11:59:09.004Z</time></trkpt><trkpt lat="39.8342316" lon="9.4269555"><ele>679.0</ele><time>2026-04-06T11:59:10.003Z</time></trkpt><trkpt lat="39.8341805" lon="9.427109"><ele>679.0</ele><time>2026-04-06T11:59:11.004Z</time></trkpt><trkpt lat="39.834107" lon="9.4272628"><ele>679.0</ele><time>2026-04-06T11:59:12.003Z</time></trkpt><trkpt lat="39.8340043" lon="9.4274003"><ele>679.0</ele><time>2026-04-06T11:59:13.003Z</time></trkpt><trkpt lat="39.833904" lon="9.427564"><ele>678.3333333333334</ele><time>2026-04-06T11:59:14.004Z</time></trkpt><trkpt lat="39.8338027" lon="9.4277374"><ele>677.6666666666666</ele><time>2026-04-06T11:59:15.004Z</time></trkpt><trkpt lat="39.8337069" lon="9.427929"><ele>677.0</ele><time>2026-04-06T11:59:16.004Z</time></trkpt><trkpt lat="39.8336099" lon="9.4281285"><ele>675.6666666666666</ele><time>2026-04-06T11:59:17.003Z</time></trkpt><trkpt lat="39.8335135" lon="9.4283343"><ele>674.3333333333334</ele><time>2026-04-06T11:59:18.004Z</time></trkpt><trkpt lat="39.8334286" lon="9.4285495"><ele>673.0</ele><time>2026-04-06T11:59:19.004Z</time></trkpt><trkpt lat="39.8333606" lon="9.4287728"><ele>675.0</ele><time>2026-04-06T11:59:20.004Z</time></trkpt><trkpt lat="39.8332868" lon="9.4289852"><ele>677.0</ele><time>2026-04-06T11:59:21.004Z</time></trkpt><trkpt lat="39.8331982" lon="9.429179"><ele>679.0</ele><time>2026-04-06T11:59:22.003Z</time></trkpt><trkpt lat="39.8331093" lon="9.4293527"><ele>679.0</ele><time>2026-04-06T11:59:23.004Z</time></trkpt><trkpt lat="39.8330645" lon="9.4295411"><ele>679.0</ele><time>2026-04-06T11:59:24.003Z</time></trkpt><trkpt lat="39.8330387" lon="9.4297508"><ele>679.0</ele><time>2026-04-06T11:59:25.004Z</time></trkpt><trkpt lat="39.8329886" lon="9.4299557"><ele>679.25</ele><time>2026-04-06T11:59:26.003Z</time></trkpt><trkpt lat="39.8329189" lon="9.430129"><ele>679.5</ele><time>2026-04-06T11:59:27.004Z</time></trkpt><trkpt lat="39.8328677" lon="9.4302934"><ele>679.75</ele><time>2026-04-06T11:59:28.004Z</time></trkpt><trkpt lat="39.8328555" lon="9.4304836"><ele>680.0</ele><time>2026-04-06T11:59:29.003Z</time></trkpt><trkpt lat="39.83288" lon="9.4307024"><ele>680.0</ele><time>2026-04-06T11:59:30.004Z</time></trkpt><trkpt lat="39.8329068" lon="9.4309255"><ele>680.0</ele><time>2026-04-06T11:59:31.003Z</time></trkpt><trkpt lat="39.8329108" lon="9.4311645"><ele>680.0</ele><time>2026-04-06T11:59:32.003Z</time></trkpt><trkpt lat="39.8328868" lon="9.4314254"><ele>681.3333333333333</ele><time>2026-04-06T11:59:33.003Z</time></trkpt><trkpt lat="39.8328533" lon="9.4316799"><ele>682.6666666666666</ele><time>2026-04-06T11:59:34.004Z</time></trkpt><trkpt lat="39.8328264" lon="9.431906"><ele>684.0</ele><time>2026-04-06T11:59:35.003Z</time></trkpt><trkpt lat="39.8328127" lon="9.4321127"><ele>684.25</ele><time>2026-04-06T11:59:36.004Z</time></trkpt><trkpt lat="39.8328244" lon="9.4322982"><ele>684.5</ele><time>2026-04-06T11:59:37.004Z</time></trkpt><trkpt lat="39.8328495" lon="9.4324583"><ele>684.75</ele><time>2026-04-06T11:59:38.004Z</time></trkpt><trkpt lat="39.8328591" lon="9.4326234"><ele>685.0</ele><time>2026-04-06T11:59:39.004Z</time></trkpt><trkpt lat="39.8328253" lon="9.4327948"><ele>685.0</ele><time>2026-04-06T11:59:40.004Z</time></trkpt><trkpt lat="39.8327509" lon="9.4329511"><ele>685.0</ele><time>2026-04-06T11:59:41.003Z</time></trkpt><trkpt lat="39.8326617" lon="9.433108"><ele>685.0</ele><time>2026-04-06T11:59:42.003Z</time></trkpt><trkpt lat="39.8325645" lon="9.4332637"><ele>685.0</ele><time>2026-04-06T11:59:43.004Z</time></trkpt><trkpt lat="39.8324815" lon="9.4334182"><ele>687.25</ele><time>2026-04-06T11:59:44.004Z</time></trkpt><trkpt lat="39.8324083" lon="9.4335764"><ele>689.5</ele><time>2026-04-06T11:59:45.003Z</time></trkpt><trkpt lat="39.8323405" lon="9.4337445"><ele>691.75</ele><time>2026-04-06T11:59:46.004Z</time></trkpt><trkpt lat="39.8322938" lon="9.4339193"><ele>694.0</ele><time>2026-04-06T11:59:47.004Z</time></trkpt><trkpt lat="39.8322513" lon="9.4341033"><ele>694.0</ele><time>2026-04-06T11:59:48.004Z</time></trkpt><trkpt lat="39.83226" lon="9.4342721"><ele>694.0</ele><time>2026-04-06T11:59:49.004Z</time></trkpt><trkpt lat="39.8322317" lon="9.4344521"><ele>694.0</ele><time>2026-04-06T11:59:50.004Z</time></trkpt><trkpt lat="39.8321185" lon="9.4345516"><ele>694.0</ele><time>2026-04-06T11:59:51.004Z</time></trkpt><trkpt lat="39.8320575" lon="9.4346757"><ele>693.25</ele><time>2026-04-06T11:59:52.004Z</time></trkpt><trkpt lat="39.8320209" lon="9.4348486"><ele>692.5</ele><time>2026-04-06T11:59:53.004Z</time></trkpt><trkpt lat="39.8320161" lon="9.4350112"><ele>691.75</ele><time>2026-04-06T11:59:54.003Z</time></trkpt><trkpt lat="39.8320119" lon="9.4351905"><ele>691.0</ele><time>2026-04-06T11:59:55.003Z</time></trkpt><trkpt lat="39.8320428" lon="9.435389"><ele>692.3333333333334</ele><time>2026-04-06T11:59:56.004Z</time></trkpt><trkpt lat="39.832064" lon="9.4355833"><ele>693.6666666666666</ele><time>2026-04-06T11:59:57.003Z</time></trkpt><trkpt lat="39.8320875" lon="9.4358019"><ele>695.0</ele><time>2026-04-06T11:59:58.004Z</time></trkpt><trkpt lat="39.8321134" lon="9.4359917"><ele>695.0</ele><time>2026-04-06T11:59:59.004Z</time></trkpt><trkpt lat="39.8321373" lon="9.4361763"><ele>695.0</ele><time>2026-04-06T12:00:00.003Z</time></trkpt><trkpt lat="39.8321525" lon="9.4363531"><ele>695.0</ele><time>2026-04-06T12:00:01.003Z</time></trkpt><trkpt lat="39.8321632" lon="9.4365338"><ele>695.0</ele><time>2026-04-06T12:00:02.004Z</time></trkpt><trkpt lat="39.8321606" lon="9.4367222"><ele>695.0</ele><time>2026-04-06T12:00:03.004Z</time></trkpt><trkpt lat="39.8321551" lon="9.4369087"><ele>695.0</ele><time>2026-04-06T12:00:04.004Z</time></trkpt><trkpt lat="39.832142" lon="9.4370987"><ele>695.0</ele><time>2026-04-06T12:00:05.004Z</time></trkpt><trkpt lat="39.8321344" lon="9.437289"><ele>695.0</ele><time>2026-04-06T12:00:06.003Z</time></trkpt><trkpt lat="39.8321232" lon="9.4374783"><ele>695.0</ele><time>2026-04-06T12:00:07.004Z</time></trkpt><trkpt lat="39.8321118" lon="9.4376693"><ele>695.0</ele><time>2026-04-06T12:00:08.003Z</time></trkpt><trkpt lat="39.8320924" lon="9.4378544"><ele>695.0</ele><time>2026-04-06T12:00:09.004Z</time></trkpt><trkpt lat="39.8320665" lon="9.4380319"><ele>695.0</ele><time>2026-04-06T12:00:10.004Z</time></trkpt><trkpt lat="39.8320469" lon="9.4382048"><ele>696.25</ele><time>2026-04-06T12:00:11.004Z</time></trkpt><trkpt lat="39.8320509" lon="9.4383701"><ele>697.5</ele><time>2026-04-06T12:00:12.004Z</time></trkpt><trkpt lat="39.8320725" lon="9.4385232"><ele>698.75</ele><time>2026-04-06T12:00:13.004Z</time></trkpt><trkpt lat="39.832102" lon="9.4386779"><ele>700.0</ele><time>2026-04-06T12:00:14.004Z</time></trkpt><trkpt lat="39.8321622" lon="9.438813"><ele>702.75</ele><time>2026-04-06T12:00:15.003Z</time></trkpt><trkpt lat="39.8322336" lon="9.4389453"><ele>705.5</ele><time>2026-04-06T12:00:16.004Z</time></trkpt><trkpt lat="39.8323109" lon="9.4390762"><ele>708.25</ele><time>2026-04-06T12:00:17.003Z</time></trkpt><trkpt lat="39.8323926" lon="9.4392124"><ele>711.0</ele><time>2026-04-06T12:00:18.003Z</time></trkpt><trkpt lat="39.8324769" lon="9.4393461"><ele>711.0</ele><time>2026-04-06T12:00:19.004Z</time></trkpt><trkpt lat="39.8325679" lon="9.4394854"><ele>711.0</ele><time>2026-04-06T12:00:20.004Z</time></trkpt><trkpt lat="39.8326571" lon="9.4396286"><ele>711.0</ele><time>2026-04-06T12:00:21.004Z</time></trkpt><trkpt lat="39.832748" lon="9.4397778"><ele>711.0</ele><time>2026-04-06T12:00:22.004Z</time></trkpt><trkpt lat="39.8328504" lon="9.4399075"><ele>711.75</ele><time>2026-04-06T12:00:23.004Z</time></trkpt><trkpt lat="39.8329627" lon="9.4400207"><ele>712.5</ele><time>2026-04-06T12:00:24.003Z</time></trkpt><trkpt lat="39.8330678" lon="9.4401219"><ele>713.25</ele><time>2026-04-06T12:00:25.003Z</time></trkpt><trkpt lat="39.8331637" lon="9.4402451"><ele>714.0</ele><time>2026-04-06T12:00:26.004Z</time></trkpt><trkpt lat="39.8332226" lon="9.4403824"><ele>714.75</ele><time>2026-04-06T12:00:27.003Z</time></trkpt><trkpt lat="39.8332358" lon="9.4405695"><ele>715.5</ele><time>2026-04-06T12:00:28.004Z</time></trkpt><trkpt lat="39.8332634" lon="9.440739"><ele>716.25</ele><time>2026-04-06T12:00:29.004Z</time></trkpt><trkpt lat="39.8332907" lon="9.4409184"><ele>717.0</ele><time>2026-04-06T12:00:30.004Z</time></trkpt><trkpt lat="39.8333195" lon="9.4410971"><ele>717.0</ele><time>2026-04-06T12:00:31.003Z</time></trkpt><trkpt lat="39.8333554" lon="9.4412676"><ele>717.0</ele><time>2026-04-06T12:00:32.004Z</time></trkpt><trkpt lat="39.833435" lon="9.4414211"><ele>717.0</ele><time>2026-04-06T12:00:33.004Z</time></trkpt><trkpt lat="39.8335189" lon="9.4415453"><ele>717.0</ele><time>2026-04-06T12:00:34.004Z</time></trkpt><trkpt lat="39.8336075" lon="9.4416497"><ele>717.8333333333334</ele><time>2026-04-06T12:00:35.004Z</time></trkpt><trkpt lat="39.8336843" lon="9.4417324"><ele>718.6666666666666</ele><time>2026-04-06T12:00:36.004Z</time></trkpt><trkpt lat="39.8337666" lon="9.4417748"><ele>719.5</ele><time>2026-04-06T12:00:37.004Z</time></trkpt><trkpt lat="39.833835" lon="9.4417906"><ele>720.3333333333333</ele><time>2026-04-06T12:00:38.004Z</time></trkpt><trkpt lat="39.8338984" lon="9.4417729"><ele>721.1666666666666</ele><time>2026-04-06T12:00:39.004Z</time></trkpt><trkpt lat="39.8339661" lon="9.4417509"><ele>722.0</ele><time>2026-04-06T12:00:40.003Z</time></trkpt><trkpt lat="39.8340467" lon="9.4417259"><ele>722.0</ele><time>2026-04-06T12:00:41.003Z</time></trkpt><trkpt lat="39.8341345" lon="9.4417271"><ele>722.0</ele><time>2026-04-06T12:00:42.004Z</time></trkpt><trkpt lat="39.8342337" lon="9.4417613"><ele>722.0</ele><time>2026-04-06T12:00:43.004Z</time></trkpt><trkpt lat="39.8343394" lon="9.441805"><ele>722.0</ele><time>2026-04-06T12:00:44.004Z</time></trkpt><trkpt lat="39.8344405" lon="9.4419524"><ele>723.75</ele><time>2026-04-06T12:00:45.003Z</time></trkpt><trkpt lat="39.834544" lon="9.442079"><ele>725.5</ele><time>2026-04-06T12:00:46.003Z</time></trkpt><trkpt lat="39.834625" lon="9.4422411"><ele>727.25</ele><time>2026-04-06T12:00:47.004Z</time></trkpt><trkpt lat="39.8346829" lon="9.4424073"><ele>729.0</ele><time>2026-04-06T12:00:48.003Z</time></trkpt><trkpt lat="39.8347184" lon="9.4425751"><ele>729.0</ele><time>2026-04-06T12:00:49.004Z</time></trkpt><trkpt lat="39.8347267" lon="9.4427817"><ele>729.0</ele><time>2026-04-06T12:00:50.004Z</time></trkpt><trkpt lat="39.8347308" lon="9.4429841"><ele>729.0</ele><time>2026-04-06T12:00:51.004Z</time></trkpt><trkpt lat="39.8347285" lon="9.4432059"><ele>729.3333333333334</ele><time>2026-04-06T12:00:52.003Z</time></trkpt><trkpt lat="39.8347244" lon="9.4434408"><ele>729.6666666666667</ele><time>2026-04-06T12:00:53.004Z</time></trkpt><trkpt lat="39.8347261" lon="9.4436885"><ele>730.0</ele><time>2026-04-06T12:00:54.004Z</time></trkpt><trkpt lat="39.8347335" lon="9.4439304"><ele>731.3333333333334</ele><time>2026-04-06T12:00:55.004Z</time></trkpt><trkpt lat="39.8347425" lon="9.44415"><ele>732.6666666666666</ele><time>2026-04-06T12:00:56.003Z</time></trkpt><trkpt lat="39.834753" lon="9.4443457"><ele>734.0</ele><time>2026-04-06T12:00:57.004Z</time></trkpt><trkpt lat="39.834809" lon="9.4445161"><ele>733.0</ele><time>2026-04-06T12:00:58.003Z</time></trkpt><trkpt lat="39.834873" lon="9.4446672"><ele>732.0</ele><time>2026-04-06T12:00:59.003Z</time></trkpt><trkpt lat="39.8349572" lon="9.4448047"><ele>731.0</ele><time>2026-04-06T12:01:00.004Z</time></trkpt><trkpt lat="39.8350527" lon="9.4449693"><ele>730.0</ele><time>2026-04-06T12:01:01.004Z</time></trkpt><trkpt lat="39.8351481" lon="9.4451484"><ele>735.0</ele><time>2026-04-06T12:01:02.004Z</time></trkpt><trkpt lat="39.8352402" lon="9.4453565"><ele>740.0</ele><time>2026-04-06T12:01:03.003Z</time></trkpt><trkpt lat="39.8353376" lon="9.4455798"><ele>745.0</ele><time>2026-04-06T12:01:04.004Z</time></trkpt><trkpt lat="39.8354356" lon="9.4458112"><ele>745.0</ele><time>2026-04-06T12:01:05.004Z</time></trkpt><trkpt lat="39.8355358" lon="9.4460398"><ele>745.0</ele><time>2026-04-06T12:01:06.004Z</time></trkpt><trkpt lat="39.8356453" lon="9.4462403"><ele>745.0</ele><time>2026-04-06T12:01:07.003Z</time></trkpt><trkpt lat="39.8357331" lon="9.4464387"><ele>742.3333333333334</ele><time>2026-04-06T12:01:08.004Z</time></trkpt><trkpt lat="39.8357813" lon="9.4466608"><ele>739.6666666666666</ele><time>2026-04-06T12:01:09.003Z</time></trkpt><trkpt lat="39.8358125" lon="9.4468506"><ele>737.0</ele><time>2026-04-06T12:01:10.004Z</time></trkpt><trkpt lat="39.8358882" lon="9.4470376"><ele>742.0</ele><time>2026-04-06T12:01:11.004Z</time></trkpt><trkpt lat="39.8360045" lon="9.4472132"><ele>747.0</ele><time>2026-04-06T12:01:12.004Z</time></trkpt><trkpt lat="39.8361369" lon="9.4473854"><ele>752.0</ele><time>2026-04-06T12:01:13.003Z</time></trkpt><trkpt lat="39.8362683" lon="9.4475782"><ele>752.0</ele><time>2026-04-06T12:01:14.004Z</time></trkpt><trkpt lat="39.8363983" lon="9.4478486"><ele>752.0</ele><time>2026-04-06T12:01:15.004Z</time></trkpt><trkpt lat="39.8365213" lon="9.4481088"><ele>747.0</ele><time>2026-04-06T12:01:16.004Z</time></trkpt><trkpt lat="39.836648" lon="9.4483813"><ele>742.0</ele><time>2026-04-06T12:01:17.004Z</time></trkpt><trkpt lat="39.8367693" lon="9.4486455"><ele>751.5</ele><time>2026-04-06T12:01:18.004Z</time></trkpt><trkpt lat="39.8368914" lon="9.4489074"><ele>761.0</ele><time>2026-04-06T12:01:19.004Z</time></trkpt><trkpt lat="39.8370151" lon="9.449162"><ele>761.0</ele><time>2026-04-06T12:01:20.003Z</time></trkpt><trkpt lat="39.8371387" lon="9.4494031"><ele>761.0</ele><time>2026-04-06T12:01:21.004Z</time></trkpt><trkpt lat="39.8372584" lon="9.4496267"><ele>761.0</ele><time>2026-04-06T12:01:22.003Z</time></trkpt><trkpt lat="39.8373695" lon="9.4498319"><ele>762.0</ele><time>2026-04-06T12:01:23.004Z</time></trkpt><trkpt lat="39.837475" lon="9.4500226"><ele>763.0</ele><time>2026-04-06T12:01:24.004Z</time></trkpt><trkpt lat="39.8375928" lon="9.4501876"><ele>764.0</ele><time>2026-04-06T12:01:25.004Z</time></trkpt><trkpt lat="39.8377286" lon="9.4503232"><ele>764.0</ele><time>2026-04-06T12:01:26.004Z</time></trkpt><trkpt lat="39.8378923" lon="9.4504358"><ele>764.0</ele><time>2026-04-06T12:01:27.004Z</time></trkpt><trkpt lat="39.8380761" lon="9.4505303"><ele>764.0</ele><time>2026-04-06T12:01:28.004Z</time></trkpt><trkpt lat="39.8382626" lon="9.4506207"><ele>762.6666666666666</ele><time>2026-04-06T12:01:29.004Z</time></trkpt><trkpt lat="39.8384464" lon="9.4507095"><ele>761.3333333333334</ele><time>2026-04-06T12:01:30.004Z</time></trkpt><trkpt lat="39.8386098" lon="9.4508091"><ele>760.0</ele><time>2026-04-06T12:01:31.004Z</time></trkpt><trkpt lat="39.8387622" lon="9.4509304"><ele>760.0</ele><time>2026-04-06T12:01:32.004Z</time></trkpt><trkpt lat="39.8388905" lon="9.4510844"><ele>760.0</ele><time>2026-04-06T12:01:33.004Z</time></trkpt><trkpt lat="39.8389966" lon="9.4512419"><ele>760.0</ele><time>2026-04-06T12:01:34.004Z</time></trkpt><trkpt lat="39.8390947" lon="9.4513824"><ele>758.25</ele><time>2026-04-06T12:01:35.003Z</time></trkpt><trkpt lat="39.8392015" lon="9.451507"><ele>756.5</ele><time>2026-04-06T12:01:36.003Z</time></trkpt><trkpt lat="39.8393258" lon="9.4515824"><ele>754.75</ele><time>2026-04-06T12:01:37.003Z</time></trkpt><trkpt lat="39.8394785" lon="9.451599"><ele>753.0</ele><time>2026-04-06T12:01:38.003Z</time></trkpt><trkpt lat="39.8396394" lon="9.4515801"><ele>753.0</ele><time>2026-04-06T12:01:39.003Z</time></trkpt><trkpt lat="39.8397917" lon="9.4515708"><ele>753.0</ele><time>2026-04-06T12:01:40.004Z</time></trkpt><trkpt lat="39.8399606" lon="9.4515816"><ele>753.0</ele><time>2026-04-06T12:01:41.004Z</time></trkpt><trkpt lat="39.8401348" lon="9.451646"><ele>756.0</ele><time>2026-04-06T12:01:42.004Z</time></trkpt><trkpt lat="39.8402997" lon="9.4517572"><ele>759.0</ele><time>2026-04-06T12:01:43.004Z</time></trkpt><trkpt lat="39.8404657" lon="9.4518892"><ele>762.0</ele><time>2026-04-06T12:01:44.004Z</time></trkpt><trkpt lat="39.8406318" lon="9.4520361"><ele>762.3333333333334</ele><time>2026-04-06T12:01:45.004Z</time></trkpt><trkpt lat="39.8408011" lon="9.4521905"><ele>762.6666666666667</ele><time>2026-04-06T12:01:46.004Z</time></trkpt><trkpt lat="39.8409811" lon="9.4523347"><ele>763.0</ele><time>2026-04-06T12:01:47.004Z</time></trkpt><trkpt lat="39.8411745" lon="9.4524591"><ele>763.0</ele><time>2026-04-06T12:01:48.003Z</time></trkpt><trkpt lat="39.84137" lon="9.45258"><ele>763.0</ele><time>2026-04-06T12:01:49.004Z</time></trkpt><trkpt lat="39.8415565" lon="9.4527093"><ele>763.0</ele><time>2026-04-06T12:01:50.004Z</time></trkpt><trkpt lat="39.8417423" lon="9.4528554"><ele>764.0</ele><time>2026-04-06T12:01:51.004Z</time></trkpt><trkpt lat="39.8419224" lon="9.4530155"><ele>765.0</ele><time>2026-04-06T12:01:52.004Z</time></trkpt><trkpt lat="39.8420982" lon="9.4531874"><ele>766.0</ele><time>2026-04-06T12:01:53.004Z</time></trkpt><trkpt lat="39.842268" lon="9.4533551"><ele>766.0</ele><time>2026-04-06T12:01:54.004Z</time></trkpt><trkpt lat="39.8424273" lon="9.4535134"><ele>766.0</ele><time>2026-04-06T12:01:55.004Z</time></trkpt><trkpt lat="39.8425977" lon="9.4536416"><ele>766.0</ele><time>2026-04-06T12:01:56.003Z</time></trkpt><trkpt lat="39.8427761" lon="9.4537366"><ele>763.6666666666667</ele><time>2026-04-06T12:01:57.004Z</time></trkpt><trkpt lat="39.8429587" lon="9.4538123"><ele>761.3333333333334</ele><time>2026-04-06T12:01:58.004Z</time></trkpt><trkpt lat="39.8431401" lon="9.453913"><ele>759.0</ele><time>2026-04-06T12:01:59.004Z</time></trkpt><trkpt lat="39.8433105" lon="9.4540537"><ele>765.0</ele><time>2026-04-06T12:02:00.003Z</time></trkpt><trkpt lat="39.8434735" lon="9.4542199"><ele>771.0</ele><time>2026-04-06T12:02:01.004Z</time></trkpt><trkpt lat="39.8436483" lon="9.4543914"><ele>777.0</ele><time>2026-04-06T12:02:02.004Z</time></trkpt><trkpt lat="39.8438314" lon="9.4545459"><ele>780.3333333333333</ele><time>2026-04-06T12:02:03.004Z</time></trkpt><trkpt lat="39.8440051" lon="9.4547079"><ele>783.6666666666666</ele><time>2026-04-06T12:02:04.003Z</time></trkpt><trkpt lat="39.8441755" lon="9.4548632"><ele>787.0</ele><time>2026-04-06T12:02:05.003Z</time></trkpt><trkpt lat="39.8443523" lon="9.4550024"><ele>787.0</ele><time>2026-04-06T12:02:06.004Z</time></trkpt><trkpt lat="39.8445389" lon="9.4551139"><ele>787.0</ele><time>2026-04-06T12:02:07.003Z</time></trkpt><trkpt lat="39.8447215" lon="9.4552414"><ele>787.0</ele><time>2026-04-06T12:02:08.003Z</time></trkpt><trkpt lat="39.8448862" lon="9.4554123"><ele>785.0</ele><time>2026-04-06T12:02:09.004Z</time></trkpt><trkpt lat="39.8450479" lon="9.4555746"><ele>783.0</ele><time>2026-04-06T12:02:10.004Z</time></trkpt><trkpt lat="39.845228" lon="9.4557007"><ele>781.0</ele><time>2026-04-06T12:02:11.004Z</time></trkpt><trkpt lat="39.8453995" lon="9.4558274"><ele>781.0</ele><time>2026-04-06T12:02:12.004Z</time></trkpt><trkpt lat="39.8455167" lon="9.4559833"><ele>781.0</ele><time>2026-04-06T12:02:13.004Z</time></trkpt><trkpt lat="39.8456272" lon="9.4561372"><ele>781.0</ele><time>2026-04-06T12:02:14.004Z</time></trkpt><trkpt lat="39.8457595" lon="9.4562615"><ele>779.3333333333333</ele><time>2026-04-06T12:02:15.004Z</time></trkpt><trkpt lat="39.8459178" lon="9.4563517"><ele>777.6666666666667</ele><time>2026-04-06T12:02:16.003Z</time></trkpt><trkpt lat="39.8460863" lon="9.456423"><ele>776.0</ele><time>2026-04-06T12:02:17.003Z</time></trkpt><trkpt lat="39.8462641" lon="9.456493"><ele>776.0</ele><time>2026-04-06T12:02:18.004Z</time></trkpt><trkpt lat="39.8464229" lon="9.456551"><ele>776.0</ele><time>2026-04-06T12:02:19.004Z</time></trkpt><trkpt lat="39.8465591" lon="9.4566088"><ele>776.0</ele><time>2026-04-06T12:02:20.003Z</time></trkpt><trkpt lat="39.8466836" lon="9.4566936"><ele>776.0</ele><time>2026-04-06T12:02:21.003Z</time></trkpt><trkpt lat="39.8467791" lon="9.4568212"><ele>776.0</ele><time>2026-04-06T12:02:22.003Z</time></trkpt><trkpt lat="39.8468376" lon="9.4569505"><ele>776.0</ele><time>2026-04-06T12:02:23.004Z</time></trkpt><trkpt lat="39.8469149" lon="9.4570715"><ele>776.0</ele><time>2026-04-06T12:02:24.004Z</time></trkpt><trkpt lat="39.8470408" lon="9.4571573"><ele>776.0</ele><time>2026-04-06T12:02:25.004Z</time></trkpt><trkpt lat="39.8472046" lon="9.457204"><ele>776.0</ele><time>2026-04-06T12:02:26.003Z</time></trkpt><trkpt lat="39.8473752" lon="9.4572386"><ele>776.0</ele><time>2026-04-06T12:02:27.004Z</time></trkpt><trkpt lat="39.8475532" lon="9.4572933"><ele>776.0</ele><time>2026-04-06T12:02:28.004Z</time></trkpt><trkpt lat="39.8477113" lon="9.4573922"><ele>781.0</ele><time>2026-04-06T12:02:29.004Z</time></trkpt><trkpt lat="39.8478456" lon="9.4575479"><ele>786.0</ele><time>2026-04-06T12:02:30.004Z</time></trkpt><trkpt lat="39.8479705" lon="9.4577265"><ele>791.0</ele><time>2026-04-06T12:02:31.003Z</time></trkpt><trkpt lat="39.8480996" lon="9.4579098"><ele>789.3333333333334</ele><time>2026-04-06T12:02:32.004Z</time></trkpt><trkpt lat="39.8482366" lon="9.4581005"><ele>787.6666666666667</ele><time>2026-04-06T12:02:33.004Z</time></trkpt><trkpt lat="39.8483906" lon="9.4582673"><ele>786.0</ele><time>2026-04-06T12:02:34.004Z</time></trkpt><trkpt lat="39.8485617" lon="9.4584193"><ele>786.0</ele><time>2026-04-06T12:02:35.004Z</time></trkpt><trkpt lat="39.8487457" lon="9.4585659"><ele>786.0</ele><time>2026-04-06T12:02:36.004Z</time></trkpt><trkpt lat="39.8489264" lon="9.4586953"><ele>786.0</ele><time>2026-04-06T12:02:37.004Z</time></trkpt><trkpt lat="39.8490967" lon="9.4588184"><ele>785.0</ele><time>2026-04-06T12:02:38.004Z</time></trkpt><trkpt lat="39.8492543" lon="9.4589394"><ele>784.0</ele><time>2026-04-06T12:02:39.004Z</time></trkpt><trkpt lat="39.8494046" lon="9.4590514"><ele>783.0</ele><time>2026-04-06T12:02:40.004Z</time></trkpt><trkpt lat="39.8495595" lon="9.4591597"><ele>783.0</ele><time>2026-04-06T12:02:41.004Z</time></trkpt><trkpt lat="39.8497207" lon="9.4592631"><ele>783.0</ele><time>2026-04-06T12:02:42.004Z</time></trkpt><trkpt lat="39.8498861" lon="9.4593602"><ele>783.0</ele><time>2026-04-06T12:02:43.003Z</time></trkpt><trkpt lat="39.8500589" lon="9.4594487"><ele>782.0</ele><time>2026-04-06T12:02:44.004Z</time></trkpt><trkpt lat="39.8502384" lon="9.4595277"><ele>781.0</ele><time>2026-04-06T12:02:45.004Z</time></trkpt><trkpt lat="39.8504191" lon="9.4596139"><ele>780.0</ele><time>2026-04-06T12:02:46.004Z</time></trkpt><trkpt lat="39.8505989" lon="9.4597073"><ele>780.0</ele><time>2026-04-06T12:02:47.004Z</time></trkpt><trkpt lat="39.8507799" lon="9.4598076"><ele>780.0</ele><time>2026-04-06T12:02:48.004Z</time></trkpt><trkpt lat="39.8509542" lon="9.459934"><ele>780.0</ele><time>2026-04-06T12:02:49.004Z</time></trkpt><trkpt lat="39.8511247" lon="9.4600843"><ele>779.0</ele><time>2026-04-06T12:02:50.004Z</time></trkpt><trkpt lat="39.8512937" lon="9.4602384"><ele>778.0</ele><time>2026-04-06T12:02:51.004Z</time></trkpt><trkpt lat="39.8514703" lon="9.460397"><ele>777.0</ele><time>2026-04-06T12:02:52.004Z</time></trkpt><trkpt lat="39.8516442" lon="9.4605668"><ele>779.0</ele><time>2026-04-06T12:02:53.003Z</time></trkpt><trkpt lat="39.8518206" lon="9.460736"><ele>781.0</ele><time>2026-04-06T12:02:54.004Z</time></trkpt><trkpt lat="39.8520006" lon="9.4609056"><ele>783.0</ele><time>2026-04-06T12:02:55.003Z</time></trkpt><trkpt lat="39.8521829" lon="9.4610729"><ele>783.0</ele><time>2026-04-06T12:02:56.003Z</time></trkpt><trkpt lat="39.8523632" lon="9.4612539"><ele>783.0</ele><time>2026-04-06T12:02:57.004Z</time></trkpt><trkpt lat="39.852546" lon="9.4614294"><ele>783.0</ele><time>2026-04-06T12:02:58.004Z</time></trkpt><trkpt lat="39.8527132" lon="9.4615863"><ele>783.0</ele><time>2026-04-06T12:02:59.004Z</time></trkpt><trkpt lat="39.8528681" lon="9.4617339"><ele>783.0</ele><time>2026-04-06T12:03:00.004Z</time></trkpt><trkpt lat="39.8530177" lon="9.4618751"><ele>783.0</ele><time>2026-04-06T12:03:01.004Z</time></trkpt><trkpt lat="39.8531574" lon="9.4620086"><ele>783.0</ele><time>2026-04-06T12:03:02.004Z</time></trkpt><trkpt lat="39.8533024" lon="9.4621269"><ele>783.0</ele><time>2026-04-06T12:03:03.004Z</time></trkpt><trkpt lat="39.8534504" lon="9.462243"><ele>783.6666666666667</ele><time>2026-04-06T12:03:04.003Z</time></trkpt><trkpt lat="39.8535997" lon="9.4623577"><ele>784.3333333333334</ele><time>2026-04-06T12:03:05.003Z</time></trkpt><trkpt lat="39.8537432" lon="9.4624659"><ele>785.0</ele><time>2026-04-06T12:03:06.003Z</time></trkpt><trkpt lat="39.8538778" lon="9.4625657"><ele>785.0</ele><time>2026-04-06T12:03:07.004Z</time></trkpt><trkpt lat="39.8540045" lon="9.4626573"><ele>785.0</ele><time>2026-04-06T12:03:08.003Z</time></trkpt><trkpt lat="39.8541264" lon="9.46274"><ele>785.0</ele><time>2026-04-06T12:03:09.004Z</time></trkpt><trkpt lat="39.8542363" lon="9.4628161"><ele>785.0</ele><time>2026-04-06T12:03:10.003Z</time></trkpt><trkpt lat="39.8543375" lon="9.4628894"><ele>784.2</ele><time>2026-04-06T12:03:11.004Z</time></trkpt><trkpt lat="39.8544351" lon="9.4629641"><ele>783.4</ele><time>2026-04-06T12:03:12.003Z</time></trkpt><trkpt lat="39.8545306" lon="9.4630298"><ele>782.5999999999999</ele><time>2026-04-06T12:03:13.004Z</time></trkpt><trkpt lat="39.8546289" lon="9.4631023"><ele>781.8</ele><time>2026-04-06T12:03:14.003Z</time></trkpt><trkpt lat="39.8547281" lon="9.4631728"><ele>781.0</ele><time>2026-04-06T12:03:15.004Z</time></trkpt><trkpt lat="39.854833" lon="9.4632442"><ele>781.0</ele><time>2026-04-06T12:03:16.004Z</time></trkpt><trkpt lat="39.8549293" lon="9.4633125"><ele>781.0</ele><time>2026-04-06T12:03:17.003Z</time></trkpt><trkpt lat="39.8550223" lon="9.4633905"><ele>781.0</ele><time>2026-04-06T12:03:18.003Z</time></trkpt><trkpt lat="39.8551155" lon="9.4634592"><ele>781.0</ele><time>2026-04-06T12:03:19.004Z</time></trkpt><trkpt lat="39.85521" lon="9.4635241"><ele>781.0</ele><time>2026-04-06T12:03:20.004Z</time></trkpt><trkpt lat="39.8553052" lon="9.4635906"><ele>782.5</ele><time>2026-04-06T12:03:21.003Z</time></trkpt><trkpt lat="39.8554053" lon="9.4636603"><ele>784.0</ele><time>2026-04-06T12:03:22.004Z</time></trkpt><trkpt lat="39.8555008" lon="9.4637322"><ele>785.5</ele><time>2026-04-06T12:03:23.004Z</time></trkpt><trkpt lat="39.8555925" lon="9.4638069"><ele>787.0</ele><time>2026-04-06T12:03:24.004Z</time></trkpt><trkpt lat="39.8556993" lon="9.4638787"><ele>787.0</ele><time>2026-04-06T12:03:25.004Z</time></trkpt><trkpt lat="39.855791" lon="9.4639528"><ele>787.0</ele><time>2026-04-06T12:03:26.004Z</time></trkpt><trkpt lat="39.8558929" lon="9.464025"><ele>787.0</ele><time>2026-04-06T12:03:27.003Z</time></trkpt><trkpt lat="39.8560017" lon="9.4640975"><ele>787.0</ele><time>2026-04-06T12:03:28.003Z</time></trkpt><trkpt lat="39.8561006" lon="9.464166"><ele>786.5</ele><time>2026-04-06T12:03:29.004Z</time></trkpt><trkpt lat="39.8561987" lon="9.4642405"><ele>786.0</ele><time>2026-04-06T12:03:30.003Z</time></trkpt><trkpt lat="39.8563036" lon="9.4643163"><ele>785.5</ele><time>2026-04-06T12:03:31.004Z</time></trkpt><trkpt lat="39.8564042" lon="9.464394"><ele>785.0</ele><time>2026-04-06T12:03:32.004Z</time></trkpt><trkpt lat="39.8565121" lon="9.4644641"><ele>785.0</ele><time>2026-04-06T12:03:33.003Z</time></trkpt><trkpt lat="39.8566127" lon="9.4645389"><ele>785.0</ele><time>2026-04-06T12:03:34.004Z</time></trkpt><trkpt lat="39.8567136" lon="9.4646088"><ele>785.0</ele><time>2026-04-06T12:03:35.004Z</time></trkpt><trkpt lat="39.8568207" lon="9.4646797"><ele>785.0</ele><time>2026-04-06T12:03:36.003Z</time></trkpt><trkpt lat="39.8569255" lon="9.4647612"><ele>786.75</ele><time>2026-04-06T12:03:37.004Z</time></trkpt><trkpt lat="39.8570262" lon="9.4648365"><ele>788.5</ele><time>2026-04-06T12:03:38.003Z</time></trkpt><trkpt lat="39.8571309" lon="9.4649084"><ele>790.25</ele><time>2026-04-06T12:03:39.004Z</time></trkpt><trkpt lat="39.8572323" lon="9.4649815"><ele>792.0</ele><time>2026-04-06T12:03:40.004Z</time></trkpt><trkpt lat="39.8573327" lon="9.4650394"><ele>792.0</ele><time>2026-04-06T12:03:41.004Z</time></trkpt><trkpt lat="39.8574433" lon="9.4650946"><ele>792.0</ele><time>2026-04-06T12:03:42.003Z</time></trkpt><trkpt lat="39.8575548" lon="9.4651539"><ele>792.0</ele><time>2026-04-06T12:03:43.003Z</time></trkpt><trkpt lat="39.8576747" lon="9.4652099"><ele>792.0</ele><time>2026-04-06T12:03:44.004Z</time></trkpt><trkpt lat="39.8577916" lon="9.4652715"><ele>791.75</ele><time>2026-04-06T12:03:45.003Z</time></trkpt><trkpt lat="39.8579122" lon="9.4653411"><ele>791.5</ele><time>2026-04-06T12:03:46.003Z</time></trkpt><trkpt lat="39.858024" lon="9.4654088"><ele>791.25</ele><time>2026-04-06T12:03:47.004Z</time></trkpt><trkpt lat="39.8581343" lon="9.4654702"><ele>791.0</ele><time>2026-04-06T12:03:48.004Z</time></trkpt><trkpt lat="39.8582513" lon="9.4655167"><ele>791.0</ele><time>2026-04-06T12:03:49.003Z</time></trkpt><trkpt lat="39.8583694" lon="9.4655465"><ele>791.0</ele><time>2026-04-06T12:03:50.004Z</time></trkpt><trkpt lat="39.8584855" lon="9.4655775"><ele>791.0</ele><time>2026-04-06T12:03:51.003Z</time></trkpt><trkpt lat="39.8585934" lon="9.4656226"><ele>791.0</ele><time>2026-04-06T12:03:52.004Z</time></trkpt><trkpt lat="39.8586824" lon="9.4656871"><ele>791.5999999999999</ele><time>2026-04-06T12:03:53.004Z</time></trkpt><trkpt lat="39.8587451" lon="9.4657865"><ele>792.2</ele><time>2026-04-06T12:03:54.003Z</time></trkpt><trkpt lat="39.8587787" lon="9.4659026"><ele>792.8</ele><time>2026-04-06T12:03:55.003Z</time></trkpt><trkpt lat="39.8588108" lon="9.4660124"><ele>793.4000000000001</ele><time>2026-04-06T12:03:56.004Z</time></trkpt><trkpt lat="39.8588637" lon="9.4661328"><ele>794.0</ele><time>2026-04-06T12:03:57.003Z</time></trkpt><trkpt lat="39.8589463" lon="9.4662354"><ele>793.0</ele><time>2026-04-06T12:03:58.004Z</time></trkpt><trkpt lat="39.8590425" lon="9.4663284"><ele>792.0</ele><time>2026-04-06T12:03:59.004Z</time></trkpt><trkpt lat="39.8591533" lon="9.4664257"><ele>791.0</ele><time>2026-04-06T12:04:00.004Z</time></trkpt><trkpt lat="39.8592602" lon="9.466529"><ele>790.0</ele><time>2026-04-06T12:04:01.004Z</time></trkpt><trkpt lat="39.8593598" lon="9.4666379"><ele>790.0</ele><time>2026-04-06T12:04:02.003Z</time></trkpt><trkpt lat="39.8594586" lon="9.4667679"><ele>790.0</ele><time>2026-04-06T12:04:03.004Z</time></trkpt><trkpt lat="39.85955" lon="9.4669166"><ele>790.0</ele><time>2026-04-06T12:04:04.004Z</time></trkpt><trkpt lat="39.8596268" lon="9.4670921"><ele>790.0</ele><time>2026-04-06T12:04:05.004Z</time></trkpt><trkpt lat="39.8596888" lon="9.4672764"><ele>787.5</ele><time>2026-04-06T12:04:06.003Z</time></trkpt><trkpt lat="39.859738" lon="9.467459"><ele>785.0</ele><time>2026-04-06T12:04:07.003Z</time></trkpt><trkpt lat="39.8597874" lon="9.4676299"><ele>782.5</ele><time>2026-04-06T12:04:08.004Z</time></trkpt><trkpt lat="39.8598283" lon="9.467797"><ele>780.0</ele><time>2026-04-06T12:04:09.004Z</time></trkpt><trkpt lat="39.8598741" lon="9.4679708"><ele>780.0</ele><time>2026-04-06T12:04:10.003Z</time></trkpt><trkpt lat="39.8599249" lon="9.4681387"><ele>780.0</ele><time>2026-04-06T12:04:11.004Z</time></trkpt><trkpt lat="39.8599767" lon="9.4683034"><ele>780.0</ele><time>2026-04-06T12:04:12.004Z</time></trkpt><trkpt lat="39.8600279" lon="9.4684656"><ele>780.0</ele><time>2026-04-06T12:04:13.004Z</time></trkpt><trkpt lat="39.8600748" lon="9.4686373"><ele>773.75</ele><time>2026-04-06T12:04:14.003Z</time></trkpt><trkpt lat="39.8601246" lon="9.4688029"><ele>767.5</ele><time>2026-04-06T12:04:15.004Z</time></trkpt><trkpt lat="39.8601604" lon="9.4689842"><ele>761.25</ele><time>2026-04-06T12:04:16.004Z</time></trkpt><trkpt lat="39.8602058" lon="9.4691658"><ele>755.0</ele><time>2026-04-06T12:04:17.004Z</time></trkpt><trkpt lat="39.8602494" lon="9.4693453"><ele>755.0</ele><time>2026-04-06T12:04:18.004Z</time></trkpt><trkpt lat="39.8602976" lon="9.4695248"><ele>755.0</ele><time>2026-04-06T12:04:19.004Z</time></trkpt><trkpt lat="39.8603627" lon="9.4697013"><ele>755.0</ele><time>2026-04-06T12:04:20.004Z</time></trkpt><trkpt lat="39.8604366" lon="9.4698801"><ele>756.0</ele><time>2026-04-06T12:04:21.003Z</time></trkpt><trkpt lat="39.8605111" lon="9.4700538"><ele>757.0</ele><time>2026-04-06T12:04:22.003Z</time></trkpt><trkpt lat="39.8605818" lon="9.4702361"><ele>758.0</ele><time>2026-04-06T12:04:23.004Z</time></trkpt><trkpt lat="39.8606422" lon="9.4704235"><ele>760.5</ele><time>2026-04-06T12:04:24.004Z</time></trkpt><trkpt lat="39.8606956" lon="9.4706022"><ele>763.0</ele><time>2026-04-06T12:04:25.004Z</time></trkpt><trkpt lat="39.8607501" lon="9.4707842"><ele>765.5</ele><time>2026-04-06T12:04:26.003Z</time></trkpt><trkpt lat="39.8608061" lon="9.4709627"><ele>768.0</ele><time>2026-04-06T12:04:27.003Z</time></trkpt><trkpt lat="39.8608633" lon="9.4711312"><ele>769.2</ele><time>2026-04-06T12:04:28.003Z</time></trkpt><trkpt lat="39.8609208" lon="9.4712741"><ele>770.4</ele><time>2026-04-06T12:04:29.003Z</time></trkpt><trkpt lat="39.8609944" lon="9.4713916"><ele>771.6</ele><time>2026-04-06T12:04:30.004Z</time></trkpt><trkpt lat="39.8610701" lon="9.4714672"><ele>772.8000000000001</ele><time>2026-04-06T12:04:31.004Z</time></trkpt><trkpt lat="39.8611509" lon="9.4715078"><ele>774.0</ele><time>2026-04-06T12:04:32.003Z</time></trkpt><trkpt lat="39.8612473" lon="9.4715442"><ele>769.0</ele><time>2026-04-06T12:04:33.004Z</time></trkpt><trkpt lat="39.8613261" lon="9.471575"><ele>764.0</ele><time>2026-04-06T12:04:34.004Z</time></trkpt><trkpt lat="39.8614012" lon="9.4716475"><ele>759.0</ele><time>2026-04-06T12:04:35.004Z</time></trkpt><trkpt lat="39.8614457" lon="9.471768"><ele>754.0</ele><time>2026-04-06T12:04:36.003Z</time></trkpt><trkpt lat="39.8614616" lon="9.4719033"><ele>749.0</ele><time>2026-04-06T12:04:37.004Z</time></trkpt><trkpt lat="39.8614838" lon="9.4720457"><ele>748.0</ele><time>2026-04-06T12:04:38.004Z</time></trkpt><trkpt lat="39.861518" lon="9.4721958"><ele>747.0</ele><time>2026-04-06T12:04:39.004Z</time></trkpt><trkpt lat="39.861551" lon="9.4723517"><ele>746.0</ele><time>2026-04-06T12:04:40.004Z</time></trkpt><trkpt lat="39.8615689" lon="9.4725083"><ele>745.0</ele><time>2026-04-06T12:04:41.003Z</time></trkpt><trkpt lat="39.8615623" lon="9.4726699"><ele>745.0</ele><time>2026-04-06T12:04:42.004Z</time></trkpt><trkpt lat="39.8615134" lon="9.4728203"><ele>745.0</ele><time>2026-04-06T12:04:43.004Z</time></trkpt><trkpt lat="39.8614218" lon="9.4729424"><ele>745.0</ele><time>2026-04-06T12:04:44.004Z</time></trkpt><trkpt lat="39.8613368" lon="9.4730619"><ele>745.0</ele><time>2026-04-06T12:04:45.004Z</time></trkpt><trkpt lat="39.8612574" lon="9.4732284"><ele>743.25</ele><time>2026-04-06T12:04:46.004Z</time></trkpt><trkpt lat="39.8611877" lon="9.4734028"><ele>741.5</ele><time>2026-04-06T12:04:47.003Z</time></trkpt><trkpt lat="39.8611297" lon="9.4735733"><ele>739.75</ele><time>2026-04-06T12:04:48.004Z</time></trkpt><trkpt lat="39.8610802" lon="9.4737512"><ele>738.0</ele><time>2026-04-06T12:04:49.004Z</time></trkpt><trkpt lat="39.8610615" lon="9.4739354"><ele>734.75</ele><time>2026-04-06T12:04:50.004Z</time></trkpt><trkpt lat="39.861059" lon="9.4741227"><ele>731.5</ele><time>2026-04-06T12:04:51.004Z</time></trkpt><trkpt lat="39.8610631" lon="9.4743078"><ele>728.25</ele><time>2026-04-06T12:04:52.004Z</time></trkpt><trkpt lat="39.8610737" lon="9.4744809"><ele>725.0</ele><time>2026-04-06T12:04:53.004Z</time></trkpt><trkpt lat="39.8610761" lon="9.4746439"><ele>728.25</ele><time>2026-04-06T12:04:54.004Z</time></trkpt><trkpt lat="39.8610658" lon="9.4748058"><ele>731.5</ele><time>2026-04-06T12:04:55.004Z</time></trkpt><trkpt lat="39.861041" lon="9.4749568"><ele>734.75</ele><time>2026-04-06T12:04:56.004Z</time></trkpt><trkpt lat="39.8609867" lon="9.4750841"><ele>738.0</ele><time>2026-04-06T12:04:57.003Z</time></trkpt><trkpt lat="39.8609025" lon="9.4751789"><ele>738.0</ele><time>2026-04-06T12:04:58.004Z</time></trkpt><trkpt lat="39.8607922" lon="9.4752304"><ele>738.0</ele><time>2026-04-06T12:04:59.004Z</time></trkpt><trkpt lat="39.8606772" lon="9.4752712"><ele>738.0</ele><time>2026-04-06T12:05:00.004Z</time></trkpt><trkpt lat="39.8605688" lon="9.4753292"><ele>738.0</ele><time>2026-04-06T12:05:01.004Z</time></trkpt><trkpt lat="39.8604753" lon="9.4754152"><ele>733.5</ele><time>2026-04-06T12:05:02.004Z</time></trkpt><trkpt lat="39.8604074" lon="9.4755362"><ele>729.0</ele><time>2026-04-06T12:05:03.004Z</time></trkpt><trkpt lat="39.8603805" lon="9.4756994"><ele>724.5</ele><time>2026-04-06T12:05:04.004Z</time></trkpt><trkpt lat="39.86037" lon="9.4758796"><ele>720.0</ele><time>2026-04-06T12:05:05.004Z</time></trkpt><trkpt lat="39.8603625" lon="9.4760755"><ele>716.0</ele><time>2026-04-06T12:05:06.004Z</time></trkpt><trkpt lat="39.8603562" lon="9.4762746"><ele>712.0</ele><time>2026-04-06T12:05:07.003Z</time></trkpt><trkpt lat="39.8603498" lon="9.4764777"><ele>708.0</ele><time>2026-04-06T12:05:08.004Z</time></trkpt><trkpt lat="39.8603391" lon="9.4766584"><ele>704.0</ele><time>2026-04-06T12:05:09.004Z</time></trkpt><trkpt lat="39.8603155" lon="9.4768151"><ele>704.0</ele><time>2026-04-06T12:05:10.004Z</time></trkpt><trkpt lat="39.8602683" lon="9.4769541"><ele>704.0</ele><time>2026-04-06T12:05:11.003Z</time></trkpt><trkpt lat="39.8601887" lon="9.4770719"><ele>704.0</ele><time>2026-04-06T12:05:12.004Z</time></trkpt><trkpt lat="39.8600902" lon="9.4771811"><ele>704.0</ele><time>2026-04-06T12:05:13.004Z</time></trkpt><trkpt lat="39.8599867" lon="9.4772972"><ele>706.5</ele><time>2026-04-06T12:05:14.003Z</time></trkpt><trkpt lat="39.8598754" lon="9.4774085"><ele>709.0</ele><time>2026-04-06T12:05:15.003Z</time></trkpt><trkpt lat="39.8597561" lon="9.4775135"><ele>711.5</ele><time>2026-04-06T12:05:16.004Z</time></trkpt><trkpt lat="39.8596328" lon="9.4775855"><ele>714.0</ele><time>2026-04-06T12:05:17.004Z</time></trkpt><trkpt lat="39.859509" lon="9.4776617"><ele>714.0</ele><time>2026-04-06T12:05:18.004Z</time></trkpt><trkpt lat="39.8593852" lon="9.477784"><ele>714.0</ele><time>2026-04-06T12:05:19.003Z</time></trkpt><trkpt lat="39.8592713" lon="9.4779655"><ele>714.0</ele><time>2026-04-06T12:05:20.004Z</time></trkpt><trkpt lat="39.859161" lon="9.478151"><ele>714.0</ele><time>2026-04-06T12:05:21.004Z</time></trkpt><trkpt lat="39.8590525" lon="9.4783379"><ele>714.0</ele><time>2026-04-06T12:05:22.004Z</time></trkpt><trkpt lat="39.8589347" lon="9.4785155"><ele>714.0</ele><time>2026-04-06T12:05:23.004Z</time></trkpt><trkpt lat="39.8588179" lon="9.4786945"><ele>707.0</ele><time>2026-04-06T12:05:24.004Z</time></trkpt><trkpt lat="39.8587023" lon="9.4788729"><ele>700.0</ele><time>2026-04-06T12:05:25.004Z</time></trkpt><trkpt lat="39.8585827" lon="9.4790436"><ele>693.0</ele><time>2026-04-06T12:05:26.004Z</time></trkpt><trkpt lat="39.8584684" lon="9.4792122"><ele>693.25</ele><time>2026-04-06T12:05:27.004Z</time></trkpt><trkpt lat="39.858373" lon="9.4793775"><ele>693.5</ele><time>2026-04-06T12:05:28.003Z</time></trkpt><trkpt lat="39.8582953" lon="9.4795329"><ele>693.75</ele><time>2026-04-06T12:05:29.003Z</time></trkpt><trkpt lat="39.8582326" lon="9.4796826"><ele>694.0</ele><time>2026-04-06T12:05:30.003Z</time></trkpt><trkpt lat="39.8581778" lon="9.4798108"><ele>694.0</ele><time>2026-04-06T12:05:31.004Z</time></trkpt><trkpt lat="39.8581099" lon="9.4799371"><ele>694.0</ele><time>2026-04-06T12:05:32.004Z</time></trkpt><trkpt lat="39.8580223" lon="9.4800428"><ele>694.0</ele><time>2026-04-06T12:05:33.004Z</time></trkpt><trkpt lat="39.8579312" lon="9.4801421"><ele>694.0</ele><time>2026-04-06T12:05:34.004Z</time></trkpt><trkpt lat="39.8578369" lon="9.4802387"><ele>694.0</ele><time>2026-04-06T12:05:35.003Z</time></trkpt><trkpt lat="39.8577337" lon="9.480325"><ele>694.0</ele><time>2026-04-06T12:05:36.004Z</time></trkpt><trkpt lat="39.8576254" lon="9.4804072"><ele>694.0</ele><time>2026-04-06T12:05:37.004Z</time></trkpt><trkpt lat="39.8575116" lon="9.4804794"><ele>694.0</ele><time>2026-04-06T12:05:38.004Z</time></trkpt><trkpt lat="39.8573929" lon="9.4805305"><ele>691.75</ele><time>2026-04-06T12:05:39.004Z</time></trkpt><trkpt lat="39.8572661" lon="9.4805788"><ele>689.5</ele><time>2026-04-06T12:05:40.004Z</time></trkpt><trkpt lat="39.8571308" lon="9.4806186"><ele>687.25</ele><time>2026-04-06T12:05:41.003Z</time></trkpt><trkpt lat="39.8569978" lon="9.480675"><ele>685.0</ele><time>2026-04-06T12:05:42.004Z</time></trkpt><trkpt lat="39.8568741" lon="9.480767"><ele>682.0</ele><time>2026-04-06T12:05:43.004Z</time></trkpt><trkpt lat="39.8567626" lon="9.4808863"><ele>679.0</ele><time>2026-04-06T12:05:44.004Z</time></trkpt><trkpt lat="39.8566594" lon="9.4810219"><ele>676.0</ele><time>2026-04-06T12:05:45.003Z</time></trkpt><trkpt lat="39.8565537" lon="9.4811637"><ele>673.0</ele><time>2026-04-06T12:05:46.004Z</time></trkpt><trkpt lat="39.8564436" lon="9.4813041"><ele>673.0</ele><time>2026-04-06T12:05:47.003Z</time></trkpt><trkpt lat="39.8563223" lon="9.4814295"><ele>673.0</ele><time>2026-04-06T12:05:48.003Z</time></trkpt><trkpt lat="39.856183" lon="9.4815174"><ele>673.0</ele><time>2026-04-06T12:05:49.003Z</time></trkpt><trkpt lat="39.8560336" lon="9.4815767"><ele>676.3333333333334</ele><time>2026-04-06T12:05:50.003Z</time></trkpt><trkpt lat="39.8558855" lon="9.4816182"><ele>679.6666666666666</ele><time>2026-04-06T12:05:51.004Z</time></trkpt><trkpt lat="39.8557168" lon="9.4816377"><ele>683.0</ele><time>2026-04-06T12:05:52.004Z</time></trkpt><trkpt lat="39.8555418" lon="9.4816405"><ele>683.0</ele><time>2026-04-06T12:05:53.004Z</time></trkpt><trkpt lat="39.8553549" lon="9.4816432"><ele>683.0</ele><time>2026-04-06T12:05:54.004Z</time></trkpt><trkpt lat="39.8551686" lon="9.4816485"><ele>683.0</ele><time>2026-04-06T12:05:55.003Z</time></trkpt><trkpt lat="39.8549689" lon="9.4816637"><ele>683.3333333333333</ele><time>2026-04-06T12:05:56.003Z</time></trkpt><trkpt lat="39.8547769" lon="9.4816926"><ele>683.6666666666666</ele><time>2026-04-06T12:05:57.004Z</time></trkpt><trkpt lat="39.854597" lon="9.4817661"><ele>684.0</ele><time>2026-04-06T12:05:58.004Z</time></trkpt><trkpt lat="39.8544404" lon="9.4818359"><ele>684.0</ele><time>2026-04-06T12:05:59.004Z</time></trkpt><trkpt lat="39.8543046" lon="9.4819045"><ele>684.0</ele><time>2026-04-06T12:06:00.004Z</time></trkpt><trkpt lat="39.8542072" lon="9.4820147"><ele>684.0</ele><time>2026-04-06T12:06:01.003Z</time></trkpt><trkpt lat="39.8541416" lon="9.4821531"><ele>684.0</ele><time>2026-04-06T12:06:02.004Z</time></trkpt><trkpt lat="39.8540988" lon="9.4823215"><ele>680.5</ele><time>2026-04-06T12:06:03.003Z</time></trkpt><trkpt lat="39.8540494" lon="9.4825006"><ele>677.0</ele><time>2026-04-06T12:06:04.003Z</time></trkpt><trkpt lat="39.8539625" lon="9.4826696"><ele>673.5</ele><time>2026-04-06T12:06:05.004Z</time></trkpt><trkpt lat="39.853852" lon="9.4827889"><ele>670.0</ele><time>2026-04-06T12:06:06.004Z</time></trkpt><trkpt lat="39.8537427" lon="9.4829082"><ele>669.6666666666667</ele><time>2026-04-06T12:06:07.004Z</time></trkpt><trkpt lat="39.8536363" lon="9.4830474"><ele>669.3333333333334</ele><time>2026-04-06T12:06:08.004Z</time></trkpt><trkpt lat="39.853503" lon="9.4831466"><ele>669.0</ele><time>2026-04-06T12:06:09.004Z</time></trkpt><trkpt lat="39.8533718" lon="9.4832282"><ele>669.0</ele><time>2026-04-06T12:06:10.003Z</time></trkpt><trkpt lat="39.8532629" lon="9.4833402"><ele>669.0</ele><time>2026-04-06T12:06:11.003Z</time></trkpt><trkpt lat="39.8531818" lon="9.483484"><ele>669.0</ele><time>2026-04-06T12:06:12.004Z</time></trkpt><trkpt lat="39.8531022" lon="9.4836315"><ele>669.0</ele><time>2026-04-06T12:06:13.004Z</time></trkpt><trkpt lat="39.8530109" lon="9.4837571"><ele>665.5</ele><time>2026-04-06T12:06:14.004Z</time></trkpt><trkpt lat="39.8529062" lon="9.4838564"><ele>662.0</ele><time>2026-04-06T12:06:15.003Z</time></trkpt><trkpt lat="39.8527942" lon="9.4839196"><ele>658.5</ele><time>2026-04-06T12:06:16.003Z</time></trkpt><trkpt lat="39.8526781" lon="9.483957"><ele>655.0</ele><time>2026-04-06T12:06:17.004Z</time></trkpt><trkpt lat="39.8525597" lon="9.4839958"><ele>655.0</ele><time>2026-04-06T12:06:18.004Z</time></trkpt><trkpt lat="39.8524382" lon="9.4840285"><ele>655.0</ele><time>2026-04-06T12:06:19.003Z</time></trkpt><trkpt lat="39.8523124" lon="9.484061"><ele>655.0</ele><time>2026-04-06T12:06:20.003Z</time></trkpt><trkpt lat="39.8521862" lon="9.4841031"><ele>655.0</ele><time>2026-04-06T12:06:21.004Z</time></trkpt><trkpt lat="39.8520562" lon="9.484131"><ele>655.0</ele><time>2026-04-06T12:06:22.003Z</time></trkpt><trkpt lat="39.8519235" lon="9.4841563"><ele>655.0</ele><time>2026-04-06T12:06:23.004Z</time></trkpt><trkpt lat="39.851789" lon="9.484172"><ele>655.0</ele><time>2026-04-06T12:06:24.004Z</time></trkpt><trkpt lat="39.8516495" lon="9.4841625"><ele>655.0</ele><time>2026-04-06T12:06:25.004Z</time></trkpt><trkpt lat="39.8515225" lon="9.4841221"><ele>655.5</ele><time>2026-04-06T12:06:26.004Z</time></trkpt><trkpt lat="39.8513943" lon="9.4840727"><ele>656.0</ele><time>2026-04-06T12:06:27.004Z</time></trkpt><trkpt lat="39.8512655" lon="9.4840528"><ele>656.5</ele><time>2026-04-06T12:06:28.004Z</time></trkpt><trkpt lat="39.8511351" lon="9.4840671"><ele>657.0</ele><time>2026-04-06T12:06:29.003Z</time></trkpt><trkpt lat="39.8510096" lon="9.4840751"><ele>655.8</ele><time>2026-04-06T12:06:30.004Z</time></trkpt><trkpt lat="39.8508865" lon="9.4840609"><ele>654.6</ele><time>2026-04-06T12:06:31.004Z</time></trkpt><trkpt lat="39.8507736" lon="9.4840471"><ele>653.4</ele><time>2026-04-06T12:06:32.004Z</time></trkpt><trkpt lat="39.850673" lon="9.484056"><ele>652.1999999999999</ele><time>2026-04-06T12:06:33.004Z</time></trkpt><trkpt lat="39.8505942" lon="9.484094"><ele>651.0</ele><time>2026-04-06T12:06:34.004Z</time></trkpt><trkpt lat="39.8505289" lon="9.4841521"><ele>651.0</ele><time>2026-04-06T12:06:35.003Z</time></trkpt><trkpt lat="39.8504789" lon="9.4842085"><ele>651.0</ele><time>2026-04-06T12:06:36.003Z</time></trkpt><trkpt lat="39.8503853" lon="9.4843124"><ele>651.0</ele><time>2026-04-06T12:06:38.004Z</time></trkpt><trkpt lat="39.8503491" lon="9.4844406"><ele>651.0</ele><time>2026-04-06T12:06:40.004Z</time></trkpt><trkpt lat="39.8504265" lon="9.4845148"><ele>651.0</ele><time>2026-04-06T12:06:42.004Z</time></trkpt><trkpt lat="39.8504894" lon="9.484483"><ele>651.0</ele><time>2026-04-06T12:06:43.004Z</time></trkpt><trkpt lat="39.8505499" lon="9.4844043"><ele>651.0</ele><time>2026-04-06T12:06:44.004Z</time></trkpt><trkpt lat="39.8506091" lon="9.4843185"><ele>651.0</ele><time>2026-04-06T12:06:45.004Z</time></trkpt><trkpt lat="39.8506898" lon="9.484258"><ele>651.0</ele><time>2026-04-06T12:06:46.003Z</time></trkpt><trkpt lat="39.850787" lon="9.4842669"><ele>651.0</ele><time>2026-04-06T12:06:47.004Z</time></trkpt><trkpt lat="39.8509022" lon="9.4843247"><ele>652.5</ele><time>2026-04-06T12:06:48.004Z</time></trkpt><trkpt lat="39.8510345" lon="9.4843676"><ele>654.0</ele><time>2026-04-06T12:06:49.004Z</time></trkpt><trkpt lat="39.8511489" lon="9.4844039"><ele>655.5</ele><time>2026-04-06T12:06:50.003Z</time></trkpt><trkpt lat="39.8512429" lon="9.4844766"><ele>657.0</ele><time>2026-04-06T12:06:51.003Z</time></trkpt><trkpt lat="39.8513044" lon="9.4845845"><ele>652.4</ele><time>2026-04-06T12:06:52.004Z</time></trkpt><trkpt lat="39.8513248" lon="9.4847029"><ele>647.8000000000001</ele><time>2026-04-06T12:06:53.004Z</time></trkpt><trkpt lat="39.8513617" lon="9.4848114"><ele>643.2</ele><time>2026-04-06T12:06:54.003Z</time></trkpt><trkpt lat="39.8514249" lon="9.484898"><ele>638.6</ele><time>2026-04-06T12:06:55.004Z</time></trkpt><trkpt lat="39.8515216" lon="9.4849628"><ele>634.0</ele><time>2026-04-06T12:06:56.004Z</time></trkpt><trkpt lat="39.8516477" lon="9.4850129"><ele>632.0</ele><time>2026-04-06T12:06:57.004Z</time></trkpt><trkpt lat="39.8517918" lon="9.4850667"><ele>630.0</ele><time>2026-04-06T12:06:58.004Z</time></trkpt><trkpt lat="39.8519403" lon="9.4851238"><ele>628.0</ele><time>2026-04-06T12:06:59.004Z</time></trkpt><trkpt lat="39.8520829" lon="9.4851674"><ele>628.0</ele><time>2026-04-06T12:07:00.003Z</time></trkpt><trkpt lat="39.8522433" lon="9.4851794"><ele>628.0</ele><time>2026-04-06T12:07:01.004Z</time></trkpt><trkpt lat="39.852409" lon="9.4851438"><ele>628.0</ele><time>2026-04-06T12:07:02.003Z</time></trkpt><trkpt lat="39.8525899" lon="9.4850855"><ele>622.0</ele><time>2026-04-06T12:07:03.004Z</time></trkpt><trkpt lat="39.8527653" lon="9.4850064"><ele>616.0</ele><time>2026-04-06T12:07:04.004Z</time></trkpt><trkpt lat="39.8529329" lon="9.4848939"><ele>610.0</ele><time>2026-04-06T12:07:05.004Z</time></trkpt><trkpt lat="39.8530884" lon="9.4847811"><ele>610.0</ele><time>2026-04-06T12:07:06.003Z</time></trkpt><trkpt lat="39.8532535" lon="9.4846999"><ele>610.0</ele><time>2026-04-06T12:07:07.003Z</time></trkpt><trkpt lat="39.8534174" lon="9.4846748"><ele>610.0</ele><time>2026-04-06T12:07:08.004Z</time></trkpt><trkpt lat="39.8535631" lon="9.4846741"><ele>612.75</ele><time>2026-04-06T12:07:09.004Z</time></trkpt><trkpt lat="39.8536926" lon="9.4846236"><ele>615.5</ele><time>2026-04-06T12:07:10.004Z</time></trkpt><trkpt lat="39.8538141" lon="9.484543"><ele>618.25</ele><time>2026-04-06T12:07:11.003Z</time></trkpt><trkpt lat="39.8539384" lon="9.4844608"><ele>621.0</ele><time>2026-04-06T12:07:12.004Z</time></trkpt><trkpt lat="39.8540657" lon="9.4843817"><ele>621.0</ele><time>2026-04-06T12:07:13.004Z</time></trkpt><trkpt lat="39.8541958" lon="9.4843078"><ele>621.0</ele><time>2026-04-06T12:07:14.003Z</time></trkpt><trkpt lat="39.8543437" lon="9.4843032"><ele>621.0</ele><time>2026-04-06T12:07:15.004Z</time></trkpt><trkpt lat="39.8544893" lon="9.4842845"><ele>621.0</ele><time>2026-04-06T12:07:16.004Z</time></trkpt><trkpt lat="39.8546273" lon="9.4842731"><ele>618.0</ele><time>2026-04-06T12:07:17.004Z</time></trkpt><trkpt lat="39.8547656" lon="9.4842815"><ele>615.0</ele><time>2026-04-06T12:07:18.004Z</time></trkpt><trkpt lat="39.8548958" lon="9.4843425"><ele>612.0</ele><time>2026-04-06T12:07:19.004Z</time></trkpt><trkpt lat="39.8550112" lon="9.4843881"><ele>609.0</ele><time>2026-04-06T12:07:20.003Z</time></trkpt><trkpt lat="39.8551153" lon="9.4844281"><ele>608.6</ele><time>2026-04-06T12:07:21.003Z</time></trkpt><trkpt lat="39.8552108" lon="9.4844284"><ele>608.2</ele><time>2026-04-06T12:07:22.004Z</time></trkpt><trkpt lat="39.8552999" lon="9.4843824"><ele>607.8000000000001</ele><time>2026-04-06T12:07:23.004Z</time></trkpt><trkpt lat="39.855378" lon="9.4843112"><ele>607.4</ele><time>2026-04-06T12:07:24.004Z</time></trkpt><trkpt lat="39.8554588" lon="9.4842453"><ele>607.0</ele><time>2026-04-06T12:07:25.004Z</time></trkpt><trkpt lat="39.8555439" lon="9.4841971"><ele>607.0</ele><time>2026-04-06T12:07:26.004Z</time></trkpt><trkpt lat="39.8556282" lon="9.4841814"><ele>607.0</ele><time>2026-04-06T12:07:27.004Z</time></trkpt><trkpt lat="39.8557164" lon="9.484342"><ele>607.0</ele><time>2026-04-06T12:07:28.003Z</time></trkpt><trkpt lat="39.8558002" lon="9.4843971"><ele>607.0</ele><time>2026-04-06T12:07:29.003Z</time></trkpt><trkpt lat="39.8558912" lon="9.4844451"><ele>607.0</ele><time>2026-04-06T12:07:30.003Z</time></trkpt><trkpt lat="39.8559848" lon="9.4844767"><ele>605.2</ele><time>2026-04-06T12:07:31.004Z</time></trkpt><trkpt lat="39.8560888" lon="9.4844838"><ele>603.4000000000001</ele><time>2026-04-06T12:07:32.003Z</time></trkpt><trkpt lat="39.8561933" lon="9.4844918"><ele>601.5999999999999</ele><time>2026-04-06T12:07:33.004Z</time></trkpt><trkpt lat="39.8562966" lon="9.4844992"><ele>599.8</ele><time>2026-04-06T12:07:34.003Z</time></trkpt><trkpt lat="39.8564221" lon="9.4844717"><ele>598.0</ele><time>2026-04-06T12:07:35.004Z</time></trkpt><trkpt lat="39.8565286" lon="9.48441"><ele>598.0</ele><time>2026-04-06T12:07:36.004Z</time></trkpt><trkpt lat="39.8566261" lon="9.4843311"><ele>598.0</ele><time>2026-04-06T12:07:37.004Z</time></trkpt><trkpt lat="39.8567064" lon="9.4842314"><ele>598.0</ele><time>2026-04-06T12:07:38.004Z</time></trkpt><trkpt lat="39.8568039" lon="9.4841729"><ele>598.0</ele><time>2026-04-06T12:07:39.003Z</time></trkpt><trkpt lat="39.8569034" lon="9.4841408"><ele>598.0</ele><time>2026-04-06T12:07:40.003Z</time></trkpt><trkpt lat="39.8570084" lon="9.4841839"><ele>595.4</ele><time>2026-04-06T12:07:41.004Z</time></trkpt><trkpt lat="39.8571045" lon="9.4841674"><ele>592.8</ele><time>2026-04-06T12:07:42.004Z</time></trkpt><trkpt lat="39.8571888" lon="9.484121"><ele>590.2</ele><time>2026-04-06T12:07:43.003Z</time></trkpt><trkpt lat="39.8572544" lon="9.4840494"><ele>587.6</ele><time>2026-04-06T12:07:44.003Z</time></trkpt><trkpt lat="39.8573162" lon="9.4839824"><ele>585.0</ele><time>2026-04-06T12:07:45.004Z</time></trkpt><trkpt lat="39.8574206" lon="9.484002"><ele>585.0</ele><time>2026-04-06T12:07:47.003Z</time></trkpt><trkpt lat="39.857397" lon="9.4841428"><ele>585.0</ele><time>2026-04-06T12:07:49.003Z</time></trkpt><trkpt lat="39.8573293" lon="9.4842235"><ele>585.0</ele><time>2026-04-06T12:07:50.004Z</time></trkpt><trkpt lat="39.8572384" lon="9.4843104"><ele>585.0</ele><time>2026-04-06T12:07:51.003Z</time></trkpt><trkpt lat="39.8571408" lon="9.4843633"><ele>585.0</ele><time>2026-04-06T12:07:52.004Z</time></trkpt><trkpt lat="39.8570347" lon="9.4844023"><ele>585.0</ele><time>2026-04-06T12:07:53.004Z</time></trkpt><trkpt lat="39.8569253" lon="9.4844637"><ele>585.0</ele><time>2026-04-06T12:07:54.003Z</time></trkpt><trkpt lat="39.8568224" lon="9.4845613"><ele>585.0</ele><time>2026-04-06T12:07:55.003Z</time></trkpt><trkpt lat="39.8567312" lon="9.4846733"><ele>585.0</ele><time>2026-04-06T12:07:56.003Z</time></trkpt><trkpt lat="39.8566476" lon="9.4847757"><ele>582.8</ele><time>2026-04-06T12:07:57.004Z</time></trkpt><trkpt lat="39.8565572" lon="9.4848661"><ele>580.6</ele><time>2026-04-06T12:07:58.004Z</time></trkpt><trkpt lat="39.8564717" lon="9.4849556"><ele>578.4</ele><time>2026-04-06T12:07:59.003Z</time></trkpt><trkpt lat="39.8563983" lon="9.485052"><ele>576.2</ele><time>2026-04-06T12:08:00.003Z</time></trkpt><trkpt lat="39.8563371" lon="9.4851483"><ele>574.0</ele><time>2026-04-06T12:08:01.004Z</time></trkpt><trkpt lat="39.8562708" lon="9.485234"><ele>574.0</ele><time>2026-04-06T12:08:02.004Z</time></trkpt><trkpt lat="39.8562182" lon="9.4853194"><ele>574.0</ele><time>2026-04-06T12:08:03.004Z</time></trkpt><trkpt lat="39.8561533" lon="9.4853968"><ele>574.0</ele><time>2026-04-06T12:08:04.004Z</time></trkpt><trkpt lat="39.856085" lon="9.4854577"><ele>574.0</ele><time>2026-04-06T12:08:05.004Z</time></trkpt><trkpt lat="39.8560142" lon="9.4854944"><ele>574.0</ele><time>2026-04-06T12:08:06.004Z</time></trkpt><trkpt lat="39.8559388" lon="9.4855178"><ele>574.0</ele><time>2026-04-06T12:08:07.004Z</time></trkpt><trkpt lat="39.8558773" lon="9.4855534"><ele>572.1666666666667</ele><time>2026-04-06T12:08:08.004Z</time></trkpt><trkpt lat="39.8558109" lon="9.4856175"><ele>570.3333333333334</ele><time>2026-04-06T12:08:09.004Z</time></trkpt><trkpt lat="39.8557526" lon="9.4856687"><ele>568.5</ele><time>2026-04-06T12:08:10.004Z</time></trkpt><trkpt lat="39.855687" lon="9.4857265"><ele>566.6666666666666</ele><time>2026-04-06T12:08:11.003Z</time></trkpt><trkpt lat="39.855617" lon="9.4857895"><ele>564.8333333333333</ele><time>2026-04-06T12:08:12.004Z</time></trkpt><trkpt lat="39.8555474" lon="9.4858531"><ele>563.0</ele><time>2026-04-06T12:08:13.004Z</time></trkpt><trkpt lat="39.8553808" lon="9.4860111"><ele>563.0</ele><time>2026-04-06T12:08:15.004Z</time></trkpt><trkpt lat="39.8552891" lon="9.4861237"><ele>563.0</ele><time>2026-04-06T12:08:16.004Z</time></trkpt><trkpt lat="39.8551998" lon="9.4862311"><ele>563.0</ele><time>2026-04-06T12:08:17.004Z</time></trkpt><trkpt lat="39.8550956" lon="9.4863195"><ele>563.0</ele><time>2026-04-06T12:08:18.004Z</time></trkpt><trkpt lat="39.8549633" lon="9.4863302"><ele>560.0</ele><time>2026-04-06T12:08:19.003Z</time></trkpt><trkpt lat="39.8548588" lon="9.4863139"><ele>557.0</ele><time>2026-04-06T12:08:20.004Z</time></trkpt><trkpt lat="39.8547536" lon="9.4862836"><ele>554.0</ele><time>2026-04-06T12:08:21.004Z</time></trkpt><trkpt lat="39.85465" lon="9.4863002"><ele>551.0</ele><time>2026-04-06T12:08:22.004Z</time></trkpt><trkpt lat="39.8545618" lon="9.4863626"><ele>548.0</ele><time>2026-04-06T12:08:23.004Z</time></trkpt><trkpt lat="39.8544783" lon="9.4864871"><ele>548.0</ele><time>2026-04-06T12:08:24.003Z</time></trkpt><trkpt lat="39.8543964" lon="9.4866455"><ele>548.0</ele><time>2026-04-06T12:08:25.003Z</time></trkpt><trkpt lat="39.854305" lon="9.4867995"><ele>548.0</ele><time>2026-04-06T12:08:26.004Z</time></trkpt><trkpt lat="39.8542087" lon="9.4869658"><ele>545.75</ele><time>2026-04-06T12:08:27.004Z</time></trkpt><trkpt lat="39.8541224" lon="9.4871315"><ele>543.5</ele><time>2026-04-06T12:08:28.004Z</time></trkpt><trkpt lat="39.8540376" lon="9.4872821"><ele>541.25</ele><time>2026-04-06T12:08:29.004Z</time></trkpt><trkpt lat="39.8539315" lon="9.4874061"><ele>539.0</ele><time>2026-04-06T12:08:30.003Z</time></trkpt><trkpt lat="39.8537946" lon="9.4874921"><ele>539.0</ele><time>2026-04-06T12:08:31.004Z</time></trkpt><trkpt lat="39.8536379" lon="9.487549"><ele>539.0</ele><time>2026-04-06T12:08:32.004Z</time></trkpt><trkpt lat="39.8534684" lon="9.4875989"><ele>539.0</ele><time>2026-04-06T12:08:33.003Z</time></trkpt><trkpt lat="39.8532998" lon="9.4876504"><ele>541.3333333333333</ele><time>2026-04-06T12:08:34.004Z</time></trkpt><trkpt lat="39.8531394" lon="9.4876957"><ele>543.6666666666666</ele><time>2026-04-06T12:08:35.004Z</time></trkpt><trkpt lat="39.8529881" lon="9.4877556"><ele>546.0</ele><time>2026-04-06T12:08:36.004Z</time></trkpt><trkpt lat="39.8528557" lon="9.4878441"><ele>542.25</ele><time>2026-04-06T12:08:37.003Z</time></trkpt><trkpt lat="39.8527511" lon="9.4879654"><ele>538.5</ele><time>2026-04-06T12:08:38.004Z</time></trkpt><trkpt lat="39.852669" lon="9.4881057"><ele>534.75</ele><time>2026-04-06T12:08:39.004Z</time></trkpt><trkpt lat="39.8525931" lon="9.4882354"><ele>531.0</ele><time>2026-04-06T12:08:40.004Z</time></trkpt><trkpt lat="39.852505" lon="9.4883097"><ele>531.0</ele><time>2026-04-06T12:08:41.004Z</time></trkpt><trkpt lat="39.8524276" lon="9.4883121"><ele>531.0</ele><time>2026-04-06T12:08:42.004Z</time></trkpt><trkpt lat="39.8523264" lon="9.4882652"><ele>531.0</ele><time>2026-04-06T12:08:43.004Z</time></trkpt><trkpt lat="39.8521978" lon="9.4881925"><ele>531.0</ele><time>2026-04-06T12:08:44.004Z</time></trkpt><trkpt lat="39.852076" lon="9.488126"><ele>531.0</ele><time>2026-04-06T12:08:45.004Z</time></trkpt><trkpt lat="39.8519404" lon="9.488097"><ele>531.0</ele><time>2026-04-06T12:08:46.004Z</time></trkpt><trkpt lat="39.8518005" lon="9.4881169"><ele>531.0</ele><time>2026-04-06T12:08:47.003Z</time></trkpt><trkpt lat="39.851657" lon="9.4881598"><ele>531.0</ele><time>2026-04-06T12:08:48.004Z</time></trkpt><trkpt lat="39.8515265" lon="9.4882115"><ele>530.5</ele><time>2026-04-06T12:08:49.004Z</time></trkpt><trkpt lat="39.8514134" lon="9.4882847"><ele>530.0</ele><time>2026-04-06T12:08:50.004Z</time></trkpt><trkpt lat="39.8513169" lon="9.488394"><ele>529.5</ele><time>2026-04-06T12:08:51.004Z</time></trkpt><trkpt lat="39.8512326" lon="9.488529"><ele>529.0</ele><time>2026-04-06T12:08:52.003Z</time></trkpt><trkpt lat="39.8511352" lon="9.4886649"><ele>525.25</ele><time>2026-04-06T12:08:53.004Z</time></trkpt><trkpt lat="39.8510303" lon="9.4887725"><ele>521.5</ele><time>2026-04-06T12:08:54.004Z</time></trkpt><trkpt lat="39.8509312" lon="9.4888578"><ele>517.75</ele><time>2026-04-06T12:08:55.003Z</time></trkpt><trkpt lat="39.850828" lon="9.4888936"><ele>514.0</ele><time>2026-04-06T12:08:56.003Z</time></trkpt><trkpt lat="39.8507348" lon="9.4888695"><ele>513.8333333333334</ele><time>2026-04-06T12:08:57.004Z</time></trkpt><trkpt lat="39.8506589" lon="9.4888173"><ele>513.6666666666667</ele><time>2026-04-06T12:08:58.004Z</time></trkpt><trkpt lat="39.8505822" lon="9.4887901"><ele>513.5</ele><time>2026-04-06T12:08:59.003Z</time></trkpt><trkpt lat="39.8505167" lon="9.4888026"><ele>513.3333333333334</ele><time>2026-04-06T12:09:00.004Z</time></trkpt><trkpt lat="39.8504716" lon="9.4889032"><ele>513.1666666666666</ele><time>2026-04-06T12:09:02.004Z</time></trkpt><trkpt lat="39.8505332" lon="9.4890014"><ele>513.0</ele><time>2026-04-06T12:09:04.003Z</time></trkpt><trkpt lat="39.8506013" lon="9.489033"><ele>513.0</ele><time>2026-04-06T12:09:05.003Z</time></trkpt><trkpt lat="39.8506814" lon="9.4890678"><ele>513.0</ele><time>2026-04-06T12:09:06.003Z</time></trkpt><trkpt lat="39.8507613" lon="9.4890925"><ele>513.0</ele><time>2026-04-06T12:09:07.004Z</time></trkpt><trkpt lat="39.8508419" lon="9.4891103"><ele>513.0</ele><time>2026-04-06T12:09:08.003Z</time></trkpt><trkpt lat="39.8509296" lon="9.4891248"><ele>513.0</ele><time>2026-04-06T12:09:09.004Z</time></trkpt><trkpt lat="39.8510191" lon="9.489123"><ele>513.0</ele><time>2026-04-06T12:09:10.003Z</time></trkpt><trkpt lat="39.851108" lon="9.4891142"><ele>513.1666666666666</ele><time>2026-04-06T12:09:11.004Z</time></trkpt><trkpt lat="39.851193" lon="9.4890933"><ele>513.3333333333334</ele><time>2026-04-06T12:09:12.004Z</time></trkpt><trkpt lat="39.8512714" lon="9.4890724"><ele>513.5</ele><time>2026-04-06T12:09:13.004Z</time></trkpt><trkpt lat="39.851349" lon="9.4890551"><ele>513.6666666666667</ele><time>2026-04-06T12:09:14.003Z</time></trkpt><trkpt lat="39.8514224" lon="9.4890546"><ele>513.8333333333334</ele><time>2026-04-06T12:09:15.004Z</time></trkpt><trkpt lat="39.8514923" lon="9.4890884"><ele>514.0</ele><time>2026-04-06T12:09:16.003Z</time></trkpt><trkpt lat="39.851522" lon="9.4891845"><ele>514.0</ele><time>2026-04-06T12:09:17.004Z</time></trkpt><trkpt lat="39.8515308" lon="9.4892814"><ele>514.0</ele><time>2026-04-06T12:09:18.004Z</time></trkpt><trkpt lat="39.8515356" lon="9.4893723"><ele>514.0</ele><time>2026-04-06T12:09:19.004Z</time></trkpt><trkpt lat="39.8515401" lon="9.4894592"><ele>514.0</ele><time>2026-04-06T12:09:20.003Z</time></trkpt><trkpt lat="39.8515478" lon="9.4895429"><ele>514.0</ele><time>2026-04-06T12:09:21.004Z</time></trkpt><trkpt lat="39.8516068" lon="9.4896679"><ele>514.0</ele><time>2026-04-06T12:09:23.004Z</time></trkpt><trkpt lat="39.8517081" lon="9.4897639"><ele>510.0</ele><time>2026-04-06T12:09:25.004Z</time></trkpt><trkpt lat="39.8518245" lon="9.4898153"><ele>506.0</ele><time>2026-04-06T12:09:27.003Z</time></trkpt><trkpt lat="39.8518924" lon="9.4898288"><ele>502.0</ele><time>2026-04-06T12:09:28.004Z</time></trkpt><trkpt lat="39.8519721" lon="9.4898448"><ele>498.0</ele><time>2026-04-06T12:09:29.004Z</time></trkpt><trkpt lat="39.8520604" lon="9.489864"><ele>494.0</ele><time>2026-04-06T12:09:30.004Z</time></trkpt><trkpt lat="39.8521617" lon="9.489879"><ele>494.0</ele><time>2026-04-06T12:09:31.003Z</time></trkpt><trkpt lat="39.8522721" lon="9.4899005"><ele>494.0</ele><time>2026-04-06T12:09:32.004Z</time></trkpt><trkpt lat="39.8523968" lon="9.4899191"><ele>494.0</ele><time>2026-04-06T12:09:33.004Z</time></trkpt><trkpt lat="39.8525251" lon="9.4899101"><ele>494.0</ele><time>2026-04-06T12:09:34.004Z</time></trkpt><trkpt lat="39.8526703" lon="9.489874"><ele>487.66666666666663</ele><time>2026-04-06T12:09:35.004Z</time></trkpt><trkpt lat="39.8528217" lon="9.4897861"><ele>481.33333333333337</ele><time>2026-04-06T12:09:36.003Z</time></trkpt><trkpt lat="39.852998" lon="9.4896815"><ele>475.0</ele><time>2026-04-06T12:09:37.003Z</time></trkpt><trkpt lat="39.8531873" lon="9.4896096"><ele>479.6666666666667</ele><time>2026-04-06T12:09:38.003Z</time></trkpt><trkpt lat="39.8533661" lon="9.4895511"><ele>484.33333333333337</ele><time>2026-04-06T12:09:39.004Z</time></trkpt><trkpt lat="39.8535415" lon="9.4894951"><ele>489.0</ele><time>2026-04-06T12:09:40.004Z</time></trkpt><trkpt lat="39.8537163" lon="9.489439"><ele>489.0</ele><time>2026-04-06T12:09:41.004Z</time></trkpt><trkpt lat="39.8538935" lon="9.4893696"><ele>489.0</ele><time>2026-04-06T12:09:42.004Z</time></trkpt><trkpt lat="39.8540625" lon="9.4892996"><ele>489.0</ele><time>2026-04-06T12:09:43.004Z</time></trkpt><trkpt lat="39.8542422" lon="9.4892456"><ele>484.33333333333337</ele><time>2026-04-06T12:09:44.004Z</time></trkpt><trkpt lat="39.8544208" lon="9.4892139"><ele>479.6666666666667</ele><time>2026-04-06T12:09:45.004Z</time></trkpt><trkpt lat="39.8545884" lon="9.4891823"><ele>475.0</ele><time>2026-04-06T12:09:46.004Z</time></trkpt><trkpt lat="39.854754" lon="9.4891231"><ele>475.0</ele><time>2026-04-06T12:09:47.004Z</time></trkpt><trkpt lat="39.8549036" lon="9.4890529"><ele>475.0</ele><time>2026-04-06T12:09:48.004Z</time></trkpt><trkpt lat="39.8550387" lon="9.4889884"><ele>475.0</ele><time>2026-04-06T12:09:49.004Z</time></trkpt><trkpt lat="39.8551601" lon="9.488925"><ele>475.0</ele><time>2026-04-06T12:09:50.004Z</time></trkpt><trkpt lat="39.85528" lon="9.4888649"><ele>472.0</ele><time>2026-04-06T12:09:51.003Z</time></trkpt><trkpt lat="39.8553925" lon="9.4888066"><ele>469.0</ele><time>2026-04-06T12:09:52.004Z</time></trkpt><trkpt lat="39.8555115" lon="9.488775"><ele>466.0</ele><time>2026-04-06T12:09:53.004Z</time></trkpt><trkpt lat="39.8556189" lon="9.4887636"><ele>463.0</ele><time>2026-04-06T12:09:54.004Z</time></trkpt><trkpt lat="39.8557331" lon="9.4887678"><ele>463.0</ele><time>2026-04-06T12:09:55.003Z</time></trkpt><trkpt lat="39.8558407" lon="9.4887763"><ele>462.99999999999994</ele><time>2026-04-06T12:09:56.004Z</time></trkpt><trkpt lat="39.8559519" lon="9.4887847"><ele>462.99999999999994</ele><time>2026-04-06T12:09:57.003Z</time></trkpt><trkpt lat="39.8560624" lon="9.4887929"><ele>463.0</ele><time>2026-04-06T12:09:58.004Z</time></trkpt><trkpt lat="39.8561692" lon="9.4888115"><ele>463.0</ele><time>2026-04-06T12:09:59.004Z</time></trkpt><trkpt lat="39.8562759" lon="9.4888354"><ele>464.0</ele><time>2026-04-06T12:10:00.004Z</time></trkpt><trkpt lat="39.8563853" lon="9.4888644"><ele>464.99999999999994</ele><time>2026-04-06T12:10:01.004Z</time></trkpt><trkpt lat="39.8564909" lon="9.4888894"><ele>465.99999999999994</ele><time>2026-04-06T12:10:02.004Z</time></trkpt><trkpt lat="39.8565995" lon="9.4889214"><ele>467.0</ele><time>2026-04-06T12:10:03.003Z</time></trkpt><trkpt lat="39.8567009" lon="9.4889531"><ele>468.0</ele><time>2026-04-06T12:10:04.003Z</time></trkpt><trkpt lat="39.8567928" lon="9.4890027"><ele>471.1666666666667</ele><time>2026-04-06T12:10:05.004Z</time></trkpt><trkpt lat="39.856865" lon="9.4890821"><ele>474.33333333333337</ele><time>2026-04-06T12:10:06.004Z</time></trkpt><trkpt lat="39.8569023" lon="9.4891913"><ele>477.5</ele><time>2026-04-06T12:10:07.003Z</time></trkpt><trkpt lat="39.8569308" lon="9.4893003"><ele>480.6666666666667</ele><time>2026-04-06T12:10:08.004Z</time></trkpt><trkpt lat="39.8569491" lon="9.4894093"><ele>483.83333333333337</ele><time>2026-04-06T12:10:09.003Z</time></trkpt><trkpt lat="39.8569375" lon="9.4895142"><ele>487.0</ele><time>2026-04-06T12:10:10.003Z</time></trkpt><trkpt lat="39.8569275" lon="9.4896348"><ele>487.20000000000005</ele><time>2026-04-06T12:10:11.003Z</time></trkpt><trkpt lat="39.8568086" lon="9.4896716"><ele>487.40000000000003</ele><time>2026-04-06T12:10:12.003Z</time></trkpt><trkpt lat="39.8567358" lon="9.4897339"><ele>487.59999999999997</ele><time>2026-04-06T12:10:13.003Z</time></trkpt><trkpt lat="39.8566569" lon="9.4897842"><ele>487.79999999999995</ele><time>2026-04-06T12:10:14.004Z</time></trkpt><trkpt lat="39.8565785" lon="9.4898213"><ele>488.0</ele><time>2026-04-06T12:10:15.003Z</time></trkpt><trkpt lat="39.8564922" lon="9.4898499"><ele>487.99999999999994</ele><time>2026-04-06T12:10:16.004Z</time></trkpt><trkpt lat="39.8564062" lon="9.4898754"><ele>488.0</ele><time>2026-04-06T12:10:17.003Z</time></trkpt><trkpt lat="39.8563224" lon="9.4898972"><ele>488.0</ele><time>2026-04-06T12:10:18.004Z</time></trkpt><trkpt lat="39.8562384" lon="9.4899098"><ele>488.0</ele><time>2026-04-06T12:10:19.004Z</time></trkpt><trkpt lat="39.856154" lon="9.4899345"><ele>487.99999999999994</ele><time>2026-04-06T12:10:20.004Z</time></trkpt><trkpt lat="39.8560661" lon="9.4899669"><ele>488.0</ele><time>2026-04-06T12:10:21.003Z</time></trkpt><trkpt lat="39.855978" lon="9.4900207"><ele>487.59999999999997</ele><time>2026-04-06T12:10:22.003Z</time></trkpt><trkpt lat="39.8559058" lon="9.4901005"><ele>487.19999999999993</ele><time>2026-04-06T12:10:23.004Z</time></trkpt><trkpt lat="39.8558451" lon="9.4902109"><ele>486.8</ele><time>2026-04-06T12:10:24.004Z</time></trkpt><trkpt lat="39.8557902" lon="9.4903187"><ele>486.4</ele><time>2026-04-06T12:10:25.004Z</time></trkpt><trkpt lat="39.8557608" lon="9.490484"><ele>486.0</ele><time>2026-04-06T12:10:26.004Z</time></trkpt><trkpt lat="39.8556795" lon="9.4906247"><ele>486.0</ele><time>2026-04-06T12:10:27.004Z</time></trkpt><trkpt lat="39.8555886" lon="9.4907627"><ele>486.0</ele><time>2026-04-06T12:10:28.003Z</time></trkpt><trkpt lat="39.855507" lon="9.4909066"><ele>486.0</ele><time>2026-04-06T12:10:29.004Z</time></trkpt><trkpt lat="39.8554328" lon="9.4910471"><ele>486.0</ele><time>2026-04-06T12:10:30.004Z</time></trkpt><trkpt lat="39.8553632" lon="9.4911901"><ele>485.0</ele><time>2026-04-06T12:10:31.004Z</time></trkpt><trkpt lat="39.8552866" lon="9.4913209"><ele>484.0</ele><time>2026-04-06T12:10:32.004Z</time></trkpt><trkpt lat="39.8551893" lon="9.4914404"><ele>483.0</ele><time>2026-04-06T12:10:33.004Z</time></trkpt><trkpt lat="39.8550777" lon="9.4915416"><ele>482.0</ele><time>2026-04-06T12:10:34.004Z</time></trkpt><trkpt lat="39.8549766" lon="9.4916596"><ele>482.0</ele><time>2026-04-06T12:10:35.004Z</time></trkpt><trkpt lat="39.8548863" lon="9.491802"><ele>482.0</ele><time>2026-04-06T12:10:36.004Z</time></trkpt><trkpt lat="39.8548041" lon="9.4919606"><ele>482.0</ele><time>2026-04-06T12:10:37.004Z</time></trkpt><trkpt lat="39.8547201" lon="9.4921263"><ele>482.0</ele><time>2026-04-06T12:10:38.004Z</time></trkpt><trkpt lat="39.8546338" lon="9.4922918"><ele>487.0</ele><time>2026-04-06T12:10:39.004Z</time></trkpt><trkpt lat="39.8545404" lon="9.4924595"><ele>492.0</ele><time>2026-04-06T12:10:40.004Z</time></trkpt><trkpt lat="39.8544366" lon="9.4926209"><ele>497.0</ele><time>2026-04-06T12:10:41.004Z</time></trkpt><trkpt lat="39.8543088" lon="9.4927581"><ele>495.3333333333333</ele><time>2026-04-06T12:10:42.004Z</time></trkpt><trkpt lat="39.854168" lon="9.4928642"><ele>493.66666666666663</ele><time>2026-04-06T12:10:43.004Z</time></trkpt><trkpt lat="39.8540386" lon="9.4929675"><ele>492.0</ele><time>2026-04-06T12:10:44.004Z</time></trkpt><trkpt lat="39.8539234" lon="9.4930888"><ele>492.0</ele><time>2026-04-06T12:10:45.003Z</time></trkpt><trkpt lat="39.8538328" lon="9.4932487"><ele>492.0</ele><time>2026-04-06T12:10:46.004Z</time></trkpt><trkpt lat="39.8537604" lon="9.4934284"><ele>492.0</ele><time>2026-04-06T12:10:47.003Z</time></trkpt><trkpt lat="39.8536848" lon="9.4936093"><ele>490.33333333333337</ele><time>2026-04-06T12:10:48.004Z</time></trkpt><trkpt lat="39.8536115" lon="9.493785"><ele>488.6666666666667</ele><time>2026-04-06T12:10:49.004Z</time></trkpt><trkpt lat="39.853525" lon="9.4939567"><ele>487.0</ele><time>2026-04-06T12:10:50.004Z</time></trkpt><trkpt lat="39.8534276" lon="9.4941371"><ele>487.0</ele><time>2026-04-06T12:10:51.004Z</time></trkpt><trkpt lat="39.8533367" lon="9.4943205"><ele>487.0</ele><time>2026-04-06T12:10:52.003Z</time></trkpt><trkpt lat="39.8532236" lon="9.4944673"><ele>487.0</ele><time>2026-04-06T12:10:53.003Z</time></trkpt><trkpt lat="39.8530774" lon="9.4945782"><ele>495.0</ele><time>2026-04-06T12:10:54.004Z</time></trkpt><trkpt lat="39.8529295" lon="9.4946496"><ele>503.0</ele><time>2026-04-06T12:10:55.004Z</time></trkpt><trkpt lat="39.8527854" lon="9.4947298"><ele>511.0</ele><time>2026-04-06T12:10:56.003Z</time></trkpt><trkpt lat="39.8526447" lon="9.4948495"><ele>503.33333333333337</ele><time>2026-04-06T12:10:57.004Z</time></trkpt><trkpt lat="39.8525288" lon="9.4949972"><ele>495.66666666666663</ele><time>2026-04-06T12:10:58.004Z</time></trkpt><trkpt lat="39.8524343" lon="9.4951596"><ele>488.0</ele><time>2026-04-06T12:10:59.003Z</time></trkpt><trkpt lat="39.8523708" lon="9.495341"><ele>492.5</ele><time>2026-04-06T12:11:00.004Z</time></trkpt><trkpt lat="39.8523406" lon="9.4955362"><ele>497.0</ele><time>2026-04-06T12:11:01.003Z</time></trkpt><trkpt lat="39.8523212" lon="9.4957063"><ele>501.5</ele><time>2026-04-06T12:11:02.004Z</time></trkpt><trkpt lat="39.8522838" lon="9.4958591"><ele>506.0</ele><time>2026-04-06T12:11:03.003Z</time></trkpt><trkpt lat="39.8522186" lon="9.4959807"><ele>506.0</ele><time>2026-04-06T12:11:04.004Z</time></trkpt><trkpt lat="39.8521298" lon="9.4960768"><ele>506.0</ele><time>2026-04-06T12:11:05.004Z</time></trkpt><trkpt lat="39.8520426" lon="9.4962005"><ele>506.0</ele><time>2026-04-06T12:11:06.003Z</time></trkpt><trkpt lat="39.8519475" lon="9.4963686"><ele>506.0</ele><time>2026-04-06T12:11:07.004Z</time></trkpt><trkpt lat="39.8518148" lon="9.4965111"><ele>504.0</ele><time>2026-04-06T12:11:08.004Z</time></trkpt><trkpt lat="39.8516845" lon="9.4966714"><ele>502.0</ele><time>2026-04-06T12:11:09.004Z</time></trkpt><trkpt lat="39.8515528" lon="9.4968365"><ele>500.0</ele><time>2026-04-06T12:11:10.004Z</time></trkpt><trkpt lat="39.8514327" lon="9.4970031"><ele>505.3333333333333</ele><time>2026-04-06T12:11:11.004Z</time></trkpt><trkpt lat="39.8513176" lon="9.4971587"><ele>510.66666666666663</ele><time>2026-04-06T12:11:12.004Z</time></trkpt><trkpt lat="39.8512118" lon="9.4973171"><ele>516.0</ele><time>2026-04-06T12:11:13.004Z</time></trkpt><trkpt lat="39.8511418" lon="9.4974924"><ele>516.0</ele><time>2026-04-06T12:11:14.004Z</time></trkpt><trkpt lat="39.8510654" lon="9.4976373"><ele>516.0</ele><time>2026-04-06T12:11:15.003Z</time></trkpt><trkpt lat="39.8509601" lon="9.4977467"><ele>516.0</ele><time>2026-04-06T12:11:16.004Z</time></trkpt><trkpt lat="39.8508348" lon="9.4978177"><ele>516.0</ele><time>2026-04-06T12:11:17.003Z</time></trkpt><trkpt lat="39.8506962" lon="9.4978759"><ele>520.6666666666666</ele><time>2026-04-06T12:11:18.004Z</time></trkpt><trkpt lat="39.8505407" lon="9.4979293"><ele>525.3333333333333</ele><time>2026-04-06T12:11:19.004Z</time></trkpt><trkpt lat="39.8503718" lon="9.4979374"><ele>530.0</ele><time>2026-04-06T12:11:20.004Z</time></trkpt><trkpt lat="39.8501954" lon="9.4979149"><ele>517.3333333333333</ele><time>2026-04-06T12:11:21.004Z</time></trkpt><trkpt lat="39.8500159" lon="9.4978973"><ele>504.66666666666663</ele><time>2026-04-06T12:11:22.004Z</time></trkpt><trkpt lat="39.8498557" lon="9.4978812"><ele>492.0</ele><time>2026-04-06T12:11:23.004Z</time></trkpt><trkpt lat="39.8497291" lon="9.4978908"><ele>499.8</ele><time>2026-04-06T12:11:24.004Z</time></trkpt><trkpt lat="39.8496146" lon="9.497922"><ele>507.6</ele><time>2026-04-06T12:11:25.003Z</time></trkpt><trkpt lat="39.8495244" lon="9.4979857"><ele>515.4000000000001</ele><time>2026-04-06T12:11:26.003Z</time></trkpt><trkpt lat="39.8494526" lon="9.498093"><ele>523.2</ele><time>2026-04-06T12:11:27.004Z</time></trkpt><trkpt lat="39.8494013" lon="9.4982255"><ele>531.0</ele><time>2026-04-06T12:11:28.004Z</time></trkpt><trkpt lat="39.8493501" lon="9.4983551"><ele>526.5</ele><time>2026-04-06T12:11:29.003Z</time></trkpt><trkpt lat="39.8492645" lon="9.4984416"><ele>522.0</ele><time>2026-04-06T12:11:30.004Z</time></trkpt><trkpt lat="39.8491498" lon="9.4984917"><ele>517.5</ele><time>2026-04-06T12:11:31.004Z</time></trkpt><trkpt lat="39.8490475" lon="9.4985625"><ele>513.0</ele><time>2026-04-06T12:11:32.004Z</time></trkpt><trkpt lat="39.8489652" lon="9.4986702"><ele>517.6</ele><time>2026-04-06T12:11:33.004Z</time></trkpt><trkpt lat="39.8488915" lon="9.4987756"><ele>522.1999999999999</ele><time>2026-04-06T12:11:34.003Z</time></trkpt><trkpt lat="39.8488423" lon="9.4988946"><ele>526.8</ele><time>2026-04-06T12:11:35.003Z</time></trkpt><trkpt lat="39.8488116" lon="9.4990286"><ele>531.4</ele><time>2026-04-06T12:11:36.004Z</time></trkpt><trkpt lat="39.8487888" lon="9.4991711"><ele>536.0</ele><time>2026-04-06T12:11:37.003Z</time></trkpt><trkpt lat="39.8487678" lon="9.4993205"><ele>536.0</ele><time>2026-04-06T12:11:38.004Z</time></trkpt><trkpt lat="39.8487357" lon="9.4994703"><ele>536.0</ele><time>2026-04-06T12:11:39.004Z</time></trkpt><trkpt lat="39.848694" lon="9.4996176"><ele>536.0</ele><time>2026-04-06T12:11:40.003Z</time></trkpt><trkpt lat="39.8486259" lon="9.4997461"><ele>536.0</ele><time>2026-04-06T12:11:41.003Z</time></trkpt><trkpt lat="39.8485477" lon="9.4998757"><ele>533.25</ele><time>2026-04-06T12:11:42.004Z</time></trkpt><trkpt lat="39.8484609" lon="9.5000022"><ele>530.5</ele><time>2026-04-06T12:11:43.004Z</time></trkpt><trkpt lat="39.8483709" lon="9.5001324"><ele>527.75</ele><time>2026-04-06T12:11:44.004Z</time></trkpt><trkpt lat="39.848283" lon="9.5002559"><ele>525.0</ele><time>2026-04-06T12:11:45.004Z</time></trkpt><trkpt lat="39.8482024" lon="9.5003622"><ele>525.0</ele><time>2026-04-06T12:11:46.004Z</time></trkpt><trkpt lat="39.8481208" lon="9.5004202"><ele>525.0</ele><time>2026-04-06T12:11:47.004Z</time></trkpt><trkpt lat="39.8480238" lon="9.5004446"><ele>525.0</ele><time>2026-04-06T12:11:48.004Z</time></trkpt><trkpt lat="39.8479271" lon="9.500416"><ele>525.0</ele><time>2026-04-06T12:11:49.003Z</time></trkpt><trkpt lat="39.8478358" lon="9.5003714"><ele>525.0</ele><time>2026-04-06T12:11:50.004Z</time></trkpt><trkpt lat="39.847745" lon="9.5003612"><ele>525.0</ele><time>2026-04-06T12:11:51.004Z</time></trkpt><trkpt lat="39.8476526" lon="9.500376"><ele>525.0</ele><time>2026-04-06T12:11:52.003Z</time></trkpt><trkpt lat="39.8475649" lon="9.5004325"><ele>525.0</ele><time>2026-04-06T12:11:53.004Z</time></trkpt><trkpt lat="39.8474891" lon="9.5005097"><ele>525.0</ele><time>2026-04-06T12:11:54.004Z</time></trkpt><trkpt lat="39.8474252" lon="9.5006085"><ele>525.0</ele><time>2026-04-06T12:11:55.003Z</time></trkpt><trkpt lat="39.8473626" lon="9.5007033"><ele>528.8</ele><time>2026-04-06T12:11:56.004Z</time></trkpt><trkpt lat="39.8473051" lon="9.5008008"><ele>532.6</ele><time>2026-04-06T12:11:57.003Z</time></trkpt><trkpt lat="39.8472397" lon="9.5008912"><ele>536.4</ele><time>2026-04-06T12:11:58.004Z</time></trkpt><trkpt lat="39.8471661" lon="9.5009696"><ele>540.2</ele><time>2026-04-06T12:11:59.004Z</time></trkpt><trkpt lat="39.8470813" lon="9.5010302"><ele>544.0</ele><time>2026-04-06T12:12:00.004Z</time></trkpt><trkpt lat="39.8469896" lon="9.5010927"><ele>544.0</ele><time>2026-04-06T12:12:01.004Z</time></trkpt><trkpt lat="39.8468889" lon="9.501135"><ele>544.0</ele><time>2026-04-06T12:12:02.004Z</time></trkpt><trkpt lat="39.8467871" lon="9.5011561"><ele>544.0</ele><time>2026-04-06T12:12:03.004Z</time></trkpt><trkpt lat="39.8466891" lon="9.5011769"><ele>544.0</ele><time>2026-04-06T12:12:04.004Z</time></trkpt><trkpt lat="39.8465967" lon="9.5011983"><ele>544.0</ele><time>2026-04-06T12:12:05.004Z</time></trkpt><trkpt lat="39.8465063" lon="9.5012182"><ele>545.8333333333334</ele><time>2026-04-06T12:12:06.004Z</time></trkpt><trkpt lat="39.8464262" lon="9.5012411"><ele>547.6666666666667</ele><time>2026-04-06T12:12:07.004Z</time></trkpt><trkpt lat="39.8463572" lon="9.5012727"><ele>549.5</ele><time>2026-04-06T12:12:08.004Z</time></trkpt><trkpt lat="39.8462743" lon="9.5013532"><ele>551.3333333333334</ele><time>2026-04-06T12:12:10.004Z</time></trkpt><trkpt lat="39.8462439" lon="9.5014274"><ele>553.1666666666666</ele><time>2026-04-06T12:12:13.004Z</time></trkpt><trkpt lat="39.8462673" lon="9.5015582"><ele>555.0</ele><time>2026-04-06T12:12:33.004Z</time></trkpt><trkpt lat="39.8463277" lon="9.5016208"><ele>555.0</ele><time>2026-04-06T12:12:35.003Z</time></trkpt><trkpt lat="39.8463865" lon="9.5015867"><ele>555.0</ele><time>2026-04-06T12:12:37.004Z</time></trkpt><trkpt lat="39.8464471" lon="9.5015311"><ele>555.0</ele><time>2026-04-06T12:12:41.004Z</time></trkpt><trkpt lat="39.8464225" lon="9.501448"><ele>555.0</ele><time>2026-04-06T12:13:15.004Z</time></trkpt><trkpt lat="39.8463565" lon="9.5014718"><ele>555.0</ele><time>2026-04-06T12:13:20.003Z</time></trkpt><trkpt lat="39.8464306" lon="9.5015209"><ele>555.0</ele><time>2026-04-06T12:13:24.004Z</time></trkpt></trkseg><trkseg><trkpt lat="39.8479614" lon="9.5011302"><ele>558.0</ele><time>2026-04-06T13:06:15.011Z</time></trkpt><trkpt lat="39.8481306" lon="9.5012823"><ele>558.0</ele><time>2026-04-06T13:06:18.012Z</time></trkpt><trkpt lat="39.8482039" lon="9.5012186"><ele>558.0</ele><time>2026-04-06T13:06:19.012Z</time></trkpt><trkpt lat="39.8482752" lon="9.5011202"><ele>558.0</ele><time>2026-04-06T13:06:20.012Z</time></trkpt><trkpt lat="39.8483563" lon="9.5010197"><ele>563.5</ele><time>2026-04-06T13:06:21.012Z</time></trkpt><trkpt lat="39.8484603" lon="9.5009295"><ele>569.0</ele><time>2026-04-06T13:06:22.011Z</time></trkpt><trkpt lat="39.8485844" lon="9.5008509"><ele>574.5</ele><time>2026-04-06T13:06:23.012Z</time></trkpt><trkpt lat="39.8487131" lon="9.5007729"><ele>580.0</ele><time>2026-04-06T13:06:24.012Z</time></trkpt><trkpt lat="39.8488347" lon="9.5006978"><ele>580.0</ele><time>2026-04-06T13:06:25.012Z</time></trkpt><trkpt lat="39.8489534" lon="9.5006203"><ele>580.0</ele><time>2026-04-06T13:06:26.012Z</time></trkpt><trkpt lat="39.8490749" lon="9.5005426"><ele>580.0</ele><time>2026-04-06T13:06:27.012Z</time></trkpt><trkpt lat="39.8491975" lon="9.5004612"><ele>580.0</ele><time>2026-04-06T13:06:28.012Z</time></trkpt><trkpt lat="39.8493171" lon="9.5003626"><ele>580.5</ele><time>2026-04-06T13:06:29.012Z</time></trkpt><trkpt lat="39.8494297" lon="9.5002442"><ele>581.0</ele><time>2026-04-06T13:06:30.012Z</time></trkpt><trkpt lat="39.8495393" lon="9.5001069"><ele>581.5</ele><time>2026-04-06T13:06:31.012Z</time></trkpt><trkpt lat="39.8496523" lon="9.4999768"><ele>582.0</ele><time>2026-04-06T13:06:32.012Z</time></trkpt><trkpt lat="39.8497858" lon="9.4998832"><ele>582.0</ele><time>2026-04-06T13:06:33.012Z</time></trkpt><trkpt lat="39.8499312" lon="9.4998156"><ele>582.0</ele><time>2026-04-06T13:06:34.012Z</time></trkpt><trkpt lat="39.8500736" lon="9.4997491"><ele>582.0</ele><time>2026-04-06T13:06:35.012Z</time></trkpt><trkpt lat="39.8502183" lon="9.4996777"><ele>586.0</ele><time>2026-04-06T13:06:36.012Z</time></trkpt><trkpt lat="39.8503634" lon="9.4996166"><ele>590.0</ele><time>2026-04-06T13:06:37.012Z</time></trkpt><trkpt lat="39.8505095" lon="9.4995765"><ele>594.0</ele><time>2026-04-06T13:06:38.012Z</time></trkpt><trkpt lat="39.8506581" lon="9.4995669"><ele>594.0</ele><time>2026-04-06T13:06:39.011Z</time></trkpt><trkpt lat="39.8508092" lon="9.4995842"><ele>594.0</ele><time>2026-04-06T13:06:40.012Z</time></trkpt><trkpt lat="39.8509621" lon="9.4996147"><ele>594.0</ele><time>2026-04-06T13:06:41.012Z</time></trkpt><trkpt lat="39.8511142" lon="9.4996508"><ele>594.6666666666666</ele><time>2026-04-06T13:06:42.012Z</time></trkpt><trkpt lat="39.8512681" lon="9.4996807"><ele>595.3333333333333</ele><time>2026-04-06T13:06:43.012Z</time></trkpt><trkpt lat="39.8514257" lon="9.4997123"><ele>596.0</ele><time>2026-04-06T13:06:44.012Z</time></trkpt><trkpt lat="39.8515834" lon="9.4997417"><ele>596.0</ele><time>2026-04-06T13:06:45.011Z</time></trkpt><trkpt lat="39.8517392" lon="9.4997741"><ele>596.0</ele><time>2026-04-06T13:06:46.012Z</time></trkpt><trkpt lat="39.8518871" lon="9.4998061"><ele>596.0</ele><time>2026-04-06T13:06:47.012Z</time></trkpt><trkpt lat="39.8520212" lon="9.4998327"><ele>596.0</ele><time>2026-04-06T13:06:48.012Z</time></trkpt><trkpt lat="39.852144" lon="9.4998487"><ele>594.25</ele><time>2026-04-06T13:06:49.011Z</time></trkpt><trkpt lat="39.8522633" lon="9.4998328"><ele>592.5</ele><time>2026-04-06T13:06:50.011Z</time></trkpt><trkpt lat="39.8523662" lon="9.4997839"><ele>590.75</ele><time>2026-04-06T13:06:51.012Z</time></trkpt><trkpt lat="39.852459" lon="9.4996859"><ele>589.0</ele><time>2026-04-06T13:06:52.012Z</time></trkpt><trkpt lat="39.8525374" lon="9.4995519"><ele>589.0</ele><time>2026-04-06T13:06:53.011Z</time></trkpt><trkpt lat="39.852613" lon="9.4994611"><ele>589.0</ele><time>2026-04-06T13:06:54.011Z</time></trkpt><trkpt lat="39.8526988" lon="9.4994167"><ele>589.0</ele><time>2026-04-06T13:06:55.012Z</time></trkpt><trkpt lat="39.8527744" lon="9.4994154"><ele>589.0</ele><time>2026-04-06T13:06:56.012Z</time></trkpt><trkpt lat="39.8528476" lon="9.4994162"><ele>589.0</ele><time>2026-04-06T13:06:57.012Z</time></trkpt><trkpt lat="39.8527976" lon="9.4995677"><ele>592.6</ele><time>2026-04-06T13:06:58.011Z</time></trkpt><trkpt lat="39.8527681" lon="9.4996478"><ele>596.2</ele><time>2026-04-06T13:06:59.012Z</time></trkpt><trkpt lat="39.852716" lon="9.4997476"><ele>599.8000000000001</ele><time>2026-04-06T13:07:00.012Z</time></trkpt><trkpt lat="39.8526455" lon="9.4998551"><ele>603.4</ele><time>2026-04-06T13:07:01.012Z</time></trkpt><trkpt lat="39.8525661" lon="9.4999709"><ele>607.0</ele><time>2026-04-06T13:07:02.012Z</time></trkpt><trkpt lat="39.8524661" lon="9.5000856"><ele>607.0</ele><time>2026-04-06T13:07:03.011Z</time></trkpt><trkpt lat="39.8523419" lon="9.5001828"><ele>607.0</ele><time>2026-04-06T13:07:04.012Z</time></trkpt><trkpt lat="39.8522029" lon="9.5002425"><ele>607.0</ele><time>2026-04-06T13:07:05.012Z</time></trkpt><trkpt lat="39.8520507" lon="9.5002859"><ele>607.0</ele><time>2026-04-06T13:07:06.012Z</time></trkpt><trkpt lat="39.8518961" lon="9.500339"><ele>611.3333333333334</ele><time>2026-04-06T13:07:07.012Z</time></trkpt><trkpt lat="39.8517283" lon="9.500421"><ele>615.6666666666666</ele><time>2026-04-06T13:07:08.012Z</time></trkpt><trkpt lat="39.8515654" lon="9.5005195"><ele>620.0</ele><time>2026-04-06T13:07:09.012Z</time></trkpt><trkpt lat="39.8514178" lon="9.5006346"><ele>620.0</ele><time>2026-04-06T13:07:10.011Z</time></trkpt><trkpt lat="39.8512892" lon="9.5007124"><ele>620.0</ele><time>2026-04-06T13:07:11.012Z</time></trkpt><trkpt lat="39.8511573" lon="9.5007325"><ele>620.0</ele><time>2026-04-06T13:07:12.012Z</time></trkpt><trkpt lat="39.8510311" lon="9.5007353"><ele>620.0</ele><time>2026-04-06T13:07:13.012Z</time></trkpt><trkpt lat="39.8508863" lon="9.5006461"><ele>619.5</ele><time>2026-04-06T13:07:14.012Z</time></trkpt><trkpt lat="39.8507637" lon="9.500617"><ele>619.0</ele><time>2026-04-06T13:07:15.012Z</time></trkpt><trkpt lat="39.8506451" lon="9.5006155"><ele>618.5</ele><time>2026-04-06T13:07:16.012Z</time></trkpt><trkpt lat="39.8505343" lon="9.5006675"><ele>618.0</ele><time>2026-04-06T13:07:17.011Z</time></trkpt><trkpt lat="39.8504285" lon="9.5007468"><ele>618.0</ele><time>2026-04-06T13:07:18.012Z</time></trkpt><trkpt lat="39.8503262" lon="9.5008417"><ele>618.0</ele><time>2026-04-06T13:07:19.012Z</time></trkpt><trkpt lat="39.8502356" lon="9.5009562"><ele>618.0</ele><time>2026-04-06T13:07:20.012Z</time></trkpt><trkpt lat="39.8501585" lon="9.5010856"><ele>618.0</ele><time>2026-04-06T13:07:21.011Z</time></trkpt><trkpt lat="39.8500869" lon="9.5012108"><ele>621.0</ele><time>2026-04-06T13:07:22.012Z</time></trkpt><trkpt lat="39.8500235" lon="9.5013262"><ele>624.0</ele><time>2026-04-06T13:07:23.012Z</time></trkpt><trkpt lat="39.8499462" lon="9.5014302"><ele>627.0</ele><time>2026-04-06T13:07:24.012Z</time></trkpt><trkpt lat="39.8498588" lon="9.5015111"><ele>630.0</ele><time>2026-04-06T13:07:25.012Z</time></trkpt><trkpt lat="39.8497635" lon="9.501583"><ele>633.0</ele><time>2026-04-06T13:07:26.012Z</time></trkpt><trkpt lat="39.8496621" lon="9.5016617"><ele>633.0</ele><time>2026-04-06T13:07:27.011Z</time></trkpt><trkpt lat="39.8495783" lon="9.5017397"><ele>633.0</ele><time>2026-04-06T13:07:28.012Z</time></trkpt><trkpt lat="39.8495151" lon="9.5018375"><ele>633.0</ele><time>2026-04-06T13:07:29.011Z</time></trkpt><trkpt lat="39.8494764" lon="9.5019519"><ele>633.0</ele><time>2026-04-06T13:07:30.011Z</time></trkpt><trkpt lat="39.8494545" lon="9.502079"><ele>633.0</ele><time>2026-04-06T13:07:31.012Z</time></trkpt><trkpt lat="39.8494483" lon="9.5022073"><ele>635.5999999999999</ele><time>2026-04-06T13:07:32.012Z</time></trkpt><trkpt lat="39.8494391" lon="9.5023375"><ele>638.1999999999999</ele><time>2026-04-06T13:07:33.011Z</time></trkpt><trkpt lat="39.8494195" lon="9.5024716"><ele>640.8</ele><time>2026-04-06T13:07:34.012Z</time></trkpt><trkpt lat="39.8493822" lon="9.5026"><ele>643.4</ele><time>2026-04-06T13:07:35.012Z</time></trkpt><trkpt lat="39.849344" lon="9.5026986"><ele>646.0</ele><time>2026-04-06T13:07:36.012Z</time></trkpt><trkpt lat="39.8492943" lon="9.5027878"><ele>647.5</ele><time>2026-04-06T13:07:37.012Z</time></trkpt><trkpt lat="39.8492244" lon="9.5028902"><ele>649.0</ele><time>2026-04-06T13:07:38.012Z</time></trkpt><trkpt lat="39.8491435" lon="9.5029875"><ele>650.5</ele><time>2026-04-06T13:07:39.012Z</time></trkpt><trkpt lat="39.8490488" lon="9.5030846"><ele>652.0</ele><time>2026-04-06T13:07:40.012Z</time></trkpt><trkpt lat="39.8489433" lon="9.5031888"><ele>652.0</ele><time>2026-04-06T13:07:41.011Z</time></trkpt><trkpt lat="39.8488334" lon="9.5033041"><ele>652.0</ele><time>2026-04-06T13:07:42.012Z</time></trkpt><trkpt lat="39.8487173" lon="9.5034257"><ele>652.0</ele><time>2026-04-06T13:07:43.012Z</time></trkpt><trkpt lat="39.8485914" lon="9.5035555"><ele>652.0</ele><time>2026-04-06T13:07:44.012Z</time></trkpt><trkpt lat="39.8484615" lon="9.5036873"><ele>652.0</ele><time>2026-04-06T13:07:45.012Z</time></trkpt><trkpt lat="39.8483248" lon="9.5038225"><ele>652.0</ele><time>2026-04-06T13:07:46.012Z</time></trkpt><trkpt lat="39.848182" lon="9.5039452"><ele>654.0</ele><time>2026-04-06T13:07:47.011Z</time></trkpt><trkpt lat="39.8480378" lon="9.5040223"><ele>656.0</ele><time>2026-04-06T13:07:48.012Z</time></trkpt><trkpt lat="39.8479022" lon="9.5040755"><ele>658.0</ele><time>2026-04-06T13:07:49.012Z</time></trkpt><trkpt lat="39.8477879" lon="9.5041123"><ele>660.0</ele><time>2026-04-06T13:07:50.011Z</time></trkpt><trkpt lat="39.8477022" lon="9.5041681"><ele>660.0</ele><time>2026-04-06T13:07:51.012Z</time></trkpt><trkpt lat="39.8476397" lon="9.5042607"><ele>660.0</ele><time>2026-04-06T13:07:52.012Z</time></trkpt><trkpt lat="39.8476172" lon="9.504383"><ele>660.0</ele><time>2026-04-06T13:07:53.012Z</time></trkpt><trkpt lat="39.847635" lon="9.5045259"><ele>660.0</ele><time>2026-04-06T13:07:54.012Z</time></trkpt><trkpt lat="39.847688" lon="9.5046641"><ele>660.0</ele><time>2026-04-06T13:07:55.012Z</time></trkpt><trkpt lat="39.8477669" lon="9.5047953"><ele>662.0</ele><time>2026-04-06T13:07:56.012Z</time></trkpt><trkpt lat="39.8478437" lon="9.50491"><ele>664.0</ele><time>2026-04-06T13:07:57.012Z</time></trkpt><trkpt lat="39.8479054" lon="9.5050148"><ele>666.0</ele><time>2026-04-06T13:07:58.012Z</time></trkpt><trkpt lat="39.8479367" lon="9.505118"><ele>668.0</ele><time>2026-04-06T13:07:59.011Z</time></trkpt><trkpt lat="39.847933" lon="9.5052117"><ele>670.0</ele><time>2026-04-06T13:08:00.011Z</time></trkpt><trkpt lat="39.8478366" lon="9.5052969"><ele>670.0</ele><time>2026-04-06T13:08:02.012Z</time></trkpt><trkpt lat="39.8477726" lon="9.5052645"><ele>670.0</ele><time>2026-04-06T13:08:03.012Z</time></trkpt><trkpt lat="39.8477036" lon="9.5052297"><ele>670.0</ele><time>2026-04-06T13:08:04.012Z</time></trkpt><trkpt lat="39.8476205" lon="9.50523"><ele>670.0</ele><time>2026-04-06T13:08:05.011Z</time></trkpt><trkpt lat="39.8475471" lon="9.5052813"><ele>670.0</ele><time>2026-04-06T13:08:06.011Z</time></trkpt><trkpt lat="39.8474704" lon="9.5053286"><ele>670.0</ele><time>2026-04-06T13:08:07.012Z</time></trkpt><trkpt lat="39.8474893" lon="9.5054739"><ele>669.8</ele><time>2026-04-06T13:08:08.012Z</time></trkpt><trkpt lat="39.8474846" lon="9.5055651"><ele>669.6</ele><time>2026-04-06T13:08:09.012Z</time></trkpt><trkpt lat="39.8475189" lon="9.5056653"><ele>669.4000000000001</ele><time>2026-04-06T13:08:10.012Z</time></trkpt><trkpt lat="39.8476438" lon="9.5056845"><ele>669.2</ele><time>2026-04-06T13:08:11.012Z</time></trkpt><trkpt lat="39.8477345" lon="9.5057036"><ele>669.0</ele><time>2026-04-06T13:08:12.012Z</time></trkpt><trkpt lat="39.8478402" lon="9.5057084"><ele>670.25</ele><time>2026-04-06T13:08:13.012Z</time></trkpt><trkpt lat="39.8479529" lon="9.5056779"><ele>671.5</ele><time>2026-04-06T13:08:14.012Z</time></trkpt><trkpt lat="39.8480675" lon="9.5056269"><ele>672.75</ele><time>2026-04-06T13:08:15.012Z</time></trkpt><trkpt lat="39.8481836" lon="9.5055533"><ele>674.0</ele><time>2026-04-06T13:08:16.012Z</time></trkpt><trkpt lat="39.8482855" lon="9.5054807"><ele>673.0</ele><time>2026-04-06T13:08:17.012Z</time></trkpt><trkpt lat="39.8483711" lon="9.5054064"><ele>672.0</ele><time>2026-04-06T13:08:18.012Z</time></trkpt><trkpt lat="39.8484479" lon="9.5053055"><ele>671.0</ele><time>2026-04-06T13:08:19.011Z</time></trkpt><trkpt lat="39.8485036" lon="9.5051712"><ele>670.0</ele><time>2026-04-06T13:08:20.012Z</time></trkpt><trkpt lat="39.8485378" lon="9.5050171"><ele>671.25</ele><time>2026-04-06T13:08:21.011Z</time></trkpt><trkpt lat="39.8485824" lon="9.5048581"><ele>672.5</ele><time>2026-04-06T13:08:22.012Z</time></trkpt><trkpt lat="39.84864" lon="9.5047039"><ele>673.75</ele><time>2026-04-06T13:08:23.012Z</time></trkpt><trkpt lat="39.8487171" lon="9.5045438"><ele>675.0</ele><time>2026-04-06T13:08:24.011Z</time></trkpt><trkpt lat="39.848811" lon="9.5044058"><ele>675.0</ele><time>2026-04-06T13:08:25.012Z</time></trkpt><trkpt lat="39.8489227" lon="9.5042752"><ele>675.0</ele><time>2026-04-06T13:08:26.012Z</time></trkpt><trkpt lat="39.849046" lon="9.5041611"><ele>675.0</ele><time>2026-04-06T13:08:27.012Z</time></trkpt><trkpt lat="39.8491711" lon="9.5040541"><ele>675.0</ele><time>2026-04-06T13:08:28.012Z</time></trkpt><trkpt lat="39.8492913" lon="9.5039549"><ele>675.0</ele><time>2026-04-06T13:08:29.011Z</time></trkpt><trkpt lat="39.8494004" lon="9.5038633"><ele>675.0</ele><time>2026-04-06T13:08:30.012Z</time></trkpt><trkpt lat="39.8494965" lon="9.5037801"><ele>675.0</ele><time>2026-04-06T13:08:31.012Z</time></trkpt><trkpt lat="39.8495856" lon="9.5037066"><ele>674.0</ele><time>2026-04-06T13:08:32.012Z</time></trkpt><trkpt lat="39.8496748" lon="9.5036324"><ele>673.0</ele><time>2026-04-06T13:08:33.012Z</time></trkpt><trkpt lat="39.849774" lon="9.5035684"><ele>672.0</ele><time>2026-04-06T13:08:34.012Z</time></trkpt><trkpt lat="39.8498864" lon="9.5035292"><ele>671.0</ele><time>2026-04-06T13:08:35.012Z</time></trkpt><trkpt lat="39.8500092" lon="9.5035014"><ele>673.25</ele><time>2026-04-06T13:08:36.011Z</time></trkpt><trkpt lat="39.8501348" lon="9.5034973"><ele>675.5</ele><time>2026-04-06T13:08:37.012Z</time></trkpt><trkpt lat="39.8502655" lon="9.5035298"><ele>677.75</ele><time>2026-04-06T13:08:38.011Z</time></trkpt><trkpt lat="39.8503899" lon="9.5035619"><ele>680.0</ele><time>2026-04-06T13:08:39.012Z</time></trkpt><trkpt lat="39.8505218" lon="9.503585"><ele>680.0</ele><time>2026-04-06T13:08:40.012Z</time></trkpt><trkpt lat="39.8506488" lon="9.5035892"><ele>680.0</ele><time>2026-04-06T13:08:41.012Z</time></trkpt><trkpt lat="39.8507763" lon="9.5035738"><ele>680.0</ele><time>2026-04-06T13:08:42.012Z</time></trkpt><trkpt lat="39.8508988" lon="9.503545"><ele>680.0</ele><time>2026-04-06T13:08:43.012Z</time></trkpt><trkpt lat="39.8510194" lon="9.503512"><ele>688.0</ele><time>2026-04-06T13:08:44.011Z</time></trkpt><trkpt lat="39.8511299" lon="9.5034578"><ele>696.0</ele><time>2026-04-06T13:08:45.012Z</time></trkpt><trkpt lat="39.8512249" lon="9.5033712"><ele>704.0</ele><time>2026-04-06T13:08:46.011Z</time></trkpt><trkpt lat="39.8513007" lon="9.5032482"><ele>712.0</ele><time>2026-04-06T13:08:47.012Z</time></trkpt><trkpt lat="39.8513616" lon="9.5031217"><ele>712.0</ele><time>2026-04-06T13:08:48.012Z</time></trkpt><trkpt lat="39.8514207" lon="9.5030023"><ele>712.0</ele><time>2026-04-06T13:08:49.011Z</time></trkpt><trkpt lat="39.8514789" lon="9.5028848"><ele>712.0</ele><time>2026-04-06T13:08:50.012Z</time></trkpt><trkpt lat="39.851546" lon="9.5027721"><ele>712.0</ele><time>2026-04-06T13:08:51.012Z</time></trkpt><trkpt lat="39.8516179" lon="9.5026671"><ele>712.0</ele><time>2026-04-06T13:08:52.012Z</time></trkpt><trkpt lat="39.8517026" lon="9.5025794"><ele>710.8</ele><time>2026-04-06T13:08:53.012Z</time></trkpt><trkpt lat="39.851799" lon="9.5024937"><ele>709.6</ele><time>2026-04-06T13:08:54.012Z</time></trkpt><trkpt lat="39.8519051" lon="9.5024371"><ele>708.4</ele><time>2026-04-06T13:08:55.012Z</time></trkpt><trkpt lat="39.8520102" lon="9.5024196"><ele>707.1999999999999</ele><time>2026-04-06T13:08:56.012Z</time></trkpt><trkpt lat="39.852106" lon="9.5024268"><ele>706.0</ele><time>2026-04-06T13:08:57.012Z</time></trkpt><trkpt lat="39.8522013" lon="9.502429"><ele>706.0</ele><time>2026-04-06T13:08:58.011Z</time></trkpt><trkpt lat="39.8523101" lon="9.5024295"><ele>706.0</ele><time>2026-04-06T13:08:59.012Z</time></trkpt><trkpt lat="39.8524447" lon="9.5023644"><ele>706.0</ele><time>2026-04-06T13:09:00.012Z</time></trkpt><trkpt lat="39.8525937" lon="9.5022731"><ele>706.0</ele><time>2026-04-06T13:09:01.012Z</time></trkpt><trkpt lat="39.8527475" lon="9.5021371"><ele>708.3333333333334</ele><time>2026-04-06T13:09:02.011Z</time></trkpt><trkpt lat="39.852881" lon="9.5019814"><ele>710.6666666666666</ele><time>2026-04-06T13:09:03.012Z</time></trkpt><trkpt lat="39.852995" lon="9.5018113"><ele>713.0</ele><time>2026-04-06T13:09:04.011Z</time></trkpt><trkpt lat="39.853097" lon="9.5016316"><ele>713.0</ele><time>2026-04-06T13:09:05.012Z</time></trkpt><trkpt lat="39.8531974" lon="9.5014466"><ele>713.0</ele><time>2026-04-06T13:09:06.012Z</time></trkpt><trkpt lat="39.8533037" lon="9.5012674"><ele>713.0</ele><time>2026-04-06T13:09:07.011Z</time></trkpt><trkpt lat="39.8534103" lon="9.5011179"><ele>711.75</ele><time>2026-04-06T13:09:08.011Z</time></trkpt><trkpt lat="39.8535155" lon="9.5009961"><ele>710.5</ele><time>2026-04-06T13:09:09.011Z</time></trkpt><trkpt lat="39.8536281" lon="9.5008995"><ele>709.25</ele><time>2026-04-06T13:09:10.012Z</time></trkpt><trkpt lat="39.8537632" lon="9.5008375"><ele>708.0</ele><time>2026-04-06T13:09:11.012Z</time></trkpt><trkpt lat="39.8539022" lon="9.5007858"><ele>708.0</ele><time>2026-04-06T13:09:12.011Z</time></trkpt><trkpt lat="39.8540565" lon="9.5008465"><ele>708.0</ele><time>2026-04-06T13:09:13.011Z</time></trkpt><trkpt lat="39.8541852" lon="9.5008837"><ele>708.0</ele><time>2026-04-06T13:09:14.012Z</time></trkpt><trkpt lat="39.8542999" lon="9.5009207"><ele>708.0</ele><time>2026-04-06T13:09:15.012Z</time></trkpt><trkpt lat="39.8544052" lon="9.5009441"><ele>716.25</ele><time>2026-04-06T13:09:16.012Z</time></trkpt><trkpt lat="39.8545026" lon="9.5009257"><ele>724.5</ele><time>2026-04-06T13:09:17.011Z</time></trkpt><trkpt lat="39.8545903" lon="9.5008501"><ele>732.75</ele><time>2026-04-06T13:09:18.012Z</time></trkpt><trkpt lat="39.854678" lon="9.5007069"><ele>741.0</ele><time>2026-04-06T13:09:19.012Z</time></trkpt><trkpt lat="39.8547585" lon="9.5005458"><ele>733.6666666666666</ele><time>2026-04-06T13:09:20.012Z</time></trkpt><trkpt lat="39.8548409" lon="9.5003767"><ele>726.3333333333333</ele><time>2026-04-06T13:09:21.012Z</time></trkpt><trkpt lat="39.8549077" lon="9.5002028"><ele>719.0</ele><time>2026-04-06T13:09:22.012Z</time></trkpt><trkpt lat="39.8549423" lon="9.5000142"><ele>719.0</ele><time>2026-04-06T13:09:23.012Z</time></trkpt><trkpt lat="39.854959" lon="9.4998347"><ele>719.0</ele><time>2026-04-06T13:09:24.011Z</time></trkpt><trkpt lat="39.8549832" lon="9.4996583"><ele>719.0</ele><time>2026-04-06T13:09:25.012Z</time></trkpt><trkpt lat="39.8550243" lon="9.4995234"><ele>719.0</ele><time>2026-04-06T13:09:26.012Z</time></trkpt><trkpt lat="39.8550945" lon="9.4994155"><ele>725.75</ele><time>2026-04-06T13:09:27.012Z</time></trkpt><trkpt lat="39.8551965" lon="9.4993169"><ele>732.5</ele><time>2026-04-06T13:09:28.012Z</time></trkpt><trkpt lat="39.8553057" lon="9.4991972"><ele>739.25</ele><time>2026-04-06T13:09:29.011Z</time></trkpt><trkpt lat="39.8554175" lon="9.4990499"><ele>746.0</ele><time>2026-04-06T13:09:30.012Z</time></trkpt><trkpt lat="39.8555341" lon="9.498882"><ele>737.0</ele><time>2026-04-06T13:09:31.012Z</time></trkpt><trkpt lat="39.855665" lon="9.4987028"><ele>728.0</ele><time>2026-04-06T13:09:32.011Z</time></trkpt><trkpt lat="39.8558016" lon="9.4985087"><ele>719.0</ele><time>2026-04-06T13:09:33.011Z</time></trkpt><trkpt lat="39.855938" lon="9.498308"><ele>724.6666666666666</ele><time>2026-04-06T13:09:34.012Z</time></trkpt><trkpt lat="39.8560727" lon="9.4981064"><ele>730.3333333333334</ele><time>2026-04-06T13:09:35.011Z</time></trkpt><trkpt lat="39.856193" lon="9.4978927"><ele>736.0</ele><time>2026-04-06T13:09:36.012Z</time></trkpt><trkpt lat="39.8562839" lon="9.4976822"><ele>736.0</ele><time>2026-04-06T13:09:37.012Z</time></trkpt><trkpt lat="39.8563479" lon="9.4974765"><ele>736.0</ele><time>2026-04-06T13:09:38.012Z</time></trkpt><trkpt lat="39.8563897" lon="9.4972907"><ele>736.0</ele><time>2026-04-06T13:09:39.012Z</time></trkpt><trkpt lat="39.8564246" lon="9.4971224"><ele>736.75</ele><time>2026-04-06T13:09:40.012Z</time></trkpt><trkpt lat="39.856483" lon="9.4969939"><ele>737.5</ele><time>2026-04-06T13:09:41.011Z</time></trkpt><trkpt lat="39.8565671" lon="9.4969162"><ele>738.25</ele><time>2026-04-06T13:09:42.012Z</time></trkpt><trkpt lat="39.8566878" lon="9.4968881"><ele>739.0</ele><time>2026-04-06T13:09:43.011Z</time></trkpt><trkpt lat="39.8568272" lon="9.4968943"><ele>739.0</ele><time>2026-04-06T13:09:44.012Z</time></trkpt><trkpt lat="39.8569684" lon="9.4969388"><ele>739.0</ele><time>2026-04-06T13:09:45.012Z</time></trkpt><trkpt lat="39.857118" lon="9.4970079"><ele>739.0</ele><time>2026-04-06T13:09:46.012Z</time></trkpt><trkpt lat="39.8572672" lon="9.4970673"><ele>744.0</ele><time>2026-04-06T13:09:47.011Z</time></trkpt><trkpt lat="39.8574007" lon="9.4971167"><ele>749.0</ele><time>2026-04-06T13:09:48.012Z</time></trkpt><trkpt lat="39.8575231" lon="9.4971454"><ele>754.0</ele><time>2026-04-06T13:09:49.012Z</time></trkpt><trkpt lat="39.8576364" lon="9.4971377"><ele>759.0</ele><time>2026-04-06T13:09:50.012Z</time></trkpt><trkpt lat="39.8577407" lon="9.4970891"><ele>764.0</ele><time>2026-04-06T13:09:51.012Z</time></trkpt><trkpt lat="39.8578164" lon="9.4969979"><ele>769.0</ele><time>2026-04-06T13:09:52.012Z</time></trkpt><trkpt lat="39.8578703" lon="9.4968849"><ele>774.0</ele><time>2026-04-06T13:09:53.011Z</time></trkpt><trkpt lat="39.8579035" lon="9.496744"><ele>779.0</ele><time>2026-04-06T13:09:54.011Z</time></trkpt><trkpt lat="39.8579281" lon="9.4965804"><ele>784.0</ele><time>2026-04-06T13:09:55.012Z</time></trkpt><trkpt lat="39.8579405" lon="9.4964086"><ele>779.5</ele><time>2026-04-06T13:09:56.012Z</time></trkpt><trkpt lat="39.8579429" lon="9.496242"><ele>775.0</ele><time>2026-04-06T13:09:57.012Z</time></trkpt><trkpt lat="39.8579477" lon="9.4960854"><ele>770.5</ele><time>2026-04-06T13:09:58.011Z</time></trkpt><trkpt lat="39.8579563" lon="9.4959389"><ele>766.0</ele><time>2026-04-06T13:09:59.012Z</time></trkpt><trkpt lat="39.857973" lon="9.4958159"><ele>766.0</ele><time>2026-04-06T13:10:00.012Z</time></trkpt><trkpt lat="39.8580116" lon="9.4956943"><ele>766.0</ele><time>2026-04-06T13:10:01.012Z</time></trkpt><trkpt lat="39.8580784" lon="9.495598"><ele>766.0</ele><time>2026-04-06T13:10:02.012Z</time></trkpt><trkpt lat="39.8581751" lon="9.4955109"><ele>766.0</ele><time>2026-04-06T13:10:03.012Z</time></trkpt><trkpt lat="39.8582723" lon="9.4954174"><ele>766.0</ele><time>2026-04-06T13:10:04.012Z</time></trkpt><trkpt lat="39.8583744" lon="9.4953052"><ele>769.5</ele><time>2026-04-06T13:10:05.012Z</time></trkpt><trkpt lat="39.8584686" lon="9.4951791"><ele>773.0</ele><time>2026-04-06T13:10:06.012Z</time></trkpt><trkpt lat="39.8585571" lon="9.4950414"><ele>776.5</ele><time>2026-04-06T13:10:07.012Z</time></trkpt><trkpt lat="39.8586409" lon="9.4949173"><ele>780.0</ele><time>2026-04-06T13:10:08.012Z</time></trkpt><trkpt lat="39.8587218" lon="9.4948149"><ele>780.0</ele><time>2026-04-06T13:10:09.012Z</time></trkpt><trkpt lat="39.858817" lon="9.4947519"><ele>780.0</ele><time>2026-04-06T13:10:10.011Z</time></trkpt><trkpt lat="39.8589252" lon="9.4947247"><ele>780.0</ele><time>2026-04-06T13:10:11.011Z</time></trkpt><trkpt lat="39.8590294" lon="9.4946785"><ele>780.0</ele><time>2026-04-06T13:10:12.012Z</time></trkpt><trkpt lat="39.8591215" lon="9.4945987"><ele>780.0</ele><time>2026-04-06T13:10:13.011Z</time></trkpt><trkpt lat="39.8591915" lon="9.4944782"><ele>785.5</ele><time>2026-04-06T13:10:14.012Z</time></trkpt><trkpt lat="39.8592276" lon="9.4943266"><ele>791.0</ele><time>2026-04-06T13:10:15.011Z</time></trkpt><trkpt lat="39.8592529" lon="9.4941606"><ele>796.5</ele><time>2026-04-06T13:10:16.012Z</time></trkpt><trkpt lat="39.8592984" lon="9.4940005"><ele>802.0</ele><time>2026-04-06T13:10:17.012Z</time></trkpt><trkpt lat="39.8593858" lon="9.4938577"><ele>798.25</ele><time>2026-04-06T13:10:18.012Z</time></trkpt><trkpt lat="39.8594777" lon="9.493714"><ele>794.5</ele><time>2026-04-06T13:10:19.012Z</time></trkpt><trkpt lat="39.8595464" lon="9.4935403"><ele>790.75</ele><time>2026-04-06T13:10:20.012Z</time></trkpt><trkpt lat="39.8596119" lon="9.4933593"><ele>787.0</ele><time>2026-04-06T13:10:21.012Z</time></trkpt><trkpt lat="39.8596971" lon="9.493195"><ele>787.0</ele><time>2026-04-06T13:10:22.012Z</time></trkpt><trkpt lat="39.8598018" lon="9.4930405"><ele>787.0</ele><time>2026-04-06T13:10:23.012Z</time></trkpt><trkpt lat="39.8599092" lon="9.4928776"><ele>787.0</ele><time>2026-04-06T13:10:24.012Z</time></trkpt><trkpt lat="39.8600006" lon="9.4926918"><ele>781.0</ele><time>2026-04-06T13:10:25.012Z</time></trkpt><trkpt lat="39.8600993" lon="9.4925144"><ele>775.0</ele><time>2026-04-06T13:10:26.011Z</time></trkpt><trkpt lat="39.8602211" lon="9.4923484"><ele>769.0</ele><time>2026-04-06T13:10:27.012Z</time></trkpt><trkpt lat="39.8603461" lon="9.4921955"><ele>772.0</ele><time>2026-04-06T13:10:28.012Z</time></trkpt><trkpt lat="39.8604805" lon="9.4920425"><ele>775.0</ele><time>2026-04-06T13:10:29.012Z</time></trkpt><trkpt lat="39.8606141" lon="9.4918909"><ele>778.0</ele><time>2026-04-06T13:10:30.011Z</time></trkpt><trkpt lat="39.8607472" lon="9.4917394"><ele>778.0</ele><time>2026-04-06T13:10:31.012Z</time></trkpt><trkpt lat="39.8608761" lon="9.4915818"><ele>778.0</ele><time>2026-04-06T13:10:32.011Z</time></trkpt><trkpt lat="39.8610025" lon="9.4914215"><ele>778.0</ele><time>2026-04-06T13:10:33.012Z</time></trkpt><trkpt lat="39.8611229" lon="9.4912638"><ele>784.6666666666666</ele><time>2026-04-06T13:10:34.011Z</time></trkpt><trkpt lat="39.8612351" lon="9.4911055"><ele>791.3333333333333</ele><time>2026-04-06T13:10:35.011Z</time></trkpt><trkpt lat="39.8613346" lon="9.4909591"><ele>798.0</ele><time>2026-04-06T13:10:36.012Z</time></trkpt><trkpt lat="39.8614368" lon="9.4908239"><ele>798.0</ele><time>2026-04-06T13:10:37.011Z</time></trkpt><trkpt lat="39.8615453" lon="9.490715"><ele>798.0</ele><time>2026-04-06T13:10:38.012Z</time></trkpt><trkpt lat="39.8616544" lon="9.4906468"><ele>798.0</ele><time>2026-04-06T13:10:39.012Z</time></trkpt><trkpt lat="39.8617551" lon="9.4906033"><ele>798.0</ele><time>2026-04-06T13:10:40.012Z</time></trkpt><trkpt lat="39.8618339" lon="9.4905197"><ele>803.25</ele><time>2026-04-06T13:10:41.012Z</time></trkpt><trkpt lat="39.861897" lon="9.4903921"><ele>808.5</ele><time>2026-04-06T13:10:42.012Z</time></trkpt><trkpt lat="39.8619362" lon="9.4902378"><ele>813.75</ele><time>2026-04-06T13:10:43.012Z</time></trkpt><trkpt lat="39.8619812" lon="9.4900801"><ele>819.0</ele><time>2026-04-06T13:10:44.012Z</time></trkpt><trkpt lat="39.8620407" lon="9.489911"><ele>819.0</ele><time>2026-04-06T13:10:45.012Z</time></trkpt><trkpt lat="39.8621084" lon="9.4897233"><ele>819.0</ele><time>2026-04-06T13:10:46.011Z</time></trkpt><trkpt lat="39.8621792" lon="9.48955"><ele>819.0</ele><time>2026-04-06T13:10:47.011Z</time></trkpt><trkpt lat="39.8622558" lon="9.4893961"><ele>822.25</ele><time>2026-04-06T13:10:48.012Z</time></trkpt><trkpt lat="39.8623431" lon="9.4892723"><ele>825.5</ele><time>2026-04-06T13:10:49.012Z</time></trkpt><trkpt lat="39.8624466" lon="9.4891946"><ele>828.75</ele><time>2026-04-06T13:10:50.012Z</time></trkpt><trkpt lat="39.8625425" lon="9.4891207"><ele>832.0</ele><time>2026-04-06T13:10:51.012Z</time></trkpt><trkpt lat="39.8626184" lon="9.4889805"><ele>832.0</ele><time>2026-04-06T13:10:52.011Z</time></trkpt><trkpt lat="39.8626901" lon="9.4888307"><ele>832.0</ele><time>2026-04-06T13:10:53.012Z</time></trkpt><trkpt lat="39.8627807" lon="9.4886756"><ele>832.0</ele><time>2026-04-06T13:10:54.011Z</time></trkpt><trkpt lat="39.8629012" lon="9.4885295"><ele>823.3333333333333</ele><time>2026-04-06T13:10:55.011Z</time></trkpt><trkpt lat="39.8630365" lon="9.4884122"><ele>814.6666666666667</ele><time>2026-04-06T13:10:56.011Z</time></trkpt><trkpt lat="39.8632059" lon="9.4882981"><ele>806.0</ele><time>2026-04-06T13:10:57.012Z</time></trkpt><trkpt lat="39.8633752" lon="9.4881702"><ele>806.3333333333334</ele><time>2026-04-06T13:10:58.011Z</time></trkpt><trkpt lat="39.8635534" lon="9.4880515"><ele>806.6666666666667</ele><time>2026-04-06T13:10:59.011Z</time></trkpt><trkpt lat="39.8637348" lon="9.4879191"><ele>807.0</ele><time>2026-04-06T13:11:00.012Z</time></trkpt><trkpt lat="39.8639106" lon="9.4877898"><ele>807.0</ele><time>2026-04-06T13:11:01.012Z</time></trkpt><trkpt lat="39.8640684" lon="9.4876567"><ele>807.0</ele><time>2026-04-06T13:11:02.012Z</time></trkpt><trkpt lat="39.8642234" lon="9.4875336"><ele>807.0</ele><time>2026-04-06T13:11:03.011Z</time></trkpt><trkpt lat="39.8643649" lon="9.4874069"><ele>806.25</ele><time>2026-04-06T13:11:04.012Z</time></trkpt><trkpt lat="39.8644749" lon="9.4872641"><ele>805.5</ele><time>2026-04-06T13:11:05.012Z</time></trkpt><trkpt lat="39.8645507" lon="9.4871051"><ele>804.75</ele><time>2026-04-06T13:11:06.012Z</time></trkpt><trkpt lat="39.8646087" lon="9.4869328"><ele>804.0</ele><time>2026-04-06T13:11:07.012Z</time></trkpt><trkpt lat="39.8646632" lon="9.4867861"><ele>801.8000000000001</ele><time>2026-04-06T13:11:08.012Z</time></trkpt><trkpt lat="39.8647267" lon="9.4866784"><ele>799.6</ele><time>2026-04-06T13:11:09.011Z</time></trkpt><trkpt lat="39.8648005" lon="9.4866302"><ele>797.4</ele><time>2026-04-06T13:11:10.011Z</time></trkpt><trkpt lat="39.8648727" lon="9.486639"><ele>795.2</ele><time>2026-04-06T13:11:11.012Z</time></trkpt><trkpt lat="39.8649395" lon="9.4867123"><ele>793.0</ele><time>2026-04-06T13:11:12.011Z</time></trkpt><trkpt lat="39.865001" lon="9.4868211"><ele>793.0</ele><time>2026-04-06T13:11:13.012Z</time></trkpt><trkpt lat="39.8650455" lon="9.4869572"><ele>793.0</ele><time>2026-04-06T13:11:14.012Z</time></trkpt><trkpt lat="39.8650381" lon="9.4871055"><ele>793.0</ele><time>2026-04-06T13:11:15.012Z</time></trkpt><trkpt lat="39.8650135" lon="9.4872675"><ele>793.0</ele><time>2026-04-06T13:11:16.011Z</time></trkpt><trkpt lat="39.8649976" lon="9.4874509"><ele>796.6666666666666</ele><time>2026-04-06T13:11:17.012Z</time></trkpt><trkpt lat="39.8650101" lon="9.4876461"><ele>800.3333333333333</ele><time>2026-04-06T13:11:18.012Z</time></trkpt><trkpt lat="39.8650401" lon="9.4878506"><ele>804.0</ele><time>2026-04-06T13:11:19.012Z</time></trkpt><trkpt lat="39.8650738" lon="9.4880551"><ele>803.25</ele><time>2026-04-06T13:11:20.012Z</time></trkpt><trkpt lat="39.8651084" lon="9.4882587"><ele>802.5</ele><time>2026-04-06T13:11:21.012Z</time></trkpt><trkpt lat="39.8651538" lon="9.488442"><ele>801.75</ele><time>2026-04-06T13:11:22.012Z</time></trkpt><trkpt lat="39.8652219" lon="9.4885918"><ele>801.0</ele><time>2026-04-06T13:11:23.011Z</time></trkpt><trkpt lat="39.8653086" lon="9.4887365"><ele>806.75</ele><time>2026-04-06T13:11:24.012Z</time></trkpt><trkpt lat="39.8654366" lon="9.4888182"><ele>812.5</ele><time>2026-04-06T13:11:25.012Z</time></trkpt><trkpt lat="39.8655243" lon="9.4889365"><ele>818.25</ele><time>2026-04-06T13:11:26.012Z</time></trkpt><trkpt lat="39.8656115" lon="9.4890456"><ele>824.0</ele><time>2026-04-06T13:11:27.012Z</time></trkpt><trkpt lat="39.8657343" lon="9.4891025"><ele>824.0</ele><time>2026-04-06T13:11:28.011Z</time></trkpt><trkpt lat="39.8658693" lon="9.4891505"><ele>824.0</ele><time>2026-04-06T13:11:29.012Z</time></trkpt><trkpt lat="39.8659897" lon="9.4892492"><ele>824.0</ele><time>2026-04-06T13:11:30.012Z</time></trkpt><trkpt lat="39.8661011" lon="9.4893799"><ele>824.0</ele><time>2026-04-06T13:11:31.012Z</time></trkpt><trkpt lat="39.8661913" lon="9.4895427"><ele>826.3333333333334</ele><time>2026-04-06T13:11:32.012Z</time></trkpt><trkpt lat="39.8662522" lon="9.4897411"><ele>828.6666666666667</ele><time>2026-04-06T13:11:33.011Z</time></trkpt><trkpt lat="39.8662923" lon="9.4899494"><ele>831.0</ele><time>2026-04-06T13:11:34.011Z</time></trkpt><trkpt lat="39.8663402" lon="9.4901436"><ele>831.0</ele><time>2026-04-06T13:11:35.012Z</time></trkpt><trkpt lat="39.8664197" lon="9.4903272"><ele>831.0</ele><time>2026-04-06T13:11:36.012Z</time></trkpt><trkpt lat="39.8665228" lon="9.4905138"><ele>831.0</ele><time>2026-04-06T13:11:37.012Z</time></trkpt><trkpt lat="39.8666543" lon="9.490714"><ele>835.0</ele><time>2026-04-06T13:11:38.012Z</time></trkpt><trkpt lat="39.8667635" lon="9.4909335"><ele>839.0</ele><time>2026-04-06T13:11:39.012Z</time></trkpt><trkpt lat="39.8668722" lon="9.4911577"><ele>843.0</ele><time>2026-04-06T13:11:40.011Z</time></trkpt><trkpt lat="39.8669672" lon="9.4913886"><ele>843.0</ele><time>2026-04-06T13:11:41.012Z</time></trkpt><trkpt lat="39.8670262" lon="9.4916385"><ele>843.0</ele><time>2026-04-06T13:11:42.012Z</time></trkpt><trkpt lat="39.8670588" lon="9.4918768"><ele>843.0</ele><time>2026-04-06T13:11:43.012Z</time></trkpt><trkpt lat="39.8670951" lon="9.4920892"><ele>845.0</ele><time>2026-04-06T13:11:44.012Z</time></trkpt><trkpt lat="39.867135" lon="9.4922883"><ele>847.0</ele><time>2026-04-06T13:11:45.012Z</time></trkpt><trkpt lat="39.8671588" lon="9.4924998"><ele>849.0</ele><time>2026-04-06T13:11:46.011Z</time></trkpt><trkpt lat="39.8671656" lon="9.4927256"><ele>849.3333333333333</ele><time>2026-04-06T13:11:47.012Z</time></trkpt><trkpt lat="39.8671548" lon="9.4929506"><ele>849.6666666666666</ele><time>2026-04-06T13:11:48.012Z</time></trkpt><trkpt lat="39.8671744" lon="9.4931605"><ele>850.0</ele><time>2026-04-06T13:11:49.012Z</time></trkpt><trkpt lat="39.8671785" lon="9.4933572"><ele>850.0</ele><time>2026-04-06T13:11:50.012Z</time></trkpt><trkpt lat="39.8671881" lon="9.4935367"><ele>850.0</ele><time>2026-04-06T13:11:51.012Z</time></trkpt><trkpt lat="39.86721" lon="9.4936998"><ele>850.0</ele><time>2026-04-06T13:11:52.012Z</time></trkpt><trkpt lat="39.8672596" lon="9.4938498"><ele>850.0</ele><time>2026-04-06T13:11:53.012Z</time></trkpt><trkpt lat="39.8673161" lon="9.4940063"><ele>854.3333333333333</ele><time>2026-04-06T13:11:54.012Z</time></trkpt><trkpt lat="39.8674853" lon="9.4941198"><ele>858.6666666666667</ele><time>2026-04-06T13:11:55.012Z</time></trkpt><trkpt lat="39.8676165" lon="9.4942587"><ele>863.0</ele><time>2026-04-06T13:11:56.012Z</time></trkpt><trkpt lat="39.8677466" lon="9.4944057"><ele>862.6666666666667</ele><time>2026-04-06T13:11:57.012Z</time></trkpt><trkpt lat="39.8678787" lon="9.4945602"><ele>862.3333333333333</ele><time>2026-04-06T13:11:58.012Z</time></trkpt><trkpt lat="39.8680137" lon="9.4947031"><ele>862.0</ele><time>2026-04-06T13:11:59.012Z</time></trkpt><trkpt lat="39.8681451" lon="9.4948386"><ele>862.0</ele><time>2026-04-06T13:12:00.012Z</time></trkpt><trkpt lat="39.8682544" lon="9.4949545"><ele>862.0</ele><time>2026-04-06T13:12:01.011Z</time></trkpt><trkpt lat="39.868323" lon="9.4950748"><ele>862.0</ele><time>2026-04-06T13:12:02.011Z</time></trkpt><trkpt lat="39.8683462" lon="9.4952047"><ele>862.0</ele><time>2026-04-06T13:12:03.012Z</time></trkpt><trkpt lat="39.868343" lon="9.4953406"><ele>864.75</ele><time>2026-04-06T13:12:04.011Z</time></trkpt><trkpt lat="39.8683661" lon="9.4954837"><ele>867.5</ele><time>2026-04-06T13:12:05.012Z</time></trkpt><trkpt lat="39.8684225" lon="9.4956118"><ele>870.25</ele><time>2026-04-06T13:12:06.012Z</time></trkpt><trkpt lat="39.8684738" lon="9.4957361"><ele>873.0</ele><time>2026-04-06T13:12:07.011Z</time></trkpt><trkpt lat="39.8685016" lon="9.4958933"><ele>875.25</ele><time>2026-04-06T13:12:08.012Z</time></trkpt><trkpt lat="39.8684972" lon="9.4960681"><ele>877.5</ele><time>2026-04-06T13:12:09.012Z</time></trkpt><trkpt lat="39.8684582" lon="9.4962535"><ele>879.75</ele><time>2026-04-06T13:12:10.012Z</time></trkpt><trkpt lat="39.8683991" lon="9.4964417"><ele>882.0</ele><time>2026-04-06T13:12:11.012Z</time></trkpt><trkpt lat="39.8683352" lon="9.4966285"><ele>882.0</ele><time>2026-04-06T13:12:12.012Z</time></trkpt><trkpt lat="39.868281" lon="9.4968239"><ele>882.0</ele><time>2026-04-06T13:12:13.012Z</time></trkpt><trkpt lat="39.8682858" lon="9.4970017"><ele>882.0</ele><time>2026-04-06T13:12:14.012Z</time></trkpt><trkpt lat="39.8682968" lon="9.4971649"><ele>882.0</ele><time>2026-04-06T13:12:15.011Z</time></trkpt><trkpt lat="39.8683363" lon="9.4973344"><ele>882.75</ele><time>2026-04-06T13:12:16.011Z</time></trkpt><trkpt lat="39.8683483" lon="9.4975035"><ele>883.5</ele><time>2026-04-06T13:12:17.012Z</time></trkpt><trkpt lat="39.8683468" lon="9.4976905"><ele>884.25</ele><time>2026-04-06T13:12:18.012Z</time></trkpt><trkpt lat="39.8683313" lon="9.4978854"><ele>885.0</ele><time>2026-04-06T13:12:19.012Z</time></trkpt><trkpt lat="39.8683162" lon="9.4980913"><ele>886.3333333333333</ele><time>2026-04-06T13:12:20.012Z</time></trkpt><trkpt lat="39.8683005" lon="9.4982987"><ele>887.6666666666666</ele><time>2026-04-06T13:12:21.012Z</time></trkpt><trkpt lat="39.8682538" lon="9.4985112"><ele>889.0</ele><time>2026-04-06T13:12:22.012Z</time></trkpt><trkpt lat="39.8681803" lon="9.4987177"><ele>888.3333333333333</ele><time>2026-04-06T13:12:23.012Z</time></trkpt><trkpt lat="39.8681136" lon="9.4989397"><ele>887.6666666666667</ele><time>2026-04-06T13:12:24.011Z</time></trkpt><trkpt lat="39.8680657" lon="9.4991736"><ele>887.0</ele><time>2026-04-06T13:12:25.012Z</time></trkpt><trkpt lat="39.8680397" lon="9.4994126"><ele>888.6666666666667</ele><time>2026-04-06T13:12:26.012Z</time></trkpt><trkpt lat="39.8680363" lon="9.4996403"><ele>890.3333333333333</ele><time>2026-04-06T13:12:27.012Z</time></trkpt><trkpt lat="39.8680203" lon="9.4998644"><ele>892.0</ele><time>2026-04-06T13:12:28.011Z</time></trkpt><trkpt lat="39.8679785" lon="9.5000589"><ele>892.0</ele><time>2026-04-06T13:12:29.012Z</time></trkpt><trkpt lat="39.8679328" lon="9.5002014"><ele>892.0</ele><time>2026-04-06T13:12:30.012Z</time></trkpt><trkpt lat="39.8679003" lon="9.5003267"><ele>892.0</ele><time>2026-04-06T13:12:31.011Z</time></trkpt><trkpt lat="39.8678868" lon="9.5004599"><ele>892.0</ele><time>2026-04-06T13:12:32.012Z</time></trkpt><trkpt lat="39.8679056" lon="9.5005913"><ele>892.0</ele><time>2026-04-06T13:12:33.011Z</time></trkpt><trkpt lat="39.8679663" lon="9.5006959"><ele>894.0</ele><time>2026-04-06T13:12:34.012Z</time></trkpt><trkpt lat="39.8680737" lon="9.5007751"><ele>896.0</ele><time>2026-04-06T13:12:35.012Z</time></trkpt><trkpt lat="39.8681848" lon="9.5008589"><ele>898.0</ele><time>2026-04-06T13:12:36.012Z</time></trkpt><trkpt lat="39.8682877" lon="9.5009876"><ele>900.0</ele><time>2026-04-06T13:12:37.012Z</time></trkpt><trkpt lat="39.868371" lon="9.5011462"><ele>903.3333333333333</ele><time>2026-04-06T13:12:38.011Z</time></trkpt><trkpt lat="39.8684257" lon="9.5013297"><ele>906.6666666666666</ele><time>2026-04-06T13:12:39.012Z</time></trkpt><trkpt lat="39.8684505" lon="9.5015424"><ele>910.0</ele><time>2026-04-06T13:12:40.012Z</time></trkpt><trkpt lat="39.868472" lon="9.5017649"><ele>914.3333333333333</ele><time>2026-04-06T13:12:41.012Z</time></trkpt><trkpt lat="39.8684987" lon="9.5019939"><ele>918.6666666666667</ele><time>2026-04-06T13:12:42.011Z</time></trkpt><trkpt lat="39.8685237" lon="9.5022034"><ele>923.0</ele><time>2026-04-06T13:12:43.011Z</time></trkpt><trkpt lat="39.8685333" lon="9.5024064"><ele>923.3333333333334</ele><time>2026-04-06T13:12:44.011Z</time></trkpt><trkpt lat="39.8685065" lon="9.5026117"><ele>923.6666666666667</ele><time>2026-04-06T13:12:45.011Z</time></trkpt><trkpt lat="39.8684555" lon="9.5028076"><ele>924.0</ele><time>2026-04-06T13:12:46.012Z</time></trkpt><trkpt lat="39.8683998" lon="9.5030151"><ele>922.75</ele><time>2026-04-06T13:12:47.011Z</time></trkpt><trkpt lat="39.8683427" lon="9.5032139"><ele>921.5</ele><time>2026-04-06T13:12:48.012Z</time></trkpt><trkpt lat="39.8682973" lon="9.5033898"><ele>920.25</ele><time>2026-04-06T13:12:49.011Z</time></trkpt><trkpt lat="39.8682682" lon="9.5035484"><ele>919.0</ele><time>2026-04-06T13:12:50.012Z</time></trkpt><trkpt lat="39.8682613" lon="9.5037038"><ele>919.75</ele><time>2026-04-06T13:12:51.011Z</time></trkpt><trkpt lat="39.8682919" lon="9.5038651"><ele>920.5</ele><time>2026-04-06T13:12:52.011Z</time></trkpt><trkpt lat="39.8683494" lon="9.5040195"><ele>921.25</ele><time>2026-04-06T13:12:53.011Z</time></trkpt><trkpt lat="39.8684158" lon="9.5041831"><ele>922.0</ele><time>2026-04-06T13:12:54.012Z</time></trkpt><trkpt lat="39.8684515" lon="9.50435"><ele>923.6666666666666</ele><time>2026-04-06T13:12:55.011Z</time></trkpt><trkpt lat="39.8685077" lon="9.5045118"><ele>925.3333333333333</ele><time>2026-04-06T13:12:56.012Z</time></trkpt><trkpt lat="39.8686118" lon="9.504664"><ele>927.0</ele><time>2026-04-06T13:12:57.012Z</time></trkpt><trkpt lat="39.86872" lon="9.5048224"><ele>927.0</ele><time>2026-04-06T13:12:58.011Z</time></trkpt><trkpt lat="39.8688299" lon="9.5049987"><ele>927.0</ele><time>2026-04-06T13:12:59.012Z</time></trkpt><trkpt lat="39.8689285" lon="9.5052025"><ele>927.0</ele><time>2026-04-06T13:13:00.012Z</time></trkpt><trkpt lat="39.8690121" lon="9.5054255"><ele>927.0</ele><time>2026-04-06T13:13:01.012Z</time></trkpt><trkpt lat="39.8690557" lon="9.5056728"><ele>927.0</ele><time>2026-04-06T13:13:02.012Z</time></trkpt><trkpt lat="39.8690805" lon="9.5059201"><ele>927.0</ele><time>2026-04-06T13:13:03.011Z</time></trkpt><trkpt lat="39.8691101" lon="9.5061701"><ele>927.6666666666667</ele><time>2026-04-06T13:13:04.012Z</time></trkpt><trkpt lat="39.8691384" lon="9.5064152"><ele>928.3333333333334</ele><time>2026-04-06T13:13:05.011Z</time></trkpt><trkpt lat="39.8691731" lon="9.5066566"><ele>929.0</ele><time>2026-04-06T13:13:06.012Z</time></trkpt><trkpt lat="39.8691887" lon="9.5068829"><ele>929.3333333333334</ele><time>2026-04-06T13:13:07.012Z</time></trkpt><trkpt lat="39.8691959" lon="9.5070906"><ele>929.6666666666667</ele><time>2026-04-06T13:13:08.012Z</time></trkpt><trkpt lat="39.8691843" lon="9.5072904"><ele>930.0</ele><time>2026-04-06T13:13:09.012Z</time></trkpt><trkpt lat="39.8691286" lon="9.5074769"><ele>930.0</ele><time>2026-04-06T13:13:10.012Z</time></trkpt><trkpt lat="39.8690665" lon="9.5076512"><ele>930.0</ele><time>2026-04-06T13:13:11.011Z</time></trkpt><trkpt lat="39.8690105" lon="9.5078024"><ele>930.0</ele><time>2026-04-06T13:13:12.012Z</time></trkpt><trkpt lat="39.8689769" lon="9.5079324"><ele>930.0</ele><time>2026-04-06T13:13:13.011Z</time></trkpt><trkpt lat="39.8689837" lon="9.5080721"><ele>931.0</ele><time>2026-04-06T13:13:14.012Z</time></trkpt><trkpt lat="39.8690313" lon="9.5082265"><ele>932.0</ele><time>2026-04-06T13:13:15.011Z</time></trkpt><trkpt lat="39.8690907" lon="9.5083846"><ele>933.0</ele><time>2026-04-06T13:13:16.012Z</time></trkpt><trkpt lat="39.8691545" lon="9.5085718"><ele>934.0</ele><time>2026-04-06T13:13:17.012Z</time></trkpt><trkpt lat="39.8692281" lon="9.5087662"><ele>935.3333333333333</ele><time>2026-04-06T13:13:18.012Z</time></trkpt><trkpt lat="39.8693089" lon="9.5089688"><ele>936.6666666666667</ele><time>2026-04-06T13:13:19.012Z</time></trkpt><trkpt lat="39.8693835" lon="9.5091831"><ele>938.0</ele><time>2026-04-06T13:13:20.012Z</time></trkpt><trkpt lat="39.8694697" lon="9.509393"><ele>939.6666666666667</ele><time>2026-04-06T13:13:21.011Z</time></trkpt><trkpt lat="39.86954" lon="9.5096042"><ele>941.3333333333333</ele><time>2026-04-06T13:13:22.012Z</time></trkpt><trkpt lat="39.8695945" lon="9.5097979"><ele>943.0</ele><time>2026-04-06T13:13:23.011Z</time></trkpt><trkpt lat="39.8696039" lon="9.5099532"><ele>943.0</ele><time>2026-04-06T13:13:24.012Z</time></trkpt><trkpt lat="39.8696387" lon="9.5100853"><ele>943.0</ele><time>2026-04-06T13:13:25.012Z</time></trkpt><trkpt lat="39.8696805" lon="9.5101991"><ele>943.0</ele><time>2026-04-06T13:13:26.011Z</time></trkpt><trkpt lat="39.8697462" lon="9.5102992"><ele>943.0</ele><time>2026-04-06T13:13:27.012Z</time></trkpt><trkpt lat="39.8698704" lon="9.5103602"><ele>943.0</ele><time>2026-04-06T13:13:28.012Z</time></trkpt><trkpt lat="39.8700605" lon="9.5102936"><ele>944.25</ele><time>2026-04-06T13:13:29.011Z</time></trkpt><trkpt lat="39.8701849" lon="9.5103618"><ele>945.5</ele><time>2026-04-06T13:13:30.012Z</time></trkpt><trkpt lat="39.8702979" lon="9.5104467"><ele>946.75</ele><time>2026-04-06T13:13:31.012Z</time></trkpt><trkpt lat="39.8704202" lon="9.5105652"><ele>948.0</ele><time>2026-04-06T13:13:32.012Z</time></trkpt><trkpt lat="39.870551" lon="9.5107138"><ele>949.0</ele><time>2026-04-06T13:13:33.012Z</time></trkpt><trkpt lat="39.8706798" lon="9.5108741"><ele>950.0</ele><time>2026-04-06T13:13:34.012Z</time></trkpt><trkpt lat="39.8708036" lon="9.511049"><ele>951.0</ele><time>2026-04-06T13:13:35.012Z</time></trkpt><trkpt lat="39.8709394" lon="9.5112347"><ele>952.3333333333333</ele><time>2026-04-06T13:13:36.011Z</time></trkpt><trkpt lat="39.871071" lon="9.5114248"><ele>953.6666666666666</ele><time>2026-04-06T13:13:37.011Z</time></trkpt><trkpt lat="39.8711982" lon="9.5116338"><ele>955.0</ele><time>2026-04-06T13:13:38.012Z</time></trkpt><trkpt lat="39.8713219" lon="9.5118652"><ele>957.6666666666666</ele><time>2026-04-06T13:13:39.012Z</time></trkpt><trkpt lat="39.8714193" lon="9.5121089"><ele>960.3333333333333</ele><time>2026-04-06T13:13:40.011Z</time></trkpt><trkpt lat="39.8714991" lon="9.512369"><ele>963.0</ele><time>2026-04-06T13:13:41.012Z</time></trkpt><trkpt lat="39.8715877" lon="9.5126322"><ele>963.0</ele><time>2026-04-06T13:13:42.012Z</time></trkpt><trkpt lat="39.8716595" lon="9.5128787"><ele>963.0</ele><time>2026-04-06T13:13:43.012Z</time></trkpt><trkpt lat="39.8717117" lon="9.5131199"><ele>963.0</ele><time>2026-04-06T13:13:44.012Z</time></trkpt><trkpt lat="39.8717566" lon="9.5133341"><ele>963.0</ele><time>2026-04-06T13:13:45.012Z</time></trkpt><trkpt lat="39.871796" lon="9.5135387"><ele>963.0</ele><time>2026-04-06T13:13:46.012Z</time></trkpt><trkpt lat="39.8718362" lon="9.5137405"><ele>963.0</ele><time>2026-04-06T13:13:47.012Z</time></trkpt><trkpt lat="39.871893" lon="9.5139014"><ele>963.0</ele><time>2026-04-06T13:13:48.012Z</time></trkpt><trkpt lat="39.8719746" lon="9.5140418"><ele>963.0</ele><time>2026-04-06T13:13:49.012Z</time></trkpt><trkpt lat="39.8720801" lon="9.5141682"><ele>963.0</ele><time>2026-04-06T13:13:50.012Z</time></trkpt><trkpt lat="39.8721896" lon="9.5142615"><ele>963.0</ele><time>2026-04-06T13:13:51.012Z</time></trkpt><trkpt lat="39.8723045" lon="9.5143305"><ele>963.0</ele><time>2026-04-06T13:13:52.012Z</time></trkpt><trkpt lat="39.8724194" lon="9.5143628"><ele>963.0</ele><time>2026-04-06T13:13:53.012Z</time></trkpt><trkpt lat="39.8725266" lon="9.5143596"><ele>963.0</ele><time>2026-04-06T13:13:54.011Z</time></trkpt><trkpt lat="39.8726404" lon="9.5143293"><ele>963.0</ele><time>2026-04-06T13:13:55.011Z</time></trkpt><trkpt lat="39.8727714" lon="9.5143144"><ele>962.75</ele><time>2026-04-06T13:13:56.012Z</time></trkpt><trkpt lat="39.8729055" lon="9.5143221"><ele>962.5</ele><time>2026-04-06T13:13:57.012Z</time></trkpt><trkpt lat="39.8730327" lon="9.5143478"><ele>962.25</ele><time>2026-04-06T13:13:58.012Z</time></trkpt><trkpt lat="39.8731533" lon="9.5143807"><ele>962.0</ele><time>2026-04-06T13:13:59.011Z</time></trkpt><trkpt lat="39.8732966" lon="9.5143852"><ele>956.5</ele><time>2026-04-06T13:14:00.012Z</time></trkpt><trkpt lat="39.8734412" lon="9.5143532"><ele>951.0</ele><time>2026-04-06T13:14:01.012Z</time></trkpt><trkpt lat="39.8735746" lon="9.5143127"><ele>945.5</ele><time>2026-04-06T13:14:02.012Z</time></trkpt><trkpt lat="39.8736989" lon="9.5142644"><ele>940.0</ele><time>2026-04-06T13:14:03.012Z</time></trkpt><trkpt lat="39.873802" lon="9.5141845"><ele>940.0</ele><time>2026-04-06T13:14:04.011Z</time></trkpt><trkpt lat="39.8738726" lon="9.5140653"><ele>940.0</ele><time>2026-04-06T13:14:05.012Z</time></trkpt><trkpt lat="39.8739055" lon="9.5138925"><ele>940.0</ele><time>2026-04-06T13:14:06.012Z</time></trkpt><trkpt lat="39.8739249" lon="9.5137021"><ele>940.0</ele><time>2026-04-06T13:14:07.012Z</time></trkpt><trkpt lat="39.8739523" lon="9.5135229"><ele>945.3333333333333</ele><time>2026-04-06T13:14:08.012Z</time></trkpt><trkpt lat="39.8740179" lon="9.5133477"><ele>950.6666666666667</ele><time>2026-04-06T13:14:09.012Z</time></trkpt><trkpt lat="39.8741169" lon="9.5131838"><ele>956.0</ele><time>2026-04-06T13:14:10.012Z</time></trkpt><trkpt lat="39.8742254" lon="9.5130178"><ele>952.6666666666667</ele><time>2026-04-06T13:14:11.012Z</time></trkpt><trkpt lat="39.8743409" lon="9.5128516"><ele>949.3333333333333</ele><time>2026-04-06T13:14:12.012Z</time></trkpt><trkpt lat="39.8744617" lon="9.5126734"><ele>946.0</ele><time>2026-04-06T13:14:13.011Z</time></trkpt><trkpt lat="39.874585" lon="9.5124897"><ele>946.0</ele><time>2026-04-06T13:14:14.011Z</time></trkpt><trkpt lat="39.8747098" lon="9.5123185"><ele>946.0</ele><time>2026-04-06T13:14:15.012Z</time></trkpt><trkpt lat="39.8748351" lon="9.5121741"><ele>946.0</ele><time>2026-04-06T13:14:16.012Z</time></trkpt><trkpt lat="39.8749719" lon="9.5120619"><ele>946.75</ele><time>2026-04-06T13:14:17.011Z</time></trkpt><trkpt lat="39.8751067" lon="9.511949"><ele>947.5</ele><time>2026-04-06T13:14:18.012Z</time></trkpt><trkpt lat="39.8752487" lon="9.5118832"><ele>948.25</ele><time>2026-04-06T13:14:19.012Z</time></trkpt><trkpt lat="39.8753589" lon="9.5118014"><ele>949.0</ele><time>2026-04-06T13:14:20.012Z</time></trkpt><trkpt lat="39.8754553" lon="9.5117166"><ele>949.0</ele><time>2026-04-06T13:14:21.012Z</time></trkpt><trkpt lat="39.8755413" lon="9.5116324"><ele>949.0000000000001</ele><time>2026-04-06T13:14:22.012Z</time></trkpt><trkpt lat="39.8756169" lon="9.5115542"><ele>949.0000000000001</ele><time>2026-04-06T13:14:23.011Z</time></trkpt><trkpt lat="39.8756926" lon="9.5114746"><ele>949.0</ele><time>2026-04-06T13:14:24.011Z</time></trkpt><trkpt lat="39.8757719" lon="9.5113987"><ele>949.0</ele><time>2026-04-06T13:14:25.012Z</time></trkpt><trkpt lat="39.8758518" lon="9.511321"><ele>949.0</ele><time>2026-04-06T13:14:26.011Z</time></trkpt><trkpt lat="39.8759325" lon="9.5112458"><ele>949.0000000000001</ele><time>2026-04-06T13:14:27.011Z</time></trkpt><trkpt lat="39.8760181" lon="9.5111732"><ele>949.0000000000001</ele><time>2026-04-06T13:14:28.012Z</time></trkpt><trkpt lat="39.8761019" lon="9.511104"><ele>949.0</ele><time>2026-04-06T13:14:29.011Z</time></trkpt><trkpt lat="39.8761921" lon="9.5110335"><ele>949.0</ele><time>2026-04-06T13:14:30.012Z</time></trkpt><trkpt lat="39.8762833" lon="9.5109588"><ele>948.8000000000001</ele><time>2026-04-06T13:14:31.012Z</time></trkpt><trkpt lat="39.8763806" lon="9.5108995"><ele>948.6000000000001</ele><time>2026-04-06T13:14:32.011Z</time></trkpt><trkpt lat="39.8764891" lon="9.5108432"><ele>948.4</ele><time>2026-04-06T13:14:33.011Z</time></trkpt><trkpt lat="39.876596" lon="9.510796"><ele>948.2</ele><time>2026-04-06T13:14:34.012Z</time></trkpt><trkpt lat="39.8766903" lon="9.510762"><ele>948.0</ele><time>2026-04-06T13:14:35.011Z</time></trkpt><trkpt lat="39.8767771" lon="9.5107247"><ele>948.0</ele><time>2026-04-06T13:14:36.012Z</time></trkpt><trkpt lat="39.8768376" lon="9.5106935"><ele>948.0</ele><time>2026-04-06T13:14:37.011Z</time></trkpt><trkpt lat="39.8769068" lon="9.5106578"><ele>948.0</ele><time>2026-04-06T13:14:38.012Z</time></trkpt><trkpt lat="39.8770267" lon="9.5105915"><ele>948.0</ele><time>2026-04-06T13:14:40.012Z</time></trkpt><trkpt lat="39.8770957" lon="9.5105525"><ele>948.0</ele><time>2026-04-06T13:14:41.012Z</time></trkpt><trkpt lat="39.8771745" lon="9.5105215"><ele>948.0</ele><time>2026-04-06T13:14:42.012Z</time></trkpt><trkpt lat="39.8773751" lon="9.5104824"><ele>948.0</ele><time>2026-04-06T13:14:44.012Z</time></trkpt><trkpt lat="39.877497" lon="9.5104679"><ele>948.0</ele><time>2026-04-06T13:14:45.012Z</time></trkpt><trkpt lat="39.8776274" lon="9.5104602"><ele>948.0</ele><time>2026-04-06T13:14:46.011Z</time></trkpt><trkpt lat="39.8777793" lon="9.5104432"><ele>948.0</ele><time>2026-04-06T13:14:47.012Z</time></trkpt><trkpt lat="39.8779175" lon="9.5104265"><ele>952.0</ele><time>2026-04-06T13:14:48.012Z</time></trkpt><trkpt lat="39.8780685" lon="9.5103984"><ele>956.0</ele><time>2026-04-06T13:14:49.012Z</time></trkpt><trkpt lat="39.8782054" lon="9.5103655"><ele>960.0</ele><time>2026-04-06T13:14:50.011Z</time></trkpt><trkpt lat="39.8783342" lon="9.5103317"><ele>964.0</ele><time>2026-04-06T13:14:51.011Z</time></trkpt><trkpt lat="39.8784683" lon="9.5103034"><ele>964.0</ele><time>2026-04-06T13:14:52.011Z</time></trkpt><trkpt lat="39.8785834" lon="9.5102784"><ele>964.0000000000001</ele><time>2026-04-06T13:14:53.011Z</time></trkpt><trkpt lat="39.8786896" lon="9.5102597"><ele>964.0000000000001</ele><time>2026-04-06T13:14:54.012Z</time></trkpt><trkpt lat="39.8787882" lon="9.5102393"><ele>964.0</ele><time>2026-04-06T13:14:55.012Z</time></trkpt><trkpt lat="39.8788738" lon="9.5102151"><ele>964.0</ele><time>2026-04-06T13:14:56.012Z</time></trkpt><trkpt lat="39.8789682" lon="9.5102092"><ele>964.0</ele><time>2026-04-06T13:14:57.012Z</time></trkpt><trkpt lat="39.8790661" lon="9.5102155"><ele>964.0000000000001</ele><time>2026-04-06T13:14:58.012Z</time></trkpt><trkpt lat="39.8791633" lon="9.5102438"><ele>964.0000000000001</ele><time>2026-04-06T13:14:59.012Z</time></trkpt><trkpt lat="39.8792608" lon="9.5102767"><ele>964.0</ele><time>2026-04-06T13:15:00.012Z</time></trkpt><trkpt lat="39.8793469" lon="9.5102978"><ele>964.0</ele><time>2026-04-06T13:15:01.012Z</time></trkpt><trkpt lat="39.8794346" lon="9.5103023"><ele>962.5</ele><time>2026-04-06T13:15:02.012Z</time></trkpt><trkpt lat="39.8795387" lon="9.5102993"><ele>961.0</ele><time>2026-04-06T13:15:03.012Z</time></trkpt><trkpt lat="39.8796549" lon="9.5102778"><ele>959.5</ele><time>2026-04-06T13:15:04.011Z</time></trkpt><trkpt lat="39.8797771" lon="9.510243"><ele>958.0</ele><time>2026-04-06T13:15:05.012Z</time></trkpt><trkpt lat="39.8799147" lon="9.5102019"><ele>958.0</ele><time>2026-04-06T13:15:06.012Z</time></trkpt><trkpt lat="39.8800384" lon="9.5101598"><ele>958.0</ele><time>2026-04-06T13:15:07.011Z</time></trkpt><trkpt lat="39.8801599" lon="9.510121"><ele>958.0</ele><time>2026-04-06T13:15:08.012Z</time></trkpt><trkpt lat="39.8802685" lon="9.5100857"><ele>958.0</ele><time>2026-04-06T13:15:09.012Z</time></trkpt><trkpt lat="39.8803646" lon="9.510064"><ele>957.8333333333333</ele><time>2026-04-06T13:15:10.012Z</time></trkpt><trkpt lat="39.880455" lon="9.5100671"><ele>957.6666666666666</ele><time>2026-04-06T13:15:11.012Z</time></trkpt><trkpt lat="39.8805505" lon="9.5100863"><ele>957.5</ele><time>2026-04-06T13:15:12.012Z</time></trkpt><trkpt lat="39.8806156" lon="9.5101656"><ele>957.3333333333333</ele><time>2026-04-06T13:15:13.012Z</time></trkpt><trkpt lat="39.8806782" lon="9.5102301"><ele>957.1666666666666</ele><time>2026-04-06T13:15:14.012Z</time></trkpt><trkpt lat="39.8807412" lon="9.5102994"><ele>957.0</ele><time>2026-04-06T13:15:15.012Z</time></trkpt><trkpt lat="39.8808042" lon="9.5103547"><ele>957.0</ele><time>2026-04-06T13:15:16.012Z</time></trkpt><trkpt lat="39.8808735" lon="9.5104008"><ele>957.0</ele><time>2026-04-06T13:15:17.012Z</time></trkpt><trkpt lat="39.880955" lon="9.5104285"><ele>957.0</ele><time>2026-04-06T13:15:18.011Z</time></trkpt><trkpt lat="39.881039" lon="9.5104186"><ele>957.0</ele><time>2026-04-06T13:15:19.011Z</time></trkpt><trkpt lat="39.8811151" lon="9.5103844"><ele>957.0</ele><time>2026-04-06T13:15:20.011Z</time></trkpt><trkpt lat="39.8811869" lon="9.5103224"><ele>957.0</ele><time>2026-04-06T13:15:21.012Z</time></trkpt><trkpt lat="39.8812674" lon="9.510257"><ele>957.3333333333333</ele><time>2026-04-06T13:15:22.011Z</time></trkpt><trkpt lat="39.8813699" lon="9.5101711"><ele>957.6666666666666</ele><time>2026-04-06T13:15:23.012Z</time></trkpt><trkpt lat="39.8814932" lon="9.5100538"><ele>958.0</ele><time>2026-04-06T13:15:24.011Z</time></trkpt><trkpt lat="39.8816405" lon="9.5099131"><ele>956.0</ele><time>2026-04-06T13:15:25.012Z</time></trkpt><trkpt lat="39.8817997" lon="9.5097696"><ele>954.0</ele><time>2026-04-06T13:15:26.012Z</time></trkpt><trkpt lat="39.8819596" lon="9.5096261"><ele>952.0</ele><time>2026-04-06T13:15:27.012Z</time></trkpt><trkpt lat="39.8821127" lon="9.5095072"><ele>952.0</ele><time>2026-04-06T13:15:28.012Z</time></trkpt><trkpt lat="39.8822544" lon="9.5093912"><ele>952.0</ele><time>2026-04-06T13:15:29.011Z</time></trkpt><trkpt lat="39.8823768" lon="9.5092861"><ele>952.0</ele><time>2026-04-06T13:15:30.012Z</time></trkpt><trkpt lat="39.8824824" lon="9.5091972"><ele>952.0</ele><time>2026-04-06T13:15:31.012Z</time></trkpt><trkpt lat="39.8825687" lon="9.509118"><ele>953.25</ele><time>2026-04-06T13:15:32.012Z</time></trkpt><trkpt lat="39.8826563" lon="9.5090442"><ele>954.5</ele><time>2026-04-06T13:15:33.012Z</time></trkpt><trkpt lat="39.8827595" lon="9.5089662"><ele>955.75</ele><time>2026-04-06T13:15:34.012Z</time></trkpt><trkpt lat="39.8828614" lon="9.5088902"><ele>957.0</ele><time>2026-04-06T13:15:35.012Z</time></trkpt><trkpt lat="39.8829655" lon="9.5088176"><ele>957.0</ele><time>2026-04-06T13:15:36.011Z</time></trkpt><trkpt lat="39.8830719" lon="9.5087503"><ele>957.0</ele><time>2026-04-06T13:15:37.011Z</time></trkpt><trkpt lat="39.8831714" lon="9.5086857"><ele>957.0</ele><time>2026-04-06T13:15:38.011Z</time></trkpt><trkpt lat="39.8832781" lon="9.5086313"><ele>957.0</ele><time>2026-04-06T13:15:39.011Z</time></trkpt><trkpt lat="39.8833852" lon="9.5085767"><ele>954.6</ele><time>2026-04-06T13:15:40.011Z</time></trkpt><trkpt lat="39.8834964" lon="9.5085203"><ele>952.2</ele><time>2026-04-06T13:15:41.012Z</time></trkpt><trkpt lat="39.8836046" lon="9.508478"><ele>949.8</ele><time>2026-04-06T13:15:42.011Z</time></trkpt><trkpt lat="39.8837118" lon="9.5084465"><ele>947.4</ele><time>2026-04-06T13:15:43.012Z</time></trkpt><trkpt lat="39.883804" lon="9.5084214"><ele>945.0</ele><time>2026-04-06T13:15:44.011Z</time></trkpt><trkpt lat="39.883887" lon="9.5083768"><ele>945.0</ele><time>2026-04-06T13:15:45.012Z</time></trkpt><trkpt lat="39.8839583" lon="9.5083111"><ele>945.0</ele><time>2026-04-06T13:15:46.012Z</time></trkpt><trkpt lat="39.8840206" lon="9.5082241"><ele>945.0</ele><time>2026-04-06T13:15:47.012Z</time></trkpt><trkpt lat="39.8840682" lon="9.5081183"><ele>945.0</ele><time>2026-04-06T13:15:48.011Z</time></trkpt><trkpt lat="39.8841089" lon="9.5080205"><ele>945.0</ele><time>2026-04-06T13:15:49.012Z</time></trkpt><trkpt lat="39.8841635" lon="9.5079119"><ele>943.8</ele><time>2026-04-06T13:15:50.012Z</time></trkpt><trkpt lat="39.884227" lon="9.5078043"><ele>942.6</ele><time>2026-04-06T13:15:51.011Z</time></trkpt><trkpt lat="39.8843035" lon="9.5077119"><ele>941.4000000000001</ele><time>2026-04-06T13:15:52.012Z</time></trkpt><trkpt lat="39.8843878" lon="9.5076251"><ele>940.2</ele><time>2026-04-06T13:15:53.012Z</time></trkpt><trkpt lat="39.8844612" lon="9.5075497"><ele>939.0</ele><time>2026-04-06T13:15:54.011Z</time></trkpt><trkpt lat="39.8846189" lon="9.5074037"><ele>939.0</ele><time>2026-04-06T13:15:56.012Z</time></trkpt><trkpt lat="39.8846867" lon="9.507337"><ele>939.0</ele><time>2026-04-06T13:15:57.012Z</time></trkpt><trkpt lat="39.8847677" lon="9.5072726"><ele>939.0</ele><time>2026-04-06T13:15:58.012Z</time></trkpt><trkpt lat="39.8848457" lon="9.5072054"><ele>939.0</ele><time>2026-04-06T13:15:59.012Z</time></trkpt><trkpt lat="39.8849157" lon="9.5071443"><ele>939.0</ele><time>2026-04-06T13:16:00.012Z</time></trkpt><trkpt lat="39.8849856" lon="9.5070937"><ele>939.0</ele><time>2026-04-06T13:16:01.012Z</time></trkpt><trkpt lat="39.8850452" lon="9.5070533"><ele>937.0</ele><time>2026-04-06T13:16:02.012Z</time></trkpt><trkpt lat="39.8851104" lon="9.5070446"><ele>935.0</ele><time>2026-04-06T13:16:03.012Z</time></trkpt><trkpt lat="39.8852301" lon="9.5070905"><ele>933.0</ele><time>2026-04-06T13:16:05.011Z</time></trkpt><trkpt lat="39.8852708" lon="9.5071645"><ele>931.0</ele><time>2026-04-06T13:16:06.012Z</time></trkpt><trkpt lat="39.8852861" lon="9.5072547"><ele>929.0</ele><time>2026-04-06T13:16:07.011Z</time></trkpt><trkpt lat="39.8852899" lon="9.5073499"><ele>927.0</ele><time>2026-04-06T13:16:08.012Z</time></trkpt><trkpt lat="39.8852864" lon="9.507446"><ele>926.5</ele><time>2026-04-06T13:16:09.012Z</time></trkpt><trkpt lat="39.8852787" lon="9.507553"><ele>926.0</ele><time>2026-04-06T13:16:10.012Z</time></trkpt><trkpt lat="39.8852736" lon="9.5076574"><ele>925.5</ele><time>2026-04-06T13:16:11.011Z</time></trkpt><trkpt lat="39.8852616" lon="9.5077683"><ele>925.0</ele><time>2026-04-06T13:16:12.012Z</time></trkpt><trkpt lat="39.8852557" lon="9.5078842"><ele>924.5</ele><time>2026-04-06T13:16:13.012Z</time></trkpt><trkpt lat="39.8852493" lon="9.508004"><ele>924.0</ele><time>2026-04-06T13:16:14.012Z</time></trkpt><trkpt lat="39.8852454" lon="9.5081166"><ele>923.2</ele><time>2026-04-06T13:16:15.012Z</time></trkpt><trkpt lat="39.8852318" lon="9.5082341"><ele>922.4000000000001</ele><time>2026-04-06T13:16:16.011Z</time></trkpt><trkpt lat="39.8852299" lon="9.5083498"><ele>921.6</ele><time>2026-04-06T13:16:17.012Z</time></trkpt><trkpt lat="39.8852285" lon="9.5084656"><ele>920.8</ele><time>2026-04-06T13:16:18.011Z</time></trkpt><trkpt lat="39.8852304" lon="9.508585"><ele>920.0</ele><time>2026-04-06T13:16:19.011Z</time></trkpt><trkpt lat="39.8852399" lon="9.5087102"><ele>920.4</ele><time>2026-04-06T13:16:20.011Z</time></trkpt><trkpt lat="39.8852512" lon="9.5088277"><ele>920.8</ele><time>2026-04-06T13:16:21.011Z</time></trkpt><trkpt lat="39.8852682" lon="9.5089481"><ele>921.2</ele><time>2026-04-06T13:16:22.011Z</time></trkpt><trkpt lat="39.8852856" lon="9.5090594"><ele>921.6</ele><time>2026-04-06T13:16:23.012Z</time></trkpt><trkpt lat="39.8853183" lon="9.5091717"><ele>922.0</ele><time>2026-04-06T13:16:24.011Z</time></trkpt><trkpt lat="39.8853716" lon="9.5092775"><ele>922.0</ele><time>2026-04-06T13:16:25.012Z</time></trkpt><trkpt lat="39.8854525" lon="9.5093492"><ele>922.0</ele><time>2026-04-06T13:16:26.012Z</time></trkpt><trkpt lat="39.8855693" lon="9.5094042"><ele>922.0</ele><time>2026-04-06T13:16:27.012Z</time></trkpt><trkpt lat="39.8857452" lon="9.5094573"><ele>922.0</ele><time>2026-04-06T13:16:28.011Z</time></trkpt><trkpt lat="39.8859692" lon="9.5095238"><ele>920.0</ele><time>2026-04-06T13:16:29.011Z</time></trkpt><trkpt lat="39.8862246" lon="9.5095931"><ele>918.0</ele><time>2026-04-06T13:16:30.012Z</time></trkpt><trkpt lat="39.8865081" lon="9.5096726"><ele>916.0</ele><time>2026-04-06T13:16:31.011Z</time></trkpt><trkpt lat="39.8868085" lon="9.509777"><ele>914.0</ele><time>2026-04-06T13:16:32.012Z</time></trkpt><trkpt lat="39.8871085" lon="9.509873"><ele>914.0</ele><time>2026-04-06T13:16:33.012Z</time></trkpt><trkpt lat="39.8873919" lon="9.5099536"><ele>914.0</ele><time>2026-04-06T13:16:34.012Z</time></trkpt><trkpt lat="39.8876269" lon="9.5100251"><ele>912.3333333333334</ele><time>2026-04-06T13:16:35.012Z</time></trkpt><trkpt lat="39.8878332" lon="9.5100936"><ele>910.6666666666667</ele><time>2026-04-06T13:16:36.012Z</time></trkpt><trkpt lat="39.8880098" lon="9.5101462"><ele>909.0</ele><time>2026-04-06T13:16:37.012Z</time></trkpt><trkpt lat="39.8881666" lon="9.5101864"><ele>909.0</ele><time>2026-04-06T13:16:38.012Z</time></trkpt><trkpt lat="39.8883224" lon="9.5101794"><ele>909.0</ele><time>2026-04-06T13:16:39.012Z</time></trkpt><trkpt lat="39.888477" lon="9.5101213"><ele>909.0</ele><time>2026-04-06T13:16:40.011Z</time></trkpt><trkpt lat="39.8886173" lon="9.5100165"><ele>908.6666666666667</ele><time>2026-04-06T13:16:41.012Z</time></trkpt><trkpt lat="39.888742" lon="9.5098641"><ele>908.3333333333334</ele><time>2026-04-06T13:16:42.012Z</time></trkpt><trkpt lat="39.8888439" lon="9.5097079"><ele>908.0</ele><time>2026-04-06T13:16:43.012Z</time></trkpt><trkpt lat="39.8889417" lon="9.5095738"><ele>908.0</ele><time>2026-04-06T13:16:44.012Z</time></trkpt><trkpt lat="39.8890439" lon="9.5094518"><ele>908.0</ele><time>2026-04-06T13:16:45.012Z</time></trkpt><trkpt lat="39.88919" lon="9.5093787"><ele>908.0</ele><time>2026-04-06T13:16:46.012Z</time></trkpt><trkpt lat="39.8893314" lon="9.5093588"><ele>908.0</ele><time>2026-04-06T13:16:47.012Z</time></trkpt><trkpt lat="39.8894685" lon="9.5093737"><ele>908.0</ele><time>2026-04-06T13:16:48.012Z</time></trkpt><trkpt lat="39.8896036" lon="9.5093928"><ele>908.0</ele><time>2026-04-06T13:16:49.012Z</time></trkpt><trkpt lat="39.8896792" lon="9.5095974"><ele>908.0</ele><time>2026-04-06T13:16:50.012Z</time></trkpt><trkpt lat="39.8897739" lon="9.5097205"><ele>908.0</ele><time>2026-04-06T13:16:51.012Z</time></trkpt><trkpt lat="39.8898759" lon="9.50984"><ele>908.3333333333334</ele><time>2026-04-06T13:16:52.012Z</time></trkpt><trkpt lat="39.889988" lon="9.5099576"><ele>908.6666666666667</ele><time>2026-04-06T13:16:53.011Z</time></trkpt><trkpt lat="39.8901342" lon="9.5100451"><ele>909.0</ele><time>2026-04-06T13:16:54.011Z</time></trkpt><trkpt lat="39.8903271" lon="9.5098979"><ele>909.0</ele><time>2026-04-06T13:16:55.012Z</time></trkpt><trkpt lat="39.89048" lon="9.5099182"><ele>909.0</ele><time>2026-04-06T13:16:56.012Z</time></trkpt><trkpt lat="39.8906352" lon="9.5099355"><ele>909.0</ele><time>2026-04-06T13:16:57.012Z</time></trkpt><trkpt lat="39.8907853" lon="9.5101021"><ele>909.0</ele><time>2026-04-06T13:16:58.012Z</time></trkpt><trkpt lat="39.8909102" lon="9.5102446"><ele>909.0</ele><time>2026-04-06T13:16:59.011Z</time></trkpt><trkpt lat="39.8910212" lon="9.5104226"><ele>909.0</ele><time>2026-04-06T13:17:00.012Z</time></trkpt><trkpt lat="39.8911353" lon="9.5106119"><ele>908.6666666666667</ele><time>2026-04-06T13:17:01.012Z</time></trkpt><trkpt lat="39.8912646" lon="9.5107917"><ele>908.3333333333334</ele><time>2026-04-06T13:17:02.011Z</time></trkpt><trkpt lat="39.8913911" lon="9.5109676"><ele>908.0</ele><time>2026-04-06T13:17:03.011Z</time></trkpt><trkpt lat="39.891517" lon="9.5111204"><ele>908.0</ele><time>2026-04-06T13:17:04.012Z</time></trkpt><trkpt lat="39.8916416" lon="9.5112603"><ele>908.0</ele><time>2026-04-06T13:17:05.012Z</time></trkpt><trkpt lat="39.8917366" lon="9.5114137"><ele>908.0</ele><time>2026-04-06T13:17:06.011Z</time></trkpt><trkpt lat="39.8917885" lon="9.5116022"><ele>908.0</ele><time>2026-04-06T13:17:07.012Z</time></trkpt><trkpt lat="39.891808" lon="9.5118088"><ele>908.0</ele><time>2026-04-06T13:17:08.012Z</time></trkpt><trkpt lat="39.8917874" lon="9.5120374"><ele>908.0</ele><time>2026-04-06T13:17:09.011Z</time></trkpt><trkpt lat="39.8917643" lon="9.5122784"><ele>906.6666666666667</ele><time>2026-04-06T13:17:10.011Z</time></trkpt><trkpt lat="39.8917314" lon="9.5125361"><ele>905.3333333333333</ele><time>2026-04-06T13:17:11.011Z</time></trkpt><trkpt lat="39.8916963" lon="9.5128033"><ele>904.0</ele><time>2026-04-06T13:17:12.012Z</time></trkpt><trkpt lat="39.8916468" lon="9.5130761"><ele>903.3333333333333</ele><time>2026-04-06T13:17:13.011Z</time></trkpt><trkpt lat="39.8915542" lon="9.5133343"><ele>902.6666666666667</ele><time>2026-04-06T13:17:14.012Z</time></trkpt><trkpt lat="39.8914648" lon="9.5135648"><ele>902.0</ele><time>2026-04-06T13:17:15.012Z</time></trkpt><trkpt lat="39.891361" lon="9.5137588"><ele>900.5</ele><time>2026-04-06T13:17:16.012Z</time></trkpt><trkpt lat="39.8912814" lon="9.513922"><ele>899.0</ele><time>2026-04-06T13:17:17.012Z</time></trkpt><trkpt lat="39.89123" lon="9.5140548"><ele>897.5</ele><time>2026-04-06T13:17:18.012Z</time></trkpt><trkpt lat="39.8912414" lon="9.5141795"><ele>896.0</ele><time>2026-04-06T13:17:19.012Z</time></trkpt><trkpt lat="39.8912453" lon="9.5143053"><ele>896.0</ele><time>2026-04-06T13:17:20.012Z</time></trkpt><trkpt lat="39.8913521" lon="9.5143938"><ele>896.0</ele><time>2026-04-06T13:17:21.011Z</time></trkpt><trkpt lat="39.8914768" lon="9.5144697"><ele>896.0</ele><time>2026-04-06T13:17:22.012Z</time></trkpt><trkpt lat="39.8915835" lon="9.5145765"><ele>896.0</ele><time>2026-04-06T13:17:23.012Z</time></trkpt><trkpt lat="39.891678" lon="9.5147162"><ele>893.75</ele><time>2026-04-06T13:17:24.012Z</time></trkpt><trkpt lat="39.8917559" lon="9.5148623"><ele>891.5</ele><time>2026-04-06T13:17:25.011Z</time></trkpt><trkpt lat="39.8918205" lon="9.5150027"><ele>889.25</ele><time>2026-04-06T13:17:26.012Z</time></trkpt><trkpt lat="39.8918847" lon="9.5151448"><ele>887.0</ele><time>2026-04-06T13:17:27.011Z</time></trkpt><trkpt lat="39.8919447" lon="9.5152814"><ele>884.8</ele><time>2026-04-06T13:17:28.012Z</time></trkpt><trkpt lat="39.8919916" lon="9.515427"><ele>882.6</ele><time>2026-04-06T13:17:29.012Z</time></trkpt><trkpt lat="39.8920288" lon="9.5155707"><ele>880.3999999999999</ele><time>2026-04-06T13:17:30.012Z</time></trkpt><trkpt lat="39.8920761" lon="9.5156972"><ele>878.1999999999999</ele><time>2026-04-06T13:17:31.012Z</time></trkpt><trkpt lat="39.8921449" lon="9.5157879"><ele>876.0</ele><time>2026-04-06T13:17:32.011Z</time></trkpt><trkpt lat="39.8922124" lon="9.5158513"><ele>876.0</ele><time>2026-04-06T13:17:33.011Z</time></trkpt><trkpt lat="39.8923007" lon="9.5158688"><ele>875.9999999999999</ele><time>2026-04-06T13:17:34.011Z</time></trkpt><trkpt lat="39.8923833" lon="9.5158501"><ele>875.9999999999999</ele><time>2026-04-06T13:17:35.011Z</time></trkpt><trkpt lat="39.892478" lon="9.5158072"><ele>876.0</ele><time>2026-04-06T13:17:36.012Z</time></trkpt><trkpt lat="39.8925804" lon="9.5157353"><ele>876.0</ele><time>2026-04-06T13:17:37.011Z</time></trkpt><trkpt lat="39.8926845" lon="9.5156392"><ele>872.75</ele><time>2026-04-06T13:17:38.012Z</time></trkpt><trkpt lat="39.8927647" lon="9.5155163"><ele>869.5</ele><time>2026-04-06T13:17:39.012Z</time></trkpt><trkpt lat="39.8928068" lon="9.5153599"><ele>866.25</ele><time>2026-04-06T13:17:40.011Z</time></trkpt><trkpt lat="39.892814" lon="9.5151752"><ele>863.0</ele><time>2026-04-06T13:17:41.012Z</time></trkpt><trkpt lat="39.8928108" lon="9.5149941"><ele>863.0</ele><time>2026-04-06T13:17:42.012Z</time></trkpt><trkpt lat="39.892815" lon="9.5148144"><ele>863.0</ele><time>2026-04-06T13:17:43.012Z</time></trkpt><trkpt lat="39.8928405" lon="9.5146511"><ele>863.0</ele><time>2026-04-06T13:17:44.012Z</time></trkpt><trkpt lat="39.8928823" lon="9.5145324"><ele>863.0</ele><time>2026-04-06T13:17:45.012Z</time></trkpt><trkpt lat="39.8929573" lon="9.5144704"><ele>860.5</ele><time>2026-04-06T13:17:46.012Z</time></trkpt><trkpt lat="39.8930424" lon="9.5144305"><ele>858.0</ele><time>2026-04-06T13:17:47.012Z</time></trkpt><trkpt lat="39.8931293" lon="9.51441"><ele>855.5</ele><time>2026-04-06T13:17:48.012Z</time></trkpt><trkpt lat="39.893322" lon="9.5145335"><ele>853.0</ele><time>2026-04-06T13:17:49.011Z</time></trkpt><trkpt lat="39.8934511" lon="9.5145727"><ele>853.0</ele><time>2026-04-06T13:17:50.011Z</time></trkpt><trkpt lat="39.8935886" lon="9.51461"><ele>853.0</ele><time>2026-04-06T13:17:51.011Z</time></trkpt><trkpt lat="39.8937152" lon="9.5146315"><ele>853.0</ele><time>2026-04-06T13:17:52.012Z</time></trkpt><trkpt lat="39.893845" lon="9.5146291"><ele>853.0</ele><time>2026-04-06T13:17:53.011Z</time></trkpt><trkpt lat="39.8939826" lon="9.5145892"><ele>854.0</ele><time>2026-04-06T13:17:54.012Z</time></trkpt><trkpt lat="39.8941164" lon="9.5145021"><ele>855.0</ele><time>2026-04-06T13:17:55.012Z</time></trkpt><trkpt lat="39.8942502" lon="9.5144145"><ele>856.0</ele><time>2026-04-06T13:17:56.011Z</time></trkpt><trkpt lat="39.8943184" lon="9.5142822"><ele>857.0</ele><time>2026-04-06T13:17:57.011Z</time></trkpt><trkpt lat="39.8944116" lon="9.5141846"><ele>857.0</ele><time>2026-04-06T13:17:58.011Z</time></trkpt><trkpt lat="39.8945017" lon="9.5140868"><ele>857.0</ele><time>2026-04-06T13:17:59.012Z</time></trkpt><trkpt lat="39.8946205" lon="9.514115"><ele>857.0</ele><time>2026-04-06T13:18:00.011Z</time></trkpt><trkpt lat="39.8947222" lon="9.5142302"><ele>857.0</ele><time>2026-04-06T13:18:01.012Z</time></trkpt><trkpt lat="39.8948597" lon="9.5142439"><ele>857.0</ele><time>2026-04-06T13:18:02.011Z</time></trkpt><trkpt lat="39.8950084" lon="9.5142417"><ele>857.0</ele><time>2026-04-06T13:18:03.011Z</time></trkpt><trkpt lat="39.895159" lon="9.5142182"><ele>857.0</ele><time>2026-04-06T13:18:04.012Z</time></trkpt><trkpt lat="39.8953049" lon="9.5141909"><ele>857.0</ele><time>2026-04-06T13:18:05.012Z</time></trkpt><trkpt lat="39.8954466" lon="9.5141796"><ele>857.0</ele><time>2026-04-06T13:18:06.012Z</time></trkpt><trkpt lat="39.895583" lon="9.5141886"><ele>857.0</ele><time>2026-04-06T13:18:07.012Z</time></trkpt><trkpt lat="39.8957093" lon="9.5142306"><ele>857.0</ele><time>2026-04-06T13:18:08.012Z</time></trkpt><trkpt lat="39.8958223" lon="9.5142952"><ele>857.0</ele><time>2026-04-06T13:18:09.012Z</time></trkpt><trkpt lat="39.8959348" lon="9.5143613"><ele>857.0</ele><time>2026-04-06T13:18:10.011Z</time></trkpt><trkpt lat="39.8960475" lon="9.5144257"><ele>857.0</ele><time>2026-04-06T13:18:11.012Z</time></trkpt><trkpt lat="39.8961452" lon="9.5145048"><ele>857.0</ele><time>2026-04-06T13:18:12.011Z</time></trkpt><trkpt lat="39.8962178" lon="9.5146006"><ele>857.0</ele><time>2026-04-06T13:18:13.012Z</time></trkpt><trkpt lat="39.8962784" lon="9.5147135"><ele>857.0</ele><time>2026-04-06T13:18:14.012Z</time></trkpt><trkpt lat="39.896326" lon="9.5148303"><ele>856.2</ele><time>2026-04-06T13:18:15.012Z</time></trkpt><trkpt lat="39.8963691" lon="9.5149474"><ele>855.4000000000001</ele><time>2026-04-06T13:18:16.012Z</time></trkpt><trkpt lat="39.896405" lon="9.5150647"><ele>854.5999999999999</ele><time>2026-04-06T13:18:17.012Z</time></trkpt><trkpt lat="39.8964349" lon="9.5151872"><ele>853.8</ele><time>2026-04-06T13:18:18.012Z</time></trkpt><trkpt lat="39.8964571" lon="9.515308"><ele>853.0</ele><time>2026-04-06T13:18:19.011Z</time></trkpt><trkpt lat="39.8964657" lon="9.5154282"><ele>852.9999999999999</ele><time>2026-04-06T13:18:20.012Z</time></trkpt><trkpt lat="39.8964696" lon="9.5155373"><ele>853.0</ele><time>2026-04-06T13:18:21.012Z</time></trkpt><trkpt lat="39.8964447" lon="9.5156152"><ele>853.0</ele><time>2026-04-06T13:18:22.012Z</time></trkpt><trkpt lat="39.8963491" lon="9.515632"><ele>853.0</ele><time>2026-04-06T13:18:24.011Z</time></trkpt><trkpt lat="39.8962974" lon="9.5155513"><ele>852.9999999999999</ele><time>2026-04-06T13:18:25.012Z</time></trkpt><trkpt lat="39.8962692" lon="9.5154235"><ele>853.0</ele><time>2026-04-06T13:18:26.012Z</time></trkpt><trkpt lat="39.8962273" lon="9.5152993"><ele>853.0</ele><time>2026-04-06T13:18:27.011Z</time></trkpt><trkpt lat="39.8961677" lon="9.5151946"><ele>853.0</ele><time>2026-04-06T13:18:28.012Z</time></trkpt><trkpt lat="39.8960946" lon="9.5151148"><ele>853.0</ele><time>2026-04-06T13:18:29.011Z</time></trkpt><trkpt lat="39.8960112" lon="9.51508"><ele>853.0</ele><time>2026-04-06T13:18:30.012Z</time></trkpt><trkpt lat="39.8959026" lon="9.5151024"><ele>853.0</ele><time>2026-04-06T13:18:31.011Z</time></trkpt><trkpt lat="39.895789" lon="9.5151632"><ele>850.4</ele><time>2026-04-06T13:18:32.011Z</time></trkpt><trkpt lat="39.8956888" lon="9.5152366"><ele>847.8</ele><time>2026-04-06T13:18:33.012Z</time></trkpt><trkpt lat="39.8956013" lon="9.515319"><ele>845.2</ele><time>2026-04-06T13:18:34.012Z</time></trkpt><trkpt lat="39.8955246" lon="9.5154129"><ele>842.6</ele><time>2026-04-06T13:18:35.012Z</time></trkpt><trkpt lat="39.895484" lon="9.5155226"><ele>840.0</ele><time>2026-04-06T13:18:36.012Z</time></trkpt><trkpt lat="39.8954482" lon="9.5156289"><ele>838.6</ele><time>2026-04-06T13:18:37.012Z</time></trkpt><trkpt lat="39.8954082" lon="9.5157476"><ele>837.2</ele><time>2026-04-06T13:18:38.011Z</time></trkpt><trkpt lat="39.8953669" lon="9.5158761"><ele>835.8</ele><time>2026-04-06T13:18:39.012Z</time></trkpt><trkpt lat="39.8953228" lon="9.5160123"><ele>834.4</ele><time>2026-04-06T13:18:40.012Z</time></trkpt><trkpt lat="39.8952707" lon="9.5161558"><ele>833.0</ele><time>2026-04-06T13:18:41.012Z</time></trkpt><trkpt lat="39.8952068" lon="9.5162989"><ele>830.75</ele><time>2026-04-06T13:18:42.012Z</time></trkpt><trkpt lat="39.89511" lon="9.5164222"><ele>828.5</ele><time>2026-04-06T13:18:43.012Z</time></trkpt><trkpt lat="39.8949726" lon="9.5165354"><ele>826.25</ele><time>2026-04-06T13:18:44.012Z</time></trkpt><trkpt lat="39.8948687" lon="9.5166674"><ele>824.0</ele><time>2026-04-06T13:18:45.011Z</time></trkpt><trkpt lat="39.8947891" lon="9.5168314"><ele>823.75</ele><time>2026-04-06T13:18:46.011Z</time></trkpt><trkpt lat="39.89473" lon="9.5170033"><ele>823.5</ele><time>2026-04-06T13:18:47.012Z</time></trkpt><trkpt lat="39.894715" lon="9.517181"><ele>823.25</ele><time>2026-04-06T13:18:48.011Z</time></trkpt><trkpt lat="39.8947361" lon="9.5173425"><ele>823.0</ele><time>2026-04-06T13:18:49.012Z</time></trkpt><trkpt lat="39.8947676" lon="9.5174935"><ele>820.0</ele><time>2026-04-06T13:18:50.011Z</time></trkpt><trkpt lat="39.8947549" lon="9.5176631"><ele>817.0</ele><time>2026-04-06T13:18:51.011Z</time></trkpt><trkpt lat="39.894702" lon="9.5178369"><ele>814.0</ele><time>2026-04-06T13:18:52.012Z</time></trkpt><trkpt lat="39.8946486" lon="9.518019"><ele>811.0</ele><time>2026-04-06T13:18:53.012Z</time></trkpt><trkpt lat="39.894516" lon="9.5181891"><ele>813.0</ele><time>2026-04-06T13:18:54.011Z</time></trkpt><trkpt lat="39.8944223" lon="9.518371"><ele>815.0</ele><time>2026-04-06T13:18:55.012Z</time></trkpt><trkpt lat="39.8943208" lon="9.518546"><ele>817.0</ele><time>2026-04-06T13:18:56.012Z</time></trkpt><trkpt lat="39.894212" lon="9.5187238"><ele>809.6666666666666</ele><time>2026-04-06T13:18:57.012Z</time></trkpt><trkpt lat="39.8940871" lon="9.5188784"><ele>802.3333333333333</ele><time>2026-04-06T13:18:58.011Z</time></trkpt><trkpt lat="39.8939537" lon="9.5190177"><ele>795.0</ele><time>2026-04-06T13:18:59.012Z</time></trkpt><trkpt lat="39.893828" lon="9.5191493"><ele>795.0</ele><time>2026-04-06T13:19:00.012Z</time></trkpt><trkpt lat="39.8937126" lon="9.5192868"><ele>795.0</ele><time>2026-04-06T13:19:01.012Z</time></trkpt><trkpt lat="39.893614" lon="9.5194306"><ele>795.0</ele><time>2026-04-06T13:19:02.012Z</time></trkpt><trkpt lat="39.8935313" lon="9.5195883"><ele>794.6666666666667</ele><time>2026-04-06T13:19:03.012Z</time></trkpt><trkpt lat="39.8934336" lon="9.519741"><ele>794.3333333333334</ele><time>2026-04-06T13:19:04.012Z</time></trkpt><trkpt lat="39.8933172" lon="9.5198809"><ele>794.0</ele><time>2026-04-06T13:19:05.012Z</time></trkpt><trkpt lat="39.8931989" lon="9.5199924"><ele>794.0</ele><time>2026-04-06T13:19:06.011Z</time></trkpt><trkpt lat="39.8930539" lon="9.5200756"><ele>794.0</ele><time>2026-04-06T13:19:07.011Z</time></trkpt><trkpt lat="39.8929136" lon="9.5201335"><ele>794.0</ele><time>2026-04-06T13:19:08.012Z</time></trkpt><trkpt lat="39.8927752" lon="9.5202105"><ele>794.0</ele><time>2026-04-06T13:19:09.012Z</time></trkpt><trkpt lat="39.8926424" lon="9.5203297"><ele>794.0</ele><time>2026-04-06T13:19:10.012Z</time></trkpt><trkpt lat="39.8925162" lon="9.520461"><ele>794.0</ele><time>2026-04-06T13:19:11.012Z</time></trkpt><trkpt lat="39.8923805" lon="9.5205756"><ele>790.0</ele><time>2026-04-06T13:19:12.011Z</time></trkpt><trkpt lat="39.8922403" lon="9.5206692"><ele>786.0</ele><time>2026-04-06T13:19:13.012Z</time></trkpt><trkpt lat="39.8921147" lon="9.5207813"><ele>782.0</ele><time>2026-04-06T13:19:14.012Z</time></trkpt><trkpt lat="39.8919979" lon="9.5209091"><ele>782.0</ele><time>2026-04-06T13:19:15.012Z</time></trkpt><trkpt lat="39.8918803" lon="9.5210493"><ele>782.0</ele><time>2026-04-06T13:19:16.012Z</time></trkpt><trkpt lat="39.8917519" lon="9.5211632"><ele>782.0</ele><time>2026-04-06T13:19:17.011Z</time></trkpt><trkpt lat="39.8915991" lon="9.5212355"><ele>780.5</ele><time>2026-04-06T13:19:18.011Z</time></trkpt><trkpt lat="39.8914452" lon="9.5212676"><ele>779.0</ele><time>2026-04-06T13:19:19.011Z</time></trkpt><trkpt lat="39.8913019" lon="9.5213036"><ele>777.5</ele><time>2026-04-06T13:19:20.012Z</time></trkpt><trkpt lat="39.8911733" lon="9.5213349"><ele>776.0</ele><time>2026-04-06T13:19:21.011Z</time></trkpt><trkpt lat="39.8910435" lon="9.5213407"><ele>775.25</ele><time>2026-04-06T13:19:22.012Z</time></trkpt><trkpt lat="39.8909222" lon="9.5212935"><ele>774.5</ele><time>2026-04-06T13:19:23.012Z</time></trkpt><trkpt lat="39.8908219" lon="9.5212128"><ele>773.75</ele><time>2026-04-06T13:19:24.012Z</time></trkpt><trkpt lat="39.8907326" lon="9.5211348"><ele>773.0</ele><time>2026-04-06T13:19:25.012Z</time></trkpt><trkpt lat="39.8906481" lon="9.5210415"><ele>775.5999999999999</ele><time>2026-04-06T13:19:26.012Z</time></trkpt><trkpt lat="39.8905942" lon="9.5209299"><ele>778.1999999999999</ele><time>2026-04-06T13:19:27.012Z</time></trkpt><trkpt lat="39.8905808" lon="9.5207955"><ele>780.8</ele><time>2026-04-06T13:19:28.012Z</time></trkpt><trkpt lat="39.8905862" lon="9.5206779"><ele>783.4</ele><time>2026-04-06T13:19:29.011Z</time></trkpt><trkpt lat="39.8905637" lon="9.5205713"><ele>786.0</ele><time>2026-04-06T13:19:30.012Z</time></trkpt><trkpt lat="39.8905156" lon="9.5204839"><ele>786.0</ele><time>2026-04-06T13:19:31.012Z</time></trkpt><trkpt lat="39.8904673" lon="9.5203972"><ele>786.0</ele><time>2026-04-06T13:19:32.012Z</time></trkpt><trkpt lat="39.8903349" lon="9.5204393"><ele>786.0</ele><time>2026-04-06T13:19:33.012Z</time></trkpt><trkpt lat="39.8902366" lon="9.5204956"><ele>786.0</ele><time>2026-04-06T13:19:34.012Z</time></trkpt><trkpt lat="39.8901502" lon="9.5206016"><ele>786.0</ele><time>2026-04-06T13:19:35.011Z</time></trkpt><trkpt lat="39.8900809" lon="9.5207542"><ele>786.0</ele><time>2026-04-06T13:19:36.012Z</time></trkpt><trkpt lat="39.890073" lon="9.5209589"><ele>786.0</ele><time>2026-04-06T13:19:37.012Z</time></trkpt><trkpt lat="39.8900378" lon="9.5211674"><ele>786.0</ele><time>2026-04-06T13:19:38.011Z</time></trkpt><trkpt lat="39.8899971" lon="9.5213943"><ele>780.6666666666667</ele><time>2026-04-06T13:19:39.012Z</time></trkpt><trkpt lat="39.8899701" lon="9.5216177"><ele>775.3333333333334</ele><time>2026-04-06T13:19:40.012Z</time></trkpt><trkpt lat="39.8899392" lon="9.5218373"><ele>770.0</ele><time>2026-04-06T13:19:41.012Z</time></trkpt><trkpt lat="39.8898903" lon="9.5220385"><ele>763.3333333333334</ele><time>2026-04-06T13:19:42.012Z</time></trkpt><trkpt lat="39.8898126" lon="9.5222224"><ele>756.6666666666667</ele><time>2026-04-06T13:19:43.012Z</time></trkpt><trkpt lat="39.8897057" lon="9.5223756"><ele>750.0</ele><time>2026-04-06T13:19:44.012Z</time></trkpt><trkpt lat="39.8896173" lon="9.5225461"><ele>750.0</ele><time>2026-04-06T13:19:45.012Z</time></trkpt><trkpt lat="39.8895481" lon="9.5227192"><ele>750.0</ele><time>2026-04-06T13:19:46.012Z</time></trkpt><trkpt lat="39.8894913" lon="9.5228984"><ele>750.0</ele><time>2026-04-06T13:19:47.011Z</time></trkpt><trkpt lat="39.8894302" lon="9.5230658"><ele>750.0</ele><time>2026-04-06T13:19:48.012Z</time></trkpt><trkpt lat="39.8893706" lon="9.5232266"><ele>750.3333333333334</ele><time>2026-04-06T13:19:49.011Z</time></trkpt><trkpt lat="39.8892977" lon="9.5233678"><ele>750.6666666666667</ele><time>2026-04-06T13:19:50.012Z</time></trkpt><trkpt lat="39.8891219" lon="9.523458"><ele>751.0</ele><time>2026-04-06T13:19:51.011Z</time></trkpt><trkpt lat="39.8889873" lon="9.52356"><ele>751.0</ele><time>2026-04-06T13:19:52.012Z</time></trkpt><trkpt lat="39.8888594" lon="9.5236605"><ele>751.0</ele><time>2026-04-06T13:19:53.012Z</time></trkpt><trkpt lat="39.8887277" lon="9.5237563"><ele>751.0</ele><time>2026-04-06T13:19:54.012Z</time></trkpt><trkpt lat="39.8886065" lon="9.5238441"><ele>751.0</ele><time>2026-04-06T13:19:55.012Z</time></trkpt><trkpt lat="39.8884819" lon="9.5239275"><ele>748.0</ele><time>2026-04-06T13:19:56.012Z</time></trkpt><trkpt lat="39.8883541" lon="9.5240073"><ele>745.0</ele><time>2026-04-06T13:19:57.012Z</time></trkpt><trkpt lat="39.8882266" lon="9.5240658"><ele>742.0</ele><time>2026-04-06T13:19:58.012Z</time></trkpt><trkpt lat="39.8880923" lon="9.5241098"><ele>739.0</ele><time>2026-04-06T13:19:59.012Z</time></trkpt><trkpt lat="39.8879603" lon="9.5241526"><ele>739.0</ele><time>2026-04-06T13:20:00.012Z</time></trkpt><trkpt lat="39.8878398" lon="9.5241856"><ele>739.0</ele><time>2026-04-06T13:20:01.012Z</time></trkpt><trkpt lat="39.8877233" lon="9.5242173"><ele>739.0</ele><time>2026-04-06T13:20:02.012Z</time></trkpt><trkpt lat="39.8876232" lon="9.5242957"><ele>739.0</ele><time>2026-04-06T13:20:03.011Z</time></trkpt><trkpt lat="39.887525" lon="9.524367"><ele>739.75</ele><time>2026-04-06T13:20:04.011Z</time></trkpt><trkpt lat="39.8874594" lon="9.5244764"><ele>740.5</ele><time>2026-04-06T13:20:05.012Z</time></trkpt><trkpt lat="39.8875843" lon="9.524663"><ele>741.25</ele><time>2026-04-06T13:20:06.011Z</time></trkpt><trkpt lat="39.8875984" lon="9.5248191"><ele>742.0</ele><time>2026-04-06T13:20:07.012Z</time></trkpt><trkpt lat="39.8876222" lon="9.5250153"><ele>736.75</ele><time>2026-04-06T13:20:08.011Z</time></trkpt><trkpt lat="39.8876552" lon="9.5252076"><ele>731.5</ele><time>2026-04-06T13:20:09.011Z</time></trkpt><trkpt lat="39.8876992" lon="9.5253838"><ele>726.25</ele><time>2026-04-06T13:20:10.012Z</time></trkpt><trkpt lat="39.887773" lon="9.5255359"><ele>721.0</ele><time>2026-04-06T13:20:11.012Z</time></trkpt><trkpt lat="39.8878486" lon="9.5256467"><ele>720.0</ele><time>2026-04-06T13:20:12.011Z</time></trkpt><trkpt lat="39.8879203" lon="9.5257626"><ele>719.0</ele><time>2026-04-06T13:20:13.011Z</time></trkpt><trkpt lat="39.8879871" lon="9.5258932"><ele>718.0</ele><time>2026-04-06T13:20:14.011Z</time></trkpt><trkpt lat="39.8879571" lon="9.5260645"><ele>717.0</ele><time>2026-04-06T13:20:15.012Z</time></trkpt><trkpt lat="39.887914" lon="9.5262528"><ele>713.3333333333334</ele><time>2026-04-06T13:20:16.012Z</time></trkpt><trkpt lat="39.8878742" lon="9.5264439"><ele>709.6666666666667</ele><time>2026-04-06T13:20:17.012Z</time></trkpt><trkpt lat="39.8878229" lon="9.5266526"><ele>706.0</ele><time>2026-04-06T13:20:18.011Z</time></trkpt><trkpt lat="39.8877556" lon="9.5268648"><ele>703.0</ele><time>2026-04-06T13:20:19.012Z</time></trkpt><trkpt lat="39.8876817" lon="9.5270788"><ele>700.0</ele><time>2026-04-06T13:20:20.012Z</time></trkpt><trkpt lat="39.8876025" lon="9.5272823"><ele>697.0</ele><time>2026-04-06T13:20:21.012Z</time></trkpt><trkpt lat="39.887415" lon="9.5273806"><ele>703.6666666666667</ele><time>2026-04-06T13:20:22.012Z</time></trkpt><trkpt lat="39.8872879" lon="9.5275375"><ele>710.3333333333334</ele><time>2026-04-06T13:20:23.011Z</time></trkpt><trkpt lat="39.8871631" lon="9.5276814"><ele>717.0</ele><time>2026-04-06T13:20:24.012Z</time></trkpt><trkpt lat="39.8870317" lon="9.5278196"><ele>715.0</ele><time>2026-04-06T13:20:25.012Z</time></trkpt><trkpt lat="39.8868953" lon="9.5279154"><ele>713.0</ele><time>2026-04-06T13:20:26.012Z</time></trkpt><trkpt lat="39.8867482" lon="9.5279869"><ele>711.0</ele><time>2026-04-06T13:20:27.011Z</time></trkpt><trkpt lat="39.8866194" lon="9.5280351"><ele>709.0</ele><time>2026-04-06T13:20:28.011Z</time></trkpt><trkpt lat="39.886506" lon="9.5280596"><ele>709.0</ele><time>2026-04-06T13:20:29.012Z</time></trkpt><trkpt lat="39.8864046" lon="9.5281022"><ele>709.0</ele><time>2026-04-06T13:20:30.012Z</time></trkpt><trkpt lat="39.8863332" lon="9.5281554"><ele>709.0</ele><time>2026-04-06T13:20:31.012Z</time></trkpt><trkpt lat="39.8863175" lon="9.5282975"><ele>709.0</ele><time>2026-04-06T13:20:33.011Z</time></trkpt><trkpt lat="39.8864545" lon="9.5283381"><ele>709.0</ele><time>2026-04-06T13:20:35.012Z</time></trkpt><trkpt lat="39.8865688" lon="9.5283138"><ele>709.0</ele><time>2026-04-06T13:20:36.011Z</time></trkpt><trkpt lat="39.8867093" lon="9.5282892"><ele>709.0</ele><time>2026-04-06T13:20:37.012Z</time></trkpt><trkpt lat="39.8868716" lon="9.5282556"><ele>709.0</ele><time>2026-04-06T13:20:38.012Z</time></trkpt><trkpt lat="39.8870494" lon="9.5282258"><ele>705.6666666666667</ele><time>2026-04-06T13:20:39.012Z</time></trkpt><trkpt lat="39.8872203" lon="9.5282006"><ele>702.3333333333334</ele><time>2026-04-06T13:20:40.012Z</time></trkpt><trkpt lat="39.887389" lon="9.5281689"><ele>699.0</ele><time>2026-04-06T13:20:41.012Z</time></trkpt><trkpt lat="39.887545" lon="9.5281221"><ele>696.75</ele><time>2026-04-06T13:20:42.012Z</time></trkpt><trkpt lat="39.8876886" lon="9.5280832"><ele>694.5</ele><time>2026-04-06T13:20:43.012Z</time></trkpt><trkpt lat="39.8878155" lon="9.5280861"><ele>692.25</ele><time>2026-04-06T13:20:44.012Z</time></trkpt><trkpt lat="39.8879401" lon="9.5281506"><ele>690.0</ele><time>2026-04-06T13:20:45.011Z</time></trkpt><trkpt lat="39.8880533" lon="9.5282708"><ele>690.0</ele><time>2026-04-06T13:20:46.012Z</time></trkpt><trkpt lat="39.8881311" lon="9.5284357"><ele>690.0</ele><time>2026-04-06T13:20:47.012Z</time></trkpt><trkpt lat="39.8881818" lon="9.528615"><ele>690.0</ele><time>2026-04-06T13:20:48.011Z</time></trkpt><trkpt lat="39.8882264" lon="9.5287946"><ele>690.0</ele><time>2026-04-06T13:20:49.012Z</time></trkpt><trkpt lat="39.88826" lon="9.5289822"><ele>688.75</ele><time>2026-04-06T13:20:50.012Z</time></trkpt><trkpt lat="39.8882947" lon="9.5291527"><ele>687.5</ele><time>2026-04-06T13:20:51.011Z</time></trkpt><trkpt lat="39.8883173" lon="9.5293181"><ele>686.25</ele><time>2026-04-06T13:20:52.012Z</time></trkpt><trkpt lat="39.8883069" lon="9.5294606"><ele>685.0</ele><time>2026-04-06T13:20:53.012Z</time></trkpt><trkpt lat="39.8882713" lon="9.5295933"><ele>682.8</ele><time>2026-04-06T13:20:54.012Z</time></trkpt><trkpt lat="39.8882149" lon="9.5296901"><ele>680.6</ele><time>2026-04-06T13:20:55.011Z</time></trkpt><trkpt lat="39.8881336" lon="9.5297298"><ele>678.4000000000001</ele><time>2026-04-06T13:20:56.012Z</time></trkpt><trkpt lat="39.8880427" lon="9.5297123"><ele>676.2</ele><time>2026-04-06T13:20:57.011Z</time></trkpt><trkpt lat="39.8879506" lon="9.529675"><ele>674.0</ele><time>2026-04-06T13:20:58.012Z</time></trkpt><trkpt lat="39.8878444" lon="9.52956"><ele>676.75</ele><time>2026-04-06T13:20:59.011Z</time></trkpt><trkpt lat="39.8877299" lon="9.5294634"><ele>679.5</ele><time>2026-04-06T13:21:00.011Z</time></trkpt><trkpt lat="39.887599" lon="9.5293733"><ele>682.25</ele><time>2026-04-06T13:21:01.012Z</time></trkpt><trkpt lat="39.887465" lon="9.5292911"><ele>685.0</ele><time>2026-04-06T13:21:02.012Z</time></trkpt><trkpt lat="39.8873344" lon="9.5292259"><ele>685.4</ele><time>2026-04-06T13:21:03.012Z</time></trkpt><trkpt lat="39.8872271" lon="9.529184"><ele>685.8</ele><time>2026-04-06T13:21:04.012Z</time></trkpt><trkpt lat="39.887127" lon="9.5291774"><ele>686.2</ele><time>2026-04-06T13:21:05.011Z</time></trkpt><trkpt lat="39.8870155" lon="9.5292298"><ele>686.6</ele><time>2026-04-06T13:21:06.012Z</time></trkpt><trkpt lat="39.8869141" lon="9.5293096"><ele>687.0</ele><time>2026-04-06T13:21:07.011Z</time></trkpt><trkpt lat="39.8868121" lon="9.5294174"><ele>687.3333333333334</ele><time>2026-04-06T13:21:08.012Z</time></trkpt><trkpt lat="39.8867093" lon="9.5295333"><ele>687.6666666666667</ele><time>2026-04-06T13:21:09.012Z</time></trkpt><trkpt lat="39.8865781" lon="9.5296483"><ele>688.0</ele><time>2026-04-06T13:21:10.012Z</time></trkpt><trkpt lat="39.8864531" lon="9.5297789"><ele>682.0</ele><time>2026-04-06T13:21:11.011Z</time></trkpt><trkpt lat="39.8863167" lon="9.5298987"><ele>676.0</ele><time>2026-04-06T13:21:12.012Z</time></trkpt><trkpt lat="39.8861894" lon="9.5300503"><ele>670.0</ele><time>2026-04-06T13:21:13.011Z</time></trkpt><trkpt lat="39.8861058" lon="9.5302192"><ele>670.0</ele><time>2026-04-06T13:21:14.012Z</time></trkpt><trkpt lat="39.8860272" lon="9.5303776"><ele>670.0</ele><time>2026-04-06T13:21:15.011Z</time></trkpt><trkpt lat="39.8859612" lon="9.5305431"><ele>670.0</ele><time>2026-04-06T13:21:16.012Z</time></trkpt><trkpt lat="39.8859067" lon="9.5307088"><ele>670.0</ele><time>2026-04-06T13:21:17.012Z</time></trkpt><trkpt lat="39.8858531" lon="9.5308602"><ele>668.2</ele><time>2026-04-06T13:21:18.011Z</time></trkpt><trkpt lat="39.885797" lon="9.5309908"><ele>666.4</ele><time>2026-04-06T13:21:19.012Z</time></trkpt><trkpt lat="39.8857283" lon="9.5310951"><ele>664.5999999999999</ele><time>2026-04-06T13:21:20.011Z</time></trkpt><trkpt lat="39.8856524" lon="9.5311462"><ele>662.8</ele><time>2026-04-06T13:21:21.012Z</time></trkpt><trkpt lat="39.8855624" lon="9.5311338"><ele>661.0</ele><time>2026-04-06T13:21:22.012Z</time></trkpt><trkpt lat="39.885469" lon="9.5310963"><ele>661.0</ele><time>2026-04-06T13:21:23.012Z</time></trkpt><trkpt lat="39.8853758" lon="9.531047"><ele>661.0</ele><time>2026-04-06T13:21:24.012Z</time></trkpt><trkpt lat="39.8852735" lon="9.5310014"><ele>661.0</ele><time>2026-04-06T13:21:25.012Z</time></trkpt><trkpt lat="39.8851656" lon="9.5309646"><ele>661.0</ele><time>2026-04-06T13:21:26.012Z</time></trkpt><trkpt lat="39.8850638" lon="9.5309376"><ele>661.0</ele><time>2026-04-06T13:21:27.012Z</time></trkpt><trkpt lat="39.8849667" lon="9.5309347"><ele>661.5999999999999</ele><time>2026-04-06T13:21:28.012Z</time></trkpt><trkpt lat="39.8848844" lon="9.5309841"><ele>662.2</ele><time>2026-04-06T13:21:29.012Z</time></trkpt><trkpt lat="39.8848192" lon="9.5310638"><ele>662.8</ele><time>2026-04-06T13:21:30.012Z</time></trkpt><trkpt lat="39.8847476" lon="9.5311514"><ele>663.4000000000001</ele><time>2026-04-06T13:21:31.012Z</time></trkpt><trkpt lat="39.8846566" lon="9.5312273"><ele>664.0</ele><time>2026-04-06T13:21:32.011Z</time></trkpt><trkpt lat="39.8845475" lon="9.5312927"><ele>659.75</ele><time>2026-04-06T13:21:33.012Z</time></trkpt><trkpt lat="39.8844296" lon="9.5313476"><ele>655.5</ele><time>2026-04-06T13:21:34.012Z</time></trkpt><trkpt lat="39.8843114" lon="9.531408"><ele>651.25</ele><time>2026-04-06T13:21:35.012Z</time></trkpt><trkpt lat="39.8842004" lon="9.5314574"><ele>647.0</ele><time>2026-04-06T13:21:36.011Z</time></trkpt><trkpt lat="39.8840859" lon="9.5314849"><ele>647.0</ele><time>2026-04-06T13:21:37.011Z</time></trkpt><trkpt lat="39.8839788" lon="9.5314802"><ele>647.0</ele><time>2026-04-06T13:21:38.012Z</time></trkpt><trkpt lat="39.8838829" lon="9.531504"><ele>647.0</ele><time>2026-04-06T13:21:39.012Z</time></trkpt><trkpt lat="39.8838022" lon="9.5315658"><ele>647.0</ele><time>2026-04-06T13:21:40.011Z</time></trkpt><trkpt lat="39.8837379" lon="9.5316593"><ele>647.0</ele><time>2026-04-06T13:21:41.011Z</time></trkpt><trkpt lat="39.8836762" lon="9.5317533"><ele>647.0</ele><time>2026-04-06T13:21:42.012Z</time></trkpt><trkpt lat="39.8836118" lon="9.5318533"><ele>647.0</ele><time>2026-04-06T13:21:43.011Z</time></trkpt><trkpt lat="39.8835339" lon="9.5319434"><ele>647.0</ele><time>2026-04-06T13:21:44.012Z</time></trkpt><trkpt lat="39.8834385" lon="9.5320019"><ele>647.0</ele><time>2026-04-06T13:21:45.012Z</time></trkpt><trkpt lat="39.8833395" lon="9.5320596"><ele>647.0</ele><time>2026-04-06T13:21:46.012Z</time></trkpt><trkpt lat="39.8832395" lon="9.5321205"><ele>644.6</ele><time>2026-04-06T13:21:47.012Z</time></trkpt><trkpt lat="39.8831459" lon="9.5321962"><ele>642.2</ele><time>2026-04-06T13:21:48.012Z</time></trkpt><trkpt lat="39.883065" lon="9.5322831"><ele>639.8</ele><time>2026-04-06T13:21:49.012Z</time></trkpt><trkpt lat="39.8829819" lon="9.5323648"><ele>637.4</ele><time>2026-04-06T13:21:50.011Z</time></trkpt><trkpt lat="39.8828939" lon="9.5324382"><ele>635.0</ele><time>2026-04-06T13:21:51.012Z</time></trkpt><trkpt lat="39.8827881" lon="9.5324512"><ele>635.0</ele><time>2026-04-06T13:21:52.012Z</time></trkpt><trkpt lat="39.8826871" lon="9.5324357"><ele>635.0</ele><time>2026-04-06T13:21:53.012Z</time></trkpt><trkpt lat="39.8825913" lon="9.5324156"><ele>635.0</ele><time>2026-04-06T13:21:54.012Z</time></trkpt><trkpt lat="39.8824954" lon="9.5324246"><ele>635.0</ele><time>2026-04-06T13:21:55.012Z</time></trkpt><trkpt lat="39.8824127" lon="9.5324806"><ele>635.0</ele><time>2026-04-06T13:21:56.012Z</time></trkpt><trkpt lat="39.8823409" lon="9.5325572"><ele>633.6</ele><time>2026-04-06T13:21:57.012Z</time></trkpt><trkpt lat="39.8822987" lon="9.5326918"><ele>632.2</ele><time>2026-04-06T13:21:58.012Z</time></trkpt><trkpt lat="39.8822726" lon="9.5328288"><ele>630.8</ele><time>2026-04-06T13:21:59.012Z</time></trkpt><trkpt lat="39.8822546" lon="9.5329678"><ele>629.4</ele><time>2026-04-06T13:22:00.011Z</time></trkpt><trkpt lat="39.8822447" lon="9.533108"><ele>628.0</ele><time>2026-04-06T13:22:01.012Z</time></trkpt><trkpt lat="39.8822315" lon="9.5332479"><ele>628.0</ele><time>2026-04-06T13:22:02.012Z</time></trkpt><trkpt lat="39.8822185" lon="9.5333858"><ele>628.0</ele><time>2026-04-06T13:22:03.012Z</time></trkpt><trkpt lat="39.8822028" lon="9.5335261"><ele>628.0</ele><time>2026-04-06T13:22:04.011Z</time></trkpt><trkpt lat="39.8821879" lon="9.5336612"><ele>628.0</ele><time>2026-04-06T13:22:05.011Z</time></trkpt><trkpt lat="39.8821386" lon="9.5337904"><ele>628.0</ele><time>2026-04-06T13:22:06.012Z</time></trkpt><trkpt lat="39.8820795" lon="9.5339049"><ele>624.5</ele><time>2026-04-06T13:22:07.012Z</time></trkpt><trkpt lat="39.881999" lon="9.5340082"><ele>621.0</ele><time>2026-04-06T13:22:08.012Z</time></trkpt><trkpt lat="39.8819151" lon="9.5341062"><ele>617.5</ele><time>2026-04-06T13:22:09.012Z</time></trkpt><trkpt lat="39.8818343" lon="9.534204"><ele>614.0</ele><time>2026-04-06T13:22:10.012Z</time></trkpt><trkpt lat="39.8817479" lon="9.5343037"><ele>614.6</ele><time>2026-04-06T13:22:11.012Z</time></trkpt><trkpt lat="39.8816736" lon="9.5344145"><ele>615.2</ele><time>2026-04-06T13:22:12.012Z</time></trkpt><trkpt lat="39.8816047" lon="9.534523"><ele>615.8000000000001</ele><time>2026-04-06T13:22:13.012Z</time></trkpt><trkpt lat="39.8815348" lon="9.5346368"><ele>616.4</ele><time>2026-04-06T13:22:14.012Z</time></trkpt><trkpt lat="39.8814679" lon="9.5347475"><ele>617.0</ele><time>2026-04-06T13:22:15.011Z</time></trkpt><trkpt lat="39.8813961" lon="9.5348467"><ele>617.0</ele><time>2026-04-06T13:22:16.011Z</time></trkpt><trkpt lat="39.8813207" lon="9.5349469"><ele>617.0</ele><time>2026-04-06T13:22:17.011Z</time></trkpt><trkpt lat="39.8812427" lon="9.5350435"><ele>617.0</ele><time>2026-04-06T13:22:18.012Z</time></trkpt><trkpt lat="39.8811694" lon="9.5351304"><ele>617.0</ele><time>2026-04-06T13:22:19.012Z</time></trkpt><trkpt lat="39.8810982" lon="9.5352209"><ele>617.0</ele><time>2026-04-06T13:22:20.012Z</time></trkpt><trkpt lat="39.8810384" lon="9.5353128"><ele>617.1666666666666</ele><time>2026-04-06T13:22:21.011Z</time></trkpt><trkpt lat="39.8809888" lon="9.5354045"><ele>617.3333333333333</ele><time>2026-04-06T13:22:22.012Z</time></trkpt><trkpt lat="39.880942" lon="9.5354968"><ele>617.5</ele><time>2026-04-06T13:22:23.012Z</time></trkpt><trkpt lat="39.880888" lon="9.5355844"><ele>617.6666666666666</ele><time>2026-04-06T13:22:24.012Z</time></trkpt><trkpt lat="39.8808193" lon="9.535656"><ele>617.8333333333334</ele><time>2026-04-06T13:22:25.011Z</time></trkpt><trkpt lat="39.8807441" lon="9.5356867"><ele>618.0</ele><time>2026-04-06T13:22:26.012Z</time></trkpt><trkpt lat="39.8806454" lon="9.5357017"><ele>618.0</ele><time>2026-04-06T13:22:27.011Z</time></trkpt><trkpt lat="39.8805447" lon="9.5357297"><ele>618.0</ele><time>2026-04-06T13:22:28.012Z</time></trkpt><trkpt lat="39.8804434" lon="9.5357802"><ele>618.0</ele><time>2026-04-06T13:22:29.012Z</time></trkpt><trkpt lat="39.8803632" lon="9.5358632"><ele>618.0</ele><time>2026-04-06T13:22:30.012Z</time></trkpt><trkpt lat="39.8802943" lon="9.5359633"><ele>618.0</ele><time>2026-04-06T13:22:31.012Z</time></trkpt><trkpt lat="39.8802328" lon="9.5360803"><ele>618.0</ele><time>2026-04-06T13:22:32.012Z</time></trkpt><trkpt lat="39.8801882" lon="9.5362096"><ele>618.0</ele><time>2026-04-06T13:22:33.011Z</time></trkpt><trkpt lat="39.8801599" lon="9.5363477"><ele>618.0</ele><time>2026-04-06T13:22:34.012Z</time></trkpt><trkpt lat="39.8801387" lon="9.5364885"><ele>618.0</ele><time>2026-04-06T13:22:35.012Z</time></trkpt><trkpt lat="39.8801329" lon="9.5366335"><ele>618.0</ele><time>2026-04-06T13:22:36.012Z</time></trkpt><trkpt lat="39.8801517" lon="9.5367838"><ele>613.8</ele><time>2026-04-06T13:22:37.012Z</time></trkpt><trkpt lat="39.8801717" lon="9.5369225"><ele>609.5999999999999</ele><time>2026-04-06T13:22:38.012Z</time></trkpt><trkpt lat="39.880187" lon="9.5370671"><ele>605.4000000000001</ele><time>2026-04-06T13:22:39.012Z</time></trkpt><trkpt lat="39.8801849" lon="9.5372092"><ele>601.2</ele><time>2026-04-06T13:22:40.012Z</time></trkpt><trkpt lat="39.880159" lon="9.5373511"><ele>597.0</ele><time>2026-04-06T13:22:41.012Z</time></trkpt><trkpt lat="39.8801168" lon="9.5374848"><ele>597.8000000000001</ele><time>2026-04-06T13:22:42.012Z</time></trkpt><trkpt lat="39.8800623" lon="9.537612"><ele>598.6</ele><time>2026-04-06T13:22:43.012Z</time></trkpt><trkpt lat="39.880007" lon="9.537731"><ele>599.4000000000001</ele><time>2026-04-06T13:22:44.012Z</time></trkpt><trkpt lat="39.8799605" lon="9.5378546"><ele>600.2</ele><time>2026-04-06T13:22:45.012Z</time></trkpt><trkpt lat="39.8799109" lon="9.5379845"><ele>601.0</ele><time>2026-04-06T13:22:46.012Z</time></trkpt><trkpt lat="39.879867" lon="9.5381156"><ele>601.0</ele><time>2026-04-06T13:22:47.012Z</time></trkpt><trkpt lat="39.8798158" lon="9.5382509"><ele>601.0</ele><time>2026-04-06T13:22:48.012Z</time></trkpt><trkpt lat="39.8797665" lon="9.538393"><ele>601.0</ele><time>2026-04-06T13:22:49.012Z</time></trkpt><trkpt lat="39.8797212" lon="9.5385404"><ele>601.0</ele><time>2026-04-06T13:22:50.012Z</time></trkpt><trkpt lat="39.879681" lon="9.53868"><ele>599.4</ele><time>2026-04-06T13:22:51.012Z</time></trkpt><trkpt lat="39.8796438" lon="9.5388154"><ele>597.8</ele><time>2026-04-06T13:22:52.011Z</time></trkpt><trkpt lat="39.8796082" lon="9.538947"><ele>596.1999999999999</ele><time>2026-04-06T13:22:53.012Z</time></trkpt><trkpt lat="39.8795825" lon="9.5390728"><ele>594.6</ele><time>2026-04-06T13:22:54.012Z</time></trkpt><trkpt lat="39.8795691" lon="9.5391959"><ele>593.0</ele><time>2026-04-06T13:22:55.012Z</time></trkpt><trkpt lat="39.8795463" lon="9.5393096"><ele>593.0</ele><time>2026-04-06T13:22:56.011Z</time></trkpt><trkpt lat="39.8795271" lon="9.5394287"><ele>593.0</ele><time>2026-04-06T13:22:57.012Z</time></trkpt><trkpt lat="39.8795105" lon="9.5395453"><ele>593.0</ele><time>2026-04-06T13:22:58.012Z</time></trkpt><trkpt lat="39.8794939" lon="9.5396549"><ele>593.0</ele><time>2026-04-06T13:22:59.012Z</time></trkpt><trkpt lat="39.8794766" lon="9.5397622"><ele>593.0</ele><time>2026-04-06T13:23:00.012Z</time></trkpt><trkpt lat="39.8794583" lon="9.5398657"><ele>593.0</ele><time>2026-04-06T13:23:01.012Z</time></trkpt><trkpt lat="39.8794165" lon="9.5399628"><ele>592.0</ele><time>2026-04-06T13:23:02.012Z</time></trkpt><trkpt lat="39.8793825" lon="9.5400482"><ele>591.0</ele><time>2026-04-06T13:23:03.011Z</time></trkpt><trkpt lat="39.8793286" lon="9.5401014"><ele>590.0</ele><time>2026-04-06T13:23:04.012Z</time></trkpt><trkpt lat="39.879242" lon="9.5401425"><ele>589.0</ele><time>2026-04-06T13:23:05.012Z</time></trkpt><trkpt lat="39.8791832" lon="9.5402049"><ele>588.0</ele><time>2026-04-06T13:23:06.012Z</time></trkpt><trkpt lat="39.8791171" lon="9.5402603"><ele>587.0</ele><time>2026-04-06T13:23:07.012Z</time></trkpt><trkpt lat="39.8790643" lon="9.540346"><ele>589.1428571428571</ele><time>2026-04-06T13:23:08.012Z</time></trkpt><trkpt lat="39.8790486" lon="9.5404441"><ele>591.2857142857143</ele><time>2026-04-06T13:23:09.012Z</time></trkpt><trkpt lat="39.8790514" lon="9.5405427"><ele>593.4285714285714</ele><time>2026-04-06T13:23:10.012Z</time></trkpt><trkpt lat="39.8790782" lon="9.5406395"><ele>595.5714285714286</ele><time>2026-04-06T13:23:11.012Z</time></trkpt><trkpt lat="39.8791082" lon="9.540735"><ele>597.7142857142858</ele><time>2026-04-06T13:23:12.011Z</time></trkpt><trkpt lat="39.8791398" lon="9.5408226"><ele>599.8571428571429</ele><time>2026-04-06T13:23:13.011Z</time></trkpt><trkpt lat="39.8791666" lon="9.5408972"><ele>602.0</ele><time>2026-04-06T13:23:14.012Z</time></trkpt><trkpt lat="39.8792085" lon="9.5410103"><ele>602.0</ele><time>2026-04-06T13:23:16.011Z</time></trkpt><trkpt lat="39.8792417" lon="9.5410924"><ele>602.0</ele><time>2026-04-06T13:23:18.011Z</time></trkpt><trkpt lat="39.8792772" lon="9.5411925"><ele>602.0</ele><time>2026-04-06T13:23:20.011Z</time></trkpt><trkpt lat="39.8793258" lon="9.5412956"><ele>602.0</ele><time>2026-04-06T13:23:22.012Z</time></trkpt><trkpt lat="39.8793761" lon="9.5414212"><ele>602.0</ele><time>2026-04-06T13:23:24.011Z</time></trkpt><trkpt lat="39.8794238" lon="9.5415465"><ele>600.2</ele><time>2026-04-06T13:23:26.012Z</time></trkpt><trkpt lat="39.8794761" lon="9.5416789"><ele>598.4000000000001</ele><time>2026-04-06T13:23:28.012Z</time></trkpt><trkpt lat="39.8795212" lon="9.5417966"><ele>596.5999999999999</ele><time>2026-04-06T13:23:30.011Z</time></trkpt><trkpt lat="39.8795852" lon="9.5418779"><ele>594.8</ele><time>2026-04-06T13:23:32.012Z</time></trkpt><trkpt lat="39.8796757" lon="9.5418761"><ele>593.0</ele><time>2026-04-06T13:23:34.012Z</time></trkpt><trkpt lat="39.87977" lon="9.5418371"><ele>593.0</ele><time>2026-04-06T13:23:36.012Z</time></trkpt><trkpt lat="39.8798314" lon="9.5418082"><ele>593.0</ele><time>2026-04-06T13:23:37.012Z</time></trkpt><trkpt lat="39.8799497" lon="9.5417558"><ele>593.0</ele><time>2026-04-06T13:23:39.012Z</time></trkpt><trkpt lat="39.8800142" lon="9.5417363"><ele>593.0</ele><time>2026-04-06T13:23:40.012Z</time></trkpt><trkpt lat="39.8800725" lon="9.5417008"><ele>593.0</ele><time>2026-04-06T13:23:41.012Z</time></trkpt><trkpt lat="39.8801385" lon="9.5416722"><ele>593.0</ele><time>2026-04-06T13:23:42.012Z</time></trkpt><trkpt lat="39.8802286" lon="9.5415736"><ele>590.5</ele><time>2026-04-06T13:23:44.012Z</time></trkpt><trkpt lat="39.8802758" lon="9.5415175"><ele>588.0</ele><time>2026-04-06T13:23:45.012Z</time></trkpt><trkpt lat="39.8803241" lon="9.5414585"><ele>585.5</ele><time>2026-04-06T13:23:46.011Z</time></trkpt><trkpt lat="39.8803722" lon="9.5413964"><ele>583.0</ele><time>2026-04-06T13:23:47.012Z</time></trkpt><trkpt lat="39.8804201" lon="9.5413315"><ele>580.5</ele><time>2026-04-06T13:23:48.012Z</time></trkpt><trkpt lat="39.8804648" lon="9.5412599"><ele>578.0</ele><time>2026-04-06T13:23:49.012Z</time></trkpt><trkpt lat="39.8805271" lon="9.5411327"><ele>578.0</ele><time>2026-04-06T13:23:51.011Z</time></trkpt><trkpt lat="39.8805638" lon="9.5409893"><ele>578.0</ele><time>2026-04-06T13:23:53.011Z</time></trkpt><trkpt lat="39.8805245" lon="9.5408581"><ele>578.0</ele><time>2026-04-06T13:23:55.012Z</time></trkpt><trkpt lat="39.8804186" lon="9.5407991"><ele>578.0</ele><time>2026-04-06T13:23:57.011Z</time></trkpt><trkpt lat="39.8803036" lon="9.5407932"><ele>578.0</ele><time>2026-04-06T13:23:59.012Z</time></trkpt><trkpt lat="39.88024" lon="9.5408006"><ele>578.0</ele><time>2026-04-06T13:24:00.012Z</time></trkpt><trkpt lat="39.8801768" lon="9.5408013"><ele>578.0</ele><time>2026-04-06T13:24:01.011Z</time></trkpt><trkpt lat="39.8801075" lon="9.540793"><ele>578.0</ele><time>2026-04-06T13:24:02.012Z</time></trkpt><trkpt lat="39.8800286" lon="9.5407826"><ele>578.0</ele><time>2026-04-06T13:24:03.012Z</time></trkpt><trkpt lat="39.8799634" lon="9.5407345"><ele>578.0</ele><time>2026-04-06T13:24:04.012Z</time></trkpt><trkpt lat="39.8798871" lon="9.5407233"><ele>578.0</ele><time>2026-04-06T13:24:05.011Z</time></trkpt><trkpt lat="39.8798735" lon="9.5406221"><ele>579.5</ele><time>2026-04-06T13:24:06.012Z</time></trkpt><trkpt lat="39.8798747" lon="9.540526"><ele>581.0</ele><time>2026-04-06T13:24:07.012Z</time></trkpt><trkpt lat="39.87988" lon="9.540436"><ele>582.5</ele><time>2026-04-06T13:24:08.012Z</time></trkpt><trkpt lat="39.879907" lon="9.5403428"><ele>584.0</ele><time>2026-04-06T13:24:09.011Z</time></trkpt><trkpt lat="39.8799508" lon="9.5402793"><ele>585.5</ele><time>2026-04-06T13:24:10.012Z</time></trkpt><trkpt lat="39.8799802" lon="9.5401999"><ele>587.0</ele><time>2026-04-06T13:24:11.011Z</time></trkpt><trkpt lat="39.88005" lon="9.5400663"><ele>583.5</ele><time>2026-04-06T13:24:13.011Z</time></trkpt><trkpt lat="39.8801038" lon="9.5400229"><ele>580.0</ele><time>2026-04-06T13:24:14.012Z</time></trkpt><trkpt lat="39.8801753" lon="9.5399207"><ele>576.5</ele><time>2026-04-06T13:24:16.012Z</time></trkpt><trkpt lat="39.8802333" lon="9.5398036"><ele>573.0</ele><time>2026-04-06T13:24:18.012Z</time></trkpt><trkpt lat="39.880336" lon="9.5396192"><ele>571.25</ele><time>2026-04-06T13:24:21.011Z</time></trkpt><trkpt lat="39.8804325" lon="9.5394157"><ele>569.5</ele><time>2026-04-06T13:24:24.012Z</time></trkpt><trkpt lat="39.8804882" lon="9.5392651"><ele>567.75</ele><time>2026-04-06T13:24:26.011Z</time></trkpt><trkpt lat="39.8805197" lon="9.5391818"><ele>566.0</ele><time>2026-04-06T13:24:27.012Z</time></trkpt><trkpt lat="39.8805503" lon="9.539095"><ele>566.0</ele><time>2026-04-06T13:24:28.012Z</time></trkpt><trkpt lat="39.8805824" lon="9.5390063"><ele>566.0</ele><time>2026-04-06T13:24:29.012Z</time></trkpt><trkpt lat="39.8806264" lon="9.5389025"><ele>566.0</ele><time>2026-04-06T13:24:30.012Z</time></trkpt><trkpt lat="39.8806939" lon="9.5387974"><ele>566.0</ele><time>2026-04-06T13:24:31.012Z</time></trkpt><trkpt lat="39.8807878" lon="9.5387105"><ele>566.0</ele><time>2026-04-06T13:24:32.012Z</time></trkpt><trkpt lat="39.8808915" lon="9.5386427"><ele>563.8</ele><time>2026-04-06T13:24:33.012Z</time></trkpt><trkpt lat="39.8809995" lon="9.5385865"><ele>561.6</ele><time>2026-04-06T13:24:34.012Z</time></trkpt><trkpt lat="39.8810987" lon="9.5385229"><ele>559.4</ele><time>2026-04-06T13:24:35.012Z</time></trkpt><trkpt lat="39.8811877" lon="9.538445"><ele>557.2</ele><time>2026-04-06T13:24:36.011Z</time></trkpt><trkpt lat="39.8812773" lon="9.5383603"><ele>555.0</ele><time>2026-04-06T13:24:37.011Z</time></trkpt><trkpt lat="39.8813566" lon="9.5382624"><ele>555.0</ele><time>2026-04-06T13:24:38.011Z</time></trkpt><trkpt lat="39.88143" lon="9.5381671"><ele>555.0</ele><time>2026-04-06T13:24:39.012Z</time></trkpt><trkpt lat="39.8814962" lon="9.5380764"><ele>555.0</ele><time>2026-04-06T13:24:40.012Z</time></trkpt><trkpt lat="39.8815667" lon="9.5379917"><ele>555.0</ele><time>2026-04-06T13:24:41.012Z</time></trkpt><trkpt lat="39.8816392" lon="9.5379216"><ele>555.0</ele><time>2026-04-06T13:24:42.012Z</time></trkpt><trkpt lat="39.8817132" lon="9.5378647"><ele>554.2857142857143</ele><time>2026-04-06T13:24:43.011Z</time></trkpt><trkpt lat="39.8817772" lon="9.5378164"><ele>553.5714285714286</ele><time>2026-04-06T13:24:44.012Z</time></trkpt><trkpt lat="39.881843" lon="9.5377813"><ele>552.8571428571429</ele><time>2026-04-06T13:24:45.012Z</time></trkpt><trkpt lat="39.88191" lon="9.5377495"><ele>552.1428571428571</ele><time>2026-04-06T13:24:46.011Z</time></trkpt><trkpt lat="39.8819817" lon="9.5377203"><ele>551.4285714285714</ele><time>2026-04-06T13:24:47.012Z</time></trkpt><trkpt lat="39.8820509" lon="9.5376948"><ele>550.7142857142858</ele><time>2026-04-06T13:24:48.012Z</time></trkpt><trkpt lat="39.8821192" lon="9.5376616"><ele>550.0</ele><time>2026-04-06T13:24:49.012Z</time></trkpt><trkpt lat="39.8821853" lon="9.5376217"><ele>550.0</ele><time>2026-04-06T13:24:50.011Z</time></trkpt><trkpt lat="39.8822479" lon="9.5375747"><ele>550.0</ele><time>2026-04-06T13:24:51.012Z</time></trkpt><trkpt lat="39.8823068" lon="9.5375162"><ele>550.0</ele><time>2026-04-06T13:24:52.012Z</time></trkpt><trkpt lat="39.8823646" lon="9.5374484"><ele>550.0</ele><time>2026-04-06T13:24:53.011Z</time></trkpt><trkpt lat="39.8824171" lon="9.5373825"><ele>550.0</ele><time>2026-04-06T13:24:54.011Z</time></trkpt><trkpt lat="39.8824737" lon="9.5373242"><ele>550.0</ele><time>2026-04-06T13:24:55.012Z</time></trkpt><trkpt lat="39.8825375" lon="9.5372673"><ele>550.0</ele><time>2026-04-06T13:24:56.012Z</time></trkpt><trkpt lat="39.8826135" lon="9.5372163"><ele>550.2</ele><time>2026-04-06T13:24:57.012Z</time></trkpt><trkpt lat="39.8826986" lon="9.5371765"><ele>550.4</ele><time>2026-04-06T13:24:58.011Z</time></trkpt><trkpt lat="39.8827873" lon="9.537142"><ele>550.6</ele><time>2026-04-06T13:24:59.012Z</time></trkpt><trkpt lat="39.882897" lon="9.537108"><ele>550.8</ele><time>2026-04-06T13:25:00.012Z</time></trkpt><trkpt lat="39.8830108" lon="9.537071"><ele>551.0</ele><time>2026-04-06T13:25:01.011Z</time></trkpt><trkpt lat="39.8831203" lon="9.5370275"><ele>551.0</ele><time>2026-04-06T13:25:02.012Z</time></trkpt><trkpt lat="39.8832344" lon="9.5369911"><ele>551.0</ele><time>2026-04-06T13:25:03.011Z</time></trkpt><trkpt lat="39.8833504" lon="9.5369653"><ele>551.0</ele><time>2026-04-06T13:25:04.012Z</time></trkpt><trkpt lat="39.8834718" lon="9.5369568"><ele>551.0</ele><time>2026-04-06T13:25:05.012Z</time></trkpt><trkpt lat="39.8835943" lon="9.5369773"><ele>552.4</ele><time>2026-04-06T13:25:06.012Z</time></trkpt><trkpt lat="39.8837029" lon="9.5370297"><ele>553.8</ele><time>2026-04-06T13:25:07.011Z</time></trkpt><trkpt lat="39.8837985" lon="9.5371106"><ele>555.1999999999999</ele><time>2026-04-06T13:25:08.012Z</time></trkpt><trkpt lat="39.883877" lon="9.5372131"><ele>556.6</ele><time>2026-04-06T13:25:09.012Z</time></trkpt><trkpt lat="39.8839447" lon="9.5373204"><ele>558.0</ele><time>2026-04-06T13:25:10.012Z</time></trkpt><trkpt lat="39.8840236" lon="9.5374091"><ele>553.6</ele><time>2026-04-06T13:25:11.012Z</time></trkpt><trkpt lat="39.8841094" lon="9.5374855"><ele>549.1999999999999</ele><time>2026-04-06T13:25:12.012Z</time></trkpt><trkpt lat="39.88421" lon="9.5375411"><ele>544.8</ele><time>2026-04-06T13:25:13.012Z</time></trkpt><trkpt lat="39.8843131" lon="9.5375691"><ele>540.4</ele><time>2026-04-06T13:25:14.012Z</time></trkpt><trkpt lat="39.8844168" lon="9.5375769"><ele>536.0</ele><time>2026-04-06T13:25:15.011Z</time></trkpt><trkpt lat="39.8845232" lon="9.5375695"><ele>535.3333333333333</ele><time>2026-04-06T13:25:16.012Z</time></trkpt><trkpt lat="39.8846216" lon="9.5375606"><ele>534.6666666666666</ele><time>2026-04-06T13:25:17.012Z</time></trkpt><trkpt lat="39.8847053" lon="9.5375435"><ele>534.0</ele><time>2026-04-06T13:25:18.012Z</time></trkpt><trkpt lat="39.8847865" lon="9.5375308"><ele>533.3333333333334</ele><time>2026-04-06T13:25:19.012Z</time></trkpt><trkpt lat="39.884865" lon="9.5375157"><ele>532.6666666666667</ele><time>2026-04-06T13:25:20.012Z</time></trkpt><trkpt lat="39.8849426" lon="9.5375053"><ele>532.0</ele><time>2026-04-06T13:25:21.012Z</time></trkpt><trkpt lat="39.8850171" lon="9.5374918"><ele>532.0</ele><time>2026-04-06T13:25:22.012Z</time></trkpt><trkpt lat="39.8850926" lon="9.5374744"><ele>532.0</ele><time>2026-04-06T13:25:23.011Z</time></trkpt><trkpt lat="39.8851619" lon="9.5374525"><ele>532.0</ele><time>2026-04-06T13:25:24.012Z</time></trkpt><trkpt lat="39.8852341" lon="9.5374325"><ele>532.0</ele><time>2026-04-06T13:25:25.012Z</time></trkpt><trkpt lat="39.8852978" lon="9.5374237"><ele>532.0</ele><time>2026-04-06T13:25:26.012Z</time></trkpt><trkpt lat="39.8853612" lon="9.5374282"><ele>532.0</ele><time>2026-04-06T13:25:27.011Z</time></trkpt><trkpt lat="39.8854421" lon="9.5374871"><ele>532.0</ele><time>2026-04-06T13:25:29.012Z</time></trkpt><trkpt lat="39.8854931" lon="9.5375518"><ele>531.6</ele><time>2026-04-06T13:25:31.012Z</time></trkpt><trkpt lat="39.88553" lon="9.5376298"><ele>531.2</ele><time>2026-04-06T13:25:33.011Z</time></trkpt><trkpt lat="39.8854902" lon="9.5377323"><ele>530.8</ele><time>2026-04-06T13:25:35.012Z</time></trkpt><trkpt lat="39.8853475" lon="9.5377701"><ele>530.4</ele><time>2026-04-06T13:25:37.011Z</time></trkpt><trkpt lat="39.8852433" lon="9.5377787"><ele>530.0</ele><time>2026-04-06T13:25:38.012Z</time></trkpt><trkpt lat="39.8851286" lon="9.5377857"><ele>530.5</ele><time>2026-04-06T13:25:39.011Z</time></trkpt><trkpt lat="39.8850088" lon="9.5377881"><ele>531.0</ele><time>2026-04-06T13:25:40.011Z</time></trkpt><trkpt lat="39.8849044" lon="9.5377953"><ele>531.5</ele><time>2026-04-06T13:25:41.011Z</time></trkpt><trkpt lat="39.8847913" lon="9.537803"><ele>532.0</ele><time>2026-04-06T13:25:42.012Z</time></trkpt><trkpt lat="39.8846769" lon="9.537805"><ele>532.0</ele><time>2026-04-06T13:25:43.012Z</time></trkpt><trkpt lat="39.8845657" lon="9.5378079"><ele>532.0</ele><time>2026-04-06T13:25:44.012Z</time></trkpt><trkpt lat="39.8844549" lon="9.5378129"><ele>532.0</ele><time>2026-04-06T13:25:45.011Z</time></trkpt><trkpt lat="39.8843394" lon="9.537816"><ele>532.0</ele><time>2026-04-06T13:25:46.012Z</time></trkpt><trkpt lat="39.8842298" lon="9.537796"><ele>532.0</ele><time>2026-04-06T13:25:47.012Z</time></trkpt><trkpt lat="39.8841122" lon="9.5377739"><ele>533.0</ele><time>2026-04-06T13:25:48.012Z</time></trkpt><trkpt lat="39.8839903" lon="9.5377404"><ele>534.0</ele><time>2026-04-06T13:25:49.011Z</time></trkpt><trkpt lat="39.8838612" lon="9.5376973"><ele>535.0</ele><time>2026-04-06T13:25:50.012Z</time></trkpt><trkpt lat="39.883723" lon="9.5376469"><ele>536.0</ele><time>2026-04-06T13:25:51.012Z</time></trkpt><trkpt lat="39.8835809" lon="9.5376116"><ele>536.0</ele><time>2026-04-06T13:25:52.012Z</time></trkpt><trkpt lat="39.8834478" lon="9.5376063"><ele>536.0</ele><time>2026-04-06T13:25:53.012Z</time></trkpt><trkpt lat="39.8833211" lon="9.5376434"><ele>536.0</ele><time>2026-04-06T13:25:54.012Z</time></trkpt><trkpt lat="39.883201" lon="9.5377308"><ele>536.0</ele><time>2026-04-06T13:25:55.012Z</time></trkpt><trkpt lat="39.8830976" lon="9.5378651"><ele>530.0</ele><time>2026-04-06T13:25:56.011Z</time></trkpt><trkpt lat="39.8830046" lon="9.538021"><ele>524.0</ele><time>2026-04-06T13:25:57.012Z</time></trkpt><trkpt lat="39.8829106" lon="9.5381957"><ele>518.0</ele><time>2026-04-06T13:25:58.012Z</time></trkpt><trkpt lat="39.8828206" lon="9.5383763"><ele>518.0</ele><time>2026-04-06T13:25:59.012Z</time></trkpt><trkpt lat="39.8827324" lon="9.5385633"><ele>518.0</ele><time>2026-04-06T13:26:00.012Z</time></trkpt><trkpt lat="39.8826423" lon="9.5387477"><ele>518.0</ele><time>2026-04-06T13:26:01.011Z</time></trkpt><trkpt lat="39.8825634" lon="9.538942"><ele>517.3333333333333</ele><time>2026-04-06T13:26:02.012Z</time></trkpt><trkpt lat="39.8825032" lon="9.5391433"><ele>516.6666666666666</ele><time>2026-04-06T13:26:03.011Z</time></trkpt><trkpt lat="39.8824731" lon="9.5393516"><ele>516.0</ele><time>2026-04-06T13:26:04.012Z</time></trkpt><trkpt lat="39.8824764" lon="9.5395619"><ele>516.0</ele><time>2026-04-06T13:26:05.011Z</time></trkpt><trkpt lat="39.8825084" lon="9.5397635"><ele>516.0</ele><time>2026-04-06T13:26:06.012Z</time></trkpt><trkpt lat="39.8825501" lon="9.5399514"><ele>516.0</ele><time>2026-04-06T13:26:07.012Z</time></trkpt><trkpt lat="39.8825886" lon="9.5401318"><ele>515.5</ele><time>2026-04-06T13:26:08.012Z</time></trkpt><trkpt lat="39.8826119" lon="9.5403078"><ele>515.0</ele><time>2026-04-06T13:26:09.011Z</time></trkpt><trkpt lat="39.8826068" lon="9.5404774"><ele>514.5</ele><time>2026-04-06T13:26:10.012Z</time></trkpt><trkpt lat="39.8825731" lon="9.5406314"><ele>514.0</ele><time>2026-04-06T13:26:11.012Z</time></trkpt><trkpt lat="39.8825222" lon="9.5407789"><ele>514.0</ele><time>2026-04-06T13:26:12.011Z</time></trkpt><trkpt lat="39.8824827" lon="9.5409497"><ele>514.0</ele><time>2026-04-06T13:26:13.011Z</time></trkpt><trkpt lat="39.8824579" lon="9.5411411"><ele>514.0</ele><time>2026-04-06T13:26:14.011Z</time></trkpt><trkpt lat="39.8824528" lon="9.5413334"><ele>514.0</ele><time>2026-04-06T13:26:15.012Z</time></trkpt><trkpt lat="39.8824613" lon="9.5415179"><ele>512.5</ele><time>2026-04-06T13:26:16.012Z</time></trkpt><trkpt lat="39.8825015" lon="9.5416925"><ele>511.0</ele><time>2026-04-06T13:26:17.012Z</time></trkpt><trkpt lat="39.8825642" lon="9.5418416"><ele>509.5</ele><time>2026-04-06T13:26:18.012Z</time></trkpt><trkpt lat="39.8826344" lon="9.5419707"><ele>508.0</ele><time>2026-04-06T13:26:19.012Z</time></trkpt><trkpt lat="39.8827068" lon="9.5420826"><ele>505.2</ele><time>2026-04-06T13:26:20.012Z</time></trkpt><trkpt lat="39.8827784" lon="9.5421893"><ele>502.4</ele><time>2026-04-06T13:26:21.011Z</time></trkpt><trkpt lat="39.8828428" lon="9.5422949"><ele>499.59999999999997</ele><time>2026-04-06T13:26:22.012Z</time></trkpt><trkpt lat="39.8829053" lon="9.5424037"><ele>496.79999999999995</ele><time>2026-04-06T13:26:23.012Z</time></trkpt><trkpt lat="39.8829611" lon="9.5425178"><ele>494.0</ele><time>2026-04-06T13:26:24.012Z</time></trkpt><trkpt lat="39.8830096" lon="9.5426413"><ele>494.0</ele><time>2026-04-06T13:26:25.011Z</time></trkpt><trkpt lat="39.8830506" lon="9.5427683"><ele>494.0</ele><time>2026-04-06T13:26:26.012Z</time></trkpt><trkpt lat="39.8830738" lon="9.5429023"><ele>494.0</ele><time>2026-04-06T13:26:27.012Z</time></trkpt><trkpt lat="39.8830868" lon="9.5430448"><ele>494.0</ele><time>2026-04-06T13:26:28.011Z</time></trkpt><trkpt lat="39.8830996" lon="9.5431881"><ele>494.0</ele><time>2026-04-06T13:26:29.012Z</time></trkpt><trkpt lat="39.8831149" lon="9.5433398"><ele>493.25</ele><time>2026-04-06T13:26:30.011Z</time></trkpt><trkpt lat="39.8831349" lon="9.5434959"><ele>492.5</ele><time>2026-04-06T13:26:31.012Z</time></trkpt><trkpt lat="39.8831455" lon="9.5436579"><ele>491.75</ele><time>2026-04-06T13:26:32.012Z</time></trkpt><trkpt lat="39.8831538" lon="9.5438244"><ele>491.0</ele><time>2026-04-06T13:26:33.012Z</time></trkpt><trkpt lat="39.8831565" lon="9.5439905"><ele>491.0</ele><time>2026-04-06T13:26:34.012Z</time></trkpt><trkpt lat="39.8831484" lon="9.5441593"><ele>491.0</ele><time>2026-04-06T13:26:35.012Z</time></trkpt><trkpt lat="39.8831403" lon="9.5443196"><ele>491.0</ele><time>2026-04-06T13:26:36.012Z</time></trkpt><trkpt lat="39.8831222" lon="9.5444684"><ele>491.0</ele><time>2026-04-06T13:26:37.012Z</time></trkpt><trkpt lat="39.8831019" lon="9.5445984"><ele>490.4</ele><time>2026-04-06T13:26:38.012Z</time></trkpt><trkpt lat="39.8830844" lon="9.5447203"><ele>489.8</ele><time>2026-04-06T13:26:39.012Z</time></trkpt><trkpt lat="39.8830855" lon="9.5448383"><ele>489.19999999999993</ele><time>2026-04-06T13:26:40.012Z</time></trkpt><trkpt lat="39.8831065" lon="9.5449538"><ele>488.59999999999997</ele><time>2026-04-06T13:26:41.012Z</time></trkpt><trkpt lat="39.8831454" lon="9.5450713"><ele>488.0</ele><time>2026-04-06T13:26:42.012Z</time></trkpt><trkpt lat="39.8831962" lon="9.5451851"><ele>488.0</ele><time>2026-04-06T13:26:43.012Z</time></trkpt><trkpt lat="39.8832527" lon="9.5453011"><ele>487.99999999999994</ele><time>2026-04-06T13:26:44.011Z</time></trkpt><trkpt lat="39.8833123" lon="9.5454195"><ele>487.99999999999994</ele><time>2026-04-06T13:26:45.012Z</time></trkpt><trkpt lat="39.8833719" lon="9.5455455"><ele>488.0</ele><time>2026-04-06T13:26:46.012Z</time></trkpt><trkpt lat="39.8834189" lon="9.5456874"><ele>488.0</ele><time>2026-04-06T13:26:47.011Z</time></trkpt><trkpt lat="39.8834589" lon="9.5458317"><ele>483.5</ele><time>2026-04-06T13:26:48.012Z</time></trkpt><trkpt lat="39.8835043" lon="9.5459738"><ele>479.0</ele><time>2026-04-06T13:26:49.011Z</time></trkpt><trkpt lat="39.8835538" lon="9.546112"><ele>474.5</ele><time>2026-04-06T13:26:50.011Z</time></trkpt><trkpt lat="39.8836104" lon="9.5462411"><ele>470.0</ele><time>2026-04-06T13:26:51.012Z</time></trkpt><trkpt lat="39.8836784" lon="9.5463571"><ele>469.6</ele><time>2026-04-06T13:26:52.012Z</time></trkpt><trkpt lat="39.8837578" lon="9.5464498"><ele>469.2</ele><time>2026-04-06T13:26:53.012Z</time></trkpt><trkpt lat="39.8838439" lon="9.5465255"><ele>468.79999999999995</ele><time>2026-04-06T13:26:54.012Z</time></trkpt><trkpt lat="39.8839317" lon="9.5465827"><ele>468.4</ele><time>2026-04-06T13:26:55.011Z</time></trkpt><trkpt lat="39.8840183" lon="9.5466296"><ele>468.0</ele><time>2026-04-06T13:26:56.012Z</time></trkpt><trkpt lat="39.8841018" lon="9.5466778"><ele>468.0</ele><time>2026-04-06T13:26:57.011Z</time></trkpt><trkpt lat="39.8841861" lon="9.5467317"><ele>467.99999999999994</ele><time>2026-04-06T13:26:58.011Z</time></trkpt><trkpt lat="39.8842521" lon="9.5467823"><ele>467.99999999999994</ele><time>2026-04-06T13:26:59.012Z</time></trkpt><trkpt lat="39.8843376" lon="9.546856"><ele>468.0</ele><time>2026-04-06T13:27:01.012Z</time></trkpt><trkpt lat="39.8844136" lon="9.5469358"><ele>468.0</ele><time>2026-04-06T13:27:03.012Z</time></trkpt><trkpt lat="39.8845012" lon="9.5470476"><ele>466.0</ele><time>2026-04-06T13:27:05.011Z</time></trkpt><trkpt lat="39.8845639" lon="9.5471711"><ele>464.0</ele><time>2026-04-06T13:27:06.011Z</time></trkpt><trkpt lat="39.8846439" lon="9.5473185"><ele>462.0</ele><time>2026-04-06T13:27:07.012Z</time></trkpt><trkpt lat="39.8847377" lon="9.5474927"><ele>460.0</ele><time>2026-04-06T13:27:08.012Z</time></trkpt><trkpt lat="39.8848422" lon="9.5476823"><ele>457.33333333333337</ele><time>2026-04-06T13:27:09.012Z</time></trkpt><trkpt lat="39.8849448" lon="9.5478828"><ele>454.66666666666663</ele><time>2026-04-06T13:27:10.012Z</time></trkpt><trkpt lat="39.8850422" lon="9.5480775"><ele>452.0</ele><time>2026-04-06T13:27:11.011Z</time></trkpt><trkpt lat="39.8851342" lon="9.5482709"><ele>447.66666666666663</ele><time>2026-04-06T13:27:12.012Z</time></trkpt><trkpt lat="39.8852167" lon="9.5484668"><ele>443.33333333333337</ele><time>2026-04-06T13:27:13.012Z</time></trkpt><trkpt lat="39.885274" lon="9.5486864"><ele>439.0</ele><time>2026-04-06T13:27:14.012Z</time></trkpt><trkpt lat="39.8853103" lon="9.5489211"><ele>437.0</ele><time>2026-04-06T13:27:15.012Z</time></trkpt><trkpt lat="39.8853455" lon="9.549144"><ele>435.0</ele><time>2026-04-06T13:27:16.012Z</time></trkpt><trkpt lat="39.8853836" lon="9.5493637"><ele>433.0</ele><time>2026-04-06T13:27:17.011Z</time></trkpt><trkpt lat="39.8854151" lon="9.5495796"><ele>431.33333333333337</ele><time>2026-04-06T13:27:18.011Z</time></trkpt><trkpt lat="39.8854485" lon="9.5497941"><ele>429.66666666666663</ele><time>2026-04-06T13:27:19.012Z</time></trkpt><trkpt lat="39.885481" lon="9.5499998"><ele>428.0</ele><time>2026-04-06T13:27:20.012Z</time></trkpt><trkpt lat="39.8855111" lon="9.5501946"><ele>428.0</ele><time>2026-04-06T13:27:21.012Z</time></trkpt><trkpt lat="39.8855538" lon="9.5503703"><ele>428.0</ele><time>2026-04-06T13:27:22.012Z</time></trkpt><trkpt lat="39.8856004" lon="9.5505148"><ele>428.0</ele><time>2026-04-06T13:27:23.011Z</time></trkpt><trkpt lat="39.8856352" lon="9.5506152"><ele>428.0</ele><time>2026-04-06T13:27:24.012Z</time></trkpt><trkpt lat="39.885689" lon="9.5507577"><ele>427.59999999999997</ele><time>2026-04-06T13:27:26.012Z</time></trkpt><trkpt lat="39.8857319" lon="9.5508537"><ele>427.19999999999993</ele><time>2026-04-06T13:27:27.012Z</time></trkpt><trkpt lat="39.8857895" lon="9.5509612"><ele>426.8</ele><time>2026-04-06T13:27:28.012Z</time></trkpt><trkpt lat="39.8858665" lon="9.5510797"><ele>426.4</ele><time>2026-04-06T13:27:29.012Z</time></trkpt><trkpt lat="39.8859489" lon="9.5511945"><ele>426.0</ele><time>2026-04-06T13:27:30.012Z</time></trkpt><trkpt lat="39.8860288" lon="9.5512906"><ele>424.0</ele><time>2026-04-06T13:27:31.012Z</time></trkpt><trkpt lat="39.886116" lon="9.5513563"><ele>422.0</ele><time>2026-04-06T13:27:32.012Z</time></trkpt><trkpt lat="39.8862063" lon="9.5513719"><ele>420.0</ele><time>2026-04-06T13:27:33.012Z</time></trkpt><trkpt lat="39.886298" lon="9.5513445"><ele>418.0</ele><time>2026-04-06T13:27:34.012Z</time></trkpt><trkpt lat="39.8863783" lon="9.5512753"><ele>416.0</ele><time>2026-04-06T13:27:35.012Z</time></trkpt><trkpt lat="39.8864516" lon="9.5511758"><ele>416.0</ele><time>2026-04-06T13:27:36.012Z</time></trkpt><trkpt lat="39.8865134" lon="9.5510675"><ele>416.0</ele><time>2026-04-06T13:27:37.012Z</time></trkpt><trkpt lat="39.8865838" lon="9.550962"><ele>416.0</ele><time>2026-04-06T13:27:38.012Z</time></trkpt><trkpt lat="39.8866793" lon="9.550881"><ele>416.0</ele><time>2026-04-06T13:27:39.012Z</time></trkpt><trkpt lat="39.8867887" lon="9.5508298"><ele>416.0</ele><time>2026-04-06T13:27:40.012Z</time></trkpt><trkpt lat="39.8869128" lon="9.5508102"><ele>415.75</ele><time>2026-04-06T13:27:41.011Z</time></trkpt><trkpt lat="39.887038" lon="9.5507932"><ele>415.5</ele><time>2026-04-06T13:27:42.012Z</time></trkpt><trkpt lat="39.8871701" lon="9.550769"><ele>415.25</ele><time>2026-04-06T13:27:43.011Z</time></trkpt><trkpt lat="39.8873042" lon="9.550723"><ele>415.0</ele><time>2026-04-06T13:27:44.012Z</time></trkpt><trkpt lat="39.8874325" lon="9.5506474"><ele>415.0</ele><time>2026-04-06T13:27:45.012Z</time></trkpt><trkpt lat="39.8875548" lon="9.5505404"><ele>415.0</ele><time>2026-04-06T13:27:46.012Z</time></trkpt><trkpt lat="39.8876676" lon="9.5504081"><ele>415.0</ele><time>2026-04-06T13:27:47.012Z</time></trkpt><trkpt lat="39.8877698" lon="9.5502513"><ele>416.5</ele><time>2026-04-06T13:27:48.012Z</time></trkpt><trkpt lat="39.8878497" lon="9.5500848"><ele>418.0</ele><time>2026-04-06T13:27:49.011Z</time></trkpt><trkpt lat="39.8879016" lon="9.5499226"><ele>419.5</ele><time>2026-04-06T13:27:50.012Z</time></trkpt><trkpt lat="39.8879512" lon="9.5497748"><ele>421.0</ele><time>2026-04-06T13:27:51.011Z</time></trkpt><trkpt lat="39.887993" lon="9.5496422"><ele>420.20000000000005</ele><time>2026-04-06T13:27:52.011Z</time></trkpt><trkpt lat="39.8880164" lon="9.5495344"><ele>419.40000000000003</ele><time>2026-04-06T13:27:53.012Z</time></trkpt><trkpt lat="39.8880345" lon="9.5494497"><ele>418.6</ele><time>2026-04-06T13:27:54.012Z</time></trkpt><trkpt lat="39.8880522" lon="9.5493053"><ele>417.8</ele><time>2026-04-06T13:27:56.012Z</time></trkpt><trkpt lat="39.8880676" lon="9.5491728"><ele>417.0</ele><time>2026-04-06T13:27:57.011Z</time></trkpt><trkpt lat="39.8881003" lon="9.5490217"><ele>417.0</ele><time>2026-04-06T13:27:58.011Z</time></trkpt><trkpt lat="39.8881589" lon="9.5488469"><ele>417.0</ele><time>2026-04-06T13:27:59.011Z</time></trkpt><trkpt lat="39.8882357" lon="9.5486605"><ele>417.0</ele><time>2026-04-06T13:28:00.012Z</time></trkpt><trkpt lat="39.8883073" lon="9.5484953"><ele>416.6</ele><time>2026-04-06T13:28:01.012Z</time></trkpt><trkpt lat="39.8883646" lon="9.5483533"><ele>416.20000000000005</ele><time>2026-04-06T13:28:02.012Z</time></trkpt><trkpt lat="39.8884078" lon="9.5482219"><ele>415.8</ele><time>2026-04-06T13:28:03.012Z</time></trkpt><trkpt lat="39.8884289" lon="9.5480875"><ele>415.4</ele><time>2026-04-06T13:28:04.011Z</time></trkpt><trkpt lat="39.8884182" lon="9.5479599"><ele>415.0</ele><time>2026-04-06T13:28:05.012Z</time></trkpt><trkpt lat="39.8883804" lon="9.5478339"><ele>414.4</ele><time>2026-04-06T13:28:06.012Z</time></trkpt><trkpt lat="39.8883239" lon="9.547709"><ele>413.8</ele><time>2026-04-06T13:28:07.012Z</time></trkpt><trkpt lat="39.8882594" lon="9.5475887"><ele>413.20000000000005</ele><time>2026-04-06T13:28:08.012Z</time></trkpt><trkpt lat="39.888202" lon="9.5474757"><ele>412.6</ele><time>2026-04-06T13:28:09.012Z</time></trkpt><trkpt lat="39.8881634" lon="9.5473591"><ele>412.0</ele><time>2026-04-06T13:28:10.012Z</time></trkpt><trkpt lat="39.8881461" lon="9.5472383"><ele>412.0</ele><time>2026-04-06T13:28:11.012Z</time></trkpt><trkpt lat="39.8881538" lon="9.5471043"><ele>412.0</ele><time>2026-04-06T13:28:12.012Z</time></trkpt><trkpt lat="39.8881815" lon="9.5469745"><ele>412.0</ele><time>2026-04-06T13:28:13.012Z</time></trkpt><trkpt lat="39.8882345" lon="9.5468612"><ele>412.0</ele><time>2026-04-06T13:28:14.012Z</time></trkpt><trkpt lat="39.888314" lon="9.5467745"><ele>412.0</ele><time>2026-04-06T13:28:15.011Z</time></trkpt><trkpt lat="39.8884117" lon="9.5467227"><ele>410.1666666666667</ele><time>2026-04-06T13:28:16.012Z</time></trkpt><trkpt lat="39.8885029" lon="9.5466852"><ele>408.33333333333337</ele><time>2026-04-06T13:28:17.012Z</time></trkpt><trkpt lat="39.8885856" lon="9.5466518"><ele>406.5</ele><time>2026-04-06T13:28:18.012Z</time></trkpt><trkpt lat="39.8886573" lon="9.5466264"><ele>404.66666666666663</ele><time>2026-04-06T13:28:19.012Z</time></trkpt><trkpt lat="39.8887221" lon="9.5466052"><ele>402.8333333333333</ele><time>2026-04-06T13:28:20.012Z</time></trkpt><trkpt lat="39.8888184" lon="9.5465724"><ele>401.0</ele><time>2026-04-06T13:28:22.012Z</time></trkpt><trkpt lat="39.8889436" lon="9.5465349"><ele>401.0</ele><time>2026-04-06T13:28:24.011Z</time></trkpt><trkpt lat="39.8890341" lon="9.5465325"><ele>401.0</ele><time>2026-04-06T13:28:25.012Z</time></trkpt><trkpt lat="39.8891209" lon="9.5465706"><ele>401.0</ele><time>2026-04-06T13:28:26.011Z</time></trkpt><trkpt lat="39.8891981" lon="9.5466494"><ele>401.0</ele><time>2026-04-06T13:28:27.011Z</time></trkpt><trkpt lat="39.8892615" lon="9.5467756"><ele>401.0</ele><time>2026-04-06T13:28:28.012Z</time></trkpt><trkpt lat="39.889296" lon="9.5469117"><ele>402.3333333333333</ele><time>2026-04-06T13:28:29.012Z</time></trkpt><trkpt lat="39.8893175" lon="9.5470288"><ele>403.66666666666663</ele><time>2026-04-06T13:28:30.012Z</time></trkpt><trkpt lat="39.8893357" lon="9.5471276"><ele>405.0</ele><time>2026-04-06T13:28:31.012Z</time></trkpt><trkpt lat="39.8893511" lon="9.5472546"><ele>406.33333333333337</ele><time>2026-04-06T13:28:33.012Z</time></trkpt><trkpt lat="39.8893682" lon="9.5473706"><ele>407.6666666666667</ele><time>2026-04-06T13:28:35.012Z</time></trkpt><trkpt lat="39.8893825" lon="9.5474676"><ele>409.0</ele><time>2026-04-06T13:28:36.012Z</time></trkpt><trkpt lat="39.8894" lon="9.54759"><ele>409.0</ele><time>2026-04-06T13:28:37.012Z</time></trkpt><trkpt lat="39.889424" lon="9.547727"><ele>409.0</ele><time>2026-04-06T13:28:38.012Z</time></trkpt><trkpt lat="39.8894512" lon="9.5478801"><ele>409.0</ele><time>2026-04-06T13:28:39.012Z</time></trkpt><trkpt lat="39.8894744" lon="9.54803"><ele>409.0</ele><time>2026-04-06T13:28:40.012Z</time></trkpt><trkpt lat="39.8894978" lon="9.5481784"><ele>409.6</ele><time>2026-04-06T13:28:41.012Z</time></trkpt><trkpt lat="39.8895209" lon="9.5483193"><ele>410.2</ele><time>2026-04-06T13:28:42.012Z</time></trkpt><trkpt lat="39.8895432" lon="9.5484544"><ele>410.8</ele><time>2026-04-06T13:28:43.011Z</time></trkpt><trkpt lat="39.8895517" lon="9.5485764"><ele>411.40000000000003</ele><time>2026-04-06T13:28:44.012Z</time></trkpt><trkpt lat="39.8895461" lon="9.5486889"><ele>412.0</ele><time>2026-04-06T13:28:45.011Z</time></trkpt><trkpt lat="39.8895344" lon="9.5488121"><ele>410.20000000000005</ele><time>2026-04-06T13:28:46.012Z</time></trkpt><trkpt lat="39.8895095" lon="9.5489424"><ele>408.4</ele><time>2026-04-06T13:28:47.011Z</time></trkpt><trkpt lat="39.8894781" lon="9.5490708"><ele>406.6</ele><time>2026-04-06T13:28:48.011Z</time></trkpt><trkpt lat="39.8894581" lon="9.549212"><ele>404.79999999999995</ele><time>2026-04-06T13:28:49.012Z</time></trkpt><trkpt lat="39.8894622" lon="9.549358"><ele>403.0</ele><time>2026-04-06T13:28:50.012Z</time></trkpt><trkpt lat="39.8895013" lon="9.5494952"><ele>400.75</ele><time>2026-04-06T13:28:51.012Z</time></trkpt><trkpt lat="39.8895764" lon="9.5496272"><ele>398.5</ele><time>2026-04-06T13:28:52.012Z</time></trkpt><trkpt lat="39.889672" lon="9.5497541"><ele>396.25</ele><time>2026-04-06T13:28:53.012Z</time></trkpt><trkpt lat="39.8897753" lon="9.5498839"><ele>394.0</ele><time>2026-04-06T13:28:54.012Z</time></trkpt><trkpt lat="39.8898755" lon="9.550019"><ele>394.0</ele><time>2026-04-06T13:28:55.012Z</time></trkpt><trkpt lat="39.8899751" lon="9.5501539"><ele>394.0</ele><time>2026-04-06T13:28:56.011Z</time></trkpt><trkpt lat="39.8900682" lon="9.5502775"><ele>394.0</ele><time>2026-04-06T13:28:57.011Z</time></trkpt><trkpt lat="39.8901503" lon="9.5503932"><ele>394.0</ele><time>2026-04-06T13:28:58.011Z</time></trkpt><trkpt lat="39.8902028" lon="9.5505108"><ele>393.2</ele><time>2026-04-06T13:28:59.012Z</time></trkpt><trkpt lat="39.890212" lon="9.5506291"><ele>392.4</ele><time>2026-04-06T13:29:00.012Z</time></trkpt><trkpt lat="39.8901872" lon="9.5507504"><ele>391.6</ele><time>2026-04-06T13:29:01.012Z</time></trkpt><trkpt lat="39.8901372" lon="9.5508791"><ele>390.8</ele><time>2026-04-06T13:29:02.012Z</time></trkpt><trkpt lat="39.8900675" lon="9.5510096"><ele>390.0</ele><time>2026-04-06T13:29:03.012Z</time></trkpt><trkpt lat="39.8899852" lon="9.5511484"><ele>386.75</ele><time>2026-04-06T13:29:04.012Z</time></trkpt><trkpt lat="39.8898964" lon="9.5512891"><ele>383.5</ele><time>2026-04-06T13:29:05.012Z</time></trkpt><trkpt lat="39.889799" lon="9.5514172"><ele>380.25</ele><time>2026-04-06T13:29:06.012Z</time></trkpt><trkpt lat="39.8896989" lon="9.5515344"><ele>377.0</ele><time>2026-04-06T13:29:07.012Z</time></trkpt><trkpt lat="39.889612" lon="9.5516591"><ele>377.0</ele><time>2026-04-06T13:29:08.012Z</time></trkpt><trkpt lat="39.8895537" lon="9.5518266"><ele>377.0</ele><time>2026-04-06T13:29:09.012Z</time></trkpt><trkpt lat="39.8895346" lon="9.5520279"><ele>377.0</ele><time>2026-04-06T13:29:10.012Z</time></trkpt><trkpt lat="39.8895349" lon="9.5522612"><ele>374.6666666666667</ele><time>2026-04-06T13:29:11.012Z</time></trkpt><trkpt lat="39.8895066" lon="9.5525203"><ele>372.3333333333333</ele><time>2026-04-06T13:29:12.011Z</time></trkpt><trkpt lat="39.8894705" lon="9.5527797"><ele>370.0</ele><time>2026-04-06T13:29:13.011Z</time></trkpt><trkpt lat="39.8894595" lon="9.5530427"><ele>369.3333333333333</ele><time>2026-04-06T13:29:14.012Z</time></trkpt><trkpt lat="39.8894698" lon="9.5532816"><ele>368.6666666666667</ele><time>2026-04-06T13:29:15.012Z</time></trkpt><trkpt lat="39.8894707" lon="9.5534994"><ele>368.0</ele><time>2026-04-06T13:29:16.012Z</time></trkpt><trkpt lat="39.8894461" lon="9.5536937"><ele>367.5</ele><time>2026-04-06T13:29:17.012Z</time></trkpt><trkpt lat="39.8893938" lon="9.5538599"><ele>367.0</ele><time>2026-04-06T13:29:18.012Z</time></trkpt><trkpt lat="39.8893" lon="9.5539918"><ele>366.5</ele><time>2026-04-06T13:29:19.011Z</time></trkpt><trkpt lat="39.8891902" lon="9.554102"><ele>366.0</ele><time>2026-04-06T13:29:20.012Z</time></trkpt><trkpt lat="39.8890826" lon="9.5541985"><ele>368.0</ele><time>2026-04-06T13:29:21.012Z</time></trkpt><trkpt lat="39.8889812" lon="9.5543044"><ele>370.0</ele><time>2026-04-06T13:29:22.012Z</time></trkpt><trkpt lat="39.8889011" lon="9.5544211"><ele>372.0</ele><time>2026-04-06T13:29:23.012Z</time></trkpt><trkpt lat="39.8888532" lon="9.554566"><ele>374.0</ele><time>2026-04-06T13:29:24.012Z</time></trkpt><trkpt lat="39.8888488" lon="9.5547188"><ele>374.0</ele><time>2026-04-06T13:29:25.012Z</time></trkpt><trkpt lat="39.8888868" lon="9.554853"><ele>374.0</ele><time>2026-04-06T13:29:26.011Z</time></trkpt><trkpt lat="39.8889614" lon="9.5549622"><ele>374.0</ele><time>2026-04-06T13:29:27.012Z</time></trkpt><trkpt lat="39.8890659" lon="9.5550434"><ele>374.0</ele><time>2026-04-06T13:29:28.012Z</time></trkpt><trkpt lat="39.8891892" lon="9.555082"><ele>373.0</ele><time>2026-04-06T13:29:29.011Z</time></trkpt><trkpt lat="39.8893203" lon="9.5550678"><ele>372.0</ele><time>2026-04-06T13:29:30.012Z</time></trkpt><trkpt lat="39.8894412" lon="9.555011"><ele>371.0</ele><time>2026-04-06T13:29:31.012Z</time></trkpt><trkpt lat="39.8895624" lon="9.554959"><ele>370.0</ele><time>2026-04-06T13:29:32.012Z</time></trkpt><trkpt lat="39.8896744" lon="9.5549299"><ele>370.0</ele><time>2026-04-06T13:29:33.012Z</time></trkpt><trkpt lat="39.8897723" lon="9.5549498"><ele>370.0</ele><time>2026-04-06T13:29:34.012Z</time></trkpt><trkpt lat="39.8898461" lon="9.5550239"><ele>370.0</ele><time>2026-04-06T13:29:35.011Z</time></trkpt><trkpt lat="39.8898917" lon="9.5551387"><ele>370.0</ele><time>2026-04-06T13:29:36.012Z</time></trkpt><trkpt lat="39.8899145" lon="9.5552761"><ele>370.0</ele><time>2026-04-06T13:29:37.011Z</time></trkpt><trkpt lat="39.889941" lon="9.55542"><ele>370.25</ele><time>2026-04-06T13:29:38.012Z</time></trkpt><trkpt lat="39.8899661" lon="9.5555682"><ele>370.5</ele><time>2026-04-06T13:29:39.012Z</time></trkpt><trkpt lat="39.8899901" lon="9.5557294"><ele>370.75</ele><time>2026-04-06T13:29:40.012Z</time></trkpt><trkpt lat="39.8900151" lon="9.555899"><ele>371.0</ele><time>2026-04-06T13:29:41.012Z</time></trkpt><trkpt lat="39.8900453" lon="9.5560617"><ele>366.75</ele><time>2026-04-06T13:29:42.012Z</time></trkpt><trkpt lat="39.8900941" lon="9.5562024"><ele>362.5</ele><time>2026-04-06T13:29:43.011Z</time></trkpt><trkpt lat="39.8901795" lon="9.5563258"><ele>358.25</ele><time>2026-04-06T13:29:44.012Z</time></trkpt><trkpt lat="39.890295" lon="9.5564173"><ele>354.0</ele><time>2026-04-06T13:29:45.012Z</time></trkpt><trkpt lat="39.8904012" lon="9.5564905"><ele>354.0</ele><time>2026-04-06T13:29:46.012Z</time></trkpt><trkpt lat="39.8905" lon="9.5565723"><ele>354.0</ele><time>2026-04-06T13:29:47.012Z</time></trkpt><trkpt lat="39.8905799" lon="9.5566758"><ele>354.0</ele><time>2026-04-06T13:29:48.012Z</time></trkpt><trkpt lat="39.8906216" lon="9.5568032"><ele>354.0</ele><time>2026-04-06T13:29:49.012Z</time></trkpt><trkpt lat="39.8906098" lon="9.556966"><ele>354.0</ele><time>2026-04-06T13:29:50.012Z</time></trkpt><trkpt lat="39.8905847" lon="9.5571332"><ele>354.0</ele><time>2026-04-06T13:29:51.012Z</time></trkpt><trkpt lat="39.890576" lon="9.5573051"><ele>354.0</ele><time>2026-04-06T13:29:52.012Z</time></trkpt><trkpt lat="39.8905853" lon="9.557472"><ele>354.0</ele><time>2026-04-06T13:29:53.011Z</time></trkpt><trkpt lat="39.8906404" lon="9.5576307"><ele>354.0</ele><time>2026-04-06T13:29:54.012Z</time></trkpt><trkpt lat="39.8907367" lon="9.5577753"><ele>354.0</ele><time>2026-04-06T13:29:55.012Z</time></trkpt><trkpt lat="39.8908332" lon="9.5579082"><ele>354.0</ele><time>2026-04-06T13:29:56.012Z</time></trkpt><trkpt lat="39.8909328" lon="9.5580393"><ele>354.0</ele><time>2026-04-06T13:29:57.011Z</time></trkpt><trkpt lat="39.891058" lon="9.5581592"><ele>352.0</ele><time>2026-04-06T13:29:58.011Z</time></trkpt><trkpt lat="39.8911995" lon="9.5582762"><ele>350.0</ele><time>2026-04-06T13:29:59.012Z</time></trkpt><trkpt lat="39.8913519" lon="9.558398"><ele>348.0</ele><time>2026-04-06T13:30:00.012Z</time></trkpt><trkpt lat="39.8915038" lon="9.5585167"><ele>348.0</ele><time>2026-04-06T13:30:01.011Z</time></trkpt><trkpt lat="39.8916566" lon="9.5586291"><ele>348.0</ele><time>2026-04-06T13:30:02.012Z</time></trkpt><trkpt lat="39.8917954" lon="9.5587209"><ele>348.0</ele><time>2026-04-06T13:30:03.012Z</time></trkpt><trkpt lat="39.8919338" lon="9.5588114"><ele>344.25</ele><time>2026-04-06T13:30:04.012Z</time></trkpt><trkpt lat="39.8920517" lon="9.5589179"><ele>340.5</ele><time>2026-04-06T13:30:05.012Z</time></trkpt><trkpt lat="39.8921258" lon="9.5590351"><ele>336.75</ele><time>2026-04-06T13:30:06.012Z</time></trkpt><trkpt lat="39.8921625" lon="9.5591671"><ele>333.0</ele><time>2026-04-06T13:30:07.012Z</time></trkpt><trkpt lat="39.8921478" lon="9.5593212"><ele>333.0</ele><time>2026-04-06T13:30:08.012Z</time></trkpt><trkpt lat="39.8920796" lon="9.5594996"><ele>333.0</ele><time>2026-04-06T13:30:09.012Z</time></trkpt><trkpt lat="39.8920026" lon="9.5597045"><ele>333.0</ele><time>2026-04-06T13:30:10.012Z</time></trkpt><trkpt lat="39.8919343" lon="9.5599509"><ele>337.0</ele><time>2026-04-06T13:30:11.011Z</time></trkpt><trkpt lat="39.891864" lon="9.5601941"><ele>341.0</ele><time>2026-04-06T13:30:12.011Z</time></trkpt><trkpt lat="39.8917858" lon="9.5603909"><ele>345.0</ele><time>2026-04-06T13:30:13.012Z</time></trkpt><trkpt lat="39.8917236" lon="9.5605977"><ele>345.0</ele><time>2026-04-06T13:30:14.012Z</time></trkpt><trkpt lat="39.8916932" lon="9.5608579"><ele>345.0</ele><time>2026-04-06T13:30:15.012Z</time></trkpt><trkpt lat="39.8916711" lon="9.561156"><ele>345.0</ele><time>2026-04-06T13:30:16.012Z</time></trkpt><trkpt lat="39.8916405" lon="9.5614261"><ele>342.3333333333333</ele><time>2026-04-06T13:30:17.012Z</time></trkpt><trkpt lat="39.8915962" lon="9.5616791"><ele>339.66666666666663</ele><time>2026-04-06T13:30:18.012Z</time></trkpt><trkpt lat="39.8915413" lon="9.5619149"><ele>337.0</ele><time>2026-04-06T13:30:19.012Z</time></trkpt><trkpt lat="39.8914922" lon="9.5621341"><ele>333.66666666666663</ele><time>2026-04-06T13:30:20.012Z</time></trkpt><trkpt lat="39.8914534" lon="9.5623633"><ele>330.3333333333333</ele><time>2026-04-06T13:30:21.012Z</time></trkpt><trkpt lat="39.8914291" lon="9.5625991"><ele>327.0</ele><time>2026-04-06T13:30:22.012Z</time></trkpt><trkpt lat="39.8914132" lon="9.5628108"><ele>326.75</ele><time>2026-04-06T13:30:23.011Z</time></trkpt><trkpt lat="39.8913988" lon="9.5630121"><ele>326.5</ele><time>2026-04-06T13:30:24.011Z</time></trkpt><trkpt lat="39.8913792" lon="9.5632079"><ele>326.25</ele><time>2026-04-06T13:30:25.011Z</time></trkpt><trkpt lat="39.8913514" lon="9.5633792"><ele>326.0</ele><time>2026-04-06T13:30:26.012Z</time></trkpt><trkpt lat="39.8913161" lon="9.5635276"><ele>326.0</ele><time>2026-04-06T13:30:27.012Z</time></trkpt><trkpt lat="39.8912691" lon="9.5636482"><ele>326.0</ele><time>2026-04-06T13:30:28.012Z</time></trkpt><trkpt lat="39.8912299" lon="9.5637301"><ele>326.0</ele><time>2026-04-06T13:30:29.011Z</time></trkpt><trkpt lat="39.8912088" lon="9.5638408"><ele>326.0</ele><time>2026-04-06T13:30:31.012Z</time></trkpt><trkpt lat="39.8912509" lon="9.563923"><ele>326.0</ele><time>2026-04-06T13:30:33.011Z</time></trkpt><trkpt lat="39.8913268" lon="9.5640015"><ele>326.0</ele><time>2026-04-06T13:30:35.011Z</time></trkpt><trkpt lat="39.8914236" lon="9.564054"><ele>328.0</ele><time>2026-04-06T13:30:37.012Z</time></trkpt><trkpt lat="39.8915102" lon="9.5640951"><ele>330.0</ele><time>2026-04-06T13:30:39.012Z</time></trkpt><trkpt lat="39.8916104" lon="9.5641331"><ele>332.0</ele><time>2026-04-06T13:30:41.012Z</time></trkpt><trkpt lat="39.8917128" lon="9.5641743"><ele>334.0</ele><time>2026-04-06T13:30:43.012Z</time></trkpt><trkpt lat="39.8918212" lon="9.5642354"><ele>336.0</ele><time>2026-04-06T13:30:45.012Z</time></trkpt><trkpt lat="39.8918821" lon="9.5642732"><ele>331.8</ele><time>2026-04-06T13:30:46.011Z</time></trkpt><trkpt lat="39.8919433" lon="9.5643093"><ele>327.6</ele><time>2026-04-06T13:30:47.012Z</time></trkpt><trkpt lat="39.89206" lon="9.5643585"><ele>323.4</ele><time>2026-04-06T13:30:49.012Z</time></trkpt><trkpt lat="39.8921647" lon="9.5643752"><ele>319.2</ele><time>2026-04-06T13:30:51.012Z</time></trkpt><trkpt lat="39.8922511" lon="9.5643801"><ele>315.0</ele><time>2026-04-06T13:30:53.012Z</time></trkpt><trkpt lat="39.8923216" lon="9.5643769"><ele>315.0</ele><time>2026-04-06T13:30:55.012Z</time></trkpt><trkpt lat="39.8923963" lon="9.5643752"><ele>315.0</ele><time>2026-04-06T13:30:57.011Z</time></trkpt><trkpt lat="39.8924829" lon="9.5643845"><ele>315.0</ele><time>2026-04-06T13:30:59.012Z</time></trkpt><trkpt lat="39.8925875" lon="9.5643958"><ele>315.0</ele><time>2026-04-06T13:31:01.012Z</time></trkpt><trkpt lat="39.8926984" lon="9.5644342"><ele>315.0</ele><time>2026-04-06T13:31:03.012Z</time></trkpt><trkpt lat="39.892808" lon="9.5645"><ele>313.3333333333333</ele><time>2026-04-06T13:31:05.012Z</time></trkpt><trkpt lat="39.892919" lon="9.5645789"><ele>311.6666666666667</ele><time>2026-04-06T13:31:07.011Z</time></trkpt><trkpt lat="39.8929774" lon="9.5646222"><ele>310.0</ele><time>2026-04-06T13:31:08.012Z</time></trkpt><trkpt lat="39.8930418" lon="9.5646659"><ele>308.33333333333337</ele><time>2026-04-06T13:31:09.012Z</time></trkpt><trkpt lat="39.8931057" lon="9.5647172"><ele>306.6666666666667</ele><time>2026-04-06T13:31:10.012Z</time></trkpt><trkpt lat="39.8931671" lon="9.564777"><ele>305.0</ele><time>2026-04-06T13:31:11.012Z</time></trkpt><trkpt lat="39.8932253" lon="9.5648385"><ele>305.0</ele><time>2026-04-06T13:31:12.012Z</time></trkpt><trkpt lat="39.8932826" lon="9.5649125"><ele>305.0</ele><time>2026-04-06T13:31:13.012Z</time></trkpt><trkpt lat="39.8933286" lon="9.5649962"><ele>305.0</ele><time>2026-04-06T13:31:14.012Z</time></trkpt><trkpt lat="39.8933609" lon="9.5650894"><ele>305.0</ele><time>2026-04-06T13:31:15.011Z</time></trkpt><trkpt lat="39.8933864" lon="9.5652046"><ele>305.0</ele><time>2026-04-06T13:31:16.012Z</time></trkpt><trkpt lat="39.8934109" lon="9.5653296"><ele>305.0</ele><time>2026-04-06T13:31:17.012Z</time></trkpt><trkpt lat="39.8934284" lon="9.5654728"><ele>294.75</ele><time>2026-04-06T13:31:18.012Z</time></trkpt><trkpt lat="39.8934513" lon="9.565621"><ele>284.5</ele><time>2026-04-06T13:31:19.012Z</time></trkpt><trkpt lat="39.8934691" lon="9.565777"><ele>274.25</ele><time>2026-04-06T13:31:20.012Z</time></trkpt><trkpt lat="39.893489" lon="9.56593"><ele>264.0</ele><time>2026-04-06T13:31:21.012Z</time></trkpt><trkpt lat="39.8935138" lon="9.5660822"><ele>264.59999999999997</ele><time>2026-04-06T13:31:22.011Z</time></trkpt><trkpt lat="39.8935443" lon="9.5662329"><ele>265.2</ele><time>2026-04-06T13:31:23.012Z</time></trkpt><trkpt lat="39.8935648" lon="9.5663741"><ele>265.79999999999995</ele><time>2026-04-06T13:31:24.011Z</time></trkpt><trkpt lat="39.8935879" lon="9.5665144"><ele>266.4</ele><time>2026-04-06T13:31:25.012Z</time></trkpt><trkpt lat="39.8936119" lon="9.5666525"><ele>267.0</ele><time>2026-04-06T13:31:26.011Z</time></trkpt><trkpt lat="39.8936412" lon="9.5667909"><ele>267.0</ele><time>2026-04-06T13:31:27.012Z</time></trkpt><trkpt lat="39.8936824" lon="9.5669157"><ele>267.0</ele><time>2026-04-06T13:31:28.012Z</time></trkpt><trkpt lat="39.8937228" lon="9.567045"><ele>267.0</ele><time>2026-04-06T13:31:29.012Z</time></trkpt><trkpt lat="39.8937491" lon="9.5671841"><ele>267.0</ele><time>2026-04-06T13:31:30.011Z</time></trkpt><trkpt lat="39.8937538" lon="9.5673258"><ele>267.0</ele><time>2026-04-06T13:31:31.011Z</time></trkpt><trkpt lat="39.8937529" lon="9.567467"><ele>267.2</ele><time>2026-04-06T13:31:32.012Z</time></trkpt><trkpt lat="39.8937496" lon="9.5676046"><ele>267.4</ele><time>2026-04-06T13:31:33.011Z</time></trkpt><trkpt lat="39.8937498" lon="9.5677366"><ele>267.6</ele><time>2026-04-06T13:31:34.012Z</time></trkpt><trkpt lat="39.8937582" lon="9.567862"><ele>267.8</ele><time>2026-04-06T13:31:35.012Z</time></trkpt><trkpt lat="39.8937531" lon="9.5679848"><ele>268.0</ele><time>2026-04-06T13:31:36.012Z</time></trkpt><trkpt lat="39.8937517" lon="9.56811"><ele>268.0</ele><time>2026-04-06T13:31:37.012Z</time></trkpt><trkpt lat="39.8937544" lon="9.5682245"><ele>268.0</ele><time>2026-04-06T13:31:38.012Z</time></trkpt><trkpt lat="39.8937715" lon="9.5683296"><ele>268.0</ele><time>2026-04-06T13:31:39.012Z</time></trkpt><trkpt lat="39.8937967" lon="9.5684171"><ele>268.0</ele><time>2026-04-06T13:31:40.012Z</time></trkpt><trkpt lat="39.8938571" lon="9.5684693"><ele>268.0</ele><time>2026-04-06T13:31:41.011Z</time></trkpt><trkpt lat="39.8939181" lon="9.5685183"><ele>268.0</ele><time>2026-04-06T13:31:42.012Z</time></trkpt><trkpt lat="39.8939965" lon="9.5685597"><ele>268.0</ele><time>2026-04-06T13:31:43.012Z</time></trkpt><trkpt lat="39.8940808" lon="9.5685956"><ele>268.0</ele><time>2026-04-06T13:31:44.012Z</time></trkpt><trkpt lat="39.8941643" lon="9.5686275"><ele>268.0</ele><time>2026-04-06T13:31:45.011Z</time></trkpt><trkpt lat="39.8942464" lon="9.5686566"><ele>268.0</ele><time>2026-04-06T13:31:46.012Z</time></trkpt><trkpt lat="39.8943225" lon="9.5686852"><ele>268.0</ele><time>2026-04-06T13:31:47.012Z</time></trkpt><trkpt lat="39.8943941" lon="9.5687034"><ele>268.0</ele><time>2026-04-06T13:31:48.012Z</time></trkpt><trkpt lat="39.8944634" lon="9.56871"><ele>270.0</ele><time>2026-04-06T13:31:49.011Z</time></trkpt><trkpt lat="39.8945408" lon="9.5687112"><ele>272.0</ele><time>2026-04-06T13:31:50.011Z</time></trkpt><trkpt lat="39.8946108" lon="9.5687079"><ele>274.0</ele><time>2026-04-06T13:31:51.012Z</time></trkpt><trkpt lat="39.8946845" lon="9.5687044"><ele>276.0</ele><time>2026-04-06T13:31:52.012Z</time></trkpt><trkpt lat="39.8947708" lon="9.5687091"><ele>278.0</ele><time>2026-04-06T13:31:53.012Z</time></trkpt><trkpt lat="39.8948544" lon="9.5687202"><ele>280.0</ele><time>2026-04-06T13:31:54.012Z</time></trkpt><trkpt lat="39.8949349" lon="9.5687343"><ele>280.0</ele><time>2026-04-06T13:31:55.012Z</time></trkpt><trkpt lat="39.8950043" lon="9.5687355"><ele>280.0</ele><time>2026-04-06T13:31:56.012Z</time></trkpt><trkpt lat="39.8950794" lon="9.5687232"><ele>280.0</ele><time>2026-04-06T13:31:57.012Z</time></trkpt><trkpt lat="39.8951512" lon="9.568713"><ele>280.0</ele><time>2026-04-06T13:31:58.012Z</time></trkpt><trkpt lat="39.8952241" lon="9.568691"><ele>280.0</ele><time>2026-04-06T13:31:59.012Z</time></trkpt><trkpt lat="39.8952952" lon="9.5686619"><ele>280.0</ele><time>2026-04-06T13:32:00.012Z</time></trkpt><trkpt lat="39.8953655" lon="9.5686228"><ele>280.0</ele><time>2026-04-06T13:32:01.011Z</time></trkpt><trkpt lat="39.8954373" lon="9.5685709"><ele>275.5</ele><time>2026-04-06T13:32:02.011Z</time></trkpt><trkpt lat="39.8955093" lon="9.5685213"><ele>271.0</ele><time>2026-04-06T13:32:03.012Z</time></trkpt><trkpt lat="39.8955846" lon="9.568476"><ele>266.5</ele><time>2026-04-06T13:32:04.012Z</time></trkpt><trkpt lat="39.8956558" lon="9.5684404"><ele>262.0</ele><time>2026-04-06T13:32:05.011Z</time></trkpt><trkpt lat="39.895729" lon="9.5684112"><ele>257.5</ele><time>2026-04-06T13:32:06.012Z</time></trkpt><trkpt lat="39.8958028" lon="9.5683991"><ele>253.0</ele><time>2026-04-06T13:32:07.012Z</time></trkpt><trkpt lat="39.8958754" lon="9.5684032"><ele>251.49999999999997</ele><time>2026-04-06T13:32:08.012Z</time></trkpt><trkpt lat="39.8959366" lon="9.5684378"><ele>250.0</ele><time>2026-04-06T13:32:09.012Z</time></trkpt><trkpt lat="39.8959914" lon="9.5684881"><ele>248.5</ele><time>2026-04-06T13:32:10.012Z</time></trkpt><trkpt lat="39.8960455" lon="9.5685541"><ele>247.0</ele><time>2026-04-06T13:32:11.011Z</time></trkpt><trkpt lat="39.8960987" lon="9.5686301"><ele>245.49999999999997</ele><time>2026-04-06T13:32:12.012Z</time></trkpt><trkpt lat="39.8961643" lon="9.5687037"><ele>244.0</ele><time>2026-04-06T13:32:13.011Z</time></trkpt><trkpt lat="39.8962393" lon="9.56877"><ele>243.99999999999997</ele><time>2026-04-06T13:32:14.012Z</time></trkpt><trkpt lat="39.8963222" lon="9.5688165"><ele>244.0</ele><time>2026-04-06T13:32:15.012Z</time></trkpt><trkpt lat="39.8964079" lon="9.568837"><ele>244.0</ele><time>2026-04-06T13:32:16.012Z</time></trkpt><trkpt lat="39.8965012" lon="9.5688413"><ele>244.0</ele><time>2026-04-06T13:32:17.012Z</time></trkpt><trkpt lat="39.8965835" lon="9.5688498"><ele>243.99999999999997</ele><time>2026-04-06T13:32:18.012Z</time></trkpt><trkpt lat="39.8966592" lon="9.568857"><ele>244.0</ele><time>2026-04-06T13:32:19.011Z</time></trkpt><trkpt lat="39.8967364" lon="9.5688627"><ele>239.99999999999997</ele><time>2026-04-06T13:32:20.012Z</time></trkpt><trkpt lat="39.8968098" lon="9.5688788"><ele>236.0</ele><time>2026-04-06T13:32:21.012Z</time></trkpt><trkpt lat="39.8968827" lon="9.5689063"><ele>232.0</ele><time>2026-04-06T13:32:22.012Z</time></trkpt><trkpt lat="39.8969466" lon="9.568943"><ele>228.0</ele><time>2026-04-06T13:32:23.012Z</time></trkpt><trkpt lat="39.8970098" lon="9.5689999"><ele>224.0</ele><time>2026-04-06T13:32:24.011Z</time></trkpt><trkpt lat="39.8970646" lon="9.5690682"><ele>220.0</ele><time>2026-04-06T13:32:25.012Z</time></trkpt><trkpt lat="39.8971046" lon="9.5691426"><ele>216.0</ele><time>2026-04-06T13:32:26.012Z</time></trkpt><trkpt lat="39.8971433" lon="9.5692212"><ele>216.0</ele><time>2026-04-06T13:32:27.011Z</time></trkpt><trkpt lat="39.8971786" lon="9.5693053"><ele>216.0</ele><time>2026-04-06T13:32:28.012Z</time></trkpt><trkpt lat="39.8972026" lon="9.5693983"><ele>216.0</ele><time>2026-04-06T13:32:29.011Z</time></trkpt><trkpt lat="39.8972272" lon="9.5695"><ele>216.0</ele><time>2026-04-06T13:32:30.011Z</time></trkpt><trkpt lat="39.8972257" lon="9.5696034"><ele>216.0</ele><time>2026-04-06T13:32:31.012Z</time></trkpt><trkpt lat="39.89722" lon="9.5697053"><ele>216.0</ele><time>2026-04-06T13:32:32.012Z</time></trkpt><trkpt lat="39.8972038" lon="9.5698013"><ele>215.83333333333334</ele><time>2026-04-06T13:32:33.012Z</time></trkpt><trkpt lat="39.897188" lon="9.5698907"><ele>215.66666666666669</ele><time>2026-04-06T13:32:34.012Z</time></trkpt><trkpt lat="39.8971778" lon="9.5699849"><ele>215.5</ele><time>2026-04-06T13:32:35.012Z</time></trkpt><trkpt lat="39.8971577" lon="9.5700827"><ele>215.33333333333334</ele><time>2026-04-06T13:32:36.012Z</time></trkpt><trkpt lat="39.8971467" lon="9.5701882"><ele>215.16666666666669</ele><time>2026-04-06T13:32:37.012Z</time></trkpt><trkpt lat="39.8971391" lon="9.5703004"><ele>215.0</ele><time>2026-04-06T13:32:38.012Z</time></trkpt><trkpt lat="39.8971427" lon="9.5704121"><ele>216.33333333333334</ele><time>2026-04-06T13:32:39.012Z</time></trkpt><trkpt lat="39.8971582" lon="9.5705172"><ele>217.66666666666669</ele><time>2026-04-06T13:32:40.011Z</time></trkpt><trkpt lat="39.8971874" lon="9.5706065"><ele>219.0</ele><time>2026-04-06T13:32:41.011Z</time></trkpt><trkpt lat="39.8972257" lon="9.5706801"><ele>220.33333333333331</ele><time>2026-04-06T13:32:42.012Z</time></trkpt><trkpt lat="39.8972757" lon="9.5707355"><ele>221.66666666666666</ele><time>2026-04-06T13:32:43.012Z</time></trkpt><trkpt lat="39.8973905" lon="9.5708115"><ele>223.0</ele><time>2026-04-06T13:32:45.012Z</time></trkpt><trkpt lat="39.8974545" lon="9.5708442"><ele>222.99999999999997</ele><time>2026-04-06T13:32:46.011Z</time></trkpt><trkpt lat="39.89752" lon="9.5708791"><ele>223.0</ele><time>2026-04-06T13:32:47.012Z</time></trkpt><trkpt lat="39.8975868" lon="9.5709175"><ele>223.0</ele><time>2026-04-06T13:32:48.011Z</time></trkpt><trkpt lat="39.8976587" lon="9.5709625"><ele>223.0</ele><time>2026-04-06T13:32:49.011Z</time></trkpt><trkpt lat="39.8977351" lon="9.5710075"><ele>222.99999999999997</ele><time>2026-04-06T13:32:50.011Z</time></trkpt><trkpt lat="39.8978194" lon="9.5710594"><ele>223.0</ele><time>2026-04-06T13:32:51.012Z</time></trkpt><trkpt lat="39.8979041" lon="9.5711225"><ele>219.0</ele><time>2026-04-06T13:32:52.012Z</time></trkpt><trkpt lat="39.8979728" lon="9.5712051"><ele>215.0</ele><time>2026-04-06T13:32:53.012Z</time></trkpt><trkpt lat="39.8980324" lon="9.5713091"><ele>211.0</ele><time>2026-04-06T13:32:54.012Z</time></trkpt><trkpt lat="39.8980933" lon="9.5714186"><ele>207.0</ele><time>2026-04-06T13:32:55.011Z</time></trkpt><trkpt lat="39.8981508" lon="9.5715218"><ele>203.0</ele><time>2026-04-06T13:32:56.012Z</time></trkpt><trkpt lat="39.8981979" lon="9.5716309"><ele>203.00000000000003</ele><time>2026-04-06T13:32:57.012Z</time></trkpt><trkpt lat="39.8982375" lon="9.5717325"><ele>203.0</ele><time>2026-04-06T13:32:58.012Z</time></trkpt><trkpt lat="39.8982743" lon="9.5718239"><ele>203.0</ele><time>2026-04-06T13:32:59.012Z</time></trkpt><trkpt lat="39.8983156" lon="9.571919"><ele>203.0</ele><time>2026-04-06T13:33:00.012Z</time></trkpt><trkpt lat="39.8983583" lon="9.5720107"><ele>203.00000000000003</ele><time>2026-04-06T13:33:01.012Z</time></trkpt><trkpt lat="39.8984053" lon="9.5720893"><ele>203.0</ele><time>2026-04-06T13:33:02.012Z</time></trkpt><trkpt lat="39.8984517" lon="9.5721653"><ele>202.16666666666669</ele><time>2026-04-06T13:33:03.011Z</time></trkpt><trkpt lat="39.8985052" lon="9.5722335"><ele>201.33333333333334</ele><time>2026-04-06T13:33:04.012Z</time></trkpt><trkpt lat="39.898562" lon="9.5722913"><ele>200.5</ele><time>2026-04-06T13:33:05.011Z</time></trkpt><trkpt lat="39.8986233" lon="9.5723457"><ele>199.66666666666669</ele><time>2026-04-06T13:33:06.012Z</time></trkpt><trkpt lat="39.8986915" lon="9.5723994"><ele>198.83333333333334</ele><time>2026-04-06T13:33:07.012Z</time></trkpt><trkpt lat="39.8987678" lon="9.5724497"><ele>198.0</ele><time>2026-04-06T13:33:08.011Z</time></trkpt><trkpt lat="39.8988482" lon="9.5724966"><ele>198.0</ele><time>2026-04-06T13:33:09.011Z</time></trkpt><trkpt lat="39.8989393" lon="9.572525"><ele>198.0</ele><time>2026-04-06T13:33:10.012Z</time></trkpt><trkpt lat="39.8990366" lon="9.5725379"><ele>198.0</ele><time>2026-04-06T13:33:11.012Z</time></trkpt><trkpt lat="39.8991428" lon="9.5725251"><ele>198.0</ele><time>2026-04-06T13:33:12.012Z</time></trkpt><trkpt lat="39.8992557" lon="9.5725081"><ele>198.0</ele><time>2026-04-06T13:33:13.012Z</time></trkpt><trkpt lat="39.8993722" lon="9.5724988"><ele>194.4</ele><time>2026-04-06T13:33:14.012Z</time></trkpt><trkpt lat="39.8994857" lon="9.5724951"><ele>190.8</ele><time>2026-04-06T13:33:15.012Z</time></trkpt><trkpt lat="39.8995975" lon="9.5724994"><ele>187.2</ele><time>2026-04-06T13:33:16.011Z</time></trkpt><trkpt lat="39.8996975" lon="9.5725211"><ele>183.6</ele><time>2026-04-06T13:33:17.011Z</time></trkpt><trkpt lat="39.8997936" lon="9.5725644"><ele>180.0</ele><time>2026-04-06T13:33:18.012Z</time></trkpt><trkpt lat="39.8998751" lon="9.5726094"><ele>180.0</ele><time>2026-04-06T13:33:19.011Z</time></trkpt><trkpt lat="39.8999435" lon="9.5726656"><ele>180.0</ele><time>2026-04-06T13:33:20.012Z</time></trkpt><trkpt lat="39.8999987" lon="9.5727328"><ele>180.0</ele><time>2026-04-06T13:33:21.011Z</time></trkpt><trkpt lat="39.900038" lon="9.5728154"><ele>180.0</ele><time>2026-04-06T13:33:22.011Z</time></trkpt><trkpt lat="39.9000637" lon="9.5729058"><ele>180.0</ele><time>2026-04-06T13:33:23.012Z</time></trkpt><trkpt lat="39.9000923" lon="9.5730002"><ele>180.0</ele><time>2026-04-06T13:33:24.011Z</time></trkpt><trkpt lat="39.9001236" lon="9.5731043"><ele>177.16666666666666</ele><time>2026-04-06T13:33:25.011Z</time></trkpt><trkpt lat="39.9001596" lon="9.5732045"><ele>174.33333333333334</ele><time>2026-04-06T13:33:26.012Z</time></trkpt><trkpt lat="39.900196" lon="9.5733037"><ele>171.5</ele><time>2026-04-06T13:33:27.012Z</time></trkpt><trkpt lat="39.9002337" lon="9.5734023"><ele>168.66666666666669</ele><time>2026-04-06T13:33:28.012Z</time></trkpt><trkpt lat="39.9002737" lon="9.5734951"><ele>165.83333333333334</ele><time>2026-04-06T13:33:29.011Z</time></trkpt><trkpt lat="39.9003245" lon="9.5735815"><ele>163.0</ele><time>2026-04-06T13:33:30.012Z</time></trkpt><trkpt lat="39.9003907" lon="9.5736558"><ele>164.5</ele><time>2026-04-06T13:33:31.011Z</time></trkpt><trkpt lat="39.9004703" lon="9.5737129"><ele>166.0</ele><time>2026-04-06T13:33:32.011Z</time></trkpt><trkpt lat="39.900554" lon="9.5737592"><ele>167.5</ele><time>2026-04-06T13:33:33.011Z</time></trkpt><trkpt lat="39.9006297" lon="9.5737928"><ele>169.0</ele><time>2026-04-06T13:33:34.012Z</time></trkpt><trkpt lat="39.9007329" lon="9.5738495"><ele>170.5</ele><time>2026-04-06T13:33:36.012Z</time></trkpt><trkpt lat="39.9007883" lon="9.5739079"><ele>172.0</ele><time>2026-04-06T13:33:38.012Z</time></trkpt><trkpt lat="39.900843" lon="9.573987"><ele>172.0</ele><time>2026-04-06T13:33:40.012Z</time></trkpt><trkpt lat="39.9009076" lon="9.5741131"><ele>172.0</ele><time>2026-04-06T13:33:42.012Z</time></trkpt><trkpt lat="39.9009551" lon="9.5741971"><ele>172.0</ele><time>2026-04-06T13:33:43.012Z</time></trkpt><trkpt lat="39.9010146" lon="9.5742789"><ele>172.0</ele><time>2026-04-06T13:33:44.011Z</time></trkpt><trkpt lat="39.9010818" lon="9.574354"><ele>172.0</ele><time>2026-04-06T13:33:45.012Z</time></trkpt><trkpt lat="39.901159" lon="9.5744163"><ele>170.66666666666669</ele><time>2026-04-06T13:33:46.012Z</time></trkpt><trkpt lat="39.9012395" lon="9.5744783"><ele>169.33333333333334</ele><time>2026-04-06T13:33:47.011Z</time></trkpt><trkpt lat="39.9013189" lon="9.5745252"><ele>168.0</ele><time>2026-04-06T13:33:48.012Z</time></trkpt><trkpt lat="39.9013942" lon="9.5745698"><ele>166.66666666666666</ele><time>2026-04-06T13:33:49.011Z</time></trkpt><trkpt lat="39.901469" lon="9.5746119"><ele>165.33333333333331</ele><time>2026-04-06T13:33:50.011Z</time></trkpt><trkpt lat="39.9015482" lon="9.574656"><ele>164.0</ele><time>2026-04-06T13:33:51.012Z</time></trkpt><trkpt lat="39.9016268" lon="9.5747052"><ele>164.0</ele><time>2026-04-06T13:33:52.011Z</time></trkpt><trkpt lat="39.9016975" lon="9.5747464"><ele>164.0</ele><time>2026-04-06T13:33:53.012Z</time></trkpt><trkpt lat="39.9017615" lon="9.5747794"><ele>164.0</ele><time>2026-04-06T13:33:54.011Z</time></trkpt><trkpt lat="39.9018213" lon="9.5748074"><ele>164.0</ele><time>2026-04-06T13:33:55.012Z</time></trkpt><trkpt lat="39.9019198" lon="9.5748947"><ele>164.0</ele><time>2026-04-06T13:33:57.012Z</time></trkpt><trkpt lat="39.9019929" lon="9.5750013"><ele>164.0</ele><time>2026-04-06T13:33:59.012Z</time></trkpt><trkpt lat="39.9020686" lon="9.5751083"><ele>163.0</ele><time>2026-04-06T13:34:01.012Z</time></trkpt><trkpt lat="39.9021547" lon="9.575199"><ele>162.0</ele><time>2026-04-06T13:34:03.012Z</time></trkpt><trkpt lat="39.9022406" lon="9.5753037"><ele>161.0</ele><time>2026-04-06T13:34:05.011Z</time></trkpt><trkpt lat="39.9022854" lon="9.5753635"><ele>160.0</ele><time>2026-04-06T13:34:06.012Z</time></trkpt><trkpt lat="39.9023273" lon="9.5754315"><ele>159.0</ele><time>2026-04-06T13:34:07.012Z</time></trkpt><trkpt lat="39.9023617" lon="9.5755079"><ele>158.0</ele><time>2026-04-06T13:34:08.012Z</time></trkpt><trkpt lat="39.9023953" lon="9.575585"><ele>157.33333333333331</ele><time>2026-04-06T13:34:09.011Z</time></trkpt><trkpt lat="39.9024317" lon="9.5756557"><ele>156.66666666666666</ele><time>2026-04-06T13:34:10.012Z</time></trkpt><trkpt lat="39.902505" lon="9.5757883"><ele>156.0</ele><time>2026-04-06T13:34:12.011Z</time></trkpt><trkpt lat="39.9025495" lon="9.5758492"><ele>155.33333333333334</ele><time>2026-04-06T13:34:13.012Z</time></trkpt><trkpt lat="39.9026065" lon="9.5759078"><ele>154.66666666666669</ele><time>2026-04-06T13:34:14.012Z</time></trkpt><trkpt lat="39.9026583" lon="9.5759615"><ele>154.0</ele><time>2026-04-06T13:34:15.012Z</time></trkpt><trkpt lat="39.9027415" lon="9.5760834"><ele>152.0</ele><time>2026-04-06T13:34:17.011Z</time></trkpt><trkpt lat="39.9027824" lon="9.576228"><ele>150.0</ele><time>2026-04-06T13:34:19.011Z</time></trkpt><trkpt lat="39.9028205" lon="9.5763593"><ele>148.0</ele><time>2026-04-06T13:34:21.011Z</time></trkpt><trkpt lat="39.9028437" lon="9.5764994"><ele>146.0</ele><time>2026-04-06T13:34:23.012Z</time></trkpt><trkpt lat="39.9028763" lon="9.576628"><ele>144.0</ele><time>2026-04-06T13:34:25.012Z</time></trkpt><trkpt lat="39.9028952" lon="9.5767281"><ele>144.0</ele><time>2026-04-06T13:34:27.012Z</time></trkpt><trkpt lat="39.9029085" lon="9.5768196"><ele>144.0</ele><time>2026-04-06T13:34:29.012Z</time></trkpt><trkpt lat="39.902907" lon="9.5769101"><ele>144.0</ele><time>2026-04-06T13:34:32.012Z</time></trkpt><trkpt lat="39.9028673" lon="9.5770143"><ele>144.0</ele><time>2026-04-06T13:34:35.012Z</time></trkpt><trkpt lat="39.9028263" lon="9.5771204"><ele>144.0</ele><time>2026-04-06T13:34:37.011Z</time></trkpt><trkpt lat="39.9028167" lon="9.577261"><ele>144.0</ele><time>2026-04-06T13:34:39.011Z</time></trkpt><trkpt lat="39.9028464" lon="9.5773952"><ele>142.16666666666666</ele><time>2026-04-06T13:34:41.012Z</time></trkpt><trkpt lat="39.9028784" lon="9.5775398"><ele>140.33333333333334</ele><time>2026-04-06T13:34:43.012Z</time></trkpt><trkpt lat="39.9029066" lon="9.5776923"><ele>138.5</ele><time>2026-04-06T13:34:45.012Z</time></trkpt><trkpt lat="39.9029345" lon="9.5777733"><ele>136.66666666666669</ele><time>2026-04-06T13:34:46.012Z</time></trkpt><trkpt lat="39.9029775" lon="9.5778434"><ele>134.83333333333334</ele><time>2026-04-06T13:34:47.012Z</time></trkpt><trkpt lat="39.9030351" lon="9.5779024"><ele>133.0</ele><time>2026-04-06T13:34:48.012Z</time></trkpt><trkpt lat="39.9030919" lon="9.5779451"><ele>130.8</ele><time>2026-04-06T13:34:49.011Z</time></trkpt><trkpt lat="39.9031476" lon="9.5779884"><ele>128.60000000000002</ele><time>2026-04-06T13:34:50.011Z</time></trkpt><trkpt lat="39.9032492" lon="9.5780749"><ele>126.39999999999999</ele><time>2026-04-06T13:34:52.006Z</time></trkpt><trkpt lat="39.9033348" lon="9.5781834"><ele>124.19999999999999</ele><time>2026-04-06T13:34:54.011Z</time></trkpt><trkpt lat="39.9034104" lon="9.5782979"><ele>122.0</ele><time>2026-04-06T13:34:56.011Z</time></trkpt><trkpt lat="39.9034752" lon="9.5783943"><ele>120.6</ele><time>2026-04-06T13:34:58.012Z</time></trkpt><trkpt lat="39.9035439" lon="9.5784782"><ele>119.19999999999999</ele><time>2026-04-06T13:35:00.012Z</time></trkpt><trkpt lat="39.9036352" lon="9.5785152"><ele>117.8</ele><time>2026-04-06T13:35:02.012Z</time></trkpt><trkpt lat="39.903745" lon="9.5785088"><ele>116.4</ele><time>2026-04-06T13:35:04.012Z</time></trkpt><trkpt lat="39.903863" lon="9.5785109"><ele>115.0</ele><time>2026-04-06T13:35:06.012Z</time></trkpt><trkpt lat="39.9039456" lon="9.5785296"><ele>115.00000000000001</ele><time>2026-04-06T13:35:08.012Z</time></trkpt><trkpt lat="39.9040302" lon="9.5785845"><ele>115.0</ele><time>2026-04-06T13:35:10.011Z</time></trkpt><trkpt lat="39.904073" lon="9.5786499"><ele>115.0</ele><time>2026-04-06T13:35:11.012Z</time></trkpt><trkpt lat="39.9041384" lon="9.5787807"><ele>115.0</ele><time>2026-04-06T13:35:13.011Z</time></trkpt><trkpt lat="39.9041765" lon="9.5788501"><ele>115.00000000000001</ele><time>2026-04-06T13:35:14.012Z</time></trkpt><trkpt lat="39.9042249" lon="9.5789214"><ele>115.0</ele><time>2026-04-06T13:35:15.012Z</time></trkpt><trkpt lat="39.9042788" lon="9.5789891"><ele>114.14285714285712</ele><time>2026-04-06T13:35:16.011Z</time></trkpt><trkpt lat="39.9043323" lon="9.5790569"><ele>113.28571428571428</ele><time>2026-04-06T13:35:17.012Z</time></trkpt><trkpt lat="39.904376" lon="9.5791205"><ele>112.42857142857142</ele><time>2026-04-06T13:35:18.012Z</time></trkpt><trkpt lat="39.9044112" lon="9.5791901"><ele>111.57142857142856</ele><time>2026-04-06T13:35:19.012Z</time></trkpt><trkpt lat="39.9044438" lon="9.579262"><ele>110.71428571428572</ele><time>2026-04-06T13:35:20.012Z</time></trkpt><trkpt lat="39.9044802" lon="9.5793299"><ele>109.85714285714286</ele><time>2026-04-06T13:35:21.012Z</time></trkpt><trkpt lat="39.9045213" lon="9.5794039"><ele>109.0</ele><time>2026-04-06T13:35:22.012Z</time></trkpt><trkpt lat="39.9045746" lon="9.5794925"><ele>110.00000000000001</ele><time>2026-04-06T13:35:23.012Z</time></trkpt><trkpt lat="39.9046238" lon="9.5795863"><ele>111.0</ele><time>2026-04-06T13:35:24.012Z</time></trkpt><trkpt lat="39.9046709" lon="9.5796805"><ele>112.0</ele><time>2026-04-06T13:35:25.012Z</time></trkpt><trkpt lat="39.904708" lon="9.5797845"><ele>113.0</ele><time>2026-04-06T13:35:26.012Z</time></trkpt><trkpt lat="39.9047336" lon="9.5798753"><ele>114.00000000000001</ele><time>2026-04-06T13:35:27.012Z</time></trkpt><trkpt lat="39.9047502" lon="9.5799648"><ele>115.0</ele><time>2026-04-06T13:35:28.011Z</time></trkpt><trkpt lat="39.9047622" lon="9.5800523"><ele>115.0</ele><time>2026-04-06T13:35:29.011Z</time></trkpt><trkpt lat="39.9048081" lon="9.5801875"><ele>115.0</ele><time>2026-04-06T13:35:31.012Z</time></trkpt><trkpt lat="39.9048214" lon="9.5802984"><ele>115.0</ele><time>2026-04-06T13:35:33.011Z</time></trkpt><trkpt lat="39.9047752" lon="9.5803997"><ele>115.0</ele><time>2026-04-06T13:35:35.012Z</time></trkpt><trkpt lat="39.9046935" lon="9.5804559"><ele>115.0</ele><time>2026-04-06T13:35:37.012Z</time></trkpt><trkpt lat="39.9046175" lon="9.5804452"><ele>114.2</ele><time>2026-04-06T13:35:39.012Z</time></trkpt><trkpt lat="39.9045195" lon="9.5804507"><ele>113.4</ele><time>2026-04-06T13:35:43.012Z</time></trkpt><trkpt lat="39.9044387" lon="9.5805866"><ele>112.6</ele><time>2026-04-06T13:35:45.012Z</time></trkpt><trkpt lat="39.904383" lon="9.5806953"><ele>111.8</ele><time>2026-04-06T13:35:46.012Z</time></trkpt><trkpt lat="39.9043292" lon="9.5808143"><ele>111.0</ele><time>2026-04-06T13:35:47.011Z</time></trkpt><trkpt lat="39.904276" lon="9.5809365"><ele>110.25</ele><time>2026-04-06T13:35:48.012Z</time></trkpt><trkpt lat="39.9042166" lon="9.5810671"><ele>109.5</ele><time>2026-04-06T13:35:49.011Z</time></trkpt><trkpt lat="39.9041517" lon="9.581195"><ele>108.75</ele><time>2026-04-06T13:35:50.012Z</time></trkpt><trkpt lat="39.9040827" lon="9.581322"><ele>108.0</ele><time>2026-04-06T13:35:51.012Z</time></trkpt><trkpt lat="39.9040233" lon="9.5814589"><ele>108.0</ele><time>2026-04-06T13:35:52.012Z</time></trkpt><trkpt lat="39.9039756" lon="9.5816006"><ele>108.00000000000001</ele><time>2026-04-06T13:35:53.012Z</time></trkpt><trkpt lat="39.9039479" lon="9.58174"><ele>108.00000000000001</ele><time>2026-04-06T13:35:54.012Z</time></trkpt><trkpt lat="39.9039461" lon="9.5818761"><ele>108.0</ele><time>2026-04-06T13:35:55.011Z</time></trkpt><trkpt lat="39.9039614" lon="9.5820134"><ele>108.0</ele><time>2026-04-06T13:35:56.012Z</time></trkpt><trkpt lat="39.903999" lon="9.5821541"><ele>107.25</ele><time>2026-04-06T13:35:57.012Z</time></trkpt><trkpt lat="39.9040539" lon="9.5822948"><ele>106.5</ele><time>2026-04-06T13:35:58.011Z</time></trkpt><trkpt lat="39.9041193" lon="9.5824356"><ele>105.75</ele><time>2026-04-06T13:35:59.012Z</time></trkpt><trkpt lat="39.9041934" lon="9.5825757"><ele>105.0</ele><time>2026-04-06T13:36:00.011Z</time></trkpt><trkpt lat="39.904274" lon="9.5827101"><ele>102.5</ele><time>2026-04-06T13:36:01.012Z</time></trkpt><trkpt lat="39.9043557" lon="9.5828358"><ele>100.0</ele><time>2026-04-06T13:36:02.011Z</time></trkpt><trkpt lat="39.9044357" lon="9.5829583"><ele>97.5</ele><time>2026-04-06T13:36:03.011Z</time></trkpt><trkpt lat="39.9045301" lon="9.5830742"><ele>95.0</ele><time>2026-04-06T13:36:04.012Z</time></trkpt><trkpt lat="39.9046355" lon="9.5831884"><ele>94.66666666666667</ele><time>2026-04-06T13:36:05.011Z</time></trkpt><trkpt lat="39.9047501" lon="9.5833038"><ele>94.33333333333333</ele><time>2026-04-06T13:36:06.012Z</time></trkpt><trkpt lat="39.9048739" lon="9.5834235"><ele>94.0</ele><time>2026-04-06T13:36:07.012Z</time></trkpt><trkpt lat="39.9049986" lon="9.5835492"><ele>94.33333333333333</ele><time>2026-04-06T13:36:08.012Z</time></trkpt><trkpt lat="39.9051264" lon="9.5836701"><ele>94.66666666666667</ele><time>2026-04-06T13:36:09.012Z</time></trkpt><trkpt lat="39.9052528" lon="9.5837878"><ele>95.0</ele><time>2026-04-06T13:36:10.012Z</time></trkpt><trkpt lat="39.9053706" lon="9.5839027"><ele>95.0</ele><time>2026-04-06T13:36:11.012Z</time></trkpt><trkpt lat="39.9054888" lon="9.5840126"><ele>95.0</ele><time>2026-04-06T13:36:12.012Z</time></trkpt><trkpt lat="39.9056156" lon="9.5841086"><ele>95.0</ele><time>2026-04-06T13:36:13.011Z</time></trkpt><trkpt lat="39.9057494" lon="9.5841852"><ele>95.0</ele><time>2026-04-06T13:36:14.012Z</time></trkpt><trkpt lat="39.9058958" lon="9.5842505"><ele>95.0</ele><time>2026-04-06T13:36:15.012Z</time></trkpt><trkpt lat="39.9060463" lon="9.5843139"><ele>95.0</ele><time>2026-04-06T13:36:16.012Z</time></trkpt><trkpt lat="39.9062013" lon="9.5843699"><ele>95.0</ele><time>2026-04-06T13:36:17.011Z</time></trkpt><trkpt lat="39.906354" lon="9.5844239"><ele>95.0</ele><time>2026-04-06T13:36:18.012Z</time></trkpt><trkpt lat="39.9065157" lon="9.5844816"><ele>95.0</ele><time>2026-04-06T13:36:19.012Z</time></trkpt><trkpt lat="39.9066759" lon="9.5845408"><ele>95.0</ele><time>2026-04-06T13:36:20.012Z</time></trkpt><trkpt lat="39.906829" lon="9.5846048"><ele>94.0</ele><time>2026-04-06T13:36:21.012Z</time></trkpt><trkpt lat="39.9069732" lon="9.5846708"><ele>93.0</ele><time>2026-04-06T13:36:22.011Z</time></trkpt><trkpt lat="39.9071112" lon="9.5847421"><ele>92.0</ele><time>2026-04-06T13:36:23.012Z</time></trkpt><trkpt lat="39.907238" lon="9.5848186"><ele>91.0</ele><time>2026-04-06T13:36:24.012Z</time></trkpt><trkpt lat="39.9073623" lon="9.5849019"><ele>91.0</ele><time>2026-04-06T13:36:25.011Z</time></trkpt><trkpt lat="39.9074728" lon="9.5849844"><ele>91.0</ele><time>2026-04-06T13:36:26.011Z</time></trkpt><trkpt lat="39.9075879" lon="9.5850652"><ele>91.0</ele><time>2026-04-06T13:36:27.012Z</time></trkpt><trkpt lat="39.907702" lon="9.5851596"><ele>91.0</ele><time>2026-04-06T13:36:28.011Z</time></trkpt><trkpt lat="39.9078092" lon="9.5852641"><ele>90.0</ele><time>2026-04-06T13:36:29.011Z</time></trkpt><trkpt lat="39.9079168" lon="9.5853771"><ele>89.0</ele><time>2026-04-06T13:36:30.012Z</time></trkpt><trkpt lat="39.9080282" lon="9.5854947"><ele>88.0</ele><time>2026-04-06T13:36:31.012Z</time></trkpt><trkpt lat="39.9081366" lon="9.585624"><ele>87.0</ele><time>2026-04-06T13:36:32.011Z</time></trkpt><trkpt lat="39.9082444" lon="9.5857656"><ele>87.0</ele><time>2026-04-06T13:36:33.012Z</time></trkpt><trkpt lat="39.9083465" lon="9.5859187"><ele>87.0</ele><time>2026-04-06T13:36:34.012Z</time></trkpt><trkpt lat="39.9084462" lon="9.5860824"><ele>87.0</ele><time>2026-04-06T13:36:35.012Z</time></trkpt><trkpt lat="39.9085423" lon="9.5862534"><ele>86.66666666666667</ele><time>2026-04-06T13:36:36.012Z</time></trkpt><trkpt lat="39.9086383" lon="9.5864272"><ele>86.33333333333334</ele><time>2026-04-06T13:36:37.012Z</time></trkpt><trkpt lat="39.9087321" lon="9.5866061"><ele>86.0</ele><time>2026-04-06T13:36:38.011Z</time></trkpt><trkpt lat="39.9088292" lon="9.5867863"><ele>86.0</ele><time>2026-04-06T13:36:39.012Z</time></trkpt><trkpt lat="39.9089236" lon="9.5869743"><ele>86.0</ele><time>2026-04-06T13:36:40.011Z</time></trkpt><trkpt lat="39.909003" lon="9.5871784"><ele>86.0</ele><time>2026-04-06T13:36:41.012Z</time></trkpt><trkpt lat="39.9090408" lon="9.5873967"><ele>85.33333333333334</ele><time>2026-04-06T13:36:42.011Z</time></trkpt><trkpt lat="39.9090653" lon="9.5876145"><ele>84.66666666666667</ele><time>2026-04-06T13:36:43.012Z</time></trkpt><trkpt lat="39.9091079" lon="9.5878248"><ele>84.0</ele><time>2026-04-06T13:36:44.012Z</time></trkpt><trkpt lat="39.9091714" lon="9.5880299"><ele>86.66666666666667</ele><time>2026-04-06T13:36:45.012Z</time></trkpt><trkpt lat="39.9092572" lon="9.5882182"><ele>89.33333333333334</ele><time>2026-04-06T13:36:46.012Z</time></trkpt><trkpt lat="39.9093602" lon="9.5883859"><ele>92.0</ele><time>2026-04-06T13:36:47.012Z</time></trkpt><trkpt lat="39.909479" lon="9.5885184"><ele>92.0</ele><time>2026-04-06T13:36:48.012Z</time></trkpt><trkpt lat="39.9096134" lon="9.588612"><ele>92.0</ele><time>2026-04-06T13:36:49.011Z</time></trkpt><trkpt lat="39.9097616" lon="9.5886667"><ele>92.0</ele><time>2026-04-06T13:36:50.012Z</time></trkpt><trkpt lat="39.9099133" lon="9.5887152"><ele>90.0</ele><time>2026-04-06T13:36:51.012Z</time></trkpt><trkpt lat="39.9100607" lon="9.5887807"><ele>88.0</ele><time>2026-04-06T13:36:52.011Z</time></trkpt><trkpt lat="39.9102046" lon="9.5888726"><ele>86.0</ele><time>2026-04-06T13:36:53.012Z</time></trkpt><trkpt lat="39.9103589" lon="9.5889824"><ele>86.0</ele><time>2026-04-06T13:36:54.012Z</time></trkpt><trkpt lat="39.9104728" lon="9.5891272"><ele>86.0</ele><time>2026-04-06T13:36:55.012Z</time></trkpt><trkpt lat="39.9105912" lon="9.5892904"><ele>86.0</ele><time>2026-04-06T13:36:56.012Z</time></trkpt><trkpt lat="39.9106946" lon="9.5894761"><ele>85.33333333333334</ele><time>2026-04-06T13:36:57.012Z</time></trkpt><trkpt lat="39.9107904" lon="9.5896752"><ele>84.66666666666667</ele><time>2026-04-06T13:36:58.012Z</time></trkpt><trkpt lat="39.9108846" lon="9.5898804"><ele>84.0</ele><time>2026-04-06T13:36:59.011Z</time></trkpt><trkpt lat="39.9109896" lon="9.5900809"><ele>84.0</ele><time>2026-04-06T13:37:00.012Z</time></trkpt><trkpt lat="39.9110915" lon="9.5902986"><ele>84.0</ele><time>2026-04-06T13:37:01.012Z</time></trkpt><trkpt lat="39.9111976" lon="9.5905191"><ele>84.0</ele><time>2026-04-06T13:37:02.012Z</time></trkpt><trkpt lat="39.9113118" lon="9.5907445"><ele>83.33333333333333</ele><time>2026-04-06T13:37:03.012Z</time></trkpt><trkpt lat="39.9114243" lon="9.5909761"><ele>82.66666666666666</ele><time>2026-04-06T13:37:04.011Z</time></trkpt><trkpt lat="39.9115352" lon="9.5912042"><ele>82.0</ele><time>2026-04-06T13:37:05.012Z</time></trkpt><trkpt lat="39.9116335" lon="9.5914238"><ele>82.66666666666666</ele><time>2026-04-06T13:37:06.012Z</time></trkpt><trkpt lat="39.9117356" lon="9.5916327"><ele>83.33333333333333</ele><time>2026-04-06T13:37:07.011Z</time></trkpt><trkpt lat="39.911833" lon="9.5918426"><ele>84.0</ele><time>2026-04-06T13:37:08.012Z</time></trkpt><trkpt lat="39.9119238" lon="9.5920388"><ele>84.0</ele><time>2026-04-06T13:37:09.012Z</time></trkpt><trkpt lat="39.9120057" lon="9.5922421"><ele>84.0</ele><time>2026-04-06T13:37:10.011Z</time></trkpt><trkpt lat="39.912075" lon="9.5924597"><ele>84.0</ele><time>2026-04-06T13:37:11.012Z</time></trkpt><trkpt lat="39.9121209" lon="9.5926929"><ele>85.0</ele><time>2026-04-06T13:37:12.012Z</time></trkpt><trkpt lat="39.9121362" lon="9.5929337"><ele>86.0</ele><time>2026-04-06T13:37:13.012Z</time></trkpt><trkpt lat="39.9121152" lon="9.5931803"><ele>87.0</ele><time>2026-04-06T13:37:14.012Z</time></trkpt><trkpt lat="39.912054" lon="9.5934145"><ele>87.0</ele><time>2026-04-06T13:37:15.012Z</time></trkpt><trkpt lat="39.9119519" lon="9.5936112"><ele>87.0</ele><time>2026-04-06T13:37:16.012Z</time></trkpt><trkpt lat="39.9118243" lon="9.593761"><ele>87.0</ele><time>2026-04-06T13:37:17.011Z</time></trkpt><trkpt lat="39.9116948" lon="9.5938809"><ele>86.0</ele><time>2026-04-06T13:37:18.012Z</time></trkpt><trkpt lat="39.9115757" lon="9.5940234"><ele>85.0</ele><time>2026-04-06T13:37:19.012Z</time></trkpt><trkpt lat="39.9114689" lon="9.5941972"><ele>84.0</ele><time>2026-04-06T13:37:20.012Z</time></trkpt><trkpt lat="39.9113721" lon="9.5943991"><ele>86.0</ele><time>2026-04-06T13:37:21.012Z</time></trkpt><trkpt lat="39.9112851" lon="9.5946137"><ele>88.0</ele><time>2026-04-06T13:37:22.012Z</time></trkpt><trkpt lat="39.9112041" lon="9.5948232"><ele>90.0</ele><time>2026-04-06T13:37:23.011Z</time></trkpt><trkpt lat="39.9111296" lon="9.595026"><ele>90.0</ele><time>2026-04-06T13:37:24.012Z</time></trkpt><trkpt lat="39.9110726" lon="9.595221"><ele>90.0</ele><time>2026-04-06T13:37:25.012Z</time></trkpt><trkpt lat="39.9110501" lon="9.5953989"><ele>90.0</ele><time>2026-04-06T13:37:26.012Z</time></trkpt><trkpt lat="39.9110682" lon="9.5955774"><ele>90.0</ele><time>2026-04-06T13:37:27.012Z</time></trkpt><trkpt lat="39.911119" lon="9.5957518"><ele>86.33333333333333</ele><time>2026-04-06T13:37:28.012Z</time></trkpt><trkpt lat="39.9111968" lon="9.5959045"><ele>82.66666666666666</ele><time>2026-04-06T13:37:29.011Z</time></trkpt><trkpt lat="39.9113051" lon="9.5960422"><ele>79.0</ele><time>2026-04-06T13:37:30.012Z</time></trkpt><trkpt lat="39.911438" lon="9.5961663"><ele>77.33333333333333</ele><time>2026-04-06T13:37:31.011Z</time></trkpt><trkpt lat="39.9115778" lon="9.5962851"><ele>75.66666666666667</ele><time>2026-04-06T13:37:32.012Z</time></trkpt><trkpt lat="39.9117141" lon="9.5964108"><ele>74.0</ele><time>2026-04-06T13:37:33.012Z</time></trkpt><trkpt lat="39.9118518" lon="9.59656"><ele>74.0</ele><time>2026-04-06T13:37:34.012Z</time></trkpt><trkpt lat="39.9119782" lon="9.5967281"><ele>74.0</ele><time>2026-04-06T13:37:35.012Z</time></trkpt><trkpt lat="39.9120969" lon="9.5969115"><ele>74.0</ele><time>2026-04-06T13:37:36.012Z</time></trkpt><trkpt lat="39.9122042" lon="9.5971082"><ele>72.66666666666667</ele><time>2026-04-06T13:37:37.012Z</time></trkpt><trkpt lat="39.9123161" lon="9.5973031"><ele>71.33333333333333</ele><time>2026-04-06T13:37:38.012Z</time></trkpt><trkpt lat="39.9124472" lon="9.5974847"><ele>70.0</ele><time>2026-04-06T13:37:39.012Z</time></trkpt><trkpt lat="39.912588" lon="9.5976479"><ele>71.33333333333333</ele><time>2026-04-06T13:37:40.012Z</time></trkpt><trkpt lat="39.912733" lon="9.5978061"><ele>72.66666666666667</ele><time>2026-04-06T13:37:41.012Z</time></trkpt><trkpt lat="39.9128751" lon="9.5979615"><ele>74.0</ele><time>2026-04-06T13:37:42.011Z</time></trkpt><trkpt lat="39.9130089" lon="9.5981091"><ele>74.0</ele><time>2026-04-06T13:37:43.012Z</time></trkpt><trkpt lat="39.9131414" lon="9.5982512"><ele>74.0</ele><time>2026-04-06T13:37:44.012Z</time></trkpt><trkpt lat="39.9132731" lon="9.5983886"><ele>74.0</ele><time>2026-04-06T13:37:45.011Z</time></trkpt><trkpt lat="39.9133936" lon="9.5985191"><ele>77.66666666666667</ele><time>2026-04-06T13:37:46.011Z</time></trkpt><trkpt lat="39.9135009" lon="9.598656"><ele>81.33333333333333</ele><time>2026-04-06T13:37:47.012Z</time></trkpt><trkpt lat="39.9135896" lon="9.5988189"><ele>85.0</ele><time>2026-04-06T13:37:48.012Z</time></trkpt><trkpt lat="39.913635" lon="9.5990028"><ele>85.0</ele><time>2026-04-06T13:37:49.012Z</time></trkpt><trkpt lat="39.9136394" lon="9.5991943"><ele>85.0</ele><time>2026-04-06T13:37:50.012Z</time></trkpt><trkpt lat="39.9136017" lon="9.5993876"><ele>85.0</ele><time>2026-04-06T13:37:51.012Z</time></trkpt><trkpt lat="39.9135226" lon="9.5995618"><ele>84.25</ele><time>2026-04-06T13:37:52.012Z</time></trkpt><trkpt lat="39.9134373" lon="9.5997078"><ele>83.5</ele><time>2026-04-06T13:37:53.012Z</time></trkpt><trkpt lat="39.9133746" lon="9.5998623"><ele>82.75</ele><time>2026-04-06T13:37:54.012Z</time></trkpt><trkpt lat="39.9133529" lon="9.6000177"><ele>82.0</ele><time>2026-04-06T13:37:55.011Z</time></trkpt><trkpt lat="39.9133716" lon="9.6001618"><ele>82.0</ele><time>2026-04-06T13:37:56.012Z</time></trkpt><trkpt lat="39.91343" lon="9.6003035"><ele>82.0</ele><time>2026-04-06T13:37:57.011Z</time></trkpt><trkpt lat="39.913492" lon="9.6004513"><ele>82.0</ele><time>2026-04-06T13:37:58.012Z</time></trkpt><trkpt lat="39.9135444" lon="9.6006214"><ele>82.0</ele><time>2026-04-06T13:37:59.011Z</time></trkpt><trkpt lat="39.9135689" lon="9.6008118"><ele>81.0</ele><time>2026-04-06T13:38:00.012Z</time></trkpt><trkpt lat="39.9135592" lon="9.6010127"><ele>80.0</ele><time>2026-04-06T13:38:01.011Z</time></trkpt><trkpt lat="39.9135234" lon="9.601221"><ele>79.0</ele><time>2026-04-06T13:38:02.012Z</time></trkpt><trkpt lat="39.9134798" lon="9.6014345"><ele>81.33333333333333</ele><time>2026-04-06T13:38:03.012Z</time></trkpt><trkpt lat="39.9134116" lon="9.6016459"><ele>83.66666666666667</ele><time>2026-04-06T13:38:04.012Z</time></trkpt><trkpt lat="39.9133068" lon="9.601846"><ele>86.0</ele><time>2026-04-06T13:38:05.011Z</time></trkpt><trkpt lat="39.913185" lon="9.60204"><ele>86.0</ele><time>2026-04-06T13:38:06.012Z</time></trkpt><trkpt lat="39.9130607" lon="9.6022146"><ele>86.0</ele><time>2026-04-06T13:38:07.012Z</time></trkpt><trkpt lat="39.912929" lon="9.602369"><ele>86.0</ele><time>2026-04-06T13:38:08.011Z</time></trkpt><trkpt lat="39.9127822" lon="9.602503"><ele>86.0</ele><time>2026-04-06T13:38:09.012Z</time></trkpt><trkpt lat="39.9126421" lon="9.6026278"><ele>86.0</ele><time>2026-04-06T13:38:10.012Z</time></trkpt><trkpt lat="39.9124981" lon="9.6027502"><ele>86.0</ele><time>2026-04-06T13:38:11.011Z</time></trkpt><trkpt lat="39.9123614" lon="9.6028786"><ele>83.0</ele><time>2026-04-06T13:38:12.012Z</time></trkpt><trkpt lat="39.9122365" lon="9.6030119"><ele>80.0</ele><time>2026-04-06T13:38:13.012Z</time></trkpt><trkpt lat="39.9121421" lon="9.6031672"><ele>77.0</ele><time>2026-04-06T13:38:14.012Z</time></trkpt><trkpt lat="39.9120766" lon="9.6033255"><ele>77.0</ele><time>2026-04-06T13:38:15.012Z</time></trkpt><trkpt lat="39.9120409" lon="9.6034886"><ele>77.0</ele><time>2026-04-06T13:38:16.011Z</time></trkpt><trkpt lat="39.9120369" lon="9.6036479"><ele>77.0</ele><time>2026-04-06T13:38:17.012Z</time></trkpt><trkpt lat="39.9120688" lon="9.6037979"><ele>77.0</ele><time>2026-04-06T13:38:18.011Z</time></trkpt><trkpt lat="39.9121317" lon="9.60392"><ele>75.5</ele><time>2026-04-06T13:38:19.011Z</time></trkpt><trkpt lat="39.9122241" lon="9.6040249"><ele>74.0</ele><time>2026-04-06T13:38:20.012Z</time></trkpt><trkpt lat="39.9123203" lon="9.6041253"><ele>72.5</ele><time>2026-04-06T13:38:21.012Z</time></trkpt><trkpt lat="39.9124232" lon="9.6042315"><ele>71.0</ele><time>2026-04-06T13:38:22.011Z</time></trkpt><trkpt lat="39.9125271" lon="9.604342"><ele>70.25</ele><time>2026-04-06T13:38:23.012Z</time></trkpt><trkpt lat="39.912634" lon="9.6044514"><ele>69.5</ele><time>2026-04-06T13:38:24.011Z</time></trkpt><trkpt lat="39.9127359" lon="9.6045673"><ele>68.75</ele><time>2026-04-06T13:38:25.011Z</time></trkpt><trkpt lat="39.9128276" lon="9.6046955"><ele>68.0</ele><time>2026-04-06T13:38:26.012Z</time></trkpt><trkpt lat="39.9129048" lon="9.604853"><ele>68.0</ele><time>2026-04-06T13:38:27.012Z</time></trkpt><trkpt lat="39.912999" lon="9.6049865"><ele>68.0</ele><time>2026-04-06T13:38:28.012Z</time></trkpt><trkpt lat="39.9131141" lon="9.6050866"><ele>68.0</ele><time>2026-04-06T13:38:29.011Z</time></trkpt><trkpt lat="39.9132523" lon="9.6051501"><ele>68.0</ele><time>2026-04-06T13:38:30.012Z</time></trkpt><trkpt lat="39.9134007" lon="9.6051728"><ele>69.0</ele><time>2026-04-06T13:38:31.012Z</time></trkpt><trkpt lat="39.9135535" lon="9.6051795"><ele>70.0</ele><time>2026-04-06T13:38:32.011Z</time></trkpt><trkpt lat="39.9137054" lon="9.6051913"><ele>71.0</ele><time>2026-04-06T13:38:33.012Z</time></trkpt><trkpt lat="39.9138561" lon="9.6052268"><ele>71.0</ele><time>2026-04-06T13:38:34.012Z</time></trkpt><trkpt lat="39.9140052" lon="9.605299"><ele>71.0</ele><time>2026-04-06T13:38:35.012Z</time></trkpt><trkpt lat="39.9141506" lon="9.6053939"><ele>71.0</ele><time>2026-04-06T13:38:36.012Z</time></trkpt><trkpt lat="39.9142999" lon="9.6054955"><ele>67.33333333333334</ele><time>2026-04-06T13:38:37.011Z</time></trkpt><trkpt lat="39.9144605" lon="9.6055851"><ele>63.66666666666667</ele><time>2026-04-06T13:38:38.012Z</time></trkpt><trkpt lat="39.9146267" lon="9.6056613"><ele>60.0</ele><time>2026-04-06T13:38:39.011Z</time></trkpt><trkpt lat="39.9147943" lon="9.6057358"><ele>60.0</ele><time>2026-04-06T13:38:40.012Z</time></trkpt><trkpt lat="39.9149492" lon="9.6058484"><ele>60.0</ele><time>2026-04-06T13:38:41.012Z</time></trkpt><trkpt lat="39.9150925" lon="9.6059824"><ele>60.0</ele><time>2026-04-06T13:38:42.012Z</time></trkpt><trkpt lat="39.915221" lon="9.6061517"><ele>59.0</ele><time>2026-04-06T13:38:43.012Z</time></trkpt><trkpt lat="39.9153398" lon="9.6063498"><ele>58.0</ele><time>2026-04-06T13:38:44.012Z</time></trkpt><trkpt lat="39.915448" lon="9.6065666"><ele>57.0</ele><time>2026-04-06T13:38:45.012Z</time></trkpt><trkpt lat="39.9155603" lon="9.6067932"><ele>56.0</ele><time>2026-04-06T13:38:46.011Z</time></trkpt><trkpt lat="39.9156752" lon="9.6070232"><ele>55.0</ele><time>2026-04-06T13:38:47.011Z</time></trkpt><trkpt lat="39.9157885" lon="9.6072528"><ele>54.0</ele><time>2026-04-06T13:38:48.012Z</time></trkpt><trkpt lat="39.9158994" lon="9.6074772"><ele>54.0</ele><time>2026-04-06T13:38:49.012Z</time></trkpt><trkpt lat="39.9160083" lon="9.6077018"><ele>54.0</ele><time>2026-04-06T13:38:50.012Z</time></trkpt><trkpt lat="39.9161198" lon="9.6079192"><ele>54.0</ele><time>2026-04-06T13:38:51.011Z</time></trkpt><trkpt lat="39.9162321" lon="9.6081387"><ele>54.0</ele><time>2026-04-06T13:38:52.011Z</time></trkpt><trkpt lat="39.9163462" lon="9.6083652"><ele>54.0</ele><time>2026-04-06T13:38:53.012Z</time></trkpt><trkpt lat="39.9164608" lon="9.6085937"><ele>54.0</ele><time>2026-04-06T13:38:54.011Z</time></trkpt><trkpt lat="39.9165789" lon="9.6088258"><ele>53.66666666666667</ele><time>2026-04-06T13:38:55.011Z</time></trkpt><trkpt lat="39.9166934" lon="9.6090589"><ele>53.333333333333336</ele><time>2026-04-06T13:38:56.012Z</time></trkpt><trkpt lat="39.9168047" lon="9.6092835"><ele>53.0</ele><time>2026-04-06T13:38:57.011Z</time></trkpt><trkpt lat="39.9169192" lon="9.6095152"><ele>52.66666666666667</ele><time>2026-04-06T13:38:58.012Z</time></trkpt><trkpt lat="39.9170365" lon="9.6097365"><ele>52.33333333333333</ele><time>2026-04-06T13:38:59.012Z</time></trkpt><trkpt lat="39.9171466" lon="9.609943"><ele>52.0</ele><time>2026-04-06T13:39:00.011Z</time></trkpt><trkpt lat="39.9172473" lon="9.610141"><ele>52.33333333333333</ele><time>2026-04-06T13:39:01.011Z</time></trkpt><trkpt lat="39.9173144" lon="9.6103305"><ele>52.66666666666667</ele><time>2026-04-06T13:39:02.012Z</time></trkpt><trkpt lat="39.9173479" lon="9.6105211"><ele>53.0</ele><time>2026-04-06T13:39:03.012Z</time></trkpt><trkpt lat="39.9173421" lon="9.6107166"><ele>53.0</ele><time>2026-04-06T13:39:04.012Z</time></trkpt><trkpt lat="39.9172965" lon="9.6109136"><ele>53.0</ele><time>2026-04-06T13:39:05.012Z</time></trkpt><trkpt lat="39.9172144" lon="9.6111023"><ele>53.0</ele><time>2026-04-06T13:39:06.012Z</time></trkpt><trkpt lat="39.9170899" lon="9.6112465"><ele>53.333333333333336</ele><time>2026-04-06T13:39:07.012Z</time></trkpt><trkpt lat="39.9169422" lon="9.6113739"><ele>53.66666666666667</ele><time>2026-04-06T13:39:08.011Z</time></trkpt><trkpt lat="39.9167828" lon="9.6114952"><ele>54.0</ele><time>2026-04-06T13:39:09.011Z</time></trkpt><trkpt lat="39.9166173" lon="9.6116191"><ele>54.0</ele><time>2026-04-06T13:39:10.012Z</time></trkpt><trkpt lat="39.916455" lon="9.6117383"><ele>54.0</ele><time>2026-04-06T13:39:11.012Z</time></trkpt><trkpt lat="39.9163013" lon="9.6118557"><ele>54.0</ele><time>2026-04-06T13:39:12.012Z</time></trkpt><trkpt lat="39.916144" lon="9.6119706"><ele>55.33333333333333</ele><time>2026-04-06T13:39:13.012Z</time></trkpt><trkpt lat="39.9160023" lon="9.6120763"><ele>56.666666666666664</ele><time>2026-04-06T13:39:14.012Z</time></trkpt><trkpt lat="39.9158647" lon="9.6121744"><ele>58.0</ele><time>2026-04-06T13:39:15.012Z</time></trkpt><trkpt lat="39.9157337" lon="9.6122737"><ele>58.0</ele><time>2026-04-06T13:39:16.012Z</time></trkpt><trkpt lat="39.9156099" lon="9.6123878"><ele>58.0</ele><time>2026-04-06T13:39:17.012Z</time></trkpt><trkpt lat="39.9155095" lon="9.6125225"><ele>58.0</ele><time>2026-04-06T13:39:18.012Z</time></trkpt><trkpt lat="39.9154288" lon="9.6126834"><ele>58.0</ele><time>2026-04-06T13:39:19.011Z</time></trkpt><trkpt lat="39.9153216" lon="9.6128255"><ele>58.75</ele><time>2026-04-06T13:39:20.012Z</time></trkpt><trkpt lat="39.9151973" lon="9.612932"><ele>59.5</ele><time>2026-04-06T13:39:21.011Z</time></trkpt><trkpt lat="39.9150746" lon="9.613015"><ele>60.25</ele><time>2026-04-06T13:39:22.012Z</time></trkpt><trkpt lat="39.9149641" lon="9.6131034"><ele>61.0</ele><time>2026-04-06T13:39:23.012Z</time></trkpt><trkpt lat="39.9148671" lon="9.6132018"><ele>61.0</ele><time>2026-04-06T13:39:24.011Z</time></trkpt><trkpt lat="39.9148002" lon="9.6133313"><ele>61.0</ele><time>2026-04-06T13:39:25.011Z</time></trkpt><trkpt lat="39.9147696" lon="9.6134812"><ele>61.0</ele><time>2026-04-06T13:39:26.012Z</time></trkpt><trkpt lat="39.9147804" lon="9.6136374"><ele>61.0</ele><time>2026-04-06T13:39:27.012Z</time></trkpt><trkpt lat="39.9148322" lon="9.6137845"><ele>61.5</ele><time>2026-04-06T13:39:28.012Z</time></trkpt><trkpt lat="39.9149223" lon="9.6139154"><ele>62.0</ele><time>2026-04-06T13:39:29.012Z</time></trkpt><trkpt lat="39.9150418" lon="9.6140373"><ele>62.5</ele><time>2026-04-06T13:39:30.011Z</time></trkpt><trkpt lat="39.9151634" lon="9.6141605"><ele>63.0</ele><time>2026-04-06T13:39:31.012Z</time></trkpt><trkpt lat="39.9152777" lon="9.6142837"><ele>63.0</ele><time>2026-04-06T13:39:32.012Z</time></trkpt><trkpt lat="39.9153979" lon="9.6143767"><ele>63.0</ele><time>2026-04-06T13:39:33.012Z</time></trkpt><trkpt lat="39.9155435" lon="9.6144245"><ele>63.0</ele><time>2026-04-06T13:39:34.012Z</time></trkpt><trkpt lat="39.9156882" lon="9.61442"><ele>63.0</ele><time>2026-04-06T13:39:35.012Z</time></trkpt><trkpt lat="39.9158327" lon="9.6144032"><ele>63.25</ele><time>2026-04-06T13:39:36.011Z</time></trkpt><trkpt lat="39.9159763" lon="9.6144382"><ele>63.5</ele><time>2026-04-06T13:39:37.012Z</time></trkpt><trkpt lat="39.9161017" lon="9.6145208"><ele>63.75</ele><time>2026-04-06T13:39:38.012Z</time></trkpt><trkpt lat="39.9162049" lon="9.6146543"><ele>64.0</ele><time>2026-04-06T13:39:39.012Z</time></trkpt><trkpt lat="39.9162539" lon="9.614823"><ele>64.0</ele><time>2026-04-06T13:39:40.012Z</time></trkpt><trkpt lat="39.9162678" lon="9.6149913"><ele>64.0</ele><time>2026-04-06T13:39:41.012Z</time></trkpt><trkpt lat="39.9163018" lon="9.6151612"><ele>64.0</ele><time>2026-04-06T13:39:42.011Z</time></trkpt><trkpt lat="39.916359" lon="9.6153217"><ele>64.0</ele><time>2026-04-06T13:39:43.011Z</time></trkpt><trkpt lat="39.9164469" lon="9.6154508"><ele>64.66666666666666</ele><time>2026-04-06T13:39:44.012Z</time></trkpt><trkpt lat="39.9165702" lon="9.6155595"><ele>65.33333333333333</ele><time>2026-04-06T13:39:45.012Z</time></trkpt><trkpt lat="39.9167089" lon="9.6156584"><ele>66.0</ele><time>2026-04-06T13:39:46.011Z</time></trkpt><trkpt lat="39.916846" lon="9.6157852"><ele>66.0</ele><time>2026-04-06T13:39:47.012Z</time></trkpt><trkpt lat="39.9169761" lon="9.6159368"><ele>66.0</ele><time>2026-04-06T13:39:48.012Z</time></trkpt><trkpt lat="39.9170921" lon="9.6161124"><ele>66.0</ele><time>2026-04-06T13:39:49.011Z</time></trkpt><trkpt lat="39.9171913" lon="9.6163095"><ele>60.66666666666667</ele><time>2026-04-06T13:39:50.012Z</time></trkpt><trkpt lat="39.917297" lon="9.6165074"><ele>55.333333333333336</ele><time>2026-04-06T13:39:51.011Z</time></trkpt><trkpt lat="39.9174225" lon="9.6166901"><ele>50.0</ele><time>2026-04-06T13:39:52.012Z</time></trkpt><trkpt lat="39.9175634" lon="9.616872"><ele>48.0</ele><time>2026-04-06T13:39:53.012Z</time></trkpt><trkpt lat="39.9177057" lon="9.617065"><ele>46.0</ele><time>2026-04-06T13:39:54.012Z</time></trkpt><trkpt lat="39.9178494" lon="9.6172581"><ele>44.0</ele><time>2026-04-06T13:39:55.012Z</time></trkpt><trkpt lat="39.9179847" lon="9.6174512"><ele>44.0</ele><time>2026-04-06T13:39:56.012Z</time></trkpt><trkpt lat="39.9181118" lon="9.6176395"><ele>44.0</ele><time>2026-04-06T13:39:57.011Z</time></trkpt><trkpt lat="39.9182347" lon="9.6178234"><ele>44.0</ele><time>2026-04-06T13:39:58.012Z</time></trkpt><trkpt lat="39.918356" lon="9.6180108"><ele>44.0</ele><time>2026-04-06T13:39:59.012Z</time></trkpt><trkpt lat="39.9184767" lon="9.6181941"><ele>44.0</ele><time>2026-04-06T13:40:00.011Z</time></trkpt><trkpt lat="39.9185955" lon="9.6183779"><ele>44.0</ele><time>2026-04-06T13:40:01.012Z</time></trkpt><trkpt lat="39.9187081" lon="9.6185525"><ele>42.33333333333333</ele><time>2026-04-06T13:40:02.011Z</time></trkpt><trkpt lat="39.9188138" lon="9.618719"><ele>40.666666666666664</ele><time>2026-04-06T13:40:03.012Z</time></trkpt><trkpt lat="39.9189173" lon="9.6188782"><ele>39.0</ele><time>2026-04-06T13:40:04.012Z</time></trkpt><trkpt lat="39.9190262" lon="9.6190266"><ele>39.0</ele><time>2026-04-06T13:40:05.012Z</time></trkpt><trkpt lat="39.9191507" lon="9.6191438"><ele>39.0</ele><time>2026-04-06T13:40:06.012Z</time></trkpt><trkpt lat="39.9193028" lon="9.6192267"><ele>39.0</ele><time>2026-04-06T13:40:07.011Z</time></trkpt><trkpt lat="39.9194981" lon="9.6192892"><ele>40.0</ele><time>2026-04-06T13:40:08.012Z</time></trkpt><trkpt lat="39.9197254" lon="9.6193537"><ele>41.0</ele><time>2026-04-06T13:40:09.012Z</time></trkpt><trkpt lat="39.9199353" lon="9.6194352"><ele>39.33333333333333</ele><time>2026-04-06T13:40:10.012Z</time></trkpt><trkpt lat="39.9201334" lon="9.6195134"><ele>37.666666666666664</ele><time>2026-04-06T13:40:11.011Z</time></trkpt><trkpt lat="39.9203188" lon="9.6195776"><ele>36.0</ele><time>2026-04-06T13:40:12.012Z</time></trkpt><trkpt lat="39.9204915" lon="9.6196368"><ele>36.0</ele><time>2026-04-06T13:40:13.012Z</time></trkpt><trkpt lat="39.920657" lon="9.6196961"><ele>36.0</ele><time>2026-04-06T13:40:14.011Z</time></trkpt><trkpt lat="39.9208188" lon="9.6197515"><ele>36.0</ele><time>2026-04-06T13:40:15.012Z</time></trkpt><trkpt lat="39.9209762" lon="9.619807"><ele>38.0</ele><time>2026-04-06T13:40:16.012Z</time></trkpt><trkpt lat="39.9211311" lon="9.619862"><ele>40.0</ele><time>2026-04-06T13:40:17.012Z</time></trkpt><trkpt lat="39.9212847" lon="9.6199283"><ele>42.0</ele><time>2026-04-06T13:40:18.012Z</time></trkpt><trkpt lat="39.921428" lon="9.6200169"><ele>42.0</ele><time>2026-04-06T13:40:19.012Z</time></trkpt><trkpt lat="39.9215646" lon="9.6201312"><ele>42.0</ele><time>2026-04-06T13:40:20.012Z</time></trkpt><trkpt lat="39.9216966" lon="9.62026"><ele>42.0</ele><time>2026-04-06T13:40:21.011Z</time></trkpt><trkpt lat="39.9218152" lon="9.6204045"><ele>44.0</ele><time>2026-04-06T13:40:22.011Z</time></trkpt><trkpt lat="39.9219297" lon="9.6205628"><ele>46.0</ele><time>2026-04-06T13:40:23.012Z</time></trkpt><trkpt lat="39.9220357" lon="9.6207304"><ele>48.0</ele><time>2026-04-06T13:40:24.012Z</time></trkpt><trkpt lat="39.9221404" lon="9.6208939"><ele>48.0</ele><time>2026-04-06T13:40:25.012Z</time></trkpt><trkpt lat="39.9222373" lon="9.6210497"><ele>48.0</ele><time>2026-04-06T13:40:26.011Z</time></trkpt><trkpt lat="39.9223277" lon="9.6211969"><ele>48.0</ele><time>2026-04-06T13:40:27.012Z</time></trkpt><trkpt lat="39.9224176" lon="9.6213409"><ele>48.0</ele><time>2026-04-06T13:40:28.012Z</time></trkpt><trkpt lat="39.9225083" lon="9.6214834"><ele>48.75</ele><time>2026-04-06T13:40:29.012Z</time></trkpt><trkpt lat="39.9225943" lon="9.6216233"><ele>49.5</ele><time>2026-04-06T13:40:30.012Z</time></trkpt><trkpt lat="39.9226739" lon="9.6217554"><ele>50.25</ele><time>2026-04-06T13:40:31.012Z</time></trkpt><trkpt lat="39.9227458" lon="9.6218965"><ele>51.0</ele><time>2026-04-06T13:40:32.011Z</time></trkpt><trkpt lat="39.922797" lon="9.6220558"><ele>51.5</ele><time>2026-04-06T13:40:33.012Z</time></trkpt><trkpt lat="39.9228152" lon="9.6222247"><ele>52.0</ele><time>2026-04-06T13:40:34.012Z</time></trkpt><trkpt lat="39.9228021" lon="9.6223881"><ele>52.5</ele><time>2026-04-06T13:40:35.012Z</time></trkpt><trkpt lat="39.9227897" lon="9.6225519"><ele>53.0</ele><time>2026-04-06T13:40:36.012Z</time></trkpt><trkpt lat="39.9227918" lon="9.622715"><ele>51.4</ele><time>2026-04-06T13:40:37.011Z</time></trkpt><trkpt lat="39.9227949" lon="9.6228653"><ele>49.8</ele><time>2026-04-06T13:40:38.012Z</time></trkpt><trkpt lat="39.9227834" lon="9.6230098"><ele>48.2</ele><time>2026-04-06T13:40:39.012Z</time></trkpt><trkpt lat="39.9227454" lon="9.6231424"><ele>46.6</ele><time>2026-04-06T13:40:40.012Z</time></trkpt><trkpt lat="39.9227102" lon="9.6232728"><ele>45.0</ele><time>2026-04-06T13:40:41.012Z</time></trkpt><trkpt lat="39.9226978" lon="9.6234141"><ele>45.0</ele><time>2026-04-06T13:40:42.011Z</time></trkpt><trkpt lat="39.9226993" lon="9.6235688"><ele>45.0</ele><time>2026-04-06T13:40:43.012Z</time></trkpt><trkpt lat="39.9227344" lon="9.6237529"><ele>45.0</ele><time>2026-04-06T13:40:44.012Z</time></trkpt><trkpt lat="39.9228093" lon="9.6239785"><ele>41.5</ele><time>2026-04-06T13:40:45.012Z</time></trkpt><trkpt lat="39.9228968" lon="9.6242523"><ele>38.0</ele><time>2026-04-06T13:40:46.012Z</time></trkpt><trkpt lat="39.9229862" lon="9.6245565"><ele>36.5</ele><time>2026-04-06T13:40:47.012Z</time></trkpt><trkpt lat="39.9230775" lon="9.624889"><ele>35.0</ele><time>2026-04-06T13:40:48.012Z</time></trkpt><trkpt lat="39.9231667" lon="9.6252323"><ele>34.0</ele><time>2026-04-06T13:40:49.012Z</time></trkpt><trkpt lat="39.9232363" lon="9.6255472"><ele>33.0</ele><time>2026-04-06T13:40:50.012Z</time></trkpt><trkpt lat="39.92329" lon="9.6258081"><ele>33.0</ele><time>2026-04-06T13:40:51.012Z</time></trkpt><trkpt lat="39.9233383" lon="9.6260202"><ele>33.0</ele><time>2026-04-06T13:40:52.012Z</time></trkpt><trkpt lat="39.9234176" lon="9.6261919"><ele>33.0</ele><time>2026-04-06T13:40:53.012Z</time></trkpt><trkpt lat="39.9235235" lon="9.6263323"><ele>32.666666666666664</ele><time>2026-04-06T13:40:54.012Z</time></trkpt><trkpt lat="39.9236699" lon="9.6264637"><ele>32.33333333333333</ele><time>2026-04-06T13:40:55.012Z</time></trkpt><trkpt lat="39.9238546" lon="9.6265784"><ele>32.0</ele><time>2026-04-06T13:40:56.011Z</time></trkpt><trkpt lat="39.9240207" lon="9.6266844"><ele>32.0</ele><time>2026-04-06T13:40:57.012Z</time></trkpt><trkpt lat="39.9241759" lon="9.6267905"><ele>32.0</ele><time>2026-04-06T13:40:58.012Z</time></trkpt><trkpt lat="39.9243141" lon="9.6269083"><ele>32.0</ele><time>2026-04-06T13:40:59.011Z</time></trkpt><trkpt lat="39.9244266" lon="9.6270394"><ele>33.0</ele><time>2026-04-06T13:41:00.011Z</time></trkpt><trkpt lat="39.9245153" lon="9.6271945"><ele>34.0</ele><time>2026-04-06T13:41:01.012Z</time></trkpt><trkpt lat="39.92459" lon="9.6273784"><ele>35.0</ele><time>2026-04-06T13:41:02.012Z</time></trkpt><trkpt lat="39.9246278" lon="9.6275588"><ele>35.0</ele><time>2026-04-06T13:41:03.012Z</time></trkpt><trkpt lat="39.9246322" lon="9.6277416"><ele>35.0</ele><time>2026-04-06T13:41:04.012Z</time></trkpt><trkpt lat="39.9246013" lon="9.6279385"><ele>35.0</ele><time>2026-04-06T13:41:05.012Z</time></trkpt><trkpt lat="39.9245186" lon="9.6281425"><ele>35.0</ele><time>2026-04-06T13:41:06.012Z</time></trkpt><trkpt lat="39.9243983" lon="9.6283528"><ele>35.0</ele><time>2026-04-06T13:41:07.012Z</time></trkpt><trkpt lat="39.9242728" lon="9.6285814"><ele>35.0</ele><time>2026-04-06T13:41:08.011Z</time></trkpt><trkpt lat="39.9241555" lon="9.6288241"><ele>35.0</ele><time>2026-04-06T13:41:09.012Z</time></trkpt><trkpt lat="39.9240398" lon="9.6290774"><ele>35.0</ele><time>2026-04-06T13:41:10.012Z</time></trkpt><trkpt lat="39.92394" lon="9.6293139"><ele>35.0</ele><time>2026-04-06T13:41:11.011Z</time></trkpt><trkpt lat="39.9238497" lon="9.6295551"><ele>35.0</ele><time>2026-04-06T13:41:12.012Z</time></trkpt><trkpt lat="39.9237747" lon="9.6298186"><ele>35.0</ele><time>2026-04-06T13:41:13.012Z</time></trkpt><trkpt lat="39.923713" lon="9.6301028"><ele>35.0</ele><time>2026-04-06T13:41:14.012Z</time></trkpt><trkpt lat="39.9236542" lon="9.6303942"><ele>35.33333333333333</ele><time>2026-04-06T13:41:15.012Z</time></trkpt><trkpt lat="39.9235935" lon="9.6306731"><ele>35.666666666666664</ele><time>2026-04-06T13:41:16.012Z</time></trkpt><trkpt lat="39.9235395" lon="9.6309318"><ele>36.0</ele><time>2026-04-06T13:41:17.012Z</time></trkpt><trkpt lat="39.923488" lon="9.6311576"><ele>36.666666666666664</ele><time>2026-04-06T13:41:18.011Z</time></trkpt><trkpt lat="39.9234462" lon="9.6313652"><ele>37.33333333333333</ele><time>2026-04-06T13:41:19.011Z</time></trkpt><trkpt lat="39.9234355" lon="9.6315651"><ele>38.0</ele><time>2026-04-06T13:41:20.012Z</time></trkpt><trkpt lat="39.9234538" lon="9.63176"><ele>38.0</ele><time>2026-04-06T13:41:21.011Z</time></trkpt><trkpt lat="39.9235074" lon="9.6319473"><ele>38.0</ele><time>2026-04-06T13:41:22.011Z</time></trkpt><trkpt lat="39.9235998" lon="9.6321111"><ele>38.0</ele><time>2026-04-06T13:41:23.012Z</time></trkpt><trkpt lat="39.9237395" lon="9.6322617"><ele>36.0</ele><time>2026-04-06T13:41:24.012Z</time></trkpt><trkpt lat="39.923908" lon="9.6323939"><ele>34.0</ele><time>2026-04-06T13:41:25.011Z</time></trkpt><trkpt lat="39.9241009" lon="9.6325375"><ele>32.0</ele><time>2026-04-06T13:41:26.012Z</time></trkpt><trkpt lat="39.9243047" lon="9.6326871"><ele>30.0</ele><time>2026-04-06T13:41:27.011Z</time></trkpt><trkpt lat="39.9245205" lon="9.6328355"><ele>28.0</ele><time>2026-04-06T13:41:28.012Z</time></trkpt><trkpt lat="39.9247313" lon="9.6329796"><ele>28.0</ele><time>2026-04-06T13:41:29.012Z</time></trkpt><trkpt lat="39.9249382" lon="9.6331087"><ele>28.0</ele><time>2026-04-06T13:41:30.011Z</time></trkpt><trkpt lat="39.9251392" lon="9.6332067"><ele>28.0</ele><time>2026-04-06T13:41:31.012Z</time></trkpt><trkpt lat="39.9253294" lon="9.6333013"><ele>28.0</ele><time>2026-04-06T13:41:32.011Z</time></trkpt><trkpt lat="39.9254993" lon="9.6334196"><ele>28.0</ele><time>2026-04-06T13:41:33.011Z</time></trkpt><trkpt lat="39.9256523" lon="9.633577"><ele>28.0</ele><time>2026-04-06T13:41:34.011Z</time></trkpt><trkpt lat="39.9257856" lon="9.6337476"><ele>29.0</ele><time>2026-04-06T13:41:35.012Z</time></trkpt><trkpt lat="39.9259147" lon="9.6338987"><ele>30.0</ele><time>2026-04-06T13:41:36.012Z</time></trkpt><trkpt lat="39.9260377" lon="9.6340243"><ele>31.0</ele><time>2026-04-06T13:41:37.012Z</time></trkpt><trkpt lat="39.9261546" lon="9.6341283"><ele>31.0</ele><time>2026-04-06T13:41:38.011Z</time></trkpt><trkpt lat="39.9262641" lon="9.634207"><ele>31.0</ele><time>2026-04-06T13:41:39.011Z</time></trkpt><trkpt lat="39.9263673" lon="9.6342682"><ele>31.0</ele><time>2026-04-06T13:41:40.011Z</time></trkpt><trkpt lat="39.926466" lon="9.6343211"><ele>31.0</ele><time>2026-04-06T13:41:41.012Z</time></trkpt><trkpt lat="39.9265615" lon="9.6343661"><ele>31.0</ele><time>2026-04-06T13:41:42.011Z</time></trkpt><trkpt lat="39.9266545" lon="9.6344149"><ele>32.2</ele><time>2026-04-06T13:41:43.012Z</time></trkpt><trkpt lat="39.9267498" lon="9.6344697"><ele>33.400000000000006</ele><time>2026-04-06T13:41:44.012Z</time></trkpt><trkpt lat="39.9268387" lon="9.6345331"><ele>34.6</ele><time>2026-04-06T13:41:45.012Z</time></trkpt><trkpt lat="39.9269147" lon="9.6346194"><ele>35.800000000000004</ele><time>2026-04-06T13:41:46.011Z</time></trkpt><trkpt lat="39.9269746" lon="9.6347401"><ele>37.0</ele><time>2026-04-06T13:41:47.012Z</time></trkpt><trkpt lat="39.9270045" lon="9.6348798"><ele>37.0</ele><time>2026-04-06T13:41:48.012Z</time></trkpt><trkpt lat="39.9270096" lon="9.635036"><ele>37.0</ele><time>2026-04-06T13:41:49.011Z</time></trkpt><trkpt lat="39.9270149" lon="9.6352115"><ele>37.0</ele><time>2026-04-06T13:41:50.012Z</time></trkpt><trkpt lat="39.9270178" lon="9.6354206"><ele>37.0</ele><time>2026-04-06T13:41:51.012Z</time></trkpt><trkpt lat="39.9270333" lon="9.6356719"><ele>37.333333333333336</ele><time>2026-04-06T13:41:52.012Z</time></trkpt><trkpt lat="39.9270388" lon="9.635953"><ele>37.666666666666664</ele><time>2026-04-06T13:41:53.012Z</time></trkpt><trkpt lat="39.9270422" lon="9.6362474"><ele>38.0</ele><time>2026-04-06T13:41:54.011Z</time></trkpt><trkpt lat="39.927045" lon="9.6365442"><ele>38.0</ele><time>2026-04-06T13:41:55.012Z</time></trkpt><trkpt lat="39.9270536" lon="9.6368558"><ele>38.0</ele><time>2026-04-06T13:41:56.012Z</time></trkpt><trkpt lat="39.9270473" lon="9.6371224"><ele>38.0</ele><time>2026-04-06T13:41:57.012Z</time></trkpt><trkpt lat="39.927041" lon="9.6373617"><ele>39.0</ele><time>2026-04-06T13:41:58.011Z</time></trkpt><trkpt lat="39.9270378" lon="9.6375856"><ele>40.0</ele><time>2026-04-06T13:41:59.012Z</time></trkpt><trkpt lat="39.9270174" lon="9.637788"><ele>41.0</ele><time>2026-04-06T13:42:00.012Z</time></trkpt><trkpt lat="39.9269805" lon="9.6379664"><ele>43.75</ele><time>2026-04-06T13:42:01.012Z</time></trkpt><trkpt lat="39.9269317" lon="9.6381295"><ele>46.5</ele><time>2026-04-06T13:42:02.012Z</time></trkpt><trkpt lat="39.9268703" lon="9.6382914"><ele>49.25</ele><time>2026-04-06T13:42:03.011Z</time></trkpt><trkpt lat="39.9268024" lon="9.6384399"><ele>52.0</ele><time>2026-04-06T13:42:04.012Z</time></trkpt><trkpt lat="39.9267389" lon="9.6385808"><ele>49.5</ele><time>2026-04-06T13:42:05.012Z</time></trkpt><trkpt lat="39.9266685" lon="9.6387165"><ele>47.0</ele><time>2026-04-06T13:42:06.012Z</time></trkpt><trkpt lat="39.9265843" lon="9.6388536"><ele>44.5</ele><time>2026-04-06T13:42:07.012Z</time></trkpt><trkpt lat="39.9264673" lon="9.6390092"><ele>42.0</ele><time>2026-04-06T13:42:08.012Z</time></trkpt><trkpt lat="39.9263191" lon="9.6391916"><ele>42.0</ele><time>2026-04-06T13:42:09.012Z</time></trkpt><trkpt lat="39.9261446" lon="9.6393802"><ele>42.0</ele><time>2026-04-06T13:42:10.012Z</time></trkpt><trkpt lat="39.925953" lon="9.6395781"><ele>40.0</ele><time>2026-04-06T13:42:11.012Z</time></trkpt><trkpt lat="39.9257594" lon="9.6397842"><ele>38.0</ele><time>2026-04-06T13:42:12.012Z</time></trkpt><trkpt lat="39.9255755" lon="9.6399892"><ele>38.0</ele><time>2026-04-06T13:42:13.011Z</time></trkpt><trkpt lat="39.92539" lon="9.6401963"><ele>38.0</ele><time>2026-04-06T13:42:14.011Z</time></trkpt><trkpt lat="39.9252181" lon="9.6403989"><ele>37.0</ele><time>2026-04-06T13:42:15.012Z</time></trkpt><trkpt lat="39.9250573" lon="9.6406008"><ele>36.0</ele><time>2026-04-06T13:42:16.011Z</time></trkpt><trkpt lat="39.9249081" lon="9.6408032"><ele>35.0</ele><time>2026-04-06T13:42:17.012Z</time></trkpt><trkpt lat="39.9247703" lon="9.6410127"><ele>39.666666666666664</ele><time>2026-04-06T13:42:18.012Z</time></trkpt><trkpt lat="39.924648" lon="9.641218"><ele>44.33333333333333</ele><time>2026-04-06T13:42:19.012Z</time></trkpt><trkpt lat="39.9245187" lon="9.6414279"><ele>49.0</ele><time>2026-04-06T13:42:20.012Z</time></trkpt><trkpt lat="39.9243781" lon="9.641628"><ele>49.0</ele><time>2026-04-06T13:42:21.012Z</time></trkpt><trkpt lat="39.9242352" lon="9.6418178"><ele>49.0</ele><time>2026-04-06T13:42:22.012Z</time></trkpt><trkpt lat="39.9240879" lon="9.6420007"><ele>49.0</ele><time>2026-04-06T13:42:23.012Z</time></trkpt><trkpt lat="39.9239498" lon="9.642178"><ele>46.33333333333333</ele><time>2026-04-06T13:42:24.012Z</time></trkpt><trkpt lat="39.9238153" lon="9.6423472"><ele>43.666666666666664</ele><time>2026-04-06T13:42:25.012Z</time></trkpt><trkpt lat="39.9236843" lon="9.6425072"><ele>41.0</ele><time>2026-04-06T13:42:26.012Z</time></trkpt><trkpt lat="39.923558" lon="9.6426576"><ele>39.75</ele><time>2026-04-06T13:42:27.012Z</time></trkpt><trkpt lat="39.9234489" lon="9.6428001"><ele>38.5</ele><time>2026-04-06T13:42:28.012Z</time></trkpt><trkpt lat="39.9233717" lon="9.6429444"><ele>37.25</ele><time>2026-04-06T13:42:29.012Z</time></trkpt><trkpt lat="39.9233331" lon="9.643119"><ele>36.0</ele><time>2026-04-06T13:42:30.011Z</time></trkpt><trkpt lat="39.9233368" lon="9.6433086"><ele>32.0</ele><time>2026-04-06T13:42:31.012Z</time></trkpt><trkpt lat="39.9233772" lon="9.6435051"><ele>28.0</ele><time>2026-04-06T13:42:32.012Z</time></trkpt><trkpt lat="39.9234314" lon="9.6436998"><ele>24.0</ele><time>2026-04-06T13:42:33.012Z</time></trkpt><trkpt lat="39.9234831" lon="9.6438929"><ele>24.0</ele><time>2026-04-06T13:42:34.011Z</time></trkpt><trkpt lat="39.923534" lon="9.6440843"><ele>24.0</ele><time>2026-04-06T13:42:35.011Z</time></trkpt><trkpt lat="39.923582" lon="9.6442727"><ele>24.0</ele><time>2026-04-06T13:42:36.012Z</time></trkpt><trkpt lat="39.9236346" lon="9.6444586"><ele>23.333333333333332</ele><time>2026-04-06T13:42:37.011Z</time></trkpt><trkpt lat="39.9236879" lon="9.6446439"><ele>22.666666666666664</ele><time>2026-04-06T13:42:38.012Z</time></trkpt><trkpt lat="39.9237431" lon="9.6448394"><ele>22.0</ele><time>2026-04-06T13:42:39.012Z</time></trkpt><trkpt lat="39.9237985" lon="9.6450435"><ele>22.0</ele><time>2026-04-06T13:42:40.011Z</time></trkpt><trkpt lat="39.9238552" lon="9.6452524"><ele>22.0</ele><time>2026-04-06T13:42:41.012Z</time></trkpt><trkpt lat="39.9239111" lon="9.6454569"><ele>22.0</ele><time>2026-04-06T13:42:42.012Z</time></trkpt><trkpt lat="39.9239655" lon="9.6456581"><ele>21.666666666666664</ele><time>2026-04-06T13:42:43.011Z</time></trkpt><trkpt lat="39.9240199" lon="9.6458539"><ele>21.333333333333332</ele><time>2026-04-06T13:42:44.012Z</time></trkpt><trkpt lat="39.924075" lon="9.646052"><ele>21.0</ele><time>2026-04-06T13:42:45.012Z</time></trkpt><trkpt lat="39.9241285" lon="9.646244"><ele>20.75</ele><time>2026-04-06T13:42:46.012Z</time></trkpt><trkpt lat="39.9241793" lon="9.6464319"><ele>20.5</ele><time>2026-04-06T13:42:47.012Z</time></trkpt><trkpt lat="39.9242297" lon="9.6466118"><ele>20.25</ele><time>2026-04-06T13:42:48.012Z</time></trkpt><trkpt lat="39.9242768" lon="9.6467885"><ele>20.0</ele><time>2026-04-06T13:42:49.012Z</time></trkpt><trkpt lat="39.9243195" lon="9.6469621"><ele>21.0</ele><time>2026-04-06T13:42:50.011Z</time></trkpt><trkpt lat="39.9243641" lon="9.6471332"><ele>22.0</ele><time>2026-04-06T13:42:51.011Z</time></trkpt><trkpt lat="39.9244069" lon="9.6472946"><ele>23.0</ele><time>2026-04-06T13:42:52.011Z</time></trkpt><trkpt lat="39.9244503" lon="9.6474545"><ele>24.0</ele><time>2026-04-06T13:42:53.011Z</time></trkpt><trkpt lat="39.9245015" lon="9.647615"><ele>24.0</ele><time>2026-04-06T13:42:54.012Z</time></trkpt><trkpt lat="39.9245548" lon="9.6477872"><ele>24.0</ele><time>2026-04-06T13:42:55.012Z</time></trkpt><trkpt lat="39.9246038" lon="9.6479657"><ele>24.0</ele><time>2026-04-06T13:42:56.012Z</time></trkpt><trkpt lat="39.9246557" lon="9.6481496"><ele>24.0</ele><time>2026-04-06T13:42:57.012Z</time></trkpt><trkpt lat="39.9247053" lon="9.6483228"><ele>23.5</ele><time>2026-04-06T13:42:58.012Z</time></trkpt><trkpt lat="39.9247497" lon="9.6484893"><ele>23.0</ele><time>2026-04-06T13:42:59.011Z</time></trkpt><trkpt lat="39.9247978" lon="9.6486496"><ele>22.5</ele><time>2026-04-06T13:43:00.012Z</time></trkpt><trkpt lat="39.9248449" lon="9.6488017"><ele>22.0</ele><time>2026-04-06T13:43:01.012Z</time></trkpt><trkpt lat="39.9248838" lon="9.6489395"><ele>21.833333333333332</ele><time>2026-04-06T13:43:02.012Z</time></trkpt><trkpt lat="39.924923" lon="9.6490707"><ele>21.666666666666664</ele><time>2026-04-06T13:43:03.012Z</time></trkpt><trkpt lat="39.924954" lon="9.6491918"><ele>21.5</ele><time>2026-04-06T13:43:04.012Z</time></trkpt><trkpt lat="39.9249852" lon="9.6492993"><ele>21.333333333333332</ele><time>2026-04-06T13:43:05.012Z</time></trkpt><trkpt lat="39.9250086" lon="9.6493902"><ele>21.166666666666668</ele><time>2026-04-06T13:43:06.012Z</time></trkpt><trkpt lat="39.9250343" lon="9.6494653"><ele>21.0</ele><time>2026-04-06T13:43:07.011Z</time></trkpt><trkpt lat="39.9250816" lon="9.6496309"><ele>21.0</ele><time>2026-04-06T13:43:09.012Z</time></trkpt><trkpt lat="39.9251135" lon="9.6497424"><ele>21.0</ele><time>2026-04-06T13:43:10.012Z</time></trkpt><trkpt lat="39.9251469" lon="9.6498719"><ele>21.0</ele><time>2026-04-06T13:43:11.012Z</time></trkpt><trkpt lat="39.9251843" lon="9.6500167"><ele>21.0</ele><time>2026-04-06T13:43:12.011Z</time></trkpt><trkpt lat="39.9252289" lon="9.6501697"><ele>21.0</ele><time>2026-04-06T13:43:13.012Z</time></trkpt><trkpt lat="39.9252692" lon="9.6503062"><ele>21.200000000000003</ele><time>2026-04-06T13:43:14.012Z</time></trkpt><trkpt lat="39.9253103" lon="9.6504407"><ele>21.400000000000002</ele><time>2026-04-06T13:43:15.012Z</time></trkpt><trkpt lat="39.925348" lon="9.6505747"><ele>21.6</ele><time>2026-04-06T13:43:16.012Z</time></trkpt><trkpt lat="39.9253838" lon="9.6507025"><ele>21.8</ele><time>2026-04-06T13:43:17.012Z</time></trkpt><trkpt lat="39.9254169" lon="9.6508281"><ele>22.0</ele><time>2026-04-06T13:43:18.011Z</time></trkpt><trkpt lat="39.925454" lon="9.650954"><ele>22.0</ele><time>2026-04-06T13:43:19.012Z</time></trkpt><trkpt lat="39.9254871" lon="9.6510823"><ele>22.0</ele><time>2026-04-06T13:43:20.011Z</time></trkpt><trkpt lat="39.9255204" lon="9.6512092"><ele>22.0</ele><time>2026-04-06T13:43:21.012Z</time></trkpt><trkpt lat="39.9255561" lon="9.6513423"><ele>22.0</ele><time>2026-04-06T13:43:22.012Z</time></trkpt><trkpt lat="39.9255929" lon="9.6514728"><ele>22.0</ele><time>2026-04-06T13:43:23.012Z</time></trkpt><trkpt lat="39.9256286" lon="9.6516064"><ele>21.666666666666664</ele><time>2026-04-06T13:43:24.011Z</time></trkpt><trkpt lat="39.9256646" lon="9.6517293"><ele>21.333333333333332</ele><time>2026-04-06T13:43:25.011Z</time></trkpt><trkpt lat="39.9256954" lon="9.6518302"><ele>21.0</ele><time>2026-04-06T13:43:26.012Z</time></trkpt><trkpt lat="39.9257174" lon="9.6519137"><ele>20.666666666666668</ele><time>2026-04-06T13:43:27.012Z</time></trkpt><trkpt lat="39.9257363" lon="9.6519941"><ele>20.333333333333336</ele><time>2026-04-06T13:43:28.011Z</time></trkpt><trkpt lat="39.925767" lon="9.6521269"><ele>20.0</ele><time>2026-04-06T13:43:30.012Z</time></trkpt><trkpt lat="39.9257752" lon="9.6522471"><ele>19.8</ele><time>2026-04-06T13:43:33.012Z</time></trkpt><trkpt lat="39.9257709" lon="9.6523644"><ele>19.6</ele><time>2026-04-06T13:43:35.012Z</time></trkpt><trkpt lat="39.9258247" lon="9.6524613"><ele>19.4</ele><time>2026-04-06T13:43:37.012Z</time></trkpt><trkpt lat="39.9259209" lon="9.6524067"><ele>19.2</ele><time>2026-04-06T13:43:39.012Z</time></trkpt><trkpt lat="39.9259877" lon="9.6523416"><ele>19.0</ele><time>2026-04-06T13:43:40.012Z</time></trkpt><trkpt lat="39.9260841" lon="9.6522831"><ele>18.75</ele><time>2026-04-06T13:43:41.011Z</time></trkpt><trkpt lat="39.9262014" lon="9.6522255"><ele>18.5</ele><time>2026-04-06T13:43:42.012Z</time></trkpt><trkpt lat="39.9263042" lon="9.652174"><ele>18.25</ele><time>2026-04-06T13:43:43.012Z</time></trkpt><trkpt lat="39.9264126" lon="9.6521402"><ele>18.0</ele><time>2026-04-06T13:43:44.011Z</time></trkpt><trkpt lat="39.9265226" lon="9.6521268"><ele>18.0</ele><time>2026-04-06T13:43:45.012Z</time></trkpt><trkpt lat="39.9266276" lon="9.6521315"><ele>18.0</ele><time>2026-04-06T13:43:46.012Z</time></trkpt><trkpt lat="39.9267091" lon="9.6521358"><ele>18.0</ele><time>2026-04-06T13:43:47.012Z</time></trkpt><trkpt lat="39.9267886" lon="9.652154"><ele>18.0</ele><time>2026-04-06T13:43:48.011Z</time></trkpt><trkpt lat="39.9268571" lon="9.6521734"><ele>18.0</ele><time>2026-04-06T13:43:49.012Z</time></trkpt><trkpt lat="39.9269304" lon="9.6521949"><ele>18.0</ele><time>2026-04-06T13:43:50.012Z</time></trkpt><trkpt lat="39.927009" lon="9.6522181"><ele>18.2</ele><time>2026-04-06T13:43:51.012Z</time></trkpt><trkpt lat="39.9270807" lon="9.6522426"><ele>18.4</ele><time>2026-04-06T13:43:52.012Z</time></trkpt><trkpt lat="39.9271924" lon="9.6522799"><ele>18.599999999999998</ele><time>2026-04-06T13:43:54.012Z</time></trkpt><trkpt lat="39.9273183" lon="9.6523218"><ele>18.8</ele><time>2026-04-06T13:43:56.012Z</time></trkpt><trkpt lat="39.9273976" lon="9.6523505"><ele>19.0</ele><time>2026-04-06T13:43:57.012Z</time></trkpt><trkpt lat="39.9274742" lon="9.6523881"><ele>19.0</ele><time>2026-04-06T13:43:58.011Z</time></trkpt><trkpt lat="39.9275514" lon="9.6524254"><ele>19.0</ele><time>2026-04-06T13:43:59.012Z</time></trkpt><trkpt lat="39.9276198" lon="9.6524514"><ele>19.0</ele><time>2026-04-06T13:44:00.012Z</time></trkpt><trkpt lat="39.9277334" lon="9.6524895"><ele>19.0</ele><time>2026-04-06T13:44:02.011Z</time></trkpt><trkpt lat="39.9278433" lon="9.6524814"><ele>19.0</ele><time>2026-04-06T13:44:04.012Z</time></trkpt><trkpt lat="39.9279015" lon="9.6524374"><ele>19.0</ele><time>2026-04-06T13:44:05.012Z</time></trkpt><trkpt lat="39.9279544" lon="9.6523608"><ele>19.2</ele><time>2026-04-06T13:44:06.012Z</time></trkpt><trkpt lat="39.9280034" lon="9.6522692"><ele>19.4</ele><time>2026-04-06T13:44:07.012Z</time></trkpt><trkpt lat="39.9280578" lon="9.6521579"><ele>19.6</ele><time>2026-04-06T13:44:08.011Z</time></trkpt><trkpt lat="39.9281094" lon="9.6520335"><ele>19.8</ele><time>2026-04-06T13:44:09.012Z</time></trkpt><trkpt lat="39.928161" lon="9.6519045"><ele>20.0</ele><time>2026-04-06T13:44:10.012Z</time></trkpt><trkpt lat="39.928219" lon="9.6517656"><ele>20.0</ele><time>2026-04-06T13:44:11.011Z</time></trkpt><trkpt lat="39.9282856" lon="9.6516219"><ele>20.0</ele><time>2026-04-06T13:44:12.012Z</time></trkpt><trkpt lat="39.9283464" lon="9.6514896"><ele>20.0</ele><time>2026-04-06T13:44:13.011Z</time></trkpt><trkpt lat="39.928413" lon="9.6513555"><ele>20.0</ele><time>2026-04-06T13:44:14.012Z</time></trkpt><trkpt lat="39.9284805" lon="9.6512212"><ele>20.4</ele><time>2026-04-06T13:44:15.012Z</time></trkpt><trkpt lat="39.9285447" lon="9.6511009"><ele>20.8</ele><time>2026-04-06T13:44:16.012Z</time></trkpt><trkpt lat="39.9286049" lon="9.6509902"><ele>21.200000000000003</ele><time>2026-04-06T13:44:17.012Z</time></trkpt><trkpt lat="39.9286613" lon="9.650881"><ele>21.6</ele><time>2026-04-06T13:44:18.012Z</time></trkpt><trkpt lat="39.9287243" lon="9.6507656"><ele>22.0</ele><time>2026-04-06T13:44:19.011Z</time></trkpt><trkpt lat="39.9287902" lon="9.6506498"><ele>22.0</ele><time>2026-04-06T13:44:20.012Z</time></trkpt><trkpt lat="39.9288542" lon="9.6505371"><ele>22.0</ele><time>2026-04-06T13:44:21.012Z</time></trkpt><trkpt lat="39.9289214" lon="9.6504249"><ele>22.0</ele><time>2026-04-06T13:44:22.012Z</time></trkpt><trkpt lat="39.9289925" lon="9.650313"><ele>22.0</ele><time>2026-04-06T13:44:23.011Z</time></trkpt><trkpt lat="39.929066" lon="9.6502058"><ele>22.0</ele><time>2026-04-06T13:44:24.011Z</time></trkpt><trkpt lat="39.9291346" lon="9.650097"><ele>22.25</ele><time>2026-04-06T13:44:25.011Z</time></trkpt><trkpt lat="39.9292107" lon="9.6499951"><ele>22.5</ele><time>2026-04-06T13:44:26.012Z</time></trkpt><trkpt lat="39.9292865" lon="9.6498901"><ele>22.75</ele><time>2026-04-06T13:44:27.011Z</time></trkpt><trkpt lat="39.9293659" lon="9.6497842"><ele>23.0</ele><time>2026-04-06T13:44:28.012Z</time></trkpt><trkpt lat="39.9294436" lon="9.649666"><ele>23.0</ele><time>2026-04-06T13:44:29.012Z</time></trkpt><trkpt lat="39.9295116" lon="9.6495449"><ele>23.0</ele><time>2026-04-06T13:44:30.012Z</time></trkpt><trkpt lat="39.9295765" lon="9.6494036"><ele>23.0</ele><time>2026-04-06T13:44:31.012Z</time></trkpt><trkpt lat="39.9296385" lon="9.6492448"><ele>23.0</ele><time>2026-04-06T13:44:32.012Z</time></trkpt><trkpt lat="39.9296983" lon="9.6490773"><ele>23.75</ele><time>2026-04-06T13:44:33.012Z</time></trkpt><trkpt lat="39.9297551" lon="9.6489024"><ele>24.5</ele><time>2026-04-06T13:44:34.011Z</time></trkpt><trkpt lat="39.9298156" lon="9.6487331"><ele>25.25</ele><time>2026-04-06T13:44:35.012Z</time></trkpt><trkpt lat="39.9298743" lon="9.648569"><ele>26.0</ele><time>2026-04-06T13:44:36.012Z</time></trkpt><trkpt lat="39.9299244" lon="9.6484106"><ele>26.0</ele><time>2026-04-06T13:44:37.012Z</time></trkpt><trkpt lat="39.9299767" lon="9.6482511"><ele>26.0</ele><time>2026-04-06T13:44:38.012Z</time></trkpt><trkpt lat="39.9300261" lon="9.6480912"><ele>26.0</ele><time>2026-04-06T13:44:39.012Z</time></trkpt><trkpt lat="39.9300771" lon="9.6479333"><ele>26.0</ele><time>2026-04-06T13:44:40.012Z</time></trkpt><trkpt lat="39.9301275" lon="9.6477782"><ele>26.5</ele><time>2026-04-06T13:44:41.012Z</time></trkpt><trkpt lat="39.9301711" lon="9.647634"><ele>27.0</ele><time>2026-04-06T13:44:42.011Z</time></trkpt><trkpt lat="39.9302147" lon="9.647493"><ele>27.5</ele><time>2026-04-06T13:44:43.012Z</time></trkpt><trkpt lat="39.9302606" lon="9.6473559"><ele>28.0</ele><time>2026-04-06T13:44:44.012Z</time></trkpt><trkpt lat="39.9303069" lon="9.6472158"><ele>28.0</ele><time>2026-04-06T13:44:45.012Z</time></trkpt><trkpt lat="39.9303493" lon="9.6470766"><ele>28.0</ele><time>2026-04-06T13:44:46.011Z</time></trkpt><trkpt lat="39.9303922" lon="9.6469359"><ele>28.0</ele><time>2026-04-06T13:44:47.012Z</time></trkpt><trkpt lat="39.930435" lon="9.6468012"><ele>28.0</ele><time>2026-04-06T13:44:48.011Z</time></trkpt><trkpt lat="39.9304692" lon="9.6466642"><ele>28.4</ele><time>2026-04-06T13:44:49.012Z</time></trkpt><trkpt lat="39.930501" lon="9.6465439"><ele>28.799999999999997</ele><time>2026-04-06T13:44:50.012Z</time></trkpt><trkpt lat="39.9305209" lon="9.6464284"><ele>29.2</ele><time>2026-04-06T13:44:51.011Z</time></trkpt><trkpt lat="39.9305373" lon="9.6463099"><ele>29.6</ele><time>2026-04-06T13:44:52.012Z</time></trkpt><trkpt lat="39.9305569" lon="9.6461874"><ele>30.0</ele><time>2026-04-06T13:44:53.012Z</time></trkpt><trkpt lat="39.9305818" lon="9.6460572"><ele>30.4</ele><time>2026-04-06T13:44:54.012Z</time></trkpt><trkpt lat="39.9306116" lon="9.6459301"><ele>30.8</ele><time>2026-04-06T13:44:55.011Z</time></trkpt><trkpt lat="39.9306425" lon="9.6458185"><ele>31.200000000000003</ele><time>2026-04-06T13:44:56.012Z</time></trkpt><trkpt lat="39.9306747" lon="9.6457036"><ele>31.6</ele><time>2026-04-06T13:44:57.012Z</time></trkpt><trkpt lat="39.9307049" lon="9.6455946"><ele>32.0</ele><time>2026-04-06T13:44:58.012Z</time></trkpt><trkpt lat="39.9307361" lon="9.6454792"><ele>31.999999999999996</ele><time>2026-04-06T13:44:59.012Z</time></trkpt><trkpt lat="39.9307694" lon="9.6453632"><ele>32.0</ele><time>2026-04-06T13:45:00.012Z</time></trkpt><trkpt lat="39.9307971" lon="9.6452628"><ele>32.0</ele><time>2026-04-06T13:45:01.011Z</time></trkpt><trkpt lat="39.9308217" lon="9.6451658"><ele>32.0</ele><time>2026-04-06T13:45:02.011Z</time></trkpt><trkpt lat="39.9308439" lon="9.6450609"><ele>31.999999999999996</ele><time>2026-04-06T13:45:03.012Z</time></trkpt><trkpt lat="39.930866" lon="9.6449593"><ele>32.0</ele><time>2026-04-06T13:45:04.012Z</time></trkpt><trkpt lat="39.9308895" lon="9.6448394"><ele>32.6</ele><time>2026-04-06T13:45:05.012Z</time></trkpt><trkpt lat="39.9309173" lon="9.6447062"><ele>33.2</ele><time>2026-04-06T13:45:06.011Z</time></trkpt><trkpt lat="39.9309494" lon="9.6445617"><ele>33.8</ele><time>2026-04-06T13:45:07.012Z</time></trkpt><trkpt lat="39.9309793" lon="9.6444272"><ele>34.4</ele><time>2026-04-06T13:45:08.012Z</time></trkpt><trkpt lat="39.9310074" lon="9.6442983"><ele>35.0</ele><time>2026-04-06T13:45:09.012Z</time></trkpt><trkpt lat="39.9310356" lon="9.6441653"><ele>35.0</ele><time>2026-04-06T13:45:10.012Z</time></trkpt><trkpt lat="39.9310574" lon="9.6440355"><ele>35.0</ele><time>2026-04-06T13:45:11.012Z</time></trkpt><trkpt lat="39.9310772" lon="9.6439188"><ele>35.0</ele><time>2026-04-06T13:45:12.012Z</time></trkpt><trkpt lat="39.9310919" lon="9.6438167"><ele>35.0</ele><time>2026-04-06T13:45:13.012Z</time></trkpt><trkpt lat="39.9311154" lon="9.6437312"><ele>35.0</ele><time>2026-04-06T13:45:14.011Z</time></trkpt><trkpt lat="39.9311547" lon="9.6436641"><ele>35.0</ele><time>2026-04-06T13:45:15.012Z</time></trkpt><trkpt lat="39.9312689" lon="9.6436024"><ele>35.33333333333333</ele><time>2026-04-06T13:45:17.012Z</time></trkpt><trkpt lat="39.9313518" lon="9.6436069"><ele>35.666666666666664</ele><time>2026-04-06T13:45:18.012Z</time></trkpt><trkpt lat="39.9314379" lon="9.6436221"><ele>36.0</ele><time>2026-04-06T13:45:19.012Z</time></trkpt><trkpt lat="39.9315237" lon="9.6436283"><ele>36.333333333333336</ele><time>2026-04-06T13:45:20.011Z</time></trkpt><trkpt lat="39.9316095" lon="9.6436207"><ele>36.66666666666667</ele><time>2026-04-06T13:45:21.012Z</time></trkpt><trkpt lat="39.9316919" lon="9.6435871"><ele>37.0</ele><time>2026-04-06T13:45:22.012Z</time></trkpt><trkpt lat="39.9317696" lon="9.6435273"><ele>36.0</ele><time>2026-04-06T13:45:23.011Z</time></trkpt><trkpt lat="39.9318488" lon="9.6434571"><ele>35.0</ele><time>2026-04-06T13:45:24.012Z</time></trkpt><trkpt lat="39.9319228" lon="9.6433763"><ele>34.0</ele><time>2026-04-06T13:45:25.012Z</time></trkpt><trkpt lat="39.9320065" lon="9.6432871"><ele>33.0</ele><time>2026-04-06T13:45:26.012Z</time></trkpt><trkpt lat="39.9320953" lon="9.6431814"><ele>32.0</ele><time>2026-04-06T13:45:27.012Z</time></trkpt><trkpt lat="39.932194" lon="9.6430553"><ele>32.0</ele><time>2026-04-06T13:45:28.011Z</time></trkpt><trkpt lat="39.9323032" lon="9.642919"><ele>32.0</ele><time>2026-04-06T13:45:29.012Z</time></trkpt><trkpt lat="39.9324178" lon="9.642771"><ele>32.0</ele><time>2026-04-06T13:45:30.012Z</time></trkpt><trkpt lat="39.9325403" lon="9.6426135"><ele>33.666666666666664</ele><time>2026-04-06T13:45:31.012Z</time></trkpt><trkpt lat="39.9326698" lon="9.6424526"><ele>35.333333333333336</ele><time>2026-04-06T13:45:32.012Z</time></trkpt><trkpt lat="39.932806" lon="9.6422892"><ele>37.0</ele><time>2026-04-06T13:45:33.012Z</time></trkpt><trkpt lat="39.9329326" lon="9.6421375"><ele>37.0</ele><time>2026-04-06T13:45:34.012Z</time></trkpt><trkpt lat="39.933053" lon="9.6419902"><ele>37.0</ele><time>2026-04-06T13:45:35.012Z</time></trkpt><trkpt lat="39.933161" lon="9.6418565"><ele>37.0</ele><time>2026-04-06T13:45:36.012Z</time></trkpt><trkpt lat="39.9332601" lon="9.6417364"><ele>37.0</ele><time>2026-04-06T13:45:37.012Z</time></trkpt><trkpt lat="39.9333526" lon="9.641633"><ele>37.8</ele><time>2026-04-06T13:45:38.012Z</time></trkpt><trkpt lat="39.9334266" lon="9.6415436"><ele>38.6</ele><time>2026-04-06T13:45:39.012Z</time></trkpt><trkpt lat="39.9334882" lon="9.6414674"><ele>39.4</ele><time>2026-04-06T13:45:40.011Z</time></trkpt><trkpt lat="39.9335688" lon="9.6413832"><ele>40.199999999999996</ele><time>2026-04-06T13:45:42.012Z</time></trkpt><trkpt lat="39.9336845" lon="9.6414162"><ele>41.0</ele><time>2026-04-06T13:45:44.012Z</time></trkpt><trkpt lat="39.9337621" lon="9.6414952"><ele>41.0</ele><time>2026-04-06T13:45:45.012Z</time></trkpt><trkpt lat="39.933845" lon="9.641577"><ele>41.0</ele><time>2026-04-06T13:45:46.012Z</time></trkpt><trkpt lat="39.9339348" lon="9.6416667"><ele>41.0</ele><time>2026-04-06T13:45:47.012Z</time></trkpt><trkpt lat="39.9340198" lon="9.6417673"><ele>41.0</ele><time>2026-04-06T13:45:48.011Z</time></trkpt><trkpt lat="39.9341091" lon="9.6418692"><ele>40.0</ele><time>2026-04-06T13:45:49.011Z</time></trkpt><trkpt lat="39.9341986" lon="9.6419729"><ele>39.0</ele><time>2026-04-06T13:45:50.012Z</time></trkpt><trkpt lat="39.9342902" lon="9.6420898"><ele>38.0</ele><time>2026-04-06T13:45:51.012Z</time></trkpt><trkpt lat="39.9343831" lon="9.6422122"><ele>37.0</ele><time>2026-04-06T13:45:52.012Z</time></trkpt><trkpt lat="39.9344713" lon="9.642338"><ele>37.0</ele><time>2026-04-06T13:45:53.012Z</time></trkpt><trkpt lat="39.9345594" lon="9.6424726"><ele>37.0</ele><time>2026-04-06T13:45:54.012Z</time></trkpt><trkpt lat="39.9346434" lon="9.6426041"><ele>37.0</ele><time>2026-04-06T13:45:55.011Z</time></trkpt><trkpt lat="39.9347252" lon="9.6427329"><ele>37.0</ele><time>2026-04-06T13:45:56.011Z</time></trkpt><trkpt lat="39.9347989" lon="9.6428738"><ele>36.5</ele><time>2026-04-06T13:45:57.012Z</time></trkpt><trkpt lat="39.934871" lon="9.6430148"><ele>36.0</ele><time>2026-04-06T13:45:58.012Z</time></trkpt><trkpt lat="39.9349319" lon="9.6431551"><ele>35.5</ele><time>2026-04-06T13:45:59.011Z</time></trkpt><trkpt lat="39.9349854" lon="9.6432907"><ele>35.0</ele><time>2026-04-06T13:46:00.012Z</time></trkpt><trkpt lat="39.9350338" lon="9.6434195"><ele>34.83333333333333</ele><time>2026-04-06T13:46:01.012Z</time></trkpt><trkpt lat="39.9350718" lon="9.643545"><ele>34.666666666666664</ele><time>2026-04-06T13:46:02.012Z</time></trkpt><trkpt lat="39.935113" lon="9.6436586"><ele>34.5</ele><time>2026-04-06T13:46:03.012Z</time></trkpt><trkpt lat="39.9351504" lon="9.6437604"><ele>34.333333333333336</ele><time>2026-04-06T13:46:04.012Z</time></trkpt><trkpt lat="39.9351825" lon="9.6438548"><ele>34.16666666666667</ele><time>2026-04-06T13:46:05.011Z</time></trkpt><trkpt lat="39.9352079" lon="9.6439442"><ele>34.0</ele><time>2026-04-06T13:46:06.012Z</time></trkpt><trkpt lat="39.9352342" lon="9.6440268"><ele>33.8</ele><time>2026-04-06T13:46:07.011Z</time></trkpt><trkpt lat="39.9352756" lon="9.644178"><ele>33.599999999999994</ele><time>2026-04-06T13:46:09.012Z</time></trkpt><trkpt lat="39.9353049" lon="9.644264"><ele>33.4</ele><time>2026-04-06T13:46:11.011Z</time></trkpt><trkpt lat="39.9353243" lon="9.6443543"><ele>33.199999999999996</ele><time>2026-04-06T13:46:13.011Z</time></trkpt><trkpt lat="39.9353394" lon="9.6445353"><ele>33.0</ele><time>2026-04-06T13:46:15.012Z</time></trkpt><trkpt lat="39.9353228" lon="9.6446546"><ele>32.6</ele><time>2026-04-06T13:46:16.011Z</time></trkpt><trkpt lat="39.935301" lon="9.6447816"><ele>32.199999999999996</ele><time>2026-04-06T13:46:17.012Z</time></trkpt><trkpt lat="39.9352767" lon="9.6449046"><ele>31.8</ele><time>2026-04-06T13:46:18.012Z</time></trkpt><trkpt lat="39.9352531" lon="9.6450177"><ele>31.4</ele><time>2026-04-06T13:46:19.012Z</time></trkpt><trkpt lat="39.9352339" lon="9.6451301"><ele>31.0</ele><time>2026-04-06T13:46:20.011Z</time></trkpt><trkpt lat="39.9352087" lon="9.645236"><ele>31.000000000000004</ele><time>2026-04-06T13:46:21.012Z</time></trkpt><trkpt lat="39.9351848" lon="9.6453376"><ele>31.0</ele><time>2026-04-06T13:46:22.012Z</time></trkpt><trkpt lat="39.9351627" lon="9.6454272"><ele>31.0</ele><time>2026-04-06T13:46:23.012Z</time></trkpt><trkpt lat="39.9351456" lon="9.6455098"><ele>31.0</ele><time>2026-04-06T13:46:24.011Z</time></trkpt><trkpt lat="39.9351126" lon="9.6456509"><ele>31.000000000000004</ele><time>2026-04-06T13:46:26.012Z</time></trkpt><trkpt lat="39.9350831" lon="9.6457835"><ele>31.0</ele><time>2026-04-06T13:46:28.012Z</time></trkpt><trkpt lat="39.9350653" lon="9.64589"><ele>30.857142857142858</ele><time>2026-04-06T13:46:31.012Z</time></trkpt><trkpt lat="39.9350491" lon="9.6459853"><ele>30.714285714285715</ele><time>2026-04-06T13:46:34.011Z</time></trkpt><trkpt lat="39.9350213" lon="9.6460972"><ele>30.571428571428573</ele><time>2026-04-06T13:46:37.011Z</time></trkpt><trkpt lat="39.9350003" lon="9.6461769"><ele>30.42857142857143</ele><time>2026-04-06T13:46:39.011Z</time></trkpt><trkpt lat="39.9349736" lon="9.6462718"><ele>30.285714285714285</ele><time>2026-04-06T13:46:42.012Z</time></trkpt><trkpt lat="39.934966" lon="9.6463537"><ele>30.142857142857146</ele><time>2026-04-06T13:56:56.012Z</time></trkpt><trkpt lat="39.9349898" lon="9.6464336"><ele>30.0</ele><time>2026-04-06T13:56:59.011Z</time></trkpt><trkpt lat="39.9350984" lon="9.6464694"><ele>30.0</ele><time>2026-04-06T13:57:02.012Z</time></trkpt><trkpt lat="39.9352152" lon="9.6464334"><ele>30.0</ele><time>2026-04-06T13:57:04.012Z</time></trkpt><trkpt lat="39.935286" lon="9.6463971"><ele>30.0</ele><time>2026-04-06T13:57:05.011Z</time></trkpt><trkpt lat="39.935371" lon="9.6463637"><ele>30.0</ele><time>2026-04-06T13:57:06.011Z</time></trkpt><trkpt lat="39.9354543" lon="9.6463274"><ele>30.0</ele><time>2026-04-06T13:57:07.012Z</time></trkpt><trkpt lat="39.9355404" lon="9.6462931"><ele>30.0</ele><time>2026-04-06T13:57:08.012Z</time></trkpt><trkpt lat="39.9356273" lon="9.6462555"><ele>30.0</ele><time>2026-04-06T13:57:09.012Z</time></trkpt><trkpt lat="39.9357124" lon="9.6462175"><ele>30.0</ele><time>2026-04-06T13:57:10.012Z</time></trkpt><trkpt lat="39.9358018" lon="9.646183"><ele>30.0</ele><time>2026-04-06T13:57:11.011Z</time></trkpt><trkpt lat="39.9358954" lon="9.6461407"><ele>30.0</ele><time>2026-04-06T13:57:12.012Z</time></trkpt><trkpt lat="39.9359904" lon="9.6460999"><ele>29.5</ele><time>2026-04-06T13:57:13.012Z</time></trkpt><trkpt lat="39.9360958" lon="9.6460598"><ele>29.0</ele><time>2026-04-06T13:57:14.012Z</time></trkpt><trkpt lat="39.9362071" lon="9.6460132"><ele>28.5</ele><time>2026-04-06T13:57:15.012Z</time></trkpt><trkpt lat="39.936316" lon="9.6459669"><ele>28.0</ele><time>2026-04-06T13:57:16.011Z</time></trkpt><trkpt lat="39.9364284" lon="9.6459203"><ele>28.0</ele><time>2026-04-06T13:57:17.012Z</time></trkpt><trkpt lat="39.9365481" lon="9.6458735"><ele>28.0</ele><time>2026-04-06T13:57:18.011Z</time></trkpt><trkpt lat="39.9366625" lon="9.6458234"><ele>28.0</ele><time>2026-04-06T13:57:19.011Z</time></trkpt><trkpt lat="39.9367743" lon="9.6457793"><ele>28.0</ele><time>2026-04-06T13:57:20.012Z</time></trkpt><trkpt lat="39.9368824" lon="9.6457318"><ele>27.799999999999997</ele><time>2026-04-06T13:57:21.012Z</time></trkpt><trkpt lat="39.9369861" lon="9.6456847"><ele>27.599999999999998</ele><time>2026-04-06T13:57:22.012Z</time></trkpt><trkpt lat="39.9370918" lon="9.6456436"><ele>27.400000000000002</ele><time>2026-04-06T13:57:23.012Z</time></trkpt><trkpt lat="39.9371961" lon="9.6456019"><ele>27.200000000000003</ele><time>2026-04-06T13:57:24.012Z</time></trkpt><trkpt lat="39.9373" lon="9.6455632"><ele>27.0</ele><time>2026-04-06T13:57:25.012Z</time></trkpt><trkpt lat="39.9374011" lon="9.6455227"><ele>27.0</ele><time>2026-04-06T13:57:26.011Z</time></trkpt><trkpt lat="39.9375008" lon="9.6454787"><ele>27.000000000000004</ele><time>2026-04-06T13:57:27.012Z</time></trkpt><trkpt lat="39.9376019" lon="9.6454342"><ele>27.000000000000004</ele><time>2026-04-06T13:57:28.011Z</time></trkpt><trkpt lat="39.9377022" lon="9.6453882"><ele>27.0</ele><time>2026-04-06T13:57:29.012Z</time></trkpt><trkpt lat="39.9378049" lon="9.6453429"><ele>27.0</ele><time>2026-04-06T13:57:30.012Z</time></trkpt><trkpt lat="39.9379082" lon="9.6452955"><ele>27.25</ele><time>2026-04-06T13:57:31.012Z</time></trkpt><trkpt lat="39.9380128" lon="9.6452521"><ele>27.5</ele><time>2026-04-06T13:57:32.012Z</time></trkpt><trkpt lat="39.9381204" lon="9.645212"><ele>27.75</ele><time>2026-04-06T13:57:33.011Z</time></trkpt><trkpt lat="39.9382311" lon="9.645174"><ele>28.0</ele><time>2026-04-06T13:57:34.012Z</time></trkpt><trkpt lat="39.9383418" lon="9.6451372"><ele>28.4</ele><time>2026-04-06T13:57:35.011Z</time></trkpt><trkpt lat="39.9384534" lon="9.6451079"><ele>28.799999999999997</ele><time>2026-04-06T13:57:36.012Z</time></trkpt><trkpt lat="39.9385586" lon="9.6450801"><ele>29.2</ele><time>2026-04-06T13:57:37.012Z</time></trkpt><trkpt lat="39.9386654" lon="9.6450594"><ele>29.6</ele><time>2026-04-06T13:57:38.011Z</time></trkpt><trkpt lat="39.9387734" lon="9.6450486"><ele>30.0</ele><time>2026-04-06T13:57:39.011Z</time></trkpt><trkpt lat="39.93888" lon="9.6450471"><ele>30.0</ele><time>2026-04-06T13:57:40.012Z</time></trkpt><trkpt lat="39.9389972" lon="9.6450499"><ele>30.0</ele><time>2026-04-06T13:57:41.012Z</time></trkpt><trkpt lat="39.9391103" lon="9.6450564"><ele>30.0</ele><time>2026-04-06T13:57:42.012Z</time></trkpt><trkpt lat="39.9392268" lon="9.6450659"><ele>30.0</ele><time>2026-04-06T13:57:43.012Z</time></trkpt><trkpt lat="39.9393502" lon="9.6450679"><ele>30.5</ele><time>2026-04-06T13:57:44.012Z</time></trkpt><trkpt lat="39.9394698" lon="9.6450731"><ele>31.0</ele><time>2026-04-06T13:57:45.011Z</time></trkpt><trkpt lat="39.9395948" lon="9.6450781"><ele>31.5</ele><time>2026-04-06T13:57:46.011Z</time></trkpt><trkpt lat="39.9397208" lon="9.645082"><ele>32.0</ele><time>2026-04-06T13:57:47.012Z</time></trkpt><trkpt lat="39.939851" lon="9.6450852"><ele>32.0</ele><time>2026-04-06T13:57:48.012Z</time></trkpt><trkpt lat="39.9399841" lon="9.645088"><ele>32.0</ele><time>2026-04-06T13:57:49.011Z</time></trkpt><trkpt lat="39.9401255" lon="9.6450904"><ele>32.0</ele><time>2026-04-06T13:57:50.012Z</time></trkpt><trkpt lat="39.9402657" lon="9.6450931"><ele>32.0</ele><time>2026-04-06T13:57:51.011Z</time></trkpt><trkpt lat="39.9403997" lon="9.6450953"><ele>32.25</ele><time>2026-04-06T13:57:52.011Z</time></trkpt><trkpt lat="39.9405331" lon="9.6450965"><ele>32.5</ele><time>2026-04-06T13:57:53.012Z</time></trkpt><trkpt lat="39.9406514" lon="9.6450996"><ele>32.75</ele><time>2026-04-06T13:57:54.011Z</time></trkpt><trkpt lat="39.9407662" lon="9.6451013"><ele>33.0</ele><time>2026-04-06T13:57:55.012Z</time></trkpt><trkpt lat="39.940868" lon="9.6451035"><ele>32.666666666666664</ele><time>2026-04-06T13:57:56.012Z</time></trkpt><trkpt lat="39.9409623" lon="9.645105"><ele>32.333333333333336</ele><time>2026-04-06T13:57:57.012Z</time></trkpt><trkpt lat="39.941049" lon="9.6451087"><ele>32.0</ele><time>2026-04-06T13:57:58.012Z</time></trkpt><trkpt lat="39.9411302" lon="9.6451146"><ele>31.666666666666668</ele><time>2026-04-06T13:57:59.012Z</time></trkpt><trkpt lat="39.9412097" lon="9.6451153"><ele>31.333333333333336</ele><time>2026-04-06T13:58:00.011Z</time></trkpt><trkpt lat="39.9412964" lon="9.6451125"><ele>31.0</ele><time>2026-04-06T13:58:01.011Z</time></trkpt><trkpt lat="39.9413906" lon="9.6451151"><ele>31.0</ele><time>2026-04-06T13:58:02.012Z</time></trkpt><trkpt lat="39.9414917" lon="9.645117"><ele>31.0</ele><time>2026-04-06T13:58:03.011Z</time></trkpt><trkpt lat="39.9415995" lon="9.6451193"><ele>31.0</ele><time>2026-04-06T13:58:04.012Z</time></trkpt><trkpt lat="39.9417121" lon="9.645122"><ele>31.0</ele><time>2026-04-06T13:58:05.012Z</time></trkpt><trkpt lat="39.9418334" lon="9.6451263"><ele>31.0</ele><time>2026-04-06T13:58:06.012Z</time></trkpt><trkpt lat="39.9419586" lon="9.6451348"><ele>30.75</ele><time>2026-04-06T13:58:07.012Z</time></trkpt><trkpt lat="39.942092" lon="9.6451392"><ele>30.5</ele><time>2026-04-06T13:58:08.012Z</time></trkpt><trkpt lat="39.9422331" lon="9.6451398"><ele>30.25</ele><time>2026-04-06T13:58:09.011Z</time></trkpt><trkpt lat="39.9423781" lon="9.6451415"><ele>30.0</ele><time>2026-04-06T13:58:10.012Z</time></trkpt><trkpt lat="39.9425222" lon="9.6451444"><ele>29.666666666666664</ele><time>2026-04-06T13:58:11.012Z</time></trkpt><trkpt lat="39.94267" lon="9.6451526"><ele>29.333333333333332</ele><time>2026-04-06T13:58:12.011Z</time></trkpt><trkpt lat="39.9428208" lon="9.6451624"><ele>29.0</ele><time>2026-04-06T13:58:13.012Z</time></trkpt><trkpt lat="39.9429724" lon="9.6451844"><ele>29.0</ele><time>2026-04-06T13:58:14.012Z</time></trkpt><trkpt lat="39.943126" lon="9.6452147"><ele>29.0</ele><time>2026-04-06T13:58:15.012Z</time></trkpt><trkpt lat="39.9432819" lon="9.6452478"><ele>29.0</ele><time>2026-04-06T13:58:16.012Z</time></trkpt><trkpt lat="39.9434451" lon="9.6452805"><ele>28.0</ele><time>2026-04-06T13:58:17.011Z</time></trkpt><trkpt lat="39.9436123" lon="9.6453156"><ele>27.0</ele><time>2026-04-06T13:58:18.012Z</time></trkpt><trkpt lat="39.9437794" lon="9.6453559"><ele>26.0</ele><time>2026-04-06T13:58:19.011Z</time></trkpt><trkpt lat="39.9439498" lon="9.6453941"><ele>26.0</ele><time>2026-04-06T13:58:20.012Z</time></trkpt><trkpt lat="39.9441214" lon="9.64543"><ele>26.0</ele><time>2026-04-06T13:58:21.012Z</time></trkpt><trkpt lat="39.9442964" lon="9.6454681"><ele>26.0</ele><time>2026-04-06T13:58:22.012Z</time></trkpt><trkpt lat="39.9444689" lon="9.6455043"><ele>24.666666666666664</ele><time>2026-04-06T13:58:23.012Z</time></trkpt><trkpt lat="39.9446278" lon="9.6455363"><ele>23.333333333333332</ele><time>2026-04-06T13:58:24.012Z</time></trkpt><trkpt lat="39.9447806" lon="9.6455661"><ele>22.0</ele><time>2026-04-06T13:58:25.012Z</time></trkpt><trkpt lat="39.9449262" lon="9.6455954"><ele>21.5</ele><time>2026-04-06T13:58:26.012Z</time></trkpt><trkpt lat="39.9450623" lon="9.6456246"><ele>21.0</ele><time>2026-04-06T13:58:27.012Z</time></trkpt><trkpt lat="39.9451895" lon="9.6456588"><ele>20.5</ele><time>2026-04-06T13:58:28.012Z</time></trkpt><trkpt lat="39.9453089" lon="9.6456959"><ele>20.0</ele><time>2026-04-06T13:58:29.009Z</time></trkpt><trkpt lat="39.945429" lon="9.6457519"><ele>20.0</ele><time>2026-04-06T13:58:30.011Z</time></trkpt><trkpt lat="39.945539" lon="9.6458362"><ele>20.0</ele><time>2026-04-06T13:58:31.012Z</time></trkpt><trkpt lat="39.9456416" lon="9.6459468"><ele>20.0</ele><time>2026-04-06T13:58:32.012Z</time></trkpt><trkpt lat="39.9457323" lon="9.6460723"><ele>20.0</ele><time>2026-04-06T13:58:33.012Z</time></trkpt><trkpt lat="39.945813" lon="9.6462149"><ele>19.75</ele><time>2026-04-06T13:58:34.012Z</time></trkpt><trkpt lat="39.9458962" lon="9.6463625"><ele>19.5</ele><time>2026-04-06T13:58:35.011Z</time></trkpt><trkpt lat="39.9459718" lon="9.6465175"><ele>19.25</ele><time>2026-04-06T13:58:36.012Z</time></trkpt><trkpt lat="39.9460525" lon="9.6466719"><ele>19.0</ele><time>2026-04-06T13:58:37.011Z</time></trkpt><trkpt lat="39.9461359" lon="9.6468236"><ele>19.25</ele><time>2026-04-06T13:58:38.012Z</time></trkpt><trkpt lat="39.9462188" lon="9.6469785"><ele>19.5</ele><time>2026-04-06T13:58:39.012Z</time></trkpt><trkpt lat="39.946302" lon="9.6471347"><ele>19.75</ele><time>2026-04-06T13:58:40.011Z</time></trkpt><trkpt lat="39.9463881" lon="9.6472878"><ele>20.0</ele><time>2026-04-06T13:58:41.012Z</time></trkpt><trkpt lat="39.9464829" lon="9.6474331"><ele>20.0</ele><time>2026-04-06T13:58:42.012Z</time></trkpt><trkpt lat="39.9465843" lon="9.6475709"><ele>20.0</ele><time>2026-04-06T13:58:43.012Z</time></trkpt><trkpt lat="39.9466936" lon="9.6476992"><ele>20.0</ele><time>2026-04-06T13:58:44.012Z</time></trkpt><trkpt lat="39.9468109" lon="9.6478128"><ele>20.0</ele><time>2026-04-06T13:58:45.012Z</time></trkpt><trkpt lat="39.9469229" lon="9.6479254"><ele>21.0</ele><time>2026-04-06T13:58:46.011Z</time></trkpt><trkpt lat="39.9470259" lon="9.6480338"><ele>22.0</ele><time>2026-04-06T13:58:47.012Z</time></trkpt><trkpt lat="39.9471218" lon="9.6481413"><ele>23.0</ele><time>2026-04-06T13:58:48.012Z</time></trkpt><trkpt lat="39.947213" lon="9.6482511"><ele>24.0</ele><time>2026-04-06T13:58:49.012Z</time></trkpt><trkpt lat="39.9472998" lon="9.6483728"><ele>24.0</ele><time>2026-04-06T13:58:50.012Z</time></trkpt><trkpt lat="39.9473822" lon="9.6484992"><ele>24.0</ele><time>2026-04-06T13:58:51.012Z</time></trkpt><trkpt lat="39.9474633" lon="9.6486271"><ele>24.0</ele><time>2026-04-06T13:58:52.011Z</time></trkpt><trkpt lat="39.9475469" lon="9.6487567"><ele>24.0</ele><time>2026-04-06T13:58:53.011Z</time></trkpt><trkpt lat="39.9476248" lon="9.6488878"><ele>23.25</ele><time>2026-04-06T13:58:54.011Z</time></trkpt><trkpt lat="39.9477014" lon="9.6490184"><ele>22.5</ele><time>2026-04-06T13:58:55.012Z</time></trkpt><trkpt lat="39.947784" lon="9.649144"><ele>21.75</ele><time>2026-04-06T13:58:56.012Z</time></trkpt><trkpt lat="39.9478714" lon="9.649271"><ele>21.0</ele><time>2026-04-06T13:58:57.012Z</time></trkpt><trkpt lat="39.9479604" lon="9.6493917"><ele>20.25</ele><time>2026-04-06T13:58:58.011Z</time></trkpt><trkpt lat="39.948059" lon="9.6495036"><ele>19.5</ele><time>2026-04-06T13:58:59.012Z</time></trkpt><trkpt lat="39.9481714" lon="9.6496057"><ele>18.75</ele><time>2026-04-06T13:59:00.012Z</time></trkpt><trkpt lat="39.9482826" lon="9.6496945"><ele>18.0</ele><time>2026-04-06T13:59:01.012Z</time></trkpt><trkpt lat="39.9483939" lon="9.6497786"><ele>18.0</ele><time>2026-04-06T13:59:02.011Z</time></trkpt><trkpt lat="39.9484962" lon="9.6498555"><ele>18.0</ele><time>2026-04-06T13:59:03.012Z</time></trkpt><trkpt lat="39.9485838" lon="9.6499302"><ele>18.0</ele><time>2026-04-06T13:59:04.012Z</time></trkpt><trkpt lat="39.9486597" lon="9.6500102"><ele>18.0</ele><time>2026-04-06T13:59:05.011Z</time></trkpt><trkpt lat="39.9487274" lon="9.6500938"><ele>18.0</ele><time>2026-04-06T13:59:06.012Z</time></trkpt><trkpt lat="39.948788" lon="9.65018"><ele>18.0</ele><time>2026-04-06T13:59:07.011Z</time></trkpt><trkpt lat="39.9488414" lon="9.6502663"><ele>18.0</ele><time>2026-04-06T13:59:08.011Z</time></trkpt><trkpt lat="39.9488865" lon="9.6503551"><ele>18.0</ele><time>2026-04-06T13:59:09.012Z</time></trkpt><trkpt lat="39.9489236" lon="9.6504469"><ele>18.0</ele><time>2026-04-06T13:59:10.012Z</time></trkpt><trkpt lat="39.9489567" lon="9.6505371"><ele>18.0</ele><time>2026-04-06T13:59:11.011Z</time></trkpt><trkpt lat="39.9489887" lon="9.6506273"><ele>18.0</ele><time>2026-04-06T13:59:12.011Z</time></trkpt><trkpt lat="39.9490224" lon="9.6507136"><ele>17.857142857142858</ele><time>2026-04-06T13:59:13.011Z</time></trkpt><trkpt lat="39.949053" lon="9.6507993"><ele>17.714285714285715</ele><time>2026-04-06T13:59:14.012Z</time></trkpt><trkpt lat="39.9490838" lon="9.6508833"><ele>17.57142857142857</ele><time>2026-04-06T13:59:15.012Z</time></trkpt><trkpt lat="39.9491133" lon="9.6509667"><ele>17.42857142857143</ele><time>2026-04-06T13:59:16.012Z</time></trkpt><trkpt lat="39.9491473" lon="9.6510454"><ele>17.285714285714285</ele><time>2026-04-06T13:59:17.012Z</time></trkpt><trkpt lat="39.9491807" lon="9.6511287"><ele>17.142857142857142</ele><time>2026-04-06T13:59:18.012Z</time></trkpt><trkpt lat="39.9492163" lon="9.6512212"><ele>17.0</ele><time>2026-04-06T13:59:19.012Z</time></trkpt><trkpt lat="39.9492525" lon="9.6513181"><ele>16.6</ele><time>2026-04-06T13:59:20.012Z</time></trkpt><trkpt lat="39.9492898" lon="9.6514212"><ele>16.2</ele><time>2026-04-06T13:59:21.012Z</time></trkpt><trkpt lat="39.9493302" lon="9.6515316"><ele>15.8</ele><time>2026-04-06T13:59:22.012Z</time></trkpt><trkpt lat="39.9493723" lon="9.6516445"><ele>15.4</ele><time>2026-04-06T13:59:23.012Z</time></trkpt><trkpt lat="39.9494201" lon="9.6517639"><ele>15.0</ele><time>2026-04-06T13:59:24.011Z</time></trkpt><trkpt lat="39.9494627" lon="9.6518848"><ele>15.0</ele><time>2026-04-06T13:59:25.011Z</time></trkpt><trkpt lat="39.9495045" lon="9.652013"><ele>15.0</ele><time>2026-04-06T13:59:26.012Z</time></trkpt><trkpt lat="39.9495478" lon="9.6521376"><ele>15.0</ele><time>2026-04-06T13:59:27.012Z</time></trkpt><trkpt lat="39.9495875" lon="9.6522662"><ele>15.0</ele><time>2026-04-06T13:59:28.012Z</time></trkpt><trkpt lat="39.9496318" lon="9.6523912"><ele>15.0</ele><time>2026-04-06T13:59:29.011Z</time></trkpt><trkpt lat="39.9496756" lon="9.6525161"><ele>15.0</ele><time>2026-04-06T13:59:30.012Z</time></trkpt><trkpt lat="39.9497223" lon="9.6526422"><ele>15.0</ele><time>2026-04-06T13:59:31.012Z</time></trkpt><trkpt lat="39.9497704" lon="9.6527664"><ele>15.0</ele><time>2026-04-06T13:59:32.012Z</time></trkpt><trkpt lat="39.949818" lon="9.6528917"><ele>15.0</ele><time>2026-04-06T13:59:33.012Z</time></trkpt><trkpt lat="39.9498664" lon="9.6530203"><ele>15.0</ele><time>2026-04-06T13:59:34.012Z</time></trkpt><trkpt lat="39.9499175" lon="9.6531481"><ele>15.0</ele><time>2026-04-06T13:59:35.011Z</time></trkpt><trkpt lat="39.9499707" lon="9.6532757"><ele>15.0</ele><time>2026-04-06T13:59:36.012Z</time></trkpt><trkpt lat="39.9500218" lon="9.6534153"><ele>15.0</ele><time>2026-04-06T13:59:37.012Z</time></trkpt><trkpt lat="39.9500731" lon="9.6535596"><ele>15.0</ele><time>2026-04-06T13:59:38.012Z</time></trkpt><trkpt lat="39.9501226" lon="9.6537084"><ele>14.75</ele><time>2026-04-06T13:59:39.012Z</time></trkpt><trkpt lat="39.9501724" lon="9.653858"><ele>14.5</ele><time>2026-04-06T13:59:40.011Z</time></trkpt><trkpt lat="39.9502102" lon="9.6540131"><ele>14.25</ele><time>2026-04-06T13:59:41.012Z</time></trkpt><trkpt lat="39.9502436" lon="9.6541717"><ele>14.0</ele><time>2026-04-06T13:59:42.012Z</time></trkpt><trkpt lat="39.9502718" lon="9.654332"><ele>14.5</ele><time>2026-04-06T13:59:43.012Z</time></trkpt><trkpt lat="39.9502908" lon="9.6544997"><ele>15.0</ele><time>2026-04-06T13:59:44.012Z</time></trkpt><trkpt lat="39.950308" lon="9.6546695"><ele>15.5</ele><time>2026-04-06T13:59:45.012Z</time></trkpt><trkpt lat="39.9503248" lon="9.6548413"><ele>16.0</ele><time>2026-04-06T13:59:46.012Z</time></trkpt><trkpt lat="39.9503396" lon="9.655012"><ele>16.0</ele><time>2026-04-06T13:59:47.012Z</time></trkpt><trkpt lat="39.9503564" lon="9.6551873"><ele>16.0</ele><time>2026-04-06T13:59:48.012Z</time></trkpt><trkpt lat="39.9503706" lon="9.6553651"><ele>16.0</ele><time>2026-04-06T13:59:49.012Z</time></trkpt><trkpt lat="39.9503893" lon="9.6555418"><ele>16.0</ele><time>2026-04-06T13:59:50.011Z</time></trkpt><trkpt lat="39.9504037" lon="9.6557238"><ele>15.5</ele><time>2026-04-06T13:59:51.012Z</time></trkpt><trkpt lat="39.9504217" lon="9.655905"><ele>15.0</ele><time>2026-04-06T13:59:52.012Z</time></trkpt><trkpt lat="39.9504316" lon="9.6560872"><ele>14.5</ele><time>2026-04-06T13:59:53.011Z</time></trkpt><trkpt lat="39.9504453" lon="9.6562663"><ele>14.0</ele><time>2026-04-06T13:59:54.011Z</time></trkpt><trkpt lat="39.9504737" lon="9.6564453"><ele>14.0</ele><time>2026-04-06T13:59:55.012Z</time></trkpt><trkpt lat="39.9505193" lon="9.6566106"><ele>14.0</ele><time>2026-04-06T13:59:56.011Z</time></trkpt><trkpt lat="39.9505816" lon="9.6567564"><ele>14.0</ele><time>2026-04-06T13:59:57.012Z</time></trkpt><trkpt lat="39.9506655" lon="9.6568859"><ele>14.0</ele><time>2026-04-06T13:59:58.012Z</time></trkpt><trkpt lat="39.9507591" lon="9.6570069"><ele>13.75</ele><time>2026-04-06T13:59:59.012Z</time></trkpt><trkpt lat="39.9508545" lon="9.6571248"><ele>13.5</ele><time>2026-04-06T14:00:00.012Z</time></trkpt><trkpt lat="39.9509422" lon="9.6572365"><ele>13.25</ele><time>2026-04-06T14:00:01.012Z</time></trkpt><trkpt lat="39.9510212" lon="9.6573453"><ele>13.0</ele><time>2026-04-06T14:00:02.011Z</time></trkpt><trkpt lat="39.9510969" lon="9.6574617"><ele>13.0</ele><time>2026-04-06T14:00:03.011Z</time></trkpt><trkpt lat="39.9511732" lon="9.6575874"><ele>13.0</ele><time>2026-04-06T14:00:04.012Z</time></trkpt><trkpt lat="39.9512447" lon="9.6577237"><ele>13.0</ele><time>2026-04-06T14:00:05.012Z</time></trkpt><trkpt lat="39.9513085" lon="9.6578719"><ele>13.0</ele><time>2026-04-06T14:00:06.012Z</time></trkpt><trkpt lat="39.9513696" lon="9.6580256"><ele>13.25</ele><time>2026-04-06T14:00:07.012Z</time></trkpt><trkpt lat="39.9514287" lon="9.6581821"><ele>13.5</ele><time>2026-04-06T14:00:08.011Z</time></trkpt><trkpt lat="39.9514817" lon="9.658343"><ele>13.75</ele><time>2026-04-06T14:00:09.012Z</time></trkpt><trkpt lat="39.9515333" lon="9.6585035"><ele>14.0</ele><time>2026-04-06T14:00:10.012Z</time></trkpt><trkpt lat="39.9515814" lon="9.6586665"><ele>13.5</ele><time>2026-04-06T14:00:11.012Z</time></trkpt><trkpt lat="39.9516276" lon="9.6588307"><ele>13.0</ele><time>2026-04-06T14:00:12.012Z</time></trkpt><trkpt lat="39.9516757" lon="9.6589924"><ele>12.5</ele><time>2026-04-06T14:00:13.012Z</time></trkpt><trkpt lat="39.9517261" lon="9.6591548"><ele>12.0</ele><time>2026-04-06T14:00:14.011Z</time></trkpt><trkpt lat="39.9517781" lon="9.6593186"><ele>11.5</ele><time>2026-04-06T14:00:15.012Z</time></trkpt><trkpt lat="39.9518233" lon="9.6594877"><ele>11.0</ele><time>2026-04-06T14:00:16.012Z</time></trkpt><trkpt lat="39.9518586" lon="9.6596588"><ele>10.5</ele><time>2026-04-06T14:00:17.011Z</time></trkpt><trkpt lat="39.9518839" lon="9.6598404"><ele>10.0</ele><time>2026-04-06T14:00:18.011Z</time></trkpt><trkpt lat="39.9519065" lon="9.6600226"><ele>10.0</ele><time>2026-04-06T14:00:19.011Z</time></trkpt><trkpt lat="39.9519323" lon="9.6601956"><ele>10.0</ele><time>2026-04-06T14:00:20.011Z</time></trkpt><trkpt lat="39.9519599" lon="9.6603583"><ele>10.0</ele><time>2026-04-06T14:00:21.012Z</time></trkpt><trkpt lat="39.952005" lon="9.6605132"><ele>10.0</ele><time>2026-04-06T14:00:22.012Z</time></trkpt><trkpt lat="39.9520636" lon="9.6606552"><ele>10.2</ele><time>2026-04-06T14:00:23.011Z</time></trkpt><trkpt lat="39.952137" lon="9.6607818"><ele>10.4</ele><time>2026-04-06T14:00:24.011Z</time></trkpt><trkpt lat="39.9522088" lon="9.6608872"><ele>10.600000000000001</ele><time>2026-04-06T14:00:25.012Z</time></trkpt><trkpt lat="39.9522746" lon="9.6609685"><ele>10.8</ele><time>2026-04-06T14:00:26.012Z</time></trkpt><trkpt lat="39.9523338" lon="9.6610361"><ele>11.0</ele><time>2026-04-06T14:00:27.012Z</time></trkpt><trkpt lat="39.9523643" lon="9.6611138"><ele>11.0</ele><time>2026-04-06T14:00:28.012Z</time></trkpt><trkpt lat="39.9523734" lon="9.6612029"><ele>11.0</ele><time>2026-04-06T14:00:29.012Z</time></trkpt><trkpt lat="39.9523802" lon="9.6612938"><ele>11.0</ele><time>2026-04-06T14:00:30.012Z</time></trkpt><trkpt lat="39.9524246" lon="9.6613625"><ele>11.0</ele><time>2026-04-06T14:00:31.012Z</time></trkpt><trkpt lat="39.9524867" lon="9.6614109"><ele>11.0</ele><time>2026-04-06T14:00:32.011Z</time></trkpt><trkpt lat="39.9525827" lon="9.6614349"><ele>11.0</ele><time>2026-04-06T14:00:33.011Z</time></trkpt><trkpt lat="39.9526892" lon="9.6614554"><ele>11.0</ele><time>2026-04-06T14:00:34.01Z</time></trkpt><trkpt lat="39.9528068" lon="9.6614583"><ele>11.0</ele><time>2026-04-06T14:00:35.012Z</time></trkpt><trkpt lat="39.9529308" lon="9.6614454"><ele>11.0</ele><time>2026-04-06T14:00:36.012Z</time></trkpt><trkpt lat="39.9530664" lon="9.6614194"><ele>11.0</ele><time>2026-04-06T14:00:37.012Z</time></trkpt><trkpt lat="39.9532016" lon="9.6613882"><ele>11.0</ele><time>2026-04-06T14:00:38.012Z</time></trkpt><trkpt lat="39.9533379" lon="9.6613555"><ele>11.0</ele><time>2026-04-06T14:00:39.011Z</time></trkpt><trkpt lat="39.9534657" lon="9.6613229"><ele>11.0</ele><time>2026-04-06T14:00:40.011Z</time></trkpt><trkpt lat="39.9535873" lon="9.6612836"><ele>11.0</ele><time>2026-04-06T14:00:41.012Z</time></trkpt><trkpt lat="39.9536963" lon="9.6612409"><ele>10.200000000000001</ele><time>2026-04-06T14:00:42.012Z</time></trkpt><trkpt lat="39.9537935" lon="9.6611977"><ele>9.4</ele><time>2026-04-06T14:00:43.012Z</time></trkpt><trkpt lat="39.9538892" lon="9.6611511"><ele>8.6</ele><time>2026-04-06T14:00:44.011Z</time></trkpt><trkpt lat="39.9539899" lon="9.6611067"><ele>7.8</ele><time>2026-04-06T14:00:45.012Z</time></trkpt><trkpt lat="39.9540979" lon="9.6610557"><ele>7.0</ele><time>2026-04-06T14:00:46.011Z</time></trkpt><trkpt lat="39.9542083" lon="9.6610078"><ele>7.0</ele><time>2026-04-06T14:00:47.012Z</time></trkpt><trkpt lat="39.9543205" lon="9.6609627"><ele>7.0</ele><time>2026-04-06T14:00:48.012Z</time></trkpt><trkpt lat="39.9544368" lon="9.6609105"><ele>7.0</ele><time>2026-04-06T14:00:49.012Z</time></trkpt><trkpt lat="39.9545551" lon="9.6608608"><ele>7.0</ele><time>2026-04-06T14:00:50.012Z</time></trkpt><trkpt lat="39.9546785" lon="9.6608129"><ele>7.0</ele><time>2026-04-06T14:00:51.012Z</time></trkpt><trkpt lat="39.9547991" lon="9.6607607"><ele>7.0</ele><time>2026-04-06T14:00:52.012Z</time></trkpt><trkpt lat="39.9549246" lon="9.6607079"><ele>7.0</ele><time>2026-04-06T14:00:53.012Z</time></trkpt><trkpt lat="39.9550539" lon="9.6606533"><ele>7.0</ele><time>2026-04-06T14:00:54.012Z</time></trkpt><trkpt lat="39.9551869" lon="9.6605978"><ele>7.0</ele><time>2026-04-06T14:00:55.012Z</time></trkpt><trkpt lat="39.955322" lon="9.660537"><ele>7.0</ele><time>2026-04-06T14:00:56.012Z</time></trkpt><trkpt lat="39.9554604" lon="9.6604763"><ele>7.0</ele><time>2026-04-06T14:00:57.012Z</time></trkpt><trkpt lat="39.955602" lon="9.6604162"><ele>7.0</ele><time>2026-04-06T14:00:58.012Z</time></trkpt><trkpt lat="39.9557485" lon="9.6603572"><ele>6.666666666666667</ele><time>2026-04-06T14:00:59.011Z</time></trkpt><trkpt lat="39.955901" lon="9.6602953"><ele>6.333333333333334</ele><time>2026-04-06T14:01:00.012Z</time></trkpt><trkpt lat="39.9560595" lon="9.6602279"><ele>6.0</ele><time>2026-04-06T14:01:01.011Z</time></trkpt><trkpt lat="39.9562186" lon="9.6601595"><ele>6.0</ele><time>2026-04-06T14:01:02.012Z</time></trkpt><trkpt lat="39.9563843" lon="9.6600894"><ele>6.0</ele><time>2026-04-06T14:01:03.011Z</time></trkpt><trkpt lat="39.956553" lon="9.6600183"><ele>6.0</ele><time>2026-04-06T14:01:04.012Z</time></trkpt><trkpt lat="39.9567238" lon="9.6599441"><ele>6.0</ele><time>2026-04-06T14:01:05.012Z</time></trkpt><trkpt lat="39.9569002" lon="9.65987"><ele>6.0</ele><time>2026-04-06T14:01:06.011Z</time></trkpt><trkpt lat="39.9570787" lon="9.6597973"><ele>6.0</ele><time>2026-04-06T14:01:07.012Z</time></trkpt><trkpt lat="39.9572583" lon="9.6597201"><ele>6.0</ele><time>2026-04-06T14:01:08.011Z</time></trkpt><trkpt lat="39.9574386" lon="9.6596428"><ele>6.0</ele><time>2026-04-06T14:01:09.012Z</time></trkpt><trkpt lat="39.9576209" lon="9.6595671"><ele>6.0</ele><time>2026-04-06T14:01:10.011Z</time></trkpt><trkpt lat="39.9578031" lon="9.6594907"><ele>6.333333333333334</ele><time>2026-04-06T14:01:11.012Z</time></trkpt><trkpt lat="39.9579872" lon="9.6594118"><ele>6.666666666666667</ele><time>2026-04-06T14:01:12.012Z</time></trkpt><trkpt lat="39.958168" lon="9.6593373"><ele>7.0</ele><time>2026-04-06T14:01:13.012Z</time></trkpt><trkpt lat="39.9583506" lon="9.6592638"><ele>6.666666666666667</ele><time>2026-04-06T14:01:14.011Z</time></trkpt><trkpt lat="39.9585216" lon="9.6591961"><ele>6.333333333333334</ele><time>2026-04-06T14:01:15.012Z</time></trkpt><trkpt lat="39.9586803" lon="9.6591322"><ele>6.0</ele><time>2026-04-06T14:01:16.011Z</time></trkpt><trkpt lat="39.9588278" lon="9.6590674"><ele>6.0</ele><time>2026-04-06T14:01:17.012Z</time></trkpt><trkpt lat="39.9589599" lon="9.6590163"><ele>6.0</ele><time>2026-04-06T14:01:18.012Z</time></trkpt><trkpt lat="39.9590627" lon="9.658976"><ele>6.0</ele><time>2026-04-06T14:01:19.011Z</time></trkpt><trkpt lat="39.9591499" lon="9.6589398"><ele>6.0</ele><time>2026-04-06T14:01:20.012Z</time></trkpt><trkpt lat="39.959238" lon="9.6589025"><ele>6.0</ele><time>2026-04-06T14:01:21.012Z</time></trkpt><trkpt lat="39.9593358" lon="9.6588603"><ele>5.75</ele><time>2026-04-06T14:01:22.012Z</time></trkpt><trkpt lat="39.9594426" lon="9.6588153"><ele>5.5</ele><time>2026-04-06T14:01:23.011Z</time></trkpt><trkpt lat="39.9595608" lon="9.6587644"><ele>5.25</ele><time>2026-04-06T14:01:24.011Z</time></trkpt><trkpt lat="39.9596845" lon="9.6587062"><ele>5.0</ele><time>2026-04-06T14:01:25.012Z</time></trkpt><trkpt lat="39.9598177" lon="9.6586503"><ele>5.333333333333334</ele><time>2026-04-06T14:01:26.012Z</time></trkpt><trkpt lat="39.9599547" lon="9.6585912"><ele>5.666666666666667</ele><time>2026-04-06T14:01:27.012Z</time></trkpt><trkpt lat="39.9601015" lon="9.6585302"><ele>6.0</ele><time>2026-04-06T14:01:28.012Z</time></trkpt><trkpt lat="39.9602565" lon="9.6584636"><ele>6.0</ele><time>2026-04-06T14:01:29.012Z</time></trkpt><trkpt lat="39.9604095" lon="9.6584005"><ele>6.0</ele><time>2026-04-06T14:01:30.012Z</time></trkpt><trkpt lat="39.9605525" lon="9.6583425"><ele>6.0</ele><time>2026-04-06T14:01:31.012Z</time></trkpt><trkpt lat="39.9606912" lon="9.6582855"><ele>6.0</ele><time>2026-04-06T14:01:32.011Z</time></trkpt><trkpt lat="39.9608252" lon="9.6582272"><ele>6.0</ele><time>2026-04-06T14:01:33.011Z</time></trkpt><trkpt lat="39.9609575" lon="9.6581693"><ele>6.0</ele><time>2026-04-06T14:01:34.012Z</time></trkpt><trkpt lat="39.9610953" lon="9.6581135"><ele>6.0</ele><time>2026-04-06T14:01:35.012Z</time></trkpt><trkpt lat="39.9612297" lon="9.6580583"><ele>6.0</ele><time>2026-04-06T14:01:36.011Z</time></trkpt><trkpt lat="39.9613529" lon="9.6580068"><ele>6.0</ele><time>2026-04-06T14:01:37.012Z</time></trkpt><trkpt lat="39.9614707" lon="9.6579541"><ele>6.0</ele><time>2026-04-06T14:01:38.011Z</time></trkpt><trkpt lat="39.9615796" lon="9.6578994"><ele>6.0</ele><time>2026-04-06T14:01:39.011Z</time></trkpt><trkpt lat="39.9616912" lon="9.6578333"><ele>7.0</ele><time>2026-04-06T14:01:40.011Z</time></trkpt><trkpt lat="39.9618009" lon="9.6577635"><ele>8.0</ele><time>2026-04-06T14:01:41.012Z</time></trkpt><trkpt lat="39.9619106" lon="9.6576893"><ele>9.0</ele><time>2026-04-06T14:01:42.012Z</time></trkpt><trkpt lat="39.9620251" lon="9.6576211"><ele>10.0</ele><time>2026-04-06T14:01:43.011Z</time></trkpt><trkpt lat="39.9621583" lon="9.6575743"><ele>10.0</ele><time>2026-04-06T14:01:44.012Z</time></trkpt><trkpt lat="39.9622953" lon="9.6575476"><ele>10.0</ele><time>2026-04-06T14:01:45.012Z</time></trkpt><trkpt lat="39.9624419" lon="9.6575338"><ele>10.0</ele><time>2026-04-06T14:01:46.012Z</time></trkpt><trkpt lat="39.962598" lon="9.6575281"><ele>10.0</ele><time>2026-04-06T14:01:47.012Z</time></trkpt><trkpt lat="39.9627633" lon="9.6575208"><ele>9.666666666666668</ele><time>2026-04-06T14:01:48.011Z</time></trkpt><trkpt lat="39.9629335" lon="9.6575085"><ele>9.333333333333334</ele><time>2026-04-06T14:01:49.012Z</time></trkpt><trkpt lat="39.9631106" lon="9.6574979"><ele>9.0</ele><time>2026-04-06T14:01:50.011Z</time></trkpt><trkpt lat="39.9632961" lon="9.6574931"><ele>11.0</ele><time>2026-04-06T14:01:51.011Z</time></trkpt><trkpt lat="39.9634824" lon="9.6574856"><ele>13.0</ele><time>2026-04-06T14:01:52.012Z</time></trkpt><trkpt lat="39.9636626" lon="9.6574773"><ele>15.0</ele><time>2026-04-06T14:01:53.012Z</time></trkpt><trkpt lat="39.9638404" lon="9.6574679"><ele>15.0</ele><time>2026-04-06T14:01:54.011Z</time></trkpt><trkpt lat="39.9640104" lon="9.6574768"><ele>15.0</ele><time>2026-04-06T14:01:55.012Z</time></trkpt><trkpt lat="39.9641716" lon="9.657511"><ele>15.0</ele><time>2026-04-06T14:01:56.012Z</time></trkpt><trkpt lat="39.9643219" lon="9.6575661"><ele>14.5</ele><time>2026-04-06T14:01:57.012Z</time></trkpt><trkpt lat="39.9644642" lon="9.65764"><ele>14.0</ele><time>2026-04-06T14:01:58.012Z</time></trkpt><trkpt lat="39.9645993" lon="9.6577239"><ele>13.5</ele><time>2026-04-06T14:01:59.012Z</time></trkpt><trkpt lat="39.9647279" lon="9.6578146"><ele>13.0</ele><time>2026-04-06T14:02:00.012Z</time></trkpt><trkpt lat="39.964857" lon="9.6579021"><ele>12.25</ele><time>2026-04-06T14:02:01.011Z</time></trkpt><trkpt lat="39.9649851" lon="9.6579884"><ele>11.5</ele><time>2026-04-06T14:02:02.011Z</time></trkpt><trkpt lat="39.9651164" lon="9.658073"><ele>10.75</ele><time>2026-04-06T14:02:03.011Z</time></trkpt><trkpt lat="39.9652506" lon="9.6581672"><ele>10.0</ele><time>2026-04-06T14:02:04.012Z</time></trkpt><trkpt lat="39.9653795" lon="9.6582596"><ele>9.0</ele><time>2026-04-06T14:02:05.011Z</time></trkpt><trkpt lat="39.9655106" lon="9.6583486"><ele>8.0</ele><time>2026-04-06T14:02:06.011Z</time></trkpt><trkpt lat="39.9656385" lon="9.658438"><ele>7.0</ele><time>2026-04-06T14:02:07.012Z</time></trkpt><trkpt lat="39.9657634" lon="9.6585265"><ele>6.0</ele><time>2026-04-06T14:02:08.012Z</time></trkpt><trkpt lat="39.9658888" lon="9.658617"><ele>5.666666666666667</ele><time>2026-04-06T14:02:09.011Z</time></trkpt><trkpt lat="39.966024" lon="9.6587048"><ele>5.333333333333334</ele><time>2026-04-06T14:02:10.012Z</time></trkpt><trkpt lat="39.9661591" lon="9.6587942"><ele>5.0</ele><time>2026-04-06T14:02:11.011Z</time></trkpt><trkpt lat="39.966296" lon="9.6588835"><ele>5.0</ele><time>2026-04-06T14:02:12.012Z</time></trkpt><trkpt lat="39.9664324" lon="9.6589729"><ele>5.0</ele><time>2026-04-06T14:02:13.012Z</time></trkpt><trkpt lat="39.9665721" lon="9.6590698"><ele>5.0</ele><time>2026-04-06T14:02:14.012Z</time></trkpt><trkpt lat="39.9667132" lon="9.6591686"><ele>5.666666666666667</ele><time>2026-04-06T14:02:15.012Z</time></trkpt><trkpt lat="39.966853" lon="9.6592658"><ele>6.333333333333334</ele><time>2026-04-06T14:02:16.012Z</time></trkpt><trkpt lat="39.966998" lon="9.6593633"><ele>7.0</ele><time>2026-04-06T14:02:17.011Z</time></trkpt><trkpt lat="39.9671447" lon="9.6594637"><ele>7.333333333333334</ele><time>2026-04-06T14:02:18.012Z</time></trkpt><trkpt lat="39.9672916" lon="9.6595679"><ele>7.666666666666666</ele><time>2026-04-06T14:02:19.012Z</time></trkpt><trkpt lat="39.9674416" lon="9.6596734"><ele>8.0</ele><time>2026-04-06T14:02:20.012Z</time></trkpt><trkpt lat="39.9675935" lon="9.6597812"><ele>8.0</ele><time>2026-04-06T14:02:21.012Z</time></trkpt><trkpt lat="39.9677473" lon="9.6598909"><ele>8.0</ele><time>2026-04-06T14:02:22.012Z</time></trkpt><trkpt lat="39.9679001" lon="9.6599995"><ele>8.0</ele><time>2026-04-06T14:02:23.012Z</time></trkpt><trkpt lat="39.9680517" lon="9.6601067"><ele>8.0</ele><time>2026-04-06T14:02:24.011Z</time></trkpt><trkpt lat="39.9681948" lon="9.6602103"><ele>8.0</ele><time>2026-04-06T14:02:25.011Z</time></trkpt><trkpt lat="39.9683329" lon="9.6603138"><ele>8.0</ele><time>2026-04-06T14:02:26.012Z</time></trkpt><trkpt lat="39.9684683" lon="9.6604121"><ele>8.0</ele><time>2026-04-06T14:02:27.012Z</time></trkpt><trkpt lat="39.9686039" lon="9.6605077"><ele>8.0</ele><time>2026-04-06T14:02:28.012Z</time></trkpt><trkpt lat="39.9687398" lon="9.6605976"><ele>8.0</ele><time>2026-04-06T14:02:29.011Z</time></trkpt><trkpt lat="39.9688746" lon="9.6606919"><ele>8.0</ele><time>2026-04-06T14:02:30.011Z</time></trkpt><trkpt lat="39.9690065" lon="9.6607859"><ele>8.0</ele><time>2026-04-06T14:02:31.011Z</time></trkpt><trkpt lat="39.9691455" lon="9.6608698"><ele>8.0</ele><time>2026-04-06T14:02:32.011Z</time></trkpt><trkpt lat="39.9692606" lon="9.6609578"><ele>8.0</ele><time>2026-04-06T14:02:33.012Z</time></trkpt><trkpt lat="39.9693721" lon="9.661042"><ele>9.0</ele><time>2026-04-06T14:02:34.012Z</time></trkpt><trkpt lat="39.9694848" lon="9.6611089"><ele>10.0</ele><time>2026-04-06T14:02:35.011Z</time></trkpt><trkpt lat="39.9695829" lon="9.6611909"><ele>11.0</ele><time>2026-04-06T14:02:36.012Z</time></trkpt><trkpt lat="39.969685" lon="9.6612696"><ele>12.0</ele><time>2026-04-06T14:02:37.011Z</time></trkpt><trkpt lat="39.9697872" lon="9.6613412"><ele>12.0</ele><time>2026-04-06T14:02:38.012Z</time></trkpt><trkpt lat="39.9698876" lon="9.6614096"><ele>12.0</ele><time>2026-04-06T14:02:39.012Z</time></trkpt><trkpt lat="39.9699666" lon="9.6614796"><ele>12.0</ele><time>2026-04-06T14:02:40.012Z</time></trkpt><trkpt lat="39.9700477" lon="9.6615404"><ele>12.0</ele><time>2026-04-06T14:02:41.011Z</time></trkpt><trkpt lat="39.9701193" lon="9.6616087"><ele>12.0</ele><time>2026-04-06T14:02:42.012Z</time></trkpt><trkpt lat="39.9701781" lon="9.6616997"><ele>13.0</ele><time>2026-04-06T14:02:43.011Z</time></trkpt><trkpt lat="39.9702079" lon="9.6618046"><ele>14.0</ele><time>2026-04-06T14:02:44.012Z</time></trkpt><trkpt lat="39.9702201" lon="9.6619213"><ele>15.0</ele><time>2026-04-06T14:02:45.012Z</time></trkpt><trkpt lat="39.9702304" lon="9.6620458"><ele>16.0</ele><time>2026-04-06T14:02:46.012Z</time></trkpt><trkpt lat="39.9702409" lon="9.6621798"><ele>17.0</ele><time>2026-04-06T14:02:47.012Z</time></trkpt><trkpt lat="39.9702527" lon="9.6623204"><ele>17.0</ele><time>2026-04-06T14:02:48.011Z</time></trkpt><trkpt lat="39.9702751" lon="9.6624678"><ele>17.0</ele><time>2026-04-06T14:02:49.012Z</time></trkpt><trkpt lat="39.9703072" lon="9.6626222"><ele>17.0</ele><time>2026-04-06T14:02:50.012Z</time></trkpt><trkpt lat="39.9703546" lon="9.6627711"><ele>17.0</ele><time>2026-04-06T14:02:51.012Z</time></trkpt><trkpt lat="39.9704214" lon="9.662915"><ele>17.0</ele><time>2026-04-06T14:02:52.012Z</time></trkpt><trkpt lat="39.9705006" lon="9.6630359"><ele>17.0</ele><time>2026-04-06T14:02:53.012Z</time></trkpt><trkpt lat="39.9705832" lon="9.6631376"><ele>17.0</ele><time>2026-04-06T14:02:54.012Z</time></trkpt><trkpt lat="39.97067" lon="9.6632349"><ele>17.0</ele><time>2026-04-06T14:02:55.012Z</time></trkpt><trkpt lat="39.9707528" lon="9.663333"><ele>17.0</ele><time>2026-04-06T14:02:56.012Z</time></trkpt><trkpt lat="39.9708342" lon="9.6634311"><ele>17.0</ele><time>2026-04-06T14:02:57.012Z</time></trkpt><trkpt lat="39.9709173" lon="9.6635292"><ele>17.0</ele><time>2026-04-06T14:02:58.011Z</time></trkpt><trkpt lat="39.9709938" lon="9.6636241"><ele>17.0</ele><time>2026-04-06T14:02:59.012Z</time></trkpt><trkpt lat="39.9710672" lon="9.6637135"><ele>17.0</ele><time>2026-04-06T14:03:00.011Z</time></trkpt><trkpt lat="39.9711369" lon="9.6637954"><ele>16.2</ele><time>2026-04-06T14:03:01.012Z</time></trkpt><trkpt lat="39.9712018" lon="9.6638757"><ele>15.399999999999999</ele><time>2026-04-06T14:03:02.012Z</time></trkpt><trkpt lat="39.9712739" lon="9.6639503"><ele>14.600000000000001</ele><time>2026-04-06T14:03:03.012Z</time></trkpt><trkpt lat="39.9713536" lon="9.6640122"><ele>13.8</ele><time>2026-04-06T14:03:04.012Z</time></trkpt><trkpt lat="39.9714396" lon="9.6640642"><ele>13.0</ele><time>2026-04-06T14:03:05.012Z</time></trkpt><trkpt lat="39.971534" lon="9.6641019"><ele>13.0</ele><time>2026-04-06T14:03:06.012Z</time></trkpt><trkpt lat="39.9716377" lon="9.6641149"><ele>13.0</ele><time>2026-04-06T14:03:07.012Z</time></trkpt><trkpt lat="39.9717433" lon="9.6641054"><ele>13.0</ele><time>2026-04-06T14:03:08.012Z</time></trkpt><trkpt lat="39.9718495" lon="9.6640816"><ele>13.0</ele><time>2026-04-06T14:03:09.012Z</time></trkpt><trkpt lat="39.9719523" lon="9.6640479"><ele>13.0</ele><time>2026-04-06T14:03:10.012Z</time></trkpt><trkpt lat="39.972055" lon="9.6640107"><ele>11.8</ele><time>2026-04-06T14:03:11.011Z</time></trkpt><trkpt lat="39.9721564" lon="9.6639731"><ele>10.600000000000001</ele><time>2026-04-06T14:03:12.012Z</time></trkpt><trkpt lat="39.9722544" lon="9.6639349"><ele>9.399999999999999</ele><time>2026-04-06T14:03:13.012Z</time></trkpt><trkpt lat="39.9723528" lon="9.663897"><ele>8.2</ele><time>2026-04-06T14:03:14.011Z</time></trkpt><trkpt lat="39.9724523" lon="9.6638576"><ele>7.0</ele><time>2026-04-06T14:03:15.012Z</time></trkpt><trkpt lat="39.9725496" lon="9.663822"><ele>7.0</ele><time>2026-04-06T14:03:16.011Z</time></trkpt><trkpt lat="39.9726505" lon="9.6637791"><ele>6.999999999999999</ele><time>2026-04-06T14:03:17.012Z</time></trkpt><trkpt lat="39.9727532" lon="9.6637397"><ele>6.999999999999999</ele><time>2026-04-06T14:03:18.012Z</time></trkpt><trkpt lat="39.9728608" lon="9.6636984"><ele>7.0</ele><time>2026-04-06T14:03:19.011Z</time></trkpt><trkpt lat="39.9729723" lon="9.6636574"><ele>7.0</ele><time>2026-04-06T14:03:20.012Z</time></trkpt><trkpt lat="39.9730918" lon="9.6636176"><ele>7.0</ele><time>2026-04-06T14:03:21.011Z</time></trkpt><trkpt lat="39.9732153" lon="9.6635734"><ele>7.0</ele><time>2026-04-06T14:03:22.012Z</time></trkpt><trkpt lat="39.9733437" lon="9.6635367"><ele>7.0</ele><time>2026-04-06T14:03:23.012Z</time></trkpt><trkpt lat="39.9734795" lon="9.6635095"><ele>7.0</ele><time>2026-04-06T14:03:24.011Z</time></trkpt><trkpt lat="39.973621" lon="9.6635058"><ele>7.25</ele><time>2026-04-06T14:03:25.011Z</time></trkpt><trkpt lat="39.9737581" lon="9.6635115"><ele>7.5</ele><time>2026-04-06T14:03:26.012Z</time></trkpt><trkpt lat="39.9738902" lon="9.6635243"><ele>7.75</ele><time>2026-04-06T14:03:27.012Z</time></trkpt><trkpt lat="39.9740076" lon="9.663543"><ele>8.0</ele><time>2026-04-06T14:03:28.012Z</time></trkpt><trkpt lat="39.9741186" lon="9.6635654"><ele>7.800000000000001</ele><time>2026-04-06T14:03:29.012Z</time></trkpt><trkpt lat="39.9742282" lon="9.6635963"><ele>7.6000000000000005</ele><time>2026-04-06T14:03:30.011Z</time></trkpt><trkpt lat="39.9743338" lon="9.6636334"><ele>7.3999999999999995</ele><time>2026-04-06T14:03:31.012Z</time></trkpt><trkpt lat="39.9744373" lon="9.6636719"><ele>7.199999999999999</ele><time>2026-04-06T14:03:32.012Z</time></trkpt><trkpt lat="39.9745378" lon="9.6637137"><ele>7.0</ele><time>2026-04-06T14:03:33.012Z</time></trkpt><trkpt lat="39.9746357" lon="9.6637665"><ele>7.0</ele><time>2026-04-06T14:03:34.012Z</time></trkpt><trkpt lat="39.9747284" lon="9.6638296"><ele>6.999999999999999</ele><time>2026-04-06T14:03:35.012Z</time></trkpt><trkpt lat="39.9748214" lon="9.6638994"><ele>6.999999999999999</ele><time>2026-04-06T14:03:36.011Z</time></trkpt><trkpt lat="39.9749126" lon="9.6639706"><ele>7.0</ele><time>2026-04-06T14:03:37.012Z</time></trkpt><trkpt lat="39.9750021" lon="9.6640429"><ele>7.0</ele><time>2026-04-06T14:03:38.012Z</time></trkpt><trkpt lat="39.9750906" lon="9.6641147"><ele>7.199999999999999</ele><time>2026-04-06T14:03:39.012Z</time></trkpt><trkpt lat="39.9751779" lon="9.6641914"><ele>7.3999999999999995</ele><time>2026-04-06T14:03:40.012Z</time></trkpt><trkpt lat="39.9752658" lon="9.6642728"><ele>7.6000000000000005</ele><time>2026-04-06T14:03:41.012Z</time></trkpt><trkpt lat="39.9753551" lon="9.6643494"><ele>7.800000000000001</ele><time>2026-04-06T14:03:42.012Z</time></trkpt><trkpt lat="39.9754424" lon="9.6644313"><ele>8.0</ele><time>2026-04-06T14:03:43.011Z</time></trkpt><trkpt lat="39.9755321" lon="9.6645149"><ele>8.200000000000001</ele><time>2026-04-06T14:03:44.012Z</time></trkpt><trkpt lat="39.9756201" lon="9.6645928"><ele>8.4</ele><time>2026-04-06T14:03:45.012Z</time></trkpt><trkpt lat="39.9757122" lon="9.6646672"><ele>8.600000000000001</ele><time>2026-04-06T14:03:46.011Z</time></trkpt><trkpt lat="39.9757953" lon="9.6647397"><ele>8.8</ele><time>2026-04-06T14:03:47.012Z</time></trkpt><trkpt lat="39.97587" lon="9.6648026"><ele>9.0</ele><time>2026-04-06T14:03:48.012Z</time></trkpt><trkpt lat="39.9759451" lon="9.664867"><ele>11.0</ele><time>2026-04-06T14:03:49.012Z</time></trkpt><trkpt lat="39.9760313" lon="9.6649205"><ele>13.0</ele><time>2026-04-06T14:03:50.011Z</time></trkpt><trkpt lat="39.9761278" lon="9.6649742"><ele>14.999999999999998</ele><time>2026-04-06T14:03:51.012Z</time></trkpt><trkpt lat="39.9762372" lon="9.6650162"><ele>17.0</ele><time>2026-04-06T14:03:52.012Z</time></trkpt><trkpt lat="39.9763558" lon="9.6650551"><ele>19.0</ele><time>2026-04-06T14:03:53.012Z</time></trkpt><trkpt lat="39.9764807" lon="9.6650925"><ele>19.0</ele><time>2026-04-06T14:03:54.011Z</time></trkpt><trkpt lat="39.976613" lon="9.6651319"><ele>19.0</ele><time>2026-04-06T14:03:55.012Z</time></trkpt><trkpt lat="39.9767506" lon="9.6651739"><ele>19.0</ele><time>2026-04-06T14:03:56.011Z</time></trkpt><trkpt lat="39.9768845" lon="9.6652054"><ele>19.0</ele><time>2026-04-06T14:03:57.011Z</time></trkpt><trkpt lat="39.9770002" lon="9.6652134"><ele>18.4</ele><time>2026-04-06T14:03:58.012Z</time></trkpt><trkpt lat="39.9771035" lon="9.6651796"><ele>17.799999999999997</ele><time>2026-04-06T14:03:59.011Z</time></trkpt><trkpt lat="39.9771955" lon="9.6651101"><ele>17.200000000000003</ele><time>2026-04-06T14:04:00.011Z</time></trkpt><trkpt lat="39.9772813" lon="9.6650234"><ele>16.6</ele><time>2026-04-06T14:04:01.012Z</time></trkpt><trkpt lat="39.9773542" lon="9.6649197"><ele>16.0</ele><time>2026-04-06T14:04:02.012Z</time></trkpt><trkpt lat="39.9774235" lon="9.6648031"><ele>16.0</ele><time>2026-04-06T14:04:03.012Z</time></trkpt><trkpt lat="39.9774906" lon="9.6646829"><ele>16.0</ele><time>2026-04-06T14:04:04.012Z</time></trkpt><trkpt lat="39.9775523" lon="9.6645491"><ele>16.0</ele><time>2026-04-06T14:04:05.011Z</time></trkpt><trkpt lat="39.9776123" lon="9.6644135"><ele>16.0</ele><time>2026-04-06T14:04:06.012Z</time></trkpt><trkpt lat="39.9776741" lon="9.6642809"><ele>16.5</ele><time>2026-04-06T14:04:07.012Z</time></trkpt><trkpt lat="39.9777332" lon="9.664148"><ele>17.0</ele><time>2026-04-06T14:04:08.012Z</time></trkpt><trkpt lat="39.9777984" lon="9.6640154"><ele>17.5</ele><time>2026-04-06T14:04:09.011Z</time></trkpt><trkpt lat="39.9778757" lon="9.6638926"><ele>18.0</ele><time>2026-04-06T14:04:10.012Z</time></trkpt><trkpt lat="39.9779667" lon="9.6637937"><ele>18.0</ele><time>2026-04-06T14:04:11.012Z</time></trkpt><trkpt lat="39.9780693" lon="9.6637176"><ele>18.0</ele><time>2026-04-06T14:04:12.011Z</time></trkpt><trkpt lat="39.9781871" lon="9.6636815"><ele>18.0</ele><time>2026-04-06T14:04:13.012Z</time></trkpt><trkpt lat="39.9783124" lon="9.6636689"><ele>18.0</ele><time>2026-04-06T14:04:14.011Z</time></trkpt><trkpt lat="39.9784485" lon="9.663654"><ele>18.25</ele><time>2026-04-06T14:04:15.012Z</time></trkpt><trkpt lat="39.9785869" lon="9.6636232"><ele>18.5</ele><time>2026-04-06T14:04:16.011Z</time></trkpt><trkpt lat="39.9787316" lon="9.6635776"><ele>18.75</ele><time>2026-04-06T14:04:17.012Z</time></trkpt><trkpt lat="39.9788819" lon="9.6635376"><ele>19.0</ele><time>2026-04-06T14:04:18.012Z</time></trkpt><trkpt lat="39.9790408" lon="9.6635041"><ele>23.0</ele><time>2026-04-06T14:04:19.012Z</time></trkpt><trkpt lat="39.9792043" lon="9.6634781"><ele>27.0</ele><time>2026-04-06T14:04:20.012Z</time></trkpt><trkpt lat="39.9793724" lon="9.6634387"><ele>31.0</ele><time>2026-04-06T14:04:21.012Z</time></trkpt><trkpt lat="39.9795434" lon="9.6633686"><ele>31.0</ele><time>2026-04-06T14:04:22.011Z</time></trkpt><trkpt lat="39.9797078" lon="9.6632756"><ele>31.0</ele><time>2026-04-06T14:04:23.012Z</time></trkpt><trkpt lat="39.9798759" lon="9.6631705"><ele>31.0</ele><time>2026-04-06T14:04:24.012Z</time></trkpt><trkpt lat="39.980039" lon="9.6630537"><ele>34.333333333333336</ele><time>2026-04-06T14:04:25.012Z</time></trkpt><trkpt lat="39.9801953" lon="9.6629252"><ele>37.666666666666664</ele><time>2026-04-06T14:04:26.012Z</time></trkpt><trkpt lat="39.9803457" lon="9.6627842"><ele>41.0</ele><time>2026-04-06T14:04:27.012Z</time></trkpt><trkpt lat="39.9804931" lon="9.6626325"><ele>42.33333333333333</ele><time>2026-04-06T14:04:28.011Z</time></trkpt><trkpt lat="39.9806203" lon="9.6624881"><ele>43.666666666666664</ele><time>2026-04-06T14:04:29.012Z</time></trkpt><trkpt lat="39.980731" lon="9.6623535"><ele>45.0</ele><time>2026-04-06T14:04:30.012Z</time></trkpt><trkpt lat="39.9808508" lon="9.662252"><ele>46.5</ele><time>2026-04-06T14:04:31.012Z</time></trkpt><trkpt lat="39.9809942" lon="9.6622029"><ele>48.0</ele><time>2026-04-06T14:04:32.012Z</time></trkpt><trkpt lat="39.9811505" lon="9.662219"><ele>49.5</ele><time>2026-04-06T14:04:33.012Z</time></trkpt><trkpt lat="39.9812812" lon="9.662269"><ele>51.0</ele><time>2026-04-06T14:04:34.011Z</time></trkpt><trkpt lat="39.9814229" lon="9.6622905"><ele>51.0</ele><time>2026-04-06T14:04:35.012Z</time></trkpt><trkpt lat="39.9815714" lon="9.6622803"><ele>51.0</ele><time>2026-04-06T14:04:36.011Z</time></trkpt><trkpt lat="39.9817302" lon="9.6622196"><ele>51.0</ele><time>2026-04-06T14:04:37.012Z</time></trkpt><trkpt lat="39.9818945" lon="9.662131"><ele>51.0</ele><time>2026-04-06T14:04:38.011Z</time></trkpt><trkpt lat="39.9820647" lon="9.6620401"><ele>51.0</ele><time>2026-04-06T14:04:39.012Z</time></trkpt><trkpt lat="39.9822461" lon="9.6619573"><ele>51.0</ele><time>2026-04-06T14:04:40.012Z</time></trkpt><trkpt lat="39.9824343" lon="9.6618774"><ele>53.0</ele><time>2026-04-06T14:04:41.011Z</time></trkpt><trkpt lat="39.9826215" lon="9.661793"><ele>55.0</ele><time>2026-04-06T14:04:42.012Z</time></trkpt><trkpt lat="39.9828146" lon="9.6617089"><ele>57.0</ele><time>2026-04-06T14:04:43.011Z</time></trkpt><trkpt lat="39.9830181" lon="9.6616236"><ele>57.0</ele><time>2026-04-06T14:04:44.012Z</time></trkpt><trkpt lat="39.9832177" lon="9.6615428"><ele>57.0</ele><time>2026-04-06T14:04:45.012Z</time></trkpt><trkpt lat="39.9834048" lon="9.6614665"><ele>57.0</ele><time>2026-04-06T14:04:46.012Z</time></trkpt><trkpt lat="39.9835842" lon="9.6613922"><ele>58.66666666666667</ele><time>2026-04-06T14:04:47.012Z</time></trkpt><trkpt lat="39.9837485" lon="9.6613212"><ele>60.333333333333336</ele><time>2026-04-06T14:04:48.012Z</time></trkpt><trkpt lat="39.9838905" lon="9.6612444"><ele>62.0</ele><time>2026-04-06T14:04:49.011Z</time></trkpt><trkpt lat="39.9840074" lon="9.6611431"><ele>62.66666666666667</ele><time>2026-04-06T14:04:50.012Z</time></trkpt><trkpt lat="39.9841031" lon="9.6609961"><ele>63.33333333333333</ele><time>2026-04-06T14:04:51.012Z</time></trkpt><trkpt lat="39.9841904" lon="9.6608199"><ele>64.0</ele><time>2026-04-06T14:04:52.012Z</time></trkpt><trkpt lat="39.9842911" lon="9.6606425"><ele>63.33333333333333</ele><time>2026-04-06T14:04:53.012Z</time></trkpt><trkpt lat="39.9844074" lon="9.6604615"><ele>62.66666666666667</ele><time>2026-04-06T14:04:54.012Z</time></trkpt><trkpt lat="39.984532" lon="9.6602875"><ele>62.0</ele><time>2026-04-06T14:04:55.011Z</time></trkpt><trkpt lat="39.9846767" lon="9.6601259"><ele>62.0</ele><time>2026-04-06T14:04:56.012Z</time></trkpt><trkpt lat="39.9848414" lon="9.6600074"><ele>62.0</ele><time>2026-04-06T14:04:57.011Z</time></trkpt><trkpt lat="39.985006" lon="9.65991"><ele>62.0</ele><time>2026-04-06T14:04:58.012Z</time></trkpt><trkpt lat="39.9851568" lon="9.6598189"><ele>60.0</ele><time>2026-04-06T14:04:59.012Z</time></trkpt><trkpt lat="39.9853034" lon="9.6597333"><ele>58.0</ele><time>2026-04-06T14:05:00.012Z</time></trkpt><trkpt lat="39.9854376" lon="9.659618"><ele>56.0</ele><time>2026-04-06T14:05:01.011Z</time></trkpt><trkpt lat="39.9855568" lon="9.6594549"><ele>57.333333333333336</ele><time>2026-04-06T14:05:02.012Z</time></trkpt><trkpt lat="39.9856741" lon="9.6592726"><ele>58.66666666666667</ele><time>2026-04-06T14:05:03.012Z</time></trkpt><trkpt lat="39.9857938" lon="9.6590898"><ele>60.0</ele><time>2026-04-06T14:05:04.012Z</time></trkpt><trkpt lat="39.9859168" lon="9.6588937"><ele>60.0</ele><time>2026-04-06T14:05:05.012Z</time></trkpt><trkpt lat="39.9860382" lon="9.6586975"><ele>60.0</ele><time>2026-04-06T14:05:06.012Z</time></trkpt><trkpt lat="39.9861557" lon="9.6585107"><ele>60.0</ele><time>2026-04-06T14:05:07.012Z</time></trkpt><trkpt lat="39.9862737" lon="9.6583324"><ele>61.0</ele><time>2026-04-06T14:05:08.012Z</time></trkpt><trkpt lat="39.9864053" lon="9.6581749"><ele>62.0</ele><time>2026-04-06T14:05:09.012Z</time></trkpt><trkpt lat="39.9865594" lon="9.6580625"><ele>63.0</ele><time>2026-04-06T14:05:10.012Z</time></trkpt><trkpt lat="39.986729" lon="9.6579898"><ele>63.0</ele><time>2026-04-06T14:05:11.011Z</time></trkpt><trkpt lat="39.9869093" lon="9.6579346"><ele>63.0</ele><time>2026-04-06T14:05:12.011Z</time></trkpt><trkpt lat="39.987089" lon="9.6578611"><ele>63.0</ele><time>2026-04-06T14:05:13.012Z</time></trkpt><trkpt lat="39.9872601" lon="9.6577745"><ele>65.0</ele><time>2026-04-06T14:05:14.011Z</time></trkpt><trkpt lat="39.9874197" lon="9.6576722"><ele>67.0</ele><time>2026-04-06T14:05:15.012Z</time></trkpt><trkpt lat="39.9875712" lon="9.6575681"><ele>69.0</ele><time>2026-04-06T14:05:16.012Z</time></trkpt><trkpt lat="39.9877241" lon="9.6574682"><ele>69.0</ele><time>2026-04-06T14:05:17.012Z</time></trkpt><trkpt lat="39.9878754" lon="9.6573707"><ele>69.0</ele><time>2026-04-06T14:05:18.011Z</time></trkpt><trkpt lat="39.9880243" lon="9.6572657"><ele>69.0</ele><time>2026-04-06T14:05:19.012Z</time></trkpt><trkpt lat="39.9881738" lon="9.6571615"><ele>69.0</ele><time>2026-04-06T14:05:20.012Z</time></trkpt><trkpt lat="39.9883283" lon="9.657073"><ele>69.0</ele><time>2026-04-06T14:05:21.012Z</time></trkpt><trkpt lat="39.9884939" lon="9.6570091"><ele>69.0</ele><time>2026-04-06T14:05:22.012Z</time></trkpt><trkpt lat="39.9886698" lon="9.6569834"><ele>70.33333333333333</ele><time>2026-04-06T14:05:23.012Z</time></trkpt><trkpt lat="39.9888334" lon="9.6569923"><ele>71.66666666666666</ele><time>2026-04-06T14:05:24.012Z</time></trkpt><trkpt lat="39.98899" lon="9.6569868"><ele>73.0</ele><time>2026-04-06T14:05:25.011Z</time></trkpt><trkpt lat="39.9891349" lon="9.6569689"><ele>74.25</ele><time>2026-04-06T14:05:26.011Z</time></trkpt><trkpt lat="39.9892815" lon="9.656951"><ele>75.5</ele><time>2026-04-06T14:05:27.012Z</time></trkpt><trkpt lat="39.9894288" lon="9.6569393"><ele>76.75</ele><time>2026-04-06T14:05:28.011Z</time></trkpt><trkpt lat="39.9895787" lon="9.6569408"><ele>78.0</ele><time>2026-04-06T14:05:29.012Z</time></trkpt><trkpt lat="39.9897318" lon="9.6569636"><ele>80.0</ele><time>2026-04-06T14:05:30.012Z</time></trkpt><trkpt lat="39.9898869" lon="9.6570088"><ele>82.0</ele><time>2026-04-06T14:05:31.011Z</time></trkpt><trkpt lat="39.9900453" lon="9.6570644"><ele>84.0</ele><time>2026-04-06T14:05:32.012Z</time></trkpt><trkpt lat="39.9902036" lon="9.6571177"><ele>85.66666666666667</ele><time>2026-04-06T14:05:33.012Z</time></trkpt><trkpt lat="39.990364" lon="9.6571609"><ele>87.33333333333334</ele><time>2026-04-06T14:05:34.011Z</time></trkpt><trkpt lat="39.9905281" lon="9.6571796"><ele>89.0</ele><time>2026-04-06T14:05:35.012Z</time></trkpt><trkpt lat="39.9906855" lon="9.6571633"><ele>89.0</ele><time>2026-04-06T14:05:36.012Z</time></trkpt><trkpt lat="39.9908234" lon="9.6571306"><ele>89.0</ele><time>2026-04-06T14:05:37.012Z</time></trkpt><trkpt lat="39.9909455" lon="9.6571117"><ele>89.0</ele><time>2026-04-06T14:05:38.012Z</time></trkpt><trkpt lat="39.9910554" lon="9.6571142"><ele>89.0</ele><time>2026-04-06T14:05:39.012Z</time></trkpt><trkpt lat="39.9911484" lon="9.6571619"><ele>89.80000000000001</ele><time>2026-04-06T14:05:40.012Z</time></trkpt><trkpt lat="39.9912146" lon="9.6572612"><ele>90.60000000000001</ele><time>2026-04-06T14:05:41.012Z</time></trkpt><trkpt lat="39.9912375" lon="9.6573909"><ele>91.4</ele><time>2026-04-06T14:05:42.011Z</time></trkpt><trkpt lat="39.9912318" lon="9.657539"><ele>92.2</ele><time>2026-04-06T14:05:43.011Z</time></trkpt><trkpt lat="39.9912163" lon="9.6576996"><ele>93.0</ele><time>2026-04-06T14:05:44.012Z</time></trkpt><trkpt lat="39.9912005" lon="9.6578699"><ele>93.0</ele><time>2026-04-06T14:05:45.011Z</time></trkpt><trkpt lat="39.9911819" lon="9.658047"><ele>93.0</ele><time>2026-04-06T14:05:46.012Z</time></trkpt><trkpt lat="39.9911676" lon="9.6582219"><ele>93.0</ele><time>2026-04-06T14:05:47.012Z</time></trkpt><trkpt lat="39.9911696" lon="9.6583824"><ele>93.0</ele><time>2026-04-06T14:05:48.012Z</time></trkpt><trkpt lat="39.991195" lon="9.6585307"><ele>93.0</ele><time>2026-04-06T14:05:49.011Z</time></trkpt><trkpt lat="39.991255" lon="9.6586565"><ele>93.0</ele><time>2026-04-06T14:05:50.011Z</time></trkpt><trkpt lat="39.9913351" lon="9.6587488"><ele>93.0</ele><time>2026-04-06T14:05:51.012Z</time></trkpt><trkpt lat="39.9914259" lon="9.6588299"><ele>93.0</ele><time>2026-04-06T14:05:52.011Z</time></trkpt><trkpt lat="39.9915311" lon="9.6589062"><ele>93.0</ele><time>2026-04-06T14:05:53.012Z</time></trkpt><trkpt lat="39.9916486" lon="9.6589934"><ele>93.0</ele><time>2026-04-06T14:05:54.012Z</time></trkpt><trkpt lat="39.9917722" lon="9.659083"><ele>93.0</ele><time>2026-04-06T14:05:55.011Z</time></trkpt><trkpt lat="39.9919051" lon="9.6591789"><ele>93.0</ele><time>2026-04-06T14:05:56.012Z</time></trkpt><trkpt lat="39.9920467" lon="9.6592751"><ele>92.0</ele><time>2026-04-06T14:05:57.012Z</time></trkpt><trkpt lat="39.9921955" lon="9.6593817"><ele>91.0</ele><time>2026-04-06T14:05:58.012Z</time></trkpt><trkpt lat="39.9923551" lon="9.6594855"><ele>90.0</ele><time>2026-04-06T14:05:59.012Z</time></trkpt><trkpt lat="39.9925194" lon="9.6595807"><ele>94.0</ele><time>2026-04-06T14:06:00.012Z</time></trkpt><trkpt lat="39.9926942" lon="9.6596633"><ele>98.0</ele><time>2026-04-06T14:06:01.012Z</time></trkpt><trkpt lat="39.9928726" lon="9.6597561"><ele>102.0</ele><time>2026-04-06T14:06:02.012Z</time></trkpt><trkpt lat="39.9930484" lon="9.6598677"><ele>102.0</ele><time>2026-04-06T14:06:03.012Z</time></trkpt><trkpt lat="39.9932254" lon="9.6599864"><ele>102.0</ele><time>2026-04-06T14:06:04.012Z</time></trkpt><trkpt lat="39.9933905" lon="9.6601435"><ele>102.0</ele><time>2026-04-06T14:06:05.011Z</time></trkpt><trkpt lat="39.9935404" lon="9.6603251"><ele>104.33333333333334</ele><time>2026-04-06T14:06:06.012Z</time></trkpt><trkpt lat="39.9936895" lon="9.6605133"><ele>106.66666666666667</ele><time>2026-04-06T14:06:07.012Z</time></trkpt><trkpt lat="39.9938418" lon="9.660702"><ele>109.0</ele><time>2026-04-06T14:06:08.011Z</time></trkpt><trkpt lat="39.9940063" lon="9.6608683"><ele>113.33333333333334</ele><time>2026-04-06T14:06:09.012Z</time></trkpt><trkpt lat="39.994181" lon="9.6610051"><ele>117.66666666666666</ele><time>2026-04-06T14:06:10.012Z</time></trkpt><trkpt lat="39.9943433" lon="9.6611254"><ele>122.0</ele><time>2026-04-06T14:06:11.012Z</time></trkpt><trkpt lat="39.9944784" lon="9.6612474"><ele>122.19999999999999</ele><time>2026-04-06T14:06:12.011Z</time></trkpt><trkpt lat="39.9945494" lon="9.6613577"><ele>122.39999999999999</ele><time>2026-04-06T14:06:13.011Z</time></trkpt><trkpt lat="39.9945708" lon="9.6614642"><ele>122.60000000000001</ele><time>2026-04-06T14:06:14.011Z</time></trkpt><trkpt lat="39.994566" lon="9.6615941"><ele>122.80000000000001</ele><time>2026-04-06T14:06:15.012Z</time></trkpt><trkpt lat="39.9945908" lon="9.6617219"><ele>123.0</ele><time>2026-04-06T14:06:16.012Z</time></trkpt><trkpt lat="39.994653" lon="9.6618542"><ele>121.25</ele><time>2026-04-06T14:06:17.012Z</time></trkpt><trkpt lat="39.994737" lon="9.6619798"><ele>119.5</ele><time>2026-04-06T14:06:18.011Z</time></trkpt><trkpt lat="39.994841" lon="9.6621046"><ele>117.75</ele><time>2026-04-06T14:06:19.011Z</time></trkpt><trkpt lat="39.9949565" lon="9.6622298"><ele>116.0</ele><time>2026-04-06T14:06:20.011Z</time></trkpt><trkpt lat="39.9950692" lon="9.6623439"><ele>119.5</ele><time>2026-04-06T14:06:21.012Z</time></trkpt><trkpt lat="39.9951794" lon="9.662433"><ele>123.0</ele><time>2026-04-06T14:06:22.012Z</time></trkpt><trkpt lat="39.9952936" lon="9.6624956"><ele>126.5</ele><time>2026-04-06T14:06:23.011Z</time></trkpt><trkpt lat="39.9954158" lon="9.6625319"><ele>130.0</ele><time>2026-04-06T14:06:24.012Z</time></trkpt><trkpt lat="39.9955354" lon="9.6625629"><ele>130.0</ele><time>2026-04-06T14:06:25.012Z</time></trkpt><trkpt lat="39.9956539" lon="9.6625947"><ele>130.0</ele><time>2026-04-06T14:06:26.012Z</time></trkpt><trkpt lat="39.9957747" lon="9.6626257"><ele>130.0</ele><time>2026-04-06T14:06:27.011Z</time></trkpt><trkpt lat="39.9958988" lon="9.6626576"><ele>130.0</ele><time>2026-04-06T14:06:28.011Z</time></trkpt><trkpt lat="39.9960255" lon="9.6626934"><ele>130.5</ele><time>2026-04-06T14:06:29.012Z</time></trkpt><trkpt lat="39.9961526" lon="9.6627362"><ele>131.0</ele><time>2026-04-06T14:06:30.011Z</time></trkpt><trkpt lat="39.9962787" lon="9.6628212"><ele>131.5</ele><time>2026-04-06T14:06:31.011Z</time></trkpt><trkpt lat="39.9963982" lon="9.6629508"><ele>132.0</ele><time>2026-04-06T14:06:32.011Z</time></trkpt><trkpt lat="39.9965209" lon="9.6630949"><ele>132.0</ele><time>2026-04-06T14:06:33.011Z</time></trkpt><trkpt lat="39.9966422" lon="9.6632496"><ele>132.0</ele><time>2026-04-06T14:06:34.011Z</time></trkpt><trkpt lat="39.9967583" lon="9.6634009"><ele>132.0</ele><time>2026-04-06T14:06:35.012Z</time></trkpt><trkpt lat="39.9968448" lon="9.6635559"><ele>135.0</ele><time>2026-04-06T14:06:36.011Z</time></trkpt><trkpt lat="39.9969001" lon="9.6637384"><ele>138.0</ele><time>2026-04-06T14:06:37.012Z</time></trkpt><trkpt lat="39.9969188" lon="9.6639367"><ele>141.0</ele><time>2026-04-06T14:06:38.012Z</time></trkpt><trkpt lat="39.9968959" lon="9.6641106"><ele>144.0</ele><time>2026-04-06T14:06:39.011Z</time></trkpt><trkpt lat="39.9968271" lon="9.6642563"><ele>144.0</ele><time>2026-04-06T14:06:40.012Z</time></trkpt><trkpt lat="39.9967222" lon="9.6643432"><ele>144.0</ele><time>2026-04-06T14:06:41.012Z</time></trkpt><trkpt lat="39.9965886" lon="9.6643746"><ele>144.0</ele><time>2026-04-06T14:06:42.012Z</time></trkpt><trkpt lat="39.9964675" lon="9.6644081"><ele>144.0</ele><time>2026-04-06T14:06:43.012Z</time></trkpt><trkpt lat="39.9963619" lon="9.6644758"><ele>146.25</ele><time>2026-04-06T14:06:44.012Z</time></trkpt><trkpt lat="39.9962744" lon="9.664591"><ele>148.5</ele><time>2026-04-06T14:06:45.012Z</time></trkpt><trkpt lat="39.9962093" lon="9.6647603"><ele>150.75</ele><time>2026-04-06T14:06:46.012Z</time></trkpt><trkpt lat="39.9961441" lon="9.6649563"><ele>153.0</ele><time>2026-04-06T14:06:47.011Z</time></trkpt><trkpt lat="39.9960668" lon="9.6651597"><ele>158.66666666666666</ele><time>2026-04-06T14:06:48.011Z</time></trkpt><trkpt lat="39.995979" lon="9.665363"><ele>164.33333333333331</ele><time>2026-04-06T14:06:49.012Z</time></trkpt><trkpt lat="39.9959056" lon="9.665575"><ele>170.0</ele><time>2026-04-06T14:06:50.012Z</time></trkpt><trkpt lat="39.9958655" lon="9.6658166"><ele>170.0</ele><time>2026-04-06T14:06:51.012Z</time></trkpt><trkpt lat="39.9958414" lon="9.6660566"><ele>170.0</ele><time>2026-04-06T14:06:52.012Z</time></trkpt><trkpt lat="39.995818" lon="9.6662717"><ele>170.0</ele><time>2026-04-06T14:06:53.012Z</time></trkpt><trkpt lat="39.9958013" lon="9.6664709"><ele>169.25</ele><time>2026-04-06T14:06:54.011Z</time></trkpt><trkpt lat="39.9958121" lon="9.6666545"><ele>168.5</ele><time>2026-04-06T14:06:55.012Z</time></trkpt><trkpt lat="39.9958653" lon="9.6668332"><ele>167.75</ele><time>2026-04-06T14:06:56.012Z</time></trkpt><trkpt lat="39.9959508" lon="9.6670001"><ele>167.0</ele><time>2026-04-06T14:06:57.012Z</time></trkpt><trkpt lat="39.9960323" lon="9.6671503"><ele>161.75</ele><time>2026-04-06T14:06:58.012Z</time></trkpt><trkpt lat="39.9961215" lon="9.667268"><ele>156.5</ele><time>2026-04-06T14:06:59.011Z</time></trkpt><trkpt lat="39.9962282" lon="9.6673333"><ele>151.25</ele><time>2026-04-06T14:07:00.012Z</time></trkpt><trkpt lat="39.9963542" lon="9.6673432"><ele>146.0</ele><time>2026-04-06T14:07:01.012Z</time></trkpt><trkpt lat="39.9964827" lon="9.6672867"><ele>146.0</ele><time>2026-04-06T14:07:02.012Z</time></trkpt><trkpt lat="39.9966054" lon="9.6671701"><ele>146.0</ele><time>2026-04-06T14:07:03.012Z</time></trkpt><trkpt lat="39.9967336" lon="9.6670333"><ele>146.0</ele><time>2026-04-06T14:07:04.012Z</time></trkpt><trkpt lat="39.9968688" lon="9.6668948"><ele>151.33333333333331</ele><time>2026-04-06T14:07:05.011Z</time></trkpt><trkpt lat="39.9970105" lon="9.6667532"><ele>156.66666666666666</ele><time>2026-04-06T14:07:06.011Z</time></trkpt><trkpt lat="39.9971631" lon="9.6666377"><ele>162.0</ele><time>2026-04-06T14:07:07.012Z</time></trkpt><trkpt lat="39.9973381" lon="9.6665754"><ele>163.66666666666666</ele><time>2026-04-06T14:07:08.012Z</time></trkpt><trkpt lat="39.9975158" lon="9.6665531"><ele>165.33333333333331</ele><time>2026-04-06T14:07:09.011Z</time></trkpt><trkpt lat="39.9977047" lon="9.6665275"><ele>167.0</ele><time>2026-04-06T14:07:10.011Z</time></trkpt><trkpt lat="39.9978934" lon="9.6665172"><ele>167.0</ele><time>2026-04-06T14:07:11.012Z</time></trkpt><trkpt lat="39.9980805" lon="9.6665352"><ele>167.0</ele><time>2026-04-06T14:07:12.011Z</time></trkpt><trkpt lat="39.9982675" lon="9.6665701"><ele>167.0</ele><time>2026-04-06T14:07:13.012Z</time></trkpt><trkpt lat="39.9984414" lon="9.6665906"><ele>167.66666666666666</ele><time>2026-04-06T14:07:14.012Z</time></trkpt><trkpt lat="39.9986158" lon="9.6665926"><ele>168.33333333333334</ele><time>2026-04-06T14:07:15.012Z</time></trkpt><trkpt lat="39.9987754" lon="9.6665962"><ele>169.0</ele><time>2026-04-06T14:07:16.011Z</time></trkpt><trkpt lat="39.9989304" lon="9.6666409"><ele>169.0</ele><time>2026-04-06T14:07:17.012Z</time></trkpt><trkpt lat="39.9990805" lon="9.6667016"><ele>169.0</ele><time>2026-04-06T14:07:18.012Z</time></trkpt><trkpt lat="39.9992352" lon="9.6667484"><ele>169.0</ele><time>2026-04-06T14:07:19.012Z</time></trkpt><trkpt lat="39.9993935" lon="9.666804"><ele>167.66666666666669</ele><time>2026-04-06T14:07:20.012Z</time></trkpt><trkpt lat="39.9995528" lon="9.6668616"><ele>166.33333333333334</ele><time>2026-04-06T14:07:21.012Z</time></trkpt><trkpt lat="39.9997107" lon="9.6669154"><ele>165.0</ele><time>2026-04-06T14:07:22.012Z</time></trkpt><trkpt lat="39.9998577" lon="9.666973"><ele>168.75</ele><time>2026-04-06T14:07:23.012Z</time></trkpt><trkpt lat="39.9999898" lon="9.6670529"><ele>172.5</ele><time>2026-04-06T14:07:24.012Z</time></trkpt><trkpt lat="40.0001082" lon="9.667173"><ele>176.25</ele><time>2026-04-06T14:07:25.012Z</time></trkpt><trkpt lat="40.0002017" lon="9.667328"><ele>180.0</ele><time>2026-04-06T14:07:26.011Z</time></trkpt><trkpt lat="40.0002745" lon="9.6674782"><ele>180.0</ele><time>2026-04-06T14:07:27.012Z</time></trkpt><trkpt lat="40.0003776" lon="9.6675975"><ele>180.0</ele><time>2026-04-06T14:07:28.012Z</time></trkpt><trkpt lat="40.0005101" lon="9.6676797"><ele>180.0</ele><time>2026-04-06T14:07:29.012Z</time></trkpt><trkpt lat="40.0006449" lon="9.6677585"><ele>180.0</ele><time>2026-04-06T14:07:30.012Z</time></trkpt><trkpt lat="40.0007629" lon="9.6678899"><ele>184.0</ele><time>2026-04-06T14:07:31.012Z</time></trkpt><trkpt lat="40.0008673" lon="9.6680486"><ele>188.0</ele><time>2026-04-06T14:07:32.012Z</time></trkpt><trkpt lat="40.0009437" lon="9.668239"><ele>192.0</ele><time>2026-04-06T14:07:33.012Z</time></trkpt><trkpt lat="40.0010338" lon="9.6684264"><ele>192.0</ele><time>2026-04-06T14:07:34.012Z</time></trkpt><trkpt lat="40.0011424" lon="9.6685892"><ele>192.0</ele><time>2026-04-06T14:07:35.012Z</time></trkpt><trkpt lat="40.0012627" lon="9.6687285"><ele>192.0</ele><time>2026-04-06T14:07:36.012Z</time></trkpt><trkpt lat="40.001402" lon="9.668842"><ele>196.66666666666669</ele><time>2026-04-06T14:07:37.012Z</time></trkpt><trkpt lat="40.0015509" lon="9.6689327"><ele>201.33333333333334</ele><time>2026-04-06T14:07:38.012Z</time></trkpt><trkpt lat="40.0016912" lon="9.6690158"><ele>206.0</ele><time>2026-04-06T14:07:39.012Z</time></trkpt><trkpt lat="40.0018206" lon="9.6690806"><ele>206.0</ele><time>2026-04-06T14:07:40.012Z</time></trkpt><trkpt lat="40.0019532" lon="9.6691218"><ele>206.0</ele><time>2026-04-06T14:07:41.012Z</time></trkpt><trkpt lat="40.0020879" lon="9.6691091"><ele>206.0</ele><time>2026-04-06T14:07:42.012Z</time></trkpt><trkpt lat="40.0022259" lon="9.66905"><ele>206.0</ele><time>2026-04-06T14:07:43.011Z</time></trkpt><trkpt lat="40.0023573" lon="9.6689468"><ele>206.0</ele><time>2026-04-06T14:07:44.011Z</time></trkpt><trkpt lat="40.0024908" lon="9.6688558"><ele>206.0</ele><time>2026-04-06T14:07:45.012Z</time></trkpt><trkpt lat="40.0026241" lon="9.6687969"><ele>206.0</ele><time>2026-04-06T14:07:46.012Z</time></trkpt><trkpt lat="40.0027482" lon="9.6687882"><ele>206.0</ele><time>2026-04-06T14:07:47.012Z</time></trkpt><trkpt lat="40.0028742" lon="9.6688487"><ele>207.75</ele><time>2026-04-06T14:07:48.012Z</time></trkpt><trkpt lat="40.0030074" lon="9.6689139"><ele>209.5</ele><time>2026-04-06T14:07:49.012Z</time></trkpt><trkpt lat="40.0031477" lon="9.668987"><ele>211.25</ele><time>2026-04-06T14:07:50.012Z</time></trkpt><trkpt lat="40.0032765" lon="9.6690535"><ele>213.0</ele><time>2026-04-06T14:07:51.012Z</time></trkpt><trkpt lat="40.0034031" lon="9.6690974"><ele>214.33333333333331</ele><time>2026-04-06T14:07:52.012Z</time></trkpt><trkpt lat="40.0035399" lon="9.6690967"><ele>215.66666666666666</ele><time>2026-04-06T14:07:53.011Z</time></trkpt><trkpt lat="40.0036846" lon="9.6690336"><ele>217.0</ele><time>2026-04-06T14:07:54.012Z</time></trkpt><trkpt lat="40.0038246" lon="9.6689294"><ele>217.0</ele><time>2026-04-06T14:07:55.012Z</time></trkpt><trkpt lat="40.0039614" lon="9.6688138"><ele>217.0</ele><time>2026-04-06T14:07:56.012Z</time></trkpt><trkpt lat="40.0040809" lon="9.6687112"><ele>217.0</ele><time>2026-04-06T14:07:57.011Z</time></trkpt><trkpt lat="40.004198" lon="9.6686363"><ele>217.0</ele><time>2026-04-06T14:07:58.011Z</time></trkpt><trkpt lat="40.0043231" lon="9.668605"><ele>221.25</ele><time>2026-04-06T14:07:59.011Z</time></trkpt><trkpt lat="40.0044589" lon="9.6685986"><ele>225.5</ele><time>2026-04-06T14:08:00.011Z</time></trkpt><trkpt lat="40.0046059" lon="9.6686139"><ele>229.75</ele><time>2026-04-06T14:08:01.012Z</time></trkpt><trkpt lat="40.0047512" lon="9.6686246"><ele>234.0</ele><time>2026-04-06T14:08:02.011Z</time></trkpt><trkpt lat="40.0048861" lon="9.6686373"><ele>237.2</ele><time>2026-04-06T14:08:03.011Z</time></trkpt><trkpt lat="40.0050148" lon="9.6686469"><ele>240.39999999999998</ele><time>2026-04-06T14:08:04.012Z</time></trkpt><trkpt lat="40.0051328" lon="9.6686549"><ele>243.6</ele><time>2026-04-06T14:08:05.011Z</time></trkpt><trkpt lat="40.0052317" lon="9.6686593"><ele>246.8</ele><time>2026-04-06T14:08:06.012Z</time></trkpt><trkpt lat="40.0053189" lon="9.6686571"><ele>250.0</ele><time>2026-04-06T14:08:07.012Z</time></trkpt><trkpt lat="40.0054013" lon="9.6686127"><ele>242.5</ele><time>2026-04-06T14:08:08.012Z</time></trkpt><trkpt lat="40.0054622" lon="9.6685178"><ele>235.0</ele><time>2026-04-06T14:08:09.012Z</time></trkpt><trkpt lat="40.005478" lon="9.6683801"><ele>227.5</ele><time>2026-04-06T14:08:10.012Z</time></trkpt><trkpt lat="40.0054587" lon="9.6682001"><ele>220.0</ele><time>2026-04-06T14:08:11.011Z</time></trkpt><trkpt lat="40.0054216" lon="9.6679996"><ele>220.0</ele><time>2026-04-06T14:08:12.012Z</time></trkpt><trkpt lat="40.0053479" lon="9.667815"><ele>220.0</ele><time>2026-04-06T14:08:13.012Z</time></trkpt><trkpt lat="40.0052501" lon="9.6676621"><ele>220.0</ele><time>2026-04-06T14:08:14.011Z</time></trkpt><trkpt lat="40.0051605" lon="9.6675307"><ele>220.0</ele><time>2026-04-06T14:08:15.012Z</time></trkpt><trkpt lat="40.0050949" lon="9.6673968"><ele>219.8</ele><time>2026-04-06T14:08:16.011Z</time></trkpt><trkpt lat="40.0050655" lon="9.6672512"><ele>219.6</ele><time>2026-04-06T14:08:17.011Z</time></trkpt><trkpt lat="40.0050747" lon="9.667125"><ele>219.39999999999998</ele><time>2026-04-06T14:08:18.012Z</time></trkpt><trkpt lat="40.0051317" lon="9.6670531"><ele>219.2</ele><time>2026-04-06T14:08:19.012Z</time></trkpt><trkpt lat="40.0052152" lon="9.6670232"><ele>219.0</ele><time>2026-04-06T14:08:20.012Z</time></trkpt><trkpt lat="40.0053185" lon="9.6670187"><ele>219.0</ele><time>2026-04-06T14:08:21.012Z</time></trkpt><trkpt lat="40.0054326" lon="9.6670309"><ele>219.0</ele><time>2026-04-06T14:08:22.012Z</time></trkpt><trkpt lat="40.005542" lon="9.6670981"><ele>219.0</ele><time>2026-04-06T14:08:23.011Z</time></trkpt><trkpt lat="40.0056299" lon="9.667222"><ele>219.0</ele><time>2026-04-06T14:08:24.012Z</time></trkpt><trkpt lat="40.0057146" lon="9.6673648"><ele>219.0</ele><time>2026-04-06T14:08:25.012Z</time></trkpt><trkpt lat="40.0056876" lon="9.6675733"><ele>219.0</ele><time>2026-04-06T14:08:26.012Z</time></trkpt><trkpt lat="40.0057114" lon="9.667763"><ele>219.0</ele><time>2026-04-06T14:08:27.012Z</time></trkpt><trkpt lat="40.0057528" lon="9.6679455"><ele>219.25</ele><time>2026-04-06T14:08:28.012Z</time></trkpt><trkpt lat="40.0058115" lon="9.6681162"><ele>219.5</ele><time>2026-04-06T14:08:29.011Z</time></trkpt><trkpt lat="40.0058957" lon="9.6682702"><ele>219.75</ele><time>2026-04-06T14:08:30.012Z</time></trkpt><trkpt lat="40.0059972" lon="9.6684052"><ele>220.0</ele><time>2026-04-06T14:08:31.012Z</time></trkpt><trkpt lat="40.0061042" lon="9.6685231"><ele>229.0</ele><time>2026-04-06T14:08:32.012Z</time></trkpt><trkpt lat="40.0062075" lon="9.6686372"><ele>238.0</ele><time>2026-04-06T14:08:33.012Z</time></trkpt><trkpt lat="40.0063069" lon="9.6687551"><ele>247.0</ele><time>2026-04-06T14:08:34.012Z</time></trkpt><trkpt lat="40.006406" lon="9.6688807"><ele>256.0</ele><time>2026-04-06T14:08:35.012Z</time></trkpt><trkpt lat="40.0065062" lon="9.6690119"><ele>256.0</ele><time>2026-04-06T14:08:36.012Z</time></trkpt><trkpt lat="40.0066007" lon="9.6691394"><ele>256.0</ele><time>2026-04-06T14:08:37.012Z</time></trkpt><trkpt lat="40.0066985" lon="9.6692698"><ele>256.0</ele><time>2026-04-06T14:08:38.012Z</time></trkpt><trkpt lat="40.0067968" lon="9.6694019"><ele>256.0</ele><time>2026-04-06T14:08:39.012Z</time></trkpt><trkpt lat="40.0069006" lon="9.6695339"><ele>261.5</ele><time>2026-04-06T14:08:40.011Z</time></trkpt><trkpt lat="40.0070027" lon="9.6696707"><ele>267.0</ele><time>2026-04-06T14:08:41.012Z</time></trkpt><trkpt lat="40.0071104" lon="9.6698037"><ele>272.5</ele><time>2026-04-06T14:08:42.012Z</time></trkpt><trkpt lat="40.0072201" lon="9.6699091"><ele>278.0</ele><time>2026-04-06T14:08:43.012Z</time></trkpt><trkpt lat="40.0073244" lon="9.6700045"><ele>278.0</ele><time>2026-04-06T14:08:44.012Z</time></trkpt><trkpt lat="40.0074136" lon="9.670121"><ele>278.0</ele><time>2026-04-06T14:08:45.012Z</time></trkpt><trkpt lat="40.0075016" lon="9.6702474"><ele>278.0</ele><time>2026-04-06T14:08:46.011Z</time></trkpt><trkpt lat="40.0075756" lon="9.6703685"><ele>278.0</ele><time>2026-04-06T14:08:47.012Z</time></trkpt><trkpt lat="40.0076459" lon="9.670483"><ele>279.2</ele><time>2026-04-06T14:08:48.011Z</time></trkpt><trkpt lat="40.0077161" lon="9.6705981"><ele>280.4</ele><time>2026-04-06T14:08:49.012Z</time></trkpt><trkpt lat="40.0077853" lon="9.6707088"><ele>281.59999999999997</ele><time>2026-04-06T14:08:50.011Z</time></trkpt><trkpt lat="40.0078605" lon="9.6708004"><ele>282.8</ele><time>2026-04-06T14:08:51.011Z</time></trkpt><trkpt lat="40.0079408" lon="9.670862"><ele>284.0</ele><time>2026-04-06T14:08:52.011Z</time></trkpt><trkpt lat="40.0080272" lon="9.67088"><ele>284.0</ele><time>2026-04-06T14:08:53.012Z</time></trkpt><trkpt lat="40.0081134" lon="9.6708666"><ele>284.0</ele><time>2026-04-06T14:08:54.012Z</time></trkpt><trkpt lat="40.0081955" lon="9.670867"><ele>284.0</ele><time>2026-04-06T14:08:55.011Z</time></trkpt><trkpt lat="40.0082886" lon="9.670886"><ele>284.0</ele><time>2026-04-06T14:08:56.011Z</time></trkpt><trkpt lat="40.0083885" lon="9.670906"><ele>284.0</ele><time>2026-04-06T14:08:57.012Z</time></trkpt><trkpt lat="40.008505" lon="9.6709073"><ele>280.25</ele><time>2026-04-06T14:08:58.012Z</time></trkpt><trkpt lat="40.0086295" lon="9.6708871"><ele>276.5</ele><time>2026-04-06T14:08:59.011Z</time></trkpt><trkpt lat="40.0087503" lon="9.6708499"><ele>272.75</ele><time>2026-04-06T14:09:00.012Z</time></trkpt><trkpt lat="40.0088617" lon="9.6708081"><ele>269.0</ele><time>2026-04-06T14:09:01.011Z</time></trkpt><trkpt lat="40.0089665" lon="9.6707684"><ele>269.0</ele><time>2026-04-06T14:09:02.011Z</time></trkpt><trkpt lat="40.0090678" lon="9.6707289"><ele>269.0</ele><time>2026-04-06T14:09:03.012Z</time></trkpt><trkpt lat="40.009169" lon="9.6706945"><ele>269.0</ele><time>2026-04-06T14:09:04.012Z</time></trkpt><trkpt lat="40.0092534" lon="9.6706605"><ele>269.0</ele><time>2026-04-06T14:09:05.012Z</time></trkpt><trkpt lat="40.0093374" lon="9.6706199"><ele>269.0</ele><time>2026-04-06T14:09:06.012Z</time></trkpt><trkpt lat="40.0094198" lon="9.670565"><ele>266.8</ele><time>2026-04-06T14:09:07.012Z</time></trkpt><trkpt lat="40.0094805" lon="9.6704709"><ele>264.59999999999997</ele><time>2026-04-06T14:09:08.012Z</time></trkpt><trkpt lat="40.0095316" lon="9.6703564"><ele>262.4</ele><time>2026-04-06T14:09:09.012Z</time></trkpt><trkpt lat="40.0095698" lon="9.6702245"><ele>260.2</ele><time>2026-04-06T14:09:10.012Z</time></trkpt><trkpt lat="40.0095994" lon="9.6700818"><ele>258.0</ele><time>2026-04-06T14:09:11.012Z</time></trkpt><trkpt lat="40.0096364" lon="9.6699328"><ele>258.0</ele><time>2026-04-06T14:09:12.012Z</time></trkpt><trkpt lat="40.0096796" lon="9.6697784"><ele>258.0</ele><time>2026-04-06T14:09:13.012Z</time></trkpt><trkpt lat="40.00971" lon="9.6696427"><ele>258.0</ele><time>2026-04-06T14:09:14.011Z</time></trkpt><trkpt lat="40.00975" lon="9.6695141"><ele>258.0</ele><time>2026-04-06T14:09:15.012Z</time></trkpt><trkpt lat="40.0098026" lon="9.669399"><ele>258.0</ele><time>2026-04-06T14:09:16.012Z</time></trkpt><trkpt lat="40.0098561" lon="9.6692999"><ele>253.8</ele><time>2026-04-06T14:09:17.011Z</time></trkpt><trkpt lat="40.0099183" lon="9.6692131"><ele>249.60000000000002</ele><time>2026-04-06T14:09:18.012Z</time></trkpt><trkpt lat="40.0099681" lon="9.6691147"><ele>245.39999999999998</ele><time>2026-04-06T14:09:19.012Z</time></trkpt><trkpt lat="40.0099986" lon="9.6689957"><ele>241.2</ele><time>2026-04-06T14:09:20.011Z</time></trkpt><trkpt lat="40.0100111" lon="9.6688747"><ele>237.0</ele><time>2026-04-06T14:09:21.012Z</time></trkpt><trkpt lat="40.0100099" lon="9.668753"><ele>243.16666666666666</ele><time>2026-04-06T14:09:22.011Z</time></trkpt><trkpt lat="40.0100024" lon="9.6686282"><ele>249.33333333333331</ele><time>2026-04-06T14:09:23.011Z</time></trkpt><trkpt lat="40.0100063" lon="9.6685135"><ele>255.5</ele><time>2026-04-06T14:09:24.012Z</time></trkpt><trkpt lat="40.0100188" lon="9.6684115"><ele>261.66666666666663</ele><time>2026-04-06T14:09:25.012Z</time></trkpt><trkpt lat="40.0100496" lon="9.6683311"><ele>267.8333333333333</ele><time>2026-04-06T14:09:26.012Z</time></trkpt><trkpt lat="40.0100977" lon="9.6682756"><ele>274.0</ele><time>2026-04-06T14:09:27.011Z</time></trkpt><trkpt lat="40.0101667" lon="9.6682631"><ele>274.0</ele><time>2026-04-06T14:09:28.012Z</time></trkpt><trkpt lat="40.0102439" lon="9.6682771"><ele>274.0</ele><time>2026-04-06T14:09:29.012Z</time></trkpt><trkpt lat="40.010327" lon="9.6683054"><ele>274.0</ele><time>2026-04-06T14:09:30.012Z</time></trkpt><trkpt lat="40.0104122" lon="9.668348"><ele>274.0</ele><time>2026-04-06T14:09:31.011Z</time></trkpt><trkpt lat="40.0104933" lon="9.6684059"><ele>274.0</ele><time>2026-04-06T14:09:32.012Z</time></trkpt><trkpt lat="40.0105604" lon="9.6684933"><ele>274.0</ele><time>2026-04-06T14:09:33.012Z</time></trkpt><trkpt lat="40.0106166" lon="9.6685895"><ele>276.2</ele><time>2026-04-06T14:09:34.012Z</time></trkpt><trkpt lat="40.0106637" lon="9.6686968"><ele>278.4</ele><time>2026-04-06T14:09:35.011Z</time></trkpt><trkpt lat="40.0107097" lon="9.6688086"><ele>280.6</ele><time>2026-04-06T14:09:36.012Z</time></trkpt><trkpt lat="40.0107519" lon="9.6689252"><ele>282.8</ele><time>2026-04-06T14:09:37.012Z</time></trkpt><trkpt lat="40.0107975" lon="9.6690474"><ele>285.0</ele><time>2026-04-06T14:09:38.011Z</time></trkpt><trkpt lat="40.0108444" lon="9.6691723"><ele>286.2</ele><time>2026-04-06T14:09:39.012Z</time></trkpt><trkpt lat="40.0108964" lon="9.6693044"><ele>287.4</ele><time>2026-04-06T14:09:40.012Z</time></trkpt><trkpt lat="40.010962" lon="9.6694274"><ele>288.6</ele><time>2026-04-06T14:09:41.012Z</time></trkpt><trkpt lat="40.0110396" lon="9.6695304"><ele>289.8</ele><time>2026-04-06T14:09:42.012Z</time></trkpt><trkpt lat="40.0111259" lon="9.6696199"><ele>291.0</ele><time>2026-04-06T14:09:43.011Z</time></trkpt><trkpt lat="40.0112056" lon="9.6697083"><ele>295.0</ele><time>2026-04-06T14:09:44.011Z</time></trkpt><trkpt lat="40.0112645" lon="9.669802"><ele>299.0</ele><time>2026-04-06T14:09:45.012Z</time></trkpt><trkpt lat="40.0112996" lon="9.669909"><ele>303.0</ele><time>2026-04-06T14:09:46.012Z</time></trkpt><trkpt lat="40.0113109" lon="9.670025"><ele>307.0</ele><time>2026-04-06T14:09:47.012Z</time></trkpt><trkpt lat="40.0113051" lon="9.6701422"><ele>311.0</ele><time>2026-04-06T14:09:48.012Z</time></trkpt><trkpt lat="40.0112841" lon="9.6702711"><ele>312.6</ele><time>2026-04-06T14:09:49.012Z</time></trkpt><trkpt lat="40.0112462" lon="9.6704016"><ele>314.20000000000005</ele><time>2026-04-06T14:09:50.012Z</time></trkpt><trkpt lat="40.0111971" lon="9.6705358"><ele>315.79999999999995</ele><time>2026-04-06T14:09:51.012Z</time></trkpt><trkpt lat="40.0111523" lon="9.6706617"><ele>317.4</ele><time>2026-04-06T14:09:52.012Z</time></trkpt><trkpt lat="40.0111129" lon="9.6707823"><ele>319.0</ele><time>2026-04-06T14:09:53.012Z</time></trkpt><trkpt lat="40.0110748" lon="9.6709"><ele>319.0</ele><time>2026-04-06T14:09:54.011Z</time></trkpt><trkpt lat="40.0110409" lon="9.6710131"><ele>319.0</ele><time>2026-04-06T14:09:55.012Z</time></trkpt><trkpt lat="40.0110055" lon="9.6711292"><ele>319.0</ele><time>2026-04-06T14:09:56.012Z</time></trkpt><trkpt lat="40.0109696" lon="9.6712479"><ele>319.0</ele><time>2026-04-06T14:09:57.011Z</time></trkpt><trkpt lat="40.0109464" lon="9.6713643"><ele>319.0</ele><time>2026-04-06T14:09:58.012Z</time></trkpt><trkpt lat="40.0109282" lon="9.6714826"><ele>319.0</ele><time>2026-04-06T14:09:59.012Z</time></trkpt><trkpt lat="40.0109206" lon="9.6716034"><ele>319.0</ele><time>2026-04-06T14:10:00.012Z</time></trkpt><trkpt lat="40.01092" lon="9.6717212"><ele>319.0</ele><time>2026-04-06T14:10:01.012Z</time></trkpt><trkpt lat="40.0109385" lon="9.6718394"><ele>319.0</ele><time>2026-04-06T14:10:02.012Z</time></trkpt><trkpt lat="40.0109717" lon="9.6719538"><ele>319.0</ele><time>2026-04-06T14:10:03.012Z</time></trkpt><trkpt lat="40.0110104" lon="9.6720649"><ele>322.0</ele><time>2026-04-06T14:10:04.012Z</time></trkpt><trkpt lat="40.0110538" lon="9.6721756"><ele>325.0</ele><time>2026-04-06T14:10:05.011Z</time></trkpt><trkpt lat="40.0110989" lon="9.6722813"><ele>328.0</ele><time>2026-04-06T14:10:06.012Z</time></trkpt><trkpt lat="40.0111554" lon="9.67238"><ele>331.0</ele><time>2026-04-06T14:10:07.012Z</time></trkpt><trkpt lat="40.011229" lon="9.672465"><ele>334.0</ele><time>2026-04-06T14:10:08.012Z</time></trkpt><trkpt lat="40.0113137" lon="9.672539"><ele>334.0</ele><time>2026-04-06T14:10:09.012Z</time></trkpt><trkpt lat="40.0114019" lon="9.6726174"><ele>334.0</ele><time>2026-04-06T14:10:10.012Z</time></trkpt><trkpt lat="40.0114911" lon="9.6727019"><ele>334.0</ele><time>2026-04-06T14:10:11.012Z</time></trkpt><trkpt lat="40.0115828" lon="9.6727881"><ele>334.0</ele><time>2026-04-06T14:10:12.012Z</time></trkpt><trkpt lat="40.0116752" lon="9.6728685"><ele>334.0</ele><time>2026-04-06T14:10:13.012Z</time></trkpt><trkpt lat="40.0117667" lon="9.6729449"><ele>334.8333333333333</ele><time>2026-04-06T14:10:14.012Z</time></trkpt><trkpt lat="40.0118537" lon="9.673013"><ele>335.66666666666663</ele><time>2026-04-06T14:10:15.012Z</time></trkpt><trkpt lat="40.0119296" lon="9.6730583"><ele>336.5</ele><time>2026-04-06T14:10:16.012Z</time></trkpt><trkpt lat="40.011998" lon="9.6730782"><ele>337.3333333333333</ele><time>2026-04-06T14:10:17.011Z</time></trkpt><trkpt lat="40.0120648" lon="9.673062"><ele>338.1666666666667</ele><time>2026-04-06T14:10:18.012Z</time></trkpt><trkpt lat="40.012126" lon="9.673024"><ele>339.0</ele><time>2026-04-06T14:10:19.011Z</time></trkpt><trkpt lat="40.0121806" lon="9.672962"><ele>339.0</ele><time>2026-04-06T14:10:20.011Z</time></trkpt><trkpt lat="40.0122421" lon="9.6728965"><ele>339.0</ele><time>2026-04-06T14:10:21.012Z</time></trkpt><trkpt lat="40.0123037" lon="9.6728433"><ele>339.0</ele><time>2026-04-06T14:10:22.012Z</time></trkpt><trkpt lat="40.0123727" lon="9.6727946"><ele>339.0</ele><time>2026-04-06T14:10:23.012Z</time></trkpt><trkpt lat="40.0124409" lon="9.6727633"><ele>339.0</ele><time>2026-04-06T14:10:24.011Z</time></trkpt><trkpt lat="40.0125221" lon="9.6727575"><ele>339.0</ele><time>2026-04-06T14:10:25.012Z</time></trkpt><trkpt lat="40.0126053" lon="9.6727753"><ele>339.6</ele><time>2026-04-06T14:10:26.012Z</time></trkpt><trkpt lat="40.0126884" lon="9.672817"><ele>340.2</ele><time>2026-04-06T14:10:27.012Z</time></trkpt><trkpt lat="40.0127673" lon="9.6728856"><ele>340.8</ele><time>2026-04-06T14:10:28.011Z</time></trkpt><trkpt lat="40.0128392" lon="9.6729675"><ele>341.40000000000003</ele><time>2026-04-06T14:10:29.012Z</time></trkpt><trkpt lat="40.0129179" lon="9.6730631"><ele>342.0</ele><time>2026-04-06T14:10:30.012Z</time></trkpt><trkpt lat="40.0129994" lon="9.6731644"><ele>342.0</ele><time>2026-04-06T14:10:31.012Z</time></trkpt><trkpt lat="40.0130841" lon="9.673274"><ele>342.0</ele><time>2026-04-06T14:10:32.012Z</time></trkpt><trkpt lat="40.0131645" lon="9.673388"><ele>342.0</ele><time>2026-04-06T14:10:33.012Z</time></trkpt><trkpt lat="40.013223" lon="9.6735336"><ele>342.0</ele><time>2026-04-06T14:10:34.012Z</time></trkpt><trkpt lat="40.0132646" lon="9.6736901"><ele>342.25</ele><time>2026-04-06T14:10:35.012Z</time></trkpt><trkpt lat="40.013319" lon="9.673845"><ele>342.5</ele><time>2026-04-06T14:10:36.011Z</time></trkpt><trkpt lat="40.0133949" lon="9.6739814"><ele>342.75</ele><time>2026-04-06T14:10:37.011Z</time></trkpt><trkpt lat="40.0134877" lon="9.6740983"><ele>343.0</ele><time>2026-04-06T14:10:38.012Z</time></trkpt><trkpt lat="40.0135701" lon="9.6742231"><ele>343.0</ele><time>2026-04-06T14:10:39.012Z</time></trkpt><trkpt lat="40.0136065" lon="9.6743692"><ele>343.0</ele><time>2026-04-06T14:10:40.012Z</time></trkpt><trkpt lat="40.01361" lon="9.6745152"><ele>343.0</ele><time>2026-04-06T14:10:41.012Z</time></trkpt><trkpt lat="40.0135847" lon="9.6746486"><ele>343.0</ele><time>2026-04-06T14:10:42.012Z</time></trkpt><trkpt lat="40.0135562" lon="9.6747687"><ele>343.0</ele><time>2026-04-06T14:10:43.011Z</time></trkpt><trkpt lat="40.0135296" lon="9.6748812"><ele>345.2</ele><time>2026-04-06T14:10:44.012Z</time></trkpt><trkpt lat="40.0135186" lon="9.6749965"><ele>347.4</ele><time>2026-04-06T14:10:45.012Z</time></trkpt><trkpt lat="40.0135428" lon="9.6751103"><ele>349.59999999999997</ele><time>2026-04-06T14:10:46.011Z</time></trkpt><trkpt lat="40.0136048" lon="9.6752156"><ele>351.79999999999995</ele><time>2026-04-06T14:10:47.011Z</time></trkpt><trkpt lat="40.0136778" lon="9.6753123"><ele>354.0</ele><time>2026-04-06T14:10:48.011Z</time></trkpt><trkpt lat="40.0137453" lon="9.6754162"><ele>356.0</ele><time>2026-04-06T14:10:49.012Z</time></trkpt><trkpt lat="40.0137901" lon="9.6755369"><ele>358.0</ele><time>2026-04-06T14:10:50.012Z</time></trkpt><trkpt lat="40.0138142" lon="9.6756677"><ele>360.0</ele><time>2026-04-06T14:10:51.012Z</time></trkpt><trkpt lat="40.0138197" lon="9.6758063"><ele>362.0</ele><time>2026-04-06T14:10:52.012Z</time></trkpt><trkpt lat="40.0138018" lon="9.6759423"><ele>364.0</ele><time>2026-04-06T14:10:53.011Z</time></trkpt><trkpt lat="40.0137719" lon="9.6760786"><ele>364.6</ele><time>2026-04-06T14:10:54.012Z</time></trkpt><trkpt lat="40.0137322" lon="9.6762091"><ele>365.2</ele><time>2026-04-06T14:10:55.011Z</time></trkpt><trkpt lat="40.0136759" lon="9.676327"><ele>365.8</ele><time>2026-04-06T14:10:56.011Z</time></trkpt><trkpt lat="40.0136172" lon="9.6764303"><ele>366.40000000000003</ele><time>2026-04-06T14:10:57.012Z</time></trkpt><trkpt lat="40.0135519" lon="9.6765191"><ele>367.0</ele><time>2026-04-06T14:10:58.012Z</time></trkpt><trkpt lat="40.0134854" lon="9.6766082"><ele>367.0</ele><time>2026-04-06T14:10:59.012Z</time></trkpt><trkpt lat="40.0134167" lon="9.6767023"><ele>367.0</ele><time>2026-04-06T14:11:00.011Z</time></trkpt><trkpt lat="40.0133644" lon="9.6768022"><ele>367.0</ele><time>2026-04-06T14:11:01.011Z</time></trkpt><trkpt lat="40.0133393" lon="9.6769083"><ele>367.0</ele><time>2026-04-06T14:11:02.012Z</time></trkpt><trkpt lat="40.0133363" lon="9.6770215"><ele>367.0</ele><time>2026-04-06T14:11:03.012Z</time></trkpt><trkpt lat="40.0133632" lon="9.677133"><ele>368.5</ele><time>2026-04-06T14:11:04.012Z</time></trkpt><trkpt lat="40.0134216" lon="9.6772293"><ele>370.0</ele><time>2026-04-06T14:11:05.012Z</time></trkpt><trkpt lat="40.0135153" lon="9.6773176"><ele>371.5</ele><time>2026-04-06T14:11:06.012Z</time></trkpt><trkpt lat="40.0136335" lon="9.6774341"><ele>373.0</ele><time>2026-04-06T14:11:07.012Z</time></trkpt><trkpt lat="40.0137442" lon="9.6775857"><ele>381.3333333333333</ele><time>2026-04-06T14:11:08.012Z</time></trkpt><trkpt lat="40.0138382" lon="9.6777708"><ele>389.66666666666663</ele><time>2026-04-06T14:11:09.012Z</time></trkpt><trkpt lat="40.0138969" lon="9.6779632"><ele>398.0</ele><time>2026-04-06T14:11:10.012Z</time></trkpt><trkpt lat="40.0139201" lon="9.6781464"><ele>398.0</ele><time>2026-04-06T14:11:11.012Z</time></trkpt><trkpt lat="40.0139353" lon="9.6783118"><ele>398.0</ele><time>2026-04-06T14:11:12.012Z</time></trkpt><trkpt lat="40.0139722" lon="9.6784583"><ele>398.0</ele><time>2026-04-06T14:11:13.011Z</time></trkpt><trkpt lat="40.0140358" lon="9.6785595"><ele>398.0</ele><time>2026-04-06T14:11:14.012Z</time></trkpt><trkpt lat="40.0141319" lon="9.678619"><ele>399.0</ele><time>2026-04-06T14:11:15.012Z</time></trkpt><trkpt lat="40.0142422" lon="9.6786196"><ele>400.0</ele><time>2026-04-06T14:11:16.012Z</time></trkpt><trkpt lat="40.0143469" lon="9.6785795"><ele>401.0</ele><time>2026-04-06T14:11:17.011Z</time></trkpt><trkpt lat="40.0144445" lon="9.6785391"><ele>402.0</ele><time>2026-04-06T14:11:18.012Z</time></trkpt><trkpt lat="40.0145546" lon="9.6784946"><ele>403.0</ele><time>2026-04-06T14:11:19.012Z</time></trkpt><trkpt lat="40.0146709" lon="9.6784689"><ele>403.0</ele><time>2026-04-06T14:11:20.012Z</time></trkpt><trkpt lat="40.0147935" lon="9.6784669"><ele>403.0</ele><time>2026-04-06T14:11:21.011Z</time></trkpt><trkpt lat="40.0149107" lon="9.6785098"><ele>403.0</ele><time>2026-04-06T14:11:22.012Z</time></trkpt><trkpt lat="40.0150183" lon="9.6785783"><ele>403.0</ele><time>2026-04-06T14:11:23.012Z</time></trkpt><trkpt lat="40.0151191" lon="9.6786428"><ele>403.0</ele><time>2026-04-06T14:11:24.012Z</time></trkpt><trkpt lat="40.015227" lon="9.6786798"><ele>403.0</ele><time>2026-04-06T14:11:25.011Z</time></trkpt><trkpt lat="40.0153346" lon="9.678691"><ele>403.0</ele><time>2026-04-06T14:11:26.012Z</time></trkpt><trkpt lat="40.0154413" lon="9.6786676"><ele>403.0</ele><time>2026-04-06T14:11:27.011Z</time></trkpt><trkpt lat="40.0155547" lon="9.6786288"><ele>403.0</ele><time>2026-04-06T14:11:28.012Z</time></trkpt><trkpt lat="40.0156717" lon="9.6786125"><ele>403.0</ele><time>2026-04-06T14:11:29.012Z</time></trkpt><trkpt lat="40.0157907" lon="9.678626"><ele>403.0</ele><time>2026-04-06T14:11:30.012Z</time></trkpt><trkpt lat="40.0159029" lon="9.6786597"><ele>403.0</ele><time>2026-04-06T14:11:31.012Z</time></trkpt><trkpt lat="40.0160227" lon="9.6786958"><ele>403.0</ele><time>2026-04-06T14:11:32.012Z</time></trkpt><trkpt lat="40.016153" lon="9.6786958"><ele>407.25</ele><time>2026-04-06T14:11:33.012Z</time></trkpt><trkpt lat="40.0162787" lon="9.6786941"><ele>411.5</ele><time>2026-04-06T14:11:34.012Z</time></trkpt><trkpt lat="40.0163989" lon="9.6786842"><ele>415.75</ele><time>2026-04-06T14:11:35.012Z</time></trkpt><trkpt lat="40.0165204" lon="9.678668"><ele>420.0</ele><time>2026-04-06T14:11:36.012Z</time></trkpt><trkpt lat="40.0166328" lon="9.6786229"><ele>410.25</ele><time>2026-04-06T14:11:37.012Z</time></trkpt><trkpt lat="40.0167334" lon="9.6785418"><ele>400.5</ele><time>2026-04-06T14:11:38.012Z</time></trkpt><trkpt lat="40.0168221" lon="9.6784434"><ele>390.75</ele><time>2026-04-06T14:11:39.012Z</time></trkpt><trkpt lat="40.016908" lon="9.6783412"><ele>381.0</ele><time>2026-04-06T14:11:40.011Z</time></trkpt><trkpt lat="40.016998" lon="9.6782466"><ele>381.0</ele><time>2026-04-06T14:11:41.012Z</time></trkpt><trkpt lat="40.0170892" lon="9.6781602"><ele>381.0</ele><time>2026-04-06T14:11:42.011Z</time></trkpt><trkpt lat="40.0171744" lon="9.6780931"><ele>381.0</ele><time>2026-04-06T14:11:43.012Z</time></trkpt><trkpt lat="40.0172633" lon="9.67805"><ele>381.0</ele><time>2026-04-06T14:11:44.012Z</time></trkpt><trkpt lat="40.0173611" lon="9.6780518"><ele>381.0</ele><time>2026-04-06T14:11:45.012Z</time></trkpt><trkpt lat="40.017456" lon="9.6781089"><ele>384.8</ele><time>2026-04-06T14:11:46.012Z</time></trkpt><trkpt lat="40.0175385" lon="9.6781764"><ele>388.6</ele><time>2026-04-06T14:11:47.011Z</time></trkpt><trkpt lat="40.0176313" lon="9.6782437"><ele>392.4</ele><time>2026-04-06T14:11:48.012Z</time></trkpt><trkpt lat="40.0177299" lon="9.678278"><ele>396.2</ele><time>2026-04-06T14:11:49.012Z</time></trkpt><trkpt lat="40.0178592" lon="9.6782695"><ele>400.0</ele><time>2026-04-06T14:11:50.012Z</time></trkpt><trkpt lat="40.0180233" lon="9.6782372"><ele>400.0</ele><time>2026-04-06T14:11:51.012Z</time></trkpt><trkpt lat="40.0182268" lon="9.6782283"><ele>400.0</ele><time>2026-04-06T14:11:52.012Z</time></trkpt><trkpt lat="40.0184529" lon="9.6782354"><ele>400.0</ele><time>2026-04-06T14:11:53.012Z</time></trkpt><trkpt lat="40.0186948" lon="9.6782667"><ele>401.0</ele><time>2026-04-06T14:11:54.012Z</time></trkpt><trkpt lat="40.0189226" lon="9.6783088"><ele>402.0</ele><time>2026-04-06T14:11:55.011Z</time></trkpt><trkpt lat="40.0191252" lon="9.6783586"><ele>403.0</ele><time>2026-04-06T14:11:56.012Z</time></trkpt><trkpt lat="40.0193021" lon="9.6784087"><ele>404.0</ele><time>2026-04-06T14:11:57.012Z</time></trkpt><trkpt lat="40.0194484" lon="9.6784505"><ele>405.0</ele><time>2026-04-06T14:11:58.012Z</time></trkpt><trkpt lat="40.0195657" lon="9.6784587"><ele>406.0</ele><time>2026-04-06T14:11:59.011Z</time></trkpt><trkpt lat="40.0196633" lon="9.678416"><ele>407.0</ele><time>2026-04-06T14:12:00.012Z</time></trkpt><trkpt lat="40.0197489" lon="9.6783059"><ele>407.0</ele><time>2026-04-06T14:12:01.012Z</time></trkpt><trkpt lat="40.0198361" lon="9.6781581"><ele>407.0</ele><time>2026-04-06T14:12:02.012Z</time></trkpt><trkpt lat="40.0199225" lon="9.6780194"><ele>407.0</ele><time>2026-04-06T14:12:03.012Z</time></trkpt><trkpt lat="40.0200175" lon="9.6778848"><ele>407.0</ele><time>2026-04-06T14:12:04.012Z</time></trkpt><trkpt lat="40.0201253" lon="9.6777836"><ele>404.5</ele><time>2026-04-06T14:12:05.011Z</time></trkpt><trkpt lat="40.0202168" lon="9.6776913"><ele>402.0</ele><time>2026-04-06T14:12:06.012Z</time></trkpt><trkpt lat="40.0202939" lon="9.6775619"><ele>399.5</ele><time>2026-04-06T14:12:07.012Z</time></trkpt><trkpt lat="40.0203418" lon="9.6774092"><ele>397.0</ele><time>2026-04-06T14:12:08.011Z</time></trkpt><trkpt lat="40.0203687" lon="9.6772372"><ele>397.0</ele><time>2026-04-06T14:12:09.012Z</time></trkpt><trkpt lat="40.0203763" lon="9.6770611"><ele>397.0</ele><time>2026-04-06T14:12:10.011Z</time></trkpt><trkpt lat="40.0203922" lon="9.6768832"><ele>397.0</ele><time>2026-04-06T14:12:11.012Z</time></trkpt><trkpt lat="40.0204427" lon="9.6767105"><ele>397.0</ele><time>2026-04-06T14:12:12.012Z</time></trkpt><trkpt lat="40.02051" lon="9.6765443"><ele>392.0</ele><time>2026-04-06T14:12:13.011Z</time></trkpt><trkpt lat="40.0205488" lon="9.6763549"><ele>387.0</ele><time>2026-04-06T14:12:14.011Z</time></trkpt><trkpt lat="40.0205914" lon="9.6761397"><ele>382.0</ele><time>2026-04-06T14:12:15.011Z</time></trkpt><trkpt lat="40.0206437" lon="9.675929"><ele>380.66666666666663</ele><time>2026-04-06T14:12:16.012Z</time></trkpt><trkpt lat="40.0206933" lon="9.6756909"><ele>379.3333333333333</ele><time>2026-04-06T14:12:17.011Z</time></trkpt><trkpt lat="40.0207362" lon="9.6754524"><ele>378.0</ele><time>2026-04-06T14:12:18.011Z</time></trkpt><trkpt lat="40.0208035" lon="9.675212"><ele>391.0</ele><time>2026-04-06T14:12:19.012Z</time></trkpt><trkpt lat="40.0208968" lon="9.6749806"><ele>404.0</ele><time>2026-04-06T14:12:20.012Z</time></trkpt><trkpt lat="40.0209962" lon="9.6747534"><ele>417.0</ele><time>2026-04-06T14:12:21.012Z</time></trkpt><trkpt lat="40.0211182" lon="9.6745329"><ele>412.0</ele><time>2026-04-06T14:12:22.012Z</time></trkpt><trkpt lat="40.0212574" lon="9.6743194"><ele>407.0</ele><time>2026-04-06T14:12:23.011Z</time></trkpt><trkpt lat="40.0214071" lon="9.6741079"><ele>402.0</ele><time>2026-04-06T14:12:24.012Z</time></trkpt><trkpt lat="40.0215682" lon="9.673901"><ele>403.66666666666663</ele><time>2026-04-06T14:12:25.012Z</time></trkpt><trkpt lat="40.0217353" lon="9.6736992"><ele>405.3333333333333</ele><time>2026-04-06T14:12:26.012Z</time></trkpt><trkpt lat="40.0218829" lon="9.6734857"><ele>407.0</ele><time>2026-04-06T14:12:27.012Z</time></trkpt><trkpt lat="40.0220126" lon="9.6732657"><ele>407.0</ele><time>2026-04-06T14:12:28.011Z</time></trkpt><trkpt lat="40.0221402" lon="9.6730541"><ele>407.0</ele><time>2026-04-06T14:12:29.012Z</time></trkpt><trkpt lat="40.022307" lon="9.672874"><ele>407.0</ele><time>2026-04-06T14:12:30.012Z</time></trkpt><trkpt lat="40.0224696" lon="9.6727012"><ele>413.3333333333333</ele><time>2026-04-06T14:12:31.012Z</time></trkpt><trkpt lat="40.0226383" lon="9.6725224"><ele>419.66666666666663</ele><time>2026-04-06T14:12:32.011Z</time></trkpt><trkpt lat="40.0227998" lon="9.6723235"><ele>426.0</ele><time>2026-04-06T14:12:33.012Z</time></trkpt><trkpt lat="40.0229416" lon="9.6720876"><ele>430.66666666666663</ele><time>2026-04-06T14:12:34.011Z</time></trkpt><trkpt lat="40.0230622" lon="9.6718554"><ele>435.3333333333333</ele><time>2026-04-06T14:12:35.011Z</time></trkpt><trkpt lat="40.0231999" lon="9.6716377"><ele>440.0</ele><time>2026-04-06T14:12:36.012Z</time></trkpt><trkpt lat="40.0233545" lon="9.6714449"><ele>440.0</ele><time>2026-04-06T14:12:37.011Z</time></trkpt><trkpt lat="40.0235006" lon="9.671274"><ele>440.0</ele><time>2026-04-06T14:12:38.012Z</time></trkpt><trkpt lat="40.0236352" lon="9.6711203"><ele>440.0</ele><time>2026-04-06T14:12:39.012Z</time></trkpt><trkpt lat="40.0237785" lon="9.6709922"><ele>438.66666666666663</ele><time>2026-04-06T14:12:40.012Z</time></trkpt><trkpt lat="40.0239427" lon="9.6709168"><ele>437.33333333333337</ele><time>2026-04-06T14:12:41.011Z</time></trkpt><trkpt lat="40.0241035" lon="9.6708863"><ele>436.0</ele><time>2026-04-06T14:12:42.011Z</time></trkpt><trkpt lat="40.0242484" lon="9.6708729"><ele>436.0</ele><time>2026-04-06T14:12:43.011Z</time></trkpt><trkpt lat="40.0243805" lon="9.670869"><ele>436.0</ele><time>2026-04-06T14:12:44.012Z</time></trkpt><trkpt lat="40.0245087" lon="9.6708535"><ele>436.0</ele><time>2026-04-06T14:12:45.012Z</time></trkpt><trkpt lat="40.0246255" lon="9.6708008"><ele>436.0</ele><time>2026-04-06T14:12:46.012Z</time></trkpt><trkpt lat="40.0247384" lon="9.670718"><ele>436.0</ele><time>2026-04-06T14:12:47.012Z</time></trkpt><trkpt lat="40.0248463" lon="9.6706056"><ele>436.0</ele><time>2026-04-06T14:12:48.012Z</time></trkpt><trkpt lat="40.0249275" lon="9.6704474"><ele>436.0</ele><time>2026-04-06T14:12:49.011Z</time></trkpt><trkpt lat="40.0250094" lon="9.6702898"><ele>436.0</ele><time>2026-04-06T14:12:50.012Z</time></trkpt><trkpt lat="40.0250879" lon="9.6701162"><ele>437.0</ele><time>2026-04-06T14:12:51.012Z</time></trkpt><trkpt lat="40.0251815" lon="9.6699509"><ele>438.0</ele><time>2026-04-06T14:12:52.012Z</time></trkpt><trkpt lat="40.0252978" lon="9.6698149"><ele>439.0</ele><time>2026-04-06T14:12:53.011Z</time></trkpt><trkpt lat="40.0254177" lon="9.6697018"><ele>439.0</ele><time>2026-04-06T14:12:54.011Z</time></trkpt><trkpt lat="40.0255384" lon="9.6696192"><ele>439.0</ele><time>2026-04-06T14:12:55.012Z</time></trkpt><trkpt lat="40.0256454" lon="9.6695719"><ele>439.0</ele><time>2026-04-06T14:12:56.012Z</time></trkpt><trkpt lat="40.0257447" lon="9.6695424"><ele>439.0</ele><time>2026-04-06T14:12:57.011Z</time></trkpt><trkpt lat="40.0258359" lon="9.6694971"><ele>439.0</ele><time>2026-04-06T14:12:58.012Z</time></trkpt><trkpt lat="40.025916" lon="9.6694376"><ele>440.6</ele><time>2026-04-06T14:12:59.012Z</time></trkpt><trkpt lat="40.0259913" lon="9.6693737"><ele>442.2</ele><time>2026-04-06T14:13:00.012Z</time></trkpt><trkpt lat="40.0260604" lon="9.6692845"><ele>443.80000000000007</ele><time>2026-04-06T14:13:01.012Z</time></trkpt><trkpt lat="40.0261301" lon="9.6691731"><ele>445.40000000000003</ele><time>2026-04-06T14:13:02.012Z</time></trkpt><trkpt lat="40.0262048" lon="9.669052"><ele>447.0</ele><time>2026-04-06T14:13:03.011Z</time></trkpt><trkpt lat="40.0262738" lon="9.6689136"><ele>447.0</ele><time>2026-04-06T14:13:04.012Z</time></trkpt><trkpt lat="40.0263402" lon="9.6687784"><ele>447.00000000000006</ele><time>2026-04-06T14:13:05.012Z</time></trkpt><trkpt lat="40.0264" lon="9.6686554"><ele>447.00000000000006</ele><time>2026-04-06T14:13:06.012Z</time></trkpt><trkpt lat="40.026455" lon="9.6685467"><ele>447.0</ele><time>2026-04-06T14:13:07.011Z</time></trkpt><trkpt lat="40.0265103" lon="9.6684529"><ele>447.0</ele><time>2026-04-06T14:13:08.012Z</time></trkpt><trkpt lat="40.0265669" lon="9.6683604"><ele>449.20000000000005</ele><time>2026-04-06T14:13:09.012Z</time></trkpt><trkpt lat="40.0266242" lon="9.6682785"><ele>451.40000000000003</ele><time>2026-04-06T14:13:10.011Z</time></trkpt><trkpt lat="40.0266877" lon="9.6681849"><ele>453.59999999999997</ele><time>2026-04-06T14:13:11.012Z</time></trkpt><trkpt lat="40.0267551" lon="9.6680844"><ele>455.79999999999995</ele><time>2026-04-06T14:13:12.011Z</time></trkpt><trkpt lat="40.0268306" lon="9.6679696"><ele>458.0</ele><time>2026-04-06T14:13:13.011Z</time></trkpt><trkpt lat="40.0269072" lon="9.667845"><ele>453.5</ele><time>2026-04-06T14:13:14.012Z</time></trkpt><trkpt lat="40.0269763" lon="9.6677415"><ele>449.0</ele><time>2026-04-06T14:13:15.011Z</time></trkpt><trkpt lat="40.0270483" lon="9.6676489"><ele>444.5</ele><time>2026-04-06T14:13:16.011Z</time></trkpt><trkpt lat="40.0271351" lon="9.6675398"><ele>440.0</ele><time>2026-04-06T14:13:17.012Z</time></trkpt><trkpt lat="40.0272487" lon="9.667396"><ele>440.0</ele><time>2026-04-06T14:13:18.012Z</time></trkpt><trkpt lat="40.0273729" lon="9.6672553"><ele>440.0</ele><time>2026-04-06T14:13:19.012Z</time></trkpt><trkpt lat="40.0274758" lon="9.6671291"><ele>440.0</ele><time>2026-04-06T14:13:20.012Z</time></trkpt><trkpt lat="40.0275764" lon="9.6670315"><ele>440.0</ele><time>2026-04-06T14:13:21.012Z</time></trkpt><trkpt lat="40.0276811" lon="9.6669674"><ele>440.8</ele><time>2026-04-06T14:13:22.011Z</time></trkpt><trkpt lat="40.0277848" lon="9.6669256"><ele>441.6</ele><time>2026-04-06T14:13:23.012Z</time></trkpt><trkpt lat="40.0278866" lon="9.6668882"><ele>442.4</ele><time>2026-04-06T14:13:24.012Z</time></trkpt><trkpt lat="40.0279864" lon="9.6668627"><ele>443.2</ele><time>2026-04-06T14:13:25.012Z</time></trkpt><trkpt lat="40.0280812" lon="9.6668366"><ele>444.0</ele><time>2026-04-06T14:13:26.012Z</time></trkpt><trkpt lat="40.0281522" lon="9.6668062"><ele>444.0</ele><time>2026-04-06T14:13:27.011Z</time></trkpt><trkpt lat="40.0282345" lon="9.666783"><ele>444.0</ele><time>2026-04-06T14:13:28.012Z</time></trkpt><trkpt lat="40.0283289" lon="9.6667583"><ele>444.0</ele><time>2026-04-06T14:13:29.012Z</time></trkpt><trkpt lat="40.0284249" lon="9.6667235"><ele>444.0</ele><time>2026-04-06T14:13:30.012Z</time></trkpt><trkpt lat="40.0285208" lon="9.6666796"><ele>444.0</ele><time>2026-04-06T14:13:31.011Z</time></trkpt><trkpt lat="40.0286084" lon="9.6666239"><ele>448.79999999999995</ele><time>2026-04-06T14:13:32.012Z</time></trkpt><trkpt lat="40.0286848" lon="9.6665353"><ele>453.59999999999997</ele><time>2026-04-06T14:13:33.012Z</time></trkpt><trkpt lat="40.0287684" lon="9.666443"><ele>458.4</ele><time>2026-04-06T14:13:34.012Z</time></trkpt><trkpt lat="40.0288423" lon="9.6663485"><ele>463.2</ele><time>2026-04-06T14:13:35.012Z</time></trkpt><trkpt lat="40.0289159" lon="9.6662639"><ele>468.0</ele><time>2026-04-06T14:13:36.012Z</time></trkpt><trkpt lat="40.0289923" lon="9.666192"><ele>468.0</ele><time>2026-04-06T14:13:37.011Z</time></trkpt><trkpt lat="40.0290785" lon="9.6661183"><ele>467.99999999999994</ele><time>2026-04-06T14:13:38.011Z</time></trkpt><trkpt lat="40.0291761" lon="9.666061"><ele>467.99999999999994</ele><time>2026-04-06T14:13:39.012Z</time></trkpt><trkpt lat="40.0292709" lon="9.6659811"><ele>468.0</ele><time>2026-04-06T14:13:40.012Z</time></trkpt><trkpt lat="40.0293561" lon="9.6658885"><ele>468.0</ele><time>2026-04-06T14:13:41.012Z</time></trkpt><trkpt lat="40.0294325" lon="9.6657871"><ele>468.8333333333333</ele><time>2026-04-06T14:13:42.012Z</time></trkpt><trkpt lat="40.0294956" lon="9.6656872"><ele>469.66666666666663</ele><time>2026-04-06T14:13:43.011Z</time></trkpt><trkpt lat="40.0295476" lon="9.665605"><ele>470.5</ele><time>2026-04-06T14:13:44.012Z</time></trkpt><trkpt lat="40.0295967" lon="9.6655149"><ele>471.3333333333333</ele><time>2026-04-06T14:13:45.012Z</time></trkpt><trkpt lat="40.0296465" lon="9.6654338"><ele>472.16666666666663</ele><time>2026-04-06T14:13:46.012Z</time></trkpt><trkpt lat="40.0296926" lon="9.6653467"><ele>473.0</ele><time>2026-04-06T14:13:47.012Z</time></trkpt><trkpt lat="40.0297365" lon="9.6652504"><ele>474.49999999999994</ele><time>2026-04-06T14:13:48.012Z</time></trkpt><trkpt lat="40.0297873" lon="9.6651597"><ele>476.0</ele><time>2026-04-06T14:13:49.012Z</time></trkpt><trkpt lat="40.0298361" lon="9.665069"><ele>477.5</ele><time>2026-04-06T14:13:50.011Z</time></trkpt><trkpt lat="40.0298893" lon="9.6649813"><ele>479.0</ele><time>2026-04-06T14:13:51.012Z</time></trkpt><trkpt lat="40.0299505" lon="9.6648959"><ele>480.49999999999994</ele><time>2026-04-06T14:13:52.011Z</time></trkpt><trkpt lat="40.0300138" lon="9.6648179"><ele>482.0</ele><time>2026-04-06T14:13:53.012Z</time></trkpt><trkpt lat="40.0301046" lon="9.6647415"><ele>482.0</ele><time>2026-04-06T14:13:55.012Z</time></trkpt><trkpt lat="40.0301721" lon="9.6647002"><ele>482.00000000000006</ele><time>2026-04-06T14:13:57.011Z</time></trkpt><trkpt lat="40.0302437" lon="9.6646448"><ele>482.00000000000006</ele><time>2026-04-06T14:13:59.011Z</time></trkpt><trkpt lat="40.0303365" lon="9.6645651"><ele>482.0</ele><time>2026-04-06T14:14:01.012Z</time></trkpt><trkpt lat="40.0303923" lon="9.664525"><ele>482.0</ele><time>2026-04-06T14:14:02.011Z</time></trkpt><trkpt lat="40.0305042" lon="9.6644532"><ele>481.8</ele><time>2026-04-06T14:14:04.011Z</time></trkpt><trkpt lat="40.0306129" lon="9.6643901"><ele>481.6</ele><time>2026-04-06T14:14:06.011Z</time></trkpt><trkpt lat="40.0307318" lon="9.6643479"><ele>481.40000000000003</ele><time>2026-04-06T14:14:08.012Z</time></trkpt><trkpt lat="40.0308069" lon="9.6643283"><ele>481.20000000000005</ele><time>2026-04-06T14:14:09.012Z</time></trkpt><trkpt lat="40.0308736" lon="9.6643042"><ele>481.0</ele><time>2026-04-06T14:14:10.011Z</time></trkpt><trkpt lat="40.0309709" lon="9.6642656"><ele>481.00000000000006</ele><time>2026-04-06T14:14:12.011Z</time></trkpt><trkpt lat="40.0310624" lon="9.6642073"><ele>481.0</ele><time>2026-04-06T14:14:14.012Z</time></trkpt><trkpt lat="40.0311486" lon="9.6641191"><ele>481.0</ele><time>2026-04-06T14:14:16.012Z</time></trkpt><trkpt lat="40.0311901" lon="9.6640547"><ele>481.0</ele><time>2026-04-06T14:14:17.012Z</time></trkpt><trkpt lat="40.0312298" lon="9.6639894"><ele>481.00000000000006</ele><time>2026-04-06T14:14:18.012Z</time></trkpt><trkpt lat="40.0312708" lon="9.6639223"><ele>481.0</ele><time>2026-04-06T14:14:19.012Z</time></trkpt><trkpt lat="40.0313457" lon="9.6638011"><ele>481.0</ele><time>2026-04-06T14:14:21.012Z</time></trkpt><trkpt lat="40.0314092" lon="9.6636948"><ele>481.0</ele><time>2026-04-06T14:14:23.012Z</time></trkpt><trkpt lat="40.0314722" lon="9.6635965"><ele>481.0</ele><time>2026-04-06T14:14:25.012Z</time></trkpt><trkpt lat="40.0315391" lon="9.663499"><ele>481.0</ele><time>2026-04-06T14:14:27.012Z</time></trkpt><trkpt lat="40.0316241" lon="9.6634124"><ele>481.0</ele><time>2026-04-06T14:14:29.012Z</time></trkpt><trkpt lat="40.0317115" lon="9.6633234"><ele>481.20000000000005</ele><time>2026-04-06T14:14:31.012Z</time></trkpt><trkpt lat="40.0318051" lon="9.6632266"><ele>481.40000000000003</ele><time>2026-04-06T14:14:33.012Z</time></trkpt><trkpt lat="40.0318584" lon="9.6631791"><ele>481.6</ele><time>2026-04-06T14:14:34.012Z</time></trkpt><trkpt lat="40.0319657" lon="9.6630947"><ele>481.8</ele><time>2026-04-06T14:14:36.012Z</time></trkpt><trkpt lat="40.0320208" lon="9.6630463"><ele>482.0</ele><time>2026-04-06T14:14:37.012Z</time></trkpt><trkpt lat="40.0320744" lon="9.6629779"><ele>481.99999999999994</ele><time>2026-04-06T14:14:38.012Z</time></trkpt><trkpt lat="40.0321717" lon="9.6628708"><ele>482.0</ele><time>2026-04-06T14:14:40.011Z</time></trkpt><trkpt lat="40.0322182" lon="9.6628096"><ele>482.0</ele><time>2026-04-06T14:14:41.011Z</time></trkpt><trkpt lat="40.0322665" lon="9.6627525"><ele>482.0</ele><time>2026-04-06T14:14:42.012Z</time></trkpt><trkpt lat="40.0323124" lon="9.6626897"><ele>481.99999999999994</ele><time>2026-04-06T14:14:43.012Z</time></trkpt><trkpt lat="40.0323628" lon="9.6626244"><ele>482.0</ele><time>2026-04-06T14:14:44.012Z</time></trkpt><trkpt lat="40.0324159" lon="9.6625612"><ele>482.49999999999994</ele><time>2026-04-06T14:14:45.012Z</time></trkpt><trkpt lat="40.0324716" lon="9.6624889"><ele>483.0</ele><time>2026-04-06T14:14:46.012Z</time></trkpt><trkpt lat="40.0325222" lon="9.6624203"><ele>483.5</ele><time>2026-04-06T14:14:47.012Z</time></trkpt><trkpt lat="40.0325804" lon="9.6623442"><ele>484.0</ele><time>2026-04-06T14:14:48.012Z</time></trkpt><trkpt lat="40.0326366" lon="9.6622593"><ele>484.49999999999994</ele><time>2026-04-06T14:14:49.012Z</time></trkpt><trkpt lat="40.0326926" lon="9.662172"><ele>485.0</ele><time>2026-04-06T14:14:50.011Z</time></trkpt><trkpt lat="40.0327438" lon="9.6620864"><ele>485.00000000000006</ele><time>2026-04-06T14:14:51.011Z</time></trkpt><trkpt lat="40.0328027" lon="9.6620011"><ele>485.0</ele><time>2026-04-06T14:14:52.012Z</time></trkpt><trkpt lat="40.0328492" lon="9.6619168"><ele>485.00000000000006</ele><time>2026-04-06T14:14:53.011Z</time></trkpt><trkpt lat="40.0328943" lon="9.6618471"><ele>485.00000000000006</ele><time>2026-04-06T14:14:54.012Z</time></trkpt><trkpt lat="40.0329422" lon="9.6617758"><ele>485.0</ele><time>2026-04-06T14:14:55.012Z</time></trkpt><trkpt lat="40.0329968" lon="9.6617221"><ele>485.00000000000006</ele><time>2026-04-06T14:14:56.012Z</time></trkpt><trkpt lat="40.0330473" lon="9.6616656"><ele>485.00000000000006</ele><time>2026-04-06T14:14:57.011Z</time></trkpt><trkpt lat="40.0331087" lon="9.6616082"><ele>485.49999999999994</ele><time>2026-04-06T14:14:58.012Z</time></trkpt><trkpt lat="40.033173" lon="9.6615672"><ele>486.0</ele><time>2026-04-06T14:14:59.011Z</time></trkpt><trkpt lat="40.0332369" lon="9.6615143"><ele>486.5</ele><time>2026-04-06T14:15:00.011Z</time></trkpt><trkpt lat="40.0333043" lon="9.6614647"><ele>487.0</ele><time>2026-04-06T14:15:01.011Z</time></trkpt><trkpt lat="40.0333711" lon="9.661411"><ele>487.49999999999994</ele><time>2026-04-06T14:15:02.012Z</time></trkpt><trkpt lat="40.0334389" lon="9.6613571"><ele>488.0</ele><time>2026-04-06T14:15:03.012Z</time></trkpt><trkpt lat="40.0335151" lon="9.6613049"><ele>487.99999999999994</ele><time>2026-04-06T14:15:04.012Z</time></trkpt><trkpt lat="40.0335903" lon="9.6612489"><ele>488.0</ele><time>2026-04-06T14:15:05.012Z</time></trkpt><trkpt lat="40.033664" lon="9.6611929"><ele>488.0</ele><time>2026-04-06T14:15:06.012Z</time></trkpt><trkpt lat="40.0337374" lon="9.6611346"><ele>488.0</ele><time>2026-04-06T14:15:07.012Z</time></trkpt><trkpt lat="40.0338122" lon="9.6610773"><ele>487.99999999999994</ele><time>2026-04-06T14:15:08.011Z</time></trkpt><trkpt lat="40.0338904" lon="9.661028"><ele>488.0</ele><time>2026-04-06T14:15:09.012Z</time></trkpt><trkpt lat="40.033966" lon="9.6609822"><ele>486.99999999999994</ele><time>2026-04-06T14:15:10.012Z</time></trkpt><trkpt lat="40.0340465" lon="9.6609526"><ele>486.0</ele><time>2026-04-06T14:15:11.012Z</time></trkpt><trkpt lat="40.034131" lon="9.6609252"><ele>485.0</ele><time>2026-04-06T14:15:12.012Z</time></trkpt><trkpt lat="40.0342152" lon="9.6609062"><ele>484.0</ele><time>2026-04-06T14:15:13.012Z</time></trkpt><trkpt lat="40.0343014" lon="9.6608868"><ele>482.99999999999994</ele><time>2026-04-06T14:15:14.012Z</time></trkpt><trkpt lat="40.0343828" lon="9.660864"><ele>482.0</ele><time>2026-04-06T14:15:15.012Z</time></trkpt><trkpt lat="40.0344646" lon="9.6608373"><ele>481.99999999999994</ele><time>2026-04-06T14:15:16.011Z</time></trkpt><trkpt lat="40.0345408" lon="9.6607891"><ele>482.0</ele><time>2026-04-06T14:15:17.012Z</time></trkpt><trkpt lat="40.0346122" lon="9.6607278"><ele>482.0</ele><time>2026-04-06T14:15:18.012Z</time></trkpt><trkpt lat="40.0346818" lon="9.6606541"><ele>482.0</ele><time>2026-04-06T14:15:19.012Z</time></trkpt><trkpt lat="40.0347471" lon="9.6605797"><ele>481.99999999999994</ele><time>2026-04-06T14:15:20.012Z</time></trkpt><trkpt lat="40.0348116" lon="9.6604996"><ele>482.0</ele><time>2026-04-06T14:15:21.012Z</time></trkpt><trkpt lat="40.0348727" lon="9.660419"><ele>482.0</ele><time>2026-04-06T14:15:22.012Z</time></trkpt><trkpt lat="40.0349461" lon="9.6603396"><ele>482.00000000000006</ele><time>2026-04-06T14:15:23.012Z</time></trkpt><trkpt lat="40.0350238" lon="9.660259"><ele>482.00000000000006</ele><time>2026-04-06T14:15:24.012Z</time></trkpt><trkpt lat="40.0351051" lon="9.660175"><ele>482.0</ele><time>2026-04-06T14:15:25.012Z</time></trkpt><trkpt lat="40.0351854" lon="9.6600919"><ele>482.0</ele><time>2026-04-06T14:15:26.011Z</time></trkpt><trkpt lat="40.035265" lon="9.659994"><ele>481.8</ele><time>2026-04-06T14:15:27.012Z</time></trkpt><trkpt lat="40.0353441" lon="9.6598939"><ele>481.6</ele><time>2026-04-06T14:15:28.011Z</time></trkpt><trkpt lat="40.0354231" lon="9.6597861"><ele>481.40000000000003</ele><time>2026-04-06T14:15:29.011Z</time></trkpt><trkpt lat="40.0354859" lon="9.659667"><ele>481.20000000000005</ele><time>2026-04-06T14:15:30.011Z</time></trkpt><trkpt lat="40.0355427" lon="9.6595419"><ele>481.0</ele><time>2026-04-06T14:15:31.012Z</time></trkpt><trkpt lat="40.0355925" lon="9.6594144"><ele>477.4</ele><time>2026-04-06T14:15:32.012Z</time></trkpt><trkpt lat="40.0356372" lon="9.6592869"><ele>473.8</ele><time>2026-04-06T14:15:33.012Z</time></trkpt><trkpt lat="40.0356803" lon="9.6591678"><ele>470.19999999999993</ele><time>2026-04-06T14:15:34.011Z</time></trkpt><trkpt lat="40.0357246" lon="9.6590472"><ele>466.59999999999997</ele><time>2026-04-06T14:15:35.012Z</time></trkpt><trkpt lat="40.0357677" lon="9.6589272"><ele>463.0</ele><time>2026-04-06T14:15:36.012Z</time></trkpt><trkpt lat="40.0358121" lon="9.6588069"><ele>466.50000000000006</ele><time>2026-04-06T14:15:37.012Z</time></trkpt><trkpt lat="40.0358507" lon="9.6586908"><ele>470.0</ele><time>2026-04-06T14:15:38.011Z</time></trkpt><trkpt lat="40.0358929" lon="9.6585935"><ele>473.5</ele><time>2026-04-06T14:15:39.011Z</time></trkpt><trkpt lat="40.0359494" lon="9.6585104"><ele>477.0</ele><time>2026-04-06T14:15:40.011Z</time></trkpt><trkpt lat="40.036021" lon="9.6584438"><ele>480.50000000000006</ele><time>2026-04-06T14:15:41.012Z</time></trkpt><trkpt lat="40.0360947" lon="9.6583845"><ele>484.0</ele><time>2026-04-06T14:15:42.012Z</time></trkpt><trkpt lat="40.0361723" lon="9.6583304"><ele>484.00000000000006</ele><time>2026-04-06T14:15:43.012Z</time></trkpt><trkpt lat="40.0362447" lon="9.6582818"><ele>484.0</ele><time>2026-04-06T14:15:44.012Z</time></trkpt><trkpt lat="40.0363203" lon="9.6582349"><ele>484.0</ele><time>2026-04-06T14:15:45.012Z</time></trkpt><trkpt lat="40.0363976" lon="9.6581911"><ele>484.0</ele><time>2026-04-06T14:15:46.012Z</time></trkpt><trkpt lat="40.0364797" lon="9.6581588"><ele>484.00000000000006</ele><time>2026-04-06T14:15:47.012Z</time></trkpt><trkpt lat="40.036566" lon="9.658143"><ele>484.0</ele><time>2026-04-06T14:15:48.012Z</time></trkpt><trkpt lat="40.0366537" lon="9.6581403"><ele>486.00000000000006</ele><time>2026-04-06T14:15:49.011Z</time></trkpt><trkpt lat="40.0367385" lon="9.6581443"><ele>488.0</ele><time>2026-04-06T14:15:50.012Z</time></trkpt><trkpt lat="40.0368251" lon="9.658168"><ele>490.0</ele><time>2026-04-06T14:15:51.011Z</time></trkpt><trkpt lat="40.0369059" lon="9.6581886"><ele>492.0</ele><time>2026-04-06T14:15:52.011Z</time></trkpt><trkpt lat="40.036985" lon="9.6582124"><ele>494.00000000000006</ele><time>2026-04-06T14:15:53.012Z</time></trkpt><trkpt lat="40.0370639" lon="9.6582259"><ele>496.0</ele><time>2026-04-06T14:15:54.012Z</time></trkpt><trkpt lat="40.0371565" lon="9.6582393"><ele>496.0</ele><time>2026-04-06T14:15:55.012Z</time></trkpt><trkpt lat="40.0372483" lon="9.6582216"><ele>496.0</ele><time>2026-04-06T14:15:56.012Z</time></trkpt><trkpt lat="40.037337" lon="9.6581913"><ele>496.0</ele><time>2026-04-06T14:15:57.011Z</time></trkpt><trkpt lat="40.0374271" lon="9.6581801"><ele>496.0</ele><time>2026-04-06T14:15:58.012Z</time></trkpt><trkpt lat="40.0375239" lon="9.6581695"><ele>496.0</ele><time>2026-04-06T14:15:59.011Z</time></trkpt><trkpt lat="40.037636" lon="9.658175"><ele>496.4</ele><time>2026-04-06T14:16:00.011Z</time></trkpt><trkpt lat="40.0377473" lon="9.6581822"><ele>496.8</ele><time>2026-04-06T14:16:01.012Z</time></trkpt><trkpt lat="40.0378513" lon="9.6581838"><ele>497.19999999999993</ele><time>2026-04-06T14:16:02.012Z</time></trkpt><trkpt lat="40.0379651" lon="9.6581709"><ele>497.59999999999997</ele><time>2026-04-06T14:16:03.011Z</time></trkpt><trkpt lat="40.0380761" lon="9.6581483"><ele>498.0</ele><time>2026-04-06T14:16:04.012Z</time></trkpt><trkpt lat="40.0381848" lon="9.6581383"><ele>498.0</ele><time>2026-04-06T14:16:05.011Z</time></trkpt><trkpt lat="40.0382912" lon="9.6581229"><ele>497.99999999999994</ele><time>2026-04-06T14:16:06.011Z</time></trkpt><trkpt lat="40.0384012" lon="9.6581098"><ele>497.99999999999994</ele><time>2026-04-06T14:16:07.012Z</time></trkpt><trkpt lat="40.0385119" lon="9.6580958"><ele>498.0</ele><time>2026-04-06T14:16:08.012Z</time></trkpt><trkpt lat="40.038626" lon="9.6580896"><ele>498.0</ele><time>2026-04-06T14:16:09.012Z</time></trkpt><trkpt lat="40.038743" lon="9.6580822"><ele>501.5</ele><time>2026-04-06T14:16:10.012Z</time></trkpt><trkpt lat="40.0388579" lon="9.6580592"><ele>505.0</ele><time>2026-04-06T14:16:11.012Z</time></trkpt><trkpt lat="40.0389714" lon="9.6580172"><ele>508.5</ele><time>2026-04-06T14:16:12.012Z</time></trkpt><trkpt lat="40.0390793" lon="9.6579627"><ele>512.0</ele><time>2026-04-06T14:16:13.011Z</time></trkpt><trkpt lat="40.0391898" lon="9.6579127"><ele>515.3333333333333</ele><time>2026-04-06T14:16:14.012Z</time></trkpt><trkpt lat="40.0393145" lon="9.6578578"><ele>518.6666666666666</ele><time>2026-04-06T14:16:15.012Z</time></trkpt><trkpt lat="40.0394642" lon="9.6577904"><ele>522.0</ele><time>2026-04-06T14:16:16.011Z</time></trkpt><trkpt lat="40.0396301" lon="9.6577221"><ele>514.0</ele><time>2026-04-06T14:16:17.012Z</time></trkpt><trkpt lat="40.0398071" lon="9.6576564"><ele>506.0</ele><time>2026-04-06T14:16:18.012Z</time></trkpt><trkpt lat="40.0399748" lon="9.6576077"><ele>498.0</ele><time>2026-04-06T14:16:19.012Z</time></trkpt><trkpt lat="40.0401388" lon="9.6575357"><ele>498.0</ele><time>2026-04-06T14:16:20.011Z</time></trkpt><trkpt lat="40.0402839" lon="9.6574289"><ele>498.0</ele><time>2026-04-06T14:16:21.012Z</time></trkpt><trkpt lat="40.040415" lon="9.6573316"><ele>498.0</ele><time>2026-04-06T14:16:22.012Z</time></trkpt><trkpt lat="40.0405458" lon="9.6572231"><ele>498.0</ele><time>2026-04-06T14:16:23.012Z</time></trkpt><trkpt lat="40.0406832" lon="9.6571193"><ele>498.0</ele><time>2026-04-06T14:16:24.012Z</time></trkpt><trkpt lat="40.0408157" lon="9.6570192"><ele>498.0</ele><time>2026-04-06T14:16:25.012Z</time></trkpt><trkpt lat="40.0409476" lon="9.6569166"><ele>495.75</ele><time>2026-04-06T14:16:26.011Z</time></trkpt><trkpt lat="40.0410803" lon="9.656824"><ele>493.5</ele><time>2026-04-06T14:16:27.012Z</time></trkpt><trkpt lat="40.0412109" lon="9.6567287"><ele>491.25</ele><time>2026-04-06T14:16:28.012Z</time></trkpt><trkpt lat="40.0413356" lon="9.6566246"><ele>489.0</ele><time>2026-04-06T14:16:29.012Z</time></trkpt><trkpt lat="40.0414678" lon="9.6565293"><ele>489.0</ele><time>2026-04-06T14:16:30.012Z</time></trkpt><trkpt lat="40.041602" lon="9.6564521"><ele>489.0</ele><time>2026-04-06T14:16:31.012Z</time></trkpt><trkpt lat="40.0417557" lon="9.6563879"><ele>489.0</ele><time>2026-04-06T14:16:32.011Z</time></trkpt><trkpt lat="40.0418987" lon="9.6563336"><ele>493.66666666666663</ele><time>2026-04-06T14:16:33.012Z</time></trkpt><trkpt lat="40.0420458" lon="9.6562737"><ele>498.3333333333333</ele><time>2026-04-06T14:16:34.012Z</time></trkpt><trkpt lat="40.0421805" lon="9.65617"><ele>503.0</ele><time>2026-04-06T14:16:35.012Z</time></trkpt><trkpt lat="40.0423188" lon="9.6560526"><ele>502.3333333333333</ele><time>2026-04-06T14:16:36.012Z</time></trkpt><trkpt lat="40.0424272" lon="9.6559153"><ele>501.66666666666663</ele><time>2026-04-06T14:16:37.012Z</time></trkpt><trkpt lat="40.0425286" lon="9.655768"><ele>501.0</ele><time>2026-04-06T14:16:38.011Z</time></trkpt><trkpt lat="40.0426271" lon="9.6556033"><ele>501.0</ele><time>2026-04-06T14:16:39.011Z</time></trkpt><trkpt lat="40.0427587" lon="9.6554654"><ele>501.0</ele><time>2026-04-06T14:16:40.012Z</time></trkpt><trkpt lat="40.0429123" lon="9.655339"><ele>501.0</ele><time>2026-04-06T14:16:41.012Z</time></trkpt><trkpt lat="40.0430796" lon="9.6552125"><ele>500.0</ele><time>2026-04-06T14:16:42.012Z</time></trkpt><trkpt lat="40.0432445" lon="9.6550946"><ele>499.0</ele><time>2026-04-06T14:16:43.011Z</time></trkpt><trkpt lat="40.0433986" lon="9.6549864"><ele>498.0</ele><time>2026-04-06T14:16:44.012Z</time></trkpt><trkpt lat="40.04356" lon="9.654868"><ele>498.0</ele><time>2026-04-06T14:16:45.012Z</time></trkpt><trkpt lat="40.0437142" lon="9.6547397"><ele>498.0</ele><time>2026-04-06T14:16:46.011Z</time></trkpt><trkpt lat="40.0438795" lon="9.6546155"><ele>498.0</ele><time>2026-04-06T14:16:47.011Z</time></trkpt><trkpt lat="40.0440446" lon="9.654481"><ele>499.33333333333337</ele><time>2026-04-06T14:16:48.012Z</time></trkpt><trkpt lat="40.044203" lon="9.6543299"><ele>500.6666666666667</ele><time>2026-04-06T14:16:49.012Z</time></trkpt><trkpt lat="40.0443482" lon="9.6541458"><ele>502.0</ele><time>2026-04-06T14:16:50.012Z</time></trkpt><trkpt lat="40.0444866" lon="9.6539444"><ele>502.0</ele><time>2026-04-06T14:16:51.011Z</time></trkpt><trkpt lat="40.0446032" lon="9.6537296"><ele>502.0</ele><time>2026-04-06T14:16:52.012Z</time></trkpt><trkpt lat="40.0447118" lon="9.653521"><ele>502.0</ele><time>2026-04-06T14:16:53.012Z</time></trkpt><trkpt lat="40.0448114" lon="9.6533072"><ele>498.33333333333337</ele><time>2026-04-06T14:16:54.012Z</time></trkpt><trkpt lat="40.0449202" lon="9.6530965"><ele>494.66666666666663</ele><time>2026-04-06T14:16:55.011Z</time></trkpt><trkpt lat="40.0450301" lon="9.6528808"><ele>491.0</ele><time>2026-04-06T14:16:56.012Z</time></trkpt><trkpt lat="40.0451393" lon="9.6526617"><ele>491.0</ele><time>2026-04-06T14:16:57.011Z</time></trkpt><trkpt lat="40.0452409" lon="9.6524317"><ele>491.0</ele><time>2026-04-06T14:16:58.012Z</time></trkpt><trkpt lat="40.0453395" lon="9.6522002"><ele>491.0</ele><time>2026-04-06T14:16:59.012Z</time></trkpt><trkpt lat="40.0454382" lon="9.6519548"><ele>485.3333333333333</ele><time>2026-04-06T14:17:00.011Z</time></trkpt><trkpt lat="40.0455419" lon="9.6517163"><ele>479.66666666666663</ele><time>2026-04-06T14:17:01.012Z</time></trkpt><trkpt lat="40.0456613" lon="9.6514809"><ele>474.0</ele><time>2026-04-06T14:17:02.012Z</time></trkpt><trkpt lat="40.0458039" lon="9.6512575"><ele>480.66666666666663</ele><time>2026-04-06T14:17:03.012Z</time></trkpt><trkpt lat="40.0459439" lon="9.6510395"><ele>487.3333333333333</ele><time>2026-04-06T14:17:04.012Z</time></trkpt><trkpt lat="40.0460944" lon="9.6508184"><ele>494.0</ele><time>2026-04-06T14:17:05.012Z</time></trkpt><trkpt lat="40.0462443" lon="9.6506062"><ele>494.0</ele><time>2026-04-06T14:17:06.012Z</time></trkpt><trkpt lat="40.0463966" lon="9.6503872"><ele>494.0</ele><time>2026-04-06T14:17:07.012Z</time></trkpt><trkpt lat="40.0465433" lon="9.650167"><ele>504.5</ele><time>2026-04-06T14:17:08.011Z</time></trkpt><trkpt lat="40.0466889" lon="9.6499412"><ele>515.0</ele><time>2026-04-06T14:17:09.011Z</time></trkpt><trkpt lat="40.0468397" lon="9.6497154"><ele>515.0</ele><time>2026-04-06T14:17:10.012Z</time></trkpt><trkpt lat="40.0469923" lon="9.6495106"><ele>515.0</ele><time>2026-04-06T14:17:11.012Z</time></trkpt><trkpt lat="40.0471324" lon="9.6493367"><ele>515.0</ele><time>2026-04-06T14:17:12.012Z</time></trkpt><trkpt lat="40.0472927" lon="9.6492189"><ele>520.3333333333333</ele><time>2026-04-06T14:17:13.012Z</time></trkpt><trkpt lat="40.0474365" lon="9.6491351"><ele>525.6666666666666</ele><time>2026-04-06T14:17:14.012Z</time></trkpt><trkpt lat="40.0475689" lon="9.6490332"><ele>531.0</ele><time>2026-04-06T14:17:15.012Z</time></trkpt><trkpt lat="40.0476891" lon="9.6488966"><ele>531.0</ele><time>2026-04-06T14:17:16.012Z</time></trkpt><trkpt lat="40.047778" lon="9.6487158"><ele>531.0</ele><time>2026-04-06T14:17:17.012Z</time></trkpt><trkpt lat="40.0478592" lon="9.6485147"><ele>531.0</ele><time>2026-04-06T14:17:18.012Z</time></trkpt><trkpt lat="40.0479175" lon="9.6482938"><ele>518.3333333333334</ele><time>2026-04-06T14:17:19.012Z</time></trkpt><trkpt lat="40.0479687" lon="9.6480538"><ele>505.6666666666667</ele><time>2026-04-06T14:17:20.012Z</time></trkpt><trkpt lat="40.0480184" lon="9.647817"><ele>493.0</ele><time>2026-04-06T14:17:21.012Z</time></trkpt><trkpt lat="40.048064" lon="9.6475931"><ele>487.0</ele><time>2026-04-06T14:17:22.012Z</time></trkpt><trkpt lat="40.0481419" lon="9.647376"><ele>481.0</ele><time>2026-04-06T14:17:23.012Z</time></trkpt><trkpt lat="40.0482484" lon="9.6471683"><ele>475.0</ele><time>2026-04-06T14:17:24.012Z</time></trkpt><trkpt lat="40.0483588" lon="9.6469389"><ele>496.0</ele><time>2026-04-06T14:17:25.012Z</time></trkpt><trkpt lat="40.0484777" lon="9.6466837"><ele>517.0</ele><time>2026-04-06T14:17:26.012Z</time></trkpt><trkpt lat="40.0486146" lon="9.6464153"><ele>517.0</ele><time>2026-04-06T14:17:27.012Z</time></trkpt><trkpt lat="40.048761" lon="9.6461602"><ele>517.0</ele><time>2026-04-06T14:17:28.012Z</time></trkpt><trkpt lat="40.0489021" lon="9.6459206"><ele>528.5</ele><time>2026-04-06T14:17:29.012Z</time></trkpt><trkpt lat="40.0490425" lon="9.6456751"><ele>540.0</ele><time>2026-04-06T14:17:30.011Z</time></trkpt><trkpt lat="40.0491741" lon="9.6454369"><ele>527.5</ele><time>2026-04-06T14:17:31.012Z</time></trkpt><trkpt lat="40.0493151" lon="9.6451933"><ele>515.0</ele><time>2026-04-06T14:17:32.012Z</time></trkpt><trkpt lat="40.0494553" lon="9.6449544"><ele>515.0</ele><time>2026-04-06T14:17:33.011Z</time></trkpt><trkpt lat="40.0495833" lon="9.6447251"><ele>515.0</ele><time>2026-04-06T14:17:34.012Z</time></trkpt><trkpt lat="40.0497106" lon="9.644494"><ele>515.0</ele><time>2026-04-06T14:17:35.011Z</time></trkpt><trkpt lat="40.0498324" lon="9.644273"><ele>506.66666666666663</ele><time>2026-04-06T14:17:36.012Z</time></trkpt><trkpt lat="40.0499569" lon="9.6440768"><ele>498.33333333333337</ele><time>2026-04-06T14:17:37.012Z</time></trkpt><trkpt lat="40.0500752" lon="9.6438971"><ele>490.0</ele><time>2026-04-06T14:17:38.011Z</time></trkpt><trkpt lat="40.0501737" lon="9.6437144"><ele>501.0</ele><time>2026-04-06T14:17:39.011Z</time></trkpt><trkpt lat="40.0502533" lon="9.6434936"><ele>512.0</ele><time>2026-04-06T14:17:40.011Z</time></trkpt><trkpt lat="40.0503206" lon="9.6432632"><ele>523.0</ele><time>2026-04-06T14:17:41.012Z</time></trkpt><trkpt lat="40.0503863" lon="9.6430159"><ele>517.6666666666667</ele><time>2026-04-06T14:17:42.012Z</time></trkpt><trkpt lat="40.0504555" lon="9.6427712"><ele>512.3333333333334</ele><time>2026-04-06T14:17:43.012Z</time></trkpt><trkpt lat="40.0505305" lon="9.64254"><ele>507.0</ele><time>2026-04-06T14:17:44.012Z</time></trkpt><trkpt lat="40.0505908" lon="9.6423088"><ele>507.0</ele><time>2026-04-06T14:17:45.012Z</time></trkpt><trkpt lat="40.0506223" lon="9.6420552"><ele>507.0</ele><time>2026-04-06T14:17:46.012Z</time></trkpt><trkpt lat="40.0506416" lon="9.6417925"><ele>507.0</ele><time>2026-04-06T14:17:47.011Z</time></trkpt><trkpt lat="40.0506529" lon="9.6415406"><ele>504.33333333333337</ele><time>2026-04-06T14:17:48.012Z</time></trkpt><trkpt lat="40.0506673" lon="9.6412949"><ele>501.6666666666667</ele><time>2026-04-06T14:17:49.012Z</time></trkpt><trkpt lat="40.0506848" lon="9.6410543"><ele>499.0</ele><time>2026-04-06T14:17:50.012Z</time></trkpt><trkpt lat="40.0507081" lon="9.6408209"><ele>497.0</ele><time>2026-04-06T14:17:51.011Z</time></trkpt><trkpt lat="40.0507201" lon="9.6405934"><ele>495.0</ele><time>2026-04-06T14:17:52.012Z</time></trkpt><trkpt lat="40.0507293" lon="9.6403588"><ele>493.0</ele><time>2026-04-06T14:17:53.011Z</time></trkpt><trkpt lat="40.0507392" lon="9.6401389"><ele>492.6666666666667</ele><time>2026-04-06T14:17:54.011Z</time></trkpt><trkpt lat="40.0507413" lon="9.6399257"><ele>492.33333333333337</ele><time>2026-04-06T14:17:55.012Z</time></trkpt><trkpt lat="40.0507491" lon="9.639725"><ele>492.0</ele><time>2026-04-06T14:17:56.012Z</time></trkpt><trkpt lat="40.0507705" lon="9.639537"><ele>508.66666666666663</ele><time>2026-04-06T14:17:57.011Z</time></trkpt><trkpt lat="40.0508157" lon="9.6393477"><ele>525.3333333333333</ele><time>2026-04-06T14:17:58.011Z</time></trkpt><trkpt lat="40.0508771" lon="9.6391639"><ele>542.0</ele><time>2026-04-06T14:17:59.012Z</time></trkpt><trkpt lat="40.0509495" lon="9.6389722"><ele>542.0</ele><time>2026-04-06T14:18:00.012Z</time></trkpt><trkpt lat="40.0510228" lon="9.6387739"><ele>542.0</ele><time>2026-04-06T14:18:01.011Z</time></trkpt><trkpt lat="40.0510914" lon="9.6385902"><ele>542.0</ele><time>2026-04-06T14:18:02.011Z</time></trkpt><trkpt lat="40.051158" lon="9.6384133"><ele>535.75</ele><time>2026-04-06T14:18:03.012Z</time></trkpt><trkpt lat="40.0512207" lon="9.638244"><ele>529.5</ele><time>2026-04-06T14:18:04.012Z</time></trkpt><trkpt lat="40.0513008" lon="9.6380814"><ele>523.25</ele><time>2026-04-06T14:18:05.012Z</time></trkpt><trkpt lat="40.0514056" lon="9.6379502"><ele>517.0</ele><time>2026-04-06T14:18:06.011Z</time></trkpt><trkpt lat="40.0515124" lon="9.6378228"><ele>512.25</ele><time>2026-04-06T14:18:07.012Z</time></trkpt><trkpt lat="40.0515995" lon="9.6376873"><ele>507.5</ele><time>2026-04-06T14:18:08.012Z</time></trkpt><trkpt lat="40.0516726" lon="9.6375527"><ele>502.75</ele><time>2026-04-06T14:18:09.012Z</time></trkpt><trkpt lat="40.0517165" lon="9.6374047"><ele>498.0</ele><time>2026-04-06T14:18:10.012Z</time></trkpt><trkpt lat="40.0517395" lon="9.6372514"><ele>508.5</ele><time>2026-04-06T14:18:11.012Z</time></trkpt><trkpt lat="40.0517595" lon="9.637105"><ele>519.0</ele><time>2026-04-06T14:18:12.012Z</time></trkpt><trkpt lat="40.0517874" lon="9.6369528"><ele>529.5</ele><time>2026-04-06T14:18:13.011Z</time></trkpt><trkpt lat="40.0518308" lon="9.6368109"><ele>540.0</ele><time>2026-04-06T14:18:14.012Z</time></trkpt><trkpt lat="40.0518838" lon="9.636676"><ele>540.0</ele><time>2026-04-06T14:18:15.012Z</time></trkpt><trkpt lat="40.0519419" lon="9.636549"><ele>540.0</ele><time>2026-04-06T14:18:16.012Z</time></trkpt><trkpt lat="40.052001" lon="9.6364399"><ele>540.0</ele><time>2026-04-06T14:18:17.012Z</time></trkpt><trkpt lat="40.052065" lon="9.6363442"><ele>540.0</ele><time>2026-04-06T14:18:18.012Z</time></trkpt><trkpt lat="40.0521112" lon="9.6362585"><ele>540.0</ele><time>2026-04-06T14:18:19.012Z</time></trkpt><trkpt lat="40.0521466" lon="9.6361745"><ele>539.2857142857142</ele><time>2026-04-06T14:18:20.011Z</time></trkpt><trkpt lat="40.0521475" lon="9.6360786"><ele>538.5714285714286</ele><time>2026-04-06T14:18:21.012Z</time></trkpt><trkpt lat="40.0521262" lon="9.6359903"><ele>537.8571428571429</ele><time>2026-04-06T14:18:22.012Z</time></trkpt><trkpt lat="40.052089" lon="9.6359065"><ele>537.1428571428571</ele><time>2026-04-06T14:18:23.011Z</time></trkpt><trkpt lat="40.0520486" lon="9.6358325"><ele>536.4285714285714</ele><time>2026-04-06T14:18:24.012Z</time></trkpt><trkpt lat="40.0520026" lon="9.635759"><ele>535.7142857142857</ele><time>2026-04-06T14:18:25.012Z</time></trkpt><trkpt lat="40.0519606" lon="9.6356829"><ele>535.0</ele><time>2026-04-06T14:18:26.012Z</time></trkpt><trkpt lat="40.051923" lon="9.6355906"><ele>535.0</ele><time>2026-04-06T14:18:27.012Z</time></trkpt><trkpt lat="40.0518972" lon="9.6354905"><ele>535.0</ele><time>2026-04-06T14:18:28.012Z</time></trkpt><trkpt lat="40.0518961" lon="9.6353869"><ele>535.0</ele><time>2026-04-06T14:18:29.012Z</time></trkpt><trkpt lat="40.0519219" lon="9.6352919"><ele>535.0</ele><time>2026-04-06T14:18:30.011Z</time></trkpt><trkpt lat="40.0519709" lon="9.6352323"><ele>535.0</ele><time>2026-04-06T14:18:31.012Z</time></trkpt><trkpt lat="40.0520228" lon="9.6351843"><ele>535.0</ele><time>2026-04-06T14:18:32.012Z</time></trkpt><trkpt lat="40.0520794" lon="9.6351392"><ele>535.0</ele><time>2026-04-06T14:18:33.012Z</time></trkpt><trkpt lat="40.0521323" lon="9.6350899"><ele>535.5</ele><time>2026-04-06T14:18:34.011Z</time></trkpt><trkpt lat="40.0521726" lon="9.6350236"><ele>536.0</ele><time>2026-04-06T14:18:35.012Z</time></trkpt><trkpt lat="40.052199" lon="9.6349417"><ele>536.5</ele><time>2026-04-06T14:18:36.011Z</time></trkpt><trkpt lat="40.052197" lon="9.6348443"><ele>537.0</ele><time>2026-04-06T14:18:37.012Z</time></trkpt><trkpt lat="40.0521699" lon="9.6347476"><ele>537.5</ele><time>2026-04-06T14:18:38.011Z</time></trkpt><trkpt lat="40.0521309" lon="9.634653"><ele>538.0</ele><time>2026-04-06T14:18:39.012Z</time></trkpt><trkpt lat="40.0520877" lon="9.6345557"><ele>540.4</ele><time>2026-04-06T14:18:40.012Z</time></trkpt><trkpt lat="40.0520463" lon="9.6344583"><ele>542.8</ele><time>2026-04-06T14:18:41.012Z</time></trkpt><trkpt lat="40.0520055" lon="9.634354"><ele>545.2</ele><time>2026-04-06T14:18:42.012Z</time></trkpt><trkpt lat="40.0519787" lon="9.6342361"><ele>547.6</ele><time>2026-04-06T14:18:43.011Z</time></trkpt><trkpt lat="40.0519643" lon="9.6341134"><ele>550.0</ele><time>2026-04-06T14:18:44.012Z</time></trkpt><trkpt lat="40.0519513" lon="9.633988"><ele>550.0</ele><time>2026-04-06T14:18:45.011Z</time></trkpt><trkpt lat="40.0519552" lon="9.6338567"><ele>550.0</ele><time>2026-04-06T14:18:46.012Z</time></trkpt><trkpt lat="40.0519726" lon="9.6337228"><ele>550.0</ele><time>2026-04-06T14:18:47.012Z</time></trkpt><trkpt lat="40.0519981" lon="9.6335938"><ele>550.0</ele><time>2026-04-06T14:18:48.011Z</time></trkpt><trkpt lat="40.052026" lon="9.6334599"><ele>550.0</ele><time>2026-04-06T14:18:49.012Z</time></trkpt><trkpt lat="40.0520608" lon="9.6333251"><ele>550.0</ele><time>2026-04-06T14:18:50.012Z</time></trkpt><trkpt lat="40.0521028" lon="9.6331899"><ele>550.0</ele><time>2026-04-06T14:18:51.012Z</time></trkpt><trkpt lat="40.0521522" lon="9.6330711"><ele>550.0</ele><time>2026-04-06T14:18:52.011Z</time></trkpt><trkpt lat="40.0522169" lon="9.6329644"><ele>550.0</ele><time>2026-04-06T14:18:53.012Z</time></trkpt><trkpt lat="40.0522935" lon="9.6328586"><ele>550.0</ele><time>2026-04-06T14:18:54.012Z</time></trkpt><trkpt lat="40.0523686" lon="9.6327574"><ele>553.0</ele><time>2026-04-06T14:18:55.012Z</time></trkpt><trkpt lat="40.0524499" lon="9.6326483"><ele>556.0</ele><time>2026-04-06T14:18:56.011Z</time></trkpt><trkpt lat="40.0525257" lon="9.6325469"><ele>559.0</ele><time>2026-04-06T14:18:57.012Z</time></trkpt><trkpt lat="40.0526058" lon="9.632443"><ele>562.0</ele><time>2026-04-06T14:18:58.012Z</time></trkpt><trkpt lat="40.0526871" lon="9.6323392"><ele>562.0</ele><time>2026-04-06T14:18:59.012Z</time></trkpt><trkpt lat="40.052769" lon="9.6322362"><ele>562.0</ele><time>2026-04-06T14:19:00.011Z</time></trkpt><trkpt lat="40.0528448" lon="9.632137"><ele>562.0</ele><time>2026-04-06T14:19:01.012Z</time></trkpt><trkpt lat="40.052915" lon="9.6320394"><ele>562.0</ele><time>2026-04-06T14:19:02.012Z</time></trkpt><trkpt lat="40.0529611" lon="9.6319338"><ele>562.0</ele><time>2026-04-06T14:19:03.012Z</time></trkpt><trkpt lat="40.052997" lon="9.6318143"><ele>556.6</ele><time>2026-04-06T14:19:04.012Z</time></trkpt><trkpt lat="40.0530367" lon="9.6316899"><ele>551.2</ele><time>2026-04-06T14:19:05.012Z</time></trkpt><trkpt lat="40.0530778" lon="9.63156"><ele>545.8</ele><time>2026-04-06T14:19:06.012Z</time></trkpt><trkpt lat="40.0531204" lon="9.6314381"><ele>540.4</ele><time>2026-04-06T14:19:07.011Z</time></trkpt><trkpt lat="40.0531622" lon="9.6313198"><ele>535.0</ele><time>2026-04-06T14:19:08.012Z</time></trkpt><trkpt lat="40.0532066" lon="9.6312007"><ele>532.4</ele><time>2026-04-06T14:19:09.011Z</time></trkpt><trkpt lat="40.053261" lon="9.6310873"><ele>529.8</ele><time>2026-04-06T14:19:10.012Z</time></trkpt><trkpt lat="40.0533325" lon="9.6309846"><ele>527.2</ele><time>2026-04-06T14:19:11.012Z</time></trkpt><trkpt lat="40.0534039" lon="9.630886"><ele>524.6</ele><time>2026-04-06T14:19:12.011Z</time></trkpt><trkpt lat="40.0534616" lon="9.6307856"><ele>522.0</ele><time>2026-04-06T14:19:13.012Z</time></trkpt><trkpt lat="40.0535024" lon="9.6306849"><ele>528.4</ele><time>2026-04-06T14:19:14.012Z</time></trkpt><trkpt lat="40.0535325" lon="9.6305803"><ele>534.8000000000001</ele><time>2026-04-06T14:19:15.012Z</time></trkpt><trkpt lat="40.0535523" lon="9.6304627"><ele>541.2</ele><time>2026-04-06T14:19:16.012Z</time></trkpt><trkpt lat="40.05357" lon="9.6303443"><ele>547.6</ele><time>2026-04-06T14:19:17.012Z</time></trkpt><trkpt lat="40.0535832" lon="9.6302148"><ele>554.0</ele><time>2026-04-06T14:19:18.012Z</time></trkpt><trkpt lat="40.053608" lon="9.6300778"><ele>554.0</ele><time>2026-04-06T14:19:19.012Z</time></trkpt><trkpt lat="40.0536385" lon="9.6299385"><ele>554.0</ele><time>2026-04-06T14:19:20.012Z</time></trkpt><trkpt lat="40.0536702" lon="9.6298075"><ele>554.0</ele><time>2026-04-06T14:19:21.011Z</time></trkpt><trkpt lat="40.0536945" lon="9.6296759"><ele>554.0</ele><time>2026-04-06T14:19:22.012Z</time></trkpt><trkpt lat="40.0537206" lon="9.6295501"><ele>554.0</ele><time>2026-04-06T14:19:23.012Z</time></trkpt><trkpt lat="40.0537374" lon="9.6294271"><ele>553.6</ele><time>2026-04-06T14:19:24.011Z</time></trkpt><trkpt lat="40.0537445" lon="9.6293053"><ele>553.2</ele><time>2026-04-06T14:19:25.012Z</time></trkpt><trkpt lat="40.0537461" lon="9.6291828"><ele>552.8000000000001</ele><time>2026-04-06T14:19:26.012Z</time></trkpt><trkpt lat="40.0537394" lon="9.6290627"><ele>552.4</ele><time>2026-04-06T14:19:27.012Z</time></trkpt><trkpt lat="40.0537158" lon="9.6289385"><ele>552.0</ele><time>2026-04-06T14:19:28.012Z</time></trkpt><trkpt lat="40.0536826" lon="9.6288103"><ele>552.0</ele><time>2026-04-06T14:19:29.012Z</time></trkpt><trkpt lat="40.0536502" lon="9.6286821"><ele>552.0</ele><time>2026-04-06T14:19:30.011Z</time></trkpt><trkpt lat="40.0536377" lon="9.6285552"><ele>552.0</ele><time>2026-04-06T14:19:31.011Z</time></trkpt><trkpt lat="40.0536657" lon="9.628432"><ele>552.0</ele><time>2026-04-06T14:19:32.012Z</time></trkpt><trkpt lat="40.0537189" lon="9.6283297"><ele>552.0</ele><time>2026-04-06T14:19:33.012Z</time></trkpt><trkpt lat="40.0537987" lon="9.6282526"><ele>552.0</ele><time>2026-04-06T14:19:34.012Z</time></trkpt><trkpt lat="40.0538842" lon="9.6281895"><ele>552.0</ele><time>2026-04-06T14:19:35.012Z</time></trkpt><trkpt lat="40.0539692" lon="9.6281236"><ele>552.0</ele><time>2026-04-06T14:19:36.011Z</time></trkpt><trkpt lat="40.0540479" lon="9.6280466"><ele>552.0</ele><time>2026-04-06T14:19:37.012Z</time></trkpt><trkpt lat="40.0541212" lon="9.6279597"><ele>552.0</ele><time>2026-04-06T14:19:38.012Z</time></trkpt><trkpt lat="40.0541825" lon="9.6278649"><ele>556.0</ele><time>2026-04-06T14:19:39.011Z</time></trkpt><trkpt lat="40.0542327" lon="9.6277614"><ele>560.0</ele><time>2026-04-06T14:19:40.012Z</time></trkpt><trkpt lat="40.0542795" lon="9.6276556"><ele>564.0</ele><time>2026-04-06T14:19:41.011Z</time></trkpt><trkpt lat="40.0543219" lon="9.6275449"><ele>568.0</ele><time>2026-04-06T14:19:42.012Z</time></trkpt><trkpt lat="40.0543604" lon="9.6274268"><ele>572.0</ele><time>2026-04-06T14:19:43.011Z</time></trkpt><trkpt lat="40.0543951" lon="9.6273039"><ele>572.0</ele><time>2026-04-06T14:19:44.012Z</time></trkpt><trkpt lat="40.0544253" lon="9.6271799"><ele>572.0</ele><time>2026-04-06T14:19:45.012Z</time></trkpt><trkpt lat="40.054429" lon="9.6270581"><ele>572.0</ele><time>2026-04-06T14:19:46.012Z</time></trkpt><trkpt lat="40.054405" lon="9.6269436"><ele>572.0</ele><time>2026-04-06T14:19:47.012Z</time></trkpt><trkpt lat="40.0543751" lon="9.6268341"><ele>572.0</ele><time>2026-04-06T14:19:48.012Z</time></trkpt><trkpt lat="40.0543576" lon="9.6267282"><ele>572.1666666666666</ele><time>2026-04-06T14:19:49.012Z</time></trkpt><trkpt lat="40.0543445" lon="9.6266191"><ele>572.3333333333333</ele><time>2026-04-06T14:19:50.012Z</time></trkpt><trkpt lat="40.0543341" lon="9.6265159"><ele>572.5</ele><time>2026-04-06T14:19:51.012Z</time></trkpt><trkpt lat="40.054339" lon="9.626412"><ele>572.6666666666666</ele><time>2026-04-06T14:19:52.012Z</time></trkpt><trkpt lat="40.0543621" lon="9.6263137"><ele>572.8333333333334</ele><time>2026-04-06T14:19:53.011Z</time></trkpt><trkpt lat="40.0543926" lon="9.6262124"><ele>573.0</ele><time>2026-04-06T14:19:54.012Z</time></trkpt><trkpt lat="40.0544222" lon="9.6261092"><ele>573.0</ele><time>2026-04-06T14:19:55.012Z</time></trkpt><trkpt lat="40.0544505" lon="9.6260109"><ele>573.0</ele><time>2026-04-06T14:19:56.012Z</time></trkpt><trkpt lat="40.0544807" lon="9.6259347"><ele>573.0</ele><time>2026-04-06T14:19:57.012Z</time></trkpt><trkpt lat="40.0545229" lon="9.6257759"><ele>573.0</ele><time>2026-04-06T14:19:59.012Z</time></trkpt><trkpt lat="40.0545528" lon="9.6256902"><ele>573.0</ele><time>2026-04-06T14:20:00.011Z</time></trkpt><trkpt lat="40.0545808" lon="9.6255989"><ele>573.0</ele><time>2026-04-06T14:20:01.011Z</time></trkpt><trkpt lat="40.0546123" lon="9.6255043"><ele>573.0</ele><time>2026-04-06T14:20:02.011Z</time></trkpt><trkpt lat="40.054649" lon="9.625404"><ele>573.0</ele><time>2026-04-06T14:20:03.012Z</time></trkpt><trkpt lat="40.0546998" lon="9.6253055"><ele>573.0</ele><time>2026-04-06T14:20:04.012Z</time></trkpt><trkpt lat="40.0547645" lon="9.6252104"><ele>573.0</ele><time>2026-04-06T14:20:05.012Z</time></trkpt><trkpt lat="40.0548346" lon="9.6251084"><ele>573.0</ele><time>2026-04-06T14:20:06.012Z</time></trkpt><trkpt lat="40.0549068" lon="9.6249972"><ele>578.25</ele><time>2026-04-06T14:20:07.011Z</time></trkpt><trkpt lat="40.0549941" lon="9.624893"><ele>583.5</ele><time>2026-04-06T14:20:08.012Z</time></trkpt><trkpt lat="40.0550981" lon="9.624804"><ele>588.75</ele><time>2026-04-06T14:20:09.011Z</time></trkpt><trkpt lat="40.0552" lon="9.6247316"><ele>594.0</ele><time>2026-04-06T14:20:10.012Z</time></trkpt><trkpt lat="40.0553326" lon="9.6247721"><ele>594.0</ele><time>2026-04-06T14:20:11.012Z</time></trkpt><trkpt lat="40.0554447" lon="9.6248052"><ele>594.0</ele><time>2026-04-06T14:20:12.011Z</time></trkpt><trkpt lat="40.0555408" lon="9.6248615"><ele>594.0</ele><time>2026-04-06T14:20:13.012Z</time></trkpt><trkpt lat="40.0556255" lon="9.6249223"><ele>594.0</ele><time>2026-04-06T14:20:14.011Z</time></trkpt><trkpt lat="40.0557034" lon="9.6249694"><ele>594.0</ele><time>2026-04-06T14:20:15.012Z</time></trkpt><trkpt lat="40.0557909" lon="9.6249958"><ele>595.0</ele><time>2026-04-06T14:20:16.012Z</time></trkpt><trkpt lat="40.0558812" lon="9.6250038"><ele>596.0</ele><time>2026-04-06T14:20:17.012Z</time></trkpt><trkpt lat="40.0559714" lon="9.6250063"><ele>597.0</ele><time>2026-04-06T14:20:18.012Z</time></trkpt><trkpt lat="40.0560621" lon="9.6250012"><ele>598.0</ele><time>2026-04-06T14:20:19.011Z</time></trkpt><trkpt lat="40.0561526" lon="9.6249769"><ele>599.0</ele><time>2026-04-06T14:20:20.011Z</time></trkpt><trkpt lat="40.056247" lon="9.6249356"><ele>599.0</ele><time>2026-04-06T14:20:21.011Z</time></trkpt><trkpt lat="40.0563304" lon="9.6248853"><ele>599.0</ele><time>2026-04-06T14:20:22.012Z</time></trkpt><trkpt lat="40.0564093" lon="9.6248119"><ele>599.0</ele><time>2026-04-06T14:20:23.012Z</time></trkpt><trkpt lat="40.0564989" lon="9.6247192"><ele>599.0</ele><time>2026-04-06T14:20:24.012Z</time></trkpt><trkpt lat="40.0565772" lon="9.6246111"><ele>599.0</ele><time>2026-04-06T14:20:25.012Z</time></trkpt><trkpt lat="40.056653" lon="9.6244969"><ele>601.6</ele><time>2026-04-06T14:20:26.011Z</time></trkpt><trkpt lat="40.056702" lon="9.6243583"><ele>604.2</ele><time>2026-04-06T14:20:27.012Z</time></trkpt><trkpt lat="40.0567464" lon="9.6242308"><ele>606.8000000000001</ele><time>2026-04-06T14:20:28.012Z</time></trkpt><trkpt lat="40.0567806" lon="9.6241008"><ele>609.4</ele><time>2026-04-06T14:20:29.012Z</time></trkpt><trkpt lat="40.0567989" lon="9.6239692"><ele>612.0</ele><time>2026-04-06T14:20:30.012Z</time></trkpt><trkpt lat="40.0568058" lon="9.6238329"><ele>612.0</ele><time>2026-04-06T14:20:31.012Z</time></trkpt><trkpt lat="40.0568055" lon="9.623695"><ele>612.0</ele><time>2026-04-06T14:20:32.012Z</time></trkpt><trkpt lat="40.0568118" lon="9.6235712"><ele>612.0</ele><time>2026-04-06T14:20:33.012Z</time></trkpt><trkpt lat="40.056817" lon="9.6234488"><ele>612.0</ele><time>2026-04-06T14:20:34.012Z</time></trkpt><trkpt lat="40.0568359" lon="9.6233157"><ele>612.0</ele><time>2026-04-06T14:20:35.012Z</time></trkpt><trkpt lat="40.0568569" lon="9.6231914"><ele>613.6</ele><time>2026-04-06T14:20:36.012Z</time></trkpt><trkpt lat="40.0568857" lon="9.6230657"><ele>615.2</ele><time>2026-04-06T14:20:37.012Z</time></trkpt><trkpt lat="40.0569126" lon="9.6229312"><ele>616.8</ele><time>2026-04-06T14:20:38.012Z</time></trkpt><trkpt lat="40.0569376" lon="9.6227931"><ele>618.4</ele><time>2026-04-06T14:20:39.012Z</time></trkpt><trkpt lat="40.0569522" lon="9.6226678"><ele>620.0</ele><time>2026-04-06T14:20:40.012Z</time></trkpt><trkpt lat="40.0569561" lon="9.6225374"><ele>621.4</ele><time>2026-04-06T14:20:41.012Z</time></trkpt><trkpt lat="40.0569361" lon="9.6224076"><ele>622.8</ele><time>2026-04-06T14:20:42.012Z</time></trkpt><trkpt lat="40.0569018" lon="9.6222826"><ele>624.2</ele><time>2026-04-06T14:20:43.012Z</time></trkpt><trkpt lat="40.056849" lon="9.6221719"><ele>625.6</ele><time>2026-04-06T14:20:44.012Z</time></trkpt><trkpt lat="40.056794" lon="9.6220904"><ele>627.0</ele><time>2026-04-06T14:20:45.012Z</time></trkpt><trkpt lat="40.0567364" lon="9.6220216"><ele>625.5</ele><time>2026-04-06T14:20:46.011Z</time></trkpt><trkpt lat="40.0566785" lon="9.621966"><ele>624.0</ele><time>2026-04-06T14:20:47.012Z</time></trkpt><trkpt lat="40.0566216" lon="9.6219018"><ele>622.5</ele><time>2026-04-06T14:20:48.012Z</time></trkpt><trkpt lat="40.0565761" lon="9.621813"><ele>621.0</ele><time>2026-04-06T14:20:49.011Z</time></trkpt><trkpt lat="40.0565318" lon="9.6217164"><ele>619.5</ele><time>2026-04-06T14:20:50.012Z</time></trkpt><trkpt lat="40.0564918" lon="9.6216011"><ele>618.0</ele><time>2026-04-06T14:20:51.012Z</time></trkpt><trkpt lat="40.0564485" lon="9.6214719"><ele>624.25</ele><time>2026-04-06T14:20:52.012Z</time></trkpt><trkpt lat="40.0564007" lon="9.6213262"><ele>630.5</ele><time>2026-04-06T14:20:53.012Z</time></trkpt><trkpt lat="40.0563481" lon="9.6211701"><ele>636.75</ele><time>2026-04-06T14:20:54.012Z</time></trkpt><trkpt lat="40.0563101" lon="9.6210013"><ele>643.0</ele><time>2026-04-06T14:20:55.011Z</time></trkpt><trkpt lat="40.0562788" lon="9.6208358"><ele>643.0</ele><time>2026-04-06T14:20:56.011Z</time></trkpt><trkpt lat="40.0562497" lon="9.6206744"><ele>643.0</ele><time>2026-04-06T14:20:57.012Z</time></trkpt><trkpt lat="40.0562278" lon="9.620532"><ele>643.0</ele><time>2026-04-06T14:20:58.012Z</time></trkpt><trkpt lat="40.0562099" lon="9.620421"><ele>643.0</ele><time>2026-04-06T14:20:59.012Z</time></trkpt><trkpt lat="40.0561936" lon="9.6203057"><ele>643.0</ele><time>2026-04-06T14:21:00.012Z</time></trkpt><trkpt lat="40.0561797" lon="9.6201872"><ele>643.0</ele><time>2026-04-06T14:21:01.012Z</time></trkpt><trkpt lat="40.0561558" lon="9.6200732"><ele>643.0</ele><time>2026-04-06T14:21:02.012Z</time></trkpt><trkpt lat="40.056124" lon="9.6199487"><ele>643.0</ele><time>2026-04-06T14:21:03.011Z</time></trkpt><trkpt lat="40.0560947" lon="9.6198106"><ele>643.0</ele><time>2026-04-06T14:21:04.012Z</time></trkpt><trkpt lat="40.0560613" lon="9.6196711"><ele>643.0</ele><time>2026-04-06T14:21:05.012Z</time></trkpt><trkpt lat="40.0560182" lon="9.6195317"><ele>642.1999999999999</ele><time>2026-04-06T14:21:06.012Z</time></trkpt><trkpt lat="40.0559675" lon="9.6194083"><ele>641.4</ele><time>2026-04-06T14:21:07.012Z</time></trkpt><trkpt lat="40.0559167" lon="9.6192949"><ele>640.5999999999999</ele><time>2026-04-06T14:21:08.012Z</time></trkpt><trkpt lat="40.0558697" lon="9.6191867"><ele>639.8</ele><time>2026-04-06T14:21:09.012Z</time></trkpt><trkpt lat="40.0558267" lon="9.619083"><ele>639.0</ele><time>2026-04-06T14:21:10.012Z</time></trkpt><trkpt lat="40.0557859" lon="9.618978"><ele>639.6</ele><time>2026-04-06T14:21:11.011Z</time></trkpt><trkpt lat="40.0557574" lon="9.6188636"><ele>640.2</ele><time>2026-04-06T14:21:12.011Z</time></trkpt><trkpt lat="40.0557469" lon="9.6187372"><ele>640.8000000000001</ele><time>2026-04-06T14:21:13.012Z</time></trkpt><trkpt lat="40.055756" lon="9.618611"><ele>641.4</ele><time>2026-04-06T14:21:14.012Z</time></trkpt><trkpt lat="40.0557836" lon="9.6184673"><ele>642.0</ele><time>2026-04-06T14:21:15.012Z</time></trkpt><trkpt lat="40.0558114" lon="9.6183045"><ele>642.0</ele><time>2026-04-06T14:21:16.012Z</time></trkpt><trkpt lat="40.0558425" lon="9.618145"><ele>642.0</ele><time>2026-04-06T14:21:17.011Z</time></trkpt><trkpt lat="40.0558741" lon="9.6179979"><ele>642.0</ele><time>2026-04-06T14:21:18.012Z</time></trkpt><trkpt lat="40.0559039" lon="9.6178575"><ele>642.0</ele><time>2026-04-06T14:21:19.011Z</time></trkpt><trkpt lat="40.0559345" lon="9.6177118"><ele>644.25</ele><time>2026-04-06T14:21:20.012Z</time></trkpt><trkpt lat="40.05595" lon="9.6175687"><ele>646.5</ele><time>2026-04-06T14:21:21.012Z</time></trkpt><trkpt lat="40.055956" lon="9.6174195"><ele>648.75</ele><time>2026-04-06T14:21:22.012Z</time></trkpt><trkpt lat="40.0559424" lon="9.617269"><ele>651.0</ele><time>2026-04-06T14:21:23.012Z</time></trkpt><trkpt lat="40.0559216" lon="9.6171192"><ele>650.4</ele><time>2026-04-06T14:21:24.011Z</time></trkpt><trkpt lat="40.0558858" lon="9.6169714"><ele>649.8</ele><time>2026-04-06T14:21:25.011Z</time></trkpt><trkpt lat="40.0558419" lon="9.6168453"><ele>649.1999999999999</ele><time>2026-04-06T14:21:26.011Z</time></trkpt><trkpt lat="40.0557944" lon="9.6167294"><ele>648.5999999999999</ele><time>2026-04-06T14:21:27.012Z</time></trkpt><trkpt lat="40.0557498" lon="9.6166156"><ele>648.0</ele><time>2026-04-06T14:21:28.012Z</time></trkpt><trkpt lat="40.0557072" lon="9.6165043"><ele>651.5999999999999</ele><time>2026-04-06T14:21:29.012Z</time></trkpt><trkpt lat="40.0556704" lon="9.6163798"><ele>655.1999999999999</ele><time>2026-04-06T14:21:30.011Z</time></trkpt><trkpt lat="40.0556372" lon="9.616263"><ele>658.8</ele><time>2026-04-06T14:21:31.012Z</time></trkpt><trkpt lat="40.055594" lon="9.616151"><ele>662.4</ele><time>2026-04-06T14:21:32.011Z</time></trkpt><trkpt lat="40.0555328" lon="9.616046"><ele>666.0</ele><time>2026-04-06T14:21:33.012Z</time></trkpt><trkpt lat="40.0554609" lon="9.6159566"><ele>666.0</ele><time>2026-04-06T14:21:34.011Z</time></trkpt><trkpt lat="40.0553788" lon="9.6158821"><ele>666.0</ele><time>2026-04-06T14:21:35.012Z</time></trkpt><trkpt lat="40.055305" lon="9.6158224"><ele>666.0</ele><time>2026-04-06T14:21:36.011Z</time></trkpt><trkpt lat="40.0552391" lon="9.6157747"><ele>666.0</ele><time>2026-04-06T14:21:37.012Z</time></trkpt><trkpt lat="40.05518" lon="9.6157315"><ele>666.0</ele><time>2026-04-06T14:21:38.011Z</time></trkpt><trkpt lat="40.055133" lon="9.6156715"><ele>666.0</ele><time>2026-04-06T14:21:39.012Z</time></trkpt><trkpt lat="40.0551085" lon="9.6155171"><ele>666.0</ele><time>2026-04-06T14:21:41.012Z</time></trkpt><trkpt lat="40.0551319" lon="9.6154369"><ele>666.0</ele><time>2026-04-06T14:21:42.011Z</time></trkpt><trkpt lat="40.0551841" lon="9.6153661"><ele>666.0</ele><time>2026-04-06T14:21:43.011Z</time></trkpt><trkpt lat="40.0552461" lon="9.615309"><ele>666.0</ele><time>2026-04-06T14:21:44.012Z</time></trkpt><trkpt lat="40.055317" lon="9.6152486"><ele>666.0</ele><time>2026-04-06T14:21:45.012Z</time></trkpt><trkpt lat="40.0553939" lon="9.6151797"><ele>666.0</ele><time>2026-04-06T14:21:46.012Z</time></trkpt><trkpt lat="40.0554755" lon="9.6151104"><ele>665.5999999999999</ele><time>2026-04-06T14:21:47.012Z</time></trkpt><trkpt lat="40.0555626" lon="9.6150391"><ele>665.2</ele><time>2026-04-06T14:21:48.012Z</time></trkpt><trkpt lat="40.055647" lon="9.6149722"><ele>664.8</ele><time>2026-04-06T14:21:49.011Z</time></trkpt><trkpt lat="40.0557362" lon="9.6149149"><ele>664.4000000000001</ele><time>2026-04-06T14:21:50.011Z</time></trkpt><trkpt lat="40.0558275" lon="9.6148547"><ele>664.0</ele><time>2026-04-06T14:21:51.012Z</time></trkpt><trkpt lat="40.0559302" lon="9.6147989"><ele>664.0</ele><time>2026-04-06T14:21:52.011Z</time></trkpt><trkpt lat="40.0560204" lon="9.6147447"><ele>664.0</ele><time>2026-04-06T14:21:53.012Z</time></trkpt><trkpt lat="40.0561037" lon="9.6146948"><ele>664.0</ele><time>2026-04-06T14:21:54.012Z</time></trkpt><trkpt lat="40.0561899" lon="9.6146416"><ele>664.0</ele><time>2026-04-06T14:21:55.011Z</time></trkpt><trkpt lat="40.0562729" lon="9.614602"><ele>664.0</ele><time>2026-04-06T14:21:56.011Z</time></trkpt><trkpt lat="40.0563685" lon="9.6145855"><ele>664.0</ele><time>2026-04-06T14:21:57.012Z</time></trkpt><trkpt lat="40.056457" lon="9.6145938"><ele>664.0</ele><time>2026-04-06T14:21:58.012Z</time></trkpt><trkpt lat="40.056543" lon="9.6146222"><ele>664.0</ele><time>2026-04-06T14:21:59.012Z</time></trkpt><trkpt lat="40.0566332" lon="9.6146581"><ele>664.0</ele><time>2026-04-06T14:22:00.012Z</time></trkpt><trkpt lat="40.0567209" lon="9.6147037"><ele>664.0</ele><time>2026-04-06T14:22:01.012Z</time></trkpt><trkpt lat="40.0568122" lon="9.6147471"><ele>663.4000000000001</ele><time>2026-04-06T14:22:02.012Z</time></trkpt><trkpt lat="40.0569126" lon="9.6147869"><ele>662.8</ele><time>2026-04-06T14:22:03.012Z</time></trkpt><trkpt lat="40.0570089" lon="9.6148139"><ele>662.2</ele><time>2026-04-06T14:22:04.012Z</time></trkpt><trkpt lat="40.0571061" lon="9.6148256"><ele>661.5999999999999</ele><time>2026-04-06T14:22:05.012Z</time></trkpt><trkpt lat="40.0572094" lon="9.6148071"><ele>661.0</ele><time>2026-04-06T14:22:06.012Z</time></trkpt><trkpt lat="40.0573117" lon="9.6147823"><ele>661.0</ele><time>2026-04-06T14:22:07.011Z</time></trkpt><trkpt lat="40.0574081" lon="9.6147409"><ele>661.0</ele><time>2026-04-06T14:22:08.012Z</time></trkpt><trkpt lat="40.0575059" lon="9.6147049"><ele>661.0</ele><time>2026-04-06T14:22:09.012Z</time></trkpt><trkpt lat="40.0575971" lon="9.6146731"><ele>661.0</ele><time>2026-04-06T14:22:10.012Z</time></trkpt><trkpt lat="40.0576866" lon="9.6146797"><ele>661.0</ele><time>2026-04-06T14:22:11.011Z</time></trkpt><trkpt lat="40.0577733" lon="9.614731"><ele>662.3333333333334</ele><time>2026-04-06T14:22:12.011Z</time></trkpt><trkpt lat="40.0578489" lon="9.6148049"><ele>663.6666666666667</ele><time>2026-04-06T14:22:13.012Z</time></trkpt><trkpt lat="40.0579131" lon="9.614868"><ele>665.0</ele><time>2026-04-06T14:22:14.012Z</time></trkpt><trkpt lat="40.0579925" lon="9.6149306"><ele>666.3333333333334</ele><time>2026-04-06T14:22:15.011Z</time></trkpt><trkpt lat="40.0580682" lon="9.6149876"><ele>667.6666666666666</ele><time>2026-04-06T14:22:16.012Z</time></trkpt><trkpt lat="40.0581528" lon="9.6150378"><ele>669.0</ele><time>2026-04-06T14:22:17.012Z</time></trkpt><trkpt lat="40.0582469" lon="9.615075"><ele>672.2</ele><time>2026-04-06T14:22:18.012Z</time></trkpt><trkpt lat="40.0583395" lon="9.6150911"><ele>675.4000000000001</ele><time>2026-04-06T14:22:19.012Z</time></trkpt><trkpt lat="40.0584373" lon="9.6150952"><ele>678.6</ele><time>2026-04-06T14:22:20.012Z</time></trkpt><trkpt lat="40.0585356" lon="9.6150876"><ele>681.8</ele><time>2026-04-06T14:22:21.012Z</time></trkpt><trkpt lat="40.0586375" lon="9.6150811"><ele>685.0</ele><time>2026-04-06T14:22:22.012Z</time></trkpt><trkpt lat="40.0587389" lon="9.6150747"><ele>685.0</ele><time>2026-04-06T14:22:23.012Z</time></trkpt><trkpt lat="40.0588452" lon="9.6150632"><ele>685.0</ele><time>2026-04-06T14:22:24.012Z</time></trkpt><trkpt lat="40.0589512" lon="9.6150471"><ele>685.0</ele><time>2026-04-06T14:22:25.012Z</time></trkpt><trkpt lat="40.0590557" lon="9.6150245"><ele>685.0</ele><time>2026-04-06T14:22:26.011Z</time></trkpt><trkpt lat="40.0591629" lon="9.614994"><ele>685.0</ele><time>2026-04-06T14:22:27.012Z</time></trkpt><trkpt lat="40.0592681" lon="9.6149441"><ele>685.4</ele><time>2026-04-06T14:22:28.012Z</time></trkpt><trkpt lat="40.0593696" lon="9.6148902"><ele>685.8</ele><time>2026-04-06T14:22:29.012Z</time></trkpt><trkpt lat="40.059461" lon="9.6148181"><ele>686.2</ele><time>2026-04-06T14:22:30.011Z</time></trkpt><trkpt lat="40.0595555" lon="9.6147499"><ele>686.6</ele><time>2026-04-06T14:22:31.012Z</time></trkpt><trkpt lat="40.0596438" lon="9.6146678"><ele>687.0</ele><time>2026-04-06T14:22:32.012Z</time></trkpt><trkpt lat="40.0597274" lon="9.6145723"><ele>688.3333333333334</ele><time>2026-04-06T14:22:33.012Z</time></trkpt><trkpt lat="40.0597868" lon="9.6144728"><ele>689.6666666666666</ele><time>2026-04-06T14:22:34.012Z</time></trkpt><trkpt lat="40.0598465" lon="9.6143894"><ele>691.0</ele><time>2026-04-06T14:22:35.012Z</time></trkpt><trkpt lat="40.0599015" lon="9.6143078"><ele>692.3333333333333</ele><time>2026-04-06T14:22:36.012Z</time></trkpt><trkpt lat="40.0599594" lon="9.6142297"><ele>693.6666666666666</ele><time>2026-04-06T14:22:37.011Z</time></trkpt><trkpt lat="40.0600178" lon="9.6141614"><ele>695.0</ele><time>2026-04-06T14:22:38.012Z</time></trkpt><trkpt lat="40.0600844" lon="9.6141268"><ele>695.0</ele><time>2026-04-06T14:22:39.012Z</time></trkpt><trkpt lat="40.0601621" lon="9.614111"><ele>695.0</ele><time>2026-04-06T14:22:40.011Z</time></trkpt><trkpt lat="40.0602335" lon="9.614112"><ele>695.0</ele><time>2026-04-06T14:22:41.012Z</time></trkpt><trkpt lat="40.0603081" lon="9.6141021"><ele>695.0</ele><time>2026-04-06T14:22:42.012Z</time></trkpt><trkpt lat="40.0603843" lon="9.6140872"><ele>695.0</ele><time>2026-04-06T14:22:43.012Z</time></trkpt><trkpt lat="40.0604638" lon="9.6140445"><ele>695.0</ele><time>2026-04-06T14:22:44.012Z</time></trkpt><trkpt lat="40.0605423" lon="9.6139854"><ele>695.0</ele><time>2026-04-06T14:22:45.012Z</time></trkpt><trkpt lat="40.0606317" lon="9.613908"><ele>695.0</ele><time>2026-04-06T14:22:46.012Z</time></trkpt><trkpt lat="40.0607102" lon="9.6138231"><ele>695.0</ele><time>2026-04-06T14:22:47.011Z</time></trkpt><trkpt lat="40.0607904" lon="9.6137384"><ele>695.0</ele><time>2026-04-06T14:22:48.012Z</time></trkpt><trkpt lat="40.060857" lon="9.6136683"><ele>695.0</ele><time>2026-04-06T14:22:49.012Z</time></trkpt><trkpt lat="40.060921" lon="9.6135945"><ele>697.5</ele><time>2026-04-06T14:22:50.012Z</time></trkpt><trkpt lat="40.0609895" lon="9.6135125"><ele>700.0</ele><time>2026-04-06T14:22:51.012Z</time></trkpt><trkpt lat="40.0610564" lon="9.6134258"><ele>702.5</ele><time>2026-04-06T14:22:52.012Z</time></trkpt><trkpt lat="40.0611225" lon="9.6133506"><ele>705.0</ele><time>2026-04-06T14:22:53.012Z</time></trkpt><trkpt lat="40.0611826" lon="9.6132891"><ele>707.5</ele><time>2026-04-06T14:22:54.012Z</time></trkpt><trkpt lat="40.0612562" lon="9.6132534"><ele>710.0</ele><time>2026-04-06T14:22:55.012Z</time></trkpt><trkpt lat="40.0613308" lon="9.6132464"><ele>710.0</ele><time>2026-04-06T14:22:56.012Z</time></trkpt><trkpt lat="40.0614152" lon="9.6132596"><ele>710.0</ele><time>2026-04-06T14:22:57.012Z</time></trkpt><trkpt lat="40.0615023" lon="9.613282"><ele>710.0</ele><time>2026-04-06T14:22:58.012Z</time></trkpt><trkpt lat="40.0615926" lon="9.6133015"><ele>710.0</ele><time>2026-04-06T14:22:59.012Z</time></trkpt><trkpt lat="40.061683" lon="9.6133175"><ele>710.0</ele><time>2026-04-06T14:23:00.012Z</time></trkpt><trkpt lat="40.0617702" lon="9.613338"><ele>710.0</ele><time>2026-04-06T14:23:01.012Z</time></trkpt><trkpt lat="40.0618645" lon="9.6133498"><ele>708.4</ele><time>2026-04-06T14:23:02.012Z</time></trkpt><trkpt lat="40.0619652" lon="9.6133562"><ele>706.8</ele><time>2026-04-06T14:23:03.011Z</time></trkpt><trkpt lat="40.0620644" lon="9.613365"><ele>705.2</ele><time>2026-04-06T14:23:04.012Z</time></trkpt><trkpt lat="40.0621619" lon="9.6133771"><ele>703.6</ele><time>2026-04-06T14:23:05.012Z</time></trkpt><trkpt lat="40.0622585" lon="9.6133826"><ele>702.0</ele><time>2026-04-06T14:23:06.012Z</time></trkpt><trkpt lat="40.0623532" lon="9.6133821"><ele>702.0</ele><time>2026-04-06T14:23:07.012Z</time></trkpt><trkpt lat="40.0624468" lon="9.6133762"><ele>702.0</ele><time>2026-04-06T14:23:08.012Z</time></trkpt><trkpt lat="40.0625413" lon="9.6133625"><ele>702.0</ele><time>2026-04-06T14:23:09.012Z</time></trkpt><trkpt lat="40.0626375" lon="9.6133407"><ele>702.0</ele><time>2026-04-06T14:23:10.012Z</time></trkpt><trkpt lat="40.0627319" lon="9.6133097"><ele>702.0</ele><time>2026-04-06T14:23:11.011Z</time></trkpt><trkpt lat="40.062831" lon="9.6132695"><ele>702.6</ele><time>2026-04-06T14:23:12.012Z</time></trkpt><trkpt lat="40.0629289" lon="9.6132227"><ele>703.2</ele><time>2026-04-06T14:23:13.011Z</time></trkpt><trkpt lat="40.0630271" lon="9.6131613"><ele>703.8</ele><time>2026-04-06T14:23:14.011Z</time></trkpt><trkpt lat="40.0631216" lon="9.6130866"><ele>704.4</ele><time>2026-04-06T14:23:15.012Z</time></trkpt><trkpt lat="40.0632152" lon="9.613009"><ele>705.0</ele><time>2026-04-06T14:23:16.012Z</time></trkpt><trkpt lat="40.0633114" lon="9.6129255"><ele>705.0</ele><time>2026-04-06T14:23:17.012Z</time></trkpt><trkpt lat="40.0634049" lon="9.6128483"><ele>705.0</ele><time>2026-04-06T14:23:18.012Z</time></trkpt><trkpt lat="40.0634956" lon="9.6127726"><ele>705.0</ele><time>2026-04-06T14:23:19.011Z</time></trkpt><trkpt lat="40.0635909" lon="9.6127"><ele>705.0</ele><time>2026-04-06T14:23:20.012Z</time></trkpt><trkpt lat="40.0636938" lon="9.6126407"><ele>705.0</ele><time>2026-04-06T14:23:21.011Z</time></trkpt><trkpt lat="40.063805" lon="9.6125976"><ele>709.25</ele><time>2026-04-06T14:23:22.012Z</time></trkpt><trkpt lat="40.0639164" lon="9.6125739"><ele>713.5</ele><time>2026-04-06T14:23:23.012Z</time></trkpt><trkpt lat="40.0640243" lon="9.6125507"><ele>717.75</ele><time>2026-04-06T14:23:24.011Z</time></trkpt><trkpt lat="40.0641539" lon="9.6125138"><ele>722.0</ele><time>2026-04-06T14:23:25.012Z</time></trkpt><trkpt lat="40.0643084" lon="9.6124721"><ele>722.0</ele><time>2026-04-06T14:23:26.012Z</time></trkpt><trkpt lat="40.0645086" lon="9.6124433"><ele>722.0</ele><time>2026-04-06T14:23:27.012Z</time></trkpt><trkpt lat="40.0647186" lon="9.6124165"><ele>722.0</ele><time>2026-04-06T14:23:28.011Z</time></trkpt><trkpt lat="40.0649154" lon="9.6124012"><ele>721.0</ele><time>2026-04-06T14:23:29.012Z</time></trkpt><trkpt lat="40.0650964" lon="9.6124161"><ele>720.0</ele><time>2026-04-06T14:23:30.012Z</time></trkpt><trkpt lat="40.065245" lon="9.6124683"><ele>719.0</ele><time>2026-04-06T14:23:31.011Z</time></trkpt><trkpt lat="40.065373" lon="9.6125269"><ele>719.0</ele><time>2026-04-06T14:23:32.012Z</time></trkpt><trkpt lat="40.0654923" lon="9.6125232"><ele>719.0</ele><time>2026-04-06T14:23:33.012Z</time></trkpt><trkpt lat="40.065621" lon="9.6124733"><ele>719.0</ele><time>2026-04-06T14:23:34.012Z</time></trkpt><trkpt lat="40.0657618" lon="9.6123975"><ele>719.0</ele><time>2026-04-06T14:23:35.012Z</time></trkpt><trkpt lat="40.065927" lon="9.612332"><ele>719.6666666666666</ele><time>2026-04-06T14:23:36.012Z</time></trkpt><trkpt lat="40.0661012" lon="9.6122733"><ele>720.3333333333334</ele><time>2026-04-06T14:23:37.011Z</time></trkpt><trkpt lat="40.0662889" lon="9.61221"><ele>721.0</ele><time>2026-04-06T14:23:38.012Z</time></trkpt><trkpt lat="40.0664713" lon="9.6121251"><ele>723.6666666666667</ele><time>2026-04-06T14:23:39.011Z</time></trkpt><trkpt lat="40.0666424" lon="9.6120303"><ele>726.3333333333334</ele><time>2026-04-06T14:23:40.011Z</time></trkpt><trkpt lat="40.0668154" lon="9.6119569"><ele>729.0</ele><time>2026-04-06T14:23:41.012Z</time></trkpt><trkpt lat="40.0669753" lon="9.6119147"><ele>720.6666666666666</ele><time>2026-04-06T14:23:42.012Z</time></trkpt><trkpt lat="40.0671201" lon="9.6118964"><ele>712.3333333333333</ele><time>2026-04-06T14:23:43.011Z</time></trkpt><trkpt lat="40.0672626" lon="9.6118439"><ele>704.0</ele><time>2026-04-06T14:23:44.011Z</time></trkpt><trkpt lat="40.0674066" lon="9.6117521"><ele>707.6666666666666</ele><time>2026-04-06T14:23:45.012Z</time></trkpt><trkpt lat="40.0675677" lon="9.611684"><ele>711.3333333333334</ele><time>2026-04-06T14:23:46.012Z</time></trkpt><trkpt lat="40.0677427" lon="9.6116165"><ele>715.0</ele><time>2026-04-06T14:23:47.012Z</time></trkpt><trkpt lat="40.0679199" lon="9.611546"><ele>715.0</ele><time>2026-04-06T14:23:48.011Z</time></trkpt><trkpt lat="40.0680813" lon="9.6114705"><ele>715.0</ele><time>2026-04-06T14:23:49.012Z</time></trkpt><trkpt lat="40.0682212" lon="9.6113742"><ele>715.0</ele><time>2026-04-06T14:23:50.012Z</time></trkpt><trkpt lat="40.0683452" lon="9.6112368"><ele>714.0</ele><time>2026-04-06T14:23:51.012Z</time></trkpt><trkpt lat="40.0684476" lon="9.611062"><ele>713.0</ele><time>2026-04-06T14:23:52.012Z</time></trkpt><trkpt lat="40.0685368" lon="9.6108828"><ele>712.0</ele><time>2026-04-06T14:23:53.012Z</time></trkpt><trkpt lat="40.068631" lon="9.6107442"><ele>712.0</ele><time>2026-04-06T14:23:54.011Z</time></trkpt><trkpt lat="40.0687401" lon="9.6106428"><ele>712.0</ele><time>2026-04-06T14:23:55.012Z</time></trkpt><trkpt lat="40.0688652" lon="9.6105709"><ele>712.0</ele><time>2026-04-06T14:23:56.012Z</time></trkpt><trkpt lat="40.0689825" lon="9.6104773"><ele>712.0</ele><time>2026-04-06T14:23:57.011Z</time></trkpt><trkpt lat="40.0690895" lon="9.6103496"><ele>712.0</ele><time>2026-04-06T14:23:58.012Z</time></trkpt><trkpt lat="40.0691737" lon="9.6102123"><ele>712.0</ele><time>2026-04-06T14:23:59.012Z</time></trkpt><trkpt lat="40.0692676" lon="9.6100843"><ele>712.0</ele><time>2026-04-06T14:24:00.011Z</time></trkpt><trkpt lat="40.069393" lon="9.6099851"><ele>712.0</ele><time>2026-04-06T14:24:01.011Z</time></trkpt><trkpt lat="40.0695213" lon="9.6099087"><ele>712.0</ele><time>2026-04-06T14:24:02.012Z</time></trkpt><trkpt lat="40.0696709" lon="9.6098255"><ele>712.0</ele><time>2026-04-06T14:24:03.012Z</time></trkpt><trkpt lat="40.0698189" lon="9.6097539"><ele>712.0</ele><time>2026-04-06T14:24:04.012Z</time></trkpt><trkpt lat="40.0699796" lon="9.6096731"><ele>709.6666666666667</ele><time>2026-04-06T14:24:05.012Z</time></trkpt><trkpt lat="40.0701404" lon="9.6095882"><ele>707.3333333333334</ele><time>2026-04-06T14:24:06.012Z</time></trkpt><trkpt lat="40.0703008" lon="9.6095072"><ele>705.0</ele><time>2026-04-06T14:24:07.011Z</time></trkpt><trkpt lat="40.070455" lon="9.6094541"><ele>705.0</ele><time>2026-04-06T14:24:08.012Z</time></trkpt><trkpt lat="40.0706179" lon="9.6094344"><ele>705.0</ele><time>2026-04-06T14:24:09.012Z</time></trkpt><trkpt lat="40.0707896" lon="9.6094695"><ele>705.0</ele><time>2026-04-06T14:24:10.012Z</time></trkpt><trkpt lat="40.0709465" lon="9.6095288"><ele>712.0</ele><time>2026-04-06T14:24:11.011Z</time></trkpt><trkpt lat="40.0711043" lon="9.6096045"><ele>719.0</ele><time>2026-04-06T14:24:12.012Z</time></trkpt><trkpt lat="40.071273" lon="9.6096492"><ele>726.0</ele><time>2026-04-06T14:24:13.012Z</time></trkpt><trkpt lat="40.0714413" lon="9.6096794"><ele>727.3333333333334</ele><time>2026-04-06T14:24:14.012Z</time></trkpt><trkpt lat="40.0716327" lon="9.6096495"><ele>728.6666666666667</ele><time>2026-04-06T14:24:15.011Z</time></trkpt><trkpt lat="40.0718112" lon="9.6095962"><ele>730.0</ele><time>2026-04-06T14:24:16.012Z</time></trkpt><trkpt lat="40.0719924" lon="9.6095334"><ele>730.0</ele><time>2026-04-06T14:24:17.012Z</time></trkpt><trkpt lat="40.072168" lon="9.6094974"><ele>730.0</ele><time>2026-04-06T14:24:18.012Z</time></trkpt><trkpt lat="40.0723478" lon="9.6094894"><ele>730.0</ele><time>2026-04-06T14:24:19.012Z</time></trkpt><trkpt lat="40.0725233" lon="9.6095171"><ele>730.25</ele><time>2026-04-06T14:24:20.011Z</time></trkpt><trkpt lat="40.0726873" lon="9.6095329"><ele>730.5</ele><time>2026-04-06T14:24:21.012Z</time></trkpt><trkpt lat="40.0728075" lon="9.6095274"><ele>730.75</ele><time>2026-04-06T14:24:22.011Z</time></trkpt><trkpt lat="40.072912" lon="9.6094699"><ele>731.0</ele><time>2026-04-06T14:24:23.011Z</time></trkpt><trkpt lat="40.0730022" lon="9.6093761"><ele>725.25</ele><time>2026-04-06T14:24:24.012Z</time></trkpt><trkpt lat="40.0730791" lon="9.6092448"><ele>719.5</ele><time>2026-04-06T14:24:25.011Z</time></trkpt><trkpt lat="40.0731256" lon="9.6091044"><ele>713.75</ele><time>2026-04-06T14:24:26.012Z</time></trkpt><trkpt lat="40.0731499" lon="9.6089409"><ele>708.0</ele><time>2026-04-06T14:24:27.012Z</time></trkpt><trkpt lat="40.0731765" lon="9.6087864"><ele>708.75</ele><time>2026-04-06T14:24:28.012Z</time></trkpt><trkpt lat="40.0732173" lon="9.6086334"><ele>709.5</ele><time>2026-04-06T14:24:29.012Z</time></trkpt><trkpt lat="40.0732761" lon="9.608507"><ele>710.25</ele><time>2026-04-06T14:24:30.012Z</time></trkpt><trkpt lat="40.0733523" lon="9.6083943"><ele>711.0</ele><time>2026-04-06T14:24:31.012Z</time></trkpt><trkpt lat="40.0734358" lon="9.6083002"><ele>711.0</ele><time>2026-04-06T14:24:32.012Z</time></trkpt><trkpt lat="40.0735193" lon="9.6082228"><ele>711.0</ele><time>2026-04-06T14:24:33.012Z</time></trkpt><trkpt lat="40.0735988" lon="9.6081505"><ele>711.0</ele><time>2026-04-06T14:24:34.012Z</time></trkpt><trkpt lat="40.0736667" lon="9.6080796"><ele>711.0</ele><time>2026-04-06T14:24:35.012Z</time></trkpt><trkpt lat="40.0737322" lon="9.6080044"><ele>711.0</ele><time>2026-04-06T14:24:36.012Z</time></trkpt><trkpt lat="40.0737947" lon="9.6079285"><ele>711.0</ele><time>2026-04-06T14:24:37.011Z</time></trkpt><trkpt lat="40.073844" lon="9.6078593"><ele>711.0</ele><time>2026-04-06T14:24:38.012Z</time></trkpt><trkpt lat="40.073889" lon="9.6077865"><ele>711.0</ele><time>2026-04-06T14:24:39.012Z</time></trkpt><trkpt lat="40.0739333" lon="9.6077139"><ele>711.0</ele><time>2026-04-06T14:24:40.012Z</time></trkpt><trkpt lat="40.0739766" lon="9.6076269"><ele>711.0</ele><time>2026-04-06T14:24:41.012Z</time></trkpt><trkpt lat="40.0740073" lon="9.6075129"><ele>711.0</ele><time>2026-04-06T14:24:42.011Z</time></trkpt><trkpt lat="40.0740355" lon="9.6073765"><ele>712.0</ele><time>2026-04-06T14:24:43.012Z</time></trkpt><trkpt lat="40.0740621" lon="9.6072307"><ele>713.0</ele><time>2026-04-06T14:24:44.012Z</time></trkpt><trkpt lat="40.0740861" lon="9.6070798"><ele>714.0</ele><time>2026-04-06T14:24:45.012Z</time></trkpt><trkpt lat="40.0740972" lon="9.6069296"><ele>715.0</ele><time>2026-04-06T14:24:46.012Z</time></trkpt><trkpt lat="40.0741094" lon="9.6067955"><ele>715.0</ele><time>2026-04-06T14:24:47.011Z</time></trkpt><trkpt lat="40.0741286" lon="9.6066699"><ele>715.0</ele><time>2026-04-06T14:24:48.012Z</time></trkpt><trkpt lat="40.0741423" lon="9.6065458"><ele>715.0</ele><time>2026-04-06T14:24:49.011Z</time></trkpt><trkpt lat="40.0741592" lon="9.6064226"><ele>715.0</ele><time>2026-04-06T14:24:50.011Z</time></trkpt><trkpt lat="40.07419" lon="9.6062994"><ele>715.0</ele><time>2026-04-06T14:24:51.011Z</time></trkpt><trkpt lat="40.0742307" lon="9.6061746"><ele>712.0</ele><time>2026-04-06T14:24:52.011Z</time></trkpt><trkpt lat="40.074294" lon="9.6060202"><ele>709.0</ele><time>2026-04-06T14:24:53.012Z</time></trkpt><trkpt lat="40.0743794" lon="9.6058486"><ele>706.0</ele><time>2026-04-06T14:24:54.011Z</time></trkpt><trkpt lat="40.0744915" lon="9.6056725"><ele>706.0</ele><time>2026-04-06T14:24:55.012Z</time></trkpt><trkpt lat="40.0746146" lon="9.6054949"><ele>706.0</ele><time>2026-04-06T14:24:56.008Z</time></trkpt><trkpt lat="40.0747282" lon="9.6053216"><ele>706.0</ele><time>2026-04-06T14:24:57.012Z</time></trkpt><trkpt lat="40.0748401" lon="9.605156"><ele>708.3333333333334</ele><time>2026-04-06T14:24:58.011Z</time></trkpt><trkpt lat="40.0749718" lon="9.6050196"><ele>710.6666666666666</ele><time>2026-04-06T14:24:59.012Z</time></trkpt><trkpt lat="40.0751257" lon="9.6049102"><ele>713.0</ele><time>2026-04-06T14:25:00.011Z</time></trkpt><trkpt lat="40.0752865" lon="9.604809"><ele>713.0</ele><time>2026-04-06T14:25:01.012Z</time></trkpt><trkpt lat="40.0754637" lon="9.6047145"><ele>713.0</ele><time>2026-04-06T14:25:02.012Z</time></trkpt><trkpt lat="40.0756361" lon="9.6046147"><ele>713.0</ele><time>2026-04-06T14:25:03.012Z</time></trkpt><trkpt lat="40.0757885" lon="9.6044889"><ele>711.3333333333333</ele><time>2026-04-06T14:25:04.012Z</time></trkpt><trkpt lat="40.075926" lon="9.6043342"><ele>709.6666666666666</ele><time>2026-04-06T14:25:05.011Z</time></trkpt><trkpt lat="40.0760653" lon="9.6041804"><ele>708.0</ele><time>2026-04-06T14:25:06.012Z</time></trkpt><trkpt lat="40.0762264" lon="9.6040451"><ele>708.0</ele><time>2026-04-06T14:25:07.012Z</time></trkpt><trkpt lat="40.0763878" lon="9.6039175"><ele>708.0</ele><time>2026-04-06T14:25:08.011Z</time></trkpt><trkpt lat="40.0765416" lon="9.6037963"><ele>708.0</ele><time>2026-04-06T14:25:09.012Z</time></trkpt><trkpt lat="40.0766897" lon="9.6036885"><ele>707.25</ele><time>2026-04-06T14:25:10.012Z</time></trkpt><trkpt lat="40.0768229" lon="9.6035798"><ele>706.5</ele><time>2026-04-06T14:25:11.011Z</time></trkpt><trkpt lat="40.0769331" lon="9.6034589"><ele>705.75</ele><time>2026-04-06T14:25:12.012Z</time></trkpt><trkpt lat="40.0770204" lon="9.6033066"><ele>705.0</ele><time>2026-04-06T14:25:13.012Z</time></trkpt><trkpt lat="40.0770862" lon="9.6031346"><ele>705.0</ele><time>2026-04-06T14:25:14.011Z</time></trkpt><trkpt lat="40.0771315" lon="9.6029606"><ele>705.0</ele><time>2026-04-06T14:25:15.012Z</time></trkpt><trkpt lat="40.0771761" lon="9.6027922"><ele>705.0</ele><time>2026-04-06T14:25:16.012Z</time></trkpt><trkpt lat="40.0772221" lon="9.6026434"><ele>705.0</ele><time>2026-04-06T14:25:17.012Z</time></trkpt><trkpt lat="40.0772834" lon="9.6025217"><ele>704.2</ele><time>2026-04-06T14:25:18.011Z</time></trkpt><trkpt lat="40.0773606" lon="9.6024351"><ele>703.4</ele><time>2026-04-06T14:25:19.011Z</time></trkpt><trkpt lat="40.0774482" lon="9.6023927"><ele>702.5999999999999</ele><time>2026-04-06T14:25:20.011Z</time></trkpt><trkpt lat="40.0775517" lon="9.602419"><ele>701.8</ele><time>2026-04-06T14:25:21.012Z</time></trkpt><trkpt lat="40.0776468" lon="9.6024453"><ele>701.0</ele><time>2026-04-06T14:25:22.011Z</time></trkpt><trkpt lat="40.0777175" lon="9.6026354"><ele>704.6666666666666</ele><time>2026-04-06T14:25:23.012Z</time></trkpt><trkpt lat="40.0777802" lon="9.6028204"><ele>708.3333333333334</ele><time>2026-04-06T14:25:24.011Z</time></trkpt><trkpt lat="40.0778321" lon="9.6030147"><ele>712.0</ele><time>2026-04-06T14:25:25.012Z</time></trkpt><trkpt lat="40.0778855" lon="9.603203"><ele>712.0</ele><time>2026-04-06T14:25:26.012Z</time></trkpt><trkpt lat="40.0779395" lon="9.6033891"><ele>712.0</ele><time>2026-04-06T14:25:27.012Z</time></trkpt><trkpt lat="40.0779832" lon="9.6035669"><ele>712.0</ele><time>2026-04-06T14:25:28.012Z</time></trkpt><trkpt lat="40.0779891" lon="9.6037515"><ele>712.0</ele><time>2026-04-06T14:25:29.011Z</time></trkpt><trkpt lat="40.0779519" lon="9.6039366"><ele>712.0</ele><time>2026-04-06T14:25:30.012Z</time></trkpt><trkpt lat="40.0778959" lon="9.6040995"><ele>712.0</ele><time>2026-04-06T14:25:31.012Z</time></trkpt><trkpt lat="40.0778469" lon="9.6042648"><ele>712.0</ele><time>2026-04-06T14:25:32.012Z</time></trkpt><trkpt lat="40.07781" lon="9.6044235"><ele>712.0</ele><time>2026-04-06T14:25:33.012Z</time></trkpt><trkpt lat="40.0778123" lon="9.6045613"><ele>712.6666666666667</ele><time>2026-04-06T14:25:34.012Z</time></trkpt><trkpt lat="40.0778557" lon="9.6046593"><ele>713.3333333333334</ele><time>2026-04-06T14:25:35.012Z</time></trkpt><trkpt lat="40.077931" lon="9.6047238"><ele>714.0</ele><time>2026-04-06T14:25:36.012Z</time></trkpt><trkpt lat="40.078013" lon="9.6047339"><ele>714.6666666666666</ele><time>2026-04-06T14:25:37.012Z</time></trkpt><trkpt lat="40.0780841" lon="9.6046957"><ele>715.3333333333333</ele><time>2026-04-06T14:25:38.011Z</time></trkpt><trkpt lat="40.0781325" lon="9.604625"><ele>716.0</ele><time>2026-04-06T14:25:39.012Z</time></trkpt><trkpt lat="40.078167" lon="9.6045409"><ele>715.0</ele><time>2026-04-06T14:25:40.011Z</time></trkpt><trkpt lat="40.0782029" lon="9.6044229"><ele>714.0</ele><time>2026-04-06T14:25:41.012Z</time></trkpt><trkpt lat="40.0782367" lon="9.6042752"><ele>713.0</ele><time>2026-04-06T14:25:42.011Z</time></trkpt><trkpt lat="40.0782607" lon="9.6041125"><ele>712.0</ele><time>2026-04-06T14:25:43.012Z</time></trkpt><trkpt lat="40.0782976" lon="9.603934"><ele>706.0</ele><time>2026-04-06T14:25:44.012Z</time></trkpt><trkpt lat="40.0783545" lon="9.6037495"><ele>700.0</ele><time>2026-04-06T14:25:45.012Z</time></trkpt><trkpt lat="40.0784096" lon="9.6035603"><ele>694.0</ele><time>2026-04-06T14:25:46.012Z</time></trkpt><trkpt lat="40.0784608" lon="9.6033719"><ele>694.0</ele><time>2026-04-06T14:25:47.012Z</time></trkpt><trkpt lat="40.0785147" lon="9.6031943"><ele>694.0</ele><time>2026-04-06T14:25:48.012Z</time></trkpt><trkpt lat="40.0785755" lon="9.6030249"><ele>694.0</ele><time>2026-04-06T14:25:49.012Z</time></trkpt><trkpt lat="40.0786529" lon="9.6028649"><ele>694.0</ele><time>2026-04-06T14:25:50.011Z</time></trkpt><trkpt lat="40.0787446" lon="9.6027193"><ele>696.0</ele><time>2026-04-06T14:25:51.012Z</time></trkpt><trkpt lat="40.0788617" lon="9.6026081"><ele>698.0</ele><time>2026-04-06T14:25:52.012Z</time></trkpt><trkpt lat="40.078991" lon="9.6025162"><ele>700.0</ele><time>2026-04-06T14:25:53.012Z</time></trkpt><trkpt lat="40.0791292" lon="9.602432"><ele>702.0</ele><time>2026-04-06T14:25:54.012Z</time></trkpt><trkpt lat="40.0792733" lon="9.6023583"><ele>696.3333333333334</ele><time>2026-04-06T14:25:55.011Z</time></trkpt><trkpt lat="40.0794188" lon="9.6022975"><ele>690.6666666666667</ele><time>2026-04-06T14:25:56.011Z</time></trkpt><trkpt lat="40.0795722" lon="9.6022505"><ele>685.0</ele><time>2026-04-06T14:25:57.012Z</time></trkpt><trkpt lat="40.0797278" lon="9.6022123"><ele>685.0</ele><time>2026-04-06T14:25:58.012Z</time></trkpt><trkpt lat="40.0798876" lon="9.6021846"><ele>685.0</ele><time>2026-04-06T14:25:59.012Z</time></trkpt><trkpt lat="40.0800494" lon="9.6021777"><ele>685.0</ele><time>2026-04-06T14:26:00.012Z</time></trkpt><trkpt lat="40.080201" lon="9.602199"><ele>682.5</ele><time>2026-04-06T14:26:01.011Z</time></trkpt><trkpt lat="40.0803466" lon="9.6022333"><ele>680.0</ele><time>2026-04-06T14:26:02.011Z</time></trkpt><trkpt lat="40.0804838" lon="9.6022432"><ele>677.5</ele><time>2026-04-06T14:26:03.012Z</time></trkpt><trkpt lat="40.0806413" lon="9.6022115"><ele>675.0</ele><time>2026-04-06T14:26:04.012Z</time></trkpt><trkpt lat="40.0807936" lon="9.6021646"><ele>672.25</ele><time>2026-04-06T14:26:05.012Z</time></trkpt><trkpt lat="40.0809426" lon="9.6021129"><ele>669.5</ele><time>2026-04-06T14:26:06.011Z</time></trkpt><trkpt lat="40.0810795" lon="9.6020722"><ele>666.75</ele><time>2026-04-06T14:26:07.012Z</time></trkpt><trkpt lat="40.0812089" lon="9.6020777"><ele>664.0</ele><time>2026-04-06T14:26:08.012Z</time></trkpt><trkpt lat="40.0813284" lon="9.6021259"><ele>664.0</ele><time>2026-04-06T14:26:09.012Z</time></trkpt><trkpt lat="40.0814305" lon="9.6021956"><ele>664.0</ele><time>2026-04-06T14:26:10.012Z</time></trkpt><trkpt lat="40.0815324" lon="9.6022381"><ele>664.0</ele><time>2026-04-06T14:26:11.011Z</time></trkpt><trkpt lat="40.0816517" lon="9.6022222"><ele>664.0</ele><time>2026-04-06T14:26:12.011Z</time></trkpt><trkpt lat="40.0817819" lon="9.6021522"><ele>666.3333333333334</ele><time>2026-04-06T14:26:13.012Z</time></trkpt><trkpt lat="40.0819206" lon="9.6020584"><ele>668.6666666666666</ele><time>2026-04-06T14:26:14.012Z</time></trkpt><trkpt lat="40.0820648" lon="9.6019819"><ele>671.0</ele><time>2026-04-06T14:26:15.011Z</time></trkpt><trkpt lat="40.0822086" lon="9.6019403"><ele>671.0</ele><time>2026-04-06T14:26:16.012Z</time></trkpt><trkpt lat="40.0823501" lon="9.6019098"><ele>671.0</ele><time>2026-04-06T14:26:17.012Z</time></trkpt><trkpt lat="40.0824854" lon="9.6019036"><ele>671.0</ele><time>2026-04-06T14:26:18.012Z</time></trkpt><trkpt lat="40.0826128" lon="9.6019208"><ele>671.0</ele><time>2026-04-06T14:26:19.012Z</time></trkpt><trkpt lat="40.0827258" lon="9.6019514"><ele>668.4</ele><time>2026-04-06T14:26:20.012Z</time></trkpt><trkpt lat="40.0828333" lon="9.6019726"><ele>665.8</ele><time>2026-04-06T14:26:21.011Z</time></trkpt><trkpt lat="40.0829434" lon="9.6019866"><ele>663.1999999999999</ele><time>2026-04-06T14:26:22.012Z</time></trkpt><trkpt lat="40.0830514" lon="9.6019773"><ele>660.5999999999999</ele><time>2026-04-06T14:26:23.012Z</time></trkpt><trkpt lat="40.0831636" lon="9.6019312"><ele>658.0</ele><time>2026-04-06T14:26:24.012Z</time></trkpt><trkpt lat="40.08327" lon="9.6018531"><ele>657.25</ele><time>2026-04-06T14:26:25.012Z</time></trkpt><trkpt lat="40.0833793" lon="9.6017825"><ele>656.5</ele><time>2026-04-06T14:26:26.011Z</time></trkpt><trkpt lat="40.0834956" lon="9.6017387"><ele>655.75</ele><time>2026-04-06T14:26:27.012Z</time></trkpt><trkpt lat="40.0836146" lon="9.6017334"><ele>655.0</ele><time>2026-04-06T14:26:28.012Z</time></trkpt><trkpt lat="40.0837281" lon="9.6017828"><ele>655.0</ele><time>2026-04-06T14:26:29.011Z</time></trkpt><trkpt lat="40.0838219" lon="9.6018845"><ele>655.0</ele><time>2026-04-06T14:26:30.012Z</time></trkpt><trkpt lat="40.0839047" lon="9.6020113"><ele>655.0</ele><time>2026-04-06T14:26:31.012Z</time></trkpt><trkpt lat="40.0839857" lon="9.6021585"><ele>655.0</ele><time>2026-04-06T14:26:32.011Z</time></trkpt><trkpt lat="40.0840627" lon="9.6022795"><ele>659.75</ele><time>2026-04-06T14:26:33.012Z</time></trkpt><trkpt lat="40.0841499" lon="9.6023867"><ele>664.5</ele><time>2026-04-06T14:26:34.012Z</time></trkpt><trkpt lat="40.0842698" lon="9.6024613"><ele>669.25</ele><time>2026-04-06T14:26:35.012Z</time></trkpt><trkpt lat="40.0843976" lon="9.6025233"><ele>674.0</ele><time>2026-04-06T14:26:36.012Z</time></trkpt><trkpt lat="40.0845325" lon="9.6025984"><ele>674.0</ele><time>2026-04-06T14:26:37.012Z</time></trkpt><trkpt lat="40.0846709" lon="9.6026838"><ele>674.0</ele><time>2026-04-06T14:26:38.012Z</time></trkpt><trkpt lat="40.084826" lon="9.6027682"><ele>674.0</ele><time>2026-04-06T14:26:39.012Z</time></trkpt><trkpt lat="40.0849679" lon="9.60285"><ele>679.25</ele><time>2026-04-06T14:26:40.011Z</time></trkpt><trkpt lat="40.0850938" lon="9.602925"><ele>684.5</ele><time>2026-04-06T14:26:41.012Z</time></trkpt><trkpt lat="40.085205" lon="9.6029871"><ele>689.75</ele><time>2026-04-06T14:26:42.012Z</time></trkpt><trkpt lat="40.0853249" lon="9.6030088"><ele>695.0</ele><time>2026-04-06T14:26:43.011Z</time></trkpt><trkpt lat="40.0854574" lon="9.6030013"><ele>695.0</ele><time>2026-04-06T14:26:44.011Z</time></trkpt><trkpt lat="40.0855883" lon="9.6029567"><ele>695.0</ele><time>2026-04-06T14:26:45.012Z</time></trkpt><trkpt lat="40.0857078" lon="9.6028931"><ele>695.0</ele><time>2026-04-06T14:26:46.012Z</time></trkpt><trkpt lat="40.0858165" lon="9.6028274"><ele>695.0</ele><time>2026-04-06T14:26:47.012Z</time></trkpt><trkpt lat="40.0859284" lon="9.6027839"><ele>695.0</ele><time>2026-04-06T14:26:48.012Z</time></trkpt><trkpt lat="40.0860408" lon="9.6027636"><ele>695.0</ele><time>2026-04-06T14:26:49.012Z</time></trkpt><trkpt lat="40.0861715" lon="9.6027959"><ele>695.0</ele><time>2026-04-06T14:26:50.011Z</time></trkpt><trkpt lat="40.0862765" lon="9.6028649"><ele>695.0</ele><time>2026-04-06T14:26:51.012Z</time></trkpt><trkpt lat="40.0863629" lon="9.6029487"><ele>695.0</ele><time>2026-04-06T14:26:52.011Z</time></trkpt><trkpt lat="40.0864648" lon="9.6030145"><ele>695.0</ele><time>2026-04-06T14:26:53.012Z</time></trkpt><trkpt lat="40.0865572" lon="9.6030648"><ele>695.0</ele><time>2026-04-06T14:26:54.012Z</time></trkpt><trkpt lat="40.086689" lon="9.6030285"><ele>695.0</ele><time>2026-04-06T14:26:55.012Z</time></trkpt><trkpt lat="40.0867957" lon="9.6029469"><ele>697.6666666666666</ele><time>2026-04-06T14:26:56.011Z</time></trkpt><trkpt lat="40.0869096" lon="9.602884"><ele>700.3333333333334</ele><time>2026-04-06T14:26:57.011Z</time></trkpt><trkpt lat="40.0870436" lon="9.6027535"><ele>703.0</ele><time>2026-04-06T14:26:58.011Z</time></trkpt><trkpt lat="40.0871816" lon="9.6026173"><ele>700.0</ele><time>2026-04-06T14:26:59.012Z</time></trkpt><trkpt lat="40.0873171" lon="9.6024488"><ele>697.0</ele><time>2026-04-06T14:27:00.011Z</time></trkpt><trkpt lat="40.087488" lon="9.6023083"><ele>694.0</ele><time>2026-04-06T14:27:01.012Z</time></trkpt><trkpt lat="40.0876779" lon="9.6021659"><ele>694.0</ele><time>2026-04-06T14:27:02.011Z</time></trkpt><trkpt lat="40.0878614" lon="9.6020007"><ele>694.0</ele><time>2026-04-06T14:27:03.012Z</time></trkpt><trkpt lat="40.0880469" lon="9.6017858"><ele>694.5</ele><time>2026-04-06T14:27:04.012Z</time></trkpt><trkpt lat="40.0882621" lon="9.601616"><ele>695.0</ele><time>2026-04-06T14:27:05.011Z</time></trkpt><trkpt lat="40.0884816" lon="9.6014112"><ele>681.0</ele><time>2026-04-06T14:27:06.011Z</time></trkpt><trkpt lat="40.0887239" lon="9.6011204"><ele>667.0</ele><time>2026-04-06T14:27:07.011Z</time></trkpt><trkpt lat="40.0889631" lon="9.6009076"><ele>682.0</ele><time>2026-04-06T14:27:08.012Z</time></trkpt><trkpt lat="40.0891874" lon="9.6006738"><ele>697.0</ele><time>2026-04-06T14:27:09.012Z</time></trkpt><trkpt lat="40.0894094" lon="9.6004099"><ele>682.0</ele><time>2026-04-06T14:27:10.012Z</time></trkpt><trkpt lat="40.0895769" lon="9.6001268"><ele>667.0</ele><time>2026-04-06T14:27:11.012Z</time></trkpt><trkpt lat="40.089777" lon="9.5999116"><ele>682.5</ele><time>2026-04-06T14:27:12.012Z</time></trkpt><trkpt lat="40.0899614" lon="9.5997253"><ele>698.0</ele><time>2026-04-06T14:27:13.012Z</time></trkpt><trkpt lat="40.0901097" lon="9.5995157"><ele>690.0</ele><time>2026-04-06T14:27:14.012Z</time></trkpt><trkpt lat="40.0902511" lon="9.5993061"><ele>682.0</ele><time>2026-04-06T14:27:15.011Z</time></trkpt><trkpt lat="40.090418" lon="9.599194"><ele>674.0</ele><time>2026-04-06T14:27:16.012Z</time></trkpt><trkpt lat="40.0906251" lon="9.5991207"><ele>680.6666666666666</ele><time>2026-04-06T14:27:17.012Z</time></trkpt><trkpt lat="40.0908323" lon="9.599061"><ele>687.3333333333334</ele><time>2026-04-06T14:27:18.012Z</time></trkpt><trkpt lat="40.0910412" lon="9.5989888"><ele>694.0</ele><time>2026-04-06T14:27:19.012Z</time></trkpt><trkpt lat="40.0912562" lon="9.5989253"><ele>694.0</ele><time>2026-04-06T14:27:20.011Z</time></trkpt><trkpt lat="40.0914648" lon="9.5987715"><ele>694.0</ele><time>2026-04-06T14:27:21.011Z</time></trkpt><trkpt lat="40.0916905" lon="9.5986594"><ele>682.5</ele><time>2026-04-06T14:27:22.012Z</time></trkpt><trkpt lat="40.0918995" lon="9.5985236"><ele>671.0</ele><time>2026-04-06T14:27:23.012Z</time></trkpt><trkpt lat="40.0921306" lon="9.5984002"><ele>671.0</ele><time>2026-04-06T14:27:24.011Z</time></trkpt><trkpt lat="40.0923483" lon="9.5982394"><ele>671.0</ele><time>2026-04-06T14:27:25.012Z</time></trkpt><trkpt lat="40.0925703" lon="9.5980901"><ele>666.5</ele><time>2026-04-06T14:27:26.012Z</time></trkpt><trkpt lat="40.0927821" lon="9.5979696"><ele>662.0</ele><time>2026-04-06T14:27:27.012Z</time></trkpt><trkpt lat="40.0929844" lon="9.5978286"><ele>662.0</ele><time>2026-04-06T14:27:28.012Z</time></trkpt><trkpt lat="40.0931781" lon="9.5976442"><ele>662.0</ele><time>2026-04-06T14:27:29.011Z</time></trkpt><trkpt lat="40.0933652" lon="9.5974901"><ele>673.3333333333333</ele><time>2026-04-06T14:27:30.012Z</time></trkpt><trkpt lat="40.0935254" lon="9.5973559"><ele>684.6666666666666</ele><time>2026-04-06T14:27:31.012Z</time></trkpt><trkpt lat="40.0936443" lon="9.5971761"><ele>696.0</ele><time>2026-04-06T14:27:32.012Z</time></trkpt><trkpt lat="40.0937685" lon="9.5970096"><ele>694.6666666666666</ele><time>2026-04-06T14:27:33.012Z</time></trkpt><trkpt lat="40.0939149" lon="9.5968732"><ele>693.3333333333333</ele><time>2026-04-06T14:27:34.011Z</time></trkpt><trkpt lat="40.0940863" lon="9.5967363"><ele>692.0</ele><time>2026-04-06T14:27:35.011Z</time></trkpt><trkpt lat="40.0942744" lon="9.5966548"><ele>692.0</ele><time>2026-04-06T14:27:36.011Z</time></trkpt><trkpt lat="40.094447" lon="9.5965376"><ele>692.0</ele><time>2026-04-06T14:27:37.012Z</time></trkpt><trkpt lat="40.0946434" lon="9.5964553"><ele>692.0</ele><time>2026-04-06T14:27:38.012Z</time></trkpt><trkpt lat="40.0948407" lon="9.5964539"><ele>698.0</ele><time>2026-04-06T14:27:39.012Z</time></trkpt><trkpt lat="40.0950288" lon="9.5964069"><ele>704.0</ele><time>2026-04-06T14:27:40.011Z</time></trkpt><trkpt lat="40.0952109" lon="9.5963419"><ele>710.0</ele><time>2026-04-06T14:27:41.011Z</time></trkpt><trkpt lat="40.0953985" lon="9.596292"><ele>710.0</ele><time>2026-04-06T14:27:42.011Z</time></trkpt><trkpt lat="40.0955882" lon="9.5962823"><ele>710.0</ele><time>2026-04-06T14:27:43.012Z</time></trkpt><trkpt lat="40.0957858" lon="9.5962781"><ele>710.0</ele><time>2026-04-06T14:27:44.012Z</time></trkpt><trkpt lat="40.0959859" lon="9.5962972"><ele>710.3333333333333</ele><time>2026-04-06T14:27:45.011Z</time></trkpt><trkpt lat="40.0961988" lon="9.5963208"><ele>710.6666666666666</ele><time>2026-04-06T14:27:46.012Z</time></trkpt><trkpt lat="40.0964262" lon="9.5963424"><ele>711.0</ele><time>2026-04-06T14:27:47.012Z</time></trkpt><trkpt lat="40.0966729" lon="9.5963535"><ele>710.0</ele><time>2026-04-06T14:27:48.012Z</time></trkpt><trkpt lat="40.0969275" lon="9.5963419"><ele>709.0</ele><time>2026-04-06T14:27:49.012Z</time></trkpt><trkpt lat="40.0971713" lon="9.596347"><ele>709.0</ele><time>2026-04-06T14:27:50.012Z</time></trkpt><trkpt lat="40.0973719" lon="9.5963525"><ele>709.0</ele><time>2026-04-06T14:27:51.012Z</time></trkpt><trkpt lat="40.09754" lon="9.5963305"><ele>709.0</ele><time>2026-04-06T14:27:52.012Z</time></trkpt><trkpt lat="40.0977139" lon="9.5963298"><ele>708.0</ele><time>2026-04-06T14:27:53.012Z</time></trkpt><trkpt lat="40.0978595" lon="9.5963358"><ele>707.0</ele><time>2026-04-06T14:27:54.012Z</time></trkpt><trkpt lat="40.0980046" lon="9.5963179"><ele>706.0</ele><time>2026-04-06T14:27:55.011Z</time></trkpt><trkpt lat="40.0981319" lon="9.5962847"><ele>705.0</ele><time>2026-04-06T14:27:56.012Z</time></trkpt><trkpt lat="40.0982405" lon="9.5963237"><ele>705.25</ele><time>2026-04-06T14:27:57.011Z</time></trkpt><trkpt lat="40.098336" lon="9.5962646"><ele>705.5</ele><time>2026-04-06T14:27:58.012Z</time></trkpt><trkpt lat="40.0984261" lon="9.5961324"><ele>705.75</ele><time>2026-04-06T14:27:59.012Z</time></trkpt><trkpt lat="40.0985047" lon="9.5959865"><ele>706.0</ele><time>2026-04-06T14:28:00.012Z</time></trkpt><trkpt lat="40.098574" lon="9.5958174"><ele>700.6666666666667</ele><time>2026-04-06T14:28:01.012Z</time></trkpt><trkpt lat="40.098684" lon="9.5956135"><ele>695.3333333333334</ele><time>2026-04-06T14:28:02.012Z</time></trkpt><trkpt lat="40.0988069" lon="9.5954102"><ele>690.0</ele><time>2026-04-06T14:28:03.012Z</time></trkpt><trkpt lat="40.0989357" lon="9.5951871"><ele>695.3333333333334</ele><time>2026-04-06T14:28:04.011Z</time></trkpt><trkpt lat="40.0990886" lon="9.5950037"><ele>700.6666666666667</ele><time>2026-04-06T14:28:05.012Z</time></trkpt><trkpt lat="40.0992416" lon="9.5947981"><ele>706.0</ele><time>2026-04-06T14:28:06.012Z</time></trkpt><trkpt lat="40.0994771" lon="9.5946034"><ele>700.0</ele><time>2026-04-06T14:28:07.012Z</time></trkpt><trkpt lat="40.099723" lon="9.5943885"><ele>694.0</ele><time>2026-04-06T14:28:08.011Z</time></trkpt><trkpt lat="40.0999541" lon="9.5941767"><ele>694.0</ele><time>2026-04-06T14:28:09.011Z</time></trkpt><trkpt lat="40.1002259" lon="9.5940712"><ele>694.0</ele><time>2026-04-06T14:28:10.012Z</time></trkpt><trkpt lat="40.1004633" lon="9.5939395"><ele>694.0</ele><time>2026-04-06T14:28:11.011Z</time></trkpt><trkpt lat="40.1006746" lon="9.5937699"><ele>694.0</ele><time>2026-04-06T14:28:12.012Z</time></trkpt><trkpt lat="40.1008577" lon="9.5935596"><ele>693.5</ele><time>2026-04-06T14:28:13.012Z</time></trkpt><trkpt lat="40.1010607" lon="9.5933454"><ele>693.0</ele><time>2026-04-06T14:28:14.012Z</time></trkpt><trkpt lat="40.1012442" lon="9.5931162"><ele>693.0</ele><time>2026-04-06T14:28:15.012Z</time></trkpt><trkpt lat="40.10142" lon="9.5929015"><ele>693.0</ele><time>2026-04-06T14:28:16.012Z</time></trkpt><trkpt lat="40.1015593" lon="9.5926859"><ele>696.3333333333334</ele><time>2026-04-06T14:28:17.011Z</time></trkpt><trkpt lat="40.1016817" lon="9.5924878"><ele>699.6666666666667</ele><time>2026-04-06T14:28:18.011Z</time></trkpt><trkpt lat="40.1017939" lon="9.5922992"><ele>703.0</ele><time>2026-04-06T14:28:19.011Z</time></trkpt><trkpt lat="40.1019057" lon="9.59212"><ele>692.6666666666667</ele><time>2026-04-06T14:28:20.012Z</time></trkpt><trkpt lat="40.1020303" lon="9.5919832"><ele>682.3333333333334</ele><time>2026-04-06T14:28:21.011Z</time></trkpt><trkpt lat="40.1021532" lon="9.591849"><ele>672.0</ele><time>2026-04-06T14:28:22.012Z</time></trkpt><trkpt lat="40.1022945" lon="9.5917757"><ele>672.0</ele><time>2026-04-06T14:28:23.012Z</time></trkpt><trkpt lat="40.1023955" lon="9.5916541"><ele>672.0</ele><time>2026-04-06T14:28:24.012Z</time></trkpt><trkpt lat="40.10247" lon="9.5914968"><ele>672.0</ele><time>2026-04-06T14:28:25.012Z</time></trkpt><trkpt lat="40.1025341" lon="9.5913186"><ele>672.0</ele><time>2026-04-06T14:28:26.012Z</time></trkpt><trkpt lat="40.1026341" lon="9.5911815"><ele>676.0</ele><time>2026-04-06T14:28:27.012Z</time></trkpt><trkpt lat="40.1027522" lon="9.5910212"><ele>680.0</ele><time>2026-04-06T14:28:28.011Z</time></trkpt><trkpt lat="40.1028742" lon="9.5908446"><ele>684.0</ele><time>2026-04-06T14:28:29.012Z</time></trkpt><trkpt lat="40.1029869" lon="9.5906509"><ele>684.0</ele><time>2026-04-06T14:28:30.012Z</time></trkpt><trkpt lat="40.1031034" lon="9.5904421"><ele>684.0</ele><time>2026-04-06T14:28:31.012Z</time></trkpt><trkpt lat="40.1032261" lon="9.5902362"><ele>684.0</ele><time>2026-04-06T14:28:32.011Z</time></trkpt><trkpt lat="40.1033412" lon="9.5900336"><ele>689.6666666666666</ele><time>2026-04-06T14:28:33.011Z</time></trkpt><trkpt lat="40.1034543" lon="9.5898532"><ele>695.3333333333333</ele><time>2026-04-06T14:28:34.011Z</time></trkpt><trkpt lat="40.1035516" lon="9.5897023"><ele>701.0</ele><time>2026-04-06T14:28:35.012Z</time></trkpt><trkpt lat="40.1036388" lon="9.5895621"><ele>696.0</ele><time>2026-04-06T14:28:36.012Z</time></trkpt><trkpt lat="40.1037065" lon="9.5894099"><ele>691.0</ele><time>2026-04-06T14:28:37.012Z</time></trkpt><trkpt lat="40.10373" lon="9.5892348"><ele>686.0</ele><time>2026-04-06T14:28:38.012Z</time></trkpt><trkpt lat="40.1037258" lon="9.5890465"><ele>681.0</ele><time>2026-04-06T14:28:39.012Z</time></trkpt><trkpt lat="40.1037068" lon="9.5888458"><ele>678.6666666666666</ele><time>2026-04-06T14:28:40.012Z</time></trkpt><trkpt lat="40.1037233" lon="9.5886459"><ele>676.3333333333333</ele><time>2026-04-06T14:28:41.012Z</time></trkpt><trkpt lat="40.1037775" lon="9.5884514"><ele>674.0</ele><time>2026-04-06T14:28:42.012Z</time></trkpt><trkpt lat="40.1038279" lon="9.5882782"><ele>674.0</ele><time>2026-04-06T14:28:43.012Z</time></trkpt><trkpt lat="40.1038546" lon="9.5881296"><ele>674.0</ele><time>2026-04-06T14:28:44.012Z</time></trkpt><trkpt lat="40.1038557" lon="9.5879956"><ele>674.0</ele><time>2026-04-06T14:28:45.012Z</time></trkpt><trkpt lat="40.1038264" lon="9.5878685"><ele>674.0</ele><time>2026-04-06T14:28:46.012Z</time></trkpt><trkpt lat="40.1037723" lon="9.5877382"><ele>674.0</ele><time>2026-04-06T14:28:47.012Z</time></trkpt><trkpt lat="40.1037253" lon="9.5875901"><ele>673.75</ele><time>2026-04-06T14:28:48.012Z</time></trkpt><trkpt lat="40.1037207" lon="9.587416"><ele>673.5</ele><time>2026-04-06T14:28:49.012Z</time></trkpt><trkpt lat="40.1037557" lon="9.5872397"><ele>673.25</ele><time>2026-04-06T14:28:50.012Z</time></trkpt><trkpt lat="40.1038199" lon="9.5870779"><ele>673.0</ele><time>2026-04-06T14:28:51.012Z</time></trkpt><trkpt lat="40.1038723" lon="9.5869117"><ele>673.0</ele><time>2026-04-06T14:28:52.011Z</time></trkpt><trkpt lat="40.1039042" lon="9.5867316"><ele>673.0</ele><time>2026-04-06T14:28:53.012Z</time></trkpt><trkpt lat="40.103901" lon="9.5865453"><ele>673.0</ele><time>2026-04-06T14:28:54.012Z</time></trkpt><trkpt lat="40.1038594" lon="9.5863784"><ele>673.0</ele><time>2026-04-06T14:28:55.012Z</time></trkpt><trkpt lat="40.103807" lon="9.5862304"><ele>673.2</ele><time>2026-04-06T14:28:56.012Z</time></trkpt><trkpt lat="40.1037757" lon="9.5860865"><ele>673.4</ele><time>2026-04-06T14:28:57.012Z</time></trkpt><trkpt lat="40.1037897" lon="9.5859547"><ele>673.6</ele><time>2026-04-06T14:28:58.012Z</time></trkpt><trkpt lat="40.1037938" lon="9.5858294"><ele>673.8000000000001</ele><time>2026-04-06T14:28:59.012Z</time></trkpt><trkpt lat="40.1038856" lon="9.585738"><ele>674.0</ele><time>2026-04-06T14:29:00.012Z</time></trkpt><trkpt lat="40.1039143" lon="9.5855984"><ele>674.0</ele><time>2026-04-06T14:29:01.012Z</time></trkpt><trkpt lat="40.1039179" lon="9.5854516"><ele>674.0</ele><time>2026-04-06T14:29:02.012Z</time></trkpt><trkpt lat="40.1039132" lon="9.5853022"><ele>674.0</ele><time>2026-04-06T14:29:03.012Z</time></trkpt><trkpt lat="40.1038918" lon="9.585154"><ele>674.0</ele><time>2026-04-06T14:29:04.012Z</time></trkpt><trkpt lat="40.1038527" lon="9.5850117"><ele>677.75</ele><time>2026-04-06T14:29:05.012Z</time></trkpt><trkpt lat="40.1037796" lon="9.5848728"><ele>681.5</ele><time>2026-04-06T14:29:06.012Z</time></trkpt><trkpt lat="40.1036854" lon="9.5847378"><ele>685.25</ele><time>2026-04-06T14:29:07.011Z</time></trkpt><trkpt lat="40.1035937" lon="9.5846123"><ele>689.0</ele><time>2026-04-06T14:29:08.011Z</time></trkpt><trkpt lat="40.1034889" lon="9.584522"><ele>687.0</ele><time>2026-04-06T14:29:09.012Z</time></trkpt><trkpt lat="40.1033846" lon="9.5844611"><ele>685.0</ele><time>2026-04-06T14:29:10.012Z</time></trkpt><trkpt lat="40.1033008" lon="9.5843575"><ele>683.0</ele><time>2026-04-06T14:29:11.012Z</time></trkpt><trkpt lat="40.1032116" lon="9.5842506"><ele>681.0</ele><time>2026-04-06T14:29:12.012Z</time></trkpt><trkpt lat="40.1031908" lon="9.5840839"><ele>681.0</ele><time>2026-04-06T14:29:13.012Z</time></trkpt><trkpt lat="40.1031994" lon="9.5839265"><ele>681.0</ele><time>2026-04-06T14:29:14.012Z</time></trkpt><trkpt lat="40.1032447" lon="9.5837801"><ele>681.0</ele><time>2026-04-06T14:29:15.012Z</time></trkpt><trkpt lat="40.1033343" lon="9.5836734"><ele>681.0</ele><time>2026-04-06T14:29:16.011Z</time></trkpt><trkpt lat="40.1034416" lon="9.5835735"><ele>690.3333333333334</ele><time>2026-04-06T14:29:17.012Z</time></trkpt><trkpt lat="40.103569" lon="9.5834648"><ele>699.6666666666667</ele><time>2026-04-06T14:29:18.012Z</time></trkpt><trkpt lat="40.1037088" lon="9.5833412"><ele>709.0</ele><time>2026-04-06T14:29:19.011Z</time></trkpt><trkpt lat="40.1038414" lon="9.5831897"><ele>709.0</ele><time>2026-04-06T14:29:20.012Z</time></trkpt><trkpt lat="40.1039886" lon="9.5830391"><ele>709.0</ele><time>2026-04-06T14:29:21.012Z</time></trkpt><trkpt lat="40.1041335" lon="9.5828936"><ele>709.0</ele><time>2026-04-06T14:29:22.012Z</time></trkpt><trkpt lat="40.1042593" lon="9.5827586"><ele>709.75</ele><time>2026-04-06T14:29:23.012Z</time></trkpt><trkpt lat="40.1043892" lon="9.5826593"><ele>710.5</ele><time>2026-04-06T14:29:24.012Z</time></trkpt><trkpt lat="40.1045121" lon="9.5826174"><ele>711.25</ele><time>2026-04-06T14:29:25.012Z</time></trkpt><trkpt lat="40.1046232" lon="9.582607"><ele>712.0</ele><time>2026-04-06T14:29:26.011Z</time></trkpt><trkpt lat="40.1047298" lon="9.5825431"><ele>712.0</ele><time>2026-04-06T14:29:27.011Z</time></trkpt><trkpt lat="40.1048304" lon="9.582429"><ele>712.0</ele><time>2026-04-06T14:29:28.012Z</time></trkpt><trkpt lat="40.1049377" lon="9.5822933"><ele>712.0</ele><time>2026-04-06T14:29:29.012Z</time></trkpt><trkpt lat="40.105034" lon="9.5821657"><ele>712.0</ele><time>2026-04-06T14:29:30.012Z</time></trkpt><trkpt lat="40.105108" lon="9.5820469"><ele>716.0</ele><time>2026-04-06T14:29:31.012Z</time></trkpt><trkpt lat="40.1051636" lon="9.5819103"><ele>720.0</ele><time>2026-04-06T14:29:32.011Z</time></trkpt><trkpt lat="40.1052006" lon="9.5817529"><ele>724.0</ele><time>2026-04-06T14:29:33.012Z</time></trkpt><trkpt lat="40.1052385" lon="9.5815878"><ele>728.0</ele><time>2026-04-06T14:29:34.012Z</time></trkpt><trkpt lat="40.1052677" lon="9.5814376"><ele>728.0</ele><time>2026-04-06T14:29:35.011Z</time></trkpt><trkpt lat="40.1052881" lon="9.5813068"><ele>728.0</ele><time>2026-04-06T14:29:36.012Z</time></trkpt><trkpt lat="40.1052865" lon="9.5811903"><ele>728.0</ele><time>2026-04-06T14:29:37.012Z</time></trkpt><trkpt lat="40.1052433" lon="9.5810801"><ele>728.0</ele><time>2026-04-06T14:29:38.012Z</time></trkpt><trkpt lat="40.1051533" lon="9.5809978"><ele>728.0</ele><time>2026-04-06T14:29:39.012Z</time></trkpt><trkpt lat="40.1050267" lon="9.5809366"><ele>726.6666666666666</ele><time>2026-04-06T14:29:40.012Z</time></trkpt><trkpt lat="40.1048669" lon="9.5808896"><ele>725.3333333333334</ele><time>2026-04-06T14:29:41.011Z</time></trkpt><trkpt lat="40.1047041" lon="9.580818"><ele>724.0</ele><time>2026-04-06T14:29:42.011Z</time></trkpt><trkpt lat="40.1045553" lon="9.580722"><ele>724.0</ele><time>2026-04-06T14:29:43.012Z</time></trkpt><trkpt lat="40.1044439" lon="9.5806025"><ele>724.0</ele><time>2026-04-06T14:29:44.012Z</time></trkpt><trkpt lat="40.1043682" lon="9.5804702"><ele>724.0</ele><time>2026-04-06T14:29:45.011Z</time></trkpt><trkpt lat="40.1043126" lon="9.5803229"><ele>724.0</ele><time>2026-04-06T14:29:46.012Z</time></trkpt><trkpt lat="40.1042222" lon="9.5802063"><ele>729.0</ele><time>2026-04-06T14:29:47.012Z</time></trkpt><trkpt lat="40.1040964" lon="9.5801101"><ele>734.0</ele><time>2026-04-06T14:29:48.012Z</time></trkpt><trkpt lat="40.1039583" lon="9.5800258"><ele>739.0</ele><time>2026-04-06T14:29:49.011Z</time></trkpt><trkpt lat="40.1037916" lon="9.5799668"><ele>739.0</ele><time>2026-04-06T14:29:50.011Z</time></trkpt><trkpt lat="40.1036031" lon="9.5799419"><ele>739.0</ele><time>2026-04-06T14:29:51.012Z</time></trkpt><trkpt lat="40.1033996" lon="9.57994"><ele>739.0</ele><time>2026-04-06T14:29:52.012Z</time></trkpt><trkpt lat="40.1031935" lon="9.5799724"><ele>740.6666666666667</ele><time>2026-04-06T14:29:53.012Z</time></trkpt><trkpt lat="40.1030036" lon="9.5800092"><ele>742.3333333333334</ele><time>2026-04-06T14:29:54.011Z</time></trkpt><trkpt lat="40.1028242" lon="9.5800314"><ele>744.0</ele><time>2026-04-06T14:29:55.012Z</time></trkpt><trkpt lat="40.1026564" lon="9.5800495"><ele>744.0</ele><time>2026-04-06T14:29:56.012Z</time></trkpt><trkpt lat="40.1025033" lon="9.5800918"><ele>744.0</ele><time>2026-04-06T14:29:57.012Z</time></trkpt><trkpt lat="40.102362" lon="9.5801477"><ele>744.0</ele><time>2026-04-06T14:29:58.012Z</time></trkpt><trkpt lat="40.102238" lon="9.5801851"><ele>744.0</ele><time>2026-04-06T14:29:59.011Z</time></trkpt><trkpt lat="40.1021369" lon="9.5801819"><ele>740.2</ele><time>2026-04-06T14:30:00.011Z</time></trkpt><trkpt lat="40.1020622" lon="9.5801268"><ele>736.4000000000001</ele><time>2026-04-06T14:30:01.012Z</time></trkpt><trkpt lat="40.1020012" lon="9.5800355"><ele>732.6</ele><time>2026-04-06T14:30:02.012Z</time></trkpt><trkpt lat="40.1019503" lon="9.5799088"><ele>728.8</ele><time>2026-04-06T14:30:03.012Z</time></trkpt><trkpt lat="40.1018973" lon="9.5797543"><ele>725.0</ele><time>2026-04-06T14:30:04.011Z</time></trkpt><trkpt lat="40.1018735" lon="9.5795698"><ele>728.0</ele><time>2026-04-06T14:30:05.012Z</time></trkpt><trkpt lat="40.1018652" lon="9.5793665"><ele>731.0</ele><time>2026-04-06T14:30:06.012Z</time></trkpt><trkpt lat="40.1018939" lon="9.5791458"><ele>734.0</ele><time>2026-04-06T14:30:07.012Z</time></trkpt><trkpt lat="40.1019385" lon="9.5789371"><ele>734.0</ele><time>2026-04-06T14:30:08.012Z</time></trkpt><trkpt lat="40.1019692" lon="9.578739"><ele>734.0</ele><time>2026-04-06T14:30:09.011Z</time></trkpt><trkpt lat="40.1019835" lon="9.5785605"><ele>734.0</ele><time>2026-04-06T14:30:10.011Z</time></trkpt><trkpt lat="40.1019744" lon="9.5783981"><ele>734.0</ele><time>2026-04-06T14:30:11.012Z</time></trkpt><trkpt lat="40.1019411" lon="9.5782392"><ele>736.0</ele><time>2026-04-06T14:30:12.012Z</time></trkpt><trkpt lat="40.1018749" lon="9.5780997"><ele>738.0</ele><time>2026-04-06T14:30:13.012Z</time></trkpt><trkpt lat="40.1017773" lon="9.5779895"><ele>740.0</ele><time>2026-04-06T14:30:14.011Z</time></trkpt><trkpt lat="40.1016536" lon="9.5779046"><ele>742.0</ele><time>2026-04-06T14:30:15.012Z</time></trkpt><trkpt lat="40.1015185" lon="9.57784"><ele>742.0</ele><time>2026-04-06T14:30:16.012Z</time></trkpt><trkpt lat="40.1013824" lon="9.577759"><ele>742.0</ele><time>2026-04-06T14:30:17.011Z</time></trkpt><trkpt lat="40.1012674" lon="9.5776694"><ele>742.0</ele><time>2026-04-06T14:30:18.012Z</time></trkpt><trkpt lat="40.1011717" lon="9.5775839"><ele>742.0</ele><time>2026-04-06T14:30:19.012Z</time></trkpt><trkpt lat="40.1010978" lon="9.5774822"><ele>742.0</ele><time>2026-04-06T14:30:20.012Z</time></trkpt><trkpt lat="40.1010428" lon="9.577355"><ele>742.0</ele><time>2026-04-06T14:30:21.012Z</time></trkpt><trkpt lat="40.1010171" lon="9.5772199"><ele>742.0</ele><time>2026-04-06T14:30:22.012Z</time></trkpt><trkpt lat="40.1010033" lon="9.5770862"><ele>742.0</ele><time>2026-04-06T14:30:23.012Z</time></trkpt><trkpt lat="40.1009947" lon="9.5769521"><ele>742.0</ele><time>2026-04-06T14:30:24.012Z</time></trkpt><trkpt lat="40.1010017" lon="9.5768239"><ele>744.5</ele><time>2026-04-06T14:30:25.011Z</time></trkpt><trkpt lat="40.101028" lon="9.5766988"><ele>747.0</ele><time>2026-04-06T14:30:26.012Z</time></trkpt><trkpt lat="40.1010673" lon="9.5765872"><ele>749.5</ele><time>2026-04-06T14:30:27.012Z</time></trkpt><trkpt lat="40.101099" lon="9.5764955"><ele>752.0</ele><time>2026-04-06T14:30:28.012Z</time></trkpt><trkpt lat="40.101129" lon="9.5764035"><ele>754.5</ele><time>2026-04-06T14:30:29.012Z</time></trkpt><trkpt lat="40.1011571" lon="9.576317"><ele>757.0</ele><time>2026-04-06T14:30:30.012Z</time></trkpt><trkpt lat="40.1011613" lon="9.576227"><ele>759.6</ele><time>2026-04-06T14:30:31.012Z</time></trkpt><trkpt lat="40.1011332" lon="9.5761412"><ele>762.2</ele><time>2026-04-06T14:30:32.012Z</time></trkpt><trkpt lat="40.101073" lon="9.5760765"><ele>764.8</ele><time>2026-04-06T14:30:33.012Z</time></trkpt><trkpt lat="40.1009884" lon="9.5760555"><ele>767.4</ele><time>2026-04-06T14:30:34.011Z</time></trkpt><trkpt lat="40.1008815" lon="9.5760628"><ele>770.0</ele><time>2026-04-06T14:30:35.012Z</time></trkpt><trkpt lat="40.1007512" lon="9.5760904"><ele>771.0</ele><time>2026-04-06T14:30:36.012Z</time></trkpt><trkpt lat="40.1006011" lon="9.5761116"><ele>772.0</ele><time>2026-04-06T14:30:37.012Z</time></trkpt><trkpt lat="40.1004396" lon="9.5761239"><ele>773.0</ele><time>2026-04-06T14:30:38.011Z</time></trkpt><trkpt lat="40.1002683" lon="9.5761444"><ele>773.0</ele><time>2026-04-06T14:30:39.012Z</time></trkpt><trkpt lat="40.1000966" lon="9.5761843"><ele>773.0</ele><time>2026-04-06T14:30:40.012Z</time></trkpt><trkpt lat="40.0999381" lon="9.576232"><ele>773.0</ele><time>2026-04-06T14:30:41.012Z</time></trkpt><trkpt lat="40.0997976" lon="9.5762712"><ele>771.3333333333334</ele><time>2026-04-06T14:30:42.012Z</time></trkpt><trkpt lat="40.0996542" lon="9.5762726"><ele>769.6666666666667</ele><time>2026-04-06T14:30:43.011Z</time></trkpt><trkpt lat="40.0995033" lon="9.576224"><ele>768.0</ele><time>2026-04-06T14:30:44.012Z</time></trkpt><trkpt lat="40.0993584" lon="9.5761429"><ele>768.0</ele><time>2026-04-06T14:30:45.012Z</time></trkpt><trkpt lat="40.0992306" lon="9.5760066"><ele>768.0</ele><time>2026-04-06T14:30:46.012Z</time></trkpt><trkpt lat="40.0991232" lon="9.5758248"><ele>768.0</ele><time>2026-04-06T14:30:47.012Z</time></trkpt><trkpt lat="40.0990281" lon="9.5756339"><ele>767.0</ele><time>2026-04-06T14:30:48.011Z</time></trkpt><trkpt lat="40.098937" lon="9.5754614"><ele>766.0</ele><time>2026-04-06T14:30:49.012Z</time></trkpt><trkpt lat="40.0988297" lon="9.5753146"><ele>765.0</ele><time>2026-04-06T14:30:50.012Z</time></trkpt><trkpt lat="40.0986984" lon="9.5751861"><ele>765.0</ele><time>2026-04-06T14:30:51.012Z</time></trkpt><trkpt lat="40.0985478" lon="9.575077"><ele>765.0</ele><time>2026-04-06T14:30:52.011Z</time></trkpt><trkpt lat="40.0983836" lon="9.5749738"><ele>765.0</ele><time>2026-04-06T14:30:53.012Z</time></trkpt><trkpt lat="40.0982172" lon="9.5748777"><ele>760.0</ele><time>2026-04-06T14:30:54.011Z</time></trkpt><trkpt lat="40.0980513" lon="9.5748013"><ele>755.0</ele><time>2026-04-06T14:30:55.012Z</time></trkpt><trkpt lat="40.0978914" lon="9.5747382"><ele>750.0</ele><time>2026-04-06T14:30:56.012Z</time></trkpt><trkpt lat="40.0977388" lon="9.5746818"><ele>750.0</ele><time>2026-04-06T14:30:57.012Z</time></trkpt><trkpt lat="40.0975958" lon="9.5746118"><ele>750.0</ele><time>2026-04-06T14:30:58.012Z</time></trkpt><trkpt lat="40.0974632" lon="9.5745364"><ele>750.0</ele><time>2026-04-06T14:30:59.011Z</time></trkpt><trkpt lat="40.0973455" lon="9.5744591"><ele>750.0</ele><time>2026-04-06T14:31:00.012Z</time></trkpt><trkpt lat="40.0972599" lon="9.5743633"><ele>749.0</ele><time>2026-04-06T14:31:01.012Z</time></trkpt><trkpt lat="40.0972108" lon="9.5742437"><ele>748.0</ele><time>2026-04-06T14:31:02.012Z</time></trkpt><trkpt lat="40.0972045" lon="9.5741122"><ele>747.0</ele><time>2026-04-06T14:31:03.012Z</time></trkpt><trkpt lat="40.0972501" lon="9.5739775"><ele>746.0</ele><time>2026-04-06T14:31:04.012Z</time></trkpt><trkpt lat="40.097327" lon="9.5738678"><ele>745.0</ele><time>2026-04-06T14:31:05.012Z</time></trkpt><trkpt lat="40.0973983" lon="9.5737663"><ele>747.2</ele><time>2026-04-06T14:31:06.011Z</time></trkpt><trkpt lat="40.0974635" lon="9.5736659"><ele>749.4</ele><time>2026-04-06T14:31:07.012Z</time></trkpt><trkpt lat="40.0975285" lon="9.5735614"><ele>751.5999999999999</ele><time>2026-04-06T14:31:08.012Z</time></trkpt><trkpt lat="40.097589" lon="9.5734491"><ele>753.8</ele><time>2026-04-06T14:31:09.012Z</time></trkpt><trkpt lat="40.0976404" lon="9.5733277"><ele>756.0</ele><time>2026-04-06T14:31:10.011Z</time></trkpt><trkpt lat="40.0976733" lon="9.5731943"><ele>756.0</ele><time>2026-04-06T14:31:11.012Z</time></trkpt><trkpt lat="40.0976942" lon="9.5730474"><ele>756.0</ele><time>2026-04-06T14:31:12.012Z</time></trkpt><trkpt lat="40.09771" lon="9.5728947"><ele>756.0</ele><time>2026-04-06T14:31:13.012Z</time></trkpt><trkpt lat="40.0977289" lon="9.5727424"><ele>756.0</ele><time>2026-04-06T14:31:14.012Z</time></trkpt><trkpt lat="40.097747" lon="9.5725923"><ele>754.8</ele><time>2026-04-06T14:31:15.012Z</time></trkpt><trkpt lat="40.0977534" lon="9.5724367"><ele>753.5999999999999</ele><time>2026-04-06T14:31:16.011Z</time></trkpt><trkpt lat="40.0977373" lon="9.5722947"><ele>752.4</ele><time>2026-04-06T14:31:17.012Z</time></trkpt><trkpt lat="40.0976988" lon="9.5721626"><ele>751.2</ele><time>2026-04-06T14:31:18.012Z</time></trkpt><trkpt lat="40.0976517" lon="9.5720405"><ele>750.0</ele><time>2026-04-06T14:31:19.012Z</time></trkpt><trkpt lat="40.0976097" lon="9.5719116"><ele>749.8</ele><time>2026-04-06T14:31:20.012Z</time></trkpt><trkpt lat="40.0975851" lon="9.5717799"><ele>749.6</ele><time>2026-04-06T14:31:21.011Z</time></trkpt><trkpt lat="40.097579" lon="9.571646"><ele>749.4000000000001</ele><time>2026-04-06T14:31:22.012Z</time></trkpt><trkpt lat="40.097581" lon="9.5715024"><ele>749.2</ele><time>2026-04-06T14:31:23.012Z</time></trkpt><trkpt lat="40.0975994" lon="9.5713477"><ele>749.0</ele><time>2026-04-06T14:31:24.012Z</time></trkpt><trkpt lat="40.0976267" lon="9.5711845"><ele>750.0</ele><time>2026-04-06T14:31:25.012Z</time></trkpt><trkpt lat="40.0976643" lon="9.5710158"><ele>751.0</ele><time>2026-04-06T14:31:26.011Z</time></trkpt><trkpt lat="40.0977055" lon="9.5708404"><ele>752.0</ele><time>2026-04-06T14:31:27.012Z</time></trkpt><trkpt lat="40.0977462" lon="9.5706695"><ele>753.0</ele><time>2026-04-06T14:31:28.012Z</time></trkpt><trkpt lat="40.0977911" lon="9.5704983"><ele>757.6666666666666</ele><time>2026-04-06T14:31:29.012Z</time></trkpt><trkpt lat="40.0978498" lon="9.5703181"><ele>762.3333333333333</ele><time>2026-04-06T14:31:30.012Z</time></trkpt><trkpt lat="40.0979322" lon="9.5701408"><ele>767.0</ele><time>2026-04-06T14:31:31.012Z</time></trkpt><trkpt lat="40.0980245" lon="9.5699678"><ele>767.0</ele><time>2026-04-06T14:31:32.012Z</time></trkpt><trkpt lat="40.098106" lon="9.5698139"><ele>767.0</ele><time>2026-04-06T14:31:33.012Z</time></trkpt><trkpt lat="40.0981884" lon="9.5696408"><ele>767.0</ele><time>2026-04-06T14:31:34.011Z</time></trkpt><trkpt lat="40.0982752" lon="9.5694583"><ele>763.6666666666666</ele><time>2026-04-06T14:31:35.012Z</time></trkpt><trkpt lat="40.0983791" lon="9.5692812"><ele>760.3333333333334</ele><time>2026-04-06T14:31:36.012Z</time></trkpt><trkpt lat="40.0985291" lon="9.5691102"><ele>757.0</ele><time>2026-04-06T14:31:37.011Z</time></trkpt><trkpt lat="40.0987029" lon="9.568951"><ele>757.0</ele><time>2026-04-06T14:31:38.012Z</time></trkpt><trkpt lat="40.0988855" lon="9.5688024"><ele>757.0</ele><time>2026-04-06T14:31:39.012Z</time></trkpt><trkpt lat="40.0990611" lon="9.5686639"><ele>757.0</ele><time>2026-04-06T14:31:40.012Z</time></trkpt><trkpt lat="40.0992226" lon="9.568537"><ele>755.25</ele><time>2026-04-06T14:31:41.012Z</time></trkpt><trkpt lat="40.0993645" lon="9.5684264"><ele>753.5</ele><time>2026-04-06T14:31:42.011Z</time></trkpt><trkpt lat="40.0994924" lon="9.5683298"><ele>751.75</ele><time>2026-04-06T14:31:43.012Z</time></trkpt><trkpt lat="40.0996071" lon="9.5682347"><ele>750.0</ele><time>2026-04-06T14:31:44.012Z</time></trkpt><trkpt lat="40.0997087" lon="9.5681256"><ele>750.0</ele><time>2026-04-06T14:31:45.012Z</time></trkpt><trkpt lat="40.0997893" lon="9.5679978"><ele>750.0</ele><time>2026-04-06T14:31:46.012Z</time></trkpt><trkpt lat="40.0998507" lon="9.5678449"><ele>750.0</ele><time>2026-04-06T14:31:47.012Z</time></trkpt><trkpt lat="40.0998747" lon="9.5676672"><ele>750.0</ele><time>2026-04-06T14:31:48.012Z</time></trkpt><trkpt lat="40.0998761" lon="9.5674756"><ele>751.0</ele><time>2026-04-06T14:31:49.012Z</time></trkpt><trkpt lat="40.0998507" lon="9.5672688"><ele>752.0</ele><time>2026-04-06T14:31:50.011Z</time></trkpt><trkpt lat="40.0997991" lon="9.5670543"><ele>753.0</ele><time>2026-04-06T14:31:51.011Z</time></trkpt><trkpt lat="40.09972" lon="9.5668471"><ele>749.6666666666666</ele><time>2026-04-06T14:31:52.012Z</time></trkpt><trkpt lat="40.0996203" lon="9.5666641"><ele>746.3333333333333</ele><time>2026-04-06T14:31:53.011Z</time></trkpt><trkpt lat="40.0994916" lon="9.5665307"><ele>743.0</ele><time>2026-04-06T14:31:54.011Z</time></trkpt><trkpt lat="40.0993589" lon="9.5664415"><ele>743.0</ele><time>2026-04-06T14:31:55.012Z</time></trkpt><trkpt lat="40.0992282" lon="9.5663455"><ele>743.0</ele><time>2026-04-06T14:31:56.012Z</time></trkpt><trkpt lat="40.0991144" lon="9.566201"><ele>743.0</ele><time>2026-04-06T14:31:57.012Z</time></trkpt><trkpt lat="40.0990278" lon="9.5660282"><ele>743.6666666666666</ele><time>2026-04-06T14:31:58.011Z</time></trkpt><trkpt lat="40.098967" lon="9.5658235"><ele>744.3333333333334</ele><time>2026-04-06T14:31:59.012Z</time></trkpt><trkpt lat="40.0988987" lon="9.5656299"><ele>745.0</ele><time>2026-04-06T14:32:00.011Z</time></trkpt><trkpt lat="40.0988303" lon="9.5654429"><ele>741.6666666666667</ele><time>2026-04-06T14:32:01.012Z</time></trkpt><trkpt lat="40.0987404" lon="9.5652751"><ele>738.3333333333334</ele><time>2026-04-06T14:32:02.012Z</time></trkpt><trkpt lat="40.0986145" lon="9.5651255"><ele>735.0</ele><time>2026-04-06T14:32:03.012Z</time></trkpt><trkpt lat="40.098479" lon="9.5649851"><ele>735.0</ele><time>2026-04-06T14:32:04.011Z</time></trkpt><trkpt lat="40.0983488" lon="9.5648688"><ele>735.0</ele><time>2026-04-06T14:32:05.011Z</time></trkpt><trkpt lat="40.0982394" lon="9.5647685"><ele>735.0</ele><time>2026-04-06T14:32:06.012Z</time></trkpt><trkpt lat="40.0981415" lon="9.5646793"><ele>735.0</ele><time>2026-04-06T14:32:07.011Z</time></trkpt><trkpt lat="40.0980649" lon="9.5645819"><ele>735.5</ele><time>2026-04-06T14:32:08.011Z</time></trkpt><trkpt lat="40.0980172" lon="9.5644627"><ele>736.0</ele><time>2026-04-06T14:32:09.012Z</time></trkpt><trkpt lat="40.0980192" lon="9.5643139"><ele>736.5</ele><time>2026-04-06T14:32:10.011Z</time></trkpt><trkpt lat="40.0980653" lon="9.564147"><ele>737.0</ele><time>2026-04-06T14:32:11.012Z</time></trkpt><trkpt lat="40.0981335" lon="9.5639737"><ele>737.0</ele><time>2026-04-06T14:32:12.011Z</time></trkpt><trkpt lat="40.098202" lon="9.5637806"><ele>737.0</ele><time>2026-04-06T14:32:13.012Z</time></trkpt><trkpt lat="40.0982771" lon="9.5635719"><ele>737.0</ele><time>2026-04-06T14:32:14.012Z</time></trkpt><trkpt lat="40.0983603" lon="9.5633552"><ele>734.6666666666666</ele><time>2026-04-06T14:32:15.011Z</time></trkpt><trkpt lat="40.0984387" lon="9.5631468"><ele>732.3333333333334</ele><time>2026-04-06T14:32:16.012Z</time></trkpt><trkpt lat="40.0985136" lon="9.5629412"><ele>730.0</ele><time>2026-04-06T14:32:17.012Z</time></trkpt><trkpt lat="40.0985839" lon="9.5627673"><ele>730.0</ele><time>2026-04-06T14:32:18.012Z</time></trkpt><trkpt lat="40.0986382" lon="9.5626151"><ele>730.0</ele><time>2026-04-06T14:32:19.012Z</time></trkpt><trkpt lat="40.0986699" lon="9.5624564"><ele>730.0</ele><time>2026-04-06T14:32:20.012Z</time></trkpt><trkpt lat="40.0986689" lon="9.562269"><ele>730.0</ele><time>2026-04-06T14:32:21.012Z</time></trkpt><trkpt lat="40.098628" lon="9.5620662"><ele>728.6666666666667</ele><time>2026-04-06T14:32:22.012Z</time></trkpt><trkpt lat="40.0985678" lon="9.5618596"><ele>727.3333333333334</ele><time>2026-04-06T14:32:23.012Z</time></trkpt><trkpt lat="40.0985197" lon="9.5616659"><ele>726.0</ele><time>2026-04-06T14:32:24.012Z</time></trkpt><trkpt lat="40.0984722" lon="9.5614914"><ele>726.0</ele><time>2026-04-06T14:32:25.012Z</time></trkpt><trkpt lat="40.0984117" lon="9.5613452"><ele>726.0</ele><time>2026-04-06T14:32:26.011Z</time></trkpt><trkpt lat="40.0983306" lon="9.5612306"><ele>726.0</ele><time>2026-04-06T14:32:27.011Z</time></trkpt><trkpt lat="40.0982228" lon="9.5611505"><ele>726.0</ele><time>2026-04-06T14:32:28.012Z</time></trkpt><trkpt lat="40.098085" lon="9.5611097"><ele>723.75</ele><time>2026-04-06T14:32:29.012Z</time></trkpt><trkpt lat="40.0979337" lon="9.5610693"><ele>721.5</ele><time>2026-04-06T14:32:30.011Z</time></trkpt><trkpt lat="40.0977904" lon="9.5610277"><ele>719.25</ele><time>2026-04-06T14:32:31.011Z</time></trkpt><trkpt lat="40.0976538" lon="9.5609968"><ele>717.0</ele><time>2026-04-06T14:32:32.012Z</time></trkpt><trkpt lat="40.0975278" lon="9.5609427"><ele>717.0</ele><time>2026-04-06T14:32:33.012Z</time></trkpt><trkpt lat="40.0974223" lon="9.5608445"><ele>717.0</ele><time>2026-04-06T14:32:34.012Z</time></trkpt><trkpt lat="40.0973533" lon="9.5607045"><ele>717.0</ele><time>2026-04-06T14:32:35.012Z</time></trkpt><trkpt lat="40.0973296" lon="9.5605436"><ele>717.0</ele><time>2026-04-06T14:32:36.012Z</time></trkpt><trkpt lat="40.09734" lon="9.5603788"><ele>718.0</ele><time>2026-04-06T14:32:37.012Z</time></trkpt><trkpt lat="40.0973635" lon="9.5602185"><ele>719.0</ele><time>2026-04-06T14:32:38.012Z</time></trkpt><trkpt lat="40.0973814" lon="9.5600499"><ele>720.0</ele><time>2026-04-06T14:32:39.012Z</time></trkpt><trkpt lat="40.0973634" lon="9.5598692"><ele>721.0</ele><time>2026-04-06T14:32:40.012Z</time></trkpt><trkpt lat="40.0973114" lon="9.5596926"><ele>719.0</ele><time>2026-04-06T14:32:41.012Z</time></trkpt><trkpt lat="40.0972415" lon="9.5595189"><ele>717.0</ele><time>2026-04-06T14:32:42.012Z</time></trkpt><trkpt lat="40.0971674" lon="9.5593346"><ele>715.0</ele><time>2026-04-06T14:32:43.012Z</time></trkpt><trkpt lat="40.0970923" lon="9.5591586"><ele>715.0</ele><time>2026-04-06T14:32:44.011Z</time></trkpt><trkpt lat="40.0970329" lon="9.5589872"><ele>715.0</ele><time>2026-04-06T14:32:45.012Z</time></trkpt><trkpt lat="40.0970013" lon="9.5588077"><ele>715.0</ele><time>2026-04-06T14:32:46.011Z</time></trkpt><trkpt lat="40.097009" lon="9.5586047"><ele>715.0</ele><time>2026-04-06T14:32:47.012Z</time></trkpt><trkpt lat="40.0970617" lon="9.5584002"><ele>714.3333333333334</ele><time>2026-04-06T14:32:48.012Z</time></trkpt><trkpt lat="40.0971367" lon="9.5581872"><ele>713.6666666666666</ele><time>2026-04-06T14:32:49.012Z</time></trkpt><trkpt lat="40.0972168" lon="9.5579665"><ele>713.0</ele><time>2026-04-06T14:32:50.011Z</time></trkpt><trkpt lat="40.0972901" lon="9.5577302"><ele>714.3333333333333</ele><time>2026-04-06T14:32:51.012Z</time></trkpt><trkpt lat="40.0973494" lon="9.5574794"><ele>715.6666666666666</ele><time>2026-04-06T14:32:52.012Z</time></trkpt><trkpt lat="40.0973736" lon="9.5572111"><ele>717.0</ele><time>2026-04-06T14:32:53.012Z</time></trkpt><trkpt lat="40.0973672" lon="9.5569404"><ele>717.3333333333334</ele><time>2026-04-06T14:32:54.011Z</time></trkpt><trkpt lat="40.0973471" lon="9.5566583"><ele>717.6666666666667</ele><time>2026-04-06T14:32:55.012Z</time></trkpt><trkpt lat="40.0973273" lon="9.5563874"><ele>718.0</ele><time>2026-04-06T14:32:56.012Z</time></trkpt><trkpt lat="40.0973113" lon="9.5561332"><ele>716.3333333333334</ele><time>2026-04-06T14:32:57.011Z</time></trkpt><trkpt lat="40.097291" lon="9.5558912"><ele>714.6666666666666</ele><time>2026-04-06T14:32:58.012Z</time></trkpt><trkpt lat="40.0972755" lon="9.5556666"><ele>713.0</ele><time>2026-04-06T14:32:59.012Z</time></trkpt><trkpt lat="40.0972514" lon="9.5554586"><ele>711.3333333333333</ele><time>2026-04-06T14:33:00.011Z</time></trkpt><trkpt lat="40.0972099" lon="9.555262"><ele>709.6666666666666</ele><time>2026-04-06T14:33:01.012Z</time></trkpt><trkpt lat="40.0971469" lon="9.5550791"><ele>708.0</ele><time>2026-04-06T14:33:02.012Z</time></trkpt><trkpt lat="40.0970674" lon="9.5549059"><ele>708.0</ele><time>2026-04-06T14:33:03.012Z</time></trkpt><trkpt lat="40.0969759" lon="9.5547401"><ele>708.0</ele><time>2026-04-06T14:33:04.011Z</time></trkpt><trkpt lat="40.0968785" lon="9.5545742"><ele>708.0</ele><time>2026-04-06T14:33:05.012Z</time></trkpt><trkpt lat="40.0967772" lon="9.5544047"><ele>707.6666666666666</ele><time>2026-04-06T14:33:06.012Z</time></trkpt><trkpt lat="40.096676" lon="9.5542313"><ele>707.3333333333333</ele><time>2026-04-06T14:33:07.011Z</time></trkpt><trkpt lat="40.0965775" lon="9.5540545"><ele>707.0</ele><time>2026-04-06T14:33:08.012Z</time></trkpt><trkpt lat="40.0964866" lon="9.5538932"><ele>707.0</ele><time>2026-04-06T14:33:09.012Z</time></trkpt><trkpt lat="40.0964049" lon="9.5537503"><ele>707.0</ele><time>2026-04-06T14:33:10.012Z</time></trkpt><trkpt lat="40.0963275" lon="9.5536317"><ele>707.0</ele><time>2026-04-06T14:33:11.011Z</time></trkpt><trkpt lat="40.096224" lon="9.5535296"><ele>707.0</ele><time>2026-04-06T14:33:12.012Z</time></trkpt><trkpt lat="40.096091" lon="9.5534602"><ele>704.6666666666666</ele><time>2026-04-06T14:33:13.012Z</time></trkpt><trkpt lat="40.0959398" lon="9.5534153"><ele>702.3333333333334</ele><time>2026-04-06T14:33:14.012Z</time></trkpt><trkpt lat="40.0957799" lon="9.55337"><ele>700.0</ele><time>2026-04-06T14:33:15.012Z</time></trkpt><trkpt lat="40.0956338" lon="9.553324"><ele>700.0</ele><time>2026-04-06T14:33:16.011Z</time></trkpt><trkpt lat="40.0955057" lon="9.5532576"><ele>700.0</ele><time>2026-04-06T14:33:17.012Z</time></trkpt><trkpt lat="40.0954117" lon="9.553158"><ele>700.0</ele><time>2026-04-06T14:33:18.012Z</time></trkpt><trkpt lat="40.095354" lon="9.5530312"><ele>700.0</ele><time>2026-04-06T14:33:19.012Z</time></trkpt><trkpt lat="40.0953402" lon="9.5528562"><ele>698.25</ele><time>2026-04-06T14:33:20.012Z</time></trkpt><trkpt lat="40.0953458" lon="9.5526682"><ele>696.5</ele><time>2026-04-06T14:33:21.012Z</time></trkpt><trkpt lat="40.0953565" lon="9.5524818"><ele>694.75</ele><time>2026-04-06T14:33:22.011Z</time></trkpt><trkpt lat="40.0953708" lon="9.5522976"><ele>693.0</ele><time>2026-04-06T14:33:23.011Z</time></trkpt><trkpt lat="40.0953866" lon="9.5521204"><ele>691.5</ele><time>2026-04-06T14:33:24.012Z</time></trkpt><trkpt lat="40.0953958" lon="9.5519452"><ele>690.0</ele><time>2026-04-06T14:33:25.012Z</time></trkpt><trkpt lat="40.0954093" lon="9.5517734"><ele>688.5</ele><time>2026-04-06T14:33:26.012Z</time></trkpt><trkpt lat="40.0954241" lon="9.5515935"><ele>687.0</ele><time>2026-04-06T14:33:27.012Z</time></trkpt><trkpt lat="40.0954372" lon="9.5514066"><ele>687.0</ele><time>2026-04-06T14:33:28.011Z</time></trkpt><trkpt lat="40.0954461" lon="9.5512245"><ele>687.0</ele><time>2026-04-06T14:33:29.012Z</time></trkpt><trkpt lat="40.0954596" lon="9.5510578"><ele>687.0</ele><time>2026-04-06T14:33:30.012Z</time></trkpt><trkpt lat="40.0955012" lon="9.550908"><ele>687.0</ele><time>2026-04-06T14:33:31.012Z</time></trkpt><trkpt lat="40.0955691" lon="9.5507901"><ele>688.25</ele><time>2026-04-06T14:33:32.012Z</time></trkpt><trkpt lat="40.0956685" lon="9.5507108"><ele>689.5</ele><time>2026-04-06T14:33:33.012Z</time></trkpt><trkpt lat="40.0957827" lon="9.5506824"><ele>690.75</ele><time>2026-04-06T14:33:34.012Z</time></trkpt><trkpt lat="40.095913" lon="9.5506746"><ele>692.0</ele><time>2026-04-06T14:33:35.012Z</time></trkpt><trkpt lat="40.0960486" lon="9.5506649"><ele>692.0</ele><time>2026-04-06T14:33:36.012Z</time></trkpt><trkpt lat="40.0961768" lon="9.5506401"><ele>692.0</ele><time>2026-04-06T14:33:37.011Z</time></trkpt><trkpt lat="40.0962873" lon="9.5505795"><ele>692.0</ele><time>2026-04-06T14:33:38.012Z</time></trkpt><trkpt lat="40.0963777" lon="9.550479"><ele>692.0</ele><time>2026-04-06T14:33:39.011Z</time></trkpt><trkpt lat="40.0964425" lon="9.5503423"><ele>692.5</ele><time>2026-04-06T14:33:40.011Z</time></trkpt><trkpt lat="40.0964961" lon="9.5501896"><ele>693.0</ele><time>2026-04-06T14:33:41.012Z</time></trkpt><trkpt lat="40.0965447" lon="9.5500398"><ele>693.5</ele><time>2026-04-06T14:33:42.012Z</time></trkpt><trkpt lat="40.0965864" lon="9.5499094"><ele>694.0</ele><time>2026-04-06T14:33:43.012Z</time></trkpt><trkpt lat="40.0966225" lon="9.5497977"><ele>694.0</ele><time>2026-04-06T14:33:44.012Z</time></trkpt><trkpt lat="40.0966533" lon="9.5496782"><ele>694.0</ele><time>2026-04-06T14:33:46.011Z</time></trkpt><trkpt lat="40.0965885" lon="9.549756"><ele>694.0</ele><time>2026-04-06T14:33:52.012Z</time></trkpt><trkpt lat="40.0965381" lon="9.5499184"><ele>694.0</ele><time>2026-04-06T14:33:54.012Z</time></trkpt><trkpt lat="40.096506" lon="9.5500243"><ele>694.0</ele><time>2026-04-06T14:33:55.012Z</time></trkpt><trkpt lat="40.0964751" lon="9.5501319"><ele>693.6</ele><time>2026-04-06T14:33:56.011Z</time></trkpt><trkpt lat="40.0964468" lon="9.5502354"><ele>693.2</ele><time>2026-04-06T14:33:57.012Z</time></trkpt><trkpt lat="40.0964098" lon="9.5503517"><ele>692.8000000000001</ele><time>2026-04-06T14:33:58.012Z</time></trkpt><trkpt lat="40.096358" lon="9.550449"><ele>692.4000000000001</ele><time>2026-04-06T14:33:59.012Z</time></trkpt><trkpt lat="40.0962865" lon="9.5505278"><ele>692.0</ele><time>2026-04-06T14:34:00.011Z</time></trkpt><trkpt lat="40.0961979" lon="9.5505785"><ele>692.0</ele><time>2026-04-06T14:34:01.012Z</time></trkpt><trkpt lat="40.0960977" lon="9.5506047"><ele>692.0</ele><time>2026-04-06T14:34:02.012Z</time></trkpt><trkpt lat="40.0958872" lon="9.5506238"><ele>692.0</ele><time>2026-04-06T14:34:04.011Z</time></trkpt><trkpt lat="40.0957824" lon="9.5506397"><ele>692.0</ele><time>2026-04-06T14:34:05.012Z</time></trkpt><trkpt lat="40.0956829" lon="9.5506666"><ele>692.0</ele><time>2026-04-06T14:34:06.011Z</time></trkpt><trkpt lat="40.0955925" lon="9.5507166"><ele>692.0</ele><time>2026-04-06T14:34:07.012Z</time></trkpt><trkpt lat="40.095518" lon="9.5507998"><ele>692.0</ele><time>2026-04-06T14:34:08.012Z</time></trkpt><trkpt lat="40.0954649" lon="9.5509128"><ele>692.0</ele><time>2026-04-06T14:34:09.012Z</time></trkpt><trkpt lat="40.0954337" lon="9.5510538"><ele>692.0</ele><time>2026-04-06T14:34:10.012Z</time></trkpt><trkpt lat="40.095415" lon="9.5512034"><ele>690.75</ele><time>2026-04-06T14:34:11.012Z</time></trkpt><trkpt lat="40.0954052" lon="9.5513721"><ele>689.5</ele><time>2026-04-06T14:34:12.012Z</time></trkpt><trkpt lat="40.095391" lon="9.5515438"><ele>688.25</ele><time>2026-04-06T14:34:13.011Z</time></trkpt><trkpt lat="40.0953799" lon="9.5517043"><ele>687.0</ele><time>2026-04-06T14:34:14.012Z</time></trkpt><trkpt lat="40.0953704" lon="9.5518571"><ele>687.0</ele><time>2026-04-06T14:34:15.012Z</time></trkpt><trkpt lat="40.0953612" lon="9.5519918"><ele>687.0</ele><time>2026-04-06T14:34:16.012Z</time></trkpt><trkpt lat="40.0953597" lon="9.5521031"><ele>687.0</ele><time>2026-04-06T14:34:17.011Z</time></trkpt><trkpt lat="40.0953795" lon="9.5521975"><ele>687.0</ele><time>2026-04-06T14:34:18.012Z</time></trkpt><trkpt lat="40.0954245" lon="9.5522615"><ele>687.0</ele><time>2026-04-06T14:34:19.011Z</time></trkpt><trkpt lat="40.0954869" lon="9.5522894"><ele>687.0</ele><time>2026-04-06T14:34:20.012Z</time></trkpt><trkpt lat="40.0955667" lon="9.5522981"><ele>687.8</ele><time>2026-04-06T14:34:21.012Z</time></trkpt><trkpt lat="40.0956507" lon="9.552295"><ele>688.6</ele><time>2026-04-06T14:34:22.012Z</time></trkpt><trkpt lat="40.0957383" lon="9.5523018"><ele>689.4</ele><time>2026-04-06T14:34:23.011Z</time></trkpt><trkpt lat="40.0958299" lon="9.5523226"><ele>690.1999999999999</ele><time>2026-04-06T14:34:24.012Z</time></trkpt><trkpt lat="40.0959244" lon="9.5523436"><ele>691.0</ele><time>2026-04-06T14:34:25.011Z</time></trkpt><trkpt lat="40.0960233" lon="9.5523638"><ele>691.0</ele><time>2026-04-06T14:34:26.011Z</time></trkpt><trkpt lat="40.0961167" lon="9.5523807"><ele>691.0</ele><time>2026-04-06T14:34:27.012Z</time></trkpt><trkpt lat="40.0962112" lon="9.5523978"><ele>691.0</ele><time>2026-04-06T14:34:28.012Z</time></trkpt><trkpt lat="40.0963078" lon="9.5524125"><ele>691.0</ele><time>2026-04-06T14:34:29.012Z</time></trkpt><trkpt lat="40.0963701" lon="9.5524268"><ele>691.0</ele><time>2026-04-06T14:34:30.012Z</time></trkpt><trkpt lat="40.0964442" lon="9.5524408"><ele>691.0</ele><time>2026-04-06T14:34:32.012Z</time></trkpt><trkpt lat="40.096507" lon="9.5524522"><ele>690.1999999999999</ele><time>2026-04-06T14:34:34.011Z</time></trkpt><trkpt lat="40.0965928" lon="9.5524787"><ele>689.4</ele><time>2026-04-06T14:34:37.011Z</time></trkpt><trkpt lat="40.0966558" lon="9.552496"><ele>688.6</ele><time>2026-04-06T14:36:34.011Z</time></trkpt><trkpt lat="40.0967793" lon="9.552501"><ele>687.8</ele><time>2026-04-06T14:36:36.012Z</time></trkpt><trkpt lat="40.0968483" lon="9.552515"><ele>687.0</ele><time>2026-04-06T14:36:37.011Z</time></trkpt><trkpt lat="40.0969644" lon="9.5525419"><ele>687.0</ele><time>2026-04-06T14:36:39.012Z</time></trkpt><trkpt lat="40.0970741" lon="9.5525654"><ele>687.0</ele><time>2026-04-06T14:36:41.012Z</time></trkpt><trkpt lat="40.0971977" lon="9.552583"><ele>687.0</ele><time>2026-04-06T14:36:43.012Z</time></trkpt><trkpt lat="40.0973144" lon="9.5525897"><ele>687.0</ele><time>2026-04-06T14:36:45.011Z</time></trkpt><trkpt lat="40.0974002" lon="9.5526028"><ele>687.0</ele><time>2026-04-06T14:36:47.011Z</time></trkpt><trkpt lat="40.0974731" lon="9.5526154"><ele>687.2</ele><time>2026-04-06T14:36:49.012Z</time></trkpt><trkpt lat="40.0975621" lon="9.5526364"><ele>687.4000000000001</ele><time>2026-04-06T14:36:52.012Z</time></trkpt><trkpt lat="40.0976445" lon="9.5526492"><ele>687.5999999999999</ele><time>2026-04-06T14:36:54.011Z</time></trkpt><trkpt lat="40.0977563" lon="9.5526741"><ele>687.8</ele><time>2026-04-06T14:36:56.012Z</time></trkpt><trkpt lat="40.0978825" lon="9.5526968"><ele>688.0</ele><time>2026-04-06T14:36:58.012Z</time></trkpt><trkpt lat="40.0979458" lon="9.5527092"><ele>688.0</ele><time>2026-04-06T14:36:59.011Z</time></trkpt><trkpt lat="40.0980567" lon="9.5527262"><ele>688.0</ele><time>2026-04-06T14:37:01.012Z</time></trkpt><trkpt lat="40.0981293" lon="9.5527306"><ele>688.0</ele><time>2026-04-06T14:37:03.012Z</time></trkpt><trkpt lat="40.0981936" lon="9.5527393"><ele>688.0</ele><time>2026-04-06T14:37:05.011Z</time></trkpt><trkpt lat="40.0982635" lon="9.5527612"><ele>688.0</ele><time>2026-04-06T14:37:07.011Z</time></trkpt><trkpt lat="40.0983311" lon="9.552774"><ele>688.0</ele><time>2026-04-06T14:37:09.011Z</time></trkpt><trkpt lat="40.098429" lon="9.5527941"><ele>688.4</ele><time>2026-04-06T14:37:11.012Z</time></trkpt><trkpt lat="40.0985328" lon="9.5528182"><ele>688.8</ele><time>2026-04-06T14:37:13.012Z</time></trkpt><trkpt lat="40.0986288" lon="9.5528397"><ele>689.2</ele><time>2026-04-06T14:37:15.012Z</time></trkpt><trkpt lat="40.0987166" lon="9.5528578"><ele>689.6</ele><time>2026-04-06T14:37:17.01Z</time></trkpt><trkpt lat="40.0988119" lon="9.5528807"><ele>690.0</ele><time>2026-04-06T14:37:19.012Z</time></trkpt><trkpt lat="40.0989125" lon="9.5529015"><ele>690.0</ele><time>2026-04-06T14:37:21.012Z</time></trkpt><trkpt lat="40.0990216" lon="9.5529237"><ele>690.0</ele><time>2026-04-06T14:37:23.012Z</time></trkpt><trkpt lat="40.0991409" lon="9.5529493"><ele>690.0</ele><time>2026-04-06T14:37:25.012Z</time></trkpt><trkpt lat="40.0992056" lon="9.5529607"><ele>690.0</ele><time>2026-04-06T14:37:26.012Z</time></trkpt><trkpt lat="40.0992709" lon="9.5529743"><ele>690.0</ele><time>2026-04-06T14:37:27.011Z</time></trkpt><trkpt lat="40.0993356" lon="9.5529848"><ele>690.0</ele><time>2026-04-06T14:37:28.012Z</time></trkpt><trkpt lat="40.0993986" lon="9.5529962"><ele>689.2</ele><time>2026-04-06T14:37:29.012Z</time></trkpt><trkpt lat="40.0995187" lon="9.5530219"><ele>688.4</ele><time>2026-04-06T14:37:31.012Z</time></trkpt><trkpt lat="40.0996291" lon="9.5530435"><ele>687.5999999999999</ele><time>2026-04-06T14:37:33.012Z</time></trkpt><trkpt lat="40.0997255" lon="9.5530619"><ele>686.8</ele><time>2026-04-06T14:37:35.011Z</time></trkpt><trkpt lat="40.0998374" lon="9.5530822"><ele>686.0</ele><time>2026-04-06T14:37:37.012Z</time></trkpt><trkpt lat="40.0999503" lon="9.5530961"><ele>685.4</ele><time>2026-04-06T14:37:39.012Z</time></trkpt><trkpt lat="40.1000669" lon="9.5531173"><ele>684.8</ele><time>2026-04-06T14:37:41.012Z</time></trkpt><trkpt lat="40.1001693" lon="9.553137"><ele>684.1999999999999</ele><time>2026-04-06T14:37:43.01Z</time></trkpt><trkpt lat="40.1002461" lon="9.55315"><ele>683.5999999999999</ele><time>2026-04-06T14:37:45.012Z</time></trkpt><trkpt lat="40.1003189" lon="9.5531607"><ele>683.0</ele><time>2026-04-06T14:37:47.012Z</time></trkpt><trkpt lat="40.1004153" lon="9.5531754"><ele>683.0</ele><time>2026-04-06T14:37:49.012Z</time></trkpt><trkpt lat="40.1005334" lon="9.5531961"><ele>683.0</ele><time>2026-04-06T14:37:51.012Z</time></trkpt><trkpt lat="40.1005959" lon="9.5532103"><ele>683.0</ele><time>2026-04-06T14:37:52.012Z</time></trkpt><trkpt lat="40.1006611" lon="9.5532245"><ele>683.0</ele><time>2026-04-06T14:37:53.011Z</time></trkpt><trkpt lat="40.1007351" lon="9.5532383"><ele>683.0</ele><time>2026-04-06T14:37:54.012Z</time></trkpt><trkpt lat="40.1008183" lon="9.5532549"><ele>683.0</ele><time>2026-04-06T14:37:55.012Z</time></trkpt><trkpt lat="40.1009127" lon="9.5532722"><ele>683.8</ele><time>2026-04-06T14:37:56.012Z</time></trkpt><trkpt lat="40.1010098" lon="9.5532905"><ele>684.5999999999999</ele><time>2026-04-06T14:37:57.011Z</time></trkpt><trkpt lat="40.1011157" lon="9.5533091"><ele>685.4000000000001</ele><time>2026-04-06T14:37:58.012Z</time></trkpt><trkpt lat="40.1012285" lon="9.5533249"><ele>686.2</ele><time>2026-04-06T14:37:59.011Z</time></trkpt><trkpt lat="40.1013415" lon="9.5533317"><ele>687.0</ele><time>2026-04-06T14:38:00.011Z</time></trkpt><trkpt lat="40.1014545" lon="9.5533315"><ele>687.0</ele><time>2026-04-06T14:38:01.012Z</time></trkpt><trkpt lat="40.1015611" lon="9.553315"><ele>687.0</ele><time>2026-04-06T14:38:02.012Z</time></trkpt><trkpt lat="40.1016642" lon="9.5532855"><ele>687.0</ele><time>2026-04-06T14:38:03.012Z</time></trkpt><trkpt lat="40.101774" lon="9.5532525"><ele>687.0</ele><time>2026-04-06T14:38:04.012Z</time></trkpt><trkpt lat="40.1018832" lon="9.5532236"><ele>687.0</ele><time>2026-04-06T14:38:05.012Z</time></trkpt><trkpt lat="40.101999" lon="9.5531932"><ele>688.25</ele><time>2026-04-06T14:38:06.012Z</time></trkpt><trkpt lat="40.1021158" lon="9.5531612"><ele>689.5</ele><time>2026-04-06T14:38:07.012Z</time></trkpt><trkpt lat="40.1022312" lon="9.5531299"><ele>690.75</ele><time>2026-04-06T14:38:08.011Z</time></trkpt><trkpt lat="40.1023477" lon="9.5530933"><ele>692.0</ele><time>2026-04-06T14:38:09.012Z</time></trkpt><trkpt lat="40.1024586" lon="9.5530608"><ele>692.8333333333333</ele><time>2026-04-06T14:38:10.011Z</time></trkpt><trkpt lat="40.1025569" lon="9.5530355"><ele>693.6666666666666</ele><time>2026-04-06T14:38:11.012Z</time></trkpt><trkpt lat="40.1026464" lon="9.553009"><ele>694.5</ele><time>2026-04-06T14:38:12.012Z</time></trkpt><trkpt lat="40.1027271" lon="9.5529881"><ele>695.3333333333334</ele><time>2026-04-06T14:38:13.012Z</time></trkpt><trkpt lat="40.1027959" lon="9.5529674"><ele>696.1666666666667</ele><time>2026-04-06T14:38:14.012Z</time></trkpt><trkpt lat="40.1028677" lon="9.5529401"><ele>697.0</ele><time>2026-04-06T14:38:15.011Z</time></trkpt><trkpt lat="40.10294" lon="9.5529165"><ele>697.0</ele><time>2026-04-06T14:38:16.012Z</time></trkpt><trkpt lat="40.1030059" lon="9.5528957"><ele>697.0</ele><time>2026-04-06T14:38:17.011Z</time></trkpt><trkpt lat="40.1031246" lon="9.5528623"><ele>697.0</ele><time>2026-04-06T14:38:19.012Z</time></trkpt><trkpt lat="40.103233" lon="9.5528283"><ele>697.0</ele><time>2026-04-06T14:38:21.011Z</time></trkpt><trkpt lat="40.1033467" lon="9.5527963"><ele>697.0</ele><time>2026-04-06T14:38:23.012Z</time></trkpt><trkpt lat="40.1034084" lon="9.5527772"><ele>698.4285714285714</ele><time>2026-04-06T14:38:24.012Z</time></trkpt><trkpt lat="40.1034716" lon="9.5527573"><ele>699.8571428571429</ele><time>2026-04-06T14:38:25.012Z</time></trkpt><trkpt lat="40.1035353" lon="9.5527395"><ele>701.2857142857142</ele><time>2026-04-06T14:38:26.012Z</time></trkpt><trkpt lat="40.1036028" lon="9.552727"><ele>702.7142857142858</ele><time>2026-04-06T14:38:27.012Z</time></trkpt><trkpt lat="40.1036684" lon="9.5527168"><ele>704.1428571428571</ele><time>2026-04-06T14:38:28.012Z</time></trkpt><trkpt lat="40.1037349" lon="9.5527033"><ele>705.5714285714286</ele><time>2026-04-06T14:38:29.011Z</time></trkpt><trkpt lat="40.1038005" lon="9.552684"><ele>707.0</ele><time>2026-04-06T14:38:30.011Z</time></trkpt><trkpt lat="40.103874" lon="9.5526625"><ele>707.0</ele><time>2026-04-06T14:38:31.011Z</time></trkpt><trkpt lat="40.1039493" lon="9.5526447"><ele>707.0</ele><time>2026-04-06T14:38:32.012Z</time></trkpt><trkpt lat="40.104029" lon="9.5526231"><ele>707.0</ele><time>2026-04-06T14:38:33.012Z</time></trkpt><trkpt lat="40.1041087" lon="9.5526013"><ele>707.0</ele><time>2026-04-06T14:38:34.012Z</time></trkpt><trkpt lat="40.104185" lon="9.552579"><ele>707.0</ele><time>2026-04-06T14:38:35.012Z</time></trkpt><trkpt lat="40.1042601" lon="9.5525602"><ele>707.0</ele><time>2026-04-06T14:38:36.012Z</time></trkpt><trkpt lat="40.1043321" lon="9.55254"><ele>706.3333333333333</ele><time>2026-04-06T14:38:37.012Z</time></trkpt><trkpt lat="40.1044023" lon="9.5525181"><ele>705.6666666666666</ele><time>2026-04-06T14:38:38.012Z</time></trkpt><trkpt lat="40.1045136" lon="9.5524888"><ele>705.0</ele><time>2026-04-06T14:38:40.012Z</time></trkpt><trkpt lat="40.1046044" lon="9.5524586"><ele>704.3333333333334</ele><time>2026-04-06T14:38:42.011Z</time></trkpt><trkpt lat="40.1046808" lon="9.5524365"><ele>703.6666666666667</ele><time>2026-04-06T14:38:44.012Z</time></trkpt><trkpt lat="40.1047663" lon="9.5524155"><ele>703.0</ele><time>2026-04-06T14:38:46.012Z</time></trkpt><trkpt lat="40.1048654" lon="9.5523898"><ele>702.5999999999999</ele><time>2026-04-06T14:38:48.011Z</time></trkpt><trkpt lat="40.1049765" lon="9.5523563"><ele>702.1999999999999</ele><time>2026-04-06T14:38:50.012Z</time></trkpt><trkpt lat="40.1050853" lon="9.5523272"><ele>701.8</ele><time>2026-04-06T14:38:52.011Z</time></trkpt><trkpt lat="40.1051952" lon="9.5523061"><ele>701.4</ele><time>2026-04-06T14:38:54.012Z</time></trkpt><trkpt lat="40.1053046" lon="9.5522782"><ele>701.0</ele><time>2026-04-06T14:38:56.012Z</time></trkpt><trkpt lat="40.1054167" lon="9.5522503"><ele>701.0</ele><time>2026-04-06T14:38:58.012Z</time></trkpt><trkpt lat="40.105529" lon="9.5522167"><ele>701.0</ele><time>2026-04-06T14:39:00.012Z</time></trkpt><trkpt lat="40.1056441" lon="9.5521901"><ele>701.0</ele><time>2026-04-06T14:39:02.011Z</time></trkpt><trkpt lat="40.1057632" lon="9.5521587"><ele>701.0</ele><time>2026-04-06T14:39:04.012Z</time></trkpt><trkpt lat="40.105883" lon="9.5521241"><ele>701.2857142857143</ele><time>2026-04-06T14:39:06.012Z</time></trkpt><trkpt lat="40.1059441" lon="9.5520967"><ele>701.5714285714286</ele><time>2026-04-06T14:39:07.012Z</time></trkpt><trkpt lat="40.1060068" lon="9.5520753"><ele>701.8571428571429</ele><time>2026-04-06T14:39:08.011Z</time></trkpt><trkpt lat="40.1060718" lon="9.5520577"><ele>702.1428571428571</ele><time>2026-04-06T14:39:09.012Z</time></trkpt><trkpt lat="40.1061411" lon="9.5520391"><ele>702.4285714285714</ele><time>2026-04-06T14:39:10.012Z</time></trkpt><trkpt lat="40.1062045" lon="9.5520249"><ele>702.7142857142857</ele><time>2026-04-06T14:39:11.012Z</time></trkpt><trkpt lat="40.1063093" lon="9.5520009"><ele>703.0</ele><time>2026-04-06T14:39:13.012Z</time></trkpt><trkpt lat="40.106424" lon="9.5519559"><ele>703.3333333333334</ele><time>2026-04-06T14:39:15.011Z</time></trkpt><trkpt lat="40.1064868" lon="9.5519385"><ele>703.6666666666667</ele><time>2026-04-06T14:39:16.012Z</time></trkpt><trkpt lat="40.1065602" lon="9.5519154"><ele>704.0</ele><time>2026-04-06T14:39:17.011Z</time></trkpt><trkpt lat="40.1066398" lon="9.5518962"><ele>704.3333333333334</ele><time>2026-04-06T14:39:18.012Z</time></trkpt><trkpt lat="40.1067268" lon="9.5518746"><ele>704.6666666666666</ele><time>2026-04-06T14:39:19.011Z</time></trkpt><trkpt lat="40.1068157" lon="9.5518521"><ele>705.0</ele><time>2026-04-06T14:39:20.012Z</time></trkpt><trkpt lat="40.1069078" lon="9.5518236"><ele>705.0</ele><time>2026-04-06T14:39:21.012Z</time></trkpt><trkpt lat="40.1069998" lon="9.551797"><ele>705.0</ele><time>2026-04-06T14:39:22.012Z</time></trkpt><trkpt lat="40.1070887" lon="9.5517709"><ele>705.0</ele><time>2026-04-06T14:39:23.011Z</time></trkpt><trkpt lat="40.107171" lon="9.5517475"><ele>705.0</ele><time>2026-04-06T14:39:24.012Z</time></trkpt><trkpt lat="40.1072521" lon="9.5517281"><ele>705.0</ele><time>2026-04-06T14:39:25.011Z</time></trkpt><trkpt lat="40.1073282" lon="9.5517082"><ele>705.0</ele><time>2026-04-06T14:39:26.012Z</time></trkpt><trkpt lat="40.1074028" lon="9.5516934"><ele>705.1428571428571</ele><time>2026-04-06T14:39:27.012Z</time></trkpt><trkpt lat="40.1074749" lon="9.5516725"><ele>705.2857142857142</ele><time>2026-04-06T14:39:28.012Z</time></trkpt><trkpt lat="40.1075433" lon="9.5516553"><ele>705.4285714285713</ele><time>2026-04-06T14:39:29.011Z</time></trkpt><trkpt lat="40.1076117" lon="9.5516352"><ele>705.5714285714286</ele><time>2026-04-06T14:39:30.011Z</time></trkpt><trkpt lat="40.1076822" lon="9.5516095"><ele>705.7142857142858</ele><time>2026-04-06T14:39:31.012Z</time></trkpt><trkpt lat="40.1077569" lon="9.5515944"><ele>705.8571428571428</ele><time>2026-04-06T14:39:32.012Z</time></trkpt><trkpt lat="40.1078361" lon="9.5515839"><ele>706.0</ele><time>2026-04-06T14:39:33.012Z</time></trkpt><trkpt lat="40.107915" lon="9.55159"><ele>706.0</ele><time>2026-04-06T14:39:34.011Z</time></trkpt><trkpt lat="40.1079921" lon="9.551609"><ele>706.0</ele><time>2026-04-06T14:39:35.012Z</time></trkpt><trkpt lat="40.1080666" lon="9.551636"><ele>706.0</ele><time>2026-04-06T14:39:36.012Z</time></trkpt><trkpt lat="40.1081392" lon="9.5516731"><ele>706.0</ele><time>2026-04-06T14:39:37.012Z</time></trkpt><trkpt lat="40.1082133" lon="9.55171"><ele>706.0</ele><time>2026-04-06T14:39:38.011Z</time></trkpt><trkpt lat="40.1082859" lon="9.5517499"><ele>706.0</ele><time>2026-04-06T14:39:39.012Z</time></trkpt><trkpt lat="40.1083579" lon="9.5517879"><ele>706.1666666666667</ele><time>2026-04-06T14:39:40.012Z</time></trkpt><trkpt lat="40.1084283" lon="9.5518281"><ele>706.3333333333334</ele><time>2026-04-06T14:39:41.012Z</time></trkpt><trkpt lat="40.1085009" lon="9.5518707"><ele>706.5</ele><time>2026-04-06T14:39:42.012Z</time></trkpt><trkpt lat="40.1085744" lon="9.5519082"><ele>706.6666666666666</ele><time>2026-04-06T14:39:43.012Z</time></trkpt><trkpt lat="40.1086472" lon="9.5519459"><ele>706.8333333333333</ele><time>2026-04-06T14:39:44.012Z</time></trkpt><trkpt lat="40.1087213" lon="9.5519788"><ele>707.0</ele><time>2026-04-06T14:39:45.012Z</time></trkpt><trkpt lat="40.1087949" lon="9.5520186"><ele>708.0</ele><time>2026-04-06T14:39:46.012Z</time></trkpt><trkpt lat="40.1088675" lon="9.5520594"><ele>709.0</ele><time>2026-04-06T14:39:47.012Z</time></trkpt><trkpt lat="40.1089475" lon="9.5521035"><ele>710.0</ele><time>2026-04-06T14:39:48.012Z</time></trkpt><trkpt lat="40.1090273" lon="9.5521446"><ele>711.0</ele><time>2026-04-06T14:39:49.012Z</time></trkpt><trkpt lat="40.1091063" lon="9.5521927"><ele>712.0</ele><time>2026-04-06T14:39:50.012Z</time></trkpt><trkpt lat="40.1091748" lon="9.5522477"><ele>713.0</ele><time>2026-04-06T14:39:51.011Z</time></trkpt><trkpt lat="40.1092398" lon="9.5523018"><ele>713.1666666666666</ele><time>2026-04-06T14:39:52.012Z</time></trkpt><trkpt lat="40.1093074" lon="9.5523536"><ele>713.3333333333333</ele><time>2026-04-06T14:39:53.012Z</time></trkpt><trkpt lat="40.1093756" lon="9.5524153"><ele>713.5</ele><time>2026-04-06T14:39:54.011Z</time></trkpt><trkpt lat="40.1094437" lon="9.5524774"><ele>713.6666666666666</ele><time>2026-04-06T14:39:55.011Z</time></trkpt><trkpt lat="40.1095145" lon="9.5525404"><ele>713.8333333333334</ele><time>2026-04-06T14:39:56.011Z</time></trkpt><trkpt lat="40.1095842" lon="9.5526085"><ele>714.0</ele><time>2026-04-06T14:39:57.012Z</time></trkpt><trkpt lat="40.1096553" lon="9.5526731"><ele>714.0</ele><time>2026-04-06T14:39:58.011Z</time></trkpt><trkpt lat="40.1097292" lon="9.5527417"><ele>714.0</ele><time>2026-04-06T14:39:59.012Z</time></trkpt><trkpt lat="40.1097979" lon="9.5528076"><ele>714.0</ele><time>2026-04-06T14:40:00.011Z</time></trkpt><trkpt lat="40.1098643" lon="9.5528667"><ele>714.0</ele><time>2026-04-06T14:40:01.012Z</time></trkpt><trkpt lat="40.1099229" lon="9.5529182"><ele>714.0</ele><time>2026-04-06T14:40:02.011Z</time></trkpt><trkpt lat="40.1099843" lon="9.5529656"><ele>714.0</ele><time>2026-04-06T14:40:03.011Z</time></trkpt><trkpt lat="40.1100415" lon="9.5530116"><ele>714.3333333333334</ele><time>2026-04-06T14:40:04.012Z</time></trkpt><trkpt lat="40.110107" lon="9.5530527"><ele>714.6666666666666</ele><time>2026-04-06T14:40:05.012Z</time></trkpt><trkpt lat="40.1101698" lon="9.5530719"><ele>715.0</ele><time>2026-04-06T14:40:06.012Z</time></trkpt><trkpt lat="40.1102939" lon="9.553079"><ele>715.3333333333333</ele><time>2026-04-06T14:40:08.012Z</time></trkpt><trkpt lat="40.1103574" lon="9.5530848"><ele>715.6666666666666</ele><time>2026-04-06T14:40:09.012Z</time></trkpt><trkpt lat="40.1104242" lon="9.5530956"><ele>716.0</ele><time>2026-04-06T14:40:10.011Z</time></trkpt><trkpt lat="40.1104935" lon="9.5530993"><ele>716.0000000000001</ele><time>2026-04-06T14:40:11.012Z</time></trkpt><trkpt lat="40.1105678" lon="9.5531085"><ele>716.0</ele><time>2026-04-06T14:40:12.012Z</time></trkpt><trkpt lat="40.1106406" lon="9.5531165"><ele>716.0</ele><time>2026-04-06T14:40:13.012Z</time></trkpt><trkpt lat="40.1107216" lon="9.5531239"><ele>716.0</ele><time>2026-04-06T14:40:14.012Z</time></trkpt><trkpt lat="40.1108019" lon="9.5531208"><ele>716.0</ele><time>2026-04-06T14:40:15.011Z</time></trkpt><trkpt lat="40.1108728" lon="9.5531158"><ele>716.0000000000001</ele><time>2026-04-06T14:40:16.012Z</time></trkpt><trkpt lat="40.1109364" lon="9.5530999"><ele>716.0</ele><time>2026-04-06T14:40:17.012Z</time></trkpt><trkpt lat="40.1110386" lon="9.5530574"><ele>715.4</ele><time>2026-04-06T14:40:19.012Z</time></trkpt><trkpt lat="40.1111274" lon="9.5530124"><ele>714.8</ele><time>2026-04-06T14:40:21.011Z</time></trkpt><trkpt lat="40.1111953" lon="9.5529652"><ele>714.1999999999999</ele><time>2026-04-06T14:40:23.012Z</time></trkpt><trkpt lat="40.1112652" lon="9.5529154"><ele>713.5999999999999</ele><time>2026-04-06T14:40:25.012Z</time></trkpt><trkpt lat="40.1113574" lon="9.5528549"><ele>713.0</ele><time>2026-04-06T14:40:27.011Z</time></trkpt><trkpt lat="40.1114655" lon="9.5527743"><ele>711.25</ele><time>2026-04-06T14:40:29.012Z</time></trkpt><trkpt lat="40.1116008" lon="9.5526288"><ele>709.5</ele><time>2026-04-06T14:40:32.011Z</time></trkpt><trkpt lat="40.1116723" lon="9.5525207"><ele>707.75</ele><time>2026-04-06T14:40:34.011Z</time></trkpt><trkpt lat="40.1117414" lon="9.5524175"><ele>706.0</ele><time>2026-04-06T14:40:36.012Z</time></trkpt><trkpt lat="40.1118165" lon="9.5523004"><ele>706.0</ele><time>2026-04-06T14:40:38.012Z</time></trkpt><trkpt lat="40.1118541" lon="9.5522316"><ele>706.0</ele><time>2026-04-06T14:40:39.012Z</time></trkpt><trkpt lat="40.1118957" lon="9.5521641"><ele>706.0</ele><time>2026-04-06T14:40:40.012Z</time></trkpt><trkpt lat="40.1119447" lon="9.5521026"><ele>706.0</ele><time>2026-04-06T14:40:41.012Z</time></trkpt><trkpt lat="40.1120053" lon="9.5520526"><ele>706.0</ele><time>2026-04-06T14:40:42.012Z</time></trkpt><trkpt lat="40.1120717" lon="9.552023"><ele>706.0</ele><time>2026-04-06T14:40:43.012Z</time></trkpt><trkpt lat="40.1121418" lon="9.5520051"><ele>706.0</ele><time>2026-04-06T14:40:44.012Z</time></trkpt><trkpt lat="40.112219" lon="9.5519878"><ele>705.0</ele><time>2026-04-06T14:40:45.012Z</time></trkpt><trkpt lat="40.1122925" lon="9.5519628"><ele>704.0</ele><time>2026-04-06T14:40:46.012Z</time></trkpt><trkpt lat="40.1123646" lon="9.5519263"><ele>703.0</ele><time>2026-04-06T14:40:47.012Z</time></trkpt><trkpt lat="40.1124347" lon="9.5518746"><ele>702.0</ele><time>2026-04-06T14:40:48.012Z</time></trkpt><trkpt lat="40.1124984" lon="9.5518229"><ele>701.0</ele><time>2026-04-06T14:40:49.012Z</time></trkpt><trkpt lat="40.1125572" lon="9.5517724"><ele>700.0</ele><time>2026-04-06T14:40:50.011Z</time></trkpt><trkpt lat="40.1126135" lon="9.5517223"><ele>699.0</ele><time>2026-04-06T14:40:51.012Z</time></trkpt><trkpt lat="40.1126725" lon="9.5516806"><ele>698.5714285714286</ele><time>2026-04-06T14:40:52.011Z</time></trkpt><trkpt lat="40.1127384" lon="9.5516631"><ele>698.1428571428572</ele><time>2026-04-06T14:40:53.012Z</time></trkpt><trkpt lat="40.1128051" lon="9.5516651"><ele>697.7142857142858</ele><time>2026-04-06T14:40:54.012Z</time></trkpt><trkpt lat="40.1128825" lon="9.5516773"><ele>697.2857142857142</ele><time>2026-04-06T14:40:55.011Z</time></trkpt><trkpt lat="40.1129586" lon="9.5516697"><ele>696.8571428571429</ele><time>2026-04-06T14:40:56.012Z</time></trkpt><trkpt lat="40.1130362" lon="9.55165"><ele>696.4285714285714</ele><time>2026-04-06T14:40:57.012Z</time></trkpt><trkpt lat="40.1131118" lon="9.5516328"><ele>696.0</ele><time>2026-04-06T14:40:58.012Z</time></trkpt><trkpt lat="40.1131826" lon="9.5516053"><ele>696.5999999999999</ele><time>2026-04-06T14:40:59.012Z</time></trkpt><trkpt lat="40.1132465" lon="9.5515672"><ele>697.2</ele><time>2026-04-06T14:41:00.012Z</time></trkpt><trkpt lat="40.1133062" lon="9.551527"><ele>697.8</ele><time>2026-04-06T14:41:01.012Z</time></trkpt><trkpt lat="40.1134016" lon="9.5514404"><ele>698.4000000000001</ele><time>2026-04-06T14:41:03.012Z</time></trkpt><trkpt lat="40.1134897" lon="9.5513646"><ele>699.0</ele><time>2026-04-06T14:41:05.011Z</time></trkpt><trkpt lat="40.1135807" lon="9.5512906"><ele>699.0</ele><time>2026-04-06T14:41:07.012Z</time></trkpt><trkpt lat="40.1136697" lon="9.551216"><ele>699.0</ele><time>2026-04-06T14:41:09.011Z</time></trkpt><trkpt lat="40.1137591" lon="9.551152"><ele>699.0</ele><time>2026-04-06T14:41:11.012Z</time></trkpt><trkpt lat="40.1138559" lon="9.5510998"><ele>699.0</ele><time>2026-04-06T14:41:13.012Z</time></trkpt><trkpt lat="40.1139625" lon="9.5510584"><ele>699.0</ele><time>2026-04-06T14:41:15.011Z</time></trkpt><trkpt lat="40.114075" lon="9.5510148"><ele>694.8000000000001</ele><time>2026-04-06T14:41:17.011Z</time></trkpt><trkpt lat="40.1141886" lon="9.5509808"><ele>690.6</ele><time>2026-04-06T14:41:19.012Z</time></trkpt><trkpt lat="40.1142523" lon="9.5509844"><ele>686.4</ele><time>2026-04-06T14:41:20.012Z</time></trkpt><trkpt lat="40.1143685" lon="9.5510132"><ele>682.2</ele><time>2026-04-06T14:41:22.012Z</time></trkpt><trkpt lat="40.1144724" lon="9.5511029"><ele>678.0</ele><time>2026-04-06T14:41:24.011Z</time></trkpt><trkpt lat="40.1145253" lon="9.5511514"><ele>678.0</ele><time>2026-04-06T14:41:25.012Z</time></trkpt><trkpt lat="40.1145857" lon="9.5511902"><ele>678.0</ele><time>2026-04-06T14:41:26.012Z</time></trkpt><trkpt lat="40.1146538" lon="9.5512165"><ele>678.0</ele><time>2026-04-06T14:41:27.012Z</time></trkpt><trkpt lat="40.114779" lon="9.5512014"><ele>678.0</ele><time>2026-04-06T14:41:29.012Z</time></trkpt><trkpt lat="40.1148989" lon="9.5511637"><ele>678.0</ele><time>2026-04-06T14:41:31.012Z</time></trkpt><trkpt lat="40.1150177" lon="9.551132"><ele>676.25</ele><time>2026-04-06T14:41:33.012Z</time></trkpt><trkpt lat="40.1151358" lon="9.5510987"><ele>674.5</ele><time>2026-04-06T14:41:35.012Z</time></trkpt><trkpt lat="40.115237" lon="9.5510346"><ele>672.75</ele><time>2026-04-06T14:41:37.012Z</time></trkpt><trkpt lat="40.1153377" lon="9.5509583"><ele>671.0</ele><time>2026-04-06T14:41:39.012Z</time></trkpt><trkpt lat="40.1154293" lon="9.5508597"><ele>671.0</ele><time>2026-04-06T14:41:41.012Z</time></trkpt><trkpt lat="40.1155093" lon="9.5507355"><ele>671.0</ele><time>2026-04-06T14:41:43.012Z</time></trkpt><trkpt lat="40.1155444" lon="9.5506572"><ele>671.0</ele><time>2026-04-06T14:41:44.012Z</time></trkpt><trkpt lat="40.1155745" lon="9.550577"><ele>671.0</ele><time>2026-04-06T14:41:45.011Z</time></trkpt><trkpt lat="40.1155984" lon="9.5504942"><ele>671.0</ele><time>2026-04-06T14:41:46.011Z</time></trkpt><trkpt lat="40.1156182" lon="9.5504049"><ele>671.0</ele><time>2026-04-06T14:41:47.011Z</time></trkpt><trkpt lat="40.1156401" lon="9.5503144"><ele>668.3333333333333</ele><time>2026-04-06T14:41:48.012Z</time></trkpt><trkpt lat="40.1156597" lon="9.5502146"><ele>665.6666666666666</ele><time>2026-04-06T14:41:49.012Z</time></trkpt><trkpt lat="40.1156862" lon="9.5501093"><ele>663.0</ele><time>2026-04-06T14:41:50.012Z</time></trkpt><trkpt lat="40.1157044" lon="9.5500026"><ele>660.3333333333334</ele><time>2026-04-06T14:41:51.011Z</time></trkpt><trkpt lat="40.1157281" lon="9.5498943"><ele>657.6666666666667</ele><time>2026-04-06T14:41:52.011Z</time></trkpt><trkpt lat="40.115754" lon="9.5497883"><ele>655.0</ele><time>2026-04-06T14:41:53.012Z</time></trkpt><trkpt lat="40.1157817" lon="9.5496815"><ele>655.0</ele><time>2026-04-06T14:41:54.012Z</time></trkpt><trkpt lat="40.115809" lon="9.5495786"><ele>655.0</ele><time>2026-04-06T14:41:55.012Z</time></trkpt><trkpt lat="40.1158286" lon="9.5494671"><ele>655.0</ele><time>2026-04-06T14:41:56.012Z</time></trkpt><trkpt lat="40.1158468" lon="9.549351"><ele>655.0</ele><time>2026-04-06T14:41:57.012Z</time></trkpt><trkpt lat="40.1158701" lon="9.5492332"><ele>655.0</ele><time>2026-04-06T14:41:58.012Z</time></trkpt><trkpt lat="40.1158933" lon="9.5491165"><ele>655.0</ele><time>2026-04-06T14:41:59.011Z</time></trkpt><trkpt lat="40.1159134" lon="9.5490085"><ele>654.8571428571429</ele><time>2026-04-06T14:42:00.012Z</time></trkpt><trkpt lat="40.1159305" lon="9.5489021"><ele>654.7142857142857</ele><time>2026-04-06T14:42:01.011Z</time></trkpt><trkpt lat="40.1159436" lon="9.5488073"><ele>654.5714285714286</ele><time>2026-04-06T14:42:02.012Z</time></trkpt><trkpt lat="40.1159548" lon="9.5487232"><ele>654.4285714285714</ele><time>2026-04-06T14:42:03.012Z</time></trkpt><trkpt lat="40.1159643" lon="9.5486337"><ele>654.2857142857143</ele><time>2026-04-06T14:42:04.012Z</time></trkpt><trkpt lat="40.1159732" lon="9.5485434"><ele>654.1428571428571</ele><time>2026-04-06T14:42:05.012Z</time></trkpt><trkpt lat="40.1159854" lon="9.548446"><ele>654.0</ele><time>2026-04-06T14:42:06.012Z</time></trkpt><trkpt lat="40.1159861" lon="9.5483473"><ele>654.0</ele><time>2026-04-06T14:42:07.012Z</time></trkpt><trkpt lat="40.1159826" lon="9.5482488"><ele>654.0</ele><time>2026-04-06T14:42:08.012Z</time></trkpt><trkpt lat="40.1159806" lon="9.548153"><ele>654.0</ele><time>2026-04-06T14:42:09.012Z</time></trkpt><trkpt lat="40.115962" lon="9.548004"><ele>654.0</ele><time>2026-04-06T14:42:11.011Z</time></trkpt><trkpt lat="40.1159374" lon="9.5478654"><ele>654.0</ele><time>2026-04-06T14:42:13.012Z</time></trkpt><trkpt lat="40.1159503" lon="9.5477169"><ele>642.0</ele><time>2026-04-06T14:42:15.012Z</time></trkpt><trkpt lat="40.1160383" lon="9.5476137"><ele>642.0</ele><time>2026-04-06T14:42:17.011Z</time></trkpt><trkpt lat="40.1161424" lon="9.5475705"><ele>642.0</ele><time>2026-04-06T14:42:19.012Z</time></trkpt><trkpt lat="40.1162185" lon="9.5475749"><ele>642.0</ele><time>2026-04-06T14:42:21.012Z</time></trkpt></trkseg><trkseg><trkpt lat="40.09614" lon="9.55239"><ele>691.0</ele><time>2026-04-06T15:17:25.011Z</time></trkpt><trkpt lat="40.0960513" lon="9.5523817"><ele>691.0</ele><time>2026-04-06T15:17:28.011Z</time></trkpt><trkpt lat="40.0959756" lon="9.5523584"><ele>691.0</ele><time>2026-04-06T15:17:30.01Z</time></trkpt><trkpt lat="40.0959015" lon="9.5523367"><ele>691.0</ele><time>2026-04-06T15:17:32.011Z</time></trkpt><trkpt lat="40.09583" lon="9.5523075"><ele>691.0</ele><time>2026-04-06T15:17:34.011Z</time></trkpt><trkpt lat="40.0957591" lon="9.5522722"><ele>691.0</ele><time>2026-04-06T15:17:36.011Z</time></trkpt><trkpt lat="40.09569" lon="9.5522389"><ele>691.3333333333334</ele><time>2026-04-06T15:17:38.011Z</time></trkpt><trkpt lat="40.095618" lon="9.5522114"><ele>691.6666666666667</ele><time>2026-04-06T15:17:40.011Z</time></trkpt><trkpt lat="40.0955416" lon="9.5521843"><ele>692.0</ele><time>2026-04-06T15:17:42.01Z</time></trkpt><trkpt lat="40.0954663" lon="9.5521452"><ele>692.3333333333334</ele><time>2026-04-06T15:17:44.011Z</time></trkpt><trkpt lat="40.0954038" lon="9.5520814"><ele>692.6666666666666</ele><time>2026-04-06T15:17:46.011Z</time></trkpt><trkpt lat="40.095407" lon="9.5519458"><ele>693.0</ele><time>2026-04-06T15:17:48.011Z</time></trkpt><trkpt lat="40.0954118" lon="9.551856"><ele>692.1428571428571</ele><time>2026-04-06T15:17:49.011Z</time></trkpt><trkpt lat="40.0954177" lon="9.5517576"><ele>691.2857142857142</ele><time>2026-04-06T15:17:50.01Z</time></trkpt><trkpt lat="40.095422" lon="9.5516594"><ele>690.4285714285714</ele><time>2026-04-06T15:17:51.011Z</time></trkpt><trkpt lat="40.0954243" lon="9.5515712"><ele>689.5714285714286</ele><time>2026-04-06T15:17:52.011Z</time></trkpt><trkpt lat="40.09543" lon="9.5514861"><ele>688.7142857142857</ele><time>2026-04-06T15:17:53.011Z</time></trkpt><trkpt lat="40.095436" lon="9.5513977"><ele>687.8571428571429</ele><time>2026-04-06T15:17:54.011Z</time></trkpt><trkpt lat="40.0954441" lon="9.5513097"><ele>687.0</ele><time>2026-04-06T15:17:55.011Z</time></trkpt><trkpt lat="40.0954573" lon="9.5512156"><ele>687.8333333333334</ele><time>2026-04-06T15:17:56.01Z</time></trkpt><trkpt lat="40.0954676" lon="9.551114"><ele>688.6666666666666</ele><time>2026-04-06T15:17:57.011Z</time></trkpt><trkpt lat="40.0954874" lon="9.5510024"><ele>689.5</ele><time>2026-04-06T15:17:58.011Z</time></trkpt><trkpt lat="40.0955176" lon="9.5508985"><ele>690.3333333333333</ele><time>2026-04-06T15:17:59.011Z</time></trkpt><trkpt lat="40.0955714" lon="9.5508081"><ele>691.1666666666666</ele><time>2026-04-06T15:18:00.01Z</time></trkpt><trkpt lat="40.0956429" lon="9.5507424"><ele>692.0</ele><time>2026-04-06T15:18:01.011Z</time></trkpt><trkpt lat="40.0957322" lon="9.550703"><ele>692.0</ele><time>2026-04-06T15:18:02.011Z</time></trkpt><trkpt lat="40.0958295" lon="9.5506855"><ele>692.0</ele><time>2026-04-06T15:18:03.011Z</time></trkpt><trkpt lat="40.0959361" lon="9.5506728"><ele>692.0</ele><time>2026-04-06T15:18:04.011Z</time></trkpt><trkpt lat="40.096047" lon="9.5506674"><ele>692.0</ele><time>2026-04-06T15:18:05.011Z</time></trkpt><trkpt lat="40.0961507" lon="9.5506558"><ele>692.0</ele><time>2026-04-06T15:18:06.011Z</time></trkpt><trkpt lat="40.0962534" lon="9.5506254"><ele>692.0</ele><time>2026-04-06T15:18:07.011Z</time></trkpt><trkpt lat="40.096342" lon="9.5505647"><ele>692.0</ele><time>2026-04-06T15:18:08.011Z</time></trkpt><trkpt lat="40.0964151" lon="9.5504737"><ele>692.0</ele><time>2026-04-06T15:18:09.01Z</time></trkpt><trkpt lat="40.0964645" lon="9.5503542"><ele>692.0</ele><time>2026-04-06T15:18:10.01Z</time></trkpt><trkpt lat="40.096504" lon="9.5502259"><ele>692.0</ele><time>2026-04-06T15:18:11.011Z</time></trkpt><trkpt lat="40.0965435" lon="9.5500854"><ele>692.5</ele><time>2026-04-06T15:18:12.01Z</time></trkpt><trkpt lat="40.0965809" lon="9.5499387"><ele>693.0</ele><time>2026-04-06T15:18:13.011Z</time></trkpt><trkpt lat="40.0966282" lon="9.5497921"><ele>693.5</ele><time>2026-04-06T15:18:14.01Z</time></trkpt><trkpt lat="40.0966742" lon="9.5496409"><ele>694.0</ele><time>2026-04-06T15:18:15.011Z</time></trkpt><trkpt lat="40.0967189" lon="9.5494791"><ele>695.25</ele><time>2026-04-06T15:18:16.011Z</time></trkpt><trkpt lat="40.0967662" lon="9.5493094"><ele>696.5</ele><time>2026-04-06T15:18:17.011Z</time></trkpt><trkpt lat="40.0968159" lon="9.5491408"><ele>697.75</ele><time>2026-04-06T15:18:18.011Z</time></trkpt><trkpt lat="40.0968681" lon="9.5489725"><ele>699.0</ele><time>2026-04-06T15:18:19.011Z</time></trkpt><trkpt lat="40.0969191" lon="9.5487986"><ele>701.0</ele><time>2026-04-06T15:18:20.011Z</time></trkpt><trkpt lat="40.0969641" lon="9.5486213"><ele>703.0</ele><time>2026-04-06T15:18:21.01Z</time></trkpt><trkpt lat="40.0970049" lon="9.5484436"><ele>705.0</ele><time>2026-04-06T15:18:22.01Z</time></trkpt><trkpt lat="40.0970394" lon="9.5482559"><ele>707.0</ele><time>2026-04-06T15:18:23.011Z</time></trkpt><trkpt lat="40.0970621" lon="9.5480649"><ele>708.0</ele><time>2026-04-06T15:18:24.01Z</time></trkpt><trkpt lat="40.0970758" lon="9.5478699"><ele>709.0</ele><time>2026-04-06T15:18:25.011Z</time></trkpt><trkpt lat="40.0970956" lon="9.5476724"><ele>710.0</ele><time>2026-04-06T15:18:26.011Z</time></trkpt><trkpt lat="40.097118" lon="9.5474823"><ele>711.0</ele><time>2026-04-06T15:18:27.01Z</time></trkpt><trkpt lat="40.0971351" lon="9.5472951"><ele>711.0</ele><time>2026-04-06T15:18:28.011Z</time></trkpt><trkpt lat="40.0971531" lon="9.5471069"><ele>711.0</ele><time>2026-04-06T15:18:29.011Z</time></trkpt><trkpt lat="40.0971713" lon="9.546925"><ele>711.0</ele><time>2026-04-06T15:18:30.011Z</time></trkpt><trkpt lat="40.0971893" lon="9.5467357"><ele>711.0</ele><time>2026-04-06T15:18:31.011Z</time></trkpt><trkpt lat="40.0972022" lon="9.5465441"><ele>711.5</ele><time>2026-04-06T15:18:32.01Z</time></trkpt><trkpt lat="40.097222" lon="9.5463587"><ele>712.0</ele><time>2026-04-06T15:18:33.01Z</time></trkpt><trkpt lat="40.0972402" lon="9.5461747"><ele>712.5</ele><time>2026-04-06T15:18:34.011Z</time></trkpt><trkpt lat="40.0972624" lon="9.5459848"><ele>713.0</ele><time>2026-04-06T15:18:35.011Z</time></trkpt><trkpt lat="40.0972787" lon="9.5457998"><ele>714.0</ele><time>2026-04-06T15:18:36.011Z</time></trkpt><trkpt lat="40.0972923" lon="9.5456275"><ele>715.0</ele><time>2026-04-06T15:18:37.01Z</time></trkpt><trkpt lat="40.0972914" lon="9.545471"><ele>716.0</ele><time>2026-04-06T15:18:38.011Z</time></trkpt><trkpt lat="40.0972612" lon="9.5453262"><ele>717.0</ele><time>2026-04-06T15:18:39.011Z</time></trkpt><trkpt lat="40.0971966" lon="9.5452002"><ele>717.0</ele><time>2026-04-06T15:18:40.011Z</time></trkpt><trkpt lat="40.0971202" lon="9.5450946"><ele>717.0</ele><time>2026-04-06T15:18:41.011Z</time></trkpt><trkpt lat="40.09704" lon="9.5450027"><ele>717.0</ele><time>2026-04-06T15:18:42.011Z</time></trkpt><trkpt lat="40.0969571" lon="9.544905"><ele>717.0</ele><time>2026-04-06T15:18:43.011Z</time></trkpt><trkpt lat="40.0968908" lon="9.544792"><ele>717.0</ele><time>2026-04-06T15:18:44.01Z</time></trkpt><trkpt lat="40.0968595" lon="9.5446596"><ele>717.6</ele><time>2026-04-06T15:18:45.011Z</time></trkpt><trkpt lat="40.096862" lon="9.5445201"><ele>718.2</ele><time>2026-04-06T15:18:46.01Z</time></trkpt><trkpt lat="40.0968934" lon="9.5443852"><ele>718.8</ele><time>2026-04-06T15:18:47.011Z</time></trkpt><trkpt lat="40.0969313" lon="9.5442439"><ele>719.4</ele><time>2026-04-06T15:18:48.011Z</time></trkpt><trkpt lat="40.0969707" lon="9.544099"><ele>720.0</ele><time>2026-04-06T15:18:49.011Z</time></trkpt><trkpt lat="40.0969951" lon="9.543946"><ele>720.0</ele><time>2026-04-06T15:18:50.011Z</time></trkpt><trkpt lat="40.0970066" lon="9.5437801"><ele>720.0</ele><time>2026-04-06T15:18:51.011Z</time></trkpt><trkpt lat="40.0970132" lon="9.5436076"><ele>720.0</ele><time>2026-04-06T15:18:52.011Z</time></trkpt><trkpt lat="40.0970085" lon="9.5434334"><ele>720.0</ele><time>2026-04-06T15:18:53.011Z</time></trkpt><trkpt lat="40.0970074" lon="9.5432523"><ele>721.75</ele><time>2026-04-06T15:18:54.011Z</time></trkpt><trkpt lat="40.0969982" lon="9.5430689"><ele>723.5</ele><time>2026-04-06T15:18:55.01Z</time></trkpt><trkpt lat="40.0969922" lon="9.5428848"><ele>725.25</ele><time>2026-04-06T15:18:56.011Z</time></trkpt><trkpt lat="40.0969866" lon="9.5427003"><ele>727.0</ele><time>2026-04-06T15:18:57.01Z</time></trkpt><trkpt lat="40.0969804" lon="9.5425126"><ele>727.0</ele><time>2026-04-06T15:18:58.011Z</time></trkpt><trkpt lat="40.096971" lon="9.542323"><ele>727.0</ele><time>2026-04-06T15:18:59.011Z</time></trkpt><trkpt lat="40.0969605" lon="9.5421356"><ele>727.0</ele><time>2026-04-06T15:19:00.01Z</time></trkpt><trkpt lat="40.096958" lon="9.5419459"><ele>727.0</ele><time>2026-04-06T15:19:01.011Z</time></trkpt><trkpt lat="40.0969692" lon="9.5417636"><ele>726.75</ele><time>2026-04-06T15:19:02.011Z</time></trkpt><trkpt lat="40.0969873" lon="9.5415763"><ele>726.5</ele><time>2026-04-06T15:19:03.011Z</time></trkpt><trkpt lat="40.0970294" lon="9.5414002"><ele>726.25</ele><time>2026-04-06T15:19:04.011Z</time></trkpt><trkpt lat="40.0970826" lon="9.5412322"><ele>726.0</ele><time>2026-04-06T15:19:05.011Z</time></trkpt><trkpt lat="40.097135" lon="9.5410667"><ele>725.5</ele><time>2026-04-06T15:19:06.01Z</time></trkpt><trkpt lat="40.0971793" lon="9.5408966"><ele>725.0</ele><time>2026-04-06T15:19:07.011Z</time></trkpt><trkpt lat="40.0972082" lon="9.5407205"><ele>724.5</ele><time>2026-04-06T15:19:08.011Z</time></trkpt><trkpt lat="40.0972248" lon="9.5405379"><ele>724.0</ele><time>2026-04-06T15:19:09.011Z</time></trkpt><trkpt lat="40.0972369" lon="9.5403534"><ele>723.75</ele><time>2026-04-06T15:19:10.011Z</time></trkpt><trkpt lat="40.0972404" lon="9.5401741"><ele>723.5</ele><time>2026-04-06T15:19:11.011Z</time></trkpt><trkpt lat="40.0972191" lon="9.5400032"><ele>723.25</ele><time>2026-04-06T15:19:12.011Z</time></trkpt><trkpt lat="40.0971695" lon="9.5398478"><ele>723.0</ele><time>2026-04-06T15:19:13.011Z</time></trkpt><trkpt lat="40.0970932" lon="9.539711"><ele>723.0</ele><time>2026-04-06T15:19:14.011Z</time></trkpt><trkpt lat="40.0969919" lon="9.5396043"><ele>723.0</ele><time>2026-04-06T15:19:15.011Z</time></trkpt><trkpt lat="40.0968748" lon="9.5395461"><ele>723.0</ele><time>2026-04-06T15:19:16.011Z</time></trkpt><trkpt lat="40.0967449" lon="9.5395271"><ele>723.0</ele><time>2026-04-06T15:19:17.011Z</time></trkpt><trkpt lat="40.0966088" lon="9.5395472"><ele>722.25</ele><time>2026-04-06T15:19:18.011Z</time></trkpt><trkpt lat="40.0964757" lon="9.5395832"><ele>721.5</ele><time>2026-04-06T15:19:19.011Z</time></trkpt><trkpt lat="40.0963467" lon="9.5396179"><ele>720.75</ele><time>2026-04-06T15:19:20.011Z</time></trkpt><trkpt lat="40.0962222" lon="9.5396411"><ele>720.0</ele><time>2026-04-06T15:19:21.011Z</time></trkpt><trkpt lat="40.0961062" lon="9.5396289"><ele>720.0</ele><time>2026-04-06T15:19:22.011Z</time></trkpt><trkpt lat="40.0960074" lon="9.5395697"><ele>720.0</ele><time>2026-04-06T15:19:23.011Z</time></trkpt><trkpt lat="40.0959141" lon="9.539469"><ele>720.0</ele><time>2026-04-06T15:19:24.011Z</time></trkpt><trkpt lat="40.0958243" lon="9.5393618"><ele>720.0</ele><time>2026-04-06T15:19:25.01Z</time></trkpt><trkpt lat="40.0957406" lon="9.5392592"><ele>720.2</ele><time>2026-04-06T15:19:26.011Z</time></trkpt><trkpt lat="40.0956613" lon="9.539162"><ele>720.4</ele><time>2026-04-06T15:19:27.01Z</time></trkpt><trkpt lat="40.0955886" lon="9.5390701"><ele>720.5999999999999</ele><time>2026-04-06T15:19:28.011Z</time></trkpt><trkpt lat="40.0955178" lon="9.5389777"><ele>720.8</ele><time>2026-04-06T15:19:29.011Z</time></trkpt><trkpt lat="40.0954519" lon="9.538884"><ele>721.0</ele><time>2026-04-06T15:19:30.011Z</time></trkpt><trkpt lat="40.095379" lon="9.5387939"><ele>721.4</ele><time>2026-04-06T15:19:31.011Z</time></trkpt><trkpt lat="40.0952996" lon="9.5387037"><ele>721.8</ele><time>2026-04-06T15:19:32.011Z</time></trkpt><trkpt lat="40.0952248" lon="9.5386087"><ele>722.1999999999999</ele><time>2026-04-06T15:19:33.011Z</time></trkpt><trkpt lat="40.0951512" lon="9.5385111"><ele>722.5999999999999</ele><time>2026-04-06T15:19:34.011Z</time></trkpt><trkpt lat="40.0950722" lon="9.5384167"><ele>723.0</ele><time>2026-04-06T15:19:35.011Z</time></trkpt><trkpt lat="40.0949968" lon="9.5383153"><ele>723.0</ele><time>2026-04-06T15:19:36.01Z</time></trkpt><trkpt lat="40.0949215" lon="9.5382085"><ele>723.0</ele><time>2026-04-06T15:19:37.011Z</time></trkpt><trkpt lat="40.0948528" lon="9.5380947"><ele>723.0</ele><time>2026-04-06T15:19:38.011Z</time></trkpt><trkpt lat="40.0947906" lon="9.5379683"><ele>723.0</ele><time>2026-04-06T15:19:39.011Z</time></trkpt><trkpt lat="40.0947359" lon="9.5378363"><ele>722.5999999999999</ele><time>2026-04-06T15:19:40.011Z</time></trkpt><trkpt lat="40.0946966" lon="9.5376983"><ele>722.1999999999999</ele><time>2026-04-06T15:19:41.01Z</time></trkpt><trkpt lat="40.0946656" lon="9.5375592"><ele>721.8</ele><time>2026-04-06T15:19:42.011Z</time></trkpt><trkpt lat="40.0946423" lon="9.537415"><ele>721.4</ele><time>2026-04-06T15:19:43.011Z</time></trkpt><trkpt lat="40.0946279" lon="9.537273"><ele>721.0</ele><time>2026-04-06T15:19:44.011Z</time></trkpt><trkpt lat="40.0946257" lon="9.5371258"><ele>721.0</ele><time>2026-04-06T15:19:45.011Z</time></trkpt><trkpt lat="40.0946381" lon="9.53698"><ele>721.0</ele><time>2026-04-06T15:19:46.011Z</time></trkpt><trkpt lat="40.094662" lon="9.5368399"><ele>721.0</ele><time>2026-04-06T15:19:47.011Z</time></trkpt><trkpt lat="40.0946906" lon="9.5367047"><ele>721.0</ele><time>2026-04-06T15:19:48.011Z</time></trkpt><trkpt lat="40.0947233" lon="9.5365685"><ele>721.0</ele><time>2026-04-06T15:19:49.011Z</time></trkpt><trkpt lat="40.0947536" lon="9.5364344"><ele>721.0</ele><time>2026-04-06T15:19:50.011Z</time></trkpt><trkpt lat="40.0947862" lon="9.5362966"><ele>721.0</ele><time>2026-04-06T15:19:51.011Z</time></trkpt><trkpt lat="40.0948199" lon="9.5361578"><ele>721.0</ele><time>2026-04-06T15:19:52.011Z</time></trkpt><trkpt lat="40.0948517" lon="9.5360141"><ele>721.0</ele><time>2026-04-06T15:19:53.01Z</time></trkpt><trkpt lat="40.0948826" lon="9.5358712"><ele>721.0</ele><time>2026-04-06T15:19:54.011Z</time></trkpt><trkpt lat="40.0949179" lon="9.535721"><ele>721.0</ele><time>2026-04-06T15:19:55.01Z</time></trkpt><trkpt lat="40.0949503" lon="9.5355693"><ele>721.0</ele><time>2026-04-06T15:19:56.011Z</time></trkpt><trkpt lat="40.094987" lon="9.5354146"><ele>721.0</ele><time>2026-04-06T15:19:57.011Z</time></trkpt><trkpt lat="40.0950291" lon="9.5352594"><ele>721.5</ele><time>2026-04-06T15:19:58.01Z</time></trkpt><trkpt lat="40.0950687" lon="9.5351028"><ele>722.0</ele><time>2026-04-06T15:19:59.01Z</time></trkpt><trkpt lat="40.0951084" lon="9.5349469"><ele>722.5</ele><time>2026-04-06T15:20:00.011Z</time></trkpt><trkpt lat="40.0951539" lon="9.5347914"><ele>723.0</ele><time>2026-04-06T15:20:01.011Z</time></trkpt><trkpt lat="40.0952062" lon="9.5346357"><ele>723.75</ele><time>2026-04-06T15:20:02.011Z</time></trkpt><trkpt lat="40.0952852" lon="9.5344909"><ele>724.5</ele><time>2026-04-06T15:20:03.01Z</time></trkpt><trkpt lat="40.0953919" lon="9.5343749"><ele>725.25</ele><time>2026-04-06T15:20:04.01Z</time></trkpt><trkpt lat="40.0955152" lon="9.5342853"><ele>726.0</ele><time>2026-04-06T15:20:05.01Z</time></trkpt><trkpt lat="40.0956406" lon="9.5341915"><ele>726.0</ele><time>2026-04-06T15:20:06.011Z</time></trkpt><trkpt lat="40.0957679" lon="9.5341041"><ele>726.0</ele><time>2026-04-06T15:20:07.011Z</time></trkpt><trkpt lat="40.095901" lon="9.5340163"><ele>726.0</ele><time>2026-04-06T15:20:08.011Z</time></trkpt><trkpt lat="40.0960161" lon="9.5339244"><ele>726.0</ele><time>2026-04-06T15:20:09.011Z</time></trkpt><trkpt lat="40.0961131" lon="9.5338092"><ele>726.25</ele><time>2026-04-06T15:20:10.01Z</time></trkpt><trkpt lat="40.0961821" lon="9.5336637"><ele>726.5</ele><time>2026-04-06T15:20:11.011Z</time></trkpt><trkpt lat="40.0962244" lon="9.5334973"><ele>726.75</ele><time>2026-04-06T15:20:12.011Z</time></trkpt><trkpt lat="40.0962493" lon="9.5333168"><ele>727.0</ele><time>2026-04-06T15:20:13.01Z</time></trkpt><trkpt lat="40.0962537" lon="9.5331252"><ele>727.0</ele><time>2026-04-06T15:20:14.011Z</time></trkpt><trkpt lat="40.0962566" lon="9.5329252"><ele>727.0</ele><time>2026-04-06T15:20:15.011Z</time></trkpt><trkpt lat="40.0962664" lon="9.5327192"><ele>727.0</ele><time>2026-04-06T15:20:16.011Z</time></trkpt><trkpt lat="40.0962691" lon="9.5325089"><ele>726.3333333333334</ele><time>2026-04-06T15:20:17.01Z</time></trkpt><trkpt lat="40.0962732" lon="9.5322962"><ele>725.6666666666666</ele><time>2026-04-06T15:20:18.011Z</time></trkpt><trkpt lat="40.0962749" lon="9.5320948"><ele>725.0</ele><time>2026-04-06T15:20:19.011Z</time></trkpt><trkpt lat="40.0962716" lon="9.5318933"><ele>725.0</ele><time>2026-04-06T15:20:20.011Z</time></trkpt><trkpt lat="40.0962742" lon="9.5317024"><ele>725.0</ele><time>2026-04-06T15:20:21.011Z</time></trkpt><trkpt lat="40.0962749" lon="9.531506"><ele>725.0</ele><time>2026-04-06T15:20:22.011Z</time></trkpt><trkpt lat="40.0962772" lon="9.5313118"><ele>725.0</ele><time>2026-04-06T15:20:23.01Z</time></trkpt><trkpt lat="40.0962794" lon="9.5311201"><ele>725.0</ele><time>2026-04-06T15:20:24.011Z</time></trkpt><trkpt lat="40.0962955" lon="9.5309402"><ele>725.0</ele><time>2026-04-06T15:20:25.011Z</time></trkpt><trkpt lat="40.0963178" lon="9.530762"><ele>725.0</ele><time>2026-04-06T15:20:26.011Z</time></trkpt><trkpt lat="40.0963691" lon="9.5305954"><ele>725.0</ele><time>2026-04-06T15:20:27.011Z</time></trkpt><trkpt lat="40.0964543" lon="9.530458"><ele>723.75</ele><time>2026-04-06T15:20:28.011Z</time></trkpt><trkpt lat="40.0965582" lon="9.530347"><ele>722.5</ele><time>2026-04-06T15:20:29.011Z</time></trkpt><trkpt lat="40.0966841" lon="9.5302721"><ele>721.25</ele><time>2026-04-06T15:20:30.011Z</time></trkpt><trkpt lat="40.0968015" lon="9.5302068"><ele>720.0</ele><time>2026-04-06T15:20:31.011Z</time></trkpt><trkpt lat="40.0969644" lon="9.53023"><ele>724.0</ele><time>2026-04-06T15:20:32.01Z</time></trkpt><trkpt lat="40.0971206" lon="9.5302261"><ele>728.0</ele><time>2026-04-06T15:20:33.011Z</time></trkpt><trkpt lat="40.097282" lon="9.5302233"><ele>732.0</ele><time>2026-04-06T15:20:34.011Z</time></trkpt><trkpt lat="40.0974495" lon="9.5302081"><ele>734.3333333333334</ele><time>2026-04-06T15:20:35.01Z</time></trkpt><trkpt lat="40.0976204" lon="9.5301978"><ele>736.6666666666667</ele><time>2026-04-06T15:20:36.011Z</time></trkpt><trkpt lat="40.0977925" lon="9.530175"><ele>739.0</ele><time>2026-04-06T15:20:37.011Z</time></trkpt><trkpt lat="40.0979568" lon="9.5301297"><ele>739.0</ele><time>2026-04-06T15:20:38.011Z</time></trkpt><trkpt lat="40.0981208" lon="9.5300697"><ele>739.0</ele><time>2026-04-06T15:20:39.011Z</time></trkpt><trkpt lat="40.0982785" lon="9.529991"><ele>739.0</ele><time>2026-04-06T15:20:40.011Z</time></trkpt><trkpt lat="40.0984363" lon="9.5299049"><ele>739.3333333333334</ele><time>2026-04-06T15:20:41.01Z</time></trkpt><trkpt lat="40.0985825" lon="9.5298185"><ele>739.6666666666666</ele><time>2026-04-06T15:20:42.01Z</time></trkpt><trkpt lat="40.0987279" lon="9.5297314"><ele>740.0</ele><time>2026-04-06T15:20:43.011Z</time></trkpt><trkpt lat="40.0988739" lon="9.5296412"><ele>739.5</ele><time>2026-04-06T15:20:44.011Z</time></trkpt><trkpt lat="40.099011" lon="9.5295563"><ele>739.0</ele><time>2026-04-06T15:20:45.011Z</time></trkpt><trkpt lat="40.0991424" lon="9.5294738"><ele>738.5</ele><time>2026-04-06T15:20:46.01Z</time></trkpt><trkpt lat="40.0992692" lon="9.5293935"><ele>738.0</ele><time>2026-04-06T15:20:47.011Z</time></trkpt><trkpt lat="40.0993926" lon="9.5293203"><ele>739.5</ele><time>2026-04-06T15:20:48.011Z</time></trkpt><trkpt lat="40.0995086" lon="9.529243"><ele>741.0</ele><time>2026-04-06T15:20:49.01Z</time></trkpt><trkpt lat="40.0996303" lon="9.5291758"><ele>742.5</ele><time>2026-04-06T15:20:50.011Z</time></trkpt><trkpt lat="40.0997607" lon="9.5291253"><ele>744.0</ele><time>2026-04-06T15:20:51.011Z</time></trkpt><trkpt lat="40.0998981" lon="9.5290912"><ele>746.75</ele><time>2026-04-06T15:20:52.011Z</time></trkpt><trkpt lat="40.1000393" lon="9.5290601"><ele>749.5</ele><time>2026-04-06T15:20:53.01Z</time></trkpt><trkpt lat="40.1001857" lon="9.5290303"><ele>752.25</ele><time>2026-04-06T15:20:54.011Z</time></trkpt><trkpt lat="40.1003412" lon="9.5290053"><ele>755.0</ele><time>2026-04-06T15:20:55.011Z</time></trkpt><trkpt lat="40.1004948" lon="9.5289698"><ele>755.0</ele><time>2026-04-06T15:20:56.011Z</time></trkpt><trkpt lat="40.1006529" lon="9.5289219"><ele>755.0</ele><time>2026-04-06T15:20:57.01Z</time></trkpt><trkpt lat="40.1008118" lon="9.5288669"><ele>755.0</ele><time>2026-04-06T15:20:58.011Z</time></trkpt><trkpt lat="40.1009714" lon="9.5288155"><ele>752.6666666666666</ele><time>2026-04-06T15:20:59.011Z</time></trkpt><trkpt lat="40.1011241" lon="9.5287584"><ele>750.3333333333334</ele><time>2026-04-06T15:21:00.011Z</time></trkpt><trkpt lat="40.1012811" lon="9.5287068"><ele>748.0</ele><time>2026-04-06T15:21:01.011Z</time></trkpt><trkpt lat="40.1014374" lon="9.5286744"><ele>748.0</ele><time>2026-04-06T15:21:02.011Z</time></trkpt><trkpt lat="40.1015754" lon="9.5286741"><ele>748.0</ele><time>2026-04-06T15:21:03.011Z</time></trkpt><trkpt lat="40.1017061" lon="9.5286919"><ele>748.0</ele><time>2026-04-06T15:21:04.011Z</time></trkpt><trkpt lat="40.101791" lon="9.5288252"><ele>748.0</ele><time>2026-04-06T15:21:05.01Z</time></trkpt><trkpt lat="40.1018564" lon="9.5289601"><ele>753.25</ele><time>2026-04-06T15:21:06.011Z</time></trkpt><trkpt lat="40.1018766" lon="9.5291268"><ele>758.5</ele><time>2026-04-06T15:21:07.011Z</time></trkpt><trkpt lat="40.1018744" lon="9.5292932"><ele>763.75</ele><time>2026-04-06T15:21:08.011Z</time></trkpt><trkpt lat="40.1018743" lon="9.5294617"><ele>769.0</ele><time>2026-04-06T15:21:09.011Z</time></trkpt><trkpt lat="40.1018927" lon="9.5296263"><ele>770.5</ele><time>2026-04-06T15:21:10.011Z</time></trkpt><trkpt lat="40.1019395" lon="9.5297725"><ele>772.0</ele><time>2026-04-06T15:21:11.011Z</time></trkpt><trkpt lat="40.1020237" lon="9.5299009"><ele>773.5</ele><time>2026-04-06T15:21:12.011Z</time></trkpt><trkpt lat="40.1021345" lon="9.5299856"><ele>775.0</ele><time>2026-04-06T15:21:13.011Z</time></trkpt><trkpt lat="40.1022614" lon="9.5300391"><ele>775.0</ele><time>2026-04-06T15:21:14.011Z</time></trkpt><trkpt lat="40.102399" lon="9.5300721"><ele>775.0</ele><time>2026-04-06T15:21:15.01Z</time></trkpt><trkpt lat="40.1025474" lon="9.5301032"><ele>775.0</ele><time>2026-04-06T15:21:16.01Z</time></trkpt><trkpt lat="40.1027014" lon="9.5301419"><ele>775.0</ele><time>2026-04-06T15:21:17.01Z</time></trkpt><trkpt lat="40.1028589" lon="9.5301858"><ele>775.6666666666666</ele><time>2026-04-06T15:21:18.01Z</time></trkpt><trkpt lat="40.1030221" lon="9.5302239"><ele>776.3333333333333</ele><time>2026-04-06T15:21:19.011Z</time></trkpt><trkpt lat="40.1031783" lon="9.5302606"><ele>777.0</ele><time>2026-04-06T15:21:20.011Z</time></trkpt><trkpt lat="40.1033228" lon="9.530294"><ele>778.25</ele><time>2026-04-06T15:21:21.011Z</time></trkpt><trkpt lat="40.103457" lon="9.5303204"><ele>779.5</ele><time>2026-04-06T15:21:22.01Z</time></trkpt><trkpt lat="40.1035798" lon="9.5303238"><ele>780.75</ele><time>2026-04-06T15:21:23.01Z</time></trkpt><trkpt lat="40.103693" lon="9.5302879"><ele>782.0</ele><time>2026-04-06T15:21:24.01Z</time></trkpt><trkpt lat="40.1037951" lon="9.5302033"><ele>782.0</ele><time>2026-04-06T15:21:25.011Z</time></trkpt><trkpt lat="40.1038679" lon="9.530086"><ele>782.0</ele><time>2026-04-06T15:21:26.011Z</time></trkpt><trkpt lat="40.1039082" lon="9.5299419"><ele>782.0</ele><time>2026-04-06T15:21:27.011Z</time></trkpt><trkpt lat="40.1039354" lon="9.5297994"><ele>782.0</ele><time>2026-04-06T15:21:28.011Z</time></trkpt><trkpt lat="40.1039635" lon="9.5296733"><ele>782.0</ele><time>2026-04-06T15:21:29.01Z</time></trkpt><trkpt lat="40.1040149" lon="9.5295718"><ele>783.8</ele><time>2026-04-06T15:21:30.01Z</time></trkpt><trkpt lat="40.1040897" lon="9.5294992"><ele>785.6</ele><time>2026-04-06T15:21:31.011Z</time></trkpt><trkpt lat="40.1041809" lon="9.5294811"><ele>787.4</ele><time>2026-04-06T15:21:32.011Z</time></trkpt><trkpt lat="40.1042599" lon="9.5295235"><ele>789.1999999999999</ele><time>2026-04-06T15:21:33.011Z</time></trkpt><trkpt lat="40.1043079" lon="9.529634"><ele>791.0</ele><time>2026-04-06T15:21:34.01Z</time></trkpt><trkpt lat="40.1043239" lon="9.5297601"><ele>791.0</ele><time>2026-04-06T15:21:35.011Z</time></trkpt><trkpt lat="40.1043137" lon="9.529897"><ele>791.0</ele><time>2026-04-06T15:21:36.01Z</time></trkpt><trkpt lat="40.1042955" lon="9.5300223"><ele>791.0</ele><time>2026-04-06T15:21:37.011Z</time></trkpt><trkpt lat="40.1042803" lon="9.5301418"><ele>791.0</ele><time>2026-04-06T15:21:38.011Z</time></trkpt><trkpt lat="40.1042907" lon="9.530276"><ele>791.0</ele><time>2026-04-06T15:21:39.011Z</time></trkpt><trkpt lat="40.1043152" lon="9.5304042"><ele>789.8</ele><time>2026-04-06T15:21:40.01Z</time></trkpt><trkpt lat="40.1043701" lon="9.5305262"><ele>788.5999999999999</ele><time>2026-04-06T15:21:41.011Z</time></trkpt><trkpt lat="40.1044547" lon="9.5306147"><ele>787.4</ele><time>2026-04-06T15:21:42.011Z</time></trkpt><trkpt lat="40.1045605" lon="9.5306354"><ele>786.2</ele><time>2026-04-06T15:21:43.011Z</time></trkpt><trkpt lat="40.1046679" lon="9.5306005"><ele>785.0</ele><time>2026-04-06T15:21:44.011Z</time></trkpt><trkpt lat="40.1047496" lon="9.5305178"><ele>786.5</ele><time>2026-04-06T15:21:45.011Z</time></trkpt><trkpt lat="40.1047813" lon="9.530363"><ele>788.0</ele><time>2026-04-06T15:21:46.01Z</time></trkpt><trkpt lat="40.1047828" lon="9.5302036"><ele>789.5</ele><time>2026-04-06T15:21:47.011Z</time></trkpt><trkpt lat="40.1047576" lon="9.5300273"><ele>791.0</ele><time>2026-04-06T15:21:48.011Z</time></trkpt><trkpt lat="40.1047276" lon="9.5298478"><ele>791.0</ele><time>2026-04-06T15:21:49.01Z</time></trkpt><trkpt lat="40.1046905" lon="9.5296632"><ele>791.0</ele><time>2026-04-06T15:21:50.01Z</time></trkpt><trkpt lat="40.1046517" lon="9.5294674"><ele>791.0</ele><time>2026-04-06T15:21:51.011Z</time></trkpt><trkpt lat="40.1046091" lon="9.5292692"><ele>791.6666666666667</ele><time>2026-04-06T15:21:52.011Z</time></trkpt><trkpt lat="40.1045699" lon="9.5290654"><ele>792.3333333333333</ele><time>2026-04-06T15:21:53.01Z</time></trkpt><trkpt lat="40.1045328" lon="9.5288569"><ele>793.0</ele><time>2026-04-06T15:21:54.011Z</time></trkpt><trkpt lat="40.1044948" lon="9.5286595"><ele>793.6666666666666</ele><time>2026-04-06T15:21:55.011Z</time></trkpt><trkpt lat="40.1044899" lon="9.5284624"><ele>794.3333333333333</ele><time>2026-04-06T15:21:56.011Z</time></trkpt><trkpt lat="40.1045142" lon="9.5282639"><ele>795.0</ele><time>2026-04-06T15:21:57.011Z</time></trkpt><trkpt lat="40.1045581" lon="9.5280701"><ele>793.3333333333333</ele><time>2026-04-06T15:21:58.011Z</time></trkpt><trkpt lat="40.1046121" lon="9.5278789"><ele>791.6666666666666</ele><time>2026-04-06T15:21:59.011Z</time></trkpt><trkpt lat="40.1046879" lon="9.5276981"><ele>790.0</ele><time>2026-04-06T15:22:00.01Z</time></trkpt><trkpt lat="40.1047895" lon="9.5275374"><ele>790.0</ele><time>2026-04-06T15:22:01.011Z</time></trkpt><trkpt lat="40.1049089" lon="9.527397"><ele>790.0</ele><time>2026-04-06T15:22:02.011Z</time></trkpt><trkpt lat="40.1050351" lon="9.5272806"><ele>790.0</ele><time>2026-04-06T15:22:03.011Z</time></trkpt><trkpt lat="40.1051711" lon="9.5271792"><ele>793.0</ele><time>2026-04-06T15:22:04.01Z</time></trkpt><trkpt lat="40.1053184" lon="9.5270977"><ele>796.0</ele><time>2026-04-06T15:22:05.011Z</time></trkpt><trkpt lat="40.1054726" lon="9.5270361"><ele>799.0</ele><time>2026-04-06T15:22:06.011Z</time></trkpt><trkpt lat="40.1056258" lon="9.5269977"><ele>805.0</ele><time>2026-04-06T15:22:07.011Z</time></trkpt><trkpt lat="40.1057754" lon="9.5269653"><ele>811.0</ele><time>2026-04-06T15:22:08.01Z</time></trkpt><trkpt lat="40.1059235" lon="9.5269398"><ele>817.0</ele><time>2026-04-06T15:22:09.011Z</time></trkpt><trkpt lat="40.1060699" lon="9.5269023"><ele>817.0</ele><time>2026-04-06T15:22:10.01Z</time></trkpt><trkpt lat="40.1061983" lon="9.5268065"><ele>817.0</ele><time>2026-04-06T15:22:11.01Z</time></trkpt><trkpt lat="40.1063144" lon="9.5266914"><ele>817.0</ele><time>2026-04-06T15:22:12.01Z</time></trkpt><trkpt lat="40.1064144" lon="9.5265527"><ele>817.0</ele><time>2026-04-06T15:22:13.011Z</time></trkpt><trkpt lat="40.1064884" lon="9.5263914"><ele>815.75</ele><time>2026-04-06T15:22:14.011Z</time></trkpt><trkpt lat="40.1065299" lon="9.5262254"><ele>814.5</ele><time>2026-04-06T15:22:15.011Z</time></trkpt><trkpt lat="40.1065523" lon="9.5260369"><ele>813.25</ele><time>2026-04-06T15:22:16.011Z</time></trkpt><trkpt lat="40.1065388" lon="9.5258404"><ele>812.0</ele><time>2026-04-06T15:22:17.011Z</time></trkpt><trkpt lat="40.1065046" lon="9.5256489"><ele>812.0</ele><time>2026-04-06T15:22:18.011Z</time></trkpt><trkpt lat="40.1064364" lon="9.5254712"><ele>812.0</ele><time>2026-04-06T15:22:19.011Z</time></trkpt><trkpt lat="40.1063558" lon="9.5253064"><ele>812.0</ele><time>2026-04-06T15:22:20.011Z</time></trkpt><trkpt lat="40.1062676" lon="9.525162"><ele>812.0</ele><time>2026-04-06T15:22:21.01Z</time></trkpt><trkpt lat="40.1061708" lon="9.5250416"><ele>816.75</ele><time>2026-04-06T15:22:22.01Z</time></trkpt><trkpt lat="40.1060403" lon="9.5249708"><ele>821.5</ele><time>2026-04-06T15:22:23.011Z</time></trkpt><trkpt lat="40.1058938" lon="9.5249343"><ele>826.25</ele><time>2026-04-06T15:22:24.011Z</time></trkpt><trkpt lat="40.1057426" lon="9.5249148"><ele>831.0</ele><time>2026-04-06T15:22:25.011Z</time></trkpt><trkpt lat="40.105582" lon="9.5248981"><ele>831.0</ele><time>2026-04-06T15:22:26.011Z</time></trkpt><trkpt lat="40.1054274" lon="9.5248803"><ele>831.0</ele><time>2026-04-06T15:22:27.011Z</time></trkpt><trkpt lat="40.1052775" lon="9.5248724"><ele>831.0</ele><time>2026-04-06T15:22:28.011Z</time></trkpt><trkpt lat="40.1051425" lon="9.5248502"><ele>831.0</ele><time>2026-04-06T15:22:29.011Z</time></trkpt><trkpt lat="40.1050248" lon="9.5247981"><ele>831.0</ele><time>2026-04-06T15:22:30.011Z</time></trkpt><trkpt lat="40.1049369" lon="9.5246987"><ele>831.0</ele><time>2026-04-06T15:22:31.01Z</time></trkpt><trkpt lat="40.1048777" lon="9.5245692"><ele>831.0</ele><time>2026-04-06T15:22:32.011Z</time></trkpt><trkpt lat="40.1048579" lon="9.5244229"><ele>831.0</ele><time>2026-04-06T15:22:33.011Z</time></trkpt><trkpt lat="40.1048884" lon="9.5242733"><ele>833.0</ele><time>2026-04-06T15:22:34.011Z</time></trkpt><trkpt lat="40.1049344" lon="9.5241263"><ele>835.0</ele><time>2026-04-06T15:22:35.011Z</time></trkpt><trkpt lat="40.1050002" lon="9.5239742"><ele>837.0</ele><time>2026-04-06T15:22:36.011Z</time></trkpt><trkpt lat="40.1050962" lon="9.5238421"><ele>839.0</ele><time>2026-04-06T15:22:37.01Z</time></trkpt><trkpt lat="40.1052056" lon="9.5237404"><ele>834.0</ele><time>2026-04-06T15:22:38.011Z</time></trkpt><trkpt lat="40.1053299" lon="9.5236407"><ele>829.0</ele><time>2026-04-06T15:22:39.011Z</time></trkpt><trkpt lat="40.1054593" lon="9.5235416"><ele>824.0</ele><time>2026-04-06T15:22:40.01Z</time></trkpt><trkpt lat="40.1055961" lon="9.5234377"><ele>824.0</ele><time>2026-04-06T15:22:41.011Z</time></trkpt><trkpt lat="40.1057361" lon="9.5233301"><ele>824.0</ele><time>2026-04-06T15:22:42.01Z</time></trkpt><trkpt lat="40.1058715" lon="9.5232089"><ele>824.0</ele><time>2026-04-06T15:22:43.011Z</time></trkpt><trkpt lat="40.1059961" lon="9.5230669"><ele>826.0</ele><time>2026-04-06T15:22:44.011Z</time></trkpt><trkpt lat="40.1061204" lon="9.5229229"><ele>828.0</ele><time>2026-04-06T15:22:45.011Z</time></trkpt><trkpt lat="40.1062369" lon="9.522765"><ele>830.0</ele><time>2026-04-06T15:22:46.011Z</time></trkpt><trkpt lat="40.1063365" lon="9.522588"><ele>830.0</ele><time>2026-04-06T15:22:47.011Z</time></trkpt><trkpt lat="40.1064135" lon="9.5224035"><ele>830.0</ele><time>2026-04-06T15:22:48.011Z</time></trkpt><trkpt lat="40.1064787" lon="9.5222365"><ele>830.0</ele><time>2026-04-06T15:22:49.011Z</time></trkpt><trkpt lat="40.1065446" lon="9.5220731"><ele>830.0</ele><time>2026-04-06T15:22:50.01Z</time></trkpt><trkpt lat="40.1066244" lon="9.5219161"><ele>836.0</ele><time>2026-04-06T15:22:51.011Z</time></trkpt><trkpt lat="40.1067101" lon="9.5217631"><ele>842.0</ele><time>2026-04-06T15:22:52.011Z</time></trkpt><trkpt lat="40.1068283" lon="9.521643"><ele>848.0</ele><time>2026-04-06T15:22:53.011Z</time></trkpt><trkpt lat="40.1069262" lon="9.5215141"><ele>854.0</ele><time>2026-04-06T15:22:54.011Z</time></trkpt><trkpt lat="40.1070135" lon="9.5213944"><ele>854.0</ele><time>2026-04-06T15:22:55.011Z</time></trkpt><trkpt lat="40.1070917" lon="9.5212881"><ele>854.0000000000001</ele><time>2026-04-06T15:22:56.01Z</time></trkpt><trkpt lat="40.1071567" lon="9.5211913"><ele>854.0000000000001</ele><time>2026-04-06T15:22:57.01Z</time></trkpt><trkpt lat="40.1072213" lon="9.5211263"><ele>854.0</ele><time>2026-04-06T15:22:58.011Z</time></trkpt><trkpt lat="40.1072779" lon="9.5210578"><ele>854.0</ele><time>2026-04-06T15:22:59.011Z</time></trkpt><trkpt lat="40.1073401" lon="9.5209866"><ele>855.75</ele><time>2026-04-06T15:23:00.011Z</time></trkpt><trkpt lat="40.1074075" lon="9.5209203"><ele>857.5</ele><time>2026-04-06T15:23:01.01Z</time></trkpt><trkpt lat="40.107496" lon="9.520849"><ele>859.25</ele><time>2026-04-06T15:23:02.011Z</time></trkpt><trkpt lat="40.1076149" lon="9.52078"><ele>861.0</ele><time>2026-04-06T15:23:03.01Z</time></trkpt><trkpt lat="40.1077548" lon="9.5207266"><ele>861.0</ele><time>2026-04-06T15:23:04.01Z</time></trkpt><trkpt lat="40.1079105" lon="9.5206835"><ele>861.0</ele><time>2026-04-06T15:23:05.01Z</time></trkpt><trkpt lat="40.1080659" lon="9.5206344"><ele>861.0</ele><time>2026-04-06T15:23:06.011Z</time></trkpt><trkpt lat="40.1082086" lon="9.5205492"><ele>858.6666666666667</ele><time>2026-04-06T15:23:07.011Z</time></trkpt><trkpt lat="40.1083388" lon="9.5204188"><ele>856.3333333333334</ele><time>2026-04-06T15:23:08.01Z</time></trkpt><trkpt lat="40.1084659" lon="9.5202645"><ele>854.0</ele><time>2026-04-06T15:23:09.011Z</time></trkpt><trkpt lat="40.1085987" lon="9.5201024"><ele>854.0</ele><time>2026-04-06T15:23:10.011Z</time></trkpt><trkpt lat="40.1087355" lon="9.5199407"><ele>854.0</ele><time>2026-04-06T15:23:11.011Z</time></trkpt><trkpt lat="40.1088704" lon="9.5197789"><ele>854.0</ele><time>2026-04-06T15:23:12.011Z</time></trkpt><trkpt lat="40.1090098" lon="9.5196187"><ele>857.6666666666667</ele><time>2026-04-06T15:23:13.011Z</time></trkpt><trkpt lat="40.1091496" lon="9.5194645"><ele>861.3333333333333</ele><time>2026-04-06T15:23:14.01Z</time></trkpt><trkpt lat="40.1092976" lon="9.5193167"><ele>865.0</ele><time>2026-04-06T15:23:15.011Z</time></trkpt><trkpt lat="40.1094536" lon="9.5191867"><ele>865.0</ele><time>2026-04-06T15:23:16.011Z</time></trkpt><trkpt lat="40.109619" lon="9.5190831"><ele>865.0</ele><time>2026-04-06T15:23:17.011Z</time></trkpt><trkpt lat="40.1097831" lon="9.5189996"><ele>865.0</ele><time>2026-04-06T15:23:18.011Z</time></trkpt><trkpt lat="40.1099321" lon="9.5189088"><ele>865.6666666666666</ele><time>2026-04-06T15:23:19.011Z</time></trkpt><trkpt lat="40.1100774" lon="9.5187997"><ele>866.3333333333333</ele><time>2026-04-06T15:23:20.011Z</time></trkpt><trkpt lat="40.110218" lon="9.518668"><ele>867.0</ele><time>2026-04-06T15:23:21.011Z</time></trkpt><trkpt lat="40.1103588" lon="9.5185306"><ele>867.0</ele><time>2026-04-06T15:23:22.011Z</time></trkpt><trkpt lat="40.1104934" lon="9.5183916"><ele>867.0</ele><time>2026-04-06T15:23:23.01Z</time></trkpt><trkpt lat="40.1106028" lon="9.5182412"><ele>867.0</ele><time>2026-04-06T15:23:24.011Z</time></trkpt><trkpt lat="40.1106849" lon="9.5180478"><ele>862.0</ele><time>2026-04-06T15:23:25.01Z</time></trkpt><trkpt lat="40.1107335" lon="9.5178511"><ele>857.0</ele><time>2026-04-06T15:23:26.011Z</time></trkpt><trkpt lat="40.1107736" lon="9.5176678"><ele>852.0</ele><time>2026-04-06T15:23:27.01Z</time></trkpt><trkpt lat="40.1108143" lon="9.517485"><ele>847.0</ele><time>2026-04-06T15:23:28.01Z</time></trkpt><trkpt lat="40.1108709" lon="9.5173108"><ele>854.25</ele><time>2026-04-06T15:23:29.011Z</time></trkpt><trkpt lat="40.1109534" lon="9.5171416"><ele>861.5</ele><time>2026-04-06T15:23:30.011Z</time></trkpt><trkpt lat="40.1110515" lon="9.5170049"><ele>868.75</ele><time>2026-04-06T15:23:31.011Z</time></trkpt><trkpt lat="40.1111526" lon="9.5169"><ele>876.0</ele><time>2026-04-06T15:23:32.011Z</time></trkpt><trkpt lat="40.1112354" lon="9.516768"><ele>876.0</ele><time>2026-04-06T15:23:33.011Z</time></trkpt><trkpt lat="40.1113016" lon="9.5165972"><ele>876.0</ele><time>2026-04-06T15:23:34.01Z</time></trkpt><trkpt lat="40.1113598" lon="9.5163999"><ele>876.0</ele><time>2026-04-06T15:23:35.011Z</time></trkpt><trkpt lat="40.111426" lon="9.5161926"><ele>873.3333333333333</ele><time>2026-04-06T15:23:36.011Z</time></trkpt><trkpt lat="40.1115122" lon="9.5159887"><ele>870.6666666666666</ele><time>2026-04-06T15:23:37.011Z</time></trkpt><trkpt lat="40.1116104" lon="9.5157903"><ele>868.0</ele><time>2026-04-06T15:23:38.011Z</time></trkpt><trkpt lat="40.1117144" lon="9.5156174"><ele>875.5</ele><time>2026-04-06T15:23:39.01Z</time></trkpt><trkpt lat="40.1118122" lon="9.5154573"><ele>883.0</ele><time>2026-04-06T15:23:40.011Z</time></trkpt><trkpt lat="40.1119014" lon="9.515312"><ele>890.5</ele><time>2026-04-06T15:23:41.011Z</time></trkpt><trkpt lat="40.1119829" lon="9.5151739"><ele>898.0</ele><time>2026-04-06T15:23:42.011Z</time></trkpt><trkpt lat="40.1120692" lon="9.515041"><ele>898.0</ele><time>2026-04-06T15:23:43.011Z</time></trkpt><trkpt lat="40.1121602" lon="9.514917"><ele>898.0</ele><time>2026-04-06T15:23:44.011Z</time></trkpt><trkpt lat="40.1122567" lon="9.514805"><ele>898.0</ele><time>2026-04-06T15:23:45.011Z</time></trkpt><trkpt lat="40.1123539" lon="9.5147209"><ele>898.0</ele><time>2026-04-06T15:23:46.011Z</time></trkpt><trkpt lat="40.1124431" lon="9.5146284"><ele>902.0</ele><time>2026-04-06T15:23:47.011Z</time></trkpt><trkpt lat="40.1125374" lon="9.5145299"><ele>906.0</ele><time>2026-04-06T15:23:48.01Z</time></trkpt><trkpt lat="40.112633" lon="9.5144286"><ele>910.0</ele><time>2026-04-06T15:23:49.01Z</time></trkpt><trkpt lat="40.1127314" lon="9.5143281"><ele>914.0</ele><time>2026-04-06T15:23:50.011Z</time></trkpt><trkpt lat="40.1128422" lon="9.5142225"><ele>914.0</ele><time>2026-04-06T15:23:51.011Z</time></trkpt><trkpt lat="40.1129605" lon="9.5141024"><ele>914.0</ele><time>2026-04-06T15:23:52.011Z</time></trkpt><trkpt lat="40.1130863" lon="9.5139719"><ele>914.0</ele><time>2026-04-06T15:23:53.011Z</time></trkpt><trkpt lat="40.1132151" lon="9.5138339"><ele>917.3333333333334</ele><time>2026-04-06T15:23:54.01Z</time></trkpt><trkpt lat="40.1133599" lon="9.5136964"><ele>920.6666666666667</ele><time>2026-04-06T15:23:55.011Z</time></trkpt><trkpt lat="40.1135152" lon="9.5135635"><ele>924.0</ele><time>2026-04-06T15:23:56.01Z</time></trkpt><trkpt lat="40.1136779" lon="9.5134403"><ele>924.0</ele><time>2026-04-06T15:23:57.011Z</time></trkpt><trkpt lat="40.1138562" lon="9.5133246"><ele>924.0</ele><time>2026-04-06T15:23:58.011Z</time></trkpt><trkpt lat="40.1140351" lon="9.5132091"><ele>924.0</ele><time>2026-04-06T15:23:59.01Z</time></trkpt><trkpt lat="40.1142101" lon="9.5131011"><ele>919.0</ele><time>2026-04-06T15:24:00.011Z</time></trkpt><trkpt lat="40.1143971" lon="9.5129969"><ele>914.0</ele><time>2026-04-06T15:24:01.011Z</time></trkpt><trkpt lat="40.1145856" lon="9.5128972"><ele>909.0</ele><time>2026-04-06T15:24:02.011Z</time></trkpt><trkpt lat="40.1147744" lon="9.5127931"><ele>914.6666666666667</ele><time>2026-04-06T15:24:03.01Z</time></trkpt><trkpt lat="40.1149676" lon="9.5126888"><ele>920.3333333333334</ele><time>2026-04-06T15:24:04.01Z</time></trkpt><trkpt lat="40.115159" lon="9.5125754"><ele>926.0</ele><time>2026-04-06T15:24:05.01Z</time></trkpt><trkpt lat="40.1153592" lon="9.5124723"><ele>926.0</ele><time>2026-04-06T15:24:06.011Z</time></trkpt><trkpt lat="40.115561" lon="9.5123912"><ele>926.0</ele><time>2026-04-06T15:24:07.011Z</time></trkpt><trkpt lat="40.11575" lon="9.5123282"><ele>926.0</ele><time>2026-04-06T15:24:08.011Z</time></trkpt><trkpt lat="40.1159313" lon="9.512268"><ele>921.6666666666667</ele><time>2026-04-06T15:24:09.011Z</time></trkpt><trkpt lat="40.1160968" lon="9.5122051"><ele>917.3333333333333</ele><time>2026-04-06T15:24:10.011Z</time></trkpt><trkpt lat="40.116242" lon="9.5121174"><ele>913.0</ele><time>2026-04-06T15:24:11.011Z</time></trkpt><trkpt lat="40.1163834" lon="9.5120126"><ele>921.0</ele><time>2026-04-06T15:24:12.011Z</time></trkpt><trkpt lat="40.1165433" lon="9.511953"><ele>929.0</ele><time>2026-04-06T15:24:13.01Z</time></trkpt><trkpt lat="40.1167123" lon="9.5119251"><ele>937.0</ele><time>2026-04-06T15:24:14.011Z</time></trkpt><trkpt lat="40.1168758" lon="9.5119014"><ele>937.0</ele><time>2026-04-06T15:24:15.011Z</time></trkpt><trkpt lat="40.1170351" lon="9.5118462"><ele>937.0</ele><time>2026-04-06T15:24:16.011Z</time></trkpt><trkpt lat="40.1171908" lon="9.5117662"><ele>937.0</ele><time>2026-04-06T15:24:17.01Z</time></trkpt><trkpt lat="40.1173479" lon="9.5116745"><ele>930.6666666666666</ele><time>2026-04-06T15:24:18.01Z</time></trkpt><trkpt lat="40.1175013" lon="9.5115742"><ele>924.3333333333333</ele><time>2026-04-06T15:24:19.011Z</time></trkpt><trkpt lat="40.1176478" lon="9.5114688"><ele>918.0</ele><time>2026-04-06T15:24:20.011Z</time></trkpt><trkpt lat="40.1177891" lon="9.5113631"><ele>918.0</ele><time>2026-04-06T15:24:21.011Z</time></trkpt><trkpt lat="40.1179191" lon="9.5112677"><ele>918.0</ele><time>2026-04-06T15:24:22.011Z</time></trkpt><trkpt lat="40.1180384" lon="9.5111745"><ele>918.0</ele><time>2026-04-06T15:24:23.01Z</time></trkpt><trkpt lat="40.1181528" lon="9.5110823"><ele>918.0</ele><time>2026-04-06T15:24:24.011Z</time></trkpt><trkpt lat="40.1182529" lon="9.5109776"><ele>920.0</ele><time>2026-04-06T15:24:25.011Z</time></trkpt><trkpt lat="40.1183465" lon="9.510861"><ele>922.0</ele><time>2026-04-06T15:24:26.011Z</time></trkpt><trkpt lat="40.1184371" lon="9.5107374"><ele>924.0</ele><time>2026-04-06T15:24:27.01Z</time></trkpt><trkpt lat="40.1185358" lon="9.5106155"><ele>926.0</ele><time>2026-04-06T15:24:28.011Z</time></trkpt><trkpt lat="40.1186394" lon="9.5104897"><ele>940.3333333333334</ele><time>2026-04-06T15:24:29.01Z</time></trkpt><trkpt lat="40.1187516" lon="9.5103665"><ele>954.6666666666667</ele><time>2026-04-06T15:24:30.011Z</time></trkpt><trkpt lat="40.1188766" lon="9.510254"><ele>969.0</ele><time>2026-04-06T15:24:31.011Z</time></trkpt><trkpt lat="40.1190127" lon="9.5101439"><ele>954.3333333333333</ele><time>2026-04-06T15:24:32.01Z</time></trkpt><trkpt lat="40.1191423" lon="9.5100428"><ele>939.6666666666666</ele><time>2026-04-06T15:24:33.011Z</time></trkpt><trkpt lat="40.1192738" lon="9.509938"><ele>925.0</ele><time>2026-04-06T15:24:34.011Z</time></trkpt><trkpt lat="40.1194022" lon="9.5098358"><ele>925.0</ele><time>2026-04-06T15:24:35.011Z</time></trkpt><trkpt lat="40.1195188" lon="9.5097641"><ele>925.0</ele><time>2026-04-06T15:24:36.011Z</time></trkpt><trkpt lat="40.1196425" lon="9.5097541"><ele>925.0</ele><time>2026-04-06T15:24:37.01Z</time></trkpt><trkpt lat="40.1197683" lon="9.5097927"><ele>925.0</ele><time>2026-04-06T15:24:38.011Z</time></trkpt><trkpt lat="40.1199116" lon="9.5097957"><ele>920.3333333333333</ele><time>2026-04-06T15:24:39.01Z</time></trkpt><trkpt lat="40.1200943" lon="9.5097686"><ele>915.6666666666667</ele><time>2026-04-06T15:24:40.011Z</time></trkpt><trkpt lat="40.1202817" lon="9.5097163"><ele>911.0</ele><time>2026-04-06T15:24:41.011Z</time></trkpt><trkpt lat="40.1204859" lon="9.5096746"><ele>911.0</ele><time>2026-04-06T15:24:42.011Z</time></trkpt><trkpt lat="40.120698" lon="9.5096534"><ele>911.0</ele><time>2026-04-06T15:24:43.01Z</time></trkpt><trkpt lat="40.1209161" lon="9.5096362"><ele>911.0</ele><time>2026-04-06T15:24:44.01Z</time></trkpt><trkpt lat="40.1211336" lon="9.5096044"><ele>939.5</ele><time>2026-04-06T15:24:45.011Z</time></trkpt><trkpt lat="40.1213597" lon="9.5095704"><ele>968.0</ele><time>2026-04-06T15:24:46.011Z</time></trkpt><trkpt lat="40.1215857" lon="9.5095546"><ele>968.3333333333334</ele><time>2026-04-06T15:24:47.011Z</time></trkpt><trkpt lat="40.121813" lon="9.5095551"><ele>968.6666666666667</ele><time>2026-04-06T15:24:48.011Z</time></trkpt><trkpt lat="40.1220261" lon="9.5095665"><ele>969.0</ele><time>2026-04-06T15:24:49.011Z</time></trkpt><trkpt lat="40.1222466" lon="9.5095624"><ele>966.5</ele><time>2026-04-06T15:24:50.011Z</time></trkpt><trkpt lat="40.1224717" lon="9.5095261"><ele>964.0</ele><time>2026-04-06T15:24:51.01Z</time></trkpt><trkpt lat="40.1226948" lon="9.5094759"><ele>964.0</ele><time>2026-04-06T15:24:52.01Z</time></trkpt><trkpt lat="40.1229155" lon="9.5094342"><ele>964.0</ele><time>2026-04-06T15:24:53.011Z</time></trkpt><trkpt lat="40.1231349" lon="9.5094072"><ele>964.0</ele><time>2026-04-06T15:24:54.011Z</time></trkpt><trkpt lat="40.1233577" lon="9.5093842"><ele>960.6666666666666</ele><time>2026-04-06T15:24:55.011Z</time></trkpt><trkpt lat="40.1235724" lon="9.509343"><ele>957.3333333333333</ele><time>2026-04-06T15:24:56.011Z</time></trkpt><trkpt lat="40.1237853" lon="9.5093034"><ele>954.0</ele><time>2026-04-06T15:24:57.01Z</time></trkpt><trkpt lat="40.1239939" lon="9.5092594"><ele>950.6666666666667</ele><time>2026-04-06T15:24:58.01Z</time></trkpt><trkpt lat="40.1241942" lon="9.5092078"><ele>947.3333333333334</ele><time>2026-04-06T15:24:59.011Z</time></trkpt><trkpt lat="40.1243936" lon="9.5091327"><ele>944.0</ele><time>2026-04-06T15:25:00.011Z</time></trkpt><trkpt lat="40.1245835" lon="9.5090316"><ele>944.0</ele><time>2026-04-06T15:25:01.011Z</time></trkpt><trkpt lat="40.1247686" lon="9.5089259"><ele>944.0</ele><time>2026-04-06T15:25:02.011Z</time></trkpt><trkpt lat="40.1249493" lon="9.5088386"><ele>944.0</ele><time>2026-04-06T15:25:03.011Z</time></trkpt><trkpt lat="40.125118" lon="9.5087788"><ele>938.75</ele><time>2026-04-06T15:25:04.011Z</time></trkpt><trkpt lat="40.1252778" lon="9.5087544"><ele>933.5</ele><time>2026-04-06T15:25:05.011Z</time></trkpt><trkpt lat="40.1254254" lon="9.508767"><ele>928.25</ele><time>2026-04-06T15:25:06.011Z</time></trkpt><trkpt lat="40.1255626" lon="9.508744"><ele>923.0</ele><time>2026-04-06T15:25:07.011Z</time></trkpt><trkpt lat="40.1257045" lon="9.5086938"><ele>934.25</ele><time>2026-04-06T15:25:08.011Z</time></trkpt><trkpt lat="40.1258382" lon="9.5086499"><ele>945.5</ele><time>2026-04-06T15:25:09.011Z</time></trkpt><trkpt lat="40.1259829" lon="9.5086035"><ele>956.75</ele><time>2026-04-06T15:25:10.011Z</time></trkpt><trkpt lat="40.1261262" lon="9.5085476"><ele>968.0</ele><time>2026-04-06T15:25:11.011Z</time></trkpt><trkpt lat="40.1262709" lon="9.5084839"><ele>968.0</ele><time>2026-04-06T15:25:12.011Z</time></trkpt><trkpt lat="40.1264243" lon="9.508438"><ele>968.0</ele><time>2026-04-06T15:25:13.011Z</time></trkpt><trkpt lat="40.1265815" lon="9.5083859"><ele>968.0</ele><time>2026-04-06T15:25:14.01Z</time></trkpt><trkpt lat="40.1267361" lon="9.5083197"><ele>963.3333333333334</ele><time>2026-04-06T15:25:15.01Z</time></trkpt><trkpt lat="40.1268876" lon="9.5082465"><ele>958.6666666666667</ele><time>2026-04-06T15:25:16.011Z</time></trkpt><trkpt lat="40.1270468" lon="9.5081688"><ele>954.0</ele><time>2026-04-06T15:25:17.01Z</time></trkpt><trkpt lat="40.1272174" lon="9.5081036"><ele>954.0</ele><time>2026-04-06T15:25:18.01Z</time></trkpt><trkpt lat="40.1273859" lon="9.5080453"><ele>954.0</ele><time>2026-04-06T15:25:19.01Z</time></trkpt><trkpt lat="40.1275591" lon="9.5079886"><ele>954.0</ele><time>2026-04-06T15:25:20.011Z</time></trkpt><trkpt lat="40.1277369" lon="9.5079286"><ele>960.0</ele><time>2026-04-06T15:25:21.011Z</time></trkpt><trkpt lat="40.1279143" lon="9.5078674"><ele>966.0</ele><time>2026-04-06T15:25:22.011Z</time></trkpt><trkpt lat="40.1280958" lon="9.5078102"><ele>972.0</ele><time>2026-04-06T15:25:23.011Z</time></trkpt><trkpt lat="40.1282788" lon="9.5077682"><ele>972.0</ele><time>2026-04-06T15:25:24.01Z</time></trkpt><trkpt lat="40.12846" lon="9.5077422"><ele>972.0</ele><time>2026-04-06T15:25:25.01Z</time></trkpt><trkpt lat="40.1286363" lon="9.507718"><ele>972.0</ele><time>2026-04-06T15:25:26.011Z</time></trkpt><trkpt lat="40.1288042" lon="9.5076463"><ele>972.0</ele><time>2026-04-06T15:25:27.01Z</time></trkpt><trkpt lat="40.1289593" lon="9.5075517"><ele>972.0</ele><time>2026-04-06T15:25:28.01Z</time></trkpt><trkpt lat="40.1291321" lon="9.507495"><ele>972.0</ele><time>2026-04-06T15:25:29.01Z</time></trkpt><trkpt lat="40.1293101" lon="9.5074532"><ele>966.6666666666667</ele><time>2026-04-06T15:25:30.011Z</time></trkpt><trkpt lat="40.1294762" lon="9.5074022"><ele>961.3333333333334</ele><time>2026-04-06T15:25:31.011Z</time></trkpt><trkpt lat="40.1296434" lon="9.5073525"><ele>956.0</ele><time>2026-04-06T15:25:32.01Z</time></trkpt><trkpt lat="40.1298149" lon="9.5072969"><ele>951.3333333333334</ele><time>2026-04-06T15:25:33.01Z</time></trkpt><trkpt lat="40.129988" lon="9.5072476"><ele>946.6666666666667</ele><time>2026-04-06T15:25:34.011Z</time></trkpt><trkpt lat="40.1301624" lon="9.5071962"><ele>942.0</ele><time>2026-04-06T15:25:35.011Z</time></trkpt><trkpt lat="40.1303382" lon="9.5071554"><ele>942.0</ele><time>2026-04-06T15:25:36.011Z</time></trkpt><trkpt lat="40.1305251" lon="9.5071301"><ele>942.0</ele><time>2026-04-06T15:25:37.011Z</time></trkpt><trkpt lat="40.1307191" lon="9.5071108"><ele>942.0</ele><time>2026-04-06T15:25:38.011Z</time></trkpt><trkpt lat="40.1309117" lon="9.5071148"><ele>937.3333333333333</ele><time>2026-04-06T15:25:39.01Z</time></trkpt><trkpt lat="40.1311074" lon="9.5071072"><ele>932.6666666666666</ele><time>2026-04-06T15:25:40.01Z</time></trkpt><trkpt lat="40.1313066" lon="9.5070957"><ele>928.0</ele><time>2026-04-06T15:25:41.011Z</time></trkpt><trkpt lat="40.13151" lon="9.5070739"><ele>947.6666666666666</ele><time>2026-04-06T15:25:42.011Z</time></trkpt><trkpt lat="40.1317162" lon="9.5070144"><ele>967.3333333333333</ele><time>2026-04-06T15:25:43.01Z</time></trkpt><trkpt lat="40.1319358" lon="9.5069318"><ele>987.0</ele><time>2026-04-06T15:25:44.01Z</time></trkpt><trkpt lat="40.1321627" lon="9.5069051"><ele>987.0</ele><time>2026-04-06T15:25:45.01Z</time></trkpt><trkpt lat="40.1323896" lon="9.5067487"><ele>987.0</ele><time>2026-04-06T15:25:46.011Z</time></trkpt><trkpt lat="40.1326096" lon="9.5067334"><ele>982.6666666666667</ele><time>2026-04-06T15:25:47.01Z</time></trkpt><trkpt lat="40.1328205" lon="9.5067494"><ele>978.3333333333334</ele><time>2026-04-06T15:25:48.011Z</time></trkpt><trkpt lat="40.1330294" lon="9.5067153"><ele>974.0</ele><time>2026-04-06T15:25:49.01Z</time></trkpt><trkpt lat="40.1332364" lon="9.5067255"><ele>964.0</ele><time>2026-04-06T15:25:50.011Z</time></trkpt><trkpt lat="40.1334672" lon="9.5067119"><ele>954.0</ele><time>2026-04-06T15:25:51.01Z</time></trkpt><trkpt lat="40.1336995" lon="9.5067223"><ele>954.0</ele><time>2026-04-06T15:25:52.011Z</time></trkpt><trkpt lat="40.1339231" lon="9.5067453"><ele>954.0</ele><time>2026-04-06T15:25:53.011Z</time></trkpt><trkpt lat="40.1341421" lon="9.5068061"><ele>954.0</ele><time>2026-04-06T15:25:54.01Z</time></trkpt><trkpt lat="40.1343544" lon="9.5068765"><ele>955.6666666666667</ele><time>2026-04-06T15:25:55.011Z</time></trkpt><trkpt lat="40.1345618" lon="9.5069349"><ele>957.3333333333334</ele><time>2026-04-06T15:25:56.01Z</time></trkpt><trkpt lat="40.134763" lon="9.5069521"><ele>959.0</ele><time>2026-04-06T15:25:57.011Z</time></trkpt><trkpt lat="40.1349607" lon="9.506965"><ele>959.0</ele><time>2026-04-06T15:25:58.011Z</time></trkpt><trkpt lat="40.1351701" lon="9.5069231"><ele>959.0</ele><time>2026-04-06T15:25:59.011Z</time></trkpt><trkpt lat="40.1353728" lon="9.5068507"><ele>959.0</ele><time>2026-04-06T15:26:00.011Z</time></trkpt><trkpt lat="40.135572" lon="9.5067662"><ele>954.0</ele><time>2026-04-06T15:26:01.01Z</time></trkpt><trkpt lat="40.1357583" lon="9.5067446"><ele>949.0</ele><time>2026-04-06T15:26:02.011Z</time></trkpt><trkpt lat="40.135954" lon="9.5067142"><ele>944.0</ele><time>2026-04-06T15:26:03.011Z</time></trkpt><trkpt lat="40.1361472" lon="9.5066831"><ele>944.0</ele><time>2026-04-06T15:26:04.011Z</time></trkpt><trkpt lat="40.1363379" lon="9.5066418"><ele>944.0</ele><time>2026-04-06T15:26:05.011Z</time></trkpt><trkpt lat="40.1365504" lon="9.5065953"><ele>944.0</ele><time>2026-04-06T15:26:06.011Z</time></trkpt><trkpt lat="40.1367241" lon="9.5065464"><ele>941.0</ele><time>2026-04-06T15:26:07.01Z</time></trkpt><trkpt lat="40.1369155" lon="9.506513"><ele>938.0</ele><time>2026-04-06T15:26:08.011Z</time></trkpt><trkpt lat="40.1371122" lon="9.5064785"><ele>935.0</ele><time>2026-04-06T15:26:09.011Z</time></trkpt><trkpt lat="40.1373031" lon="9.5063965"><ele>929.6666666666667</ele><time>2026-04-06T15:26:10.011Z</time></trkpt><trkpt lat="40.1375169" lon="9.5063827"><ele>924.3333333333333</ele><time>2026-04-06T15:26:11.011Z</time></trkpt><trkpt lat="40.1377148" lon="9.5063112"><ele>919.0</ele><time>2026-04-06T15:26:12.01Z</time></trkpt><trkpt lat="40.1379133" lon="9.5062596"><ele>929.3333333333333</ele><time>2026-04-06T15:26:13.01Z</time></trkpt><trkpt lat="40.1380904" lon="9.5061561"><ele>939.6666666666667</ele><time>2026-04-06T15:26:14.01Z</time></trkpt><trkpt lat="40.1382732" lon="9.5059516"><ele>950.0</ele><time>2026-04-06T15:26:15.011Z</time></trkpt><trkpt lat="40.1384645" lon="9.5058668"><ele>950.0</ele><time>2026-04-06T15:26:16.011Z</time></trkpt><trkpt lat="40.1386621" lon="9.5058079"><ele>950.0</ele><time>2026-04-06T15:26:17.01Z</time></trkpt><trkpt lat="40.1388602" lon="9.505773"><ele>950.0</ele><time>2026-04-06T15:26:18.011Z</time></trkpt><trkpt lat="40.1390553" lon="9.5057595"><ele>948.3333333333334</ele><time>2026-04-06T15:26:19.011Z</time></trkpt><trkpt lat="40.1392467" lon="9.5057734"><ele>946.6666666666667</ele><time>2026-04-06T15:26:20.011Z</time></trkpt><trkpt lat="40.1394351" lon="9.5057783"><ele>945.0</ele><time>2026-04-06T15:26:21.01Z</time></trkpt><trkpt lat="40.1396184" lon="9.5057847"><ele>945.0</ele><time>2026-04-06T15:26:22.011Z</time></trkpt><trkpt lat="40.1398" lon="9.5057859"><ele>945.0</ele><time>2026-04-06T15:26:23.011Z</time></trkpt><trkpt lat="40.1399888" lon="9.5057851"><ele>945.0</ele><time>2026-04-06T15:26:24.011Z</time></trkpt><trkpt lat="40.1401802" lon="9.5057907"><ele>947.3333333333333</ele><time>2026-04-06T15:26:25.011Z</time></trkpt><trkpt lat="40.1403801" lon="9.5058092"><ele>949.6666666666666</ele><time>2026-04-06T15:26:26.01Z</time></trkpt><trkpt lat="40.140585" lon="9.5058334"><ele>952.0</ele><time>2026-04-06T15:26:27.011Z</time></trkpt><trkpt lat="40.1407896" lon="9.5058675"><ele>954.0</ele><time>2026-04-06T15:26:28.01Z</time></trkpt><trkpt lat="40.1409993" lon="9.5059026"><ele>956.0</ele><time>2026-04-06T15:26:29.011Z</time></trkpt><trkpt lat="40.1412056" lon="9.5059336"><ele>958.0</ele><time>2026-04-06T15:26:30.01Z</time></trkpt><trkpt lat="40.1414" lon="9.5059511"><ele>959.6666666666666</ele><time>2026-04-06T15:26:31.011Z</time></trkpt><trkpt lat="40.1415993" lon="9.5059317"><ele>961.3333333333333</ele><time>2026-04-06T15:26:32.011Z</time></trkpt><trkpt lat="40.1417998" lon="9.5058826"><ele>963.0</ele><time>2026-04-06T15:26:33.011Z</time></trkpt><trkpt lat="40.1419888" lon="9.5058477"><ele>963.0</ele><time>2026-04-06T15:26:34.011Z</time></trkpt><trkpt lat="40.1421766" lon="9.5058066"><ele>963.0</ele><time>2026-04-06T15:26:35.01Z</time></trkpt><trkpt lat="40.1423621" lon="9.5057675"><ele>963.0</ele><time>2026-04-06T15:26:36.011Z</time></trkpt><trkpt lat="40.1425462" lon="9.5057266"><ele>959.3333333333333</ele><time>2026-04-06T15:26:37.01Z</time></trkpt><trkpt lat="40.1427286" lon="9.5056955"><ele>955.6666666666666</ele><time>2026-04-06T15:26:38.011Z</time></trkpt><trkpt lat="40.142915" lon="9.5056899"><ele>952.0</ele><time>2026-04-06T15:26:39.011Z</time></trkpt><trkpt lat="40.143101" lon="9.5057115"><ele>956.6666666666666</ele><time>2026-04-06T15:26:40.011Z</time></trkpt><trkpt lat="40.1432856" lon="9.5057323"><ele>961.3333333333333</ele><time>2026-04-06T15:26:41.01Z</time></trkpt><trkpt lat="40.143471" lon="9.5057563"><ele>966.0</ele><time>2026-04-06T15:26:42.011Z</time></trkpt><trkpt lat="40.1436613" lon="9.5057652"><ele>966.0</ele><time>2026-04-06T15:26:43.011Z</time></trkpt><trkpt lat="40.1438452" lon="9.5057383"><ele>966.0</ele><time>2026-04-06T15:26:44.011Z</time></trkpt><trkpt lat="40.144041" lon="9.5056783"><ele>966.0</ele><time>2026-04-06T15:26:45.01Z</time></trkpt><trkpt lat="40.1442386" lon="9.505688"><ele>967.0</ele><time>2026-04-06T15:26:46.01Z</time></trkpt><trkpt lat="40.1444346" lon="9.5057292"><ele>968.0</ele><time>2026-04-06T15:26:47.01Z</time></trkpt><trkpt lat="40.1446213" lon="9.5058118"><ele>969.0</ele><time>2026-04-06T15:26:48.011Z</time></trkpt><trkpt lat="40.1447978" lon="9.505917"><ele>975.6666666666667</ele><time>2026-04-06T15:26:49.011Z</time></trkpt><trkpt lat="40.1449609" lon="9.5060302"><ele>982.3333333333334</ele><time>2026-04-06T15:26:50.011Z</time></trkpt><trkpt lat="40.1451301" lon="9.5061258"><ele>989.0</ele><time>2026-04-06T15:26:51.011Z</time></trkpt><trkpt lat="40.1453064" lon="9.5061761"><ele>989.0</ele><time>2026-04-06T15:26:52.011Z</time></trkpt><trkpt lat="40.1454874" lon="9.5061935"><ele>989.0</ele><time>2026-04-06T15:26:53.01Z</time></trkpt><trkpt lat="40.1456709" lon="9.5061982"><ele>989.0</ele><time>2026-04-06T15:26:54.01Z</time></trkpt><trkpt lat="40.1458552" lon="9.5061975"><ele>993.0</ele><time>2026-04-06T15:26:55.01Z</time></trkpt><trkpt lat="40.1460494" lon="9.506195"><ele>997.0</ele><time>2026-04-06T15:26:56.011Z</time></trkpt><trkpt lat="40.1462436" lon="9.506187"><ele>1001.0</ele><time>2026-04-06T15:26:57.01Z</time></trkpt><trkpt lat="40.1464374" lon="9.5061841"><ele>1004.6666666666667</ele><time>2026-04-06T15:26:58.01Z</time></trkpt><trkpt lat="40.1466349" lon="9.5061822"><ele>1008.3333333333333</ele><time>2026-04-06T15:26:59.011Z</time></trkpt><trkpt lat="40.1468315" lon="9.5061905"><ele>1012.0</ele><time>2026-04-06T15:27:00.011Z</time></trkpt><trkpt lat="40.1470287" lon="9.5062266"><ele>1002.0</ele><time>2026-04-06T15:27:01.011Z</time></trkpt><trkpt lat="40.1472254" lon="9.5062607"><ele>992.0</ele><time>2026-04-06T15:27:02.011Z</time></trkpt><trkpt lat="40.1474046" lon="9.5063085"><ele>982.0</ele><time>2026-04-06T15:27:03.011Z</time></trkpt><trkpt lat="40.1476046" lon="9.5064179"><ele>982.0</ele><time>2026-04-06T15:27:04.011Z</time></trkpt><trkpt lat="40.1478047" lon="9.5064946"><ele>982.0</ele><time>2026-04-06T15:27:05.011Z</time></trkpt><trkpt lat="40.1480083" lon="9.506554"><ele>982.0</ele><time>2026-04-06T15:27:06.011Z</time></trkpt><trkpt lat="40.148218" lon="9.5066106"><ele>987.0</ele><time>2026-04-06T15:27:07.011Z</time></trkpt><trkpt lat="40.1484333" lon="9.5066594"><ele>992.0</ele><time>2026-04-06T15:27:08.01Z</time></trkpt><trkpt lat="40.1486509" lon="9.5067066"><ele>997.0</ele><time>2026-04-06T15:27:09.01Z</time></trkpt><trkpt lat="40.1488704" lon="9.5067416"><ele>1002.3333333333333</ele><time>2026-04-06T15:27:10.011Z</time></trkpt><trkpt lat="40.1490923" lon="9.5067649"><ele>1007.6666666666667</ele><time>2026-04-06T15:27:11.011Z</time></trkpt><trkpt lat="40.1493168" lon="9.5067988"><ele>1013.0</ele><time>2026-04-06T15:27:12.01Z</time></trkpt><trkpt lat="40.1495412" lon="9.5068494"><ele>1013.0</ele><time>2026-04-06T15:27:13.01Z</time></trkpt><trkpt lat="40.1497652" lon="9.5069211"><ele>1013.0</ele><time>2026-04-06T15:27:14.011Z</time></trkpt><trkpt lat="40.1499836" lon="9.5070155"><ele>1006.6666666666667</ele><time>2026-04-06T15:27:15.011Z</time></trkpt><trkpt lat="40.150186" lon="9.5071108"><ele>1000.3333333333333</ele><time>2026-04-06T15:27:16.011Z</time></trkpt><trkpt lat="40.150391" lon="9.5071961"><ele>994.0</ele><time>2026-04-06T15:27:17.01Z</time></trkpt><trkpt lat="40.1505777" lon="9.5072915"><ele>998.0</ele><time>2026-04-06T15:27:18.011Z</time></trkpt><trkpt lat="40.1507625" lon="9.5073757"><ele>1002.0</ele><time>2026-04-06T15:27:19.01Z</time></trkpt><trkpt lat="40.1509582" lon="9.5074275"><ele>1006.0</ele><time>2026-04-06T15:27:20.011Z</time></trkpt><trkpt lat="40.1511605" lon="9.5074516"><ele>1006.0</ele><time>2026-04-06T15:27:21.01Z</time></trkpt><trkpt lat="40.1513629" lon="9.5074589"><ele>1006.0</ele><time>2026-04-06T15:27:22.01Z</time></trkpt><trkpt lat="40.1515726" lon="9.5074568"><ele>1006.0</ele><time>2026-04-06T15:27:23.011Z</time></trkpt><trkpt lat="40.1517829" lon="9.5074562"><ele>1007.6666666666666</ele><time>2026-04-06T15:27:24.01Z</time></trkpt><trkpt lat="40.151998" lon="9.507452"><ele>1009.3333333333333</ele><time>2026-04-06T15:27:25.011Z</time></trkpt><trkpt lat="40.1522147" lon="9.5074667"><ele>1011.0</ele><time>2026-04-06T15:27:26.01Z</time></trkpt><trkpt lat="40.1524292" lon="9.507507"><ele>1013.3333333333333</ele><time>2026-04-06T15:27:27.01Z</time></trkpt><trkpt lat="40.1526357" lon="9.5075665"><ele>1015.6666666666666</ele><time>2026-04-06T15:27:28.01Z</time></trkpt><trkpt lat="40.1528345" lon="9.5076403"><ele>1018.0</ele><time>2026-04-06T15:27:29.011Z</time></trkpt><trkpt lat="40.1530326" lon="9.5077127"><ele>1020.3333333333333</ele><time>2026-04-06T15:27:30.01Z</time></trkpt><trkpt lat="40.1532298" lon="9.5077611"><ele>1022.6666666666667</ele><time>2026-04-06T15:27:31.01Z</time></trkpt><trkpt lat="40.1534366" lon="9.5077721"><ele>1025.0</ele><time>2026-04-06T15:27:32.011Z</time></trkpt><trkpt lat="40.1536493" lon="9.507753"><ele>1025.0</ele><time>2026-04-06T15:27:33.011Z</time></trkpt><trkpt lat="40.1538687" lon="9.5076999"><ele>1025.0</ele><time>2026-04-06T15:27:34.011Z</time></trkpt><trkpt lat="40.1540874" lon="9.5076273"><ele>1025.0</ele><time>2026-04-06T15:27:35.011Z</time></trkpt><trkpt lat="40.1543116" lon="9.5075496"><ele>1025.5</ele><time>2026-04-06T15:27:36.011Z</time></trkpt><trkpt lat="40.1545329" lon="9.5074703"><ele>1026.0</ele><time>2026-04-06T15:27:37.011Z</time></trkpt><trkpt lat="40.1547511" lon="9.50739"><ele>1022.0</ele><time>2026-04-06T15:27:38.011Z</time></trkpt><trkpt lat="40.1549559" lon="9.5073202"><ele>1018.0</ele><time>2026-04-06T15:27:39.011Z</time></trkpt><trkpt lat="40.1551597" lon="9.5072686"><ele>1014.0</ele><time>2026-04-06T15:27:40.011Z</time></trkpt><trkpt lat="40.1553592" lon="9.5072369"><ele>1014.0</ele><time>2026-04-06T15:27:41.01Z</time></trkpt><trkpt lat="40.1555564" lon="9.5072311"><ele>1014.0</ele><time>2026-04-06T15:27:42.01Z</time></trkpt><trkpt lat="40.1557468" lon="9.5072248"><ele>1014.0</ele><time>2026-04-06T15:27:43.011Z</time></trkpt><trkpt lat="40.155932" lon="9.5071993"><ele>1012.0</ele><time>2026-04-06T15:27:44.011Z</time></trkpt><trkpt lat="40.1561075" lon="9.5071503"><ele>1010.0</ele><time>2026-04-06T15:27:45.01Z</time></trkpt><trkpt lat="40.1562692" lon="9.5070945"><ele>1008.0</ele><time>2026-04-06T15:27:46.01Z</time></trkpt><trkpt lat="40.1564279" lon="9.5070389"><ele>1015.3333333333333</ele><time>2026-04-06T15:27:47.011Z</time></trkpt><trkpt lat="40.1565957" lon="9.5070006"><ele>1022.6666666666666</ele><time>2026-04-06T15:27:48.011Z</time></trkpt><trkpt lat="40.1567713" lon="9.5069818"><ele>1030.0</ele><time>2026-04-06T15:27:49.01Z</time></trkpt><trkpt lat="40.1569503" lon="9.506991"><ele>1030.0</ele><time>2026-04-06T15:27:50.01Z</time></trkpt><trkpt lat="40.1571317" lon="9.5070208"><ele>1030.0</ele><time>2026-04-06T15:27:51.011Z</time></trkpt><trkpt lat="40.1573125" lon="9.5070712"><ele>1030.0</ele><time>2026-04-06T15:27:52.011Z</time></trkpt><trkpt lat="40.1574817" lon="9.5071308"><ele>1021.6666666666666</ele><time>2026-04-06T15:27:53.01Z</time></trkpt><trkpt lat="40.1576423" lon="9.5071876"><ele>1013.3333333333333</ele><time>2026-04-06T15:27:54.011Z</time></trkpt><trkpt lat="40.1577915" lon="9.5072438"><ele>1005.0</ele><time>2026-04-06T15:27:55.011Z</time></trkpt><trkpt lat="40.1579286" lon="9.5073085"><ele>1005.0</ele><time>2026-04-06T15:27:56.01Z</time></trkpt><trkpt lat="40.1580539" lon="9.5073852"><ele>1005.0</ele><time>2026-04-06T15:27:57.011Z</time></trkpt><trkpt lat="40.1581737" lon="9.5074806"><ele>1005.0</ele><time>2026-04-06T15:27:58.011Z</time></trkpt><trkpt lat="40.1582965" lon="9.5075925"><ele>1005.0</ele><time>2026-04-06T15:27:59.011Z</time></trkpt><trkpt lat="40.1584195" lon="9.507715"><ele>1005.25</ele><time>2026-04-06T15:28:00.011Z</time></trkpt><trkpt lat="40.1585395" lon="9.5078321"><ele>1005.5</ele><time>2026-04-06T15:28:01.011Z</time></trkpt><trkpt lat="40.1586582" lon="9.5079539"><ele>1005.75</ele><time>2026-04-06T15:28:02.011Z</time></trkpt><trkpt lat="40.1587686" lon="9.5080718"><ele>1006.0</ele><time>2026-04-06T15:28:03.01Z</time></trkpt><trkpt lat="40.1588689" lon="9.5081861"><ele>1006.0</ele><time>2026-04-06T15:28:04.011Z</time></trkpt><trkpt lat="40.1589675" lon="9.5082912"><ele>1006.0</ele><time>2026-04-06T15:28:05.011Z</time></trkpt><trkpt lat="40.1590639" lon="9.508389"><ele>1006.0</ele><time>2026-04-06T15:28:06.011Z</time></trkpt><trkpt lat="40.1591659" lon="9.5084733"><ele>1006.0</ele><time>2026-04-06T15:28:07.011Z</time></trkpt><trkpt lat="40.159277" lon="9.5085466"><ele>1005.5</ele><time>2026-04-06T15:28:08.011Z</time></trkpt><trkpt lat="40.1594019" lon="9.5086015"><ele>1005.0</ele><time>2026-04-06T15:28:09.01Z</time></trkpt><trkpt lat="40.159532" lon="9.5086401"><ele>1004.5</ele><time>2026-04-06T15:28:10.01Z</time></trkpt><trkpt lat="40.1596685" lon="9.5086758"><ele>1004.0</ele><time>2026-04-06T15:28:11.01Z</time></trkpt><trkpt lat="40.1598057" lon="9.5087148"><ele>1005.25</ele><time>2026-04-06T15:28:12.01Z</time></trkpt><trkpt lat="40.1599438" lon="9.5087665"><ele>1006.5</ele><time>2026-04-06T15:28:13.011Z</time></trkpt><trkpt lat="40.1600766" lon="9.508835"><ele>1007.75</ele><time>2026-04-06T15:28:14.01Z</time></trkpt><trkpt lat="40.1601945" lon="9.5089395"><ele>1009.0</ele><time>2026-04-06T15:28:15.01Z</time></trkpt><trkpt lat="40.160304" lon="9.5090589"><ele>1009.0</ele><time>2026-04-06T15:28:16.011Z</time></trkpt><trkpt lat="40.1604169" lon="9.5091747"><ele>1009.0</ele><time>2026-04-06T15:28:17.011Z</time></trkpt><trkpt lat="40.1605428" lon="9.5092766"><ele>1009.0</ele><time>2026-04-06T15:28:18.01Z</time></trkpt><trkpt lat="40.1606779" lon="9.5093567"><ele>1009.0</ele><time>2026-04-06T15:28:19.011Z</time></trkpt><trkpt lat="40.1608173" lon="9.5094174"><ele>1004.0</ele><time>2026-04-06T15:28:20.011Z</time></trkpt><trkpt lat="40.1609621" lon="9.5094518"><ele>999.0</ele><time>2026-04-06T15:28:21.011Z</time></trkpt><trkpt lat="40.1611069" lon="9.5094674"><ele>994.0</ele><time>2026-04-06T15:28:22.01Z</time></trkpt><trkpt lat="40.1612457" lon="9.5094968"><ele>989.0</ele><time>2026-04-06T15:28:23.011Z</time></trkpt><trkpt lat="40.1613729" lon="9.5095644"><ele>988.5</ele><time>2026-04-06T15:28:24.011Z</time></trkpt><trkpt lat="40.161477" lon="9.5096789"><ele>988.0</ele><time>2026-04-06T15:28:25.011Z</time></trkpt><trkpt lat="40.1615695" lon="9.5098321"><ele>987.5</ele><time>2026-04-06T15:28:26.011Z</time></trkpt><trkpt lat="40.161653" lon="9.5100052"><ele>987.0</ele><time>2026-04-06T15:28:27.011Z</time></trkpt><trkpt lat="40.1617165" lon="9.5101945"><ele>987.0</ele><time>2026-04-06T15:28:28.011Z</time></trkpt><trkpt lat="40.1617652" lon="9.5103987"><ele>987.0</ele><time>2026-04-06T15:28:29.011Z</time></trkpt><trkpt lat="40.161814" lon="9.5106043"><ele>987.0</ele><time>2026-04-06T15:28:30.011Z</time></trkpt><trkpt lat="40.1618593" lon="9.510803"><ele>987.5</ele><time>2026-04-06T15:28:31.011Z</time></trkpt><trkpt lat="40.1619067" lon="9.5109936"><ele>988.0</ele><time>2026-04-06T15:28:32.011Z</time></trkpt><trkpt lat="40.1619478" lon="9.5111741"><ele>988.5</ele><time>2026-04-06T15:28:33.011Z</time></trkpt><trkpt lat="40.1619888" lon="9.5113492"><ele>989.0</ele><time>2026-04-06T15:28:34.011Z</time></trkpt><trkpt lat="40.1620268" lon="9.5115262"><ele>986.5</ele><time>2026-04-06T15:28:35.01Z</time></trkpt><trkpt lat="40.1620651" lon="9.5117015"><ele>984.0</ele><time>2026-04-06T15:28:36.01Z</time></trkpt><trkpt lat="40.1621042" lon="9.5118787"><ele>981.5</ele><time>2026-04-06T15:28:37.011Z</time></trkpt><trkpt lat="40.162125" lon="9.5120505"><ele>979.0</ele><time>2026-04-06T15:28:38.011Z</time></trkpt><trkpt lat="40.1621245" lon="9.512225"><ele>978.0</ele><time>2026-04-06T15:28:39.011Z</time></trkpt><trkpt lat="40.1620828" lon="9.5123993"><ele>977.0</ele><time>2026-04-06T15:28:40.01Z</time></trkpt><trkpt lat="40.1620076" lon="9.5125573"><ele>976.0</ele><time>2026-04-06T15:28:41.01Z</time></trkpt><trkpt lat="40.1619124" lon="9.5127165"><ele>975.0</ele><time>2026-04-06T15:28:42.01Z</time></trkpt><trkpt lat="40.1618084" lon="9.5128743"><ele>978.6666666666667</ele><time>2026-04-06T15:28:43.01Z</time></trkpt><trkpt lat="40.1616989" lon="9.5130347"><ele>982.3333333333334</ele><time>2026-04-06T15:28:44.011Z</time></trkpt><trkpt lat="40.1615952" lon="9.5131852"><ele>986.0</ele><time>2026-04-06T15:28:45.01Z</time></trkpt><trkpt lat="40.1614932" lon="9.5133332"><ele>983.0</ele><time>2026-04-06T15:28:46.011Z</time></trkpt><trkpt lat="40.1613919" lon="9.5134852"><ele>980.0</ele><time>2026-04-06T15:28:47.011Z</time></trkpt><trkpt lat="40.1612912" lon="9.5136256"><ele>977.0</ele><time>2026-04-06T15:28:48.011Z</time></trkpt><trkpt lat="40.1611875" lon="9.5137693"><ele>977.0</ele><time>2026-04-06T15:28:49.011Z</time></trkpt><trkpt lat="40.1610859" lon="9.5139127"><ele>977.0</ele><time>2026-04-06T15:28:50.011Z</time></trkpt><trkpt lat="40.1609848" lon="9.514058"><ele>977.0</ele><time>2026-04-06T15:28:51.011Z</time></trkpt><trkpt lat="40.1608705" lon="9.514187"><ele>977.0</ele><time>2026-04-06T15:28:52.011Z</time></trkpt><trkpt lat="40.1607345" lon="9.5142958"><ele>977.0</ele><time>2026-04-06T15:28:53.01Z</time></trkpt><trkpt lat="40.1605835" lon="9.5143906"><ele>977.0</ele><time>2026-04-06T15:28:54.01Z</time></trkpt><trkpt lat="40.1604339" lon="9.5145026"><ele>977.0</ele><time>2026-04-06T15:28:55.011Z</time></trkpt><trkpt lat="40.1602863" lon="9.5146373"><ele>977.0</ele><time>2026-04-06T15:28:56.011Z</time></trkpt><trkpt lat="40.160144" lon="9.5147867"><ele>977.0</ele><time>2026-04-06T15:28:57.011Z</time></trkpt><trkpt lat="40.1600035" lon="9.5149462"><ele>977.0</ele><time>2026-04-06T15:28:58.011Z</time></trkpt><trkpt lat="40.1598734" lon="9.5151015"><ele>977.0</ele><time>2026-04-06T15:28:59.011Z</time></trkpt><trkpt lat="40.1597494" lon="9.5152472"><ele>977.0</ele><time>2026-04-06T15:29:00.011Z</time></trkpt><trkpt lat="40.1596202" lon="9.5153821"><ele>977.6666666666667</ele><time>2026-04-06T15:29:01.01Z</time></trkpt><trkpt lat="40.1594693" lon="9.5154959"><ele>978.3333333333333</ele><time>2026-04-06T15:29:02.01Z</time></trkpt><trkpt lat="40.1593083" lon="9.5155884"><ele>979.0</ele><time>2026-04-06T15:29:03.011Z</time></trkpt><trkpt lat="40.1591556" lon="9.515674"><ele>969.3333333333333</ele><time>2026-04-06T15:29:04.011Z</time></trkpt><trkpt lat="40.1590021" lon="9.5157505"><ele>959.6666666666667</ele><time>2026-04-06T15:29:05.011Z</time></trkpt><trkpt lat="40.158862" lon="9.515832"><ele>950.0</ele><time>2026-04-06T15:29:06.011Z</time></trkpt><trkpt lat="40.1587322" lon="9.5159212"><ele>950.0</ele><time>2026-04-06T15:29:07.01Z</time></trkpt><trkpt lat="40.1586209" lon="9.5160223"><ele>950.0</ele><time>2026-04-06T15:29:08.011Z</time></trkpt><trkpt lat="40.1585308" lon="9.5161416"><ele>950.0</ele><time>2026-04-06T15:29:09.011Z</time></trkpt><trkpt lat="40.1584609" lon="9.5162711"><ele>950.0</ele><time>2026-04-06T15:29:10.011Z</time></trkpt><trkpt lat="40.1584041" lon="9.5164111"><ele>954.5</ele><time>2026-04-06T15:29:11.011Z</time></trkpt><trkpt lat="40.1583524" lon="9.5165531"><ele>959.0</ele><time>2026-04-06T15:29:12.011Z</time></trkpt><trkpt lat="40.1583116" lon="9.5166998"><ele>963.5</ele><time>2026-04-06T15:29:13.011Z</time></trkpt><trkpt lat="40.1582875" lon="9.5168499"><ele>968.0</ele><time>2026-04-06T15:29:14.01Z</time></trkpt><trkpt lat="40.1582875" lon="9.517001"><ele>967.75</ele><time>2026-04-06T15:29:15.011Z</time></trkpt><trkpt lat="40.1583035" lon="9.5171532"><ele>967.5</ele><time>2026-04-06T15:29:16.011Z</time></trkpt><trkpt lat="40.1583242" lon="9.517312"><ele>967.25</ele><time>2026-04-06T15:29:17.011Z</time></trkpt><trkpt lat="40.1583468" lon="9.5174742"><ele>967.0</ele><time>2026-04-06T15:29:18.01Z</time></trkpt><trkpt lat="40.158372" lon="9.5176417"><ele>967.0</ele><time>2026-04-06T15:29:19.011Z</time></trkpt><trkpt lat="40.1584083" lon="9.5178104"><ele>967.0</ele><time>2026-04-06T15:29:20.01Z</time></trkpt><trkpt lat="40.1584507" lon="9.5179779"><ele>967.0</ele><time>2026-04-06T15:29:21.011Z</time></trkpt><trkpt lat="40.1584951" lon="9.5181326"><ele>967.0</ele><time>2026-04-06T15:29:22.01Z</time></trkpt><trkpt lat="40.1585322" lon="9.5182796"><ele>964.6</ele><time>2026-04-06T15:29:23.01Z</time></trkpt><trkpt lat="40.1585685" lon="9.5184192"><ele>962.2</ele><time>2026-04-06T15:29:24.011Z</time></trkpt><trkpt lat="40.1586109" lon="9.5185455"><ele>959.8</ele><time>2026-04-06T15:29:25.011Z</time></trkpt><trkpt lat="40.1586591" lon="9.518657"><ele>957.4</ele><time>2026-04-06T15:29:26.011Z</time></trkpt><trkpt lat="40.1587245" lon="9.5187476"><ele>955.0</ele><time>2026-04-06T15:29:27.011Z</time></trkpt><trkpt lat="40.1587928" lon="9.5188317"><ele>957.0</ele><time>2026-04-06T15:29:28.011Z</time></trkpt><trkpt lat="40.1588613" lon="9.5189045"><ele>959.0</ele><time>2026-04-06T15:29:29.011Z</time></trkpt><trkpt lat="40.158933" lon="9.5189676"><ele>961.0</ele><time>2026-04-06T15:29:30.011Z</time></trkpt><trkpt lat="40.159012" lon="9.5190366"><ele>963.0</ele><time>2026-04-06T15:29:31.01Z</time></trkpt><trkpt lat="40.1590956" lon="9.519109"><ele>965.0</ele><time>2026-04-06T15:29:32.011Z</time></trkpt><trkpt lat="40.1591769" lon="9.5191793"><ele>965.0</ele><time>2026-04-06T15:29:33.01Z</time></trkpt><trkpt lat="40.1592616" lon="9.5192573"><ele>965.0</ele><time>2026-04-06T15:29:34.011Z</time></trkpt><trkpt lat="40.1593559" lon="9.5193294"><ele>965.0</ele><time>2026-04-06T15:29:35.01Z</time></trkpt><trkpt lat="40.1594774" lon="9.5193928"><ele>965.0</ele><time>2026-04-06T15:29:36.011Z</time></trkpt><trkpt lat="40.1596239" lon="9.5194408"><ele>965.0</ele><time>2026-04-06T15:29:37.011Z</time></trkpt><trkpt lat="40.1597943" lon="9.5194705"><ele>965.0</ele><time>2026-04-06T15:29:38.011Z</time></trkpt><trkpt lat="40.1599808" lon="9.519478"><ele>965.0</ele><time>2026-04-06T15:29:39.011Z</time></trkpt><trkpt lat="40.1601865" lon="9.5194732"><ele>972.5</ele><time>2026-04-06T15:29:40.01Z</time></trkpt><trkpt lat="40.1604077" lon="9.5194663"><ele>980.0</ele><time>2026-04-06T15:29:41.011Z</time></trkpt><trkpt lat="40.1606429" lon="9.5194545"><ele>979.0</ele><time>2026-04-06T15:29:42.011Z</time></trkpt><trkpt lat="40.1608853" lon="9.5194433"><ele>978.0</ele><time>2026-04-06T15:29:43.01Z</time></trkpt><trkpt lat="40.1611349" lon="9.5194332"><ele>978.0</ele><time>2026-04-06T15:29:44.01Z</time></trkpt><trkpt lat="40.1613701" lon="9.5194244"><ele>978.0</ele><time>2026-04-06T15:29:45.01Z</time></trkpt><trkpt lat="40.1615973" lon="9.519413"><ele>976.0</ele><time>2026-04-06T15:29:46.011Z</time></trkpt><trkpt lat="40.1618107" lon="9.5194019"><ele>974.0</ele><time>2026-04-06T15:29:47.011Z</time></trkpt><trkpt lat="40.1619796" lon="9.5193918"><ele>972.0</ele><time>2026-04-06T15:29:48.011Z</time></trkpt><trkpt lat="40.1621363" lon="9.519397"><ele>972.0</ele><time>2026-04-06T15:29:49.01Z</time></trkpt><trkpt lat="40.1622727" lon="9.5194437"><ele>972.0</ele><time>2026-04-06T15:29:50.01Z</time></trkpt><trkpt lat="40.1623964" lon="9.5195287"><ele>972.0</ele><time>2026-04-06T15:29:51.011Z</time></trkpt><trkpt lat="40.162494" lon="9.5196437"><ele>972.0</ele><time>2026-04-06T15:29:52.011Z</time></trkpt><trkpt lat="40.1625527" lon="9.5197918"><ele>969.5</ele><time>2026-04-06T15:29:53.011Z</time></trkpt><trkpt lat="40.162569" lon="9.5199544"><ele>967.0</ele><time>2026-04-06T15:29:54.011Z</time></trkpt><trkpt lat="40.1625401" lon="9.5201378"><ele>964.5</ele><time>2026-04-06T15:29:55.011Z</time></trkpt><trkpt lat="40.1624813" lon="9.5203312"><ele>962.0</ele><time>2026-04-06T15:29:56.011Z</time></trkpt><trkpt lat="40.1624086" lon="9.520544"><ele>950.3333333333334</ele><time>2026-04-06T15:29:57.011Z</time></trkpt><trkpt lat="40.1623182" lon="9.5207572"><ele>938.6666666666667</ele><time>2026-04-06T15:29:58.01Z</time></trkpt><trkpt lat="40.1622228" lon="9.5209593"><ele>927.0</ele><time>2026-04-06T15:29:59.011Z</time></trkpt><trkpt lat="40.1621408" lon="9.5211745"><ele>927.3333333333333</ele><time>2026-04-06T15:30:00.011Z</time></trkpt><trkpt lat="40.1620839" lon="9.5213693"><ele>927.6666666666666</ele><time>2026-04-06T15:30:01.011Z</time></trkpt><trkpt lat="40.1620601" lon="9.5215643"><ele>928.0</ele><time>2026-04-06T15:30:02.01Z</time></trkpt><trkpt lat="40.1620766" lon="9.5217537"><ele>928.0</ele><time>2026-04-06T15:30:03.011Z</time></trkpt><trkpt lat="40.1621125" lon="9.5219343"><ele>928.0</ele><time>2026-04-06T15:30:04.01Z</time></trkpt><trkpt lat="40.1621341" lon="9.5221147"><ele>928.0</ele><time>2026-04-06T15:30:05.01Z</time></trkpt><trkpt lat="40.1621188" lon="9.5223039"><ele>928.0</ele><time>2026-04-06T15:30:06.011Z</time></trkpt><trkpt lat="40.1620625" lon="9.5224872"><ele>928.3333333333333</ele><time>2026-04-06T15:30:07.011Z</time></trkpt><trkpt lat="40.1619928" lon="9.5226715"><ele>928.6666666666667</ele><time>2026-04-06T15:30:08.01Z</time></trkpt><trkpt lat="40.1619223" lon="9.5228576"><ele>929.0</ele><time>2026-04-06T15:30:09.01Z</time></trkpt><trkpt lat="40.161865" lon="9.5230369"><ele>928.25</ele><time>2026-04-06T15:30:10.011Z</time></trkpt><trkpt lat="40.1618458" lon="9.5232201"><ele>927.5</ele><time>2026-04-06T15:30:11.011Z</time></trkpt><trkpt lat="40.1618692" lon="9.5234095"><ele>926.75</ele><time>2026-04-06T15:30:12.011Z</time></trkpt><trkpt lat="40.1619383" lon="9.5235995"><ele>926.0</ele><time>2026-04-06T15:30:13.011Z</time></trkpt><trkpt lat="40.1620118" lon="9.523798"><ele>926.0</ele><time>2026-04-06T15:30:14.01Z</time></trkpt><trkpt lat="40.1620446" lon="9.5240012"><ele>926.0</ele><time>2026-04-06T15:30:15.011Z</time></trkpt><trkpt lat="40.1620896" lon="9.5242013"><ele>926.0</ele><time>2026-04-06T15:30:16.011Z</time></trkpt><trkpt lat="40.1621877" lon="9.524401"><ele>931.0</ele><time>2026-04-06T15:30:17.011Z</time></trkpt><trkpt lat="40.1623159" lon="9.5245978"><ele>936.0</ele><time>2026-04-06T15:30:18.011Z</time></trkpt><trkpt lat="40.1624457" lon="9.52476"><ele>941.0</ele><time>2026-04-06T15:30:19.01Z</time></trkpt><trkpt lat="40.1625946" lon="9.5248776"><ele>941.0</ele><time>2026-04-06T15:30:20.01Z</time></trkpt><trkpt lat="40.1627458" lon="9.5249425"><ele>941.0</ele><time>2026-04-06T15:30:21.01Z</time></trkpt><trkpt lat="40.1628789" lon="9.5250107"><ele>941.0</ele><time>2026-04-06T15:30:22.011Z</time></trkpt><trkpt lat="40.1629792" lon="9.5251124"><ele>941.0</ele><time>2026-04-06T15:30:23.011Z</time></trkpt><trkpt lat="40.1630376" lon="9.5252453"><ele>939.5</ele><time>2026-04-06T15:30:24.01Z</time></trkpt><trkpt lat="40.1630477" lon="9.5254084"><ele>938.0</ele><time>2026-04-06T15:30:25.011Z</time></trkpt><trkpt lat="40.1629998" lon="9.5255838"><ele>936.5</ele><time>2026-04-06T15:30:26.011Z</time></trkpt><trkpt lat="40.1629231" lon="9.5257774"><ele>935.0</ele><time>2026-04-06T15:30:27.01Z</time></trkpt><trkpt lat="40.1628403" lon="9.5259753"><ele>935.0</ele><time>2026-04-06T15:30:28.011Z</time></trkpt><trkpt lat="40.1627641" lon="9.526161"><ele>935.0</ele><time>2026-04-06T15:30:29.01Z</time></trkpt><trkpt lat="40.1626957" lon="9.5263313"><ele>935.0</ele><time>2026-04-06T15:30:30.011Z</time></trkpt><trkpt lat="40.1626488" lon="9.5265027"><ele>935.0</ele><time>2026-04-06T15:30:31.011Z</time></trkpt><trkpt lat="40.1626317" lon="9.5266774"><ele>934.75</ele><time>2026-04-06T15:30:32.011Z</time></trkpt><trkpt lat="40.1626542" lon="9.5268426"><ele>934.5</ele><time>2026-04-06T15:30:33.011Z</time></trkpt><trkpt lat="40.1627107" lon="9.5269877"><ele>934.25</ele><time>2026-04-06T15:30:34.011Z</time></trkpt><trkpt lat="40.1627916" lon="9.5271116"><ele>934.0</ele><time>2026-04-06T15:30:35.011Z</time></trkpt><trkpt lat="40.1628836" lon="9.527221"><ele>934.0</ele><time>2026-04-06T15:30:36.01Z</time></trkpt><trkpt lat="40.1629808" lon="9.5273241"><ele>934.0</ele><time>2026-04-06T15:30:37.011Z</time></trkpt><trkpt lat="40.1630799" lon="9.5274289"><ele>934.0</ele><time>2026-04-06T15:30:38.011Z</time></trkpt><trkpt lat="40.16318" lon="9.5275329"><ele>934.0</ele><time>2026-04-06T15:30:39.011Z</time></trkpt><trkpt lat="40.1632737" lon="9.527646"><ele>935.5</ele><time>2026-04-06T15:30:40.011Z</time></trkpt><trkpt lat="40.1633547" lon="9.5277845"><ele>937.0</ele><time>2026-04-06T15:30:41.011Z</time></trkpt><trkpt lat="40.1634096" lon="9.5279515"><ele>938.5</ele><time>2026-04-06T15:30:42.011Z</time></trkpt><trkpt lat="40.1634445" lon="9.5281303"><ele>940.0</ele><time>2026-04-06T15:30:43.01Z</time></trkpt><trkpt lat="40.16348" lon="9.5282975"><ele>940.0</ele><time>2026-04-06T15:30:44.011Z</time></trkpt><trkpt lat="40.1635331" lon="9.528458"><ele>940.0</ele><time>2026-04-06T15:30:45.011Z</time></trkpt><trkpt lat="40.1636091" lon="9.5285954"><ele>940.0</ele><time>2026-04-06T15:30:46.01Z</time></trkpt><trkpt lat="40.1637165" lon="9.5287051"><ele>940.0</ele><time>2026-04-06T15:30:47.011Z</time></trkpt><trkpt lat="40.1638436" lon="9.5287926"><ele>937.6666666666666</ele><time>2026-04-06T15:30:48.011Z</time></trkpt><trkpt lat="40.163985" lon="9.5288588"><ele>935.3333333333333</ele><time>2026-04-06T15:30:49.011Z</time></trkpt><trkpt lat="40.164133" lon="9.5289018"><ele>933.0</ele><time>2026-04-06T15:30:50.011Z</time></trkpt><trkpt lat="40.1642815" lon="9.5289212"><ele>933.0</ele><time>2026-04-06T15:30:51.011Z</time></trkpt><trkpt lat="40.164431" lon="9.5289233"><ele>933.0</ele><time>2026-04-06T15:30:52.011Z</time></trkpt><trkpt lat="40.1645814" lon="9.5289176"><ele>933.0</ele><time>2026-04-06T15:30:53.011Z</time></trkpt><trkpt lat="40.1647317" lon="9.5289155"><ele>931.6666666666667</ele><time>2026-04-06T15:30:54.01Z</time></trkpt><trkpt lat="40.1648825" lon="9.5289153"><ele>930.3333333333334</ele><time>2026-04-06T15:30:55.01Z</time></trkpt><trkpt lat="40.1650327" lon="9.5289175"><ele>929.0</ele><time>2026-04-06T15:30:56.011Z</time></trkpt><trkpt lat="40.1651828" lon="9.5289177"><ele>929.0</ele><time>2026-04-06T15:30:57.01Z</time></trkpt><trkpt lat="40.1653333" lon="9.5288918"><ele>929.0</ele><time>2026-04-06T15:30:58.011Z</time></trkpt><trkpt lat="40.1654875" lon="9.5288426"><ele>929.0</ele><time>2026-04-06T15:30:59.01Z</time></trkpt><trkpt lat="40.1656403" lon="9.5287545"><ele>932.3333333333334</ele><time>2026-04-06T15:31:00.011Z</time></trkpt><trkpt lat="40.1657935" lon="9.5286469"><ele>935.6666666666667</ele><time>2026-04-06T15:31:01.011Z</time></trkpt><trkpt lat="40.1659441" lon="9.528542"><ele>939.0</ele><time>2026-04-06T15:31:02.01Z</time></trkpt><trkpt lat="40.1661169" lon="9.5284739"><ele>939.0</ele><time>2026-04-06T15:31:03.01Z</time></trkpt><trkpt lat="40.1662986" lon="9.5284587"><ele>939.0</ele><time>2026-04-06T15:31:04.01Z</time></trkpt><trkpt lat="40.1664852" lon="9.5284605"><ele>939.0</ele><time>2026-04-06T15:31:05.011Z</time></trkpt><trkpt lat="40.1666729" lon="9.5284553"><ele>937.6666666666667</ele><time>2026-04-06T15:31:06.011Z</time></trkpt><trkpt lat="40.1668653" lon="9.5284329"><ele>936.3333333333334</ele><time>2026-04-06T15:31:07.011Z</time></trkpt><trkpt lat="40.1670613" lon="9.5283781"><ele>935.0</ele><time>2026-04-06T15:31:08.011Z</time></trkpt><trkpt lat="40.1672601" lon="9.5283036"><ele>932.6666666666667</ele><time>2026-04-06T15:31:09.01Z</time></trkpt><trkpt lat="40.1674564" lon="9.5282248"><ele>930.3333333333333</ele><time>2026-04-06T15:31:10.011Z</time></trkpt><trkpt lat="40.1676464" lon="9.5281418"><ele>928.0</ele><time>2026-04-06T15:31:11.011Z</time></trkpt><trkpt lat="40.1678304" lon="9.5280662"><ele>928.0</ele><time>2026-04-06T15:31:12.01Z</time></trkpt><trkpt lat="40.1680021" lon="9.5279789"><ele>928.0</ele><time>2026-04-06T15:31:13.01Z</time></trkpt><trkpt lat="40.1681543" lon="9.5278772"><ele>928.0</ele><time>2026-04-06T15:31:14.011Z</time></trkpt><trkpt lat="40.1682922" lon="9.5277662"><ele>927.6666666666666</ele><time>2026-04-06T15:31:15.011Z</time></trkpt><trkpt lat="40.1684252" lon="9.5276588"><ele>927.3333333333333</ele><time>2026-04-06T15:31:16.011Z</time></trkpt><trkpt lat="40.1685569" lon="9.527544"><ele>927.0</ele><time>2026-04-06T15:31:17.011Z</time></trkpt><trkpt lat="40.1686912" lon="9.5274307"><ele>927.0</ele><time>2026-04-06T15:31:18.011Z</time></trkpt><trkpt lat="40.1688288" lon="9.5273189"><ele>927.0</ele><time>2026-04-06T15:31:19.011Z</time></trkpt><trkpt lat="40.1689678" lon="9.5272007"><ele>927.0</ele><time>2026-04-06T15:31:20.011Z</time></trkpt><trkpt lat="40.1691073" lon="9.5270807"><ele>926.0</ele><time>2026-04-06T15:31:21.011Z</time></trkpt><trkpt lat="40.1692437" lon="9.5269583"><ele>925.0</ele><time>2026-04-06T15:31:22.011Z</time></trkpt><trkpt lat="40.1693816" lon="9.5268332"><ele>924.0</ele><time>2026-04-06T15:31:23.011Z</time></trkpt><trkpt lat="40.1695085" lon="9.5266929"><ele>924.0</ele><time>2026-04-06T15:31:24.01Z</time></trkpt><trkpt lat="40.1696153" lon="9.5265191"><ele>924.0</ele><time>2026-04-06T15:31:25.011Z</time></trkpt><trkpt lat="40.1696976" lon="9.5263221"><ele>924.0</ele><time>2026-04-06T15:31:26.011Z</time></trkpt><trkpt lat="40.1697595" lon="9.5261214"><ele>921.25</ele><time>2026-04-06T15:31:27.011Z</time></trkpt><trkpt lat="40.1698281" lon="9.525952"><ele>918.5</ele><time>2026-04-06T15:31:28.011Z</time></trkpt><trkpt lat="40.1699148" lon="9.5258427"><ele>915.75</ele><time>2026-04-06T15:31:29.011Z</time></trkpt><trkpt lat="40.1700078" lon="9.525789"><ele>913.0</ele><time>2026-04-06T15:31:30.011Z</time></trkpt><trkpt lat="40.1701052" lon="9.5258024"><ele>913.0</ele><time>2026-04-06T15:31:31.01Z</time></trkpt><trkpt lat="40.1701985" lon="9.5258829"><ele>913.0</ele><time>2026-04-06T15:31:32.011Z</time></trkpt><trkpt lat="40.1702645" lon="9.5260239"><ele>913.0</ele><time>2026-04-06T15:31:33.011Z</time></trkpt><trkpt lat="40.1703285" lon="9.5261913"><ele>913.0</ele><time>2026-04-06T15:31:34.011Z</time></trkpt><trkpt lat="40.170401" lon="9.5263682"><ele>913.0</ele><time>2026-04-06T15:31:35.011Z</time></trkpt><trkpt lat="40.1704754" lon="9.5265209"><ele>913.0</ele><time>2026-04-06T15:31:36.011Z</time></trkpt><trkpt lat="40.1705659" lon="9.5266643"><ele>913.0</ele><time>2026-04-06T15:31:37.011Z</time></trkpt><trkpt lat="40.1706727" lon="9.5267797"><ele>913.0</ele><time>2026-04-06T15:31:38.011Z</time></trkpt><trkpt lat="40.1708025" lon="9.5268739"><ele>913.0</ele><time>2026-04-06T15:31:39.011Z</time></trkpt><trkpt lat="40.1709527" lon="9.5269434"><ele>913.0</ele><time>2026-04-06T15:31:40.011Z</time></trkpt><trkpt lat="40.1711106" lon="9.5269993"><ele>913.0</ele><time>2026-04-06T15:31:41.011Z</time></trkpt><trkpt lat="40.1712721" lon="9.5270591"><ele>910.0</ele><time>2026-04-06T15:31:42.011Z</time></trkpt><trkpt lat="40.1714334" lon="9.5271163"><ele>907.0</ele><time>2026-04-06T15:31:43.011Z</time></trkpt><trkpt lat="40.1716038" lon="9.5271491"><ele>904.0</ele><time>2026-04-06T15:31:44.011Z</time></trkpt><trkpt lat="40.1717756" lon="9.5271537"><ele>904.0</ele><time>2026-04-06T15:31:45.011Z</time></trkpt><trkpt lat="40.1719464" lon="9.5271313"><ele>904.0</ele><time>2026-04-06T15:31:46.01Z</time></trkpt><trkpt lat="40.1721169" lon="9.5270991"><ele>904.0</ele><time>2026-04-06T15:31:47.01Z</time></trkpt><trkpt lat="40.1722807" lon="9.5270621"><ele>904.3333333333333</ele><time>2026-04-06T15:31:48.011Z</time></trkpt><trkpt lat="40.1724467" lon="9.5270262"><ele>904.6666666666667</ele><time>2026-04-06T15:31:49.01Z</time></trkpt><trkpt lat="40.1726107" lon="9.5269903"><ele>905.0</ele><time>2026-04-06T15:31:50.011Z</time></trkpt><trkpt lat="40.172777" lon="9.5269543"><ele>905.0</ele><time>2026-04-06T15:31:51.01Z</time></trkpt><trkpt lat="40.1729406" lon="9.5269199"><ele>905.0</ele><time>2026-04-06T15:31:52.01Z</time></trkpt><trkpt lat="40.173098" lon="9.5268884"><ele>905.0</ele><time>2026-04-06T15:31:53.011Z</time></trkpt><trkpt lat="40.1732489" lon="9.5268533"><ele>901.5</ele><time>2026-04-06T15:31:54.011Z</time></trkpt><trkpt lat="40.1733936" lon="9.5268488"><ele>898.0</ele><time>2026-04-06T15:31:55.01Z</time></trkpt><trkpt lat="40.1735327" lon="9.5268682"><ele>894.5</ele><time>2026-04-06T15:31:56.011Z</time></trkpt><trkpt lat="40.1736783" lon="9.5269077"><ele>891.0</ele><time>2026-04-06T15:31:57.011Z</time></trkpt><trkpt lat="40.1738191" lon="9.5269398"><ele>891.0</ele><time>2026-04-06T15:31:58.011Z</time></trkpt><trkpt lat="40.1739645" lon="9.5269756"><ele>891.0</ele><time>2026-04-06T15:31:59.011Z</time></trkpt><trkpt lat="40.1741066" lon="9.5270077"><ele>891.0</ele><time>2026-04-06T15:32:00.011Z</time></trkpt><trkpt lat="40.1742536" lon="9.5270519"><ele>891.0</ele><time>2026-04-06T15:32:01.01Z</time></trkpt><trkpt lat="40.1743986" lon="9.5270877"><ele>895.75</ele><time>2026-04-06T15:32:02.011Z</time></trkpt><trkpt lat="40.1745463" lon="9.5271319"><ele>900.5</ele><time>2026-04-06T15:32:03.011Z</time></trkpt><trkpt lat="40.1746903" lon="9.5271693"><ele>905.25</ele><time>2026-04-06T15:32:04.011Z</time></trkpt><trkpt lat="40.1748289" lon="9.5272098"><ele>910.0</ele><time>2026-04-06T15:32:05.011Z</time></trkpt><trkpt lat="40.1749605" lon="9.5272472"><ele>910.0</ele><time>2026-04-06T15:32:06.011Z</time></trkpt><trkpt lat="40.1750835" lon="9.527262"><ele>910.0</ele><time>2026-04-06T15:32:07.011Z</time></trkpt><trkpt lat="40.1752109" lon="9.527255"><ele>910.0</ele><time>2026-04-06T15:32:08.011Z</time></trkpt><trkpt lat="40.1753324" lon="9.5272548"><ele>910.0</ele><time>2026-04-06T15:32:09.011Z</time></trkpt><trkpt lat="40.1754527" lon="9.5272793"><ele>910.0</ele><time>2026-04-06T15:32:10.011Z</time></trkpt><trkpt lat="40.175568" lon="9.5273197"><ele>910.0</ele><time>2026-04-06T15:32:11.01Z</time></trkpt><trkpt lat="40.1756843" lon="9.5273243"><ele>910.0</ele><time>2026-04-06T15:32:12.01Z</time></trkpt><trkpt lat="40.1757985" lon="9.5272821"><ele>910.0</ele><time>2026-04-06T15:32:13.011Z</time></trkpt><trkpt lat="40.1759086" lon="9.5272108"><ele>909.25</ele><time>2026-04-06T15:32:14.011Z</time></trkpt><trkpt lat="40.1760218" lon="9.527132"><ele>908.5</ele><time>2026-04-06T15:32:15.011Z</time></trkpt><trkpt lat="40.1761373" lon="9.5270792"><ele>907.75</ele><time>2026-04-06T15:32:16.011Z</time></trkpt><trkpt lat="40.1762682" lon="9.5270593"><ele>907.0</ele><time>2026-04-06T15:32:17.011Z</time></trkpt><trkpt lat="40.1764115" lon="9.527081"><ele>903.3333333333333</ele><time>2026-04-06T15:32:18.011Z</time></trkpt><trkpt lat="40.1765578" lon="9.5271334"><ele>899.6666666666667</ele><time>2026-04-06T15:32:19.011Z</time></trkpt><trkpt lat="40.1767106" lon="9.527222"><ele>896.0</ele><time>2026-04-06T15:32:20.011Z</time></trkpt><trkpt lat="40.1768531" lon="9.5273094"><ele>896.0</ele><time>2026-04-06T15:32:21.01Z</time></trkpt><trkpt lat="40.1769934" lon="9.5274005"><ele>896.0</ele><time>2026-04-06T15:32:22.011Z</time></trkpt><trkpt lat="40.1771348" lon="9.5275012"><ele>896.0</ele><time>2026-04-06T15:32:23.011Z</time></trkpt><trkpt lat="40.1772595" lon="9.5276193"><ele>892.3333333333334</ele><time>2026-04-06T15:32:24.011Z</time></trkpt><trkpt lat="40.1773633" lon="9.5277626"><ele>888.6666666666667</ele><time>2026-04-06T15:32:25.01Z</time></trkpt><trkpt lat="40.1774605" lon="9.5279228"><ele>885.0</ele><time>2026-04-06T15:32:26.011Z</time></trkpt><trkpt lat="40.1775511" lon="9.5280756"><ele>885.0</ele><time>2026-04-06T15:32:27.011Z</time></trkpt><trkpt lat="40.1776375" lon="9.5282175"><ele>885.0</ele><time>2026-04-06T15:32:28.011Z</time></trkpt><trkpt lat="40.1777238" lon="9.5283592"><ele>885.0</ele><time>2026-04-06T15:32:29.011Z</time></trkpt><trkpt lat="40.177819" lon="9.528504"><ele>885.0</ele><time>2026-04-06T15:32:30.011Z</time></trkpt><trkpt lat="40.1779284" lon="9.5286339"><ele>883.5</ele><time>2026-04-06T15:32:31.011Z</time></trkpt><trkpt lat="40.1780468" lon="9.5287545"><ele>882.0</ele><time>2026-04-06T15:32:32.011Z</time></trkpt><trkpt lat="40.1781705" lon="9.5288656"><ele>880.5</ele><time>2026-04-06T15:32:33.011Z</time></trkpt><trkpt lat="40.1782959" lon="9.5289705"><ele>879.0</ele><time>2026-04-06T15:32:34.011Z</time></trkpt><trkpt lat="40.1784224" lon="9.5290497"><ele>879.0</ele><time>2026-04-06T15:32:35.011Z</time></trkpt><trkpt lat="40.1785472" lon="9.5290911"><ele>879.0</ele><time>2026-04-06T15:32:36.011Z</time></trkpt><trkpt lat="40.1786667" lon="9.5291116"><ele>879.0</ele><time>2026-04-06T15:32:37.011Z</time></trkpt><trkpt lat="40.178779" lon="9.5291616"><ele>879.0</ele><time>2026-04-06T15:32:38.011Z</time></trkpt><trkpt lat="40.178875" lon="9.52924"><ele>879.0</ele><time>2026-04-06T15:32:39.01Z</time></trkpt><trkpt lat="40.1789433" lon="9.5293506"><ele>879.0</ele><time>2026-04-06T15:32:40.011Z</time></trkpt><trkpt lat="40.1789961" lon="9.529484"><ele>879.0</ele><time>2026-04-06T15:32:41.011Z</time></trkpt><trkpt lat="40.1790477" lon="9.52962"><ele>879.0</ele><time>2026-04-06T15:32:42.01Z</time></trkpt><trkpt lat="40.1791174" lon="9.5297496"><ele>876.25</ele><time>2026-04-06T15:32:43.01Z</time></trkpt><trkpt lat="40.1791877" lon="9.5298743"><ele>873.5</ele><time>2026-04-06T15:32:44.011Z</time></trkpt><trkpt lat="40.1792482" lon="9.5300059"><ele>870.75</ele><time>2026-04-06T15:32:45.011Z</time></trkpt><trkpt lat="40.1792904" lon="9.5301422"><ele>868.0</ele><time>2026-04-06T15:32:46.01Z</time></trkpt><trkpt lat="40.1792983" lon="9.5302811"><ele>867.75</ele><time>2026-04-06T15:32:47.011Z</time></trkpt><trkpt lat="40.1792728" lon="9.5304268"><ele>867.5</ele><time>2026-04-06T15:32:48.011Z</time></trkpt><trkpt lat="40.1792246" lon="9.5305707"><ele>867.25</ele><time>2026-04-06T15:32:49.01Z</time></trkpt><trkpt lat="40.1791756" lon="9.5307285"><ele>867.0</ele><time>2026-04-06T15:32:50.011Z</time></trkpt><trkpt lat="40.1791287" lon="9.5308887"><ele>867.0</ele><time>2026-04-06T15:32:51.011Z</time></trkpt><trkpt lat="40.1790912" lon="9.531055"><ele>867.0</ele><time>2026-04-06T15:32:52.011Z</time></trkpt><trkpt lat="40.1790656" lon="9.5312138"><ele>867.0</ele><time>2026-04-06T15:32:53.011Z</time></trkpt><trkpt lat="40.1790411" lon="9.5313682"><ele>867.0</ele><time>2026-04-06T15:32:54.011Z</time></trkpt><trkpt lat="40.1790424" lon="9.5315367"><ele>866.25</ele><time>2026-04-06T15:32:55.01Z</time></trkpt><trkpt lat="40.1790643" lon="9.5317165"><ele>865.5</ele><time>2026-04-06T15:32:56.011Z</time></trkpt><trkpt lat="40.1790645" lon="9.5319044"><ele>864.75</ele><time>2026-04-06T15:32:57.011Z</time></trkpt><trkpt lat="40.1790421" lon="9.5320778"><ele>864.0</ele><time>2026-04-06T15:32:58.01Z</time></trkpt><trkpt lat="40.1790245" lon="9.5322348"><ele>864.0</ele><time>2026-04-06T15:32:59.011Z</time></trkpt><trkpt lat="40.1790263" lon="9.5323787"><ele>864.0000000000001</ele><time>2026-04-06T15:33:00.011Z</time></trkpt><trkpt lat="40.1790562" lon="9.5325098"><ele>864.0000000000001</ele><time>2026-04-06T15:33:01.011Z</time></trkpt><trkpt lat="40.1791234" lon="9.5326255"><ele>864.0</ele><time>2026-04-06T15:33:02.011Z</time></trkpt><trkpt lat="40.1792207" lon="9.5327176"><ele>864.0</ele><time>2026-04-06T15:33:03.01Z</time></trkpt><trkpt lat="40.1793425" lon="9.5327779"><ele>864.0</ele><time>2026-04-06T15:33:04.011Z</time></trkpt><trkpt lat="40.1794816" lon="9.5328173"><ele>864.0</ele><time>2026-04-06T15:33:05.01Z</time></trkpt><trkpt lat="40.1796322" lon="9.5328464"><ele>864.0</ele><time>2026-04-06T15:33:06.011Z</time></trkpt><trkpt lat="40.1797895" lon="9.5328558"><ele>857.3333333333333</ele><time>2026-04-06T15:33:07.011Z</time></trkpt><trkpt lat="40.1799528" lon="9.5328338"><ele>850.6666666666666</ele><time>2026-04-06T15:33:08.01Z</time></trkpt><trkpt lat="40.1801099" lon="9.5328082"><ele>844.0</ele><time>2026-04-06T15:33:09.011Z</time></trkpt><trkpt lat="40.1802679" lon="9.5327971"><ele>844.0</ele><time>2026-04-06T15:33:10.011Z</time></trkpt><trkpt lat="40.1804238" lon="9.532807"><ele>844.0</ele><time>2026-04-06T15:33:11.01Z</time></trkpt><trkpt lat="40.1805789" lon="9.5328462"><ele>844.0</ele><time>2026-04-06T15:33:12.011Z</time></trkpt><trkpt lat="40.1807316" lon="9.5328906"><ele>857.6666666666666</ele><time>2026-04-06T15:33:13.011Z</time></trkpt><trkpt lat="40.1808826" lon="9.5329408"><ele>871.3333333333333</ele><time>2026-04-06T15:33:14.011Z</time></trkpt><trkpt lat="40.181034" lon="9.5329889"><ele>885.0</ele><time>2026-04-06T15:33:15.011Z</time></trkpt><trkpt lat="40.1811769" lon="9.5330155"><ele>885.0</ele><time>2026-04-06T15:33:16.011Z</time></trkpt><trkpt lat="40.1813251" lon="9.5329976"><ele>885.0</ele><time>2026-04-06T15:33:17.01Z</time></trkpt><trkpt lat="40.1814607" lon="9.5329347"><ele>885.0</ele><time>2026-04-06T15:33:18.01Z</time></trkpt><trkpt lat="40.1815904" lon="9.5328716"><ele>885.0</ele><time>2026-04-06T15:33:19.011Z</time></trkpt><trkpt lat="40.1817195" lon="9.5328385"><ele>882.75</ele><time>2026-04-06T15:33:20.011Z</time></trkpt><trkpt lat="40.1818525" lon="9.5328506"><ele>880.5</ele><time>2026-04-06T15:33:21.011Z</time></trkpt><trkpt lat="40.1819938" lon="9.5329019"><ele>878.25</ele><time>2026-04-06T15:33:22.011Z</time></trkpt><trkpt lat="40.1821349" lon="9.5329643"><ele>876.0</ele><time>2026-04-06T15:33:23.01Z</time></trkpt><trkpt lat="40.1822825" lon="9.5330413"><ele>873.6666666666667</ele><time>2026-04-06T15:33:24.011Z</time></trkpt><trkpt lat="40.182424" lon="9.533111"><ele>871.3333333333334</ele><time>2026-04-06T15:33:25.01Z</time></trkpt><trkpt lat="40.1825786" lon="9.5331692"><ele>869.0</ele><time>2026-04-06T15:33:26.011Z</time></trkpt><trkpt lat="40.1827422" lon="9.5332103"><ele>869.0</ele><time>2026-04-06T15:33:27.011Z</time></trkpt><trkpt lat="40.1829214" lon="9.533237"><ele>869.0</ele><time>2026-04-06T15:33:28.01Z</time></trkpt><trkpt lat="40.1831027" lon="9.5332634"><ele>869.0</ele><time>2026-04-06T15:33:29.011Z</time></trkpt><trkpt lat="40.183288" lon="9.533286"><ele>864.0</ele><time>2026-04-06T15:33:30.011Z</time></trkpt><trkpt lat="40.18348" lon="9.5333188"><ele>859.0</ele><time>2026-04-06T15:33:31.011Z</time></trkpt><trkpt lat="40.183671" lon="9.5333689"><ele>854.0</ele><time>2026-04-06T15:33:32.01Z</time></trkpt><trkpt lat="40.1838394" lon="9.533428"><ele>854.0</ele><time>2026-04-06T15:33:33.01Z</time></trkpt><trkpt lat="40.1839907" lon="9.5334809"><ele>854.0</ele><time>2026-04-06T15:33:34.011Z</time></trkpt><trkpt lat="40.1841306" lon="9.533554"><ele>854.0</ele><time>2026-04-06T15:33:35.011Z</time></trkpt><trkpt lat="40.1842509" lon="9.5336471"><ele>854.0</ele><time>2026-04-06T15:33:36.01Z</time></trkpt><trkpt lat="40.1843419" lon="9.5337629"><ele>857.25</ele><time>2026-04-06T15:33:37.011Z</time></trkpt><trkpt lat="40.1844055" lon="9.5338987"><ele>860.5</ele><time>2026-04-06T15:33:38.01Z</time></trkpt><trkpt lat="40.1844455" lon="9.5340402"><ele>863.75</ele><time>2026-04-06T15:33:39.011Z</time></trkpt><trkpt lat="40.184489" lon="9.5341815"><ele>867.0</ele><time>2026-04-06T15:33:40.01Z</time></trkpt><trkpt lat="40.18455" lon="9.5343023"><ele>867.0</ele><time>2026-04-06T15:33:41.01Z</time></trkpt><trkpt lat="40.1846416" lon="9.5343755"><ele>867.0</ele><time>2026-04-06T15:33:42.011Z</time></trkpt><trkpt lat="40.184737" lon="9.5344609"><ele>867.0</ele><time>2026-04-06T15:33:43.01Z</time></trkpt><trkpt lat="40.1849025" lon="9.5343744"><ele>867.0</ele><time>2026-04-06T15:33:44.01Z</time></trkpt><trkpt lat="40.1850384" lon="9.5343482"><ele>859.75</ele><time>2026-04-06T15:33:45.011Z</time></trkpt><trkpt lat="40.1851746" lon="9.534341"><ele>852.5</ele><time>2026-04-06T15:33:46.01Z</time></trkpt><trkpt lat="40.1852997" lon="9.5343432"><ele>845.25</ele><time>2026-04-06T15:33:47.011Z</time></trkpt><trkpt lat="40.1853843" lon="9.5343987"><ele>838.0</ele><time>2026-04-06T15:33:48.011Z</time></trkpt><trkpt lat="40.1854503" lon="9.5344887"><ele>845.25</ele><time>2026-04-06T15:33:49.01Z</time></trkpt><trkpt lat="40.1855016" lon="9.5346044"><ele>852.5</ele><time>2026-04-06T15:33:50.011Z</time></trkpt><trkpt lat="40.1855485" lon="9.5347383"><ele>859.75</ele><time>2026-04-06T15:33:51.011Z</time></trkpt><trkpt lat="40.1855952" lon="9.5348785"><ele>867.0</ele><time>2026-04-06T15:33:52.011Z</time></trkpt><trkpt lat="40.1856372" lon="9.5350358"><ele>867.0</ele><time>2026-04-06T15:33:53.011Z</time></trkpt><trkpt lat="40.1856472" lon="9.5351987"><ele>867.0</ele><time>2026-04-06T15:33:54.01Z</time></trkpt><trkpt lat="40.1856461" lon="9.5353662"><ele>867.0</ele><time>2026-04-06T15:33:55.011Z</time></trkpt><trkpt lat="40.1856461" lon="9.5355241"><ele>867.0</ele><time>2026-04-06T15:33:56.011Z</time></trkpt><trkpt lat="40.1856512" lon="9.5356678"><ele>867.4000000000001</ele><time>2026-04-06T15:33:57.011Z</time></trkpt><trkpt lat="40.1856756" lon="9.5357938"><ele>867.8000000000001</ele><time>2026-04-06T15:33:58.011Z</time></trkpt><trkpt lat="40.1857342" lon="9.5359067"><ele>868.2</ele><time>2026-04-06T15:33:59.011Z</time></trkpt><trkpt lat="40.1858254" lon="9.5360059"><ele>868.6</ele><time>2026-04-06T15:34:00.01Z</time></trkpt><trkpt lat="40.1859215" lon="9.5361082"><ele>869.0</ele><time>2026-04-06T15:34:01.011Z</time></trkpt><trkpt lat="40.1859967" lon="9.5362219"><ele>869.0</ele><time>2026-04-06T15:34:02.011Z</time></trkpt><trkpt lat="40.186081" lon="9.5363111"><ele>869.0000000000001</ele><time>2026-04-06T15:34:03.011Z</time></trkpt><trkpt lat="40.1861776" lon="9.5363605"><ele>869.0000000000001</ele><time>2026-04-06T15:34:04.011Z</time></trkpt><trkpt lat="40.1862865" lon="9.5363415"><ele>869.0</ele><time>2026-04-06T15:34:05.01Z</time></trkpt><trkpt lat="40.1863983" lon="9.5362783"><ele>869.0</ele><time>2026-04-06T15:34:06.01Z</time></trkpt><trkpt lat="40.1864973" lon="9.536168"><ele>859.0</ele><time>2026-04-06T15:34:07.01Z</time></trkpt><trkpt lat="40.186598" lon="9.5360467"><ele>849.0</ele><time>2026-04-06T15:34:08.01Z</time></trkpt><trkpt lat="40.1867186" lon="9.5359403"><ele>839.0</ele><time>2026-04-06T15:34:09.01Z</time></trkpt><trkpt lat="40.1868383" lon="9.5358367"><ele>829.0</ele><time>2026-04-06T15:34:10.011Z</time></trkpt><trkpt lat="40.1869472" lon="9.5357425"><ele>829.0</ele><time>2026-04-06T15:34:11.011Z</time></trkpt><trkpt lat="40.1870479" lon="9.5356516"><ele>829.0</ele><time>2026-04-06T15:34:12.01Z</time></trkpt><trkpt lat="40.1871476" lon="9.5355807"><ele>829.0</ele><time>2026-04-06T15:34:13.01Z</time></trkpt><trkpt lat="40.187256" lon="9.5355489"><ele>829.0</ele><time>2026-04-06T15:34:14.011Z</time></trkpt><trkpt lat="40.1873624" lon="9.535575"><ele>829.5</ele><time>2026-04-06T15:34:15.011Z</time></trkpt><trkpt lat="40.1874541" lon="9.5356552"><ele>830.0</ele><time>2026-04-06T15:34:16.011Z</time></trkpt><trkpt lat="40.1875449" lon="9.5357569"><ele>830.5</ele><time>2026-04-06T15:34:17.01Z</time></trkpt><trkpt lat="40.1876432" lon="9.5358518"><ele>831.0</ele><time>2026-04-06T15:34:18.011Z</time></trkpt><trkpt lat="40.1877517" lon="9.5359406"><ele>831.0</ele><time>2026-04-06T15:34:19.01Z</time></trkpt><trkpt lat="40.1878659" lon="9.5360278"><ele>831.0</ele><time>2026-04-06T15:34:20.01Z</time></trkpt><trkpt lat="40.1879863" lon="9.5360923"><ele>831.0</ele><time>2026-04-06T15:34:21.011Z</time></trkpt><trkpt lat="40.1881125" lon="9.5361152"><ele>831.0</ele><time>2026-04-06T15:34:22.011Z</time></trkpt><trkpt lat="40.1882395" lon="9.5360856"><ele>829.5</ele><time>2026-04-06T15:34:23.011Z</time></trkpt><trkpt lat="40.1883579" lon="9.5360055"><ele>828.0</ele><time>2026-04-06T15:34:24.01Z</time></trkpt><trkpt lat="40.1884732" lon="9.535905"><ele>826.5</ele><time>2026-04-06T15:34:25.011Z</time></trkpt><trkpt lat="40.1885933" lon="9.5358104"><ele>825.0</ele><time>2026-04-06T15:34:26.011Z</time></trkpt><trkpt lat="40.1887052" lon="9.5357385"><ele>825.0</ele><time>2026-04-06T15:34:27.011Z</time></trkpt><trkpt lat="40.1888083" lon="9.5356747"><ele>825.0</ele><time>2026-04-06T15:34:28.01Z</time></trkpt><trkpt lat="40.1889038" lon="9.5356322"><ele>825.0</ele><time>2026-04-06T15:34:29.011Z</time></trkpt><trkpt lat="40.1889952" lon="9.5356166"><ele>825.0</ele><time>2026-04-06T15:34:30.011Z</time></trkpt><trkpt lat="40.1890801" lon="9.5356256"><ele>825.0</ele><time>2026-04-06T15:34:31.01Z</time></trkpt><trkpt lat="40.1891628" lon="9.5356657"><ele>825.6666666666666</ele><time>2026-04-06T15:34:32.01Z</time></trkpt><trkpt lat="40.1892485" lon="9.5357076"><ele>826.3333333333333</ele><time>2026-04-06T15:34:33.011Z</time></trkpt><trkpt lat="40.189331" lon="9.5357519"><ele>827.0</ele><time>2026-04-06T15:34:34.011Z</time></trkpt><trkpt lat="40.1894142" lon="9.5357923"><ele>827.6666666666666</ele><time>2026-04-06T15:34:35.011Z</time></trkpt><trkpt lat="40.1894993" lon="9.5358316"><ele>828.3333333333333</ele><time>2026-04-06T15:34:36.011Z</time></trkpt><trkpt lat="40.1895832" lon="9.5358717"><ele>829.0</ele><time>2026-04-06T15:34:37.011Z</time></trkpt><trkpt lat="40.1896654" lon="9.535918"><ele>829.0</ele><time>2026-04-06T15:34:38.011Z</time></trkpt><trkpt lat="40.1897475" lon="9.5359788"><ele>829.0</ele><time>2026-04-06T15:34:39.011Z</time></trkpt><trkpt lat="40.1898154" lon="9.5360627"><ele>829.0</ele><time>2026-04-06T15:34:40.011Z</time></trkpt><trkpt lat="40.1898635" lon="9.5361693"><ele>829.0</ele><time>2026-04-06T15:34:41.011Z</time></trkpt><trkpt lat="40.1899108" lon="9.5362831"><ele>829.0</ele><time>2026-04-06T15:34:42.011Z</time></trkpt><trkpt lat="40.18996" lon="9.5363997"><ele>831.4000000000001</ele><time>2026-04-06T15:34:43.011Z</time></trkpt><trkpt lat="40.1900186" lon="9.5365069"><ele>833.8</ele><time>2026-04-06T15:34:44.011Z</time></trkpt><trkpt lat="40.1900973" lon="9.5365896"><ele>836.2</ele><time>2026-04-06T15:34:45.01Z</time></trkpt><trkpt lat="40.1901867" lon="9.5366242"><ele>838.5999999999999</ele><time>2026-04-06T15:34:46.011Z</time></trkpt><trkpt lat="40.1902781" lon="9.5366112"><ele>841.0</ele><time>2026-04-06T15:34:47.011Z</time></trkpt><trkpt lat="40.1903721" lon="9.5365657"><ele>841.0</ele><time>2026-04-06T15:34:48.011Z</time></trkpt><trkpt lat="40.1904741" lon="9.5365371"><ele>841.0</ele><time>2026-04-06T15:34:49.011Z</time></trkpt><trkpt lat="40.1905822" lon="9.5365341"><ele>841.0</ele><time>2026-04-06T15:34:50.01Z</time></trkpt><trkpt lat="40.1906972" lon="9.5365309"><ele>841.0</ele><time>2026-04-06T15:34:51.011Z</time></trkpt><trkpt lat="40.1908173" lon="9.5364765"><ele>841.5</ele><time>2026-04-06T15:34:52.01Z</time></trkpt><trkpt lat="40.190936" lon="9.5363801"><ele>842.0</ele><time>2026-04-06T15:34:53.01Z</time></trkpt><trkpt lat="40.1910556" lon="9.5362748"><ele>842.5</ele><time>2026-04-06T15:34:54.011Z</time></trkpt><trkpt lat="40.191195" lon="9.5361846"><ele>843.0</ele><time>2026-04-06T15:34:55.011Z</time></trkpt><trkpt lat="40.191344" lon="9.5361047"><ele>834.6666666666667</ele><time>2026-04-06T15:34:56.011Z</time></trkpt><trkpt lat="40.1915032" lon="9.5360259"><ele>826.3333333333334</ele><time>2026-04-06T15:34:57.011Z</time></trkpt><trkpt lat="40.1916677" lon="9.5359395"><ele>818.0</ele><time>2026-04-06T15:34:58.011Z</time></trkpt><trkpt lat="40.1918283" lon="9.5358515"><ele>818.0</ele><time>2026-04-06T15:34:59.011Z</time></trkpt><trkpt lat="40.1919966" lon="9.5357629"><ele>818.0</ele><time>2026-04-06T15:35:00.01Z</time></trkpt><trkpt lat="40.1921675" lon="9.5357018"><ele>818.0</ele><time>2026-04-06T15:35:01.01Z</time></trkpt><trkpt lat="40.192321" lon="9.5356721"><ele>819.0</ele><time>2026-04-06T15:35:02.011Z</time></trkpt><trkpt lat="40.1924527" lon="9.5356598"><ele>820.0</ele><time>2026-04-06T15:35:03.011Z</time></trkpt><trkpt lat="40.1925708" lon="9.5356852"><ele>821.0</ele><time>2026-04-06T15:35:04.01Z</time></trkpt><trkpt lat="40.1926693" lon="9.5357477"><ele>822.0</ele><time>2026-04-06T15:35:05.011Z</time></trkpt><trkpt lat="40.1927297" lon="9.5358469"><ele>822.0</ele><time>2026-04-06T15:35:06.011Z</time></trkpt><trkpt lat="40.1927502" lon="9.5359768"><ele>822.0</ele><time>2026-04-06T15:35:07.01Z</time></trkpt><trkpt lat="40.1927609" lon="9.5361141"><ele>822.0</ele><time>2026-04-06T15:35:08.011Z</time></trkpt><trkpt lat="40.192812" lon="9.5362477"><ele>822.0</ele><time>2026-04-06T15:35:09.011Z</time></trkpt><trkpt lat="40.1929033" lon="9.5363734"><ele>820.5</ele><time>2026-04-06T15:35:10.01Z</time></trkpt><trkpt lat="40.1930029" lon="9.5364954"><ele>819.0</ele><time>2026-04-06T15:35:11.01Z</time></trkpt><trkpt lat="40.1931102" lon="9.5366229"><ele>817.5</ele><time>2026-04-06T15:35:12.011Z</time></trkpt><trkpt lat="40.193224" lon="9.5367533"><ele>816.0</ele><time>2026-04-06T15:35:13.011Z</time></trkpt><trkpt lat="40.1933413" lon="9.5368925"><ele>816.0</ele><time>2026-04-06T15:35:14.011Z</time></trkpt><trkpt lat="40.1934574" lon="9.5370292"><ele>816.0</ele><time>2026-04-06T15:35:15.011Z</time></trkpt><trkpt lat="40.1935717" lon="9.5371547"><ele>816.0</ele><time>2026-04-06T15:35:16.011Z</time></trkpt><trkpt lat="40.1936643" lon="9.5372575"><ele>816.0</ele><time>2026-04-06T15:35:17.011Z</time></trkpt><trkpt lat="40.1937528" lon="9.5373458"><ele>822.1999999999999</ele><time>2026-04-06T15:35:18.01Z</time></trkpt><trkpt lat="40.1938433" lon="9.5373882"><ele>828.4</ele><time>2026-04-06T15:35:19.011Z</time></trkpt><trkpt lat="40.1939388" lon="9.5373818"><ele>834.6</ele><time>2026-04-06T15:35:20.01Z</time></trkpt><trkpt lat="40.1940386" lon="9.5373188"><ele>840.8</ele><time>2026-04-06T15:35:21.011Z</time></trkpt><trkpt lat="40.1941293" lon="9.537219"><ele>847.0</ele><time>2026-04-06T15:35:22.011Z</time></trkpt><trkpt lat="40.1942178" lon="9.5371283"><ele>847.0</ele><time>2026-04-06T15:35:23.01Z</time></trkpt><trkpt lat="40.1943259" lon="9.5370701"><ele>847.0</ele><time>2026-04-06T15:35:24.011Z</time></trkpt><trkpt lat="40.1944464" lon="9.537056"><ele>847.0</ele><time>2026-04-06T15:35:25.011Z</time></trkpt><trkpt lat="40.1945716" lon="9.537075"><ele>847.0</ele><time>2026-04-06T15:35:26.011Z</time></trkpt><trkpt lat="40.1946921" lon="9.5371082"><ele>847.0</ele><time>2026-04-06T15:35:27.011Z</time></trkpt><trkpt lat="40.1947931" lon="9.53716"><ele>847.0</ele><time>2026-04-06T15:35:28.011Z</time></trkpt><trkpt lat="40.1948726" lon="9.5372506"><ele>847.0</ele><time>2026-04-06T15:35:29.011Z</time></trkpt><trkpt lat="40.1949377" lon="9.537348"><ele>847.0</ele><time>2026-04-06T15:35:30.011Z</time></trkpt><trkpt lat="40.195005" lon="9.5374376"><ele>847.0</ele><time>2026-04-06T15:35:31.01Z</time></trkpt><trkpt lat="40.195086" lon="9.5375049"><ele>845.5</ele><time>2026-04-06T15:35:32.011Z</time></trkpt><trkpt lat="40.1951799" lon="9.5375454"><ele>844.0</ele><time>2026-04-06T15:35:33.011Z</time></trkpt><trkpt lat="40.1952839" lon="9.5375089"><ele>842.5</ele><time>2026-04-06T15:35:34.011Z</time></trkpt><trkpt lat="40.1953931" lon="9.5374383"><ele>841.0</ele><time>2026-04-06T15:35:35.011Z</time></trkpt><trkpt lat="40.1955077" lon="9.5373496"><ele>841.0</ele><time>2026-04-06T15:35:36.011Z</time></trkpt><trkpt lat="40.1956172" lon="9.5372283"><ele>841.0</ele><time>2026-04-06T15:35:37.011Z</time></trkpt><trkpt lat="40.1957195" lon="9.5370698"><ele>841.0</ele><time>2026-04-06T15:35:38.01Z</time></trkpt><trkpt lat="40.195819" lon="9.5368958"><ele>835.0</ele><time>2026-04-06T15:35:39.01Z</time></trkpt><trkpt lat="40.195926" lon="9.5367212"><ele>829.0</ele><time>2026-04-06T15:35:40.011Z</time></trkpt><trkpt lat="40.19605" lon="9.5365566"><ele>823.0</ele><time>2026-04-06T15:35:41.01Z</time></trkpt><trkpt lat="40.1962002" lon="9.5364177"><ele>823.0</ele><time>2026-04-06T15:35:42.011Z</time></trkpt><trkpt lat="40.1963671" lon="9.5363035"><ele>823.0</ele><time>2026-04-06T15:35:43.011Z</time></trkpt><trkpt lat="40.1965423" lon="9.5361982"><ele>823.0</ele><time>2026-04-06T15:35:44.011Z</time></trkpt><trkpt lat="40.1967071" lon="9.5361084"><ele>820.5</ele><time>2026-04-06T15:35:45.011Z</time></trkpt><trkpt lat="40.1968587" lon="9.5360349"><ele>818.0</ele><time>2026-04-06T15:35:46.01Z</time></trkpt><trkpt lat="40.1969881" lon="9.5359884"><ele>815.5</ele><time>2026-04-06T15:35:47.011Z</time></trkpt><trkpt lat="40.1970998" lon="9.5359584"><ele>813.0</ele><time>2026-04-06T15:35:48.011Z</time></trkpt><trkpt lat="40.1971955" lon="9.5359594"><ele>813.0</ele><time>2026-04-06T15:35:49.011Z</time></trkpt><trkpt lat="40.1972716" lon="9.5359957"><ele>813.0</ele><time>2026-04-06T15:35:50.011Z</time></trkpt><trkpt lat="40.1973196" lon="9.5360639"><ele>813.0</ele><time>2026-04-06T15:35:51.011Z</time></trkpt><trkpt lat="40.197345" lon="9.5361619"><ele>813.0</ele><time>2026-04-06T15:35:52.011Z</time></trkpt><trkpt lat="40.1973592" lon="9.5362807"><ele>813.0</ele><time>2026-04-06T15:35:53.011Z</time></trkpt><trkpt lat="40.1973646" lon="9.5364266"><ele>813.0</ele><time>2026-04-06T15:35:54.011Z</time></trkpt><trkpt lat="40.1973689" lon="9.5365942"><ele>815.0</ele><time>2026-04-06T15:35:55.011Z</time></trkpt><trkpt lat="40.1973757" lon="9.5367795"><ele>817.0</ele><time>2026-04-06T15:35:56.011Z</time></trkpt><trkpt lat="40.1973876" lon="9.5369741"><ele>819.0</ele><time>2026-04-06T15:35:57.011Z</time></trkpt><trkpt lat="40.1974043" lon="9.5371768"><ele>821.0</ele><time>2026-04-06T15:35:58.01Z</time></trkpt><trkpt lat="40.1974143" lon="9.5373816"><ele>821.0</ele><time>2026-04-06T15:35:59.011Z</time></trkpt><trkpt lat="40.197415" lon="9.5375825"><ele>821.0</ele><time>2026-04-06T15:36:00.011Z</time></trkpt><trkpt lat="40.1974022" lon="9.5377692"><ele>821.0</ele><time>2026-04-06T15:36:01.011Z</time></trkpt><trkpt lat="40.1973849" lon="9.5379448"><ele>821.0</ele><time>2026-04-06T15:36:02.01Z</time></trkpt><trkpt lat="40.1973793" lon="9.5381037"><ele>822.4</ele><time>2026-04-06T15:36:03.011Z</time></trkpt><trkpt lat="40.1973981" lon="9.5382486"><ele>823.8</ele><time>2026-04-06T15:36:04.011Z</time></trkpt><trkpt lat="40.1974541" lon="9.5383649"><ele>825.1999999999999</ele><time>2026-04-06T15:36:05.01Z</time></trkpt><trkpt lat="40.19754" lon="9.5384628"><ele>826.5999999999999</ele><time>2026-04-06T15:36:06.011Z</time></trkpt><trkpt lat="40.1976419" lon="9.5385398"><ele>828.0</ele><time>2026-04-06T15:36:07.01Z</time></trkpt><trkpt lat="40.1977617" lon="9.538607"><ele>828.0</ele><time>2026-04-06T15:36:08.011Z</time></trkpt><trkpt lat="40.1978658" lon="9.5386926"><ele>828.0</ele><time>2026-04-06T15:36:09.011Z</time></trkpt><trkpt lat="40.1979522" lon="9.5387969"><ele>828.0</ele><time>2026-04-06T15:36:10.011Z</time></trkpt><trkpt lat="40.1980295" lon="9.5389106"><ele>828.0</ele><time>2026-04-06T15:36:11.011Z</time></trkpt><trkpt lat="40.1981071" lon="9.5390288"><ele>825.25</ele><time>2026-04-06T15:36:12.011Z</time></trkpt><trkpt lat="40.1981881" lon="9.5391502"><ele>822.5</ele><time>2026-04-06T15:36:13.011Z</time></trkpt><trkpt lat="40.19827" lon="9.5392616"><ele>819.75</ele><time>2026-04-06T15:36:14.011Z</time></trkpt><trkpt lat="40.1983596" lon="9.5393458"><ele>817.0</ele><time>2026-04-06T15:36:15.011Z</time></trkpt><trkpt lat="40.1984691" lon="9.5393649"><ele>817.0</ele><time>2026-04-06T15:36:16.011Z</time></trkpt><trkpt lat="40.1985758" lon="9.5393422"><ele>817.0</ele><time>2026-04-06T15:36:17.011Z</time></trkpt><trkpt lat="40.1986801" lon="9.5392994"><ele>817.0</ele><time>2026-04-06T15:36:18.01Z</time></trkpt><trkpt lat="40.19879" lon="9.5392555"><ele>817.0</ele><time>2026-04-06T15:36:19.01Z</time></trkpt><trkpt lat="40.1989068" lon="9.5392218"><ele>813.5</ele><time>2026-04-06T15:36:20.011Z</time></trkpt><trkpt lat="40.1990191" lon="9.5391961"><ele>810.0</ele><time>2026-04-06T15:36:21.01Z</time></trkpt><trkpt lat="40.1991388" lon="9.5392676"><ele>806.5</ele><time>2026-04-06T15:36:22.011Z</time></trkpt><trkpt lat="40.1992545" lon="9.5393592"><ele>803.0</ele><time>2026-04-06T15:36:23.011Z</time></trkpt><trkpt lat="40.199349" lon="9.5394665"><ele>809.0</ele><time>2026-04-06T15:36:24.011Z</time></trkpt><trkpt lat="40.1994152" lon="9.5396065"><ele>815.0</ele><time>2026-04-06T15:36:25.011Z</time></trkpt><trkpt lat="40.1994316" lon="9.5397612"><ele>821.0</ele><time>2026-04-06T15:36:26.011Z</time></trkpt><trkpt lat="40.19941" lon="9.5399118"><ele>827.0</ele><time>2026-04-06T15:36:27.01Z</time></trkpt><trkpt lat="40.1994016" lon="9.5400561"><ele>827.0</ele><time>2026-04-06T15:36:28.011Z</time></trkpt><trkpt lat="40.1994113" lon="9.5401939"><ele>827.0</ele><time>2026-04-06T15:36:29.011Z</time></trkpt><trkpt lat="40.1994588" lon="9.540311"><ele>827.0</ele><time>2026-04-06T15:36:30.011Z</time></trkpt><trkpt lat="40.1995373" lon="9.5404103"><ele>827.0</ele><time>2026-04-06T15:36:31.011Z</time></trkpt><trkpt lat="40.1996467" lon="9.5404907"><ele>827.0</ele><time>2026-04-06T15:36:32.011Z</time></trkpt><trkpt lat="40.1997707" lon="9.5405701"><ele>824.75</ele><time>2026-04-06T15:36:33.011Z</time></trkpt><trkpt lat="40.1998824" lon="9.5406817"><ele>822.5</ele><time>2026-04-06T15:36:34.011Z</time></trkpt><trkpt lat="40.1999794" lon="9.5407988"><ele>820.25</ele><time>2026-04-06T15:36:35.011Z</time></trkpt><trkpt lat="40.2000868" lon="9.5408915"><ele>818.0</ele><time>2026-04-06T15:36:36.01Z</time></trkpt><trkpt lat="40.2002093" lon="9.5409574"><ele>818.0</ele><time>2026-04-06T15:36:37.01Z</time></trkpt><trkpt lat="40.2003429" lon="9.5409622"><ele>818.0</ele><time>2026-04-06T15:36:38.01Z</time></trkpt><trkpt lat="40.2004799" lon="9.5409209"><ele>818.0</ele><time>2026-04-06T15:36:39.011Z</time></trkpt><trkpt lat="40.2006168" lon="9.5408447"><ele>818.0</ele><time>2026-04-06T15:36:40.011Z</time></trkpt><trkpt lat="40.2007479" lon="9.5407792"><ele>815.75</ele><time>2026-04-06T15:36:41.011Z</time></trkpt><trkpt lat="40.2008781" lon="9.540748"><ele>813.5</ele><time>2026-04-06T15:36:42.01Z</time></trkpt><trkpt lat="40.2010013" lon="9.5407746"><ele>811.25</ele><time>2026-04-06T15:36:43.01Z</time></trkpt><trkpt lat="40.2011092" lon="9.5408408"><ele>809.0</ele><time>2026-04-06T15:36:44.011Z</time></trkpt><trkpt lat="40.201202" lon="9.5409207"><ele>809.0</ele><time>2026-04-06T15:36:45.01Z</time></trkpt><trkpt lat="40.2012799" lon="9.5410363"><ele>809.0</ele><time>2026-04-06T15:36:46.011Z</time></trkpt><trkpt lat="40.2013322" lon="9.5411812"><ele>809.0</ele><time>2026-04-06T15:36:47.01Z</time></trkpt><trkpt lat="40.2013933" lon="9.5413155"><ele>809.0</ele><time>2026-04-06T15:36:48.011Z</time></trkpt><trkpt lat="40.2014774" lon="9.5414323"><ele>810.25</ele><time>2026-04-06T15:36:49.011Z</time></trkpt><trkpt lat="40.2015862" lon="9.5415263"><ele>811.5</ele><time>2026-04-06T15:36:50.011Z</time></trkpt><trkpt lat="40.2017134" lon="9.5415856"><ele>812.75</ele><time>2026-04-06T15:36:51.011Z</time></trkpt><trkpt lat="40.2018546" lon="9.5416208"><ele>814.0</ele><time>2026-04-06T15:36:52.011Z</time></trkpt><trkpt lat="40.2020055" lon="9.541647"><ele>814.0</ele><time>2026-04-06T15:36:53.011Z</time></trkpt><trkpt lat="40.2021583" lon="9.5416679"><ele>814.0</ele><time>2026-04-06T15:36:54.011Z</time></trkpt><trkpt lat="40.2023116" lon="9.5416736"><ele>814.0</ele><time>2026-04-06T15:36:55.011Z</time></trkpt><trkpt lat="40.2024598" lon="9.5416729"><ele>817.25</ele><time>2026-04-06T15:36:56.01Z</time></trkpt><trkpt lat="40.2026021" lon="9.5417079"><ele>820.5</ele><time>2026-04-06T15:36:57.01Z</time></trkpt><trkpt lat="40.2027245" lon="9.5417874"><ele>823.75</ele><time>2026-04-06T15:36:58.01Z</time></trkpt><trkpt lat="40.202816" lon="9.5419394"><ele>827.0</ele><time>2026-04-06T15:36:59.011Z</time></trkpt><trkpt lat="40.2028927" lon="9.5421235"><ele>827.0</ele><time>2026-04-06T15:37:00.01Z</time></trkpt><trkpt lat="40.202985" lon="9.5423035"><ele>827.0</ele><time>2026-04-06T15:37:01.011Z</time></trkpt><trkpt lat="40.2031096" lon="9.5424719"><ele>827.0</ele><time>2026-04-06T15:37:02.011Z</time></trkpt><trkpt lat="40.2032377" lon="9.5426477"><ele>823.0</ele><time>2026-04-06T15:37:03.01Z</time></trkpt><trkpt lat="40.203367" lon="9.5428183"><ele>819.0</ele><time>2026-04-06T15:37:04.011Z</time></trkpt><trkpt lat="40.2034915" lon="9.5429826"><ele>815.0</ele><time>2026-04-06T15:37:05.011Z</time></trkpt><trkpt lat="40.2036162" lon="9.5431248"><ele>815.0</ele><time>2026-04-06T15:37:06.01Z</time></trkpt><trkpt lat="40.2037548" lon="9.5432309"><ele>815.0</ele><time>2026-04-06T15:37:07.011Z</time></trkpt><trkpt lat="40.2039028" lon="9.5433122"><ele>815.0</ele><time>2026-04-06T15:37:08.011Z</time></trkpt><trkpt lat="40.2040486" lon="9.5434006"><ele>815.3333333333334</ele><time>2026-04-06T15:37:09.011Z</time></trkpt><trkpt lat="40.2041897" lon="9.5434989"><ele>815.6666666666667</ele><time>2026-04-06T15:37:10.011Z</time></trkpt><trkpt lat="40.2043108" lon="9.5436113"><ele>816.0</ele><time>2026-04-06T15:37:11.011Z</time></trkpt><trkpt lat="40.2044266" lon="9.5437207"><ele>816.0</ele><time>2026-04-06T15:37:12.011Z</time></trkpt><trkpt lat="40.2045558" lon="9.5437943"><ele>816.0</ele><time>2026-04-06T15:37:13.011Z</time></trkpt><trkpt lat="40.2046906" lon="9.543841"><ele>816.0</ele><time>2026-04-06T15:37:14.011Z</time></trkpt><trkpt lat="40.204832" lon="9.5438941"><ele>816.0</ele><time>2026-04-06T15:37:15.01Z</time></trkpt><trkpt lat="40.2049655" lon="9.5439868"><ele>810.0</ele><time>2026-04-06T15:37:16.011Z</time></trkpt><trkpt lat="40.2050808" lon="9.5441082"><ele>804.0</ele><time>2026-04-06T15:37:17.011Z</time></trkpt><trkpt lat="40.2051892" lon="9.5442333"><ele>798.0</ele><time>2026-04-06T15:37:18.011Z</time></trkpt><trkpt lat="40.2053079" lon="9.5443379"><ele>792.0</ele><time>2026-04-06T15:37:19.011Z</time></trkpt><trkpt lat="40.2054445" lon="9.5444"><ele>792.0</ele><time>2026-04-06T15:37:20.01Z</time></trkpt><trkpt lat="40.205599" lon="9.5444212"><ele>792.0</ele><time>2026-04-06T15:37:21.01Z</time></trkpt><trkpt lat="40.2057575" lon="9.5444149"><ele>792.0</ele><time>2026-04-06T15:37:22.011Z</time></trkpt><trkpt lat="40.2059165" lon="9.5443993"><ele>784.3333333333333</ele><time>2026-04-06T15:37:23.01Z</time></trkpt><trkpt lat="40.2060781" lon="9.5443911"><ele>776.6666666666666</ele><time>2026-04-06T15:37:24.011Z</time></trkpt><trkpt lat="40.2062475" lon="9.544393"><ele>769.0</ele><time>2026-04-06T15:37:25.011Z</time></trkpt><trkpt lat="40.2064177" lon="9.544425"><ele>765.6666666666666</ele><time>2026-04-06T15:37:26.011Z</time></trkpt><trkpt lat="40.2065916" lon="9.5444785"><ele>762.3333333333333</ele><time>2026-04-06T15:37:27.011Z</time></trkpt><trkpt lat="40.2067696" lon="9.5445345"><ele>759.0</ele><time>2026-04-06T15:37:28.01Z</time></trkpt><trkpt lat="40.2069474" lon="9.5445909"><ele>767.0</ele><time>2026-04-06T15:37:29.011Z</time></trkpt><trkpt lat="40.2071231" lon="9.5446387"><ele>775.0</ele><time>2026-04-06T15:37:30.01Z</time></trkpt><trkpt lat="40.2072978" lon="9.5446758"><ele>783.0</ele><time>2026-04-06T15:37:31.01Z</time></trkpt><trkpt lat="40.20747" lon="9.5447042"><ele>783.0</ele><time>2026-04-06T15:37:32.011Z</time></trkpt><trkpt lat="40.2076325" lon="9.5447396"><ele>783.0</ele><time>2026-04-06T15:37:33.01Z</time></trkpt><trkpt lat="40.207788" lon="9.5447912"><ele>783.0</ele><time>2026-04-06T15:37:34.011Z</time></trkpt><trkpt lat="40.2079357" lon="9.5448507"><ele>783.0</ele><time>2026-04-06T15:37:35.01Z</time></trkpt><trkpt lat="40.2080685" lon="9.5449046"><ele>783.0</ele><time>2026-04-06T15:37:36.011Z</time></trkpt><trkpt lat="40.2081951" lon="9.5449546"><ele>783.0</ele><time>2026-04-06T15:37:37.01Z</time></trkpt><trkpt lat="40.2083129" lon="9.5450402"><ele>783.0</ele><time>2026-04-06T15:37:38.01Z</time></trkpt><trkpt lat="40.2083997" lon="9.5451621"><ele>783.0</ele><time>2026-04-06T15:37:39.01Z</time></trkpt><trkpt lat="40.2084816" lon="9.5453058"><ele>783.0</ele><time>2026-04-06T15:37:40.011Z</time></trkpt><trkpt lat="40.2085603" lon="9.5454559"><ele>783.0</ele><time>2026-04-06T15:37:41.01Z</time></trkpt><trkpt lat="40.2086406" lon="9.5456175"><ele>783.0</ele><time>2026-04-06T15:37:42.011Z</time></trkpt><trkpt lat="40.2087285" lon="9.5457829"><ele>783.0</ele><time>2026-04-06T15:37:43.011Z</time></trkpt><trkpt lat="40.2088185" lon="9.545958"><ele>783.0</ele><time>2026-04-06T15:37:44.011Z</time></trkpt><trkpt lat="40.2089091" lon="9.5461391"><ele>783.0</ele><time>2026-04-06T15:37:45.011Z</time></trkpt><trkpt lat="40.2090009" lon="9.546317"><ele>773.3333333333334</ele><time>2026-04-06T15:37:46.01Z</time></trkpt><trkpt lat="40.2090969" lon="9.5464973"><ele>763.6666666666667</ele><time>2026-04-06T15:37:47.01Z</time></trkpt><trkpt lat="40.2091912" lon="9.5466769"><ele>754.0</ele><time>2026-04-06T15:37:48.011Z</time></trkpt><trkpt lat="40.2092908" lon="9.5468525"><ele>754.0</ele><time>2026-04-06T15:37:49.01Z</time></trkpt><trkpt lat="40.2094069" lon="9.5470115"><ele>754.0</ele><time>2026-04-06T15:37:50.011Z</time></trkpt><trkpt lat="40.2095255" lon="9.5471661"><ele>754.0</ele><time>2026-04-06T15:37:51.011Z</time></trkpt><trkpt lat="40.2096425" lon="9.547315"><ele>749.6666666666667</ele><time>2026-04-06T15:37:52.011Z</time></trkpt><trkpt lat="40.2097618" lon="9.547445"><ele>745.3333333333334</ele><time>2026-04-06T15:37:53.01Z</time></trkpt><trkpt lat="40.209877" lon="9.5475772"><ele>741.0</ele><time>2026-04-06T15:37:54.011Z</time></trkpt><trkpt lat="40.2099736" lon="9.547728"><ele>741.0</ele><time>2026-04-06T15:37:55.011Z</time></trkpt><trkpt lat="40.2100527" lon="9.5478747"><ele>741.0</ele><time>2026-04-06T15:37:56.01Z</time></trkpt><trkpt lat="40.2101448" lon="9.5480131"><ele>741.0</ele><time>2026-04-06T15:37:57.011Z</time></trkpt><trkpt lat="40.2102557" lon="9.5481419"><ele>741.0</ele><time>2026-04-06T15:37:58.011Z</time></trkpt><trkpt lat="40.210379" lon="9.5482541"><ele>738.0</ele><time>2026-04-06T15:37:59.01Z</time></trkpt><trkpt lat="40.2105144" lon="9.548362"><ele>735.0</ele><time>2026-04-06T15:38:00.011Z</time></trkpt><trkpt lat="40.2106534" lon="9.5484698"><ele>732.0</ele><time>2026-04-06T15:38:01.011Z</time></trkpt><trkpt lat="40.2107949" lon="9.5485841"><ele>732.0</ele><time>2026-04-06T15:38:02.011Z</time></trkpt><trkpt lat="40.2109364" lon="9.5486943"><ele>732.0</ele><time>2026-04-06T15:38:03.011Z</time></trkpt><trkpt lat="40.2110752" lon="9.5488127"><ele>732.0</ele><time>2026-04-06T15:38:04.01Z</time></trkpt><trkpt lat="40.2112122" lon="9.5489489"><ele>730.3333333333334</ele><time>2026-04-06T15:38:05.01Z</time></trkpt><trkpt lat="40.2113401" lon="9.5491107"><ele>728.6666666666667</ele><time>2026-04-06T15:38:06.011Z</time></trkpt><trkpt lat="40.211462" lon="9.5492806"><ele>727.0</ele><time>2026-04-06T15:38:07.011Z</time></trkpt><trkpt lat="40.2115741" lon="9.5494598"><ele>736.0</ele><time>2026-04-06T15:38:08.01Z</time></trkpt><trkpt lat="40.2116828" lon="9.5496425"><ele>745.0</ele><time>2026-04-06T15:38:09.011Z</time></trkpt><trkpt lat="40.211798" lon="9.5497933"><ele>754.0</ele><time>2026-04-06T15:38:10.011Z</time></trkpt><trkpt lat="40.2119153" lon="9.5499183"><ele>754.0</ele><time>2026-04-06T15:38:11.011Z</time></trkpt><trkpt lat="40.212029" lon="9.5500435"><ele>754.0</ele><time>2026-04-06T15:38:12.01Z</time></trkpt><trkpt lat="40.2121331" lon="9.5501633"><ele>754.0</ele><time>2026-04-06T15:38:13.01Z</time></trkpt><trkpt lat="40.2122304" lon="9.5502794"><ele>754.0</ele><time>2026-04-06T15:38:14.011Z</time></trkpt><trkpt lat="40.2123152" lon="9.5503884"><ele>750.2</ele><time>2026-04-06T15:38:15.011Z</time></trkpt><trkpt lat="40.2123905" lon="9.5504826"><ele>746.4000000000001</ele><time>2026-04-06T15:38:16.01Z</time></trkpt><trkpt lat="40.2124575" lon="9.5505579"><ele>742.6</ele><time>2026-04-06T15:38:17.011Z</time></trkpt><trkpt lat="40.2125113" lon="9.5506224"><ele>738.8</ele><time>2026-04-06T15:38:18.011Z</time></trkpt><trkpt lat="40.2125964" lon="9.5507201"><ele>735.0</ele><time>2026-04-06T15:38:20.011Z</time></trkpt><trkpt lat="40.2126635" lon="9.5507905"><ele>735.0</ele><time>2026-04-06T15:38:22.01Z</time></trkpt><trkpt lat="40.2127149" lon="9.5508484"><ele>735.0</ele><time>2026-04-06T15:38:24.011Z</time></trkpt><trkpt lat="40.2127704" lon="9.5509105"><ele>735.0</ele><time>2026-04-06T15:38:29.01Z</time></trkpt><trkpt lat="40.2128795" lon="9.5510057"><ele>735.0</ele><time>2026-04-06T15:38:31.011Z</time></trkpt><trkpt lat="40.2129597" lon="9.5510722"><ele>735.0</ele><time>2026-04-06T15:38:32.011Z</time></trkpt><trkpt lat="40.2130384" lon="9.5511312"><ele>735.0</ele><time>2026-04-06T15:38:33.01Z</time></trkpt><trkpt lat="40.21312" lon="9.5511895"><ele>735.0</ele><time>2026-04-06T15:38:34.01Z</time></trkpt><trkpt lat="40.2132089" lon="9.551239"><ele>735.0</ele><time>2026-04-06T15:38:35.01Z</time></trkpt><trkpt lat="40.2132959" lon="9.5512906"><ele>735.0</ele><time>2026-04-06T15:38:36.011Z</time></trkpt><trkpt lat="40.213385" lon="9.5513416"><ele>735.0</ele><time>2026-04-06T15:38:37.011Z</time></trkpt><trkpt lat="40.2134731" lon="9.551396"><ele>737.0</ele><time>2026-04-06T15:38:38.011Z</time></trkpt><trkpt lat="40.213559" lon="9.551451"><ele>739.0</ele><time>2026-04-06T15:38:39.01Z</time></trkpt><trkpt lat="40.2136485" lon="9.5515034"><ele>741.0</ele><time>2026-04-06T15:38:40.01Z</time></trkpt><trkpt lat="40.213734" lon="9.5515613"><ele>743.0</ele><time>2026-04-06T15:38:41.011Z</time></trkpt><trkpt lat="40.213821" lon="9.5516107"><ele>745.0</ele><time>2026-04-06T15:38:42.011Z</time></trkpt><trkpt lat="40.213903" lon="9.5516587"><ele>739.0</ele><time>2026-04-06T15:38:43.009Z</time></trkpt><trkpt lat="40.2139906" lon="9.5517059"><ele>733.0</ele><time>2026-04-06T15:38:44.01Z</time></trkpt><trkpt lat="40.2140855" lon="9.5517529"><ele>727.0</ele><time>2026-04-06T15:38:45.01Z</time></trkpt><trkpt lat="40.2141932" lon="9.5517937"><ele>721.0</ele><time>2026-04-06T15:38:46.01Z</time></trkpt><trkpt lat="40.214311" lon="9.5518178"><ele>715.0</ele><time>2026-04-06T15:38:47.01Z</time></trkpt><trkpt lat="40.2144397" lon="9.551829"><ele>715.0</ele><time>2026-04-06T15:38:48.011Z</time></trkpt><trkpt lat="40.2145722" lon="9.5518283"><ele>715.0</ele><time>2026-04-06T15:38:49.011Z</time></trkpt><trkpt lat="40.2147119" lon="9.5518178"><ele>715.0</ele><time>2026-04-06T15:38:50.011Z</time></trkpt><trkpt lat="40.2148573" lon="9.5518095"><ele>715.0</ele><time>2026-04-06T15:38:51.011Z</time></trkpt><trkpt lat="40.2150021" lon="9.5518108"><ele>710.6666666666667</ele><time>2026-04-06T15:38:52.01Z</time></trkpt><trkpt lat="40.2151495" lon="9.551851"><ele>706.3333333333334</ele><time>2026-04-06T15:38:53.01Z</time></trkpt><trkpt lat="40.2152953" lon="9.5519413"><ele>702.0</ele><time>2026-04-06T15:38:54.01Z</time></trkpt><trkpt lat="40.2154413" lon="9.5520291"><ele>710.6666666666666</ele><time>2026-04-06T15:38:55.011Z</time></trkpt><trkpt lat="40.2156033" lon="9.5520957"><ele>719.3333333333333</ele><time>2026-04-06T15:38:56.01Z</time></trkpt><trkpt lat="40.2157636" lon="9.5521461"><ele>728.0</ele><time>2026-04-06T15:38:57.011Z</time></trkpt><trkpt lat="40.215912" lon="9.5521858"><ele>728.0</ele><time>2026-04-06T15:38:58.011Z</time></trkpt><trkpt lat="40.2160579" lon="9.5522139"><ele>728.0</ele><time>2026-04-06T15:38:59.011Z</time></trkpt><trkpt lat="40.2162075" lon="9.552226"><ele>728.0</ele><time>2026-04-06T15:39:00.01Z</time></trkpt><trkpt lat="40.2163515" lon="9.5522148"><ele>728.0</ele><time>2026-04-06T15:39:01.011Z</time></trkpt><trkpt lat="40.2164983" lon="9.5521983"><ele>724.0</ele><time>2026-04-06T15:39:02.011Z</time></trkpt><trkpt lat="40.2166483" lon="9.5522011"><ele>720.0</ele><time>2026-04-06T15:39:03.011Z</time></trkpt><trkpt lat="40.2167962" lon="9.5522205"><ele>716.0</ele><time>2026-04-06T15:39:04.011Z</time></trkpt><trkpt lat="40.2169419" lon="9.5522539"><ele>712.0</ele><time>2026-04-06T15:39:05.011Z</time></trkpt><trkpt lat="40.2170813" lon="9.5523114"><ele>712.0</ele><time>2026-04-06T15:39:06.01Z</time></trkpt><trkpt lat="40.2172172" lon="9.5523953"><ele>712.0</ele><time>2026-04-06T15:39:07.011Z</time></trkpt><trkpt lat="40.2173414" lon="9.5525044"><ele>712.0</ele><time>2026-04-06T15:39:08.01Z</time></trkpt><trkpt lat="40.2174602" lon="9.552629"><ele>706.6666666666667</ele><time>2026-04-06T15:39:09.01Z</time></trkpt><trkpt lat="40.2175864" lon="9.5527491"><ele>701.3333333333334</ele><time>2026-04-06T15:39:10.011Z</time></trkpt><trkpt lat="40.2177196" lon="9.5528424"><ele>696.0</ele><time>2026-04-06T15:39:11.011Z</time></trkpt><trkpt lat="40.2178558" lon="9.5529058"><ele>700.5</ele><time>2026-04-06T15:39:12.011Z</time></trkpt><trkpt lat="40.2179969" lon="9.5529529"><ele>705.0</ele><time>2026-04-06T15:39:13.011Z</time></trkpt><trkpt lat="40.2181357" lon="9.5529624"><ele>709.5</ele><time>2026-04-06T15:39:14.01Z</time></trkpt><trkpt lat="40.2182794" lon="9.5529744"><ele>714.0</ele><time>2026-04-06T15:39:15.011Z</time></trkpt><trkpt lat="40.2184283" lon="9.5530182"><ele>714.0</ele><time>2026-04-06T15:39:16.011Z</time></trkpt><trkpt lat="40.2185648" lon="9.5531068"><ele>714.0</ele><time>2026-04-06T15:39:17.01Z</time></trkpt><trkpt lat="40.2186875" lon="9.553198"><ele>714.0</ele><time>2026-04-06T15:39:18.01Z</time></trkpt><trkpt lat="40.2188082" lon="9.5532689"><ele>714.0</ele><time>2026-04-06T15:39:19.011Z</time></trkpt><trkpt lat="40.2189317" lon="9.5533081"><ele>706.0</ele><time>2026-04-06T15:39:20.01Z</time></trkpt><trkpt lat="40.2190512" lon="9.553314"><ele>698.0</ele><time>2026-04-06T15:39:21.01Z</time></trkpt><trkpt lat="40.2191654" lon="9.5533337"><ele>690.0</ele><time>2026-04-06T15:39:22.011Z</time></trkpt><trkpt lat="40.219274" lon="9.5534029"><ele>682.0</ele><time>2026-04-06T15:39:23.011Z</time></trkpt><trkpt lat="40.219359" lon="9.5535261"><ele>682.0</ele><time>2026-04-06T15:39:24.01Z</time></trkpt><trkpt lat="40.2194328" lon="9.5536402"><ele>682.0</ele><time>2026-04-06T15:39:25.011Z</time></trkpt><trkpt lat="40.2195067" lon="9.553747"><ele>682.0</ele><time>2026-04-06T15:39:26.011Z</time></trkpt><trkpt lat="40.2196054" lon="9.5538214"><ele>682.0</ele><time>2026-04-06T15:39:27.01Z</time></trkpt><trkpt lat="40.219728" lon="9.5538477"><ele>686.5</ele><time>2026-04-06T15:39:28.011Z</time></trkpt><trkpt lat="40.2198659" lon="9.5538638"><ele>691.0</ele><time>2026-04-06T15:39:29.011Z</time></trkpt><trkpt lat="40.220018" lon="9.5538849"><ele>695.5</ele><time>2026-04-06T15:39:30.011Z</time></trkpt><trkpt lat="40.2201697" lon="9.5539144"><ele>700.0</ele><time>2026-04-06T15:39:31.011Z</time></trkpt><trkpt lat="40.2203168" lon="9.5539344"><ele>700.0</ele><time>2026-04-06T15:39:32.011Z</time></trkpt><trkpt lat="40.2204529" lon="9.5539538"><ele>700.0</ele><time>2026-04-06T15:39:33.011Z</time></trkpt><trkpt lat="40.2205907" lon="9.5539498"><ele>700.0</ele><time>2026-04-06T15:39:34.01Z</time></trkpt><trkpt lat="40.2207214" lon="9.5539198"><ele>700.0</ele><time>2026-04-06T15:39:35.011Z</time></trkpt><trkpt lat="40.220844" lon="9.5538567"><ele>698.25</ele><time>2026-04-06T15:39:36.011Z</time></trkpt><trkpt lat="40.2209755" lon="9.5538214"><ele>696.5</ele><time>2026-04-06T15:39:37.011Z</time></trkpt><trkpt lat="40.2211137" lon="9.5538222"><ele>694.75</ele><time>2026-04-06T15:39:38.011Z</time></trkpt><trkpt lat="40.2212585" lon="9.5538522"><ele>693.0</ele><time>2026-04-06T15:39:39.011Z</time></trkpt><trkpt lat="40.2214091" lon="9.5538739"><ele>690.3333333333334</ele><time>2026-04-06T15:39:40.011Z</time></trkpt><trkpt lat="40.2215631" lon="9.5538838"><ele>687.6666666666667</ele><time>2026-04-06T15:39:41.01Z</time></trkpt><trkpt lat="40.2217211" lon="9.5538959"><ele>685.0</ele><time>2026-04-06T15:39:42.011Z</time></trkpt><trkpt lat="40.2218735" lon="9.553909"><ele>685.0</ele><time>2026-04-06T15:39:43.011Z</time></trkpt><trkpt lat="40.2220271" lon="9.5539125"><ele>685.0</ele><time>2026-04-06T15:39:44.01Z</time></trkpt><trkpt lat="40.2221786" lon="9.553899"><ele>685.0</ele><time>2026-04-06T15:39:45.011Z</time></trkpt><trkpt lat="40.2223312" lon="9.5538791"><ele>684.3333333333334</ele><time>2026-04-06T15:39:46.011Z</time></trkpt><trkpt lat="40.2224839" lon="9.5538757"><ele>683.6666666666666</ele><time>2026-04-06T15:39:47.011Z</time></trkpt><trkpt lat="40.2226442" lon="9.5539015"><ele>683.0</ele><time>2026-04-06T15:39:48.011Z</time></trkpt><trkpt lat="40.222798" lon="9.5539376"><ele>683.0</ele><time>2026-04-06T15:39:49.01Z</time></trkpt><trkpt lat="40.2229504" lon="9.5539762"><ele>683.0</ele><time>2026-04-06T15:39:50.011Z</time></trkpt><trkpt lat="40.2230969" lon="9.55399"><ele>683.0</ele><time>2026-04-06T15:39:51.011Z</time></trkpt><trkpt lat="40.2232399" lon="9.5539736"><ele>683.0</ele><time>2026-04-06T15:39:52.011Z</time></trkpt><trkpt lat="40.2233846" lon="9.553949"><ele>681.25</ele><time>2026-04-06T15:39:53.01Z</time></trkpt><trkpt lat="40.2235283" lon="9.5539319"><ele>679.5</ele><time>2026-04-06T15:39:54.011Z</time></trkpt><trkpt lat="40.2236773" lon="9.5539303"><ele>677.75</ele><time>2026-04-06T15:39:55.011Z</time></trkpt><trkpt lat="40.2238261" lon="9.5539492"><ele>676.0</ele><time>2026-04-06T15:39:56.01Z</time></trkpt><trkpt lat="40.2239743" lon="9.553986"><ele>672.5</ele><time>2026-04-06T15:39:57.011Z</time></trkpt><trkpt lat="40.2241162" lon="9.5540534"><ele>669.0</ele><time>2026-04-06T15:39:58.01Z</time></trkpt><trkpt lat="40.2242547" lon="9.5541232"><ele>665.5</ele><time>2026-04-06T15:39:59.011Z</time></trkpt><trkpt lat="40.2243951" lon="9.5541823"><ele>662.0</ele><time>2026-04-06T15:40:00.01Z</time></trkpt><trkpt lat="40.2245347" lon="9.5542346"><ele>662.0</ele><time>2026-04-06T15:40:01.011Z</time></trkpt><trkpt lat="40.2246758" lon="9.5542838"><ele>662.0</ele><time>2026-04-06T15:40:02.01Z</time></trkpt><trkpt lat="40.2248255" lon="9.5543451"><ele>662.0</ele><time>2026-04-06T15:40:03.01Z</time></trkpt><trkpt lat="40.224968" lon="9.5544229"><ele>663.75</ele><time>2026-04-06T15:40:04.011Z</time></trkpt><trkpt lat="40.2251039" lon="9.5545063"><ele>665.5</ele><time>2026-04-06T15:40:05.011Z</time></trkpt><trkpt lat="40.2252265" lon="9.5545843"><ele>667.25</ele><time>2026-04-06T15:40:06.011Z</time></trkpt><trkpt lat="40.2253373" lon="9.5546752"><ele>669.0</ele><time>2026-04-06T15:40:07.011Z</time></trkpt><trkpt lat="40.2254238" lon="9.55478"><ele>669.0</ele><time>2026-04-06T15:40:08.011Z</time></trkpt><trkpt lat="40.2255158" lon="9.5548741"><ele>669.0</ele><time>2026-04-06T15:40:09.011Z</time></trkpt><trkpt lat="40.2256329" lon="9.5549222"><ele>669.0</ele><time>2026-04-06T15:40:10.01Z</time></trkpt><trkpt lat="40.2257734" lon="9.5549578"><ele>669.0</ele><time>2026-04-06T15:40:11.011Z</time></trkpt><trkpt lat="40.2259492" lon="9.5549886"><ele>663.6666666666666</ele><time>2026-04-06T15:40:12.011Z</time></trkpt><trkpt lat="40.2261501" lon="9.5550486"><ele>658.3333333333333</ele><time>2026-04-06T15:40:13.011Z</time></trkpt><trkpt lat="40.2263685" lon="9.5551302"><ele>653.0</ele><time>2026-04-06T15:40:14.01Z</time></trkpt><trkpt lat="40.2266012" lon="9.5552526"><ele>644.5</ele><time>2026-04-06T15:40:15.011Z</time></trkpt><trkpt lat="40.2268416" lon="9.5553569"><ele>636.0</ele><time>2026-04-06T15:40:16.01Z</time></trkpt><trkpt lat="40.2270725" lon="9.5554465"><ele>644.3333333333334</ele><time>2026-04-06T15:40:17.01Z</time></trkpt><trkpt lat="40.2272886" lon="9.5555276"><ele>652.6666666666667</ele><time>2026-04-06T15:40:18.011Z</time></trkpt><trkpt lat="40.2274784" lon="9.5556024"><ele>661.0</ele><time>2026-04-06T15:40:19.011Z</time></trkpt><trkpt lat="40.2276443" lon="9.5556779"><ele>661.0</ele><time>2026-04-06T15:40:20.011Z</time></trkpt><trkpt lat="40.2277955" lon="9.555777"><ele>661.0</ele><time>2026-04-06T15:40:21.011Z</time></trkpt><trkpt lat="40.2279371" lon="9.5558977"><ele>661.0</ele><time>2026-04-06T15:40:22.01Z</time></trkpt><trkpt lat="40.2280802" lon="9.5560273"><ele>662.6666666666667</ele><time>2026-04-06T15:40:23.011Z</time></trkpt><trkpt lat="40.2282439" lon="9.5561455"><ele>664.3333333333334</ele><time>2026-04-06T15:40:24.011Z</time></trkpt><trkpt lat="40.2284228" lon="9.5562326"><ele>666.0</ele><time>2026-04-06T15:40:25.011Z</time></trkpt><trkpt lat="40.2285913" lon="9.556307"><ele>666.0</ele><time>2026-04-06T15:40:26.011Z</time></trkpt><trkpt lat="40.2287372" lon="9.5563775"><ele>666.0</ele><time>2026-04-06T15:40:27.011Z</time></trkpt><trkpt lat="40.2288698" lon="9.5564233"><ele>666.0</ele><time>2026-04-06T15:40:28.011Z</time></trkpt><trkpt lat="40.2289944" lon="9.556423"><ele>666.0</ele><time>2026-04-06T15:40:29.01Z</time></trkpt><trkpt lat="40.2291007" lon="9.5563722"><ele>663.0</ele><time>2026-04-06T15:40:30.01Z</time></trkpt><trkpt lat="40.2292021" lon="9.5562874"><ele>660.0</ele><time>2026-04-06T15:40:31.011Z</time></trkpt><trkpt lat="40.2293124" lon="9.5562205"><ele>657.0</ele><time>2026-04-06T15:40:32.01Z</time></trkpt><trkpt lat="40.2294289" lon="9.5562127"><ele>654.0</ele><time>2026-04-06T15:40:33.011Z</time></trkpt><trkpt lat="40.2295441" lon="9.5562669"><ele>654.0</ele><time>2026-04-06T15:40:34.011Z</time></trkpt><trkpt lat="40.229644" lon="9.5563862"><ele>654.0</ele><time>2026-04-06T15:40:35.01Z</time></trkpt><trkpt lat="40.2297577" lon="9.5565137"><ele>654.0</ele><time>2026-04-06T15:40:36.011Z</time></trkpt><trkpt lat="40.2299008" lon="9.5566155"><ele>654.0</ele><time>2026-04-06T15:40:37.011Z</time></trkpt><trkpt lat="40.2300604" lon="9.5567143"><ele>648.3333333333334</ele><time>2026-04-06T15:40:38.011Z</time></trkpt><trkpt lat="40.2302228" lon="9.5568"><ele>642.6666666666667</ele><time>2026-04-06T15:40:39.011Z</time></trkpt><trkpt lat="40.2303851" lon="9.5568619"><ele>637.0</ele><time>2026-04-06T15:40:40.01Z</time></trkpt><trkpt lat="40.2305543" lon="9.556896"><ele>631.6666666666667</ele><time>2026-04-06T15:40:41.011Z</time></trkpt><trkpt lat="40.2307142" lon="9.5569228"><ele>626.3333333333334</ele><time>2026-04-06T15:40:42.01Z</time></trkpt><trkpt lat="40.2308685" lon="9.5569837"><ele>621.0</ele><time>2026-04-06T15:40:43.011Z</time></trkpt><trkpt lat="40.2310087" lon="9.5570975"><ele>630.0</ele><time>2026-04-06T15:40:44.01Z</time></trkpt><trkpt lat="40.2311237" lon="9.5572588"><ele>639.0</ele><time>2026-04-06T15:40:45.011Z</time></trkpt><trkpt lat="40.2312207" lon="9.5574081"><ele>648.0</ele><time>2026-04-06T15:40:46.011Z</time></trkpt><trkpt lat="40.2313151" lon="9.5575276"><ele>657.0</ele><time>2026-04-06T15:40:47.011Z</time></trkpt><trkpt lat="40.2314282" lon="9.5575894"><ele>650.25</ele><time>2026-04-06T15:40:48.011Z</time></trkpt><trkpt lat="40.2315584" lon="9.5576049"><ele>643.5</ele><time>2026-04-06T15:40:49.011Z</time></trkpt><trkpt lat="40.2316946" lon="9.5575798"><ele>636.75</ele><time>2026-04-06T15:40:50.011Z</time></trkpt><trkpt lat="40.2318437" lon="9.5575836"><ele>630.0</ele><time>2026-04-06T15:40:51.01Z</time></trkpt><trkpt lat="40.2320115" lon="9.5576325"><ele>630.0</ele><time>2026-04-06T15:40:52.01Z</time></trkpt><trkpt lat="40.2321779" lon="9.5576936"><ele>630.0</ele><time>2026-04-06T15:40:53.011Z</time></trkpt><trkpt lat="40.23235" lon="9.5577661"><ele>630.0</ele><time>2026-04-06T15:40:54.011Z</time></trkpt><trkpt lat="40.2325273" lon="9.5578423"><ele>637.0</ele><time>2026-04-06T15:40:55.01Z</time></trkpt><trkpt lat="40.2326948" lon="9.5579318"><ele>644.0</ele><time>2026-04-06T15:40:56.011Z</time></trkpt><trkpt lat="40.2328359" lon="9.558041"><ele>651.0</ele><time>2026-04-06T15:40:57.01Z</time></trkpt><trkpt lat="40.2329453" lon="9.5581498"><ele>651.0</ele><time>2026-04-06T15:40:58.011Z</time></trkpt><trkpt lat="40.2330196" lon="9.5582689"><ele>651.0</ele><time>2026-04-06T15:40:59.011Z</time></trkpt><trkpt lat="40.2330605" lon="9.5584122"><ele>651.0</ele><time>2026-04-06T15:41:00.011Z</time></trkpt><trkpt lat="40.2330853" lon="9.5585678"><ele>651.0</ele><time>2026-04-06T15:41:01.011Z</time></trkpt><trkpt lat="40.2331311" lon="9.5587024"><ele>649.25</ele><time>2026-04-06T15:41:02.01Z</time></trkpt><trkpt lat="40.2332239" lon="9.5588067"><ele>647.5</ele><time>2026-04-06T15:41:03.01Z</time></trkpt><trkpt lat="40.233344" lon="9.5588947"><ele>645.75</ele><time>2026-04-06T15:41:04.01Z</time></trkpt><trkpt lat="40.2334587" lon="9.5589911"><ele>644.0</ele><time>2026-04-06T15:41:05.011Z</time></trkpt><trkpt lat="40.233573" lon="9.559122"><ele>644.0</ele><time>2026-04-06T15:41:06.01Z</time></trkpt><trkpt lat="40.2336808" lon="9.5592711"><ele>644.0</ele><time>2026-04-06T15:41:07.01Z</time></trkpt><trkpt lat="40.233798" lon="9.5594136"><ele>644.0</ele><time>2026-04-06T15:41:08.01Z</time></trkpt><trkpt lat="40.2339436" lon="9.559528"><ele>642.0</ele><time>2026-04-06T15:41:09.011Z</time></trkpt><trkpt lat="40.2341026" lon="9.5596295"><ele>640.0</ele><time>2026-04-06T15:41:10.011Z</time></trkpt><trkpt lat="40.2342528" lon="9.5597435"><ele>638.0</ele><time>2026-04-06T15:41:11.011Z</time></trkpt><trkpt lat="40.2343815" lon="9.5598606"><ele>638.0</ele><time>2026-04-06T15:41:12.011Z</time></trkpt><trkpt lat="40.2345029" lon="9.5599708"><ele>638.0</ele><time>2026-04-06T15:41:13.011Z</time></trkpt><trkpt lat="40.234619" lon="9.5600751"><ele>638.0</ele><time>2026-04-06T15:41:14.011Z</time></trkpt><trkpt lat="40.2347299" lon="9.5601749"><ele>638.0</ele><time>2026-04-06T15:41:15.011Z</time></trkpt><trkpt lat="40.2348466" lon="9.5602799"><ele>641.0</ele><time>2026-04-06T15:41:16.011Z</time></trkpt><trkpt lat="40.2349719" lon="9.5603782"><ele>644.0</ele><time>2026-04-06T15:41:17.01Z</time></trkpt><trkpt lat="40.2351055" lon="9.5604526"><ele>647.0</ele><time>2026-04-06T15:41:18.011Z</time></trkpt><trkpt lat="40.2352453" lon="9.5605061"><ele>650.0</ele><time>2026-04-06T15:41:19.01Z</time></trkpt><trkpt lat="40.2353828" lon="9.5605467"><ele>650.0</ele><time>2026-04-06T15:41:20.011Z</time></trkpt><trkpt lat="40.2355209" lon="9.5605882"><ele>650.0</ele><time>2026-04-06T15:41:21.01Z</time></trkpt><trkpt lat="40.2356559" lon="9.5606438"><ele>650.0</ele><time>2026-04-06T15:41:22.011Z</time></trkpt><trkpt lat="40.2357805" lon="9.5607082"><ele>650.0</ele><time>2026-04-06T15:41:23.011Z</time></trkpt><trkpt lat="40.2358925" lon="9.5607838"><ele>641.75</ele><time>2026-04-06T15:41:24.011Z</time></trkpt><trkpt lat="40.2359969" lon="9.5608731"><ele>633.5</ele><time>2026-04-06T15:41:25.011Z</time></trkpt><trkpt lat="40.2360915" lon="9.5609684"><ele>625.25</ele><time>2026-04-06T15:41:26.011Z</time></trkpt><trkpt lat="40.2361796" lon="9.5610727"><ele>617.0</ele><time>2026-04-06T15:41:27.011Z</time></trkpt><trkpt lat="40.2362614" lon="9.5611843"><ele>615.75</ele><time>2026-04-06T15:41:28.011Z</time></trkpt><trkpt lat="40.2363383" lon="9.5613041"><ele>614.5</ele><time>2026-04-06T15:41:29.011Z</time></trkpt><trkpt lat="40.2364221" lon="9.5614263"><ele>613.25</ele><time>2026-04-06T15:41:30.01Z</time></trkpt><trkpt lat="40.2365237" lon="9.5615509"><ele>612.0</ele><time>2026-04-06T15:41:31.01Z</time></trkpt><trkpt lat="40.236638" lon="9.561671"><ele>612.0</ele><time>2026-04-06T15:41:32.011Z</time></trkpt><trkpt lat="40.236759" lon="9.5617869"><ele>612.0</ele><time>2026-04-06T15:41:33.011Z</time></trkpt><trkpt lat="40.2368841" lon="9.5619011"><ele>612.0</ele><time>2026-04-06T15:41:34.01Z</time></trkpt><trkpt lat="40.2370096" lon="9.5620119"><ele>609.75</ele><time>2026-04-06T15:41:35.01Z</time></trkpt><trkpt lat="40.2371364" lon="9.5621201"><ele>607.5</ele><time>2026-04-06T15:41:36.011Z</time></trkpt><trkpt lat="40.2372634" lon="9.5622304"><ele>605.25</ele><time>2026-04-06T15:41:37.011Z</time></trkpt><trkpt lat="40.2373799" lon="9.5623323"><ele>603.0</ele><time>2026-04-06T15:41:38.01Z</time></trkpt><trkpt lat="40.237487" lon="9.5624258"><ele>603.0</ele><time>2026-04-06T15:41:39.011Z</time></trkpt><trkpt lat="40.2375894" lon="9.5625257"><ele>603.0</ele><time>2026-04-06T15:41:40.011Z</time></trkpt><trkpt lat="40.2376945" lon="9.5626498"><ele>603.0</ele><time>2026-04-06T15:41:41.011Z</time></trkpt><trkpt lat="40.237796" lon="9.5628003"><ele>603.0</ele><time>2026-04-06T15:41:42.011Z</time></trkpt><trkpt lat="40.2378875" lon="9.5629538"><ele>597.75</ele><time>2026-04-06T15:41:43.011Z</time></trkpt><trkpt lat="40.2379712" lon="9.5631031"><ele>592.5</ele><time>2026-04-06T15:41:44.01Z</time></trkpt><trkpt lat="40.238044" lon="9.5632612"><ele>587.25</ele><time>2026-04-06T15:41:45.011Z</time></trkpt><trkpt lat="40.2381069" lon="9.5634314"><ele>582.0</ele><time>2026-04-06T15:41:46.011Z</time></trkpt><trkpt lat="40.2381613" lon="9.5636075"><ele>591.25</ele><time>2026-04-06T15:41:47.011Z</time></trkpt><trkpt lat="40.2382213" lon="9.5637775"><ele>600.5</ele><time>2026-04-06T15:41:48.011Z</time></trkpt><trkpt lat="40.2382943" lon="9.5639413"><ele>609.75</ele><time>2026-04-06T15:41:49.011Z</time></trkpt><trkpt lat="40.2383806" lon="9.5641052"><ele>619.0</ele><time>2026-04-06T15:41:50.011Z</time></trkpt><trkpt lat="40.2384777" lon="9.564259"><ele>619.0</ele><time>2026-04-06T15:41:51.011Z</time></trkpt><trkpt lat="40.2385836" lon="9.5643997"><ele>619.0</ele><time>2026-04-06T15:41:52.01Z</time></trkpt><trkpt lat="40.2386971" lon="9.5645246"><ele>619.0</ele><time>2026-04-06T15:41:53.01Z</time></trkpt><trkpt lat="40.2388157" lon="9.564639"><ele>619.0</ele><time>2026-04-06T15:41:54.011Z</time></trkpt><trkpt lat="40.2389384" lon="9.5647324"><ele>616.0</ele><time>2026-04-06T15:41:55.011Z</time></trkpt><trkpt lat="40.2390642" lon="9.5647979"><ele>613.0</ele><time>2026-04-06T15:41:56.011Z</time></trkpt><trkpt lat="40.2391828" lon="9.5648464"><ele>610.0</ele><time>2026-04-06T15:41:57.011Z</time></trkpt><trkpt lat="40.2392941" lon="9.5649102"><ele>607.0</ele><time>2026-04-06T15:41:58.011Z</time></trkpt><trkpt lat="40.2394026" lon="9.5650126"><ele>607.0</ele><time>2026-04-06T15:41:59.011Z</time></trkpt><trkpt lat="40.2395018" lon="9.5651371"><ele>607.0</ele><time>2026-04-06T15:42:00.011Z</time></trkpt><trkpt lat="40.2395901" lon="9.5652544"><ele>607.0</ele><time>2026-04-06T15:42:01.011Z</time></trkpt><trkpt lat="40.2396847" lon="9.5653623"><ele>607.0</ele><time>2026-04-06T15:42:02.011Z</time></trkpt><trkpt lat="40.2397936" lon="9.5654548"><ele>606.25</ele><time>2026-04-06T15:42:03.011Z</time></trkpt><trkpt lat="40.2399072" lon="9.565538"><ele>605.5</ele><time>2026-04-06T15:42:04.01Z</time></trkpt><trkpt lat="40.2400276" lon="9.5656192"><ele>604.75</ele><time>2026-04-06T15:42:05.011Z</time></trkpt><trkpt lat="40.2401529" lon="9.5657029"><ele>604.0</ele><time>2026-04-06T15:42:06.011Z</time></trkpt><trkpt lat="40.2402752" lon="9.5657772"><ele>604.0</ele><time>2026-04-06T15:42:07.011Z</time></trkpt><trkpt lat="40.2404009" lon="9.565841"><ele>604.0</ele><time>2026-04-06T15:42:08.01Z</time></trkpt><trkpt lat="40.240532" lon="9.5658964"><ele>604.0</ele><time>2026-04-06T15:42:09.011Z</time></trkpt><trkpt lat="40.2406611" lon="9.5659487"><ele>604.0</ele><time>2026-04-06T15:42:10.011Z</time></trkpt><trkpt lat="40.2407893" lon="9.5660017"><ele>609.5</ele><time>2026-04-06T15:42:11.011Z</time></trkpt><trkpt lat="40.2409196" lon="9.5660514"><ele>615.0</ele><time>2026-04-06T15:42:12.011Z</time></trkpt><trkpt lat="40.2410514" lon="9.5660974"><ele>620.5</ele><time>2026-04-06T15:42:13.01Z</time></trkpt><trkpt lat="40.2411794" lon="9.5661541"><ele>626.0</ele><time>2026-04-06T15:42:14.01Z</time></trkpt><trkpt lat="40.2413028" lon="9.5662314"><ele>626.0</ele><time>2026-04-06T15:42:15.011Z</time></trkpt><trkpt lat="40.2414204" lon="9.5663235"><ele>626.0</ele><time>2026-04-06T15:42:16.011Z</time></trkpt><trkpt lat="40.2415301" lon="9.5664269"><ele>626.0</ele><time>2026-04-06T15:42:17.01Z</time></trkpt><trkpt lat="40.2416325" lon="9.566547"><ele>626.0</ele><time>2026-04-06T15:42:18.011Z</time></trkpt><trkpt lat="40.241725" lon="9.566674"><ele>619.0</ele><time>2026-04-06T15:42:19.01Z</time></trkpt><trkpt lat="40.2418078" lon="9.5668138"><ele>612.0</ele><time>2026-04-06T15:42:20.011Z</time></trkpt><trkpt lat="40.2418594" lon="9.5669726"><ele>605.0</ele><time>2026-04-06T15:42:21.011Z</time></trkpt><trkpt lat="40.2418968" lon="9.5671346"><ele>598.0</ele><time>2026-04-06T15:42:22.011Z</time></trkpt><trkpt lat="40.2419147" lon="9.5672739"><ele>598.0</ele><time>2026-04-06T15:42:23.011Z</time></trkpt><trkpt lat="40.2419624" lon="9.5673962"><ele>598.0</ele><time>2026-04-06T15:42:24.01Z</time></trkpt><trkpt lat="40.2420368" lon="9.5675019"><ele>598.0</ele><time>2026-04-06T15:42:25.01Z</time></trkpt><trkpt lat="40.2421325" lon="9.5675932"><ele>598.0</ele><time>2026-04-06T15:42:26.011Z</time></trkpt><trkpt lat="40.2422325" lon="9.5676756"><ele>597.5</ele><time>2026-04-06T15:42:27.011Z</time></trkpt><trkpt lat="40.2423278" lon="9.567752"><ele>597.0</ele><time>2026-04-06T15:42:28.011Z</time></trkpt><trkpt lat="40.2424221" lon="9.5678313"><ele>596.5</ele><time>2026-04-06T15:42:29.011Z</time></trkpt><trkpt lat="40.2425202" lon="9.5679151"><ele>596.0</ele><time>2026-04-06T15:42:30.01Z</time></trkpt><trkpt lat="40.2426272" lon="9.5679907"><ele>596.0</ele><time>2026-04-06T15:42:31.011Z</time></trkpt><trkpt lat="40.2427308" lon="9.5680622"><ele>596.0</ele><time>2026-04-06T15:42:32.01Z</time></trkpt><trkpt lat="40.2428277" lon="9.5681329"><ele>596.0</ele><time>2026-04-06T15:42:33.011Z</time></trkpt><trkpt lat="40.2429165" lon="9.5682096"><ele>596.0</ele><time>2026-04-06T15:42:34.01Z</time></trkpt><trkpt lat="40.2430061" lon="9.5682863"><ele>596.0</ele><time>2026-04-06T15:42:35.01Z</time></trkpt><trkpt lat="40.2431082" lon="9.5683525"><ele>586.25</ele><time>2026-04-06T15:42:36.011Z</time></trkpt><trkpt lat="40.2432183" lon="9.5684059"><ele>576.5</ele><time>2026-04-06T15:42:37.011Z</time></trkpt><trkpt lat="40.2433284" lon="9.5684533"><ele>566.75</ele><time>2026-04-06T15:42:38.01Z</time></trkpt><trkpt lat="40.2434412" lon="9.5684974"><ele>557.0</ele><time>2026-04-06T15:42:39.01Z</time></trkpt><trkpt lat="40.2435592" lon="9.5685412"><ele>557.0</ele><time>2026-04-06T15:42:40.01Z</time></trkpt><trkpt lat="40.2436791" lon="9.5686018"><ele>557.0</ele><time>2026-04-06T15:42:41.011Z</time></trkpt><trkpt lat="40.2437951" lon="9.5686774"><ele>557.0</ele><time>2026-04-06T15:42:42.011Z</time></trkpt><trkpt lat="40.2439065" lon="9.5687829"><ele>557.0</ele><time>2026-04-06T15:42:43.011Z</time></trkpt><trkpt lat="40.2440163" lon="9.5689018"><ele>559.3333333333333</ele><time>2026-04-06T15:42:44.011Z</time></trkpt><trkpt lat="40.2441295" lon="9.5690266"><ele>561.6666666666666</ele><time>2026-04-06T15:42:45.011Z</time></trkpt><trkpt lat="40.2442501" lon="9.5691545"><ele>564.0</ele><time>2026-04-06T15:42:46.011Z</time></trkpt><trkpt lat="40.2443728" lon="9.569283"><ele>564.0</ele><time>2026-04-06T15:42:47.011Z</time></trkpt><trkpt lat="40.2444946" lon="9.5694168"><ele>564.0</ele><time>2026-04-06T15:42:48.011Z</time></trkpt><trkpt lat="40.2446154" lon="9.5695519"><ele>564.0</ele><time>2026-04-06T15:42:49.011Z</time></trkpt><trkpt lat="40.2447375" lon="9.56969"><ele>563.6666666666666</ele><time>2026-04-06T15:42:50.011Z</time></trkpt><trkpt lat="40.2448609" lon="9.5698221"><ele>563.3333333333333</ele><time>2026-04-06T15:42:51.01Z</time></trkpt><trkpt lat="40.2449754" lon="9.5699572"><ele>563.0</ele><time>2026-04-06T15:42:52.01Z</time></trkpt><trkpt lat="40.2450771" lon="9.5701057"><ele>563.0</ele><time>2026-04-06T15:42:53.011Z</time></trkpt><trkpt lat="40.2451815" lon="9.5702496"><ele>563.0</ele><time>2026-04-06T15:42:54.011Z</time></trkpt><trkpt lat="40.2453079" lon="9.5703652"><ele>563.0</ele><time>2026-04-06T15:42:55.011Z</time></trkpt><trkpt lat="40.2454366" lon="9.5704696"><ele>561.0</ele><time>2026-04-06T15:42:56.011Z</time></trkpt><trkpt lat="40.2455635" lon="9.5705813"><ele>559.0</ele><time>2026-04-06T15:42:57.011Z</time></trkpt><trkpt lat="40.2456866" lon="9.5707006"><ele>557.0</ele><time>2026-04-06T15:42:58.011Z</time></trkpt><trkpt lat="40.2458133" lon="9.5708205"><ele>557.0</ele><time>2026-04-06T15:42:59.01Z</time></trkpt><trkpt lat="40.2459439" lon="9.5709393"><ele>557.0</ele><time>2026-04-06T15:43:00.011Z</time></trkpt><trkpt lat="40.246081" lon="9.5710522"><ele>557.0</ele><time>2026-04-06T15:43:01.01Z</time></trkpt><trkpt lat="40.2462209" lon="9.5711567"><ele>558.0</ele><time>2026-04-06T15:43:02.011Z</time></trkpt><trkpt lat="40.2463571" lon="9.5712602"><ele>559.0</ele><time>2026-04-06T15:43:03.01Z</time></trkpt><trkpt lat="40.2464892" lon="9.5713581"><ele>560.0</ele><time>2026-04-06T15:43:04.01Z</time></trkpt><trkpt lat="40.2466195" lon="9.5714541"><ele>560.0</ele><time>2026-04-06T15:43:05.011Z</time></trkpt><trkpt lat="40.246742" lon="9.5715567"><ele>560.0</ele><time>2026-04-06T15:43:06.01Z</time></trkpt><trkpt lat="40.2468472" lon="9.5716753"><ele>560.0</ele><time>2026-04-06T15:43:07.01Z</time></trkpt><trkpt lat="40.2469439" lon="9.5717944"><ele>560.0</ele><time>2026-04-06T15:43:08.011Z</time></trkpt><trkpt lat="40.247058" lon="9.5718832"><ele>560.0</ele><time>2026-04-06T15:43:09.01Z</time></trkpt><trkpt lat="40.2471826" lon="9.5719383"><ele>560.0</ele><time>2026-04-06T15:43:10.011Z</time></trkpt><trkpt lat="40.2473194" lon="9.5719621"><ele>560.0</ele><time>2026-04-06T15:43:11.01Z</time></trkpt><trkpt lat="40.2474546" lon="9.5719835"><ele>560.0</ele><time>2026-04-06T15:43:12.011Z</time></trkpt><trkpt lat="40.2475873" lon="9.5720278"><ele>565.5</ele><time>2026-04-06T15:43:13.01Z</time></trkpt><trkpt lat="40.2477127" lon="9.5720999"><ele>571.0</ele><time>2026-04-06T15:43:14.01Z</time></trkpt><trkpt lat="40.247835" lon="9.5721934"><ele>576.5</ele><time>2026-04-06T15:43:15.011Z</time></trkpt><trkpt lat="40.247959" lon="9.5722965"><ele>582.0</ele><time>2026-04-06T15:43:16.01Z</time></trkpt><trkpt lat="40.2480805" lon="9.5724124"><ele>572.75</ele><time>2026-04-06T15:43:17.011Z</time></trkpt><trkpt lat="40.2481993" lon="9.572514"><ele>563.5</ele><time>2026-04-06T15:43:18.011Z</time></trkpt><trkpt lat="40.2483167" lon="9.5726121"><ele>554.25</ele><time>2026-04-06T15:43:19.011Z</time></trkpt><trkpt lat="40.2484432" lon="9.572712"><ele>545.0</ele><time>2026-04-06T15:43:20.01Z</time></trkpt><trkpt lat="40.2485633" lon="9.5727825"><ele>545.0</ele><time>2026-04-06T15:43:21.011Z</time></trkpt><trkpt lat="40.2486874" lon="9.572853"><ele>545.0</ele><time>2026-04-06T15:43:22.01Z</time></trkpt><trkpt lat="40.2488172" lon="9.572912"><ele>545.0</ele><time>2026-04-06T15:43:23.011Z</time></trkpt><trkpt lat="40.2489574" lon="9.5729535"><ele>545.0</ele><time>2026-04-06T15:43:24.011Z</time></trkpt><trkpt lat="40.2491073" lon="9.572976"><ele>549.0</ele><time>2026-04-06T15:43:25.011Z</time></trkpt><trkpt lat="40.2492511" lon="9.5729728"><ele>553.0</ele><time>2026-04-06T15:43:26.011Z</time></trkpt><trkpt lat="40.2493983" lon="9.5729847"><ele>557.0</ele><time>2026-04-06T15:43:27.01Z</time></trkpt><trkpt lat="40.2495432" lon="9.5730137"><ele>561.0</ele><time>2026-04-06T15:43:28.011Z</time></trkpt><trkpt lat="40.2496952" lon="9.5730785"><ele>552.6666666666666</ele><time>2026-04-06T15:43:29.011Z</time></trkpt><trkpt lat="40.2498411" lon="9.5731661"><ele>544.3333333333333</ele><time>2026-04-06T15:43:30.01Z</time></trkpt><trkpt lat="40.2499794" lon="9.5732553"><ele>536.0</ele><time>2026-04-06T15:43:31.011Z</time></trkpt><trkpt lat="40.250116" lon="9.5733399"><ele>536.0</ele><time>2026-04-06T15:43:32.011Z</time></trkpt><trkpt lat="40.250248" lon="9.5734155"><ele>536.0</ele><time>2026-04-06T15:43:33.011Z</time></trkpt><trkpt lat="40.2503871" lon="9.5734705"><ele>536.0</ele><time>2026-04-06T15:43:34.01Z</time></trkpt><trkpt lat="40.2505217" lon="9.5734995"><ele>536.0</ele><time>2026-04-06T15:43:35.01Z</time></trkpt><trkpt lat="40.2506501" lon="9.5735281"><ele>540.25</ele><time>2026-04-06T15:43:36.011Z</time></trkpt><trkpt lat="40.2507713" lon="9.5736031"><ele>544.5</ele><time>2026-04-06T15:43:37.01Z</time></trkpt><trkpt lat="40.2508655" lon="9.5736984"><ele>548.75</ele><time>2026-04-06T15:43:38.011Z</time></trkpt><trkpt lat="40.2509603" lon="9.5737848"><ele>553.0</ele><time>2026-04-06T15:43:39.01Z</time></trkpt><trkpt lat="40.2510579" lon="9.5738449"><ele>553.0</ele><time>2026-04-06T15:43:40.011Z</time></trkpt><trkpt lat="40.2511704" lon="9.5738937"><ele>553.0</ele><time>2026-04-06T15:43:41.011Z</time></trkpt><trkpt lat="40.2512841" lon="9.5739302"><ele>553.0</ele><time>2026-04-06T15:43:42.011Z</time></trkpt><trkpt lat="40.2513981" lon="9.5739615"><ele>553.0</ele><time>2026-04-06T15:43:43.011Z</time></trkpt><trkpt lat="40.2515085" lon="9.5740206"><ele>548.0</ele><time>2026-04-06T15:43:44.011Z</time></trkpt><trkpt lat="40.2516137" lon="9.5740973"><ele>543.0</ele><time>2026-04-06T15:43:45.011Z</time></trkpt><trkpt lat="40.2517216" lon="9.5741828"><ele>538.0</ele><time>2026-04-06T15:43:46.01Z</time></trkpt><trkpt lat="40.2518385" lon="9.5742679"><ele>533.0</ele><time>2026-04-06T15:43:47.01Z</time></trkpt><trkpt lat="40.2519568" lon="9.5743304"><ele>533.0</ele><time>2026-04-06T15:43:48.011Z</time></trkpt><trkpt lat="40.2520784" lon="9.5743838"><ele>533.0</ele><time>2026-04-06T15:43:49.01Z</time></trkpt><trkpt lat="40.2522109" lon="9.5744242"><ele>533.0</ele><time>2026-04-06T15:43:50.011Z</time></trkpt><trkpt lat="40.2523409" lon="9.5744961"><ele>533.0</ele><time>2026-04-06T15:43:51.01Z</time></trkpt><trkpt lat="40.2524669" lon="9.5745832"><ele>535.75</ele><time>2026-04-06T15:43:52.011Z</time></trkpt><trkpt lat="40.2525926" lon="9.5746653"><ele>538.5</ele><time>2026-04-06T15:43:53.011Z</time></trkpt><trkpt lat="40.2527177" lon="9.5747338"><ele>541.25</ele><time>2026-04-06T15:43:54.01Z</time></trkpt><trkpt lat="40.2528448" lon="9.5747997"><ele>544.0</ele><time>2026-04-06T15:43:55.011Z</time></trkpt><trkpt lat="40.252974" lon="9.5748645"><ele>544.0</ele><time>2026-04-06T15:43:56.01Z</time></trkpt><trkpt lat="40.2531041" lon="9.5749271"><ele>544.0</ele><time>2026-04-06T15:43:57.01Z</time></trkpt><trkpt lat="40.2532361" lon="9.5749931"><ele>544.0</ele><time>2026-04-06T15:43:58.011Z</time></trkpt><trkpt lat="40.2533712" lon="9.5750462"><ele>544.0</ele><time>2026-04-06T15:43:59.011Z</time></trkpt><trkpt lat="40.2535192" lon="9.5750837"><ele>539.5</ele><time>2026-04-06T15:44:00.01Z</time></trkpt><trkpt lat="40.2536626" lon="9.5751105"><ele>535.0</ele><time>2026-04-06T15:44:01.011Z</time></trkpt><trkpt lat="40.2538018" lon="9.5751324"><ele>530.5</ele><time>2026-04-06T15:44:02.01Z</time></trkpt><trkpt lat="40.2539418" lon="9.5751432"><ele>526.0</ele><time>2026-04-06T15:44:03.011Z</time></trkpt><trkpt lat="40.2540655" lon="9.5751609"><ele>526.6</ele><time>2026-04-06T15:44:04.011Z</time></trkpt><trkpt lat="40.2541714" lon="9.5751835"><ele>527.2</ele><time>2026-04-06T15:44:05.011Z</time></trkpt><trkpt lat="40.254261" lon="9.575245"><ele>527.8</ele><time>2026-04-06T15:44:06.01Z</time></trkpt><trkpt lat="40.2543364" lon="9.5753317"><ele>528.4</ele><time>2026-04-06T15:44:07.011Z</time></trkpt><trkpt lat="40.2543914" lon="9.5754471"><ele>529.0</ele><time>2026-04-06T15:44:08.011Z</time></trkpt><trkpt lat="40.2544312" lon="9.5755751"><ele>529.0</ele><time>2026-04-06T15:44:09.011Z</time></trkpt><trkpt lat="40.2544757" lon="9.5757012"><ele>529.0</ele><time>2026-04-06T15:44:10.011Z</time></trkpt><trkpt lat="40.2545425" lon="9.5758261"><ele>529.0</ele><time>2026-04-06T15:44:11.011Z</time></trkpt><trkpt lat="40.2546282" lon="9.5759424"><ele>529.0</ele><time>2026-04-06T15:44:12.011Z</time></trkpt><trkpt lat="40.2547298" lon="9.5760497"><ele>527.5</ele><time>2026-04-06T15:44:13.011Z</time></trkpt><trkpt lat="40.2548328" lon="9.5761534"><ele>526.0</ele><time>2026-04-06T15:44:14.011Z</time></trkpt><trkpt lat="40.2549387" lon="9.5762693"><ele>524.5</ele><time>2026-04-06T15:44:15.011Z</time></trkpt><trkpt lat="40.2550472" lon="9.5763947"><ele>523.0</ele><time>2026-04-06T15:44:16.011Z</time></trkpt><trkpt lat="40.2551403" lon="9.5765229"><ele>523.0</ele><time>2026-04-06T15:44:17.01Z</time></trkpt><trkpt lat="40.2552255" lon="9.5766513"><ele>523.0</ele><time>2026-04-06T15:44:18.01Z</time></trkpt><trkpt lat="40.2553165" lon="9.5767646"><ele>523.0</ele><time>2026-04-06T15:44:19.01Z</time></trkpt><trkpt lat="40.255424" lon="9.5768641"><ele>523.0</ele><time>2026-04-06T15:44:20.01Z</time></trkpt><trkpt lat="40.2555444" lon="9.5769338"><ele>525.75</ele><time>2026-04-06T15:44:21.011Z</time></trkpt><trkpt lat="40.255685" lon="9.5769674"><ele>528.5</ele><time>2026-04-06T15:44:22.011Z</time></trkpt><trkpt lat="40.255822" lon="9.5769996"><ele>531.25</ele><time>2026-04-06T15:44:23.01Z</time></trkpt><trkpt lat="40.2559517" lon="9.5770421"><ele>534.0</ele><time>2026-04-06T15:44:24.011Z</time></trkpt><trkpt lat="40.2560764" lon="9.5771116"><ele>534.0</ele><time>2026-04-06T15:44:25.011Z</time></trkpt><trkpt lat="40.2562048" lon="9.5771834"><ele>534.0</ele><time>2026-04-06T15:44:26.011Z</time></trkpt><trkpt lat="40.2563407" lon="9.5772295"><ele>534.0</ele><time>2026-04-06T15:44:27.011Z</time></trkpt><trkpt lat="40.2564852" lon="9.577256"><ele>534.0</ele><time>2026-04-06T15:44:28.011Z</time></trkpt><trkpt lat="40.2566291" lon="9.5772621"><ele>529.25</ele><time>2026-04-06T15:44:29.011Z</time></trkpt><trkpt lat="40.2567704" lon="9.5772668"><ele>524.5</ele><time>2026-04-06T15:44:30.011Z</time></trkpt><trkpt lat="40.2569062" lon="9.5772672"><ele>519.75</ele><time>2026-04-06T15:44:31.011Z</time></trkpt><trkpt lat="40.2570418" lon="9.5772753"><ele>515.0</ele><time>2026-04-06T15:44:32.011Z</time></trkpt><trkpt lat="40.2571821" lon="9.5773004"><ele>509.66666666666663</ele><time>2026-04-06T15:44:33.011Z</time></trkpt><trkpt lat="40.2573218" lon="9.5773511"><ele>504.33333333333337</ele><time>2026-04-06T15:44:34.011Z</time></trkpt><trkpt lat="40.2574645" lon="9.577414"><ele>499.0</ele><time>2026-04-06T15:44:35.01Z</time></trkpt><trkpt lat="40.2576267" lon="9.5774532"><ele>499.0</ele><time>2026-04-06T15:44:36.011Z</time></trkpt><trkpt lat="40.2577961" lon="9.5774931"><ele>499.0</ele><time>2026-04-06T15:44:37.01Z</time></trkpt><trkpt lat="40.2579631" lon="9.5775201"><ele>499.0</ele><time>2026-04-06T15:44:38.01Z</time></trkpt><trkpt lat="40.258121" lon="9.5775443"><ele>492.33333333333337</ele><time>2026-04-06T15:44:39.01Z</time></trkpt><trkpt lat="40.2582788" lon="9.5775655"><ele>485.66666666666663</ele><time>2026-04-06T15:44:40.011Z</time></trkpt><trkpt lat="40.2584344" lon="9.5775918"><ele>479.0</ele><time>2026-04-06T15:44:41.011Z</time></trkpt><trkpt lat="40.2585801" lon="9.5776374"><ele>479.0</ele><time>2026-04-06T15:44:42.01Z</time></trkpt><trkpt lat="40.2587123" lon="9.5776974"><ele>479.0</ele><time>2026-04-06T15:44:43.011Z</time></trkpt><trkpt lat="40.2588376" lon="9.5777511"><ele>479.0</ele><time>2026-04-06T15:44:44.011Z</time></trkpt><trkpt lat="40.2589576" lon="9.5777842"><ele>479.0</ele><time>2026-04-06T15:44:45.01Z</time></trkpt><trkpt lat="40.2590659" lon="9.5777848"><ele>477.0</ele><time>2026-04-06T15:44:46.01Z</time></trkpt><trkpt lat="40.2591693" lon="9.5777709"><ele>475.0</ele><time>2026-04-06T15:44:47.011Z</time></trkpt><trkpt lat="40.2592667" lon="9.5777591"><ele>473.0</ele><time>2026-04-06T15:44:48.01Z</time></trkpt><trkpt lat="40.2593663" lon="9.5777698"><ele>471.0</ele><time>2026-04-06T15:44:49.011Z</time></trkpt><trkpt lat="40.2594603" lon="9.5778101"><ele>469.0</ele><time>2026-04-06T15:44:50.011Z</time></trkpt><trkpt lat="40.2595444" lon="9.5778755"><ele>469.79999999999995</ele><time>2026-04-06T15:44:51.011Z</time></trkpt><trkpt lat="40.2596238" lon="9.5779594"><ele>470.59999999999997</ele><time>2026-04-06T15:44:52.011Z</time></trkpt><trkpt lat="40.259689" lon="9.5780512"><ele>471.4</ele><time>2026-04-06T15:44:53.011Z</time></trkpt><trkpt lat="40.2597329" lon="9.5781605"><ele>472.2</ele><time>2026-04-06T15:44:54.011Z</time></trkpt><trkpt lat="40.259763" lon="9.5782755"><ele>473.0</ele><time>2026-04-06T15:44:55.011Z</time></trkpt><trkpt lat="40.2597981" lon="9.5783777"><ele>473.0</ele><time>2026-04-06T15:44:56.011Z</time></trkpt><trkpt lat="40.2598549" lon="9.5784657"><ele>472.99999999999994</ele><time>2026-04-06T15:44:57.011Z</time></trkpt><trkpt lat="40.259934" lon="9.5785459"><ele>472.99999999999994</ele><time>2026-04-06T15:44:58.011Z</time></trkpt><trkpt lat="40.2600362" lon="9.5786067"><ele>473.0</ele><time>2026-04-06T15:44:59.01Z</time></trkpt><trkpt lat="40.2601512" lon="9.5786565"><ele>473.0</ele><time>2026-04-06T15:45:00.011Z</time></trkpt><trkpt lat="40.2602656" lon="9.5787069"><ele>476.75</ele><time>2026-04-06T15:45:01.011Z</time></trkpt><trkpt lat="40.2603898" lon="9.5787624"><ele>480.5</ele><time>2026-04-06T15:45:02.011Z</time></trkpt><trkpt lat="40.260518" lon="9.5788139"><ele>484.25</ele><time>2026-04-06T15:45:03.011Z</time></trkpt><trkpt lat="40.2606452" lon="9.5788684"><ele>488.0</ele><time>2026-04-06T15:45:04.01Z</time></trkpt><trkpt lat="40.2607781" lon="9.5789286"><ele>488.0</ele><time>2026-04-06T15:45:05.01Z</time></trkpt><trkpt lat="40.2609069" lon="9.5789891"><ele>488.0</ele><time>2026-04-06T15:45:06.01Z</time></trkpt><trkpt lat="40.2610259" lon="9.5790594"><ele>488.0</ele><time>2026-04-06T15:45:07.011Z</time></trkpt><trkpt lat="40.2611456" lon="9.5791296"><ele>488.0</ele><time>2026-04-06T15:45:08.01Z</time></trkpt><trkpt lat="40.2612746" lon="9.5791905"><ele>488.0</ele><time>2026-04-06T15:45:09.01Z</time></trkpt><trkpt lat="40.2614081" lon="9.579226"><ele>488.0</ele><time>2026-04-06T15:45:10.01Z</time></trkpt><trkpt lat="40.2615386" lon="9.5792282"><ele>488.0</ele><time>2026-04-06T15:45:11.01Z</time></trkpt><trkpt lat="40.2616696" lon="9.579218"><ele>488.0</ele><time>2026-04-06T15:45:12.011Z</time></trkpt><trkpt lat="40.2617961" lon="9.5792428"><ele>489.5</ele><time>2026-04-06T15:45:13.011Z</time></trkpt><trkpt lat="40.2619163" lon="9.5792992"><ele>491.0</ele><time>2026-04-06T15:45:14.011Z</time></trkpt><trkpt lat="40.2620304" lon="9.5793866"><ele>492.5</ele><time>2026-04-06T15:45:15.01Z</time></trkpt><trkpt lat="40.2621514" lon="9.5794799"><ele>494.0</ele><time>2026-04-06T15:45:16.01Z</time></trkpt><trkpt lat="40.2622817" lon="9.5795578"><ele>494.0</ele><time>2026-04-06T15:45:17.011Z</time></trkpt><trkpt lat="40.2624136" lon="9.579629"><ele>494.0</ele><time>2026-04-06T15:45:18.011Z</time></trkpt><trkpt lat="40.2625414" lon="9.5796992"><ele>494.0</ele><time>2026-04-06T15:45:19.011Z</time></trkpt><trkpt lat="40.2626763" lon="9.5797618"><ele>494.0</ele><time>2026-04-06T15:45:20.01Z</time></trkpt><trkpt lat="40.2628161" lon="9.5797876"><ele>494.0</ele><time>2026-04-06T15:45:21.011Z</time></trkpt><trkpt lat="40.2629497" lon="9.5797825"><ele>494.0</ele><time>2026-04-06T15:45:22.01Z</time></trkpt><trkpt lat="40.2630813" lon="9.5797815"><ele>494.0</ele><time>2026-04-06T15:45:23.011Z</time></trkpt><trkpt lat="40.2632073" lon="9.579795"><ele>494.0</ele><time>2026-04-06T15:45:24.01Z</time></trkpt><trkpt lat="40.2633255" lon="9.5798269"><ele>492.25</ele><time>2026-04-06T15:45:25.011Z</time></trkpt><trkpt lat="40.2634511" lon="9.5798389"><ele>490.5</ele><time>2026-04-06T15:45:26.011Z</time></trkpt><trkpt lat="40.2635772" lon="9.5798132"><ele>488.75</ele><time>2026-04-06T15:45:27.011Z</time></trkpt><trkpt lat="40.2636867" lon="9.5797751"><ele>487.0</ele><time>2026-04-06T15:45:28.011Z</time></trkpt><trkpt lat="40.263797" lon="9.5797587"><ele>487.0</ele><time>2026-04-06T15:45:29.011Z</time></trkpt><trkpt lat="40.2639094" lon="9.5797754"><ele>487.0</ele><time>2026-04-06T15:45:30.011Z</time></trkpt><trkpt lat="40.2640259" lon="9.5798041"><ele>487.0</ele><time>2026-04-06T15:45:31.011Z</time></trkpt><trkpt lat="40.2641508" lon="9.5798519"><ele>487.0</ele><time>2026-04-06T15:45:32.01Z</time></trkpt><trkpt lat="40.2642858" lon="9.5799015"><ele>485.0</ele><time>2026-04-06T15:45:33.011Z</time></trkpt><trkpt lat="40.2644123" lon="9.5799471"><ele>483.0</ele><time>2026-04-06T15:45:34.01Z</time></trkpt><trkpt lat="40.2645337" lon="9.5799845"><ele>481.0</ele><time>2026-04-06T15:45:35.011Z</time></trkpt><trkpt lat="40.26466" lon="9.5799816"><ele>479.0</ele><time>2026-04-06T15:45:36.011Z</time></trkpt><trkpt lat="40.2647838" lon="9.5799375"><ele>478.4</ele><time>2026-04-06T15:45:37.011Z</time></trkpt><trkpt lat="40.2649001" lon="9.5798814"><ele>477.79999999999995</ele><time>2026-04-06T15:45:38.011Z</time></trkpt><trkpt lat="40.2649936" lon="9.5798372"><ele>477.20000000000005</ele><time>2026-04-06T15:45:39.011Z</time></trkpt><trkpt lat="40.265079" lon="9.5797984"><ele>476.6</ele><time>2026-04-06T15:45:40.011Z</time></trkpt><trkpt lat="40.2651723" lon="9.5797911"><ele>476.0</ele><time>2026-04-06T15:45:41.01Z</time></trkpt><trkpt lat="40.2652702" lon="9.5798239"><ele>476.0</ele><time>2026-04-06T15:45:42.01Z</time></trkpt><trkpt lat="40.2653599" lon="9.5798894"><ele>476.0</ele><time>2026-04-06T15:45:43.01Z</time></trkpt><trkpt lat="40.2654445" lon="9.5799834"><ele>476.0</ele><time>2026-04-06T15:45:44.01Z</time></trkpt><trkpt lat="40.2655303" lon="9.5801028"><ele>476.0</ele><time>2026-04-06T15:45:45.01Z</time></trkpt><trkpt lat="40.2656206" lon="9.5802376"><ele>476.75</ele><time>2026-04-06T15:45:46.011Z</time></trkpt><trkpt lat="40.2657133" lon="9.5803724"><ele>477.5</ele><time>2026-04-06T15:45:47.01Z</time></trkpt><trkpt lat="40.2658018" lon="9.5804959"><ele>478.25</ele><time>2026-04-06T15:45:48.011Z</time></trkpt><trkpt lat="40.2658887" lon="9.5806188"><ele>479.0</ele><time>2026-04-06T15:45:49.01Z</time></trkpt><trkpt lat="40.2659872" lon="9.5807274"><ele>479.0</ele><time>2026-04-06T15:45:50.011Z</time></trkpt><trkpt lat="40.2660988" lon="9.5808099"><ele>479.0</ele><time>2026-04-06T15:45:51.011Z</time></trkpt><trkpt lat="40.266217" lon="9.5808752"><ele>479.0</ele><time>2026-04-06T15:45:52.011Z</time></trkpt><trkpt lat="40.2663432" lon="9.5809343"><ele>479.0</ele><time>2026-04-06T15:45:53.011Z</time></trkpt><trkpt lat="40.2664711" lon="9.5809937"><ele>480.5</ele><time>2026-04-06T15:45:54.011Z</time></trkpt><trkpt lat="40.2665855" lon="9.5810684"><ele>482.0</ele><time>2026-04-06T15:45:55.01Z</time></trkpt><trkpt lat="40.2666862" lon="9.5811673"><ele>483.5</ele><time>2026-04-06T15:45:56.01Z</time></trkpt><trkpt lat="40.2667761" lon="9.581288"><ele>485.0</ele><time>2026-04-06T15:45:57.011Z</time></trkpt><trkpt lat="40.2668568" lon="9.581417"><ele>485.0</ele><time>2026-04-06T15:45:58.011Z</time></trkpt><trkpt lat="40.2669484" lon="9.5815397"><ele>485.0</ele><time>2026-04-06T15:45:59.011Z</time></trkpt><trkpt lat="40.2670538" lon="9.581654"><ele>485.0</ele><time>2026-04-06T15:46:00.011Z</time></trkpt><trkpt lat="40.2671695" lon="9.5817634"><ele>485.0</ele><time>2026-04-06T15:46:01.011Z</time></trkpt><trkpt lat="40.2672875" lon="9.58187"><ele>484.5</ele><time>2026-04-06T15:46:02.011Z</time></trkpt><trkpt lat="40.2674077" lon="9.5819783"><ele>484.0</ele><time>2026-04-06T15:46:03.01Z</time></trkpt><trkpt lat="40.2675259" lon="9.5820796"><ele>483.5</ele><time>2026-04-06T15:46:04.01Z</time></trkpt><trkpt lat="40.2676501" lon="9.5821835"><ele>483.0</ele><time>2026-04-06T15:46:05.011Z</time></trkpt><trkpt lat="40.267773" lon="9.5822876"><ele>483.0</ele><time>2026-04-06T15:46:06.011Z</time></trkpt><trkpt lat="40.2678957" lon="9.582392"><ele>483.0</ele><time>2026-04-06T15:46:07.011Z</time></trkpt><trkpt lat="40.2680139" lon="9.5824949"><ele>483.0</ele><time>2026-04-06T15:46:08.011Z</time></trkpt><trkpt lat="40.2681336" lon="9.5826032"><ele>483.0</ele><time>2026-04-06T15:46:09.011Z</time></trkpt><trkpt lat="40.2682451" lon="9.5827124"><ele>483.75</ele><time>2026-04-06T15:46:10.01Z</time></trkpt><trkpt lat="40.2683406" lon="9.5828329"><ele>484.5</ele><time>2026-04-06T15:46:11.011Z</time></trkpt><trkpt lat="40.2684319" lon="9.5829372"><ele>485.25</ele><time>2026-04-06T15:46:12.011Z</time></trkpt><trkpt lat="40.2685397" lon="9.5830036"><ele>486.0</ele><time>2026-04-06T15:46:13.011Z</time></trkpt><trkpt lat="40.268653" lon="9.5830315"><ele>486.0</ele><time>2026-04-06T15:46:14.011Z</time></trkpt><trkpt lat="40.2687594" lon="9.5830405"><ele>486.0</ele><time>2026-04-06T15:46:15.011Z</time></trkpt><trkpt lat="40.2688604" lon="9.5830555"><ele>486.0</ele><time>2026-04-06T15:46:16.011Z</time></trkpt><trkpt lat="40.268957" lon="9.5831021"><ele>486.0</ele><time>2026-04-06T15:46:17.011Z</time></trkpt><trkpt lat="40.2690415" lon="9.5831916"><ele>486.0</ele><time>2026-04-06T15:46:18.01Z</time></trkpt><trkpt lat="40.26911" lon="9.5833043"><ele>481.6</ele><time>2026-04-06T15:46:19.011Z</time></trkpt><trkpt lat="40.269172" lon="9.5834078"><ele>477.20000000000005</ele><time>2026-04-06T15:46:20.01Z</time></trkpt><trkpt lat="40.2692562" lon="9.5834968"><ele>472.79999999999995</ele><time>2026-04-06T15:46:21.01Z</time></trkpt><trkpt lat="40.2693512" lon="9.5835581"><ele>468.4</ele><time>2026-04-06T15:46:22.011Z</time></trkpt><trkpt lat="40.2694536" lon="9.5835921"><ele>464.0</ele><time>2026-04-06T15:46:23.011Z</time></trkpt><trkpt lat="40.2695558" lon="9.5836341"><ele>464.25</ele><time>2026-04-06T15:46:24.011Z</time></trkpt><trkpt lat="40.2696491" lon="9.5837057"><ele>464.5</ele><time>2026-04-06T15:46:25.011Z</time></trkpt><trkpt lat="40.2697292" lon="9.5838003"><ele>464.75</ele><time>2026-04-06T15:46:26.011Z</time></trkpt><trkpt lat="40.2698" lon="9.5839253"><ele>465.0</ele><time>2026-04-06T15:46:27.011Z</time></trkpt><trkpt lat="40.2698727" lon="9.5840543"><ele>465.0</ele><time>2026-04-06T15:46:28.011Z</time></trkpt><trkpt lat="40.2699546" lon="9.5841718"><ele>465.0</ele><time>2026-04-06T15:46:29.011Z</time></trkpt><trkpt lat="40.270044" lon="9.5842843"><ele>465.0</ele><time>2026-04-06T15:46:30.01Z</time></trkpt><trkpt lat="40.270132" lon="9.5843936"><ele>465.0</ele><time>2026-04-06T15:46:31.011Z</time></trkpt><trkpt lat="40.270217" lon="9.5845003"><ele>462.4</ele><time>2026-04-06T15:46:32.01Z</time></trkpt><trkpt lat="40.2703032" lon="9.5845961"><ele>459.8</ele><time>2026-04-06T15:46:33.01Z</time></trkpt><trkpt lat="40.2703967" lon="9.5846814"><ele>457.20000000000005</ele><time>2026-04-06T15:46:34.011Z</time></trkpt><trkpt lat="40.2704901" lon="9.5847444"><ele>454.6</ele><time>2026-04-06T15:46:35.011Z</time></trkpt><trkpt lat="40.2705747" lon="9.5848066"><ele>452.0</ele><time>2026-04-06T15:46:36.01Z</time></trkpt><trkpt lat="40.2706542" lon="9.5848842"><ele>452.0</ele><time>2026-04-06T15:46:37.011Z</time></trkpt><trkpt lat="40.2707162" lon="9.5849905"><ele>452.0</ele><time>2026-04-06T15:46:38.01Z</time></trkpt><trkpt lat="40.2707646" lon="9.5851315"><ele>452.0</ele><time>2026-04-06T15:46:39.01Z</time></trkpt><trkpt lat="40.2708096" lon="9.5852719"><ele>452.0</ele><time>2026-04-06T15:46:40.01Z</time></trkpt><trkpt lat="40.2708727" lon="9.5854094"><ele>457.5</ele><time>2026-04-06T15:46:41.011Z</time></trkpt><trkpt lat="40.2709443" lon="9.5855372"><ele>463.0</ele><time>2026-04-06T15:46:42.011Z</time></trkpt><trkpt lat="40.2710206" lon="9.5856634"><ele>468.5</ele><time>2026-04-06T15:46:43.011Z</time></trkpt><trkpt lat="40.271086" lon="9.585805"><ele>474.0</ele><time>2026-04-06T15:46:44.01Z</time></trkpt><trkpt lat="40.271134" lon="9.585962"><ele>474.0</ele><time>2026-04-06T15:46:45.01Z</time></trkpt><trkpt lat="40.2711693" lon="9.5861236"><ele>474.0</ele><time>2026-04-06T15:46:46.01Z</time></trkpt><trkpt lat="40.2711986" lon="9.5862752"><ele>474.0</ele><time>2026-04-06T15:46:47.011Z</time></trkpt><trkpt lat="40.2712307" lon="9.5864213"><ele>474.0</ele><time>2026-04-06T15:46:48.011Z</time></trkpt><trkpt lat="40.2712693" lon="9.5865706"><ele>473.0</ele><time>2026-04-06T15:46:49.01Z</time></trkpt><trkpt lat="40.2713215" lon="9.5867201"><ele>472.0</ele><time>2026-04-06T15:46:50.011Z</time></trkpt><trkpt lat="40.2713776" lon="9.5868601"><ele>471.0</ele><time>2026-04-06T15:46:51.011Z</time></trkpt><trkpt lat="40.2714389" lon="9.5869991"><ele>470.0</ele><time>2026-04-06T15:46:52.011Z</time></trkpt><trkpt lat="40.2714995" lon="9.5871279"><ele>470.0</ele><time>2026-04-06T15:46:53.01Z</time></trkpt><trkpt lat="40.271582" lon="9.5872433"><ele>470.0</ele><time>2026-04-06T15:46:54.01Z</time></trkpt><trkpt lat="40.2716817" lon="9.5873323"><ele>470.0</ele><time>2026-04-06T15:46:55.01Z</time></trkpt><trkpt lat="40.2717944" lon="9.5873976"><ele>470.0</ele><time>2026-04-06T15:46:56.011Z</time></trkpt><trkpt lat="40.2719114" lon="9.5874547"><ele>470.0</ele><time>2026-04-06T15:46:57.011Z</time></trkpt><trkpt lat="40.2720272" lon="9.5875217"><ele>470.0</ele><time>2026-04-06T15:46:58.01Z</time></trkpt><trkpt lat="40.2721408" lon="9.5876097"><ele>470.0</ele><time>2026-04-06T15:46:59.011Z</time></trkpt><trkpt lat="40.2722358" lon="9.5877085"><ele>470.0</ele><time>2026-04-06T15:47:00.011Z</time></trkpt><trkpt lat="40.272319" lon="9.5878062"><ele>468.4</ele><time>2026-04-06T15:47:01.011Z</time></trkpt><trkpt lat="40.272387" lon="9.5879026"><ele>466.8</ele><time>2026-04-06T15:47:02.011Z</time></trkpt><trkpt lat="40.2724292" lon="9.5880288"><ele>465.20000000000005</ele><time>2026-04-06T15:47:03.011Z</time></trkpt><trkpt lat="40.2724404" lon="9.5881648"><ele>463.6</ele><time>2026-04-06T15:47:04.011Z</time></trkpt><trkpt lat="40.2724571" lon="9.5882947"><ele>462.0</ele><time>2026-04-06T15:47:05.011Z</time></trkpt><trkpt lat="40.2724943" lon="9.5884199"><ele>462.0</ele><time>2026-04-06T15:47:06.011Z</time></trkpt><trkpt lat="40.272556" lon="9.5885296"><ele>462.0</ele><time>2026-04-06T15:47:07.011Z</time></trkpt><trkpt lat="40.2726452" lon="9.5886307"><ele>462.0</ele><time>2026-04-06T15:47:08.01Z</time></trkpt><trkpt lat="40.2727459" lon="9.5887092"><ele>462.0</ele><time>2026-04-06T15:47:09.011Z</time></trkpt><trkpt lat="40.2728535" lon="9.5887862"><ele>467.25</ele><time>2026-04-06T15:47:10.011Z</time></trkpt><trkpt lat="40.2729437" lon="9.5888901"><ele>472.5</ele><time>2026-04-06T15:47:11.011Z</time></trkpt><trkpt lat="40.2730326" lon="9.5889962"><ele>477.75</ele><time>2026-04-06T15:47:12.01Z</time></trkpt><trkpt lat="40.2730497" lon="9.5891568"><ele>483.0</ele><time>2026-04-06T15:47:13.01Z</time></trkpt><trkpt lat="40.2730926" lon="9.5892978"><ele>477.79999999999995</ele><time>2026-04-06T15:47:14.011Z</time></trkpt><trkpt lat="40.2731235" lon="9.5894414"><ele>472.59999999999997</ele><time>2026-04-06T15:47:15.011Z</time></trkpt><trkpt lat="40.2731491" lon="9.5895856"><ele>467.40000000000003</ele><time>2026-04-06T15:47:16.011Z</time></trkpt><trkpt lat="40.273175" lon="9.5897226"><ele>462.20000000000005</ele><time>2026-04-06T15:47:17.01Z</time></trkpt><trkpt lat="40.2731997" lon="9.5898662"><ele>457.0</ele><time>2026-04-06T15:47:18.011Z</time></trkpt><trkpt lat="40.2732255" lon="9.5900109"><ele>457.0</ele><time>2026-04-06T15:47:19.011Z</time></trkpt><trkpt lat="40.2732622" lon="9.590154"><ele>457.0</ele><time>2026-04-06T15:47:20.01Z</time></trkpt><trkpt lat="40.2733232" lon="9.5902983"><ele>457.0</ele><time>2026-04-06T15:47:21.01Z</time></trkpt><trkpt lat="40.2733989" lon="9.5904451"><ele>457.0</ele><time>2026-04-06T15:47:22.011Z</time></trkpt><trkpt lat="40.2734873" lon="9.5905899"><ele>461.0</ele><time>2026-04-06T15:47:23.011Z</time></trkpt><trkpt lat="40.2735839" lon="9.5907364"><ele>465.0</ele><time>2026-04-06T15:47:24.011Z</time></trkpt><trkpt lat="40.2736797" lon="9.5908765"><ele>469.0</ele><time>2026-04-06T15:47:25.011Z</time></trkpt><trkpt lat="40.2737698" lon="9.591012"><ele>473.0</ele><time>2026-04-06T15:47:26.011Z</time></trkpt><trkpt lat="40.273861" lon="9.5911405"><ele>471.75</ele><time>2026-04-06T15:47:27.011Z</time></trkpt><trkpt lat="40.2739522" lon="9.591261"><ele>470.5</ele><time>2026-04-06T15:47:28.011Z</time></trkpt><trkpt lat="40.2740446" lon="9.5913768"><ele>469.25</ele><time>2026-04-06T15:47:29.011Z</time></trkpt><trkpt lat="40.2741407" lon="9.5914777"><ele>468.0</ele><time>2026-04-06T15:47:30.011Z</time></trkpt><trkpt lat="40.274238" lon="9.5915789"><ele>468.0</ele><time>2026-04-06T15:47:31.011Z</time></trkpt><trkpt lat="40.2743424" lon="9.591679"><ele>468.0</ele><time>2026-04-06T15:47:32.011Z</time></trkpt><trkpt lat="40.2744492" lon="9.5917727"><ele>468.0</ele><time>2026-04-06T15:47:33.011Z</time></trkpt><trkpt lat="40.2745587" lon="9.5918694"><ele>468.0</ele><time>2026-04-06T15:47:34.01Z</time></trkpt><trkpt lat="40.2746694" lon="9.5919702"><ele>470.0</ele><time>2026-04-06T15:47:35.01Z</time></trkpt><trkpt lat="40.2747827" lon="9.5920633"><ele>472.0</ele><time>2026-04-06T15:47:36.01Z</time></trkpt><trkpt lat="40.2748963" lon="9.5921442"><ele>474.0</ele><time>2026-04-06T15:47:37.011Z</time></trkpt><trkpt lat="40.2750048" lon="9.5922068"><ele>476.0</ele><time>2026-04-06T15:47:38.011Z</time></trkpt><trkpt lat="40.2751103" lon="9.5922544"><ele>476.0</ele><time>2026-04-06T15:47:39.011Z</time></trkpt><trkpt lat="40.2752184" lon="9.5922856"><ele>476.0</ele><time>2026-04-06T15:47:40.011Z</time></trkpt><trkpt lat="40.2753166" lon="9.5923007"><ele>476.0</ele><time>2026-04-06T15:47:41.011Z</time></trkpt><trkpt lat="40.2754002" lon="9.5923176"><ele>476.0</ele><time>2026-04-06T15:47:42.011Z</time></trkpt><trkpt lat="40.2755027" lon="9.5923698"><ele>476.0</ele><time>2026-04-06T15:47:44.011Z</time></trkpt><trkpt lat="40.2755543" lon="9.59245"><ele>476.0</ele><time>2026-04-06T15:47:46.011Z</time></trkpt><trkpt lat="40.2755566" lon="9.5925687"><ele>476.0</ele><time>2026-04-06T15:47:48.011Z</time></trkpt><trkpt lat="40.27554" lon="9.5927196"><ele>476.0</ele><time>2026-04-06T15:47:50.01Z</time></trkpt><trkpt lat="40.2755155" lon="9.5928528"><ele>476.0</ele><time>2026-04-06T15:47:52.01Z</time></trkpt><trkpt lat="40.2747044" lon="9.5976851"><ele>472.49999999999994</ele><time>2026-04-06T15:48:22.013Z</time></trkpt><trkpt lat="40.2746547" lon="9.597769"><ele>469.0</ele><time>2026-04-06T15:48:23.011Z</time></trkpt><trkpt lat="40.2745771" lon="9.5978254"><ele>465.5</ele><time>2026-04-06T15:48:24.008Z</time></trkpt><trkpt lat="40.2744967" lon="9.5978653"><ele>462.0</ele><time>2026-04-06T15:48:25.01Z</time></trkpt><trkpt lat="40.2744225" lon="9.5978791"><ele>458.49999999999994</ele><time>2026-04-06T15:48:26.007Z</time></trkpt><trkpt lat="40.2743429" lon="9.5978794"><ele>455.0</ele><time>2026-04-06T15:48:27.01Z</time></trkpt><trkpt lat="40.2742636" lon="9.5978792"><ele>448.75</ele><time>2026-04-06T15:48:28.009Z</time></trkpt><trkpt lat="40.2741742" lon="9.5978815"><ele>442.5</ele><time>2026-04-06T15:48:29.01Z</time></trkpt><trkpt lat="40.2740655" lon="9.5978791"><ele>436.25</ele><time>2026-04-06T15:48:30.009Z</time></trkpt><trkpt lat="40.2739368" lon="9.5978775"><ele>430.0</ele><time>2026-04-06T15:48:31.01Z</time></trkpt><trkpt lat="40.2737977" lon="9.5978746"><ele>428.75</ele><time>2026-04-06T15:48:32.01Z</time></trkpt><trkpt lat="40.273653" lon="9.5978715"><ele>427.5</ele><time>2026-04-06T15:48:33.009Z</time></trkpt><trkpt lat="40.2735109" lon="9.5978655"><ele>426.25</ele><time>2026-04-06T15:48:34.01Z</time></trkpt><trkpt lat="40.2733766" lon="9.5978638"><ele>425.0</ele><time>2026-04-06T15:48:35.009Z</time></trkpt><trkpt lat="40.2732422" lon="9.5978619"><ele>425.0</ele><time>2026-04-06T15:48:36.01Z</time></trkpt><trkpt lat="40.2731131" lon="9.5978705"><ele>425.0</ele><time>2026-04-06T15:48:37.01Z</time></trkpt><trkpt lat="40.272995" lon="9.5979036"><ele>425.0</ele><time>2026-04-06T15:48:38.01Z</time></trkpt><trkpt lat="40.2728874" lon="9.5979665"><ele>425.0</ele><time>2026-04-06T15:48:39.01Z</time></trkpt><trkpt lat="40.2727993" lon="9.5980878"><ele>429.0</ele><time>2026-04-06T15:48:40.01Z</time></trkpt><trkpt lat="40.2727144" lon="9.5982355"><ele>433.0</ele><time>2026-04-06T15:48:41.01Z</time></trkpt><trkpt lat="40.2726362" lon="9.5983889"><ele>437.0</ele><time>2026-04-06T15:48:42.01Z</time></trkpt><trkpt lat="40.2725669" lon="9.5985413"><ele>441.0</ele><time>2026-04-06T15:48:43.009Z</time></trkpt><trkpt lat="40.272506" lon="9.5986652"><ele>438.0</ele><time>2026-04-06T15:48:44.01Z</time></trkpt><trkpt lat="40.272453" lon="9.5987827"><ele>435.0</ele><time>2026-04-06T15:48:45.01Z</time></trkpt><trkpt lat="40.2724127" lon="9.5988845"><ele>432.0</ele><time>2026-04-06T15:48:46.009Z</time></trkpt><trkpt lat="40.2723876" lon="9.5989754"><ele>429.0</ele><time>2026-04-06T15:48:47.01Z</time></trkpt><trkpt lat="40.2723835" lon="9.5990645"><ele>426.0</ele><time>2026-04-06T15:48:48.01Z</time></trkpt><trkpt lat="40.2724391" lon="9.5991873"><ele>423.0</ele><time>2026-04-06T15:48:50.01Z</time></trkpt><trkpt lat="40.2725023" lon="9.5991941"><ele>423.0</ele><time>2026-04-06T15:48:51.01Z</time></trkpt><trkpt lat="40.2726063" lon="9.5991542"><ele>423.0</ele><time>2026-04-06T15:48:53.01Z</time></trkpt><trkpt lat="40.2726595" lon="9.5990896"><ele>423.0</ele><time>2026-04-06T15:48:54.01Z</time></trkpt><trkpt lat="40.2727095" lon="9.598946"><ele>423.0</ele><time>2026-04-06T15:48:55.01Z</time></trkpt><trkpt lat="40.2727787" lon="9.5988054"><ele>423.0</ele><time>2026-04-06T15:48:56.01Z</time></trkpt><trkpt lat="40.2728495" lon="9.5986483"><ele>423.5</ele><time>2026-04-06T15:48:57.01Z</time></trkpt><trkpt lat="40.2729107" lon="9.5985007"><ele>424.0</ele><time>2026-04-06T15:48:58.009Z</time></trkpt><trkpt lat="40.2729806" lon="9.5983761"><ele>424.5</ele><time>2026-04-06T15:48:59.01Z</time></trkpt><trkpt lat="40.27306" lon="9.598286"><ele>425.0</ele><time>2026-04-06T15:49:00.01Z</time></trkpt><trkpt lat="40.2731411" lon="9.5982115"><ele>425.0</ele><time>2026-04-06T15:49:01.009Z</time></trkpt><trkpt lat="40.2732847" lon="9.5982694"><ele>425.0</ele><time>2026-04-06T15:49:02.009Z</time></trkpt><trkpt lat="40.2734079" lon="9.5982959"><ele>425.0</ele><time>2026-04-06T15:49:03.01Z</time></trkpt><trkpt lat="40.2735364" lon="9.5983377"><ele>425.0</ele><time>2026-04-06T15:49:04.01Z</time></trkpt><trkpt lat="40.2736529" lon="9.5983974"><ele>425.0</ele><time>2026-04-06T15:49:05.01Z</time></trkpt><trkpt lat="40.273767" lon="9.5984742"><ele>425.0</ele><time>2026-04-06T15:49:06.01Z</time></trkpt><trkpt lat="40.273863" lon="9.5985733"><ele>425.0</ele><time>2026-04-06T15:49:07.01Z</time></trkpt><trkpt lat="40.2739286" lon="9.5986887"><ele>425.0</ele><time>2026-04-06T15:49:08.01Z</time></trkpt><trkpt lat="40.2739933" lon="9.5987996"><ele>419.75</ele><time>2026-04-06T15:49:09.01Z</time></trkpt><trkpt lat="40.2740697" lon="9.5988952"><ele>414.5</ele><time>2026-04-06T15:49:10.01Z</time></trkpt><trkpt lat="40.2741775" lon="9.5989587"><ele>409.25</ele><time>2026-04-06T15:49:11.009Z</time></trkpt><trkpt lat="40.2743133" lon="9.5989973"><ele>404.0</ele><time>2026-04-06T15:49:12.01Z</time></trkpt><trkpt lat="40.2744573" lon="9.5990166"><ele>404.0</ele><time>2026-04-06T15:49:13.01Z</time></trkpt><trkpt lat="40.2746" lon="9.5990264"><ele>404.0</ele><time>2026-04-06T15:49:14.009Z</time></trkpt><trkpt lat="40.2747279" lon="9.5990305"><ele>404.0</ele><time>2026-04-06T15:49:15.01Z</time></trkpt><trkpt lat="40.2748467" lon="9.5990497"><ele>404.0</ele><time>2026-04-06T15:49:16.01Z</time></trkpt><trkpt lat="40.2749627" lon="9.5991246"><ele>405.0</ele><time>2026-04-06T15:49:17.01Z</time></trkpt><trkpt lat="40.2750806" lon="9.5992032"><ele>406.0</ele><time>2026-04-06T15:49:18.01Z</time></trkpt><trkpt lat="40.2751897" lon="9.599274"><ele>407.0</ele><time>2026-04-06T15:49:19.01Z</time></trkpt><trkpt lat="40.2752818" lon="9.5993429"><ele>408.0</ele><time>2026-04-06T15:49:20.01Z</time></trkpt><trkpt lat="40.2753396" lon="9.5994231"><ele>409.0</ele><time>2026-04-06T15:49:21.009Z</time></trkpt><trkpt lat="40.27537" lon="9.5995092"><ele>407.33333333333337</ele><time>2026-04-06T15:49:22.009Z</time></trkpt><trkpt lat="40.275363" lon="9.5996024"><ele>405.6666666666667</ele><time>2026-04-06T15:49:23.01Z</time></trkpt><trkpt lat="40.2753178" lon="9.5996782"><ele>404.0</ele><time>2026-04-06T15:49:24.009Z</time></trkpt><trkpt lat="40.2752457" lon="9.5997088"><ele>402.33333333333337</ele><time>2026-04-06T15:49:25.01Z</time></trkpt><trkpt lat="40.2751674" lon="9.5996963"><ele>400.6666666666667</ele><time>2026-04-06T15:49:26.01Z</time></trkpt><trkpt lat="40.2750802" lon="9.5996524"><ele>399.0</ele><time>2026-04-06T15:49:27.009Z</time></trkpt><trkpt lat="40.2749875" lon="9.5996106"><ele>399.0</ele><time>2026-04-06T15:49:28.01Z</time></trkpt><trkpt lat="40.2748895" lon="9.5995681"><ele>399.0</ele><time>2026-04-06T15:49:29.009Z</time></trkpt><trkpt lat="40.2747851" lon="9.5995301"><ele>399.0</ele><time>2026-04-06T15:49:30.01Z</time></trkpt><trkpt lat="40.2746775" lon="9.5995017"><ele>399.0</ele><time>2026-04-06T15:49:31.009Z</time></trkpt><trkpt lat="40.2745621" lon="9.5994831"><ele>399.0</ele><time>2026-04-06T15:49:32.01Z</time></trkpt><trkpt lat="40.2744472" lon="9.5994766"><ele>400.25</ele><time>2026-04-06T15:49:33.009Z</time></trkpt><trkpt lat="40.2743315" lon="9.5994795"><ele>401.5</ele><time>2026-04-06T15:49:34.01Z</time></trkpt><trkpt lat="40.2742151" lon="9.5994658"><ele>402.75</ele><time>2026-04-06T15:49:35.01Z</time></trkpt><trkpt lat="40.27409" lon="9.5994553"><ele>404.0</ele><time>2026-04-06T15:49:36.009Z</time></trkpt><trkpt lat="40.2739908" lon="9.599386"><ele>403.6</ele><time>2026-04-06T15:49:37.01Z</time></trkpt><trkpt lat="40.2738907" lon="9.5993129"><ele>403.2</ele><time>2026-04-06T15:49:38.01Z</time></trkpt><trkpt lat="40.2737922" lon="9.5992497"><ele>402.8</ele><time>2026-04-06T15:49:39.01Z</time></trkpt><trkpt lat="40.2736967" lon="9.5992184"><ele>402.40000000000003</ele><time>2026-04-06T15:49:40.01Z</time></trkpt><trkpt lat="40.27361" lon="9.5992379"><ele>402.0</ele><time>2026-04-06T15:49:41.01Z</time></trkpt><trkpt lat="40.2735323" lon="9.5992961"><ele>402.0</ele><time>2026-04-06T15:49:42.009Z</time></trkpt><trkpt lat="40.2734774" lon="9.5994019"><ele>402.0</ele><time>2026-04-06T15:49:43.01Z</time></trkpt><trkpt lat="40.273438" lon="9.5995286"><ele>402.0</ele><time>2026-04-06T15:49:44.01Z</time></trkpt><trkpt lat="40.2734103" lon="9.5996713"><ele>402.0</ele><time>2026-04-06T15:49:45.01Z</time></trkpt><trkpt lat="40.2733989" lon="9.5998217"><ele>402.0</ele><time>2026-04-06T15:49:46.01Z</time></trkpt><trkpt lat="40.2734029" lon="9.5999866"><ele>398.0</ele><time>2026-04-06T15:49:47.009Z</time></trkpt><trkpt lat="40.2734078" lon="9.6001552"><ele>394.0</ele><time>2026-04-06T15:49:48.009Z</time></trkpt><trkpt lat="40.27341" lon="9.6003307"><ele>390.0</ele><time>2026-04-06T15:49:49.01Z</time></trkpt><trkpt lat="40.2734094" lon="9.6005153"><ele>386.0</ele><time>2026-04-06T15:49:50.01Z</time></trkpt><trkpt lat="40.2733977" lon="9.6006868"><ele>383.5</ele><time>2026-04-06T15:49:51.009Z</time></trkpt><trkpt lat="40.2733598" lon="9.6008577"><ele>381.0</ele><time>2026-04-06T15:49:52.01Z</time></trkpt><trkpt lat="40.2732891" lon="9.6010088"><ele>378.5</ele><time>2026-04-06T15:49:53.009Z</time></trkpt><trkpt lat="40.2732072" lon="9.601152"><ele>376.0</ele><time>2026-04-06T15:49:54.01Z</time></trkpt><trkpt lat="40.2731239" lon="9.6012914"><ele>373.75</ele><time>2026-04-06T15:49:55.009Z</time></trkpt><trkpt lat="40.273026" lon="9.6014242"><ele>371.5</ele><time>2026-04-06T15:49:56.01Z</time></trkpt><trkpt lat="40.2729129" lon="9.6015324"><ele>369.25</ele><time>2026-04-06T15:49:57.01Z</time></trkpt><trkpt lat="40.2727861" lon="9.6016135"><ele>367.0</ele><time>2026-04-06T15:49:58.009Z</time></trkpt><trkpt lat="40.2726409" lon="9.6016719"><ele>367.0</ele><time>2026-04-06T15:49:59.01Z</time></trkpt><trkpt lat="40.2724798" lon="9.601721"><ele>367.0</ele><time>2026-04-06T15:50:00.01Z</time></trkpt><trkpt lat="40.27231" lon="9.6017832"><ele>367.0</ele><time>2026-04-06T15:50:01.009Z</time></trkpt><trkpt lat="40.2721374" lon="9.6018633"><ele>369.66666666666663</ele><time>2026-04-06T15:50:02.01Z</time></trkpt><trkpt lat="40.2719783" lon="9.6019579"><ele>372.3333333333333</ele><time>2026-04-06T15:50:03.01Z</time></trkpt><trkpt lat="40.2718263" lon="9.6020573"><ele>375.0</ele><time>2026-04-06T15:50:04.01Z</time></trkpt><trkpt lat="40.2716832" lon="9.6021642"><ele>373.0</ele><time>2026-04-06T15:50:05.009Z</time></trkpt><trkpt lat="40.2715537" lon="9.6023101"><ele>371.0</ele><time>2026-04-06T15:50:06.01Z</time></trkpt><trkpt lat="40.2714383" lon="9.6024916"><ele>369.0</ele><time>2026-04-06T15:50:07.01Z</time></trkpt><trkpt lat="40.271327" lon="9.6026966"><ele>363.3333333333333</ele><time>2026-04-06T15:50:08.01Z</time></trkpt><trkpt lat="40.2712207" lon="9.6029056"><ele>357.66666666666663</ele><time>2026-04-06T15:50:09.009Z</time></trkpt><trkpt lat="40.2711276" lon="9.6031045"><ele>352.0</ele><time>2026-04-06T15:50:10.01Z</time></trkpt><trkpt lat="40.2710411" lon="9.6032839"><ele>352.0</ele><time>2026-04-06T15:50:11.01Z</time></trkpt><trkpt lat="40.2709622" lon="9.6034453"><ele>352.0</ele><time>2026-04-06T15:50:12.009Z</time></trkpt><trkpt lat="40.2708794" lon="9.6035788"><ele>352.0</ele><time>2026-04-06T15:50:13.009Z</time></trkpt><trkpt lat="40.2707826" lon="9.6036794"><ele>352.0</ele><time>2026-04-06T15:50:14.01Z</time></trkpt><trkpt lat="40.2706912" lon="9.6037485"><ele>352.8</ele><time>2026-04-06T15:50:15.01Z</time></trkpt><trkpt lat="40.2706117" lon="9.6038143"><ele>353.6</ele><time>2026-04-06T15:50:16.01Z</time></trkpt><trkpt lat="40.2705654" lon="9.6039001"><ele>354.40000000000003</ele><time>2026-04-06T15:50:17.01Z</time></trkpt><trkpt lat="40.2705568" lon="9.6039885"><ele>355.20000000000005</ele><time>2026-04-06T15:50:18.009Z</time></trkpt><trkpt lat="40.2706046" lon="9.6041242"><ele>356.0</ele><time>2026-04-06T15:50:20.01Z</time></trkpt><trkpt lat="40.2707041" lon="9.6041643"><ele>352.4</ele><time>2026-04-06T15:50:22.01Z</time></trkpt><trkpt lat="40.2708063" lon="9.604088"><ele>348.8</ele><time>2026-04-06T15:50:24.009Z</time></trkpt><trkpt lat="40.2708707" lon="9.6040151"><ele>345.2</ele><time>2026-04-06T15:50:25.01Z</time></trkpt><trkpt lat="40.2709547" lon="9.6039369"><ele>341.59999999999997</ele><time>2026-04-06T15:50:26.01Z</time></trkpt><trkpt lat="40.2710586" lon="9.6038696"><ele>338.0</ele><time>2026-04-06T15:50:27.01Z</time></trkpt><trkpt lat="40.2711611" lon="9.6038062"><ele>338.0</ele><time>2026-04-06T15:50:28.01Z</time></trkpt><trkpt lat="40.2712581" lon="9.6037473"><ele>338.0</ele><time>2026-04-06T15:50:29.009Z</time></trkpt><trkpt lat="40.2713535" lon="9.6036912"><ele>338.0</ele><time>2026-04-06T15:50:30.01Z</time></trkpt><trkpt lat="40.2714418" lon="9.6036371"><ele>338.0</ele><time>2026-04-06T15:50:31.009Z</time></trkpt><trkpt lat="40.2715239" lon="9.6035856"><ele>338.0</ele><time>2026-04-06T15:50:32.01Z</time></trkpt><trkpt lat="40.2716002" lon="9.6035356"><ele>338.1666666666667</ele><time>2026-04-06T15:50:33.01Z</time></trkpt><trkpt lat="40.2716696" lon="9.6034907"><ele>338.33333333333337</ele><time>2026-04-06T15:50:34.01Z</time></trkpt><trkpt lat="40.2717381" lon="9.6034546"><ele>338.5</ele><time>2026-04-06T15:50:35.009Z</time></trkpt><trkpt lat="40.2718028" lon="9.6034217"><ele>338.6666666666667</ele><time>2026-04-06T15:50:36.01Z</time></trkpt><trkpt lat="40.2718744" lon="9.6033956"><ele>338.8333333333333</ele><time>2026-04-06T15:50:37.01Z</time></trkpt><trkpt lat="40.2719533" lon="9.6033945"><ele>339.0</ele><time>2026-04-06T15:50:38.01Z</time></trkpt><trkpt lat="40.2720335" lon="9.6034193"><ele>339.0</ele><time>2026-04-06T15:50:39.01Z</time></trkpt><trkpt lat="40.2721072" lon="9.6034732"><ele>339.0</ele><time>2026-04-06T15:50:40.01Z</time></trkpt><trkpt lat="40.2721751" lon="9.6035454"><ele>339.0</ele><time>2026-04-06T15:50:41.009Z</time></trkpt><trkpt lat="40.2722446" lon="9.6036277"><ele>339.0</ele><time>2026-04-06T15:50:42.01Z</time></trkpt><trkpt lat="40.2723192" lon="9.6037102"><ele>339.0</ele><time>2026-04-06T15:50:43.01Z</time></trkpt><trkpt lat="40.2724005" lon="9.6037752"><ele>335.6</ele><time>2026-04-06T15:50:44.01Z</time></trkpt><trkpt lat="40.2724962" lon="9.6038092"><ele>332.2</ele><time>2026-04-06T15:50:45.01Z</time></trkpt><trkpt lat="40.2725919" lon="9.6038"><ele>328.8</ele><time>2026-04-06T15:50:46.01Z</time></trkpt><trkpt lat="40.2726854" lon="9.6037647"><ele>325.40000000000003</ele><time>2026-04-06T15:50:47.01Z</time></trkpt><trkpt lat="40.2727799" lon="9.6037242"><ele>322.0</ele><time>2026-04-06T15:50:48.01Z</time></trkpt><trkpt lat="40.272881" lon="9.6037236"><ele>322.0</ele><time>2026-04-06T15:50:49.009Z</time></trkpt><trkpt lat="40.2729515" lon="9.6037725"><ele>322.0</ele><time>2026-04-06T15:50:50.01Z</time></trkpt><trkpt lat="40.2729972" lon="9.6038605"><ele>322.0</ele><time>2026-04-06T15:50:51.01Z</time></trkpt><trkpt lat="40.2730414" lon="9.6039793"><ele>322.0</ele><time>2026-04-06T15:50:52.01Z</time></trkpt><trkpt lat="40.2730964" lon="9.6041097"><ele>322.0</ele><time>2026-04-06T15:50:53.01Z</time></trkpt><trkpt lat="40.2731474" lon="9.6042319"><ele>322.40000000000003</ele><time>2026-04-06T15:50:54.01Z</time></trkpt><trkpt lat="40.2732089" lon="9.6043382"><ele>322.8</ele><time>2026-04-06T15:50:55.01Z</time></trkpt><trkpt lat="40.2732884" lon="9.6044224"><ele>323.2</ele><time>2026-04-06T15:50:56.009Z</time></trkpt><trkpt lat="40.2733879" lon="9.6044663"><ele>323.6</ele><time>2026-04-06T15:50:57.009Z</time></trkpt><trkpt lat="40.2734955" lon="9.604477"><ele>324.0</ele><time>2026-04-06T15:50:58.01Z</time></trkpt><trkpt lat="40.2736194" lon="9.6044733"><ele>324.0</ele><time>2026-04-06T15:50:59.01Z</time></trkpt><trkpt lat="40.2737413" lon="9.6044652"><ele>324.0</ele><time>2026-04-06T15:51:00.009Z</time></trkpt><trkpt lat="40.2738644" lon="9.6044625"><ele>324.0</ele><time>2026-04-06T15:51:01.009Z</time></trkpt><trkpt lat="40.2739831" lon="9.6044627"><ele>324.0</ele><time>2026-04-06T15:51:02.01Z</time></trkpt><trkpt lat="40.2740983" lon="9.6044738"><ele>319.25</ele><time>2026-04-06T15:51:03.01Z</time></trkpt><trkpt lat="40.2741997" lon="9.6045081"><ele>314.5</ele><time>2026-04-06T15:51:04.01Z</time></trkpt><trkpt lat="40.2743012" lon="9.6045629"><ele>309.75</ele><time>2026-04-06T15:51:05.009Z</time></trkpt><trkpt lat="40.2744082" lon="9.6046379"><ele>305.0</ele><time>2026-04-06T15:51:06.01Z</time></trkpt><trkpt lat="40.2745182" lon="9.6047224"><ele>305.0</ele><time>2026-04-06T15:51:07.01Z</time></trkpt><trkpt lat="40.2746424" lon="9.6048242"><ele>305.0</ele><time>2026-04-06T15:51:08.01Z</time></trkpt><trkpt lat="40.2747679" lon="9.6049293"><ele>305.0</ele><time>2026-04-06T15:51:09.01Z</time></trkpt><trkpt lat="40.2748985" lon="9.6050291"><ele>305.0</ele><time>2026-04-06T15:51:10.01Z</time></trkpt><trkpt lat="40.2750416" lon="9.6051132"><ele>306.0</ele><time>2026-04-06T15:51:11.01Z</time></trkpt><trkpt lat="40.2751938" lon="9.6051936"><ele>307.0</ele><time>2026-04-06T15:51:12.01Z</time></trkpt><trkpt lat="40.2753538" lon="9.6052801"><ele>308.0</ele><time>2026-04-06T15:51:13.01Z</time></trkpt><trkpt lat="40.2755135" lon="9.6053808"><ele>306.75</ele><time>2026-04-06T15:51:14.01Z</time></trkpt><trkpt lat="40.2756462" lon="9.6054829"><ele>305.5</ele><time>2026-04-06T15:51:15.01Z</time></trkpt><trkpt lat="40.275749" lon="9.6055821"><ele>304.25</ele><time>2026-04-06T15:51:16.01Z</time></trkpt><trkpt lat="40.2758286" lon="9.6056749"><ele>303.0</ele><time>2026-04-06T15:51:17.01Z</time></trkpt><trkpt lat="40.2758694" lon="9.6057736"><ele>303.0</ele><time>2026-04-06T15:51:18.01Z</time></trkpt><trkpt lat="40.2758642" lon="9.605865"><ele>303.0</ele><time>2026-04-06T15:51:19.01Z</time></trkpt><trkpt lat="40.2758225" lon="9.6059275"><ele>303.0</ele><time>2026-04-06T15:51:20.009Z</time></trkpt><trkpt lat="40.2757504" lon="9.6059451"><ele>303.0</ele><time>2026-04-06T15:51:21.009Z</time></trkpt><trkpt lat="40.2756679" lon="9.6059078"><ele>303.0</ele><time>2026-04-06T15:51:22.01Z</time></trkpt><trkpt lat="40.2755706" lon="9.6058728"><ele>303.0</ele><time>2026-04-06T15:51:23.009Z</time></trkpt><trkpt lat="40.2754483" lon="9.6058633"><ele>300.75</ele><time>2026-04-06T15:51:24.01Z</time></trkpt><trkpt lat="40.2753166" lon="9.6059008"><ele>298.5</ele><time>2026-04-06T15:51:25.01Z</time></trkpt><trkpt lat="40.2751842" lon="9.6059597"><ele>296.25</ele><time>2026-04-06T15:51:26.01Z</time></trkpt><trkpt lat="40.2750435" lon="9.6060271"><ele>294.0</ele><time>2026-04-06T15:51:27.01Z</time></trkpt><trkpt lat="40.2748872" lon="9.6060771"><ele>294.25</ele><time>2026-04-06T15:51:28.01Z</time></trkpt><trkpt lat="40.2747302" lon="9.6061001"><ele>294.5</ele><time>2026-04-06T15:51:29.009Z</time></trkpt><trkpt lat="40.2745806" lon="9.606111"><ele>294.75</ele><time>2026-04-06T15:51:30.01Z</time></trkpt><trkpt lat="40.2744422" lon="9.6061235"><ele>295.0</ele><time>2026-04-06T15:51:31.01Z</time></trkpt><trkpt lat="40.2743185" lon="9.6061554"><ele>292.75</ele><time>2026-04-06T15:51:32.01Z</time></trkpt><trkpt lat="40.2742157" lon="9.6062389"><ele>290.5</ele><time>2026-04-06T15:51:33.009Z</time></trkpt><trkpt lat="40.2741273" lon="9.6063747"><ele>288.25</ele><time>2026-04-06T15:51:34.01Z</time></trkpt><trkpt lat="40.2740378" lon="9.6065235"><ele>286.0</ele><time>2026-04-06T15:51:35.01Z</time></trkpt><trkpt lat="40.2739304" lon="9.6066743"><ele>286.0</ele><time>2026-04-06T15:51:36.01Z</time></trkpt><trkpt lat="40.2738153" lon="9.6068203"><ele>286.0</ele><time>2026-04-06T15:51:37.01Z</time></trkpt><trkpt lat="40.2737027" lon="9.6069666"><ele>286.0</ele><time>2026-04-06T15:51:38.01Z</time></trkpt><trkpt lat="40.2735874" lon="9.607112"><ele>282.0</ele><time>2026-04-06T15:51:39.01Z</time></trkpt><trkpt lat="40.2734586" lon="9.6072366"><ele>278.0</ele><time>2026-04-06T15:51:40.01Z</time></trkpt><trkpt lat="40.2733206" lon="9.6073325"><ele>274.0</ele><time>2026-04-06T15:51:41.01Z</time></trkpt><trkpt lat="40.273193" lon="9.607433"><ele>273.75</ele><time>2026-04-06T15:51:42.01Z</time></trkpt><trkpt lat="40.273086" lon="9.6075662"><ele>273.5</ele><time>2026-04-06T15:51:43.01Z</time></trkpt><trkpt lat="40.2729829" lon="9.6076923"><ele>273.25</ele><time>2026-04-06T15:51:44.01Z</time></trkpt><trkpt lat="40.2728701" lon="9.6077824"><ele>273.0</ele><time>2026-04-06T15:51:45.01Z</time></trkpt><trkpt lat="40.2727395" lon="9.6078313"><ele>269.75</ele><time>2026-04-06T15:51:46.009Z</time></trkpt><trkpt lat="40.2726005" lon="9.6078421"><ele>266.5</ele><time>2026-04-06T15:51:47.009Z</time></trkpt><trkpt lat="40.2724675" lon="9.6078443"><ele>263.25</ele><time>2026-04-06T15:51:48.01Z</time></trkpt><trkpt lat="40.2723407" lon="9.6078471"><ele>260.0</ele><time>2026-04-06T15:51:49.01Z</time></trkpt><trkpt lat="40.2722189" lon="9.6078522"><ele>259.5</ele><time>2026-04-06T15:51:50.01Z</time></trkpt><trkpt lat="40.2721119" lon="9.607859"><ele>259.0</ele><time>2026-04-06T15:51:51.01Z</time></trkpt><trkpt lat="40.2720232" lon="9.6078733"><ele>258.5</ele><time>2026-04-06T15:51:52.01Z</time></trkpt><trkpt lat="40.2719538" lon="9.6079241"><ele>258.0</ele><time>2026-04-06T15:51:53.01Z</time></trkpt><trkpt lat="40.2719142" lon="9.6079946"><ele>257.5</ele><time>2026-04-06T15:51:54.01Z</time></trkpt><trkpt lat="40.2719044" lon="9.608079"><ele>257.0</ele><time>2026-04-06T15:51:55.01Z</time></trkpt><trkpt lat="40.271978" lon="9.6082004"><ele>257.0</ele><time>2026-04-06T15:51:57.01Z</time></trkpt><trkpt lat="40.2720426" lon="9.6082333"><ele>257.0</ele><time>2026-04-06T15:51:58.009Z</time></trkpt><trkpt lat="40.2721166" lon="9.6082596"><ele>257.0</ele><time>2026-04-06T15:51:59.01Z</time></trkpt><trkpt lat="40.2722013" lon="9.6082859"><ele>257.0</ele><time>2026-04-06T15:52:00.01Z</time></trkpt><trkpt lat="40.2722936" lon="9.6083317"><ele>257.0</ele><time>2026-04-06T15:52:01.009Z</time></trkpt><trkpt lat="40.2723866" lon="9.6083973"><ele>257.0</ele><time>2026-04-06T15:52:02.01Z</time></trkpt><trkpt lat="40.2724748" lon="9.6084894"><ele>257.75</ele><time>2026-04-06T15:52:03.01Z</time></trkpt><trkpt lat="40.2725741" lon="9.6085889"><ele>258.5</ele><time>2026-04-06T15:52:04.01Z</time></trkpt><trkpt lat="40.2726864" lon="9.6086781"><ele>259.25</ele><time>2026-04-06T15:52:05.01Z</time></trkpt><trkpt lat="40.272807" lon="9.6087642"><ele>260.0</ele><time>2026-04-06T15:52:06.01Z</time></trkpt><trkpt lat="40.2729339" lon="9.6088562"><ele>257.25</ele><time>2026-04-06T15:52:07.01Z</time></trkpt><trkpt lat="40.2730584" lon="9.6089513"><ele>254.5</ele><time>2026-04-06T15:52:08.01Z</time></trkpt><trkpt lat="40.2731929" lon="9.6090334"><ele>251.75</ele><time>2026-04-06T15:52:09.01Z</time></trkpt><trkpt lat="40.2733411" lon="9.6090899"><ele>249.0</ele><time>2026-04-06T15:52:10.01Z</time></trkpt><trkpt lat="40.2734929" lon="9.6091243"><ele>249.0</ele><time>2026-04-06T15:52:11.009Z</time></trkpt><trkpt lat="40.2736526" lon="9.6091402"><ele>249.0</ele><time>2026-04-06T15:52:12.01Z</time></trkpt><trkpt lat="40.2738125" lon="9.6091324"><ele>249.0</ele><time>2026-04-06T15:52:13.01Z</time></trkpt><trkpt lat="40.2739664" lon="9.6091111"><ele>247.33333333333331</ele><time>2026-04-06T15:52:14.009Z</time></trkpt><trkpt lat="40.2741201" lon="9.6091057"><ele>245.66666666666666</ele><time>2026-04-06T15:52:15.009Z</time></trkpt><trkpt lat="40.2742716" lon="9.6091287"><ele>244.0</ele><time>2026-04-06T15:52:16.01Z</time></trkpt><trkpt lat="40.2744179" lon="9.6091718"><ele>244.0</ele><time>2026-04-06T15:52:17.009Z</time></trkpt><trkpt lat="40.2745606" lon="9.6092318"><ele>244.0</ele><time>2026-04-06T15:52:18.009Z</time></trkpt><trkpt lat="40.2747055" lon="9.609298"><ele>244.0</ele><time>2026-04-06T15:52:19.01Z</time></trkpt><trkpt lat="40.2748458" lon="9.6093773"><ele>242.66666666666666</ele><time>2026-04-06T15:52:20.009Z</time></trkpt><trkpt lat="40.2749826" lon="9.6094739"><ele>241.33333333333331</ele><time>2026-04-06T15:52:21.009Z</time></trkpt><trkpt lat="40.275117" lon="9.6095844"><ele>240.0</ele><time>2026-04-06T15:52:22.01Z</time></trkpt><trkpt lat="40.2752502" lon="9.6096964"><ele>237.5</ele><time>2026-04-06T15:52:23.01Z</time></trkpt><trkpt lat="40.2753815" lon="9.6097983"><ele>235.0</ele><time>2026-04-06T15:52:24.009Z</time></trkpt><trkpt lat="40.2755196" lon="9.6098727"><ele>232.5</ele><time>2026-04-06T15:52:25.01Z</time></trkpt><trkpt lat="40.2756499" lon="9.6099225"><ele>230.0</ele><time>2026-04-06T15:52:26.009Z</time></trkpt><trkpt lat="40.2757666" lon="9.6099585"><ele>230.0</ele><time>2026-04-06T15:52:27.009Z</time></trkpt><trkpt lat="40.2758644" lon="9.6099812"><ele>230.0</ele><time>2026-04-06T15:52:28.01Z</time></trkpt><trkpt lat="40.2759387" lon="9.6100094"><ele>230.0</ele><time>2026-04-06T15:52:29.01Z</time></trkpt><trkpt lat="40.2759999" lon="9.6100478"><ele>230.0</ele><time>2026-04-06T15:52:30.009Z</time></trkpt><trkpt lat="40.2760554" lon="9.610186"><ele>230.0</ele><time>2026-04-06T15:52:32.009Z</time></trkpt><trkpt lat="40.2759751" lon="9.610297"><ele>230.0</ele><time>2026-04-06T15:52:34.01Z</time></trkpt><trkpt lat="40.2758978" lon="9.6103119"><ele>230.0</ele><time>2026-04-06T15:52:35.01Z</time></trkpt><trkpt lat="40.2758006" lon="9.6103241"><ele>230.0</ele><time>2026-04-06T15:52:36.01Z</time></trkpt><trkpt lat="40.2756888" lon="9.6103532"><ele>230.0</ele><time>2026-04-06T15:52:37.01Z</time></trkpt><trkpt lat="40.275565" lon="9.6104033"><ele>230.0</ele><time>2026-04-06T15:52:38.01Z</time></trkpt><trkpt lat="40.2754308" lon="9.6104667"><ele>225.33333333333334</ele><time>2026-04-06T15:52:39.009Z</time></trkpt><trkpt lat="40.2752849" lon="9.6105392"><ele>220.66666666666669</ele><time>2026-04-06T15:52:40.01Z</time></trkpt><trkpt lat="40.2751395" lon="9.6106108"><ele>216.0</ele><time>2026-04-06T15:52:41.01Z</time></trkpt><trkpt lat="40.275" lon="9.6106733"><ele>216.0</ele><time>2026-04-06T15:52:42.01Z</time></trkpt><trkpt lat="40.2748665" lon="9.6107241"><ele>216.0</ele><time>2026-04-06T15:52:43.01Z</time></trkpt><trkpt lat="40.2747308" lon="9.6107643"><ele>216.0</ele><time>2026-04-06T15:52:44.01Z</time></trkpt><trkpt lat="40.2746017" lon="9.6108317"><ele>216.0</ele><time>2026-04-06T15:52:45.01Z</time></trkpt><trkpt lat="40.2744804" lon="9.6109359"><ele>216.75</ele><time>2026-04-06T15:52:46.01Z</time></trkpt><trkpt lat="40.2743662" lon="9.6110637"><ele>217.5</ele><time>2026-04-06T15:52:47.01Z</time></trkpt><trkpt lat="40.2742573" lon="9.6112012"><ele>218.25</ele><time>2026-04-06T15:52:48.01Z</time></trkpt><trkpt lat="40.2741528" lon="9.6113322"><ele>219.0</ele><time>2026-04-06T15:52:49.009Z</time></trkpt><trkpt lat="40.274053" lon="9.6114512"><ele>216.75</ele><time>2026-04-06T15:52:50.009Z</time></trkpt><trkpt lat="40.2739444" lon="9.611567"><ele>214.5</ele><time>2026-04-06T15:52:51.01Z</time></trkpt><trkpt lat="40.2738251" lon="9.6116817"><ele>212.25</ele><time>2026-04-06T15:52:52.01Z</time></trkpt><trkpt lat="40.2736979" lon="9.6117877"><ele>210.0</ele><time>2026-04-06T15:52:53.01Z</time></trkpt><trkpt lat="40.2735698" lon="9.6118806"><ele>210.0</ele><time>2026-04-06T15:52:54.009Z</time></trkpt><trkpt lat="40.2734385" lon="9.6119572"><ele>210.0</ele><time>2026-04-06T15:52:55.009Z</time></trkpt><trkpt lat="40.2732999" lon="9.6120251"><ele>210.0</ele><time>2026-04-06T15:52:56.009Z</time></trkpt><trkpt lat="40.2731587" lon="9.6120863"><ele>210.0</ele><time>2026-04-06T15:52:57.01Z</time></trkpt><trkpt lat="40.273018" lon="9.6121461"><ele>206.75</ele><time>2026-04-06T15:52:58.01Z</time></trkpt><trkpt lat="40.2728773" lon="9.6122059"><ele>203.5</ele><time>2026-04-06T15:52:59.01Z</time></trkpt><trkpt lat="40.2727421" lon="9.6122669"><ele>200.25</ele><time>2026-04-06T15:53:00.01Z</time></trkpt><trkpt lat="40.2726099" lon="9.6123118"><ele>197.0</ele><time>2026-04-06T15:53:01.01Z</time></trkpt><trkpt lat="40.2724818" lon="9.6123463"><ele>197.0</ele><time>2026-04-06T15:53:02.01Z</time></trkpt><trkpt lat="40.2723575" lon="9.6123644"><ele>197.0</ele><time>2026-04-06T15:53:03.01Z</time></trkpt><trkpt lat="40.2722479" lon="9.612376"><ele>197.0</ele><time>2026-04-06T15:53:04.01Z</time></trkpt><trkpt lat="40.2721527" lon="9.6123902"><ele>197.0</ele><time>2026-04-06T15:53:05.01Z</time></trkpt><trkpt lat="40.2720725" lon="9.6124335"><ele>197.0</ele><time>2026-04-06T15:53:06.009Z</time></trkpt><trkpt lat="40.2720199" lon="9.6125049"><ele>197.00000000000003</ele><time>2026-04-06T15:53:07.01Z</time></trkpt><trkpt lat="40.2720077" lon="9.6125986"><ele>197.0</ele><time>2026-04-06T15:53:08.01Z</time></trkpt><trkpt lat="40.2720333" lon="9.612685"><ele>197.0</ele><time>2026-04-06T15:53:09.009Z</time></trkpt><trkpt lat="40.2721005" lon="9.6127454"><ele>197.0</ele><time>2026-04-06T15:53:10.01Z</time></trkpt><trkpt lat="40.2721915" lon="9.6127644"><ele>197.00000000000003</ele><time>2026-04-06T15:53:11.01Z</time></trkpt><trkpt lat="40.272295" lon="9.6127778"><ele>197.0</ele><time>2026-04-06T15:53:12.01Z</time></trkpt><trkpt lat="40.2724142" lon="9.6128103"><ele>194.0</ele><time>2026-04-06T15:53:13.01Z</time></trkpt><trkpt lat="40.2725382" lon="9.6128606"><ele>191.0</ele><time>2026-04-06T15:53:14.01Z</time></trkpt><trkpt lat="40.2726717" lon="9.6129261"><ele>188.0</ele><time>2026-04-06T15:53:15.01Z</time></trkpt><trkpt lat="40.27281" lon="9.6129999"><ele>185.0</ele><time>2026-04-06T15:53:16.01Z</time></trkpt><trkpt lat="40.2729434" lon="9.6130932"><ele>185.0</ele><time>2026-04-06T15:53:17.01Z</time></trkpt><trkpt lat="40.2730715" lon="9.6131955"><ele>185.0</ele><time>2026-04-06T15:53:18.01Z</time></trkpt><trkpt lat="40.2732015" lon="9.6132992"><ele>185.0</ele><time>2026-04-06T15:53:19.01Z</time></trkpt><trkpt lat="40.273328" lon="9.6134055"><ele>185.0</ele><time>2026-04-06T15:53:20.01Z</time></trkpt><trkpt lat="40.2734581" lon="9.6135078"><ele>185.0</ele><time>2026-04-06T15:53:21.01Z</time></trkpt><trkpt lat="40.2735879" lon="9.6136006"><ele>185.0</ele><time>2026-04-06T15:53:22.01Z</time></trkpt><trkpt lat="40.2737277" lon="9.6136752"><ele>181.66666666666666</ele><time>2026-04-06T15:53:23.01Z</time></trkpt><trkpt lat="40.2738837" lon="9.613729"><ele>178.33333333333334</ele><time>2026-04-06T15:53:24.01Z</time></trkpt><trkpt lat="40.2740423" lon="9.6137608"><ele>175.0</ele><time>2026-04-06T15:53:25.009Z</time></trkpt><trkpt lat="40.2741948" lon="9.6137894"><ele>174.75</ele><time>2026-04-06T15:53:26.01Z</time></trkpt><trkpt lat="40.2743395" lon="9.6138172"><ele>174.5</ele><time>2026-04-06T15:53:27.009Z</time></trkpt><trkpt lat="40.274475" lon="9.613852"><ele>174.25</ele><time>2026-04-06T15:53:28.01Z</time></trkpt><trkpt lat="40.274607" lon="9.613894"><ele>174.0</ele><time>2026-04-06T15:53:29.01Z</time></trkpt><trkpt lat="40.2747391" lon="9.6139404"><ele>173.0</ele><time>2026-04-06T15:53:30.01Z</time></trkpt><trkpt lat="40.2748727" lon="9.6139899"><ele>172.0</ele><time>2026-04-06T15:53:31.01Z</time></trkpt><trkpt lat="40.2750032" lon="9.6140582"><ele>171.0</ele><time>2026-04-06T15:53:32.01Z</time></trkpt><trkpt lat="40.2751297" lon="9.6141443"><ele>170.0</ele><time>2026-04-06T15:53:33.01Z</time></trkpt><trkpt lat="40.2752514" lon="9.6142335"><ele>170.0</ele><time>2026-04-06T15:53:34.01Z</time></trkpt><trkpt lat="40.2753847" lon="9.6143"><ele>170.0</ele><time>2026-04-06T15:53:35.009Z</time></trkpt><trkpt lat="40.2755187" lon="9.6143528"><ele>170.0</ele><time>2026-04-06T15:53:36.009Z</time></trkpt><trkpt lat="40.2756556" lon="9.6143906"><ele>170.0</ele><time>2026-04-06T15:53:37.01Z</time></trkpt><trkpt lat="40.275789" lon="9.6144172"><ele>169.75</ele><time>2026-04-06T15:53:38.009Z</time></trkpt><trkpt lat="40.2759281" lon="9.6144198"><ele>169.5</ele><time>2026-04-06T15:53:39.01Z</time></trkpt><trkpt lat="40.2760674" lon="9.614395"><ele>169.25</ele><time>2026-04-06T15:53:40.01Z</time></trkpt><trkpt lat="40.2762052" lon="9.6143681"><ele>169.0</ele><time>2026-04-06T15:53:41.01Z</time></trkpt><trkpt lat="40.2763458" lon="9.6143585"><ele>168.25</ele><time>2026-04-06T15:53:42.01Z</time></trkpt><trkpt lat="40.2764853" lon="9.6143639"><ele>167.5</ele><time>2026-04-06T15:53:43.01Z</time></trkpt><trkpt lat="40.2766201" lon="9.6143809"><ele>166.75</ele><time>2026-04-06T15:53:44.01Z</time></trkpt><trkpt lat="40.2767581" lon="9.6144039"><ele>166.0</ele><time>2026-04-06T15:53:45.01Z</time></trkpt><trkpt lat="40.2768847" lon="9.6144783"><ele>163.75</ele><time>2026-04-06T15:53:46.01Z</time></trkpt><trkpt lat="40.2770149" lon="9.6145432"><ele>161.5</ele><time>2026-04-06T15:53:47.01Z</time></trkpt><trkpt lat="40.2771504" lon="9.614608"><ele>159.25</ele><time>2026-04-06T15:53:48.009Z</time></trkpt><trkpt lat="40.2772831" lon="9.6146824"><ele>157.0</ele><time>2026-04-06T15:53:49.01Z</time></trkpt><trkpt lat="40.2774078" lon="9.6147783"><ele>157.0</ele><time>2026-04-06T15:53:50.01Z</time></trkpt><trkpt lat="40.2775236" lon="9.6149004"><ele>157.0</ele><time>2026-04-06T15:53:51.01Z</time></trkpt><trkpt lat="40.2776347" lon="9.6150377"><ele>157.0</ele><time>2026-04-06T15:53:52.01Z</time></trkpt><trkpt lat="40.277748" lon="9.615175"><ele>157.0</ele><time>2026-04-06T15:53:53.01Z</time></trkpt><trkpt lat="40.2778689" lon="9.6153174"><ele>157.0</ele><time>2026-04-06T15:53:54.009Z</time></trkpt><trkpt lat="40.2779955" lon="9.6154582"><ele>157.0</ele><time>2026-04-06T15:53:55.01Z</time></trkpt><trkpt lat="40.278123" lon="9.6155993"><ele>154.66666666666669</ele><time>2026-04-06T15:53:56.01Z</time></trkpt><trkpt lat="40.2782473" lon="9.6157477"><ele>152.33333333333334</ele><time>2026-04-06T15:53:57.01Z</time></trkpt><trkpt lat="40.2783688" lon="9.6158975"><ele>150.0</ele><time>2026-04-06T15:53:58.01Z</time></trkpt><trkpt lat="40.2784906" lon="9.6160433"><ele>146.33333333333334</ele><time>2026-04-06T15:53:59.009Z</time></trkpt><trkpt lat="40.2786045" lon="9.6161927"><ele>142.66666666666669</ele><time>2026-04-06T15:54:00.009Z</time></trkpt><trkpt lat="40.2787142" lon="9.6163486"><ele>139.0</ele><time>2026-04-06T15:54:01.009Z</time></trkpt><trkpt lat="40.2788137" lon="9.616509"><ele>139.0</ele><time>2026-04-06T15:54:02.009Z</time></trkpt><trkpt lat="40.278904" lon="9.6166836"><ele>139.0</ele><time>2026-04-06T15:54:03.01Z</time></trkpt><trkpt lat="40.2789843" lon="9.6168634"><ele>139.0</ele><time>2026-04-06T15:54:04.01Z</time></trkpt><trkpt lat="40.2790524" lon="9.6170452"><ele>138.0</ele><time>2026-04-06T15:54:05.01Z</time></trkpt><trkpt lat="40.279115" lon="9.6172231"><ele>137.0</ele><time>2026-04-06T15:54:06.01Z</time></trkpt><trkpt lat="40.2791704" lon="9.6173975"><ele>136.0</ele><time>2026-04-06T15:54:07.01Z</time></trkpt><trkpt lat="40.2792245" lon="9.6175622"><ele>135.0</ele><time>2026-04-06T15:54:08.009Z</time></trkpt><trkpt lat="40.2792756" lon="9.6177209"><ele>133.25</ele><time>2026-04-06T15:54:09.01Z</time></trkpt><trkpt lat="40.2793275" lon="9.6178718"><ele>131.5</ele><time>2026-04-06T15:54:10.01Z</time></trkpt><trkpt lat="40.2793796" lon="9.6180182"><ele>129.75</ele><time>2026-04-06T15:54:11.01Z</time></trkpt><trkpt lat="40.2794296" lon="9.6181599"><ele>128.0</ele><time>2026-04-06T15:54:12.01Z</time></trkpt><trkpt lat="40.2794748" lon="9.6182916"><ele>127.99999999999999</ele><time>2026-04-06T15:54:13.01Z</time></trkpt><trkpt lat="40.279516" lon="9.6184158"><ele>128.0</ele><time>2026-04-06T15:54:14.009Z</time></trkpt><trkpt lat="40.2795545" lon="9.6185313"><ele>128.0</ele><time>2026-04-06T15:54:15.01Z</time></trkpt><trkpt lat="40.2795869" lon="9.6186404"><ele>128.0</ele><time>2026-04-06T15:54:16.01Z</time></trkpt><trkpt lat="40.2796099" lon="9.618742"><ele>127.99999999999999</ele><time>2026-04-06T15:54:17.01Z</time></trkpt><trkpt lat="40.2796197" lon="9.6188398"><ele>128.0</ele><time>2026-04-06T15:54:18.01Z</time></trkpt><trkpt lat="40.2796233" lon="9.6189374"><ele>128.33333333333331</ele><time>2026-04-06T15:54:19.009Z</time></trkpt><trkpt lat="40.279645" lon="9.6190333"><ele>128.66666666666666</ele><time>2026-04-06T15:54:20.01Z</time></trkpt><trkpt lat="40.2796835" lon="9.6191206"><ele>129.0</ele><time>2026-04-06T15:54:21.01Z</time></trkpt><trkpt lat="40.2797403" lon="9.6191968"><ele>129.33333333333334</ele><time>2026-04-06T15:54:22.01Z</time></trkpt><trkpt lat="40.2797881" lon="9.6192893"><ele>129.66666666666669</ele><time>2026-04-06T15:54:23.009Z</time></trkpt><trkpt lat="40.2798317" lon="9.6193952"><ele>130.0</ele><time>2026-04-06T15:54:24.009Z</time></trkpt><trkpt lat="40.2798778" lon="9.6195125"><ele>128.25</ele><time>2026-04-06T15:54:25.01Z</time></trkpt><trkpt lat="40.2799281" lon="9.6196357"><ele>126.5</ele><time>2026-04-06T15:54:26.01Z</time></trkpt><trkpt lat="40.2799802" lon="9.6197726"><ele>124.75</ele><time>2026-04-06T15:54:27.01Z</time></trkpt><trkpt lat="40.2800324" lon="9.6199175"><ele>123.0</ele><time>2026-04-06T15:54:28.009Z</time></trkpt><trkpt lat="40.2800857" lon="9.6200662"><ele>123.0</ele><time>2026-04-06T15:54:29.01Z</time></trkpt><trkpt lat="40.2801415" lon="9.6202209"><ele>123.0</ele><time>2026-04-06T15:54:30.01Z</time></trkpt><trkpt lat="40.2802013" lon="9.6203818"><ele>123.0</ele><time>2026-04-06T15:54:31.01Z</time></trkpt><trkpt lat="40.2802719" lon="9.62055"><ele>123.0</ele><time>2026-04-06T15:54:32.01Z</time></trkpt><trkpt lat="40.2803474" lon="9.6207252"><ele>120.33333333333334</ele><time>2026-04-06T15:54:33.01Z</time></trkpt><trkpt lat="40.2804237" lon="9.620903"><ele>117.66666666666667</ele><time>2026-04-06T15:54:34.01Z</time></trkpt><trkpt lat="40.2804993" lon="9.6210877"><ele>115.0</ele><time>2026-04-06T15:54:35.01Z</time></trkpt><trkpt lat="40.2805756" lon="9.6212744"><ele>114.66666666666667</ele><time>2026-04-06T15:54:36.01Z</time></trkpt><trkpt lat="40.2806522" lon="9.6214629"><ele>114.33333333333334</ele><time>2026-04-06T15:54:37.01Z</time></trkpt><trkpt lat="40.2807321" lon="9.6216527"><ele>114.0</ele><time>2026-04-06T15:54:38.01Z</time></trkpt><trkpt lat="40.2808128" lon="9.6218442"><ele>111.33333333333334</ele><time>2026-04-06T15:54:39.01Z</time></trkpt><trkpt lat="40.2808934" lon="9.6220336"><ele>108.66666666666667</ele><time>2026-04-06T15:54:40.01Z</time></trkpt><trkpt lat="40.2809693" lon="9.6222144"><ele>106.0</ele><time>2026-04-06T15:54:41.009Z</time></trkpt><trkpt lat="40.2810416" lon="9.6223881"><ele>106.0</ele><time>2026-04-06T15:54:42.01Z</time></trkpt><trkpt lat="40.2811124" lon="9.6225522"><ele>106.0</ele><time>2026-04-06T15:54:43.01Z</time></trkpt><trkpt lat="40.2811793" lon="9.6227204"><ele>106.0</ele><time>2026-04-06T15:54:44.01Z</time></trkpt><trkpt lat="40.2812488" lon="9.6228919"><ele>106.0</ele><time>2026-04-06T15:54:45.01Z</time></trkpt><trkpt lat="40.2813192" lon="9.6230641"><ele>106.5</ele><time>2026-04-06T15:54:46.009Z</time></trkpt><trkpt lat="40.2813901" lon="9.6232389"><ele>107.0</ele><time>2026-04-06T15:54:47.01Z</time></trkpt><trkpt lat="40.2814567" lon="9.6234127"><ele>107.5</ele><time>2026-04-06T15:54:48.01Z</time></trkpt><trkpt lat="40.2815198" lon="9.6235885"><ele>108.0</ele><time>2026-04-06T15:54:49.01Z</time></trkpt><trkpt lat="40.281579" lon="9.6237711"><ele>105.75</ele><time>2026-04-06T15:54:50.01Z</time></trkpt><trkpt lat="40.281632" lon="9.6239554"><ele>103.5</ele><time>2026-04-06T15:54:51.01Z</time></trkpt><trkpt lat="40.2816829" lon="9.6241354"><ele>101.25</ele><time>2026-04-06T15:54:52.01Z</time></trkpt><trkpt lat="40.2817335" lon="9.6243227"><ele>99.0</ele><time>2026-04-06T15:54:53.01Z</time></trkpt><trkpt lat="40.2817793" lon="9.6245113"><ele>96.0</ele><time>2026-04-06T15:54:54.009Z</time></trkpt><trkpt lat="40.2818238" lon="9.6247054"><ele>93.0</ele><time>2026-04-06T15:54:55.01Z</time></trkpt><trkpt lat="40.2818674" lon="9.6249013"><ele>90.0</ele><time>2026-04-06T15:54:56.009Z</time></trkpt><trkpt lat="40.2819049" lon="9.6251074"><ele>88.33333333333333</ele><time>2026-04-06T15:54:57.01Z</time></trkpt><trkpt lat="40.2819357" lon="9.6253159"><ele>86.66666666666666</ele><time>2026-04-06T15:54:58.01Z</time></trkpt><trkpt lat="40.2819658" lon="9.6255288"><ele>85.0</ele><time>2026-04-06T15:54:59.01Z</time></trkpt><trkpt lat="40.2819967" lon="9.6257426"><ele>85.0</ele><time>2026-04-06T15:55:00.009Z</time></trkpt><trkpt lat="40.2820229" lon="9.6259463"><ele>85.0</ele><time>2026-04-06T15:55:01.01Z</time></trkpt><trkpt lat="40.2820497" lon="9.6261436"><ele>85.0</ele><time>2026-04-06T15:55:02.01Z</time></trkpt><trkpt lat="40.2820783" lon="9.6263324"><ele>84.0</ele><time>2026-04-06T15:55:03.01Z</time></trkpt><trkpt lat="40.2821048" lon="9.6265118"><ele>83.0</ele><time>2026-04-06T15:55:04.01Z</time></trkpt><trkpt lat="40.2821277" lon="9.6266837"><ele>82.0</ele><time>2026-04-06T15:55:05.01Z</time></trkpt><trkpt lat="40.2821489" lon="9.6268496"><ele>81.0</ele><time>2026-04-06T15:55:06.009Z</time></trkpt><trkpt lat="40.2821696" lon="9.6270095"><ele>79.75</ele><time>2026-04-06T15:55:07.01Z</time></trkpt><trkpt lat="40.2821908" lon="9.6271649"><ele>78.5</ele><time>2026-04-06T15:55:08.009Z</time></trkpt><trkpt lat="40.2822159" lon="9.6273209"><ele>77.25</ele><time>2026-04-06T15:55:09.01Z</time></trkpt><trkpt lat="40.2822388" lon="9.6274747"><ele>76.0</ele><time>2026-04-06T15:55:10.01Z</time></trkpt><trkpt lat="40.2822612" lon="9.6276268"><ele>76.75</ele><time>2026-04-06T15:55:11.01Z</time></trkpt><trkpt lat="40.2822859" lon="9.6277781"><ele>77.5</ele><time>2026-04-06T15:55:12.01Z</time></trkpt><trkpt lat="40.2823086" lon="9.6279301"><ele>78.25</ele><time>2026-04-06T15:55:13.01Z</time></trkpt><trkpt lat="40.2823362" lon="9.6280765"><ele>79.0</ele><time>2026-04-06T15:55:14.009Z</time></trkpt><trkpt lat="40.282367" lon="9.6282234"><ele>79.0</ele><time>2026-04-06T15:55:15.01Z</time></trkpt><trkpt lat="40.2823964" lon="9.6283708"><ele>79.0</ele><time>2026-04-06T15:55:16.01Z</time></trkpt><trkpt lat="40.2824251" lon="9.6285198"><ele>79.0</ele><time>2026-04-06T15:55:17.01Z</time></trkpt><trkpt lat="40.2824537" lon="9.6286667"><ele>79.0</ele><time>2026-04-06T15:55:18.01Z</time></trkpt><trkpt lat="40.2825" lon="9.6288079"><ele>76.5</ele><time>2026-04-06T15:55:19.009Z</time></trkpt><trkpt lat="40.2825472" lon="9.6289462"><ele>74.0</ele><time>2026-04-06T15:55:20.01Z</time></trkpt><trkpt lat="40.2826062" lon="9.6290812"><ele>71.5</ele><time>2026-04-06T15:55:21.01Z</time></trkpt><trkpt lat="40.2826756" lon="9.6292124"><ele>69.0</ele><time>2026-04-06T15:55:22.009Z</time></trkpt><trkpt lat="40.2827551" lon="9.6293373"><ele>69.0</ele><time>2026-04-06T15:55:23.01Z</time></trkpt><trkpt lat="40.28284" lon="9.6294448"><ele>69.0</ele><time>2026-04-06T15:55:24.01Z</time></trkpt><trkpt lat="40.2829267" lon="9.6295514"><ele>69.0</ele><time>2026-04-06T15:55:25.01Z</time></trkpt><trkpt lat="40.2830112" lon="9.6296521"><ele>69.0</ele><time>2026-04-06T15:55:26.01Z</time></trkpt><trkpt lat="40.2831039" lon="9.6297455"><ele>67.5</ele><time>2026-04-06T15:55:27.01Z</time></trkpt><trkpt lat="40.2832057" lon="9.6298234"><ele>66.0</ele><time>2026-04-06T15:55:28.01Z</time></trkpt><trkpt lat="40.2833089" lon="9.6298966"><ele>64.5</ele><time>2026-04-06T15:55:29.01Z</time></trkpt><trkpt lat="40.2834278" lon="9.6299485"><ele>63.0</ele><time>2026-04-06T15:55:30.01Z</time></trkpt><trkpt lat="40.2835418" lon="9.6300125"><ele>63.0</ele><time>2026-04-06T15:55:31.01Z</time></trkpt><trkpt lat="40.283655" lon="9.6300852"><ele>63.0</ele><time>2026-04-06T15:55:32.01Z</time></trkpt><trkpt lat="40.2837638" lon="9.6301699"><ele>63.0</ele><time>2026-04-06T15:55:33.01Z</time></trkpt><trkpt lat="40.2838699" lon="9.6302622"><ele>63.0</ele><time>2026-04-06T15:55:34.01Z</time></trkpt><trkpt lat="40.2839693" lon="9.630353"><ele>61.8</ele><time>2026-04-06T15:55:35.01Z</time></trkpt><trkpt lat="40.2840628" lon="9.6304398"><ele>60.599999999999994</ele><time>2026-04-06T15:55:36.01Z</time></trkpt><trkpt lat="40.284146" lon="9.6305337"><ele>59.400000000000006</ele><time>2026-04-06T15:55:37.01Z</time></trkpt><trkpt lat="40.284214" lon="9.6306426"><ele>58.2</ele><time>2026-04-06T15:55:38.01Z</time></trkpt><trkpt lat="40.2842634" lon="9.6307668"><ele>57.0</ele><time>2026-04-06T15:55:39.01Z</time></trkpt><trkpt lat="40.2843033" lon="9.6308978"><ele>57.0</ele><time>2026-04-06T15:55:40.01Z</time></trkpt><trkpt lat="40.2843388" lon="9.6310295"><ele>57.0</ele><time>2026-04-06T15:55:41.01Z</time></trkpt><trkpt lat="40.284366" lon="9.6311667"><ele>57.0</ele><time>2026-04-06T15:55:42.009Z</time></trkpt><trkpt lat="40.2843851" lon="9.6313029"><ele>57.0</ele><time>2026-04-06T15:55:43.01Z</time></trkpt><trkpt lat="40.2843926" lon="9.6314442"><ele>57.0</ele><time>2026-04-06T15:55:44.01Z</time></trkpt><trkpt lat="40.2843858" lon="9.631583"><ele>56.2</ele><time>2026-04-06T15:55:45.01Z</time></trkpt><trkpt lat="40.2843672" lon="9.6317219"><ele>55.400000000000006</ele><time>2026-04-06T15:55:46.009Z</time></trkpt><trkpt lat="40.2843409" lon="9.631858"><ele>54.599999999999994</ele><time>2026-04-06T15:55:47.009Z</time></trkpt><trkpt lat="40.2843271" lon="9.6319966"><ele>53.8</ele><time>2026-04-06T15:55:48.01Z</time></trkpt><trkpt lat="40.2843065" lon="9.6321282"><ele>53.0</ele><time>2026-04-06T15:55:49.009Z</time></trkpt><trkpt lat="40.284288" lon="9.6322594"><ele>51.8</ele><time>2026-04-06T15:55:50.009Z</time></trkpt><trkpt lat="40.2842671" lon="9.6323843"><ele>50.599999999999994</ele><time>2026-04-06T15:55:51.009Z</time></trkpt><trkpt lat="40.2842461" lon="9.6325046"><ele>49.400000000000006</ele><time>2026-04-06T15:55:52.01Z</time></trkpt><trkpt lat="40.2842257" lon="9.6326233"><ele>48.2</ele><time>2026-04-06T15:55:53.01Z</time></trkpt><trkpt lat="40.2842107" lon="9.6327405"><ele>47.0</ele><time>2026-04-06T15:55:54.01Z</time></trkpt><trkpt lat="40.2841927" lon="9.6328566"><ele>46.0</ele><time>2026-04-06T15:55:55.01Z</time></trkpt><trkpt lat="40.2841718" lon="9.6329718"><ele>45.0</ele><time>2026-04-06T15:55:56.01Z</time></trkpt><trkpt lat="40.2841605" lon="9.6330836"><ele>44.0</ele><time>2026-04-06T15:55:57.01Z</time></trkpt><trkpt lat="40.2841453" lon="9.6331915"><ele>43.0</ele><time>2026-04-06T15:55:58.009Z</time></trkpt><trkpt lat="40.2841323" lon="9.6332977"><ele>42.0</ele><time>2026-04-06T15:55:59.01Z</time></trkpt><trkpt lat="40.284122" lon="9.6334035"><ele>41.0</ele><time>2026-04-06T15:56:00.01Z</time></trkpt><trkpt lat="40.2841059" lon="9.6335167"><ele>41.0</ele><time>2026-04-06T15:56:01.01Z</time></trkpt><trkpt lat="40.2840865" lon="9.6336334"><ele>41.0</ele><time>2026-04-06T15:56:02.01Z</time></trkpt><trkpt lat="40.2840591" lon="9.6337481"><ele>41.0</ele><time>2026-04-06T15:56:03.009Z</time></trkpt><trkpt lat="40.2840251" lon="9.6338527"><ele>41.0</ele><time>2026-04-06T15:56:04.01Z</time></trkpt><trkpt lat="40.2839828" lon="9.6339463"><ele>41.0</ele><time>2026-04-06T15:56:05.009Z</time></trkpt><trkpt lat="40.283946" lon="9.6340437"><ele>41.0</ele><time>2026-04-06T15:56:06.01Z</time></trkpt><trkpt lat="40.2839112" lon="9.6341393"><ele>39.0</ele><time>2026-04-06T15:56:07.009Z</time></trkpt><trkpt lat="40.283876" lon="9.634229"><ele>37.0</ele><time>2026-04-06T15:56:08.01Z</time></trkpt><trkpt lat="40.2838418" lon="9.6343192"><ele>35.0</ele><time>2026-04-06T15:56:09.009Z</time></trkpt><trkpt lat="40.2838097" lon="9.6344053"><ele>33.0</ele><time>2026-04-06T15:56:10.009Z</time></trkpt><trkpt lat="40.2837754" lon="9.6344921"><ele>30.999999999999996</ele><time>2026-04-06T15:56:11.01Z</time></trkpt><trkpt lat="40.2837409" lon="9.6345849"><ele>29.0</ele><time>2026-04-06T15:56:12.01Z</time></trkpt><trkpt lat="40.2837046" lon="9.6346748"><ele>28.4</ele><time>2026-04-06T15:56:13.01Z</time></trkpt><trkpt lat="40.2836698" lon="9.6347596"><ele>27.799999999999997</ele><time>2026-04-06T15:56:14.009Z</time></trkpt><trkpt lat="40.283639" lon="9.6348378"><ele>27.200000000000003</ele><time>2026-04-06T15:56:15.009Z</time></trkpt><trkpt lat="40.2835778" lon="9.6349684"><ele>26.6</ele><time>2026-04-06T15:56:17.009Z</time></trkpt><trkpt lat="40.2835206" lon="9.6350892"><ele>26.0</ele><time>2026-04-06T15:56:19.01Z</time></trkpt><trkpt lat="40.2834809" lon="9.6351994"><ele>25.499999999999996</ele><time>2026-04-06T15:56:21.009Z</time></trkpt><trkpt lat="40.2834622" lon="9.6353149"><ele>25.0</ele><time>2026-04-06T15:56:23.01Z</time></trkpt><trkpt lat="40.2835081" lon="9.635448"><ele>24.5</ele><time>2026-04-06T15:56:25.01Z</time></trkpt><trkpt lat="40.2835587" lon="9.6355064"><ele>24.0</ele><time>2026-04-06T15:56:26.009Z</time></trkpt><trkpt lat="40.2836068" lon="9.635571"><ele>23.5</ele><time>2026-04-06T15:56:27.009Z</time></trkpt><trkpt lat="40.2836538" lon="9.6356298"><ele>23.0</ele><time>2026-04-06T15:56:28.01Z</time></trkpt><trkpt lat="40.283699" lon="9.6356873"><ele>23.0</ele><time>2026-04-06T15:56:29.01Z</time></trkpt><trkpt lat="40.2837779" lon="9.6357901"><ele>23.0</ele><time>2026-04-06T15:56:31.01Z</time></trkpt><trkpt lat="40.2838363" lon="9.6359086"><ele>23.0</ele><time>2026-04-06T15:56:33.009Z</time></trkpt><trkpt lat="40.2838787" lon="9.6360331"><ele>23.0</ele><time>2026-04-06T15:56:35.01Z</time></trkpt><trkpt lat="40.2839238" lon="9.6361479"><ele>23.0</ele><time>2026-04-06T15:56:37.01Z</time></trkpt><trkpt lat="40.283911" lon="9.6362654"><ele>20.2</ele><time>2026-04-06T15:56:39.009Z</time></trkpt><trkpt lat="40.2838598" lon="9.6363693"><ele>17.4</ele><time>2026-04-06T15:56:41.009Z</time></trkpt><trkpt lat="40.2838127" lon="9.6364951"><ele>14.6</ele><time>2026-04-06T15:56:43.01Z</time></trkpt><trkpt lat="40.2837665" lon="9.636611"><ele>11.8</ele><time>2026-04-06T15:56:45.009Z</time></trkpt><trkpt lat="40.2837174" lon="9.6367038"><ele>9.0</ele><time>2026-04-06T15:56:47.01Z</time></trkpt><trkpt lat="40.2836817" lon="9.6367984"><ele>9.0</ele><time>2026-04-06T15:56:50.01Z</time></trkpt><trkpt lat="40.2836551" lon="9.6369134"><ele>9.0</ele><time>2026-04-06T15:56:53.01Z</time></trkpt><trkpt lat="40.2836393" lon="9.6369985"><ele>9.0</ele><time>2026-04-06T15:56:56.01Z</time></trkpt><trkpt lat="40.2836216" lon="9.6371129"><ele>9.0</ele><time>2026-04-06T15:56:59.01Z</time></trkpt><trkpt lat="40.2836109" lon="9.6372165"><ele>9.0</ele><time>2026-04-06T15:57:01.01Z</time></trkpt><trkpt lat="40.2836063" lon="9.6373239"><ele>9.0</ele><time>2026-04-06T15:57:03.009Z</time></trkpt><trkpt lat="40.2836202" lon="9.6374457"><ele>8.0</ele><time>2026-04-06T15:57:05.01Z</time></trkpt><trkpt lat="40.2836497" lon="9.6375717"><ele>7.0</ele><time>2026-04-06T15:57:07.009Z</time></trkpt><trkpt lat="40.2836844" lon="9.6376956"><ele>6.0</ele><time>2026-04-06T15:57:09.01Z</time></trkpt><trkpt lat="40.2837231" lon="9.6378278"><ele>5.0</ele><time>2026-04-06T15:57:11.01Z</time></trkpt><trkpt lat="40.2837556" lon="9.6379448"><ele>4.0</ele><time>2026-04-06T15:57:13.01Z</time></trkpt><trkpt lat="40.2837852" lon="9.6380274"><ele>3.6666666666666665</ele><time>2026-04-06T15:57:15.01Z</time></trkpt><trkpt lat="40.283802" lon="9.6381224"><ele>3.333333333333333</ele><time>2026-04-06T15:57:18.01Z</time></trkpt><trkpt lat="40.2837209" lon="9.6381624"><ele>3.0</ele><time>2026-04-06T15:57:22.01Z</time></trkpt><trkpt lat="40.2836941" lon="9.6382548"><ele>2.6666666666666665</ele><time>2026-04-06T15:57:25.01Z</time></trkpt><trkpt lat="40.2837243" lon="9.6383483"><ele>2.333333333333333</ele><time>2026-04-06T15:57:28.01Z</time></trkpt><trkpt lat="40.2836997" lon="9.6384354"><ele>2.0</ele><time>2026-04-06T15:57:32.01Z</time></trkpt><trkpt lat="40.2836193" lon="9.6384675"><ele>2.0</ele><time>2026-04-06T15:57:35.01Z</time></trkpt><trkpt lat="40.2836438" lon="9.6385468"><ele>2.0</ele><time>2026-04-06T15:57:39.01Z</time></trkpt><trkpt lat="40.2836786" lon="9.6384743"><ele>2.0</ele><time>2026-04-06T15:57:42.01Z</time></trkpt></trkseg></trk></gpx>